<?xml version="1.0" encoding="UTF-8" standalone="no" ?>
<gpx xmlns="http://www.topografix.com/GPX/1/1" xmlns:xsi="http://www.w3.org/2001/XMLSchema-instance" xsi:schemaLocation="http://www.topografix.com/GPX/1/1 http://www.topografix.com/GPX/1/1/gpx.xsd" version="1.1" creator="VisuGPX - https://www.visugpx.com">
  <metadata>
    <name>Ecluzelles - J3</name>
  </metadata>
  <trk>
    <name><![CDATA[Écluzelles Cyclisme sur route]]></name>
    <trkseg>
      <trkpt lat="48.70841" lon="1.4246">
        <ele>86.599998474121</ele>
        <time>2026-06-17T06:30:57.000Z</time>
      </trkpt>
      <trkpt lat="48.70834" lon="1.4244">
        <ele>84.599998474121</ele>
        <time>2026-06-17T06:31:04.000Z</time>
      </trkpt>
      <trkpt lat="48.70832" lon="1.4243">
        <ele>84.400001525879</ele>
        <time>2026-06-17T06:31:07.000Z</time>
      </trkpt>
      <trkpt lat="48.70831" lon="1.42422">
        <ele>84.400001525879</ele>
        <time>2026-06-17T06:31:09.000Z</time>
      </trkpt>
      <trkpt lat="48.70822" lon="1.42393">
        <ele>84.800003051758</ele>
        <time>2026-06-17T06:31:19.000Z</time>
      </trkpt>
      <trkpt lat="48.70818" lon="1.42375">
        <ele>84.800003051758</ele>
        <time>2026-06-17T06:31:26.000Z</time>
      </trkpt>
      <trkpt lat="48.70818" lon="1.42371">
        <ele>84.800003051758</ele>
        <time>2026-06-17T06:31:30.000Z</time>
      </trkpt>
      <trkpt lat="48.70817" lon="1.4237">
        <ele>84.800003051758</ele>
        <time>2026-06-17T06:31:31.000Z</time>
      </trkpt>
      <trkpt lat="48.70812" lon="1.42369">
        <ele>84.800003051758</ele>
        <time>2026-06-17T06:31:34.000Z</time>
      </trkpt>
      <trkpt lat="48.70802" lon="1.4238">
        <ele>84.800003051758</ele>
        <time>2026-06-17T06:31:39.000Z</time>
      </trkpt>
      <trkpt lat="48.70786" lon="1.42392">
        <ele>84.599998474121</ele>
        <time>2026-06-17T06:31:45.000Z</time>
      </trkpt>
      <trkpt lat="48.70764" lon="1.42411">
        <ele>84.599998474121</ele>
        <time>2026-06-17T06:31:54.000Z</time>
      </trkpt>
      <trkpt lat="48.70752" lon="1.42419">
        <ele>84.800003051758</ele>
        <time>2026-06-17T06:31:59.000Z</time>
      </trkpt>
      <trkpt lat="48.70749" lon="1.4242">
        <ele>85</ele>
        <time>2026-06-17T06:32:00.000Z</time>
      </trkpt>
      <trkpt lat="48.70728" lon="1.42428">
        <ele>85.599998474121</ele>
        <time>2026-06-17T06:32:07.000Z</time>
      </trkpt>
      <trkpt lat="48.70717" lon="1.42435">
        <ele>86</ele>
        <time>2026-06-17T06:32:11.000Z</time>
      </trkpt>
      <trkpt lat="48.70712" lon="1.42441">
        <ele>86.199996948242</ele>
        <time>2026-06-17T06:32:13.000Z</time>
      </trkpt>
      <trkpt lat="48.70692" lon="1.42465">
        <ele>87</ele>
        <time>2026-06-17T06:32:20.000Z</time>
      </trkpt>
      <trkpt lat="48.70668" lon="1.4249">
        <ele>88.199996948242</ele>
        <time>2026-06-17T06:32:28.000Z</time>
      </trkpt>
      <trkpt lat="48.70647" lon="1.42511">
        <ele>89.199996948242</ele>
        <time>2026-06-17T06:32:36.000Z</time>
      </trkpt>
      <trkpt lat="48.70644" lon="1.42514">
        <ele>89.199996948242</ele>
        <time>2026-06-17T06:32:37.000Z</time>
      </trkpt>
      <trkpt lat="48.70619" lon="1.42536">
        <ele>90.199996948242</ele>
        <time>2026-06-17T06:32:46.000Z</time>
      </trkpt>
      <trkpt lat="48.70614" lon="1.42542">
        <ele>90.599998474121</ele>
        <time>2026-06-17T06:32:48.000Z</time>
      </trkpt>
      <trkpt lat="48.70596" lon="1.42562">
        <ele>91.199996948242</ele>
        <time>2026-06-17T06:32:55.000Z</time>
      </trkpt>
      <trkpt lat="48.70588" lon="1.42571">
        <ele>91.800003051758</ele>
        <time>2026-06-17T06:32:58.000Z</time>
      </trkpt>
      <trkpt lat="48.70574" lon="1.42583">
        <ele>92.400001525879</ele>
        <time>2026-06-17T06:33:03.000Z</time>
      </trkpt>
      <trkpt lat="48.70554" lon="1.42601">
        <ele>92.800003051758</ele>
        <time>2026-06-17T06:33:09.000Z</time>
      </trkpt>
      <trkpt lat="48.70526" lon="1.42623">
        <ele>93.199996948242</ele>
        <time>2026-06-17T06:33:17.000Z</time>
      </trkpt>
      <trkpt lat="48.7052" lon="1.42628">
        <ele>93.400001525879</ele>
        <time>2026-06-17T06:33:19.000Z</time>
      </trkpt>
      <trkpt lat="48.70493" lon="1.42651">
        <ele>94</ele>
        <time>2026-06-17T06:33:27.000Z</time>
      </trkpt>
      <trkpt lat="48.70483" lon="1.4266">
        <ele>94</ele>
        <time>2026-06-17T06:33:30.000Z</time>
      </trkpt>
      <trkpt lat="48.70467" lon="1.42675">
        <ele>94.400001525879</ele>
        <time>2026-06-17T06:33:35.000Z</time>
      </trkpt>
      <trkpt lat="48.70464" lon="1.42679">
        <ele>94.400001525879</ele>
        <time>2026-06-17T06:33:36.000Z</time>
      </trkpt>
      <trkpt lat="48.70431" lon="1.42721">
        <ele>94.800003051758</ele>
        <time>2026-06-17T06:33:46.000Z</time>
      </trkpt>
      <trkpt lat="48.70428" lon="1.42726">
        <ele>94.800003051758</ele>
        <time>2026-06-17T06:33:47.000Z</time>
      </trkpt>
      <trkpt lat="48.70411" lon="1.42751">
        <ele>94.800003051758</ele>
        <time>2026-06-17T06:33:53.000Z</time>
      </trkpt>
      <trkpt lat="48.70385" lon="1.42791">
        <ele>94.800003051758</ele>
        <time>2026-06-17T06:34:02.000Z</time>
      </trkpt>
      <trkpt lat="48.70379" lon="1.42802">
        <ele>94.800003051758</ele>
        <time>2026-06-17T06:34:04.000Z</time>
      </trkpt>
      <trkpt lat="48.70367" lon="1.42821">
        <ele>94.800003051758</ele>
        <time>2026-06-17T06:34:08.000Z</time>
      </trkpt>
      <trkpt lat="48.70341" lon="1.42866">
        <ele>93.800003051758</ele>
        <time>2026-06-17T06:34:17.000Z</time>
      </trkpt>
      <trkpt lat="48.70323" lon="1.42903">
        <ele>93.199996948242</ele>
        <time>2026-06-17T06:34:23.000Z</time>
      </trkpt>
      <trkpt lat="48.70314" lon="1.42921">
        <ele>93.199996948242</ele>
        <time>2026-06-17T06:34:26.000Z</time>
      </trkpt>
      <trkpt lat="48.70292" lon="1.4296">
        <ele>92.599998474121</ele>
        <time>2026-06-17T06:34:33.000Z</time>
      </trkpt>
      <trkpt lat="48.70273" lon="1.4299">
        <ele>92.199996948242</ele>
        <time>2026-06-17T06:34:39.000Z</time>
      </trkpt>
      <trkpt lat="48.70258" lon="1.43013">
        <ele>91.800003051758</ele>
        <time>2026-06-17T06:34:44.000Z</time>
      </trkpt>
      <trkpt lat="48.70254" lon="1.43018">
        <ele>91.800003051758</ele>
        <time>2026-06-17T06:34:45.000Z</time>
      </trkpt>
      <trkpt lat="48.7023" lon="1.43051">
        <ele>91.800003051758</ele>
        <time>2026-06-17T06:34:52.000Z</time>
      </trkpt>
      <trkpt lat="48.70188" lon="1.43107">
        <ele>91.800003051758</ele>
        <time>2026-06-17T06:35:04.000Z</time>
      </trkpt>
      <trkpt lat="48.70159" lon="1.43149">
        <ele>92</ele>
        <time>2026-06-17T06:35:13.000Z</time>
      </trkpt>
      <trkpt lat="48.7013" lon="1.43197">
        <ele>91.599998474121</ele>
        <time>2026-06-17T06:35:21.000Z</time>
      </trkpt>
      <trkpt lat="48.70102" lon="1.4325">
        <ele>91</ele>
        <time>2026-06-17T06:35:29.000Z</time>
      </trkpt>
      <trkpt lat="48.70091" lon="1.4327">
        <ele>90.800003051758</ele>
        <time>2026-06-17T06:35:32.000Z</time>
      </trkpt>
      <trkpt lat="48.70078" lon="1.433">
        <ele>90.199996948242</ele>
        <time>2026-06-17T06:35:36.000Z</time>
      </trkpt>
      <trkpt lat="48.70074" lon="1.43308">
        <ele>90.199996948242</ele>
        <time>2026-06-17T06:35:37.000Z</time>
      </trkpt>
      <trkpt lat="48.7007" lon="1.43314">
        <ele>90.199996948242</ele>
        <time>2026-06-17T06:35:38.000Z</time>
      </trkpt>
      <trkpt lat="48.70061" lon="1.43328">
        <ele>90</ele>
        <time>2026-06-17T06:35:40.000Z</time>
      </trkpt>
      <trkpt lat="48.70045" lon="1.43344">
        <ele>89.599998474121</ele>
        <time>2026-06-17T06:35:43.000Z</time>
      </trkpt>
      <trkpt lat="48.70034" lon="1.43354">
        <ele>89.199996948242</ele>
        <time>2026-06-17T06:35:45.000Z</time>
      </trkpt>
      <trkpt lat="48.69998" lon="1.43388">
        <ele>88</ele>
        <time>2026-06-17T06:35:52.000Z</time>
      </trkpt>
      <trkpt lat="48.69993" lon="1.43393">
        <ele>88</ele>
        <time>2026-06-17T06:35:53.000Z</time>
      </trkpt>
      <trkpt lat="48.69956" lon="1.43436">
        <ele>87.400001525879</ele>
        <time>2026-06-17T06:36:01.000Z</time>
      </trkpt>
      <trkpt lat="48.69925" lon="1.43476">
        <ele>87.199996948242</ele>
        <time>2026-06-17T06:36:08.000Z</time>
      </trkpt>
      <trkpt lat="48.69893" lon="1.43522">
        <ele>87.199996948242</ele>
        <time>2026-06-17T06:36:16.000Z</time>
      </trkpt>
      <trkpt lat="48.69887" lon="1.43527">
        <ele>87.199996948242</ele>
        <time>2026-06-17T06:36:17.000Z</time>
      </trkpt>
      <trkpt lat="48.69842" lon="1.43579">
        <ele>86.800003051758</ele>
        <time>2026-06-17T06:36:27.000Z</time>
      </trkpt>
      <trkpt lat="48.69837" lon="1.43584">
        <ele>86.800003051758</ele>
        <time>2026-06-17T06:36:28.000Z</time>
      </trkpt>
      <trkpt lat="48.69833" lon="1.4359">
        <ele>86.800003051758</ele>
        <time>2026-06-17T06:36:29.000Z</time>
      </trkpt>
      <trkpt lat="48.69796" lon="1.43642">
        <ele>86.800003051758</ele>
        <time>2026-06-17T06:36:38.000Z</time>
      </trkpt>
      <trkpt lat="48.6976" lon="1.43687">
        <ele>86.800003051758</ele>
        <time>2026-06-17T06:36:47.000Z</time>
      </trkpt>
      <trkpt lat="48.69732" lon="1.43722">
        <ele>86.800003051758</ele>
        <time>2026-06-17T06:36:54.000Z</time>
      </trkpt>
      <trkpt lat="48.69701" lon="1.43768">
        <ele>86.800003051758</ele>
        <time>2026-06-17T06:37:02.000Z</time>
      </trkpt>
      <trkpt lat="48.69666" lon="1.4381">
        <ele>86.599998474121</ele>
        <time>2026-06-17T06:37:10.000Z</time>
      </trkpt>
      <trkpt lat="48.69631" lon="1.4385">
        <ele>86.400001525879</ele>
        <time>2026-06-17T06:37:18.000Z</time>
      </trkpt>
      <trkpt lat="48.69595" lon="1.43888">
        <ele>86.400001525879</ele>
        <time>2026-06-17T06:37:26.000Z</time>
      </trkpt>
      <trkpt lat="48.69546" lon="1.43933">
        <ele>86.599998474121</ele>
        <time>2026-06-17T06:37:37.000Z</time>
      </trkpt>
      <trkpt lat="48.6951" lon="1.43963">
        <ele>86.599998474121</ele>
        <time>2026-06-17T06:37:45.000Z</time>
      </trkpt>
      <trkpt lat="48.69476" lon="1.43998">
        <ele>86.800003051758</ele>
        <time>2026-06-17T06:37:53.000Z</time>
      </trkpt>
      <trkpt lat="48.69431" lon="1.44045">
        <ele>86.800003051758</ele>
        <time>2026-06-17T06:38:03.000Z</time>
      </trkpt>
      <trkpt lat="48.69392" lon="1.44091">
        <ele>86.800003051758</ele>
        <time>2026-06-17T06:38:12.000Z</time>
      </trkpt>
      <trkpt lat="48.69376" lon="1.4411">
        <ele>86.800003051758</ele>
        <time>2026-06-17T06:38:16.000Z</time>
      </trkpt>
      <trkpt lat="48.69357" lon="1.44128">
        <ele>86.800003051758</ele>
        <time>2026-06-17T06:38:20.000Z</time>
      </trkpt>
      <trkpt lat="48.69325" lon="1.44159">
        <ele>87</ele>
        <time>2026-06-17T06:38:27.000Z</time>
      </trkpt>
      <trkpt lat="48.69315" lon="1.44166">
        <ele>87</ele>
        <time>2026-06-17T06:38:29.000Z</time>
      </trkpt>
      <trkpt lat="48.69287" lon="1.4419">
        <ele>87</ele>
        <time>2026-06-17T06:38:35.000Z</time>
      </trkpt>
      <trkpt lat="48.69262" lon="1.44215">
        <ele>87</ele>
        <time>2026-06-17T06:38:41.000Z</time>
      </trkpt>
      <trkpt lat="48.69222" lon="1.44253">
        <ele>87.199996948242</ele>
        <time>2026-06-17T06:38:50.000Z</time>
      </trkpt>
      <trkpt lat="48.69186" lon="1.44286">
        <ele>87.400001525879</ele>
        <time>2026-06-17T06:38:58.000Z</time>
      </trkpt>
      <trkpt lat="48.69182" lon="1.44291">
        <ele>87.400001525879</ele>
        <time>2026-06-17T06:38:59.000Z</time>
      </trkpt>
      <trkpt lat="48.6916" lon="1.44312">
        <ele>87.599998474121</ele>
        <time>2026-06-17T06:39:04.000Z</time>
      </trkpt>
      <trkpt lat="48.6915" lon="1.44321">
        <ele>87.599998474121</ele>
        <time>2026-06-17T06:39:06.000Z</time>
      </trkpt>
      <trkpt lat="48.69115" lon="1.44354">
        <ele>87.599998474121</ele>
        <time>2026-06-17T06:39:14.000Z</time>
      </trkpt>
      <trkpt lat="48.69099" lon="1.44367">
        <ele>87.599998474121</ele>
        <time>2026-06-17T06:39:17.000Z</time>
      </trkpt>
      <trkpt lat="48.69089" lon="1.44374">
        <ele>87.599998474121</ele>
        <time>2026-06-17T06:39:19.000Z</time>
      </trkpt>
      <trkpt lat="48.69041" lon="1.44402">
        <ele>87.400001525879</ele>
        <time>2026-06-17T06:39:28.000Z</time>
      </trkpt>
      <trkpt lat="48.6899" lon="1.44428">
        <ele>87.199996948242</ele>
        <time>2026-06-17T06:39:37.000Z</time>
      </trkpt>
      <trkpt lat="48.68946" lon="1.44446">
        <ele>87</ele>
        <time>2026-06-17T06:39:45.000Z</time>
      </trkpt>
      <trkpt lat="48.68893" lon="1.44466">
        <ele>86.800003051758</ele>
        <time>2026-06-17T06:39:55.000Z</time>
      </trkpt>
      <trkpt lat="48.68888" lon="1.44468">
        <ele>87</ele>
        <time>2026-06-17T06:39:56.000Z</time>
      </trkpt>
      <trkpt lat="48.68848" lon="1.44494">
        <ele>87.199996948242</ele>
        <time>2026-06-17T06:40:04.000Z</time>
      </trkpt>
      <trkpt lat="48.68815" lon="1.44519">
        <ele>87.599998474121</ele>
        <time>2026-06-17T06:40:11.000Z</time>
      </trkpt>
      <trkpt lat="48.6881" lon="1.44522">
        <ele>87.599998474121</ele>
        <time>2026-06-17T06:40:12.000Z</time>
      </trkpt>
      <trkpt lat="48.68776" lon="1.4455">
        <ele>88.199996948242</ele>
        <time>2026-06-17T06:40:20.000Z</time>
      </trkpt>
      <trkpt lat="48.68742" lon="1.44575">
        <ele>88.599998474121</ele>
        <time>2026-06-17T06:40:28.000Z</time>
      </trkpt>
      <trkpt lat="48.68726" lon="1.44584">
        <ele>89</ele>
        <time>2026-06-17T06:40:32.000Z</time>
      </trkpt>
      <trkpt lat="48.68721" lon="1.44587">
        <ele>89.199996948242</ele>
        <time>2026-06-17T06:40:33.000Z</time>
      </trkpt>
      <trkpt lat="48.68713" lon="1.44593">
        <ele>89.400001525879</ele>
        <time>2026-06-17T06:40:35.000Z</time>
      </trkpt>
      <trkpt lat="48.68701" lon="1.44602">
        <ele>89.800003051758</ele>
        <time>2026-06-17T06:40:38.000Z</time>
      </trkpt>
      <trkpt lat="48.68692" lon="1.4461">
        <ele>90.199996948242</ele>
        <time>2026-06-17T06:40:40.000Z</time>
      </trkpt>
      <trkpt lat="48.68688" lon="1.44613">
        <ele>90.199996948242</ele>
        <time>2026-06-17T06:40:41.000Z</time>
      </trkpt>
      <trkpt lat="48.68682" lon="1.44615">
        <ele>90.400001525879</ele>
        <time>2026-06-17T06:40:42.000Z</time>
      </trkpt>
      <trkpt lat="48.68667" lon="1.44628">
        <ele>91.199996948242</ele>
        <time>2026-06-17T06:40:46.000Z</time>
      </trkpt>
      <trkpt lat="48.6866" lon="1.44635">
        <ele>91.400001525879</ele>
        <time>2026-06-17T06:40:48.000Z</time>
      </trkpt>
      <trkpt lat="48.68648" lon="1.44643">
        <ele>91.800003051758</ele>
        <time>2026-06-17T06:40:51.000Z</time>
      </trkpt>
      <trkpt lat="48.68634" lon="1.44656">
        <ele>92.599998474121</ele>
        <time>2026-06-17T06:40:55.000Z</time>
      </trkpt>
      <trkpt lat="48.68631" lon="1.44659">
        <ele>92.800003051758</ele>
        <time>2026-06-17T06:40:56.000Z</time>
      </trkpt>
      <trkpt lat="48.68608" lon="1.44676">
        <ele>93.800003051758</ele>
        <time>2026-06-17T06:41:03.000Z</time>
      </trkpt>
      <trkpt lat="48.68605" lon="1.44677">
        <ele>94</ele>
        <time>2026-06-17T06:41:04.000Z</time>
      </trkpt>
      <trkpt lat="48.68585" lon="1.44694">
        <ele>95</ele>
        <time>2026-06-17T06:41:10.000Z</time>
      </trkpt>
      <trkpt lat="48.68577" lon="1.44701">
        <ele>95.199996948242</ele>
        <time>2026-06-17T06:41:12.000Z</time>
      </trkpt>
      <trkpt lat="48.68568" lon="1.44706">
        <ele>95.400001525879</ele>
        <time>2026-06-17T06:41:14.000Z</time>
      </trkpt>
      <trkpt lat="48.68551" lon="1.44719">
        <ele>95.599998474121</ele>
        <time>2026-06-17T06:41:18.000Z</time>
      </trkpt>
      <trkpt lat="48.68541" lon="1.44727">
        <ele>95.800003051758</ele>
        <time>2026-06-17T06:41:20.000Z</time>
      </trkpt>
      <trkpt lat="48.68527" lon="1.44741">
        <ele>96</ele>
        <time>2026-06-17T06:41:24.000Z</time>
      </trkpt>
      <trkpt lat="48.68524" lon="1.44746">
        <ele>96</ele>
        <time>2026-06-17T06:41:25.000Z</time>
      </trkpt>
      <trkpt lat="48.68519" lon="1.4475">
        <ele>96</ele>
        <time>2026-06-17T06:41:26.000Z</time>
      </trkpt>
      <trkpt lat="48.68515" lon="1.44755">
        <ele>96</ele>
        <time>2026-06-17T06:41:27.000Z</time>
      </trkpt>
      <trkpt lat="48.68511" lon="1.44758">
        <ele>96</ele>
        <time>2026-06-17T06:41:28.000Z</time>
      </trkpt>
      <trkpt lat="48.68502" lon="1.44768">
        <ele>96</ele>
        <time>2026-06-17T06:41:30.000Z</time>
      </trkpt>
      <trkpt lat="48.68497" lon="1.44773">
        <ele>96</ele>
        <time>2026-06-17T06:41:31.000Z</time>
      </trkpt>
      <trkpt lat="48.68493" lon="1.44776">
        <ele>96</ele>
        <time>2026-06-17T06:41:32.000Z</time>
      </trkpt>
      <trkpt lat="48.68483" lon="1.44785">
        <ele>96</ele>
        <time>2026-06-17T06:41:34.000Z</time>
      </trkpt>
      <trkpt lat="48.68472" lon="1.44795">
        <ele>95.599998474121</ele>
        <time>2026-06-17T06:41:36.000Z</time>
      </trkpt>
      <trkpt lat="48.68468" lon="1.448">
        <ele>95.400001525879</ele>
        <time>2026-06-17T06:41:37.000Z</time>
      </trkpt>
      <trkpt lat="48.68449" lon="1.44818">
        <ele>95.199996948242</ele>
        <time>2026-06-17T06:41:41.000Z</time>
      </trkpt>
      <trkpt lat="48.68435" lon="1.4483">
        <ele>94.800003051758</ele>
        <time>2026-06-17T06:41:44.000Z</time>
      </trkpt>
      <trkpt lat="48.68425" lon="1.44837">
        <ele>94.599998474121</ele>
        <time>2026-06-17T06:41:46.000Z</time>
      </trkpt>
      <trkpt lat="48.6842" lon="1.44843">
        <ele>94.599998474121</ele>
        <time>2026-06-17T06:41:47.000Z</time>
      </trkpt>
      <trkpt lat="48.68381" lon="1.44877">
        <ele>94</ele>
        <time>2026-06-17T06:41:55.000Z</time>
      </trkpt>
      <trkpt lat="48.68375" lon="1.44882">
        <ele>93.800003051758</ele>
        <time>2026-06-17T06:41:56.000Z</time>
      </trkpt>
      <trkpt lat="48.68366" lon="1.44889">
        <ele>93.800003051758</ele>
        <time>2026-06-17T06:41:58.000Z</time>
      </trkpt>
      <trkpt lat="48.6834" lon="1.44913">
        <ele>93.800003051758</ele>
        <time>2026-06-17T06:42:03.000Z</time>
      </trkpt>
      <trkpt lat="48.6832" lon="1.44927">
        <ele>93.800003051758</ele>
        <time>2026-06-17T06:42:07.000Z</time>
      </trkpt>
      <trkpt lat="48.68309" lon="1.44933">
        <ele>93.800003051758</ele>
        <time>2026-06-17T06:42:09.000Z</time>
      </trkpt>
      <trkpt lat="48.68274" lon="1.44949">
        <ele>94.400001525879</ele>
        <time>2026-06-17T06:42:16.000Z</time>
      </trkpt>
      <trkpt lat="48.68241" lon="1.4496">
        <ele>94.800003051758</ele>
        <time>2026-06-17T06:42:23.000Z</time>
      </trkpt>
      <trkpt lat="48.68227" lon="1.44966">
        <ele>95</ele>
        <time>2026-06-17T06:42:26.000Z</time>
      </trkpt>
      <trkpt lat="48.68209" lon="1.44972">
        <ele>95.599998474121</ele>
        <time>2026-06-17T06:42:30.000Z</time>
      </trkpt>
      <trkpt lat="48.682" lon="1.44976">
        <ele>95.800003051758</ele>
        <time>2026-06-17T06:42:32.000Z</time>
      </trkpt>
      <trkpt lat="48.68191" lon="1.4498">
        <ele>96</ele>
        <time>2026-06-17T06:42:34.000Z</time>
      </trkpt>
      <trkpt lat="48.68181" lon="1.44984">
        <ele>96.400001525879</ele>
        <time>2026-06-17T06:42:36.000Z</time>
      </trkpt>
      <trkpt lat="48.68161" lon="1.44995">
        <ele>97</ele>
        <time>2026-06-17T06:42:40.000Z</time>
      </trkpt>
      <trkpt lat="48.68145" lon="1.45002">
        <ele>97.199996948242</ele>
        <time>2026-06-17T06:42:43.000Z</time>
      </trkpt>
      <trkpt lat="48.68139" lon="1.45003">
        <ele>97.199996948242</ele>
        <time>2026-06-17T06:42:44.000Z</time>
      </trkpt>
      <trkpt lat="48.68132" lon="1.45005">
        <ele>97.199996948242</ele>
        <time>2026-06-17T06:42:45.000Z</time>
      </trkpt>
      <trkpt lat="48.68109" lon="1.4502">
        <ele>97.400001525879</ele>
        <time>2026-06-17T06:42:50.000Z</time>
      </trkpt>
      <trkpt lat="48.68069" lon="1.4504">
        <ele>97.400001525879</ele>
        <time>2026-06-17T06:42:58.000Z</time>
      </trkpt>
      <trkpt lat="48.68022" lon="1.45063">
        <ele>97.400001525879</ele>
        <time>2026-06-17T06:43:07.000Z</time>
      </trkpt>
      <trkpt lat="48.68006" lon="1.45074">
        <ele>97.400001525879</ele>
        <time>2026-06-17T06:43:10.000Z</time>
      </trkpt>
      <trkpt lat="48.67992" lon="1.45083">
        <ele>97</ele>
        <time>2026-06-17T06:43:12.000Z</time>
      </trkpt>
      <trkpt lat="48.67986" lon="1.45086">
        <ele>97</ele>
        <time>2026-06-17T06:43:13.000Z</time>
      </trkpt>
      <trkpt lat="48.67981" lon="1.45089">
        <ele>96.800003051758</ele>
        <time>2026-06-17T06:43:15.000Z</time>
      </trkpt>
      <trkpt lat="48.67958" lon="1.45102">
        <ele>96.800003051758</ele>
        <time>2026-06-17T06:43:19.000Z</time>
      </trkpt>
      <trkpt lat="48.67952" lon="1.45105">
        <ele>96.800003051758</ele>
        <time>2026-06-17T06:43:20.000Z</time>
      </trkpt>
      <trkpt lat="48.67935" lon="1.45119">
        <ele>96.400001525879</ele>
        <time>2026-06-17T06:43:23.000Z</time>
      </trkpt>
      <trkpt lat="48.67929" lon="1.45124">
        <ele>96.199996948242</ele>
        <time>2026-06-17T06:43:24.000Z</time>
      </trkpt>
      <trkpt lat="48.67895" lon="1.45156">
        <ele>95.800003051758</ele>
        <time>2026-06-17T06:43:30.000Z</time>
      </trkpt>
      <trkpt lat="48.67889" lon="1.4516">
        <ele>95.599998474121</ele>
        <time>2026-06-17T06:43:31.000Z</time>
      </trkpt>
      <trkpt lat="48.67866" lon="1.45182">
        <ele>95.199996948242</ele>
        <time>2026-06-17T06:43:35.000Z</time>
      </trkpt>
      <trkpt lat="48.67842" lon="1.45206">
        <ele>94.599998474121</ele>
        <time>2026-06-17T06:43:39.000Z</time>
      </trkpt>
      <trkpt lat="48.67831" lon="1.45218">
        <ele>94.199996948242</ele>
        <time>2026-06-17T06:43:41.000Z</time>
      </trkpt>
      <trkpt lat="48.67824" lon="1.45223">
        <ele>94.199996948242</ele>
        <time>2026-06-17T06:43:42.000Z</time>
      </trkpt>
      <trkpt lat="48.67802" lon="1.45242">
        <ele>93.800003051758</ele>
        <time>2026-06-17T06:43:46.000Z</time>
      </trkpt>
      <trkpt lat="48.67766" lon="1.45277">
        <ele>93.599998474121</ele>
        <time>2026-06-17T06:43:53.000Z</time>
      </trkpt>
      <trkpt lat="48.67739" lon="1.45308">
        <ele>93.599998474121</ele>
        <time>2026-06-17T06:43:59.000Z</time>
      </trkpt>
      <trkpt lat="48.67735" lon="1.45315">
        <ele>93.599998474121</ele>
        <time>2026-06-17T06:44:00.000Z</time>
      </trkpt>
      <trkpt lat="48.6771" lon="1.45366">
        <ele>93.599998474121</ele>
        <time>2026-06-17T06:44:06.000Z</time>
      </trkpt>
      <trkpt lat="48.67703" lon="1.45382">
        <ele>93.400001525879</ele>
        <time>2026-06-17T06:44:08.000Z</time>
      </trkpt>
      <trkpt lat="48.67687" lon="1.45417">
        <ele>92.800003051758</ele>
        <time>2026-06-17T06:44:12.000Z</time>
      </trkpt>
      <trkpt lat="48.67672" lon="1.45449">
        <ele>92.400001525879</ele>
        <time>2026-06-17T06:44:16.000Z</time>
      </trkpt>
      <trkpt lat="48.67659" lon="1.45487">
        <ele>91.800003051758</ele>
        <time>2026-06-17T06:44:20.000Z</time>
      </trkpt>
      <trkpt lat="48.67652" lon="1.45519">
        <ele>91.199996948242</ele>
        <time>2026-06-17T06:44:23.000Z</time>
      </trkpt>
      <trkpt lat="48.67647" lon="1.45554">
        <ele>90.599998474121</ele>
        <time>2026-06-17T06:44:26.000Z</time>
      </trkpt>
      <trkpt lat="48.67646" lon="1.45567">
        <ele>90.199996948242</ele>
        <time>2026-06-17T06:44:27.000Z</time>
      </trkpt>
      <trkpt lat="48.67644" lon="1.45615">
        <ele>89.199996948242</ele>
        <time>2026-06-17T06:44:31.000Z</time>
      </trkpt>
      <trkpt lat="48.67643" lon="1.45626">
        <ele>88.800003051758</ele>
        <time>2026-06-17T06:44:32.000Z</time>
      </trkpt>
      <trkpt lat="48.67638" lon="1.45647">
        <ele>88.400001525879</ele>
        <time>2026-06-17T06:44:34.000Z</time>
      </trkpt>
      <trkpt lat="48.67631" lon="1.45666">
        <ele>88.400001525879</ele>
        <time>2026-06-17T06:44:36.000Z</time>
      </trkpt>
      <trkpt lat="48.67627" lon="1.45674">
        <ele>88.199996948242</ele>
        <time>2026-06-17T06:44:37.000Z</time>
      </trkpt>
      <trkpt lat="48.67614" lon="1.45696">
        <ele>88.199996948242</ele>
        <time>2026-06-17T06:44:40.000Z</time>
      </trkpt>
      <trkpt lat="48.67588" lon="1.45735">
        <ele>87.800003051758</ele>
        <time>2026-06-17T06:44:46.000Z</time>
      </trkpt>
      <trkpt lat="48.67567" lon="1.45779">
        <ele>88.199996948242</ele>
        <time>2026-06-17T06:44:52.000Z</time>
      </trkpt>
      <trkpt lat="48.67542" lon="1.4584">
        <ele>88.599998474121</ele>
        <time>2026-06-17T06:45:00.000Z</time>
      </trkpt>
      <trkpt lat="48.67518" lon="1.45886">
        <ele>89.199996948242</ele>
        <time>2026-06-17T06:45:06.000Z</time>
      </trkpt>
      <trkpt lat="48.67503" lon="1.45909">
        <ele>89.800003051758</ele>
        <time>2026-06-17T06:45:10.000Z</time>
      </trkpt>
      <trkpt lat="48.67498" lon="1.45914">
        <ele>89.800003051758</ele>
        <time>2026-06-17T06:45:11.000Z</time>
      </trkpt>
      <trkpt lat="48.67491" lon="1.4592">
        <ele>90.400001525879</ele>
        <time>2026-06-17T06:45:13.000Z</time>
      </trkpt>
      <trkpt lat="48.67476" lon="1.45933">
        <ele>91.199996948242</ele>
        <time>2026-06-17T06:45:17.000Z</time>
      </trkpt>
      <trkpt lat="48.67472" lon="1.45935">
        <ele>91.599998474121</ele>
        <time>2026-06-17T06:45:18.000Z</time>
      </trkpt>
      <trkpt lat="48.67467" lon="1.45936">
        <ele>92</ele>
        <time>2026-06-17T06:45:21.000Z</time>
      </trkpt>
      <trkpt lat="48.67467" lon="1.45923">
        <ele>92.800003051758</ele>
        <time>2026-06-17T06:45:24.000Z</time>
      </trkpt>
      <trkpt lat="48.67467" lon="1.45917">
        <ele>93.199996948242</ele>
        <time>2026-06-17T06:45:25.000Z</time>
      </trkpt>
      <trkpt lat="48.67467" lon="1.45899">
        <ele>93.800003051758</ele>
        <time>2026-06-17T06:45:28.000Z</time>
      </trkpt>
      <trkpt lat="48.67465" lon="1.45881">
        <ele>94.400001525879</ele>
        <time>2026-06-17T06:45:31.000Z</time>
      </trkpt>
      <trkpt lat="48.67464" lon="1.45876">
        <ele>94.800003051758</ele>
        <time>2026-06-17T06:45:32.000Z</time>
      </trkpt>
      <trkpt lat="48.67463" lon="1.45871">
        <ele>95</ele>
        <time>2026-06-17T06:45:33.000Z</time>
      </trkpt>
      <trkpt lat="48.6746" lon="1.45859">
        <ele>95.800003051758</ele>
        <time>2026-06-17T06:45:36.000Z</time>
      </trkpt>
      <trkpt lat="48.6746" lon="1.45855">
        <ele>96</ele>
        <time>2026-06-17T06:45:37.000Z</time>
      </trkpt>
      <trkpt lat="48.67459" lon="1.45851">
        <ele>96.199996948242</ele>
        <time>2026-06-17T06:45:38.000Z</time>
      </trkpt>
      <trkpt lat="48.67458" lon="1.45845">
        <ele>96.400001525879</ele>
        <time>2026-06-17T06:45:40.000Z</time>
      </trkpt>
      <trkpt lat="48.67454" lon="1.45826">
        <ele>97</ele>
        <time>2026-06-17T06:45:47.000Z</time>
      </trkpt>
      <trkpt lat="48.67453" lon="1.45824">
        <ele>97</ele>
        <time>2026-06-17T06:45:48.000Z</time>
      </trkpt>
      <trkpt lat="48.67452" lon="1.45818">
        <ele>97.400001525879</ele>
        <time>2026-06-17T06:45:51.000Z</time>
      </trkpt>
      <trkpt lat="48.67451" lon="1.45816">
        <ele>97.599998474121</ele>
        <time>2026-06-17T06:45:53.000Z</time>
      </trkpt>
      <trkpt lat="48.67455" lon="1.45829">
        <ele>97.800003051758</ele>
        <time>2026-06-17T06:45:59.000Z</time>
      </trkpt>
      <trkpt lat="48.67457" lon="1.45847">
        <ele>97.800003051758</ele>
        <time>2026-06-17T06:46:06.000Z</time>
      </trkpt>
      <trkpt lat="48.67461" lon="1.45874">
        <ele>97.400001525879</ele>
        <time>2026-06-17T06:46:12.000Z</time>
      </trkpt>
      <trkpt lat="48.67466" lon="1.45916">
        <ele>96.400001525879</ele>
        <time>2026-06-17T06:46:19.000Z</time>
      </trkpt>
      <trkpt lat="48.67466" lon="1.45927">
        <ele>96</ele>
        <time>2026-06-17T06:46:21.000Z</time>
      </trkpt>
      <trkpt lat="48.67465" lon="1.45958">
        <ele>95</ele>
        <time>2026-06-17T06:46:26.000Z</time>
      </trkpt>
      <trkpt lat="48.67463" lon="1.45964">
        <ele>94.599998474121</ele>
        <time>2026-06-17T06:46:27.000Z</time>
      </trkpt>
      <trkpt lat="48.67456" lon="1.45983">
        <ele>94.199996948242</ele>
        <time>2026-06-17T06:46:30.000Z</time>
      </trkpt>
      <trkpt lat="48.67455" lon="1.4599">
        <ele>94</ele>
        <time>2026-06-17T06:46:31.000Z</time>
      </trkpt>
      <trkpt lat="48.6745" lon="1.4601">
        <ele>93.400001525879</ele>
        <time>2026-06-17T06:46:34.000Z</time>
      </trkpt>
      <trkpt lat="48.67444" lon="1.46031">
        <ele>93</ele>
        <time>2026-06-17T06:46:37.000Z</time>
      </trkpt>
      <trkpt lat="48.67441" lon="1.46038">
        <ele>92.800003051758</ele>
        <time>2026-06-17T06:46:38.000Z</time>
      </trkpt>
      <trkpt lat="48.67433" lon="1.46049">
        <ele>92.400001525879</ele>
        <time>2026-06-17T06:46:40.000Z</time>
      </trkpt>
      <trkpt lat="48.67429" lon="1.46054">
        <ele>92</ele>
        <time>2026-06-17T06:46:41.000Z</time>
      </trkpt>
      <trkpt lat="48.67425" lon="1.46057">
        <ele>91.800003051758</ele>
        <time>2026-06-17T06:46:42.000Z</time>
      </trkpt>
      <trkpt lat="48.67422" lon="1.46061">
        <ele>91.800003051758</ele>
        <time>2026-06-17T06:46:43.000Z</time>
      </trkpt>
      <trkpt lat="48.67412" lon="1.4607">
        <ele>91.599998474121</ele>
        <time>2026-06-17T06:46:46.000Z</time>
      </trkpt>
      <trkpt lat="48.6741" lon="1.46072">
        <ele>91.400001525879</ele>
        <time>2026-06-17T06:46:47.000Z</time>
      </trkpt>
      <trkpt lat="48.67404" lon="1.46071">
        <ele>91.400001525879</ele>
        <time>2026-06-17T06:46:49.000Z</time>
      </trkpt>
      <trkpt lat="48.67402" lon="1.46069">
        <ele>91.400001525879</ele>
        <time>2026-06-17T06:46:50.000Z</time>
      </trkpt>
      <trkpt lat="48.67399" lon="1.4606">
        <ele>91.400001525879</ele>
        <time>2026-06-17T06:46:53.000Z</time>
      </trkpt>
      <trkpt lat="48.67392" lon="1.46043">
        <ele>91.599998474121</ele>
        <time>2026-06-17T06:46:59.000Z</time>
      </trkpt>
      <trkpt lat="48.67389" lon="1.46013">
        <ele>92</ele>
        <time>2026-06-17T06:47:06.000Z</time>
      </trkpt>
      <trkpt lat="48.67385" lon="1.4599">
        <ele>92.599998474121</ele>
        <time>2026-06-17T06:47:11.000Z</time>
      </trkpt>
      <trkpt lat="48.67384" lon="1.45979">
        <ele>92.800003051758</ele>
        <time>2026-06-17T06:47:13.000Z</time>
      </trkpt>
      <trkpt lat="48.67379" lon="1.45945">
        <ele>93.599998474121</ele>
        <time>2026-06-17T06:47:20.000Z</time>
      </trkpt>
      <trkpt lat="48.67371" lon="1.45902">
        <ele>93.599998474121</ele>
        <time>2026-06-17T06:47:28.000Z</time>
      </trkpt>
      <trkpt lat="48.67368" lon="1.45868">
        <ele>93.800003051758</ele>
        <time>2026-06-17T06:47:34.000Z</time>
      </trkpt>
      <trkpt lat="48.67366" lon="1.45849">
        <ele>93.800003051758</ele>
        <time>2026-06-17T06:47:37.000Z</time>
      </trkpt>
      <trkpt lat="48.67361" lon="1.45807">
        <ele>94.199996948242</ele>
        <time>2026-06-17T06:47:44.000Z</time>
      </trkpt>
      <trkpt lat="48.67356" lon="1.45772">
        <ele>95</ele>
        <time>2026-06-17T06:47:50.000Z</time>
      </trkpt>
      <trkpt lat="48.67353" lon="1.45744">
        <ele>96</ele>
        <time>2026-06-17T06:47:55.000Z</time>
      </trkpt>
      <trkpt lat="48.67352" lon="1.45739">
        <ele>96</ele>
        <time>2026-06-17T06:47:56.000Z</time>
      </trkpt>
      <trkpt lat="48.67346" lon="1.45702">
        <ele>97.199996948242</ele>
        <time>2026-06-17T06:48:03.000Z</time>
      </trkpt>
      <trkpt lat="48.67344" lon="1.45691">
        <ele>97.400001525879</ele>
        <time>2026-06-17T06:48:05.000Z</time>
      </trkpt>
      <trkpt lat="48.67332" lon="1.45661">
        <ele>98.199996948242</ele>
        <time>2026-06-17T06:48:11.000Z</time>
      </trkpt>
      <trkpt lat="48.67326" lon="1.45648">
        <ele>98.199996948242</ele>
        <time>2026-06-17T06:48:13.000Z</time>
      </trkpt>
      <trkpt lat="48.67304" lon="1.45607">
        <ele>98.599998474121</ele>
        <time>2026-06-17T06:48:22.000Z</time>
      </trkpt>
      <trkpt lat="48.67279" lon="1.45556">
        <ele>99</ele>
        <time>2026-06-17T06:48:31.000Z</time>
      </trkpt>
      <trkpt lat="48.67257" lon="1.4551">
        <ele>99.599998474121</ele>
        <time>2026-06-17T06:48:39.000Z</time>
      </trkpt>
      <trkpt lat="48.67251" lon="1.45499">
        <ele>99.800003051758</ele>
        <time>2026-06-17T06:48:41.000Z</time>
      </trkpt>
      <trkpt lat="48.67241" lon="1.45476">
        <ele>100</ele>
        <time>2026-06-17T06:48:45.000Z</time>
      </trkpt>
      <trkpt lat="48.67227" lon="1.45448">
        <ele>100.19999694824</ele>
        <time>2026-06-17T06:48:50.000Z</time>
      </trkpt>
      <trkpt lat="48.67218" lon="1.45432">
        <ele>100.40000152588</ele>
        <time>2026-06-17T06:48:53.000Z</time>
      </trkpt>
      <trkpt lat="48.67182" lon="1.45385">
        <ele>101</ele>
        <time>2026-06-17T06:49:03.000Z</time>
      </trkpt>
      <trkpt lat="48.67178" lon="1.45381">
        <ele>101.19999694824</ele>
        <time>2026-06-17T06:49:04.000Z</time>
      </trkpt>
      <trkpt lat="48.67164" lon="1.45364">
        <ele>101.40000152588</ele>
        <time>2026-06-17T06:49:08.000Z</time>
      </trkpt>
      <trkpt lat="48.67157" lon="1.45354">
        <ele>101.59999847412</ele>
        <time>2026-06-17T06:49:10.000Z</time>
      </trkpt>
      <trkpt lat="48.67153" lon="1.4535">
        <ele>101.59999847412</ele>
        <time>2026-06-17T06:49:11.000Z</time>
      </trkpt>
      <trkpt lat="48.67124" lon="1.45312">
        <ele>102.19999694824</ele>
        <time>2026-06-17T06:49:19.000Z</time>
      </trkpt>
      <trkpt lat="48.6711" lon="1.45292">
        <ele>102.40000152588</ele>
        <time>2026-06-17T06:49:23.000Z</time>
      </trkpt>
      <trkpt lat="48.6708" lon="1.45248">
        <ele>103.19999694824</ele>
        <time>2026-06-17T06:49:32.000Z</time>
      </trkpt>
      <trkpt lat="48.67077" lon="1.45244">
        <ele>103.40000152588</ele>
        <time>2026-06-17T06:49:33.000Z</time>
      </trkpt>
      <trkpt lat="48.67055" lon="1.45202">
        <ele>103.80000305176</ele>
        <time>2026-06-17T06:49:41.000Z</time>
      </trkpt>
      <trkpt lat="48.6705" lon="1.4519">
        <ele>103.80000305176</ele>
        <time>2026-06-17T06:49:43.000Z</time>
      </trkpt>
      <trkpt lat="48.67044" lon="1.4517">
        <ele>104.19999694824</ele>
        <time>2026-06-17T06:49:46.000Z</time>
      </trkpt>
      <trkpt lat="48.6704" lon="1.45155">
        <ele>104.19999694824</ele>
        <time>2026-06-17T06:49:48.000Z</time>
      </trkpt>
      <trkpt lat="48.67023" lon="1.45093">
        <ele>105.19999694824</ele>
        <time>2026-06-17T06:49:57.000Z</time>
      </trkpt>
      <trkpt lat="48.67012" lon="1.45036">
        <ele>106</ele>
        <time>2026-06-17T06:50:05.000Z</time>
      </trkpt>
      <trkpt lat="48.6701" lon="1.45022">
        <ele>106.19999694824</ele>
        <time>2026-06-17T06:50:07.000Z</time>
      </trkpt>
      <trkpt lat="48.67001" lon="1.44965">
        <ele>106.40000152588</ele>
        <time>2026-06-17T06:50:15.000Z</time>
      </trkpt>
      <trkpt lat="48.66989" lon="1.44902">
        <ele>106.80000305176</ele>
        <time>2026-06-17T06:50:24.000Z</time>
      </trkpt>
      <trkpt lat="48.6698" lon="1.44868">
        <ele>107</ele>
        <time>2026-06-17T06:50:29.000Z</time>
      </trkpt>
      <trkpt lat="48.66974" lon="1.44849">
        <ele>107.19999694824</ele>
        <time>2026-06-17T06:50:32.000Z</time>
      </trkpt>
      <trkpt lat="48.66955" lon="1.4481">
        <ele>108.19999694824</ele>
        <time>2026-06-17T06:50:39.000Z</time>
      </trkpt>
      <trkpt lat="48.66944" lon="1.44796">
        <ele>108.80000305176</ele>
        <time>2026-06-17T06:50:42.000Z</time>
      </trkpt>
      <trkpt lat="48.66936" lon="1.44788">
        <ele>109</ele>
        <time>2026-06-17T06:50:44.000Z</time>
      </trkpt>
      <trkpt lat="48.66933" lon="1.44783">
        <ele>109</ele>
        <time>2026-06-17T06:50:45.000Z</time>
      </trkpt>
      <trkpt lat="48.66922" lon="1.4477">
        <ele>109.40000152588</ele>
        <time>2026-06-17T06:50:48.000Z</time>
      </trkpt>
      <trkpt lat="48.66901" lon="1.44749">
        <ele>109.80000305176</ele>
        <time>2026-06-17T06:50:53.000Z</time>
      </trkpt>
      <trkpt lat="48.66872" lon="1.44718">
        <ele>110.40000152588</ele>
        <time>2026-06-17T06:51:00.000Z</time>
      </trkpt>
      <trkpt lat="48.66858" lon="1.44698">
        <ele>110.59999847412</ele>
        <time>2026-06-17T06:51:04.000Z</time>
      </trkpt>
      <trkpt lat="48.66834" lon="1.44659">
        <ele>111.40000152588</ele>
        <time>2026-06-17T06:51:12.000Z</time>
      </trkpt>
      <trkpt lat="48.66831" lon="1.44655">
        <ele>111.40000152588</ele>
        <time>2026-06-17T06:51:13.000Z</time>
      </trkpt>
      <trkpt lat="48.66814" lon="1.44622">
        <ele>112.40000152588</ele>
        <time>2026-06-17T06:51:19.000Z</time>
      </trkpt>
      <trkpt lat="48.66811" lon="1.44616">
        <ele>112.59999847412</ele>
        <time>2026-06-17T06:51:20.000Z</time>
      </trkpt>
      <trkpt lat="48.66795" lon="1.44588">
        <ele>113.59999847412</ele>
        <time>2026-06-17T06:51:25.000Z</time>
      </trkpt>
      <trkpt lat="48.66791" lon="1.44583">
        <ele>113.59999847412</ele>
        <time>2026-06-17T06:51:26.000Z</time>
      </trkpt>
      <trkpt lat="48.66786" lon="1.44578">
        <ele>113.80000305176</ele>
        <time>2026-06-17T06:51:27.000Z</time>
      </trkpt>
      <trkpt lat="48.66782" lon="1.44574">
        <ele>113.80000305176</ele>
        <time>2026-06-17T06:51:28.000Z</time>
      </trkpt>
      <trkpt lat="48.66773" lon="1.44564">
        <ele>113.59999847412</ele>
        <time>2026-06-17T06:51:30.000Z</time>
      </trkpt>
      <trkpt lat="48.66769" lon="1.44559">
        <ele>113.80000305176</ele>
        <time>2026-06-17T06:51:31.000Z</time>
      </trkpt>
      <trkpt lat="48.66741" lon="1.44523">
        <ele>114.40000152588</ele>
        <time>2026-06-17T06:51:38.000Z</time>
      </trkpt>
      <trkpt lat="48.66731" lon="1.44508">
        <ele>114.59999847412</ele>
        <time>2026-06-17T06:51:41.000Z</time>
      </trkpt>
      <trkpt lat="48.66719" lon="1.44487">
        <ele>115</ele>
        <time>2026-06-17T06:51:45.000Z</time>
      </trkpt>
      <trkpt lat="48.66689" lon="1.44422">
        <ele>115.40000152588</ele>
        <time>2026-06-17T06:51:55.000Z</time>
      </trkpt>
      <trkpt lat="48.66678" lon="1.44389">
        <ele>115.59999847412</ele>
        <time>2026-06-17T06:52:00.000Z</time>
      </trkpt>
      <trkpt lat="48.66673" lon="1.4437">
        <ele>115.80000305176</ele>
        <time>2026-06-17T06:52:03.000Z</time>
      </trkpt>
      <trkpt lat="48.66659" lon="1.44325">
        <ele>116.59999847412</ele>
        <time>2026-06-17T06:52:10.000Z</time>
      </trkpt>
      <trkpt lat="48.66657" lon="1.4432">
        <ele>116.59999847412</ele>
        <time>2026-06-17T06:52:11.000Z</time>
      </trkpt>
      <trkpt lat="48.66655" lon="1.44314">
        <ele>116.80000305176</ele>
        <time>2026-06-17T06:52:12.000Z</time>
      </trkpt>
      <trkpt lat="48.66649" lon="1.44296">
        <ele>117.19999694824</ele>
        <time>2026-06-17T06:52:15.000Z</time>
      </trkpt>
      <trkpt lat="48.6664" lon="1.44269">
        <ele>117.59999847412</ele>
        <time>2026-06-17T06:52:19.000Z</time>
      </trkpt>
      <trkpt lat="48.6663" lon="1.44237">
        <ele>118</ele>
        <time>2026-06-17T06:52:24.000Z</time>
      </trkpt>
      <trkpt lat="48.66615" lon="1.44193">
        <ele>118.59999847412</ele>
        <time>2026-06-17T06:52:31.000Z</time>
      </trkpt>
      <trkpt lat="48.66613" lon="1.44187">
        <ele>118.80000305176</ele>
        <time>2026-06-17T06:52:32.000Z</time>
      </trkpt>
      <trkpt lat="48.66599" lon="1.44147">
        <ele>119.59999847412</ele>
        <time>2026-06-17T06:52:39.000Z</time>
      </trkpt>
      <trkpt lat="48.66596" lon="1.44141">
        <ele>119.80000305176</ele>
        <time>2026-06-17T06:52:40.000Z</time>
      </trkpt>
      <trkpt lat="48.66582" lon="1.44113">
        <ele>120.40000152588</ele>
        <time>2026-06-17T06:52:45.000Z</time>
      </trkpt>
      <trkpt lat="48.66573" lon="1.44095">
        <ele>120.80000305176</ele>
        <time>2026-06-17T06:52:48.000Z</time>
      </trkpt>
      <trkpt lat="48.66557" lon="1.44066">
        <ele>121.40000152588</ele>
        <time>2026-06-17T06:52:53.000Z</time>
      </trkpt>
      <trkpt lat="48.66554" lon="1.4406">
        <ele>121.59999847412</ele>
        <time>2026-06-17T06:52:54.000Z</time>
      </trkpt>
      <trkpt lat="48.66548" lon="1.44048">
        <ele>121.80000305176</ele>
        <time>2026-06-17T06:52:56.000Z</time>
      </trkpt>
      <trkpt lat="48.66532" lon="1.44019">
        <ele>122.19999694824</ele>
        <time>2026-06-17T06:53:01.000Z</time>
      </trkpt>
      <trkpt lat="48.66529" lon="1.44013">
        <ele>122.19999694824</ele>
        <time>2026-06-17T06:53:02.000Z</time>
      </trkpt>
      <trkpt lat="48.66518" lon="1.4399">
        <ele>122.59999847412</ele>
        <time>2026-06-17T06:53:06.000Z</time>
      </trkpt>
      <trkpt lat="48.66511" lon="1.43979">
        <ele>122.80000305176</ele>
        <time>2026-06-17T06:53:08.000Z</time>
      </trkpt>
      <trkpt lat="48.6649" lon="1.43932">
        <ele>123.80000305176</ele>
        <time>2026-06-17T06:53:16.000Z</time>
      </trkpt>
      <trkpt lat="48.6647" lon="1.43877">
        <ele>124.80000305176</ele>
        <time>2026-06-17T06:53:25.000Z</time>
      </trkpt>
      <trkpt lat="48.6645" lon="1.4382">
        <ele>125.59999847412</ele>
        <time>2026-06-17T06:53:34.000Z</time>
      </trkpt>
      <trkpt lat="48.66438" lon="1.43789">
        <ele>126</ele>
        <time>2026-06-17T06:53:39.000Z</time>
      </trkpt>
      <trkpt lat="48.66427" lon="1.43762">
        <ele>126.59999847412</ele>
        <time>2026-06-17T06:53:44.000Z</time>
      </trkpt>
      <trkpt lat="48.66417" lon="1.43742">
        <ele>127</ele>
        <time>2026-06-17T06:53:47.000Z</time>
      </trkpt>
      <trkpt lat="48.66395" lon="1.43696">
        <ele>127.19999694824</ele>
        <time>2026-06-17T06:53:55.000Z</time>
      </trkpt>
      <trkpt lat="48.6639" lon="1.43686">
        <ele>127.19999694824</ele>
        <time>2026-06-17T06:53:57.000Z</time>
      </trkpt>
      <trkpt lat="48.66382" lon="1.43678">
        <ele>127.19999694824</ele>
        <time>2026-06-17T06:53:59.000Z</time>
      </trkpt>
      <trkpt lat="48.66377" lon="1.43675">
        <ele>127.19999694824</ele>
        <time>2026-06-17T06:54:00.000Z</time>
      </trkpt>
      <trkpt lat="48.66345" lon="1.43655">
        <ele>127.59999847412</ele>
        <time>2026-06-17T06:54:07.000Z</time>
      </trkpt>
      <trkpt lat="48.6634" lon="1.43652">
        <ele>127.59999847412</ele>
        <time>2026-06-17T06:54:08.000Z</time>
      </trkpt>
      <trkpt lat="48.66336" lon="1.4365">
        <ele>127.59999847412</ele>
        <time>2026-06-17T06:54:09.000Z</time>
      </trkpt>
      <trkpt lat="48.66321" lon="1.43639">
        <ele>128</ele>
        <time>2026-06-17T06:54:13.000Z</time>
      </trkpt>
      <trkpt lat="48.66311" lon="1.43632">
        <ele>128.60000610352</ele>
        <time>2026-06-17T06:54:16.000Z</time>
      </trkpt>
      <trkpt lat="48.66306" lon="1.43628">
        <ele>129.19999694824</ele>
        <time>2026-06-17T06:54:18.000Z</time>
      </trkpt>
      <trkpt lat="48.66293" lon="1.4362">
        <ele>130.19999694824</ele>
        <time>2026-06-17T06:54:22.000Z</time>
      </trkpt>
      <trkpt lat="48.6629" lon="1.43618">
        <ele>130.60000610352</ele>
        <time>2026-06-17T06:54:23.000Z</time>
      </trkpt>
      <trkpt lat="48.66275" lon="1.43611">
        <ele>131.39999389648</ele>
        <time>2026-06-17T06:54:27.000Z</time>
      </trkpt>
      <trkpt lat="48.66255" lon="1.43599">
        <ele>132.19999694824</ele>
        <time>2026-06-17T06:54:32.000Z</time>
      </trkpt>
      <trkpt lat="48.66251" lon="1.43597">
        <ele>132.39999389648</ele>
        <time>2026-06-17T06:54:33.000Z</time>
      </trkpt>
      <trkpt lat="48.66247" lon="1.43594">
        <ele>132.60000610352</ele>
        <time>2026-06-17T06:54:34.000Z</time>
      </trkpt>
      <trkpt lat="48.66238" lon="1.4359">
        <ele>132.60000610352</ele>
        <time>2026-06-17T06:54:36.000Z</time>
      </trkpt>
      <trkpt lat="48.66207" lon="1.4358">
        <ele>133</ele>
        <time>2026-06-17T06:54:41.000Z</time>
      </trkpt>
      <trkpt lat="48.66179" lon="1.43575">
        <ele>133.39999389648</ele>
        <time>2026-06-17T06:54:46.000Z</time>
      </trkpt>
      <trkpt lat="48.66174" lon="1.43573">
        <ele>133.60000610352</ele>
        <time>2026-06-17T06:54:47.000Z</time>
      </trkpt>
      <trkpt lat="48.66144" lon="1.43563">
        <ele>133.80000305176</ele>
        <time>2026-06-17T06:54:53.000Z</time>
      </trkpt>
      <trkpt lat="48.66103" lon="1.43548">
        <ele>134.39999389648</ele>
        <time>2026-06-17T06:55:02.000Z</time>
      </trkpt>
      <trkpt lat="48.66048" lon="1.43531">
        <ele>134.60000610352</ele>
        <time>2026-06-17T06:55:14.000Z</time>
      </trkpt>
      <trkpt lat="48.66044" lon="1.4353">
        <ele>134.60000610352</ele>
        <time>2026-06-17T06:55:15.000Z</time>
      </trkpt>
      <trkpt lat="48.66029" lon="1.43527">
        <ele>134.80000305176</ele>
        <time>2026-06-17T06:55:18.000Z</time>
      </trkpt>
      <trkpt lat="48.66" lon="1.43521">
        <ele>135.19999694824</ele>
        <time>2026-06-17T06:55:24.000Z</time>
      </trkpt>
      <trkpt lat="48.65945" lon="1.43514">
        <ele>135.60000610352</ele>
        <time>2026-06-17T06:55:35.000Z</time>
      </trkpt>
      <trkpt lat="48.65931" lon="1.43513">
        <ele>135.80000305176</ele>
        <time>2026-06-17T06:55:38.000Z</time>
      </trkpt>
      <trkpt lat="48.65892" lon="1.43501">
        <ele>136.19999694824</ele>
        <time>2026-06-17T06:55:46.000Z</time>
      </trkpt>
      <trkpt lat="48.65845" lon="1.43485">
        <ele>137</ele>
        <time>2026-06-17T06:55:56.000Z</time>
      </trkpt>
      <trkpt lat="48.65831" lon="1.43479">
        <ele>137.39999389648</ele>
        <time>2026-06-17T06:55:59.000Z</time>
      </trkpt>
      <trkpt lat="48.65808" lon="1.43471">
        <ele>138</ele>
        <time>2026-06-17T06:56:04.000Z</time>
      </trkpt>
      <trkpt lat="48.65785" lon="1.43463">
        <ele>138.39999389648</ele>
        <time>2026-06-17T06:56:09.000Z</time>
      </trkpt>
      <trkpt lat="48.65747" lon="1.43449">
        <ele>138.80000305176</ele>
        <time>2026-06-17T06:56:18.000Z</time>
      </trkpt>
      <trkpt lat="48.65738" lon="1.43446">
        <ele>139</ele>
        <time>2026-06-17T06:56:20.000Z</time>
      </trkpt>
      <trkpt lat="48.65702" lon="1.43432">
        <ele>139.80000305176</ele>
        <time>2026-06-17T06:56:29.000Z</time>
      </trkpt>
      <trkpt lat="48.6569" lon="1.43426">
        <ele>140</ele>
        <time>2026-06-17T06:56:32.000Z</time>
      </trkpt>
      <trkpt lat="48.65686" lon="1.43424">
        <ele>140.19999694824</ele>
        <time>2026-06-17T06:56:33.000Z</time>
      </trkpt>
      <trkpt lat="48.65674" lon="1.43419">
        <ele>140.19999694824</ele>
        <time>2026-06-17T06:56:36.000Z</time>
      </trkpt>
      <trkpt lat="48.6567" lon="1.43417">
        <ele>140.39999389648</ele>
        <time>2026-06-17T06:56:37.000Z</time>
      </trkpt>
      <trkpt lat="48.65658" lon="1.4341">
        <ele>140.39999389648</ele>
        <time>2026-06-17T06:56:40.000Z</time>
      </trkpt>
      <trkpt lat="48.65649" lon="1.43404">
        <ele>140.60000610352</ele>
        <time>2026-06-17T06:56:42.000Z</time>
      </trkpt>
      <trkpt lat="48.65645" lon="1.43401">
        <ele>140.60000610352</ele>
        <time>2026-06-17T06:56:43.000Z</time>
      </trkpt>
      <trkpt lat="48.65637" lon="1.43395">
        <ele>140.80000305176</ele>
        <time>2026-06-17T06:56:45.000Z</time>
      </trkpt>
      <trkpt lat="48.65629" lon="1.4339">
        <ele>140.80000305176</ele>
        <time>2026-06-17T06:56:47.000Z</time>
      </trkpt>
      <trkpt lat="48.65625" lon="1.43388">
        <ele>140.80000305176</ele>
        <time>2026-06-17T06:56:48.000Z</time>
      </trkpt>
      <trkpt lat="48.65606" lon="1.43374">
        <ele>141</ele>
        <time>2026-06-17T06:56:54.000Z</time>
      </trkpt>
      <trkpt lat="48.65603" lon="1.43372">
        <ele>141</ele>
        <time>2026-06-17T06:56:55.000Z</time>
      </trkpt>
      <trkpt lat="48.65585" lon="1.43362">
        <ele>141.60000610352</ele>
        <time>2026-06-17T06:57:00.000Z</time>
      </trkpt>
      <trkpt lat="48.65552" lon="1.43346">
        <ele>141.80000305176</ele>
        <time>2026-06-17T06:57:05.000Z</time>
      </trkpt>
      <trkpt lat="48.65544" lon="1.43343">
        <ele>141.80000305176</ele>
        <time>2026-06-17T06:57:06.000Z</time>
      </trkpt>
      <trkpt lat="48.65519" lon="1.43329">
        <ele>142</ele>
        <time>2026-06-17T06:57:10.000Z</time>
      </trkpt>
      <trkpt lat="48.65467" lon="1.43302">
        <ele>141.80000305176</ele>
        <time>2026-06-17T06:57:19.000Z</time>
      </trkpt>
      <trkpt lat="48.65415" lon="1.43277">
        <ele>141.80000305176</ele>
        <time>2026-06-17T06:57:29.000Z</time>
      </trkpt>
      <trkpt lat="48.65369" lon="1.43277">
        <ele>141.60000610352</ele>
        <time>2026-06-17T06:57:37.000Z</time>
      </trkpt>
      <trkpt lat="48.65318" lon="1.43287">
        <ele>141.60000610352</ele>
        <time>2026-06-17T06:57:46.000Z</time>
      </trkpt>
      <trkpt lat="48.65275" lon="1.43294">
        <ele>141.80000305176</ele>
        <time>2026-06-17T06:57:54.000Z</time>
      </trkpt>
      <trkpt lat="48.65259" lon="1.43295">
        <ele>141.80000305176</ele>
        <time>2026-06-17T06:57:57.000Z</time>
      </trkpt>
      <trkpt lat="48.65238" lon="1.43291">
        <ele>141.80000305176</ele>
        <time>2026-06-17T06:58:01.000Z</time>
      </trkpt>
      <trkpt lat="48.65196" lon="1.43272">
        <ele>141.80000305176</ele>
        <time>2026-06-17T06:58:09.000Z</time>
      </trkpt>
      <trkpt lat="48.65143" lon="1.43246">
        <ele>142</ele>
        <time>2026-06-17T06:58:19.000Z</time>
      </trkpt>
      <trkpt lat="48.65092" lon="1.43227">
        <ele>142.19999694824</ele>
        <time>2026-06-17T06:58:28.000Z</time>
      </trkpt>
      <trkpt lat="48.65075" lon="1.43219">
        <ele>142.39999389648</ele>
        <time>2026-06-17T06:58:31.000Z</time>
      </trkpt>
      <trkpt lat="48.65045" lon="1.43206">
        <ele>142.39999389648</ele>
        <time>2026-06-17T06:58:36.000Z</time>
      </trkpt>
      <trkpt lat="48.65002" lon="1.4319">
        <ele>142.39999389648</ele>
        <time>2026-06-17T06:58:44.000Z</time>
      </trkpt>
      <trkpt lat="48.64948" lon="1.43171">
        <ele>142.39999389648</ele>
        <time>2026-06-17T06:58:54.000Z</time>
      </trkpt>
      <trkpt lat="48.64938" lon="1.43167">
        <ele>142.39999389648</ele>
        <time>2026-06-17T06:58:56.000Z</time>
      </trkpt>
      <trkpt lat="48.64888" lon="1.43149">
        <ele>142.39999389648</ele>
        <time>2026-06-17T06:59:06.000Z</time>
      </trkpt>
      <trkpt lat="48.64858" lon="1.4314">
        <ele>142.60000610352</ele>
        <time>2026-06-17T06:59:12.000Z</time>
      </trkpt>
      <trkpt lat="48.64801" lon="1.43121">
        <ele>142.80000305176</ele>
        <time>2026-06-17T06:59:24.000Z</time>
      </trkpt>
      <trkpt lat="48.64747" lon="1.43104">
        <ele>143.19999694824</ele>
        <time>2026-06-17T06:59:34.000Z</time>
      </trkpt>
      <trkpt lat="48.6473" lon="1.43099">
        <ele>143.39999389648</ele>
        <time>2026-06-17T06:59:37.000Z</time>
      </trkpt>
      <trkpt lat="48.64674" lon="1.43081">
        <ele>143.80000305176</ele>
        <time>2026-06-17T06:59:47.000Z</time>
      </trkpt>
      <trkpt lat="48.64619" lon="1.43063">
        <ele>144</ele>
        <time>2026-06-17T06:59:57.000Z</time>
      </trkpt>
      <trkpt lat="48.64603" lon="1.43058">
        <ele>144</ele>
        <time>2026-06-17T07:00:00.000Z</time>
      </trkpt>
      <trkpt lat="48.64566" lon="1.43049">
        <ele>144.39999389648</ele>
        <time>2026-06-17T07:00:07.000Z</time>
      </trkpt>
      <trkpt lat="48.64551" lon="1.43045">
        <ele>144.39999389648</ele>
        <time>2026-06-17T07:00:10.000Z</time>
      </trkpt>
      <trkpt lat="48.64506" lon="1.43036">
        <ele>145.39999389648</ele>
        <time>2026-06-17T07:00:19.000Z</time>
      </trkpt>
      <trkpt lat="48.64501" lon="1.43035">
        <ele>145.39999389648</ele>
        <time>2026-06-17T07:00:20.000Z</time>
      </trkpt>
      <trkpt lat="48.64451" lon="1.4302">
        <ele>146.60000610352</ele>
        <time>2026-06-17T07:00:30.000Z</time>
      </trkpt>
      <trkpt lat="48.64437" lon="1.43012">
        <ele>146.39999389648</ele>
        <time>2026-06-17T07:00:33.000Z</time>
      </trkpt>
      <trkpt lat="48.6442" lon="1.43003">
        <ele>147</ele>
        <time>2026-06-17T07:00:37.000Z</time>
      </trkpt>
      <trkpt lat="48.64417" lon="1.43">
        <ele>147.19999694824</ele>
        <time>2026-06-17T07:00:38.000Z</time>
      </trkpt>
      <trkpt lat="48.64392" lon="1.42984">
        <ele>147.80000305176</ele>
        <time>2026-06-17T07:00:45.000Z</time>
      </trkpt>
      <trkpt lat="48.64363" lon="1.42964">
        <ele>148.39999389648</ele>
        <time>2026-06-17T07:00:52.000Z</time>
      </trkpt>
      <trkpt lat="48.64354" lon="1.42958">
        <ele>148.80000305176</ele>
        <time>2026-06-17T07:00:54.000Z</time>
      </trkpt>
      <trkpt lat="48.64327" lon="1.4294">
        <ele>150.60000610352</ele>
        <time>2026-06-17T07:01:00.000Z</time>
      </trkpt>
      <trkpt lat="48.64289" lon="1.42917">
        <ele>149.80000305176</ele>
        <time>2026-06-17T07:01:08.000Z</time>
      </trkpt>
      <trkpt lat="48.64285" lon="1.42915">
        <ele>149.80000305176</ele>
        <time>2026-06-17T07:01:09.000Z</time>
      </trkpt>
      <trkpt lat="48.64259" lon="1.42912">
        <ele>150.19999694824</ele>
        <time>2026-06-17T07:01:14.000Z</time>
      </trkpt>
      <trkpt lat="48.64248" lon="1.42914">
        <ele>150.19999694824</ele>
        <time>2026-06-17T07:01:16.000Z</time>
      </trkpt>
      <trkpt lat="48.64222" lon="1.42922">
        <ele>150.39999389648</ele>
        <time>2026-06-17T07:01:21.000Z</time>
      </trkpt>
      <trkpt lat="48.6418" lon="1.42926">
        <ele>150.80000305176</ele>
        <time>2026-06-17T07:01:29.000Z</time>
      </trkpt>
      <trkpt lat="48.64175" lon="1.42925">
        <ele>151</ele>
        <time>2026-06-17T07:01:30.000Z</time>
      </trkpt>
      <trkpt lat="48.64141" lon="1.42917">
        <ele>151.60000610352</ele>
        <time>2026-06-17T07:01:37.000Z</time>
      </trkpt>
      <trkpt lat="48.64132" lon="1.42914">
        <ele>152</ele>
        <time>2026-06-17T07:01:39.000Z</time>
      </trkpt>
      <trkpt lat="48.64123" lon="1.42911">
        <ele>152.19999694824</ele>
        <time>2026-06-17T07:01:41.000Z</time>
      </trkpt>
      <trkpt lat="48.64114" lon="1.42908">
        <ele>152.39999389648</ele>
        <time>2026-06-17T07:01:43.000Z</time>
      </trkpt>
      <trkpt lat="48.64094" lon="1.42901">
        <ele>152.80000305176</ele>
        <time>2026-06-17T07:01:47.000Z</time>
      </trkpt>
      <trkpt lat="48.6408" lon="1.42893">
        <ele>152.80000305176</ele>
        <time>2026-06-17T07:01:50.000Z</time>
      </trkpt>
      <trkpt lat="48.64038" lon="1.42871">
        <ele>152.60000610352</ele>
        <time>2026-06-17T07:01:59.000Z</time>
      </trkpt>
      <trkpt lat="48.64007" lon="1.42856">
        <ele>152.39999389648</ele>
        <time>2026-06-17T07:02:06.000Z</time>
      </trkpt>
      <trkpt lat="48.63972" lon="1.42847">
        <ele>152</ele>
        <time>2026-06-17T07:02:14.000Z</time>
      </trkpt>
      <trkpt lat="48.6396" lon="1.42843">
        <ele>152</ele>
        <time>2026-06-17T07:02:16.000Z</time>
      </trkpt>
      <trkpt lat="48.6394" lon="1.42836">
        <ele>152</ele>
        <time>2026-06-17T07:02:20.000Z</time>
      </trkpt>
      <trkpt lat="48.63896" lon="1.42824">
        <ele>151.60000610352</ele>
        <time>2026-06-17T07:02:29.000Z</time>
      </trkpt>
      <trkpt lat="48.6386" lon="1.42812">
        <ele>151</ele>
        <time>2026-06-17T07:02:36.000Z</time>
      </trkpt>
      <trkpt lat="48.6385" lon="1.42808">
        <ele>150.60000610352</ele>
        <time>2026-06-17T07:02:38.000Z</time>
      </trkpt>
      <trkpt lat="48.63834" lon="1.42801">
        <ele>150.39999389648</ele>
        <time>2026-06-17T07:02:41.000Z</time>
      </trkpt>
      <trkpt lat="48.63813" lon="1.42787">
        <ele>150</ele>
        <time>2026-06-17T07:02:45.000Z</time>
      </trkpt>
      <trkpt lat="48.63808" lon="1.42783">
        <ele>150</ele>
        <time>2026-06-17T07:02:46.000Z</time>
      </trkpt>
      <trkpt lat="48.63782" lon="1.42765">
        <ele>149.39999389648</ele>
        <time>2026-06-17T07:02:51.000Z</time>
      </trkpt>
      <trkpt lat="48.63778" lon="1.42763">
        <ele>149.19999694824</ele>
        <time>2026-06-17T07:02:52.000Z</time>
      </trkpt>
      <trkpt lat="48.63774" lon="1.42763">
        <ele>149</ele>
        <time>2026-06-17T07:02:53.000Z</time>
      </trkpt>
      <trkpt lat="48.63771" lon="1.42766">
        <ele>149</ele>
        <time>2026-06-17T07:02:54.000Z</time>
      </trkpt>
      <trkpt lat="48.63768" lon="1.42771">
        <ele>148.80000305176</ele>
        <time>2026-06-17T07:02:55.000Z</time>
      </trkpt>
      <trkpt lat="48.63757" lon="1.42804">
        <ele>148.39999389648</ele>
        <time>2026-06-17T07:03:00.000Z</time>
      </trkpt>
      <trkpt lat="48.63739" lon="1.42845">
        <ele>148.19999694824</ele>
        <time>2026-06-17T07:03:06.000Z</time>
      </trkpt>
      <trkpt lat="48.63712" lon="1.42885">
        <ele>148.19999694824</ele>
        <time>2026-06-17T07:03:13.000Z</time>
      </trkpt>
      <trkpt lat="48.63686" lon="1.42904">
        <ele>147.80000305176</ele>
        <time>2026-06-17T07:03:18.000Z</time>
      </trkpt>
      <trkpt lat="48.63676" lon="1.42911">
        <ele>148</ele>
        <time>2026-06-17T07:03:20.000Z</time>
      </trkpt>
      <trkpt lat="48.6366" lon="1.42928">
        <ele>148.19999694824</ele>
        <time>2026-06-17T07:03:24.000Z</time>
      </trkpt>
      <trkpt lat="48.63649" lon="1.42941">
        <ele>148.19999694824</ele>
        <time>2026-06-17T07:03:27.000Z</time>
      </trkpt>
      <trkpt lat="48.63643" lon="1.42941">
        <ele>148.19999694824</ele>
        <time>2026-06-17T07:03:29.000Z</time>
      </trkpt>
      <trkpt lat="48.63626" lon="1.42917">
        <ele>148.39999389648</ele>
        <time>2026-06-17T07:03:34.000Z</time>
      </trkpt>
      <trkpt lat="48.63593" lon="1.42864">
        <ele>148</ele>
        <time>2026-06-17T07:03:42.000Z</time>
      </trkpt>
      <trkpt lat="48.63558" lon="1.42813">
        <ele>146.80000305176</ele>
        <time>2026-06-17T07:03:50.000Z</time>
      </trkpt>
      <trkpt lat="48.63532" lon="1.42776">
        <ele>145.80000305176</ele>
        <time>2026-06-17T07:03:55.000Z</time>
      </trkpt>
      <trkpt lat="48.63527" lon="1.42769">
        <ele>145.60000610352</ele>
        <time>2026-06-17T07:03:56.000Z</time>
      </trkpt>
      <trkpt lat="48.63492" lon="1.42717">
        <ele>144.60000610352</ele>
        <time>2026-06-17T07:04:03.000Z</time>
      </trkpt>
      <trkpt lat="48.63488" lon="1.4271">
        <ele>144.39999389648</ele>
        <time>2026-06-17T07:04:04.000Z</time>
      </trkpt>
      <trkpt lat="48.63463" lon="1.42676">
        <ele>143.60000610352</ele>
        <time>2026-06-17T07:04:09.000Z</time>
      </trkpt>
      <trkpt lat="48.63451" lon="1.42665">
        <ele>143</ele>
        <time>2026-06-17T07:04:11.000Z</time>
      </trkpt>
      <trkpt lat="48.63446" lon="1.4266">
        <ele>142.60000610352</ele>
        <time>2026-06-17T07:04:12.000Z</time>
      </trkpt>
      <trkpt lat="48.63436" lon="1.42649">
        <ele>142.19999694824</ele>
        <time>2026-06-17T07:04:14.000Z</time>
      </trkpt>
      <trkpt lat="48.63433" lon="1.42642">
        <ele>142</ele>
        <time>2026-06-17T07:04:15.000Z</time>
      </trkpt>
      <trkpt lat="48.6343" lon="1.42634">
        <ele>141.60000610352</ele>
        <time>2026-06-17T07:04:16.000Z</time>
      </trkpt>
      <trkpt lat="48.63429" lon="1.42616">
        <ele>140.80000305176</ele>
        <time>2026-06-17T07:04:18.000Z</time>
      </trkpt>
      <trkpt lat="48.6343" lon="1.42606">
        <ele>140.60000610352</ele>
        <time>2026-06-17T07:04:19.000Z</time>
      </trkpt>
      <trkpt lat="48.63432" lon="1.42597">
        <ele>140.39999389648</ele>
        <time>2026-06-17T07:04:20.000Z</time>
      </trkpt>
      <trkpt lat="48.63438" lon="1.42581">
        <ele>140</ele>
        <time>2026-06-17T07:04:22.000Z</time>
      </trkpt>
      <trkpt lat="48.63457" lon="1.42515">
        <ele>139.60000610352</ele>
        <time>2026-06-17T07:04:30.000Z</time>
      </trkpt>
      <trkpt lat="48.63475" lon="1.42435">
        <ele>139.60000610352</ele>
        <time>2026-06-17T07:04:39.000Z</time>
      </trkpt>
      <trkpt lat="48.63487" lon="1.42354">
        <ele>140</ele>
        <time>2026-06-17T07:04:48.000Z</time>
      </trkpt>
      <trkpt lat="48.63488" lon="1.42345">
        <ele>140</ele>
        <time>2026-06-17T07:04:49.000Z</time>
      </trkpt>
      <trkpt lat="48.63497" lon="1.42267">
        <ele>140.60000610352</ele>
        <time>2026-06-17T07:04:57.000Z</time>
      </trkpt>
      <trkpt lat="48.63495" lon="1.42197">
        <ele>140.60000610352</ele>
        <time>2026-06-17T07:05:04.000Z</time>
      </trkpt>
      <trkpt lat="48.63491" lon="1.42156">
        <ele>140.80000305176</ele>
        <time>2026-06-17T07:05:09.000Z</time>
      </trkpt>
      <trkpt lat="48.6348" lon="1.42103">
        <ele>141.19999694824</ele>
        <time>2026-06-17T07:05:16.000Z</time>
      </trkpt>
      <trkpt lat="48.63466" lon="1.42052">
        <ele>141.39999389648</ele>
        <time>2026-06-17T07:05:23.000Z</time>
      </trkpt>
      <trkpt lat="48.63458" lon="1.42023">
        <ele>141.80000305176</ele>
        <time>2026-06-17T07:05:27.000Z</time>
      </trkpt>
      <trkpt lat="48.63437" lon="1.41948">
        <ele>142.39999389648</ele>
        <time>2026-06-17T07:05:37.000Z</time>
      </trkpt>
      <trkpt lat="48.63418" lon="1.41896">
        <ele>142.80000305176</ele>
        <time>2026-06-17T07:05:43.000Z</time>
      </trkpt>
      <trkpt lat="48.63414" lon="1.41885">
        <ele>142.80000305176</ele>
        <time>2026-06-17T07:05:45.000Z</time>
      </trkpt>
      <trkpt lat="48.63386" lon="1.41821">
        <ele>143.19999694824</ele>
        <time>2026-06-17T07:05:54.000Z</time>
      </trkpt>
      <trkpt lat="48.63356" lon="1.41762">
        <ele>143.39999389648</ele>
        <time>2026-06-17T07:06:03.000Z</time>
      </trkpt>
      <trkpt lat="48.63333" lon="1.41716">
        <ele>143.80000305176</ele>
        <time>2026-06-17T07:06:10.000Z</time>
      </trkpt>
      <trkpt lat="48.63317" lon="1.41683">
        <ele>143.80000305176</ele>
        <time>2026-06-17T07:06:15.000Z</time>
      </trkpt>
      <trkpt lat="48.63282" lon="1.41618">
        <ele>144</ele>
        <time>2026-06-17T07:06:25.000Z</time>
      </trkpt>
      <trkpt lat="48.63275" lon="1.41606">
        <ele>144</ele>
        <time>2026-06-17T07:06:27.000Z</time>
      </trkpt>
      <trkpt lat="48.63238" lon="1.41545">
        <ele>144</ele>
        <time>2026-06-17T07:06:37.000Z</time>
      </trkpt>
      <trkpt lat="48.63231" lon="1.41532">
        <ele>144.19999694824</ele>
        <time>2026-06-17T07:06:39.000Z</time>
      </trkpt>
      <trkpt lat="48.63195" lon="1.4147">
        <ele>144.60000610352</ele>
        <time>2026-06-17T07:06:49.000Z</time>
      </trkpt>
      <trkpt lat="48.63188" lon="1.41458">
        <ele>144.80000305176</ele>
        <time>2026-06-17T07:06:51.000Z</time>
      </trkpt>
      <trkpt lat="48.63169" lon="1.41425">
        <ele>146</ele>
        <time>2026-06-17T07:06:57.000Z</time>
      </trkpt>
      <trkpt lat="48.63163" lon="1.41415">
        <ele>146.60000610352</ele>
        <time>2026-06-17T07:06:59.000Z</time>
      </trkpt>
      <trkpt lat="48.63154" lon="1.41401">
        <ele>147.19999694824</ele>
        <time>2026-06-17T07:07:02.000Z</time>
      </trkpt>
      <trkpt lat="48.63144" lon="1.41382">
        <ele>148.19999694824</ele>
        <time>2026-06-17T07:07:06.000Z</time>
      </trkpt>
      <trkpt lat="48.63134" lon="1.41364">
        <ele>149.39999389648</ele>
        <time>2026-06-17T07:07:10.000Z</time>
      </trkpt>
      <trkpt lat="48.63124" lon="1.41346">
        <ele>150.60000610352</ele>
        <time>2026-06-17T07:07:14.000Z</time>
      </trkpt>
      <trkpt lat="48.6312" lon="1.41336">
        <ele>151</ele>
        <time>2026-06-17T07:07:16.000Z</time>
      </trkpt>
      <trkpt lat="48.63112" lon="1.41322">
        <ele>151.80000305176</ele>
        <time>2026-06-17T07:07:19.000Z</time>
      </trkpt>
      <trkpt lat="48.631" lon="1.41304">
        <ele>152.60000610352</ele>
        <time>2026-06-17T07:07:23.000Z</time>
      </trkpt>
      <trkpt lat="48.63098" lon="1.413">
        <ele>152.80000305176</ele>
        <time>2026-06-17T07:07:24.000Z</time>
      </trkpt>
      <trkpt lat="48.63084" lon="1.41278">
        <ele>154.19999694824</ele>
        <time>2026-06-17T07:07:29.000Z</time>
      </trkpt>
      <trkpt lat="48.63073" lon="1.41259">
        <ele>154.80000305176</ele>
        <time>2026-06-17T07:07:33.000Z</time>
      </trkpt>
      <trkpt lat="48.63058" lon="1.41235">
        <ele>155.19999694824</ele>
        <time>2026-06-17T07:07:38.000Z</time>
      </trkpt>
      <trkpt lat="48.63043" lon="1.4121">
        <ele>155.19999694824</ele>
        <time>2026-06-17T07:07:42.000Z</time>
      </trkpt>
      <trkpt lat="48.6302" lon="1.41176">
        <ele>155</ele>
        <time>2026-06-17T07:07:48.000Z</time>
      </trkpt>
      <trkpt lat="48.63" lon="1.41146">
        <ele>154.39999389648</ele>
        <time>2026-06-17T07:07:52.000Z</time>
      </trkpt>
      <trkpt lat="48.62989" lon="1.4113">
        <ele>154</ele>
        <time>2026-06-17T07:07:54.000Z</time>
      </trkpt>
      <trkpt lat="48.62972" lon="1.41107">
        <ele>153.19999694824</ele>
        <time>2026-06-17T07:07:57.000Z</time>
      </trkpt>
      <trkpt lat="48.62947" lon="1.4107">
        <ele>152</ele>
        <time>2026-06-17T07:08:02.000Z</time>
      </trkpt>
      <trkpt lat="48.62942" lon="1.41064">
        <ele>152</ele>
        <time>2026-06-17T07:08:03.000Z</time>
      </trkpt>
      <trkpt lat="48.62914" lon="1.41015">
        <ele>151.39999389648</ele>
        <time>2026-06-17T07:08:10.000Z</time>
      </trkpt>
      <trkpt lat="48.62885" lon="1.4095">
        <ele>152</ele>
        <time>2026-06-17T07:08:19.000Z</time>
      </trkpt>
      <trkpt lat="48.62864" lon="1.40906">
        <ele>152.60000610352</ele>
        <time>2026-06-17T07:08:26.000Z</time>
      </trkpt>
      <trkpt lat="48.62849" lon="1.40877">
        <ele>153.19999694824</ele>
        <time>2026-06-17T07:08:31.000Z</time>
      </trkpt>
      <trkpt lat="48.62834" lon="1.4085">
        <ele>153.60000610352</ele>
        <time>2026-06-17T07:08:36.000Z</time>
      </trkpt>
      <trkpt lat="48.62821" lon="1.40825">
        <ele>154.19999694824</ele>
        <time>2026-06-17T07:08:41.000Z</time>
      </trkpt>
      <trkpt lat="48.62814" lon="1.40811">
        <ele>154.39999389648</ele>
        <time>2026-06-17T07:08:44.000Z</time>
      </trkpt>
      <trkpt lat="48.62787" lon="1.40756">
        <ele>155.19999694824</ele>
        <time>2026-06-17T07:08:54.000Z</time>
      </trkpt>
      <trkpt lat="48.62782" lon="1.40745">
        <ele>155.60000610352</ele>
        <time>2026-06-17T07:08:56.000Z</time>
      </trkpt>
      <trkpt lat="48.62771" lon="1.40723">
        <ele>156.39999389648</ele>
        <time>2026-06-17T07:09:00.000Z</time>
      </trkpt>
      <trkpt lat="48.62753" lon="1.40692">
        <ele>156.80000305176</ele>
        <time>2026-06-17T07:09:06.000Z</time>
      </trkpt>
      <trkpt lat="48.62724" lon="1.40652">
        <ele>157.60000610352</ele>
        <time>2026-06-17T07:09:14.000Z</time>
      </trkpt>
      <trkpt lat="48.62713" lon="1.4064">
        <ele>157.60000610352</ele>
        <time>2026-06-17T07:09:17.000Z</time>
      </trkpt>
      <trkpt lat="48.62677" lon="1.406">
        <ele>158.19999694824</ele>
        <time>2026-06-17T07:09:26.000Z</time>
      </trkpt>
      <trkpt lat="48.62647" lon="1.40563">
        <ele>158.39999389648</ele>
        <time>2026-06-17T07:09:34.000Z</time>
      </trkpt>
      <trkpt lat="48.62641" lon="1.40554">
        <ele>158.60000610352</ele>
        <time>2026-06-17T07:09:36.000Z</time>
      </trkpt>
      <trkpt lat="48.62638" lon="1.40549">
        <ele>158.60000610352</ele>
        <time>2026-06-17T07:09:37.000Z</time>
      </trkpt>
      <trkpt lat="48.62615" lon="1.40511">
        <ele>159.39999389648</ele>
        <time>2026-06-17T07:09:45.000Z</time>
      </trkpt>
      <trkpt lat="48.62607" lon="1.405">
        <ele>159.80000305176</ele>
        <time>2026-06-17T07:09:47.000Z</time>
      </trkpt>
      <trkpt lat="48.62585" lon="1.4047">
        <ele>160.60000610352</ele>
        <time>2026-06-17T07:09:53.000Z</time>
      </trkpt>
      <trkpt lat="48.62571" lon="1.40452">
        <ele>160.80000305176</ele>
        <time>2026-06-17T07:09:57.000Z</time>
      </trkpt>
      <trkpt lat="48.62538" lon="1.40411">
        <ele>161.39999389648</ele>
        <time>2026-06-17T07:10:06.000Z</time>
      </trkpt>
      <trkpt lat="48.62517" lon="1.40385">
        <ele>162</ele>
        <time>2026-06-17T07:10:12.000Z</time>
      </trkpt>
      <trkpt lat="48.62502" lon="1.40367">
        <ele>162.19999694824</ele>
        <time>2026-06-17T07:10:16.000Z</time>
      </trkpt>
      <trkpt lat="48.62461" lon="1.40316">
        <ele>163</ele>
        <time>2026-06-17T07:10:28.000Z</time>
      </trkpt>
      <trkpt lat="48.62454" lon="1.40308">
        <ele>163.19999694824</ele>
        <time>2026-06-17T07:10:30.000Z</time>
      </trkpt>
      <trkpt lat="48.62434" lon="1.40283">
        <ele>164</ele>
        <time>2026-06-17T07:10:36.000Z</time>
      </trkpt>
      <trkpt lat="48.62431" lon="1.40278">
        <ele>164</ele>
        <time>2026-06-17T07:10:37.000Z</time>
      </trkpt>
      <trkpt lat="48.62418" lon="1.4026">
        <ele>164.60000610352</ele>
        <time>2026-06-17T07:10:41.000Z</time>
      </trkpt>
      <trkpt lat="48.62413" lon="1.40253">
        <ele>164.80000305176</ele>
        <time>2026-06-17T07:10:42.000Z</time>
      </trkpt>
      <trkpt lat="48.6241" lon="1.40248">
        <ele>165</ele>
        <time>2026-06-17T07:10:44.000Z</time>
      </trkpt>
      <trkpt lat="48.62404" lon="1.40236">
        <ele>165.39999389648</ele>
        <time>2026-06-17T07:10:46.000Z</time>
      </trkpt>
      <trkpt lat="48.62401" lon="1.40231">
        <ele>165.39999389648</ele>
        <time>2026-06-17T07:10:47.000Z</time>
      </trkpt>
      <trkpt lat="48.62394" lon="1.40213">
        <ele>166.19999694824</ele>
        <time>2026-06-17T07:10:50.000Z</time>
      </trkpt>
      <trkpt lat="48.6238" lon="1.40175">
        <ele>166.80000305176</ele>
        <time>2026-06-17T07:10:56.000Z</time>
      </trkpt>
      <trkpt lat="48.62372" lon="1.40155">
        <ele>167.19999694824</ele>
        <time>2026-06-17T07:10:59.000Z</time>
      </trkpt>
      <trkpt lat="48.62348" lon="1.40096">
        <ele>167.80000305176</ele>
        <time>2026-06-17T07:11:08.000Z</time>
      </trkpt>
      <trkpt lat="48.6232" lon="1.40033">
        <ele>168.19999694824</ele>
        <time>2026-06-17T07:11:18.000Z</time>
      </trkpt>
      <trkpt lat="48.62317" lon="1.40026">
        <ele>168.19999694824</ele>
        <time>2026-06-17T07:11:19.000Z</time>
      </trkpt>
      <trkpt lat="48.6229" lon="1.39968">
        <ele>168.80000305176</ele>
        <time>2026-06-17T07:11:29.000Z</time>
      </trkpt>
      <trkpt lat="48.62256" lon="1.39898">
        <ele>169.19999694824</ele>
        <time>2026-06-17T07:11:41.000Z</time>
      </trkpt>
      <trkpt lat="48.62251" lon="1.39888">
        <ele>169.19999694824</ele>
        <time>2026-06-17T07:11:42.000Z</time>
      </trkpt>
      <trkpt lat="48.62248" lon="1.39881">
        <ele>169.19999694824</ele>
        <time>2026-06-17T07:11:43.000Z</time>
      </trkpt>
      <trkpt lat="48.62215" lon="1.39816">
        <ele>169.19999694824</ele>
        <time>2026-06-17T07:11:54.000Z</time>
      </trkpt>
      <trkpt lat="48.62208" lon="1.39803">
        <ele>169.19999694824</ele>
        <time>2026-06-17T07:11:56.000Z</time>
      </trkpt>
      <trkpt lat="48.62177" lon="1.39751">
        <ele>168.60000610352</ele>
        <time>2026-06-17T07:12:04.000Z</time>
      </trkpt>
      <trkpt lat="48.62159" lon="1.39718">
        <ele>168</ele>
        <time>2026-06-17T07:12:09.000Z</time>
      </trkpt>
      <trkpt lat="48.62135" lon="1.39679">
        <ele>168.19999694824</ele>
        <time>2026-06-17T07:12:15.000Z</time>
      </trkpt>
      <trkpt lat="48.62104" lon="1.39629">
        <ele>168.60000610352</ele>
        <time>2026-06-17T07:12:23.000Z</time>
      </trkpt>
      <trkpt lat="48.62071" lon="1.39585">
        <ele>168.60000610352</ele>
        <time>2026-06-17T07:12:31.000Z</time>
      </trkpt>
      <trkpt lat="48.62036" lon="1.39548">
        <ele>168.60000610352</ele>
        <time>2026-06-17T07:12:39.000Z</time>
      </trkpt>
      <trkpt lat="48.62017" lon="1.3954">
        <ele>168.60000610352</ele>
        <time>2026-06-17T07:12:42.000Z</time>
      </trkpt>
      <trkpt lat="48.62012" lon="1.3954">
        <ele>168.60000610352</ele>
        <time>2026-06-17T07:12:44.000Z</time>
      </trkpt>
      <trkpt lat="48.62002" lon="1.39537">
        <ele>168.60000610352</ele>
        <time>2026-06-17T07:12:46.000Z</time>
      </trkpt>
      <trkpt lat="48.61996" lon="1.39538">
        <ele>168.39999389648</ele>
        <time>2026-06-17T07:12:48.000Z</time>
      </trkpt>
      <trkpt lat="48.61977" lon="1.39535">
        <ele>168.60000610352</ele>
        <time>2026-06-17T07:12:54.000Z</time>
      </trkpt>
      <trkpt lat="48.6195" lon="1.39526">
        <ele>168.60000610352</ele>
        <time>2026-06-17T07:13:00.000Z</time>
      </trkpt>
      <trkpt lat="48.61933" lon="1.39515">
        <ele>168.80000305176</ele>
        <time>2026-06-17T07:13:04.000Z</time>
      </trkpt>
      <trkpt lat="48.61924" lon="1.39506">
        <ele>169</ele>
        <time>2026-06-17T07:13:06.000Z</time>
      </trkpt>
      <trkpt lat="48.61913" lon="1.3949">
        <ele>169.19999694824</ele>
        <time>2026-06-17T07:13:09.000Z</time>
      </trkpt>
      <trkpt lat="48.61904" lon="1.39474">
        <ele>169.39999389648</ele>
        <time>2026-06-17T07:13:12.000Z</time>
      </trkpt>
      <trkpt lat="48.619" lon="1.39468">
        <ele>169.60000610352</ele>
        <time>2026-06-17T07:13:13.000Z</time>
      </trkpt>
      <trkpt lat="48.6188" lon="1.39436">
        <ele>170</ele>
        <time>2026-06-17T07:13:19.000Z</time>
      </trkpt>
      <trkpt lat="48.61868" lon="1.39415">
        <ele>170.39999389648</ele>
        <time>2026-06-17T07:13:23.000Z</time>
      </trkpt>
      <trkpt lat="48.61852" lon="1.39387">
        <ele>170.60000610352</ele>
        <time>2026-06-17T07:13:28.000Z</time>
      </trkpt>
      <trkpt lat="48.6183" lon="1.3935">
        <ele>171.19999694824</ele>
        <time>2026-06-17T07:13:35.000Z</time>
      </trkpt>
      <trkpt lat="48.61824" lon="1.3934">
        <ele>171.39999389648</ele>
        <time>2026-06-17T07:13:37.000Z</time>
      </trkpt>
      <trkpt lat="48.61805" lon="1.39308">
        <ele>172.39999389648</ele>
        <time>2026-06-17T07:13:44.000Z</time>
      </trkpt>
      <trkpt lat="48.61801" lon="1.39304">
        <ele>172.60000610352</ele>
        <time>2026-06-17T07:13:45.000Z</time>
      </trkpt>
      <trkpt lat="48.61788" lon="1.39285">
        <ele>173</ele>
        <time>2026-06-17T07:13:49.000Z</time>
      </trkpt>
      <trkpt lat="48.6178" lon="1.39272">
        <ele>173.60000610352</ele>
        <time>2026-06-17T07:13:52.000Z</time>
      </trkpt>
      <trkpt lat="48.6177" lon="1.39255">
        <ele>174.60000610352</ele>
        <time>2026-06-17T07:13:56.000Z</time>
      </trkpt>
      <trkpt lat="48.61761" lon="1.39242">
        <ele>175.19999694824</ele>
        <time>2026-06-17T07:13:59.000Z</time>
      </trkpt>
      <trkpt lat="48.61751" lon="1.39231">
        <ele>176</ele>
        <time>2026-06-17T07:14:02.000Z</time>
      </trkpt>
      <trkpt lat="48.61728" lon="1.39212">
        <ele>176.60000610352</ele>
        <time>2026-06-17T07:14:08.000Z</time>
      </trkpt>
      <trkpt lat="48.61717" lon="1.39204">
        <ele>177</ele>
        <time>2026-06-17T07:14:11.000Z</time>
      </trkpt>
      <trkpt lat="48.61701" lon="1.39187">
        <ele>177.60000610352</ele>
        <time>2026-06-17T07:14:16.000Z</time>
      </trkpt>
      <trkpt lat="48.61688" lon="1.39161">
        <ele>178.19999694824</ele>
        <time>2026-06-17T07:14:21.000Z</time>
      </trkpt>
      <trkpt lat="48.61686" lon="1.39155">
        <ele>178.19999694824</ele>
        <time>2026-06-17T07:14:22.000Z</time>
      </trkpt>
      <trkpt lat="48.61683" lon="1.3915">
        <ele>178.39999389648</ele>
        <time>2026-06-17T07:14:23.000Z</time>
      </trkpt>
      <trkpt lat="48.61676" lon="1.39142">
        <ele>178.39999389648</ele>
        <time>2026-06-17T07:14:25.000Z</time>
      </trkpt>
      <trkpt lat="48.61673" lon="1.3914">
        <ele>178.39999389648</ele>
        <time>2026-06-17T07:14:26.000Z</time>
      </trkpt>
      <trkpt lat="48.61668" lon="1.39138">
        <ele>178.60000610352</ele>
        <time>2026-06-17T07:14:27.000Z</time>
      </trkpt>
      <trkpt lat="48.61646" lon="1.39133">
        <ele>179</ele>
        <time>2026-06-17T07:14:32.000Z</time>
      </trkpt>
      <trkpt lat="48.61632" lon="1.3913">
        <ele>179.19999694824</ele>
        <time>2026-06-17T07:14:35.000Z</time>
      </trkpt>
      <trkpt lat="48.6161" lon="1.39127">
        <ele>179.60000610352</ele>
        <time>2026-06-17T07:14:40.000Z</time>
      </trkpt>
      <trkpt lat="48.61605" lon="1.39126">
        <ele>179.80000305176</ele>
        <time>2026-06-17T07:14:41.000Z</time>
      </trkpt>
      <trkpt lat="48.61588" lon="1.39125">
        <ele>180.19999694824</ele>
        <time>2026-06-17T07:14:45.000Z</time>
      </trkpt>
      <trkpt lat="48.61584" lon="1.39124">
        <ele>180.19999694824</ele>
        <time>2026-06-17T07:14:46.000Z</time>
      </trkpt>
      <trkpt lat="48.61553" lon="1.3912">
        <ele>181</ele>
        <time>2026-06-17T07:14:53.000Z</time>
      </trkpt>
      <trkpt lat="48.61525" lon="1.39115">
        <ele>181.19999694824</ele>
        <time>2026-06-17T07:14:59.000Z</time>
      </trkpt>
      <trkpt lat="48.61506" lon="1.39112">
        <ele>181.39999389648</ele>
        <time>2026-06-17T07:15:03.000Z</time>
      </trkpt>
      <trkpt lat="48.61458" lon="1.39104">
        <ele>181.80000305176</ele>
        <time>2026-06-17T07:15:13.000Z</time>
      </trkpt>
      <trkpt lat="48.61413" lon="1.391">
        <ele>182</ele>
        <time>2026-06-17T07:15:23.000Z</time>
      </trkpt>
      <trkpt lat="48.61362" lon="1.39097">
        <ele>182.19999694824</ele>
        <time>2026-06-17T07:15:33.000Z</time>
      </trkpt>
      <trkpt lat="48.61311" lon="1.39087">
        <ele>182.19999694824</ele>
        <time>2026-06-17T07:15:43.000Z</time>
      </trkpt>
      <trkpt lat="48.61306" lon="1.39086">
        <ele>182.19999694824</ele>
        <time>2026-06-17T07:15:44.000Z</time>
      </trkpt>
      <trkpt lat="48.61255" lon="1.39068">
        <ele>182.39999389648</ele>
        <time>2026-06-17T07:15:54.000Z</time>
      </trkpt>
      <trkpt lat="48.61198" lon="1.39049">
        <ele>182.80000305176</ele>
        <time>2026-06-17T07:16:05.000Z</time>
      </trkpt>
      <trkpt lat="48.61192" lon="1.39047">
        <ele>182.60000610352</ele>
        <time>2026-06-17T07:16:06.000Z</time>
      </trkpt>
      <trkpt lat="48.61152" lon="1.39032">
        <ele>183</ele>
        <time>2026-06-17T07:16:13.000Z</time>
      </trkpt>
      <trkpt lat="48.61119" lon="1.39021">
        <ele>183.19999694824</ele>
        <time>2026-06-17T07:16:20.000Z</time>
      </trkpt>
      <trkpt lat="48.611" lon="1.39015">
        <ele>183.39999389648</ele>
        <time>2026-06-17T07:16:24.000Z</time>
      </trkpt>
      <trkpt lat="48.61055" lon="1.39003">
        <ele>184</ele>
        <time>2026-06-17T07:16:33.000Z</time>
      </trkpt>
      <trkpt lat="48.6104" lon="1.39001">
        <ele>184.19999694824</ele>
        <time>2026-06-17T07:16:36.000Z</time>
      </trkpt>
      <trkpt lat="48.60993" lon="1.38995">
        <ele>184.60000610352</ele>
        <time>2026-06-17T07:16:45.000Z</time>
      </trkpt>
      <trkpt lat="48.60935" lon="1.38989">
        <ele>184.39999389648</ele>
        <time>2026-06-17T07:16:55.000Z</time>
      </trkpt>
      <trkpt lat="48.6088" lon="1.38983">
        <ele>183.60000610352</ele>
        <time>2026-06-17T07:17:04.000Z</time>
      </trkpt>
      <trkpt lat="48.6086" lon="1.38981">
        <ele>183.39999389648</ele>
        <time>2026-06-17T07:17:07.000Z</time>
      </trkpt>
      <trkpt lat="48.60853" lon="1.38979">
        <ele>183.19999694824</ele>
        <time>2026-06-17T07:17:08.000Z</time>
      </trkpt>
      <trkpt lat="48.60818" lon="1.38968">
        <ele>182.60000610352</ele>
        <time>2026-06-17T07:17:14.000Z</time>
      </trkpt>
      <trkpt lat="48.60774" lon="1.38951">
        <ele>182.19999694824</ele>
        <time>2026-06-17T07:17:21.000Z</time>
      </trkpt>
      <trkpt lat="48.60758" lon="1.38944">
        <ele>182.19999694824</ele>
        <time>2026-06-17T07:17:24.000Z</time>
      </trkpt>
      <trkpt lat="48.60723" lon="1.38921">
        <ele>182.39999389648</ele>
        <time>2026-06-17T07:17:31.000Z</time>
      </trkpt>
      <trkpt lat="48.60675" lon="1.38877">
        <ele>182.60000610352</ele>
        <time>2026-06-17T07:17:41.000Z</time>
      </trkpt>
      <trkpt lat="48.6066" lon="1.38862">
        <ele>182.39999389648</ele>
        <time>2026-06-17T07:17:44.000Z</time>
      </trkpt>
      <trkpt lat="48.60609" lon="1.38815">
        <ele>181.80000305176</ele>
        <time>2026-06-17T07:17:54.000Z</time>
      </trkpt>
      <trkpt lat="48.60604" lon="1.3881">
        <ele>181.80000305176</ele>
        <time>2026-06-17T07:17:55.000Z</time>
      </trkpt>
      <trkpt lat="48.60561" lon="1.38761">
        <ele>181.80000305176</ele>
        <time>2026-06-17T07:18:04.000Z</time>
      </trkpt>
      <trkpt lat="48.60529" lon="1.387">
        <ele>182</ele>
        <time>2026-06-17T07:18:13.000Z</time>
      </trkpt>
      <trkpt lat="48.605" lon="1.3863">
        <ele>182.39999389648</ele>
        <time>2026-06-17T07:18:23.000Z</time>
      </trkpt>
      <trkpt lat="48.60497" lon="1.38622">
        <ele>182.39999389648</ele>
        <time>2026-06-17T07:18:24.000Z</time>
      </trkpt>
      <trkpt lat="48.60466" lon="1.38554">
        <ele>183</ele>
        <time>2026-06-17T07:18:34.000Z</time>
      </trkpt>
      <trkpt lat="48.60462" lon="1.38547">
        <ele>183</ele>
        <time>2026-06-17T07:18:35.000Z</time>
      </trkpt>
      <trkpt lat="48.60448" lon="1.38521">
        <ele>183.19999694824</ele>
        <time>2026-06-17T07:18:39.000Z</time>
      </trkpt>
      <trkpt lat="48.60426" lon="1.38485">
        <ele>183.60000610352</ele>
        <time>2026-06-17T07:18:45.000Z</time>
      </trkpt>
      <trkpt lat="48.60392" lon="1.38424">
        <ele>184.39999389648</ele>
        <time>2026-06-17T07:18:55.000Z</time>
      </trkpt>
      <trkpt lat="48.60389" lon="1.38418">
        <ele>184.39999389648</ele>
        <time>2026-06-17T07:18:56.000Z</time>
      </trkpt>
      <trkpt lat="48.60356" lon="1.38363">
        <ele>185</ele>
        <time>2026-06-17T07:19:05.000Z</time>
      </trkpt>
      <trkpt lat="48.60344" lon="1.38346">
        <ele>185.39999389648</ele>
        <time>2026-06-17T07:19:08.000Z</time>
      </trkpt>
      <trkpt lat="48.60322" lon="1.3832">
        <ele>185.60000610352</ele>
        <time>2026-06-17T07:19:13.000Z</time>
      </trkpt>
      <trkpt lat="48.60286" lon="1.38277">
        <ele>186</ele>
        <time>2026-06-17T07:19:22.000Z</time>
      </trkpt>
      <trkpt lat="48.60249" lon="1.38242">
        <ele>186.39999389648</ele>
        <time>2026-06-17T07:19:30.000Z</time>
      </trkpt>
      <trkpt lat="48.60244" lon="1.38239">
        <ele>186.39999389648</ele>
        <time>2026-06-17T07:19:31.000Z</time>
      </trkpt>
      <trkpt lat="48.60213" lon="1.38222">
        <ele>186.60000610352</ele>
        <time>2026-06-17T07:19:38.000Z</time>
      </trkpt>
      <trkpt lat="48.60185" lon="1.38187">
        <ele>186.80000305176</ele>
        <time>2026-06-17T07:19:45.000Z</time>
      </trkpt>
      <trkpt lat="48.60143" lon="1.38124">
        <ele>187.19999694824</ele>
        <time>2026-06-17T07:19:56.000Z</time>
      </trkpt>
      <trkpt lat="48.60115" lon="1.38084">
        <ele>187.39999389648</ele>
        <time>2026-06-17T07:20:03.000Z</time>
      </trkpt>
      <trkpt lat="48.60112" lon="1.38078">
        <ele>187.39999389648</ele>
        <time>2026-06-17T07:20:04.000Z</time>
      </trkpt>
      <trkpt lat="48.60094" lon="1.38052">
        <ele>187.80000305176</ele>
        <time>2026-06-17T07:20:10.000Z</time>
      </trkpt>
      <trkpt lat="48.60078" lon="1.3803">
        <ele>187.60000610352</ele>
        <time>2026-06-17T07:20:17.000Z</time>
      </trkpt>
      <trkpt lat="48.60065" lon="1.38024">
        <ele>187.60000610352</ele>
        <time>2026-06-17T07:20:21.000Z</time>
      </trkpt>
      <trkpt lat="48.60062" lon="1.3802">
        <ele>187.60000610352</ele>
        <time>2026-06-17T07:20:22.000Z</time>
      </trkpt>
      <trkpt lat="48.60059" lon="1.38007">
        <ele>187.60000610352</ele>
        <time>2026-06-17T07:20:24.000Z</time>
      </trkpt>
      <trkpt lat="48.60061" lon="1.37947">
        <ele>187.60000610352</ele>
        <time>2026-06-17T07:20:32.000Z</time>
      </trkpt>
      <trkpt lat="48.60063" lon="1.37886">
        <ele>187.60000610352</ele>
        <time>2026-06-17T07:20:40.000Z</time>
      </trkpt>
      <trkpt lat="48.60065" lon="1.37841">
        <ele>187.80000305176</ele>
        <time>2026-06-17T07:20:46.000Z</time>
      </trkpt>
      <trkpt lat="48.60065" lon="1.37827">
        <ele>188</ele>
        <time>2026-06-17T07:20:48.000Z</time>
      </trkpt>
      <trkpt lat="48.60062" lon="1.37815">
        <ele>188</ele>
        <time>2026-06-17T07:20:50.000Z</time>
      </trkpt>
      <trkpt lat="48.60059" lon="1.37811">
        <ele>188.19999694824</ele>
        <time>2026-06-17T07:20:51.000Z</time>
      </trkpt>
      <trkpt lat="48.60055" lon="1.37807">
        <ele>188</ele>
        <time>2026-06-17T07:20:52.000Z</time>
      </trkpt>
      <trkpt lat="48.60046" lon="1.37803">
        <ele>187.80000305176</ele>
        <time>2026-06-17T07:20:54.000Z</time>
      </trkpt>
      <trkpt lat="48.60041" lon="1.37802">
        <ele>188.19999694824</ele>
        <time>2026-06-17T07:20:55.000Z</time>
      </trkpt>
      <trkpt lat="48.60008" lon="1.37799">
        <ele>188.19999694824</ele>
        <time>2026-06-17T07:21:02.000Z</time>
      </trkpt>
      <trkpt lat="48.59998" lon="1.37798">
        <ele>188.39999389648</ele>
        <time>2026-06-17T07:21:04.000Z</time>
      </trkpt>
      <trkpt lat="48.59955" lon="1.37781">
        <ele>188.80000305176</ele>
        <time>2026-06-17T07:21:12.000Z</time>
      </trkpt>
      <trkpt lat="48.59928" lon="1.37751">
        <ele>189</ele>
        <time>2026-06-17T07:21:18.000Z</time>
      </trkpt>
      <trkpt lat="48.59913" lon="1.37726">
        <ele>189.39999389648</ele>
        <time>2026-06-17T07:21:22.000Z</time>
      </trkpt>
      <trkpt lat="48.59901" lon="1.37701">
        <ele>189.60000610352</ele>
        <time>2026-06-17T07:21:26.000Z</time>
      </trkpt>
      <trkpt lat="48.5988" lon="1.37655">
        <ele>190</ele>
        <time>2026-06-17T07:21:33.000Z</time>
      </trkpt>
      <trkpt lat="48.59849" lon="1.37585">
        <ele>190.39999389648</ele>
        <time>2026-06-17T07:21:43.000Z</time>
      </trkpt>
      <trkpt lat="48.59824" lon="1.3753">
        <ele>190.80000305176</ele>
        <time>2026-06-17T07:21:52.000Z</time>
      </trkpt>
      <trkpt lat="48.59793" lon="1.37462">
        <ele>191.19999694824</ele>
        <time>2026-06-17T07:22:03.000Z</time>
      </trkpt>
      <trkpt lat="48.5979" lon="1.37456">
        <ele>191.19999694824</ele>
        <time>2026-06-17T07:22:04.000Z</time>
      </trkpt>
      <trkpt lat="48.59759" lon="1.37387">
        <ele>191.39999389648</ele>
        <time>2026-06-17T07:22:15.000Z</time>
      </trkpt>
      <trkpt lat="48.59756" lon="1.3738">
        <ele>191.39999389648</ele>
        <time>2026-06-17T07:22:16.000Z</time>
      </trkpt>
      <trkpt lat="48.59728" lon="1.3732">
        <ele>192</ele>
        <time>2026-06-17T07:22:25.000Z</time>
      </trkpt>
      <trkpt lat="48.59703" lon="1.37272">
        <ele>192.39999389648</ele>
        <time>2026-06-17T07:22:33.000Z</time>
      </trkpt>
      <trkpt lat="48.5969" lon="1.37249">
        <ele>192.60000610352</ele>
        <time>2026-06-17T07:22:37.000Z</time>
      </trkpt>
      <trkpt lat="48.59662" lon="1.37193">
        <ele>193</ele>
        <time>2026-06-17T07:22:46.000Z</time>
      </trkpt>
      <trkpt lat="48.59644" lon="1.37144">
        <ele>193.19999694824</ele>
        <time>2026-06-17T07:22:53.000Z</time>
      </trkpt>
      <trkpt lat="48.59633" lon="1.37114">
        <ele>193.19999694824</ele>
        <time>2026-06-17T07:22:57.000Z</time>
      </trkpt>
      <trkpt lat="48.59601" lon="1.37043">
        <ele>193.39999389648</ele>
        <time>2026-06-17T07:23:07.000Z</time>
      </trkpt>
      <trkpt lat="48.59579" lon="1.36997">
        <ele>193.39999389648</ele>
        <time>2026-06-17T07:23:14.000Z</time>
      </trkpt>
      <trkpt lat="48.59572" lon="1.36984">
        <ele>193.60000610352</ele>
        <time>2026-06-17T07:23:16.000Z</time>
      </trkpt>
      <trkpt lat="48.59539" lon="1.36917">
        <ele>193.80000305176</ele>
        <time>2026-06-17T07:23:26.000Z</time>
      </trkpt>
      <trkpt lat="48.59536" lon="1.36911">
        <ele>193.80000305176</ele>
        <time>2026-06-17T07:23:27.000Z</time>
      </trkpt>
      <trkpt lat="48.59501" lon="1.36841">
        <ele>194</ele>
        <time>2026-06-17T07:23:38.000Z</time>
      </trkpt>
      <trkpt lat="48.59498" lon="1.36835">
        <ele>194</ele>
        <time>2026-06-17T07:23:39.000Z</time>
      </trkpt>
      <trkpt lat="48.59465" lon="1.36769">
        <ele>194.19999694824</ele>
        <time>2026-06-17T07:23:49.000Z</time>
      </trkpt>
      <trkpt lat="48.59458" lon="1.36756">
        <ele>194.19999694824</ele>
        <time>2026-06-17T07:23:51.000Z</time>
      </trkpt>
      <trkpt lat="48.59425" lon="1.36692">
        <ele>194.39999389648</ele>
        <time>2026-06-17T07:24:01.000Z</time>
      </trkpt>
      <trkpt lat="48.59412" lon="1.36666">
        <ele>194.39999389648</ele>
        <time>2026-06-17T07:24:05.000Z</time>
      </trkpt>
      <trkpt lat="48.59391" lon="1.36618">
        <ele>194.80000305176</ele>
        <time>2026-06-17T07:24:12.000Z</time>
      </trkpt>
      <trkpt lat="48.59364" lon="1.3655">
        <ele>195.19999694824</ele>
        <time>2026-06-17T07:24:22.000Z</time>
      </trkpt>
      <trkpt lat="48.59337" lon="1.36481">
        <ele>195.39999389648</ele>
        <time>2026-06-17T07:24:32.000Z</time>
      </trkpt>
      <trkpt lat="48.5932" lon="1.3644">
        <ele>195.60000610352</ele>
        <time>2026-06-17T07:24:38.000Z</time>
      </trkpt>
      <trkpt lat="48.59304" lon="1.36402">
        <ele>195.80000305176</ele>
        <time>2026-06-17T07:24:43.000Z</time>
      </trkpt>
      <trkpt lat="48.59285" lon="1.3636">
        <ele>196</ele>
        <time>2026-06-17T07:24:50.000Z</time>
      </trkpt>
      <trkpt lat="48.59276" lon="1.3634">
        <ele>196.39999389648</ele>
        <time>2026-06-17T07:24:53.000Z</time>
      </trkpt>
      <trkpt lat="48.59249" lon="1.36281">
        <ele>196.80000305176</ele>
        <time>2026-06-17T07:25:02.000Z</time>
      </trkpt>
      <trkpt lat="48.59219" lon="1.36219">
        <ele>197</ele>
        <time>2026-06-17T07:25:12.000Z</time>
      </trkpt>
      <trkpt lat="48.59202" lon="1.36188">
        <ele>197.39999389648</ele>
        <time>2026-06-17T07:25:17.000Z</time>
      </trkpt>
      <trkpt lat="48.59189" lon="1.36163">
        <ele>197.39999389648</ele>
        <time>2026-06-17T07:25:21.000Z</time>
      </trkpt>
      <trkpt lat="48.59153" lon="1.36096">
        <ele>198.19999694824</ele>
        <time>2026-06-17T07:25:32.000Z</time>
      </trkpt>
      <trkpt lat="48.59134" lon="1.36058">
        <ele>198.39999389648</ele>
        <time>2026-06-17T07:25:38.000Z</time>
      </trkpt>
      <trkpt lat="48.59121" lon="1.36029">
        <ele>198.60000610352</ele>
        <time>2026-06-17T07:25:42.000Z</time>
      </trkpt>
      <trkpt lat="48.59093" lon="1.35969">
        <ele>199</ele>
        <time>2026-06-17T07:25:52.000Z</time>
      </trkpt>
      <trkpt lat="48.59067" lon="1.3591">
        <ele>199.39999389648</ele>
        <time>2026-06-17T07:26:01.000Z</time>
      </trkpt>
      <trkpt lat="48.59058" lon="1.3589">
        <ele>199.60000610352</ele>
        <time>2026-06-17T07:26:04.000Z</time>
      </trkpt>
      <trkpt lat="48.59027" lon="1.35816">
        <ele>200</ele>
        <time>2026-06-17T07:26:15.000Z</time>
      </trkpt>
      <trkpt lat="48.59021" lon="1.35803">
        <ele>200.19999694824</ele>
        <time>2026-06-17T07:26:17.000Z</time>
      </trkpt>
      <trkpt lat="48.59007" lon="1.3577">
        <ele>200.39999389648</ele>
        <time>2026-06-17T07:26:22.000Z</time>
      </trkpt>
      <trkpt lat="48.58994" lon="1.35733">
        <ele>200.60000610352</ele>
        <time>2026-06-17T07:26:27.000Z</time>
      </trkpt>
      <trkpt lat="48.58975" lon="1.35652">
        <ele>200.39999389648</ele>
        <time>2026-06-17T07:26:37.000Z</time>
      </trkpt>
      <trkpt lat="48.58973" lon="1.35644">
        <ele>200.39999389648</ele>
        <time>2026-06-17T07:26:38.000Z</time>
      </trkpt>
      <trkpt lat="48.58957" lon="1.35568">
        <ele>199.60000610352</ele>
        <time>2026-06-17T07:26:48.000Z</time>
      </trkpt>
      <trkpt lat="48.58952" lon="1.35546">
        <ele>199.39999389648</ele>
        <time>2026-06-17T07:26:52.000Z</time>
      </trkpt>
      <trkpt lat="48.5895" lon="1.35535">
        <ele>199.19999694824</ele>
        <time>2026-06-17T07:26:54.000Z</time>
      </trkpt>
      <trkpt lat="48.58941" lon="1.35486">
        <ele>198.60000610352</ele>
        <time>2026-06-17T07:27:02.000Z</time>
      </trkpt>
      <trkpt lat="48.58937" lon="1.35467">
        <ele>198.39999389648</ele>
        <time>2026-06-17T07:27:05.000Z</time>
      </trkpt>
      <trkpt lat="48.58929" lon="1.35428">
        <ele>198</ele>
        <time>2026-06-17T07:27:11.000Z</time>
      </trkpt>
      <trkpt lat="48.58927" lon="1.35422">
        <ele>197.80000305176</ele>
        <time>2026-06-17T07:27:12.000Z</time>
      </trkpt>
      <trkpt lat="48.58921" lon="1.35402">
        <ele>197.19999694824</ele>
        <time>2026-06-17T07:27:16.000Z</time>
      </trkpt>
      <trkpt lat="48.58919" lon="1.35383">
        <ele>197</ele>
        <time>2026-06-17T07:27:21.000Z</time>
      </trkpt>
      <trkpt lat="48.58914" lon="1.35384">
        <ele>196.80000305176</ele>
        <time>2026-06-17T07:27:24.000Z</time>
      </trkpt>
      <trkpt lat="48.58914" lon="1.35386">
        <ele>196.80000305176</ele>
        <time>2026-06-17T07:27:25.000Z</time>
      </trkpt>
      <trkpt lat="48.58913" lon="1.35387">
        <ele>196.60000610352</ele>
        <time>2026-06-17T07:27:28.000Z</time>
      </trkpt>
      <trkpt lat="48.58913" lon="1.35387">
        <ele>196.39999389648</ele>
        <time>2026-06-17T07:27:38.000Z</time>
      </trkpt>
      <trkpt lat="48.58915" lon="1.35386">
        <ele>196.39999389648</ele>
        <time>2026-06-17T07:28:07.000Z</time>
      </trkpt>
      <trkpt lat="48.58915" lon="1.35382">
        <ele>196.39999389648</ele>
        <time>2026-06-17T07:28:09.000Z</time>
      </trkpt>
      <trkpt lat="48.58913" lon="1.35364">
        <ele>196.39999389648</ele>
        <time>2026-06-17T07:28:15.000Z</time>
      </trkpt>
      <trkpt lat="48.58911" lon="1.35345">
        <ele>196.19999694824</ele>
        <time>2026-06-17T07:28:19.000Z</time>
      </trkpt>
      <trkpt lat="48.58908" lon="1.3533">
        <ele>196.19999694824</ele>
        <time>2026-06-17T07:28:22.000Z</time>
      </trkpt>
      <trkpt lat="48.58901" lon="1.35291">
        <ele>195.80000305176</ele>
        <time>2026-06-17T07:28:28.000Z</time>
      </trkpt>
      <trkpt lat="48.58891" lon="1.35244">
        <ele>195</ele>
        <time>2026-06-17T07:28:34.000Z</time>
      </trkpt>
      <trkpt lat="48.58887" lon="1.35226">
        <ele>194.60000610352</ele>
        <time>2026-06-17T07:28:36.000Z</time>
      </trkpt>
      <trkpt lat="48.58876" lon="1.35167">
        <ele>193.80000305176</ele>
        <time>2026-06-17T07:28:42.000Z</time>
      </trkpt>
      <trkpt lat="48.58872" lon="1.35146">
        <ele>193.19999694824</ele>
        <time>2026-06-17T07:28:44.000Z</time>
      </trkpt>
      <trkpt lat="48.58865" lon="1.35113">
        <ele>192.60000610352</ele>
        <time>2026-06-17T07:28:47.000Z</time>
      </trkpt>
      <trkpt lat="48.58858" lon="1.35078">
        <ele>191.80000305176</ele>
        <time>2026-06-17T07:28:50.000Z</time>
      </trkpt>
      <trkpt lat="48.58853" lon="1.35053">
        <ele>191.39999389648</ele>
        <time>2026-06-17T07:28:52.000Z</time>
      </trkpt>
      <trkpt lat="48.5884" lon="1.35002">
        <ele>190.19999694824</ele>
        <time>2026-06-17T07:28:56.000Z</time>
      </trkpt>
      <trkpt lat="48.58837" lon="1.34989">
        <ele>189.80000305176</ele>
        <time>2026-06-17T07:28:57.000Z</time>
      </trkpt>
      <trkpt lat="48.58828" lon="1.34963">
        <ele>189</ele>
        <time>2026-06-17T07:28:59.000Z</time>
      </trkpt>
      <trkpt lat="48.58815" lon="1.34925">
        <ele>187.60000610352</ele>
        <time>2026-06-17T07:29:02.000Z</time>
      </trkpt>
      <trkpt lat="48.5881" lon="1.34913">
        <ele>187.39999389648</ele>
        <time>2026-06-17T07:29:03.000Z</time>
      </trkpt>
      <trkpt lat="48.58801" lon="1.3489">
        <ele>186.60000610352</ele>
        <time>2026-06-17T07:29:05.000Z</time>
      </trkpt>
      <trkpt lat="48.58788" lon="1.34857">
        <ele>185.39999389648</ele>
        <time>2026-06-17T07:29:08.000Z</time>
      </trkpt>
      <trkpt lat="48.58769" lon="1.3481">
        <ele>184.60000610352</ele>
        <time>2026-06-17T07:29:12.000Z</time>
      </trkpt>
      <trkpt lat="48.58765" lon="1.34801">
        <ele>184.39999389648</ele>
        <time>2026-06-17T07:29:14.000Z</time>
      </trkpt>
      <trkpt lat="48.58745" lon="1.34755">
        <ele>183.80000305176</ele>
        <time>2026-06-17T07:29:19.000Z</time>
      </trkpt>
      <trkpt lat="48.58732" lon="1.34719">
        <ele>183.60000610352</ele>
        <time>2026-06-17T07:29:24.000Z</time>
      </trkpt>
      <trkpt lat="48.5872" lon="1.34672">
        <ele>183.80000305176</ele>
        <time>2026-06-17T07:29:31.000Z</time>
      </trkpt>
      <trkpt lat="48.58709" lon="1.34605">
        <ele>184.60000610352</ele>
        <time>2026-06-17T07:29:41.000Z</time>
      </trkpt>
      <trkpt lat="48.58701" lon="1.34543">
        <ele>185.19999694824</ele>
        <time>2026-06-17T07:29:51.000Z</time>
      </trkpt>
      <trkpt lat="48.587" lon="1.34537">
        <ele>185.39999389648</ele>
        <time>2026-06-17T07:29:52.000Z</time>
      </trkpt>
      <trkpt lat="48.58694" lon="1.34487">
        <ele>186.19999694824</ele>
        <time>2026-06-17T07:30:00.000Z</time>
      </trkpt>
      <trkpt lat="48.58693" lon="1.34475">
        <ele>186.39999389648</ele>
        <time>2026-06-17T07:30:02.000Z</time>
      </trkpt>
      <trkpt lat="48.5869" lon="1.34429">
        <ele>187.19999694824</ele>
        <time>2026-06-17T07:30:09.000Z</time>
      </trkpt>
      <trkpt lat="48.58688" lon="1.34407">
        <ele>187.19999694824</ele>
        <time>2026-06-17T07:30:12.000Z</time>
      </trkpt>
      <trkpt lat="48.58687" lon="1.34395">
        <ele>187.39999389648</ele>
        <time>2026-06-17T07:30:15.000Z</time>
      </trkpt>
      <trkpt lat="48.58686" lon="1.34385">
        <ele>187.60000610352</ele>
        <time>2026-06-17T07:30:16.000Z</time>
      </trkpt>
      <trkpt lat="48.58686" lon="1.34379">
        <ele>187.60000610352</ele>
        <time>2026-06-17T07:30:17.000Z</time>
      </trkpt>
      <trkpt lat="48.58681" lon="1.34327">
        <ele>188.39999389648</ele>
        <time>2026-06-17T07:30:25.000Z</time>
      </trkpt>
      <trkpt lat="48.58678" lon="1.34313">
        <ele>188.60000610352</ele>
        <time>2026-06-17T07:30:27.000Z</time>
      </trkpt>
      <trkpt lat="48.58668" lon="1.34266">
        <ele>189</ele>
        <time>2026-06-17T07:30:34.000Z</time>
      </trkpt>
      <trkpt lat="48.58657" lon="1.34222">
        <ele>189.60000610352</ele>
        <time>2026-06-17T07:30:41.000Z</time>
      </trkpt>
      <trkpt lat="48.58653" lon="1.34202">
        <ele>189.80000305176</ele>
        <time>2026-06-17T07:30:44.000Z</time>
      </trkpt>
      <trkpt lat="48.58643" lon="1.34147">
        <ele>190.39999389648</ele>
        <time>2026-06-17T07:30:52.000Z</time>
      </trkpt>
      <trkpt lat="48.58642" lon="1.34095">
        <ele>190.60000610352</ele>
        <time>2026-06-17T07:30:59.000Z</time>
      </trkpt>
      <trkpt lat="48.58642" lon="1.34042">
        <ele>190.39999389648</ele>
        <time>2026-06-17T07:31:06.000Z</time>
      </trkpt>
      <trkpt lat="48.58638" lon="1.33977">
        <ele>190.19999694824</ele>
        <time>2026-06-17T07:31:14.000Z</time>
      </trkpt>
      <trkpt lat="48.58628" lon="1.33896">
        <ele>188.80000305176</ele>
        <time>2026-06-17T07:31:23.000Z</time>
      </trkpt>
      <trkpt lat="48.5862" lon="1.33859">
        <ele>188.60000610352</ele>
        <time>2026-06-17T07:31:28.000Z</time>
      </trkpt>
      <trkpt lat="48.58614" lon="1.33838">
        <ele>188.39999389648</ele>
        <time>2026-06-17T07:31:31.000Z</time>
      </trkpt>
      <trkpt lat="48.58593" lon="1.33771">
        <ele>188.39999389648</ele>
        <time>2026-06-17T07:31:41.000Z</time>
      </trkpt>
      <trkpt lat="48.58572" lon="1.33688">
        <ele>188.60000610352</ele>
        <time>2026-06-17T07:31:53.000Z</time>
      </trkpt>
      <trkpt lat="48.58559" lon="1.33606">
        <ele>189</ele>
        <time>2026-06-17T07:32:04.000Z</time>
      </trkpt>
      <trkpt lat="48.5855" lon="1.33535">
        <ele>189.39999389648</ele>
        <time>2026-06-17T07:32:13.000Z</time>
      </trkpt>
      <trkpt lat="48.58549" lon="1.33528">
        <ele>189.60000610352</ele>
        <time>2026-06-17T07:32:15.000Z</time>
      </trkpt>
      <trkpt lat="48.58547" lon="1.33517">
        <ele>189.60000610352</ele>
        <time>2026-06-17T07:32:16.000Z</time>
      </trkpt>
      <trkpt lat="48.58535" lon="1.33481">
        <ele>189.60000610352</ele>
        <time>2026-06-17T07:32:21.000Z</time>
      </trkpt>
      <trkpt lat="48.58514" lon="1.33412">
        <ele>189.80000305176</ele>
        <time>2026-06-17T07:32:31.000Z</time>
      </trkpt>
      <trkpt lat="48.5849" lon="1.33336">
        <ele>190</ele>
        <time>2026-06-17T07:32:42.000Z</time>
      </trkpt>
      <trkpt lat="48.58487" lon="1.33329">
        <ele>190</ele>
        <time>2026-06-17T07:32:43.000Z</time>
      </trkpt>
      <trkpt lat="48.58463" lon="1.33253">
        <ele>190</ele>
        <time>2026-06-17T07:32:54.000Z</time>
      </trkpt>
      <trkpt lat="48.58461" lon="1.33246">
        <ele>190</ele>
        <time>2026-06-17T07:32:55.000Z</time>
      </trkpt>
      <trkpt lat="48.58435" lon="1.33172">
        <ele>190.60000610352</ele>
        <time>2026-06-17T07:33:06.000Z</time>
      </trkpt>
      <trkpt lat="48.58433" lon="1.33166">
        <ele>190.60000610352</ele>
        <time>2026-06-17T07:33:07.000Z</time>
      </trkpt>
      <trkpt lat="48.58404" lon="1.3309">
        <ele>191.80000305176</ele>
        <time>2026-06-17T07:33:19.000Z</time>
      </trkpt>
      <trkpt lat="48.58402" lon="1.33084">
        <ele>191.80000305176</ele>
        <time>2026-06-17T07:33:20.000Z</time>
      </trkpt>
      <trkpt lat="48.58371" lon="1.33007">
        <ele>192.80000305176</ele>
        <time>2026-06-17T07:33:32.000Z</time>
      </trkpt>
      <trkpt lat="48.58369" lon="1.33001">
        <ele>192.80000305176</ele>
        <time>2026-06-17T07:33:33.000Z</time>
      </trkpt>
      <trkpt lat="48.58366" lon="1.32994">
        <ele>192.80000305176</ele>
        <time>2026-06-17T07:33:34.000Z</time>
      </trkpt>
      <trkpt lat="48.58356" lon="1.32966">
        <ele>193</ele>
        <time>2026-06-17T07:33:38.000Z</time>
      </trkpt>
      <trkpt lat="48.5835" lon="1.32953">
        <ele>192.80000305176</ele>
        <time>2026-06-17T07:33:40.000Z</time>
      </trkpt>
      <trkpt lat="48.58327" lon="1.32885">
        <ele>192.39999389648</ele>
        <time>2026-06-17T07:33:50.000Z</time>
      </trkpt>
      <trkpt lat="48.5831" lon="1.3283">
        <ele>192.19999694824</ele>
        <time>2026-06-17T07:33:58.000Z</time>
      </trkpt>
      <trkpt lat="48.58292" lon="1.32767">
        <ele>192.39999389648</ele>
        <time>2026-06-17T07:34:07.000Z</time>
      </trkpt>
      <trkpt lat="48.58268" lon="1.32707">
        <ele>192.19999694824</ele>
        <time>2026-06-17T07:34:17.000Z</time>
      </trkpt>
      <trkpt lat="48.5825" lon="1.32665">
        <ele>192.19999694824</ele>
        <time>2026-06-17T07:34:25.000Z</time>
      </trkpt>
      <trkpt lat="48.58232" lon="1.32626">
        <ele>192.19999694824</ele>
        <time>2026-06-17T07:34:33.000Z</time>
      </trkpt>
      <trkpt lat="48.58207" lon="1.32571">
        <ele>192.19999694824</ele>
        <time>2026-06-17T07:34:43.000Z</time>
      </trkpt>
      <trkpt lat="48.58179" lon="1.32509">
        <ele>191.80000305176</ele>
        <time>2026-06-17T07:34:53.000Z</time>
      </trkpt>
      <trkpt lat="48.58168" lon="1.32484">
        <ele>191.60000610352</ele>
        <time>2026-06-17T07:34:57.000Z</time>
      </trkpt>
      <trkpt lat="48.58146" lon="1.32436">
        <ele>190.60000610352</ele>
        <time>2026-06-17T07:35:04.000Z</time>
      </trkpt>
      <trkpt lat="48.5814" lon="1.32421">
        <ele>190.39999389648</ele>
        <time>2026-06-17T07:35:06.000Z</time>
      </trkpt>
      <trkpt lat="48.58117" lon="1.32369">
        <ele>189.60000610352</ele>
        <time>2026-06-17T07:35:13.000Z</time>
      </trkpt>
      <trkpt lat="48.58114" lon="1.32362">
        <ele>189.39999389648</ele>
        <time>2026-06-17T07:35:15.000Z</time>
      </trkpt>
      <trkpt lat="48.58094" lon="1.32308">
        <ele>188.60000610352</ele>
        <time>2026-06-17T07:35:22.000Z</time>
      </trkpt>
      <trkpt lat="48.5809" lon="1.3228">
        <ele>188.39999389648</ele>
        <time>2026-06-17T07:35:25.000Z</time>
      </trkpt>
      <trkpt lat="48.58087" lon="1.3225">
        <ele>188</ele>
        <time>2026-06-17T07:35:28.000Z</time>
      </trkpt>
      <trkpt lat="48.58086" lon="1.32231">
        <ele>187.39999389648</ele>
        <time>2026-06-17T07:35:30.000Z</time>
      </trkpt>
      <trkpt lat="48.58082" lon="1.32165">
        <ele>186.60000610352</ele>
        <time>2026-06-17T07:35:37.000Z</time>
      </trkpt>
      <trkpt lat="48.58078" lon="1.3212">
        <ele>186.39999389648</ele>
        <time>2026-06-17T07:35:42.000Z</time>
      </trkpt>
      <trkpt lat="48.58075" lon="1.32079">
        <ele>186.39999389648</ele>
        <time>2026-06-17T07:35:47.000Z</time>
      </trkpt>
      <trkpt lat="48.58068" lon="1.32009">
        <ele>186.19999694824</ele>
        <time>2026-06-17T07:35:56.000Z</time>
      </trkpt>
      <trkpt lat="48.58058" lon="1.31945">
        <ele>186.60000610352</ele>
        <time>2026-06-17T07:36:05.000Z</time>
      </trkpt>
      <trkpt lat="48.5805" lon="1.31878">
        <ele>187.39999389648</ele>
        <time>2026-06-17T07:36:15.000Z</time>
      </trkpt>
      <trkpt lat="48.58043" lon="1.31808">
        <ele>188.19999694824</ele>
        <time>2026-06-17T07:36:25.000Z</time>
      </trkpt>
      <trkpt lat="48.58042" lon="1.31782">
        <ele>188.39999389648</ele>
        <time>2026-06-17T07:36:29.000Z</time>
      </trkpt>
      <trkpt lat="48.58043" lon="1.31756">
        <ele>189</ele>
        <time>2026-06-17T07:36:33.000Z</time>
      </trkpt>
      <trkpt lat="48.58045" lon="1.31731">
        <ele>189.60000610352</ele>
        <time>2026-06-17T07:36:37.000Z</time>
      </trkpt>
      <trkpt lat="48.58047" lon="1.31693">
        <ele>190</ele>
        <time>2026-06-17T07:36:43.000Z</time>
      </trkpt>
      <trkpt lat="48.58048" lon="1.31673">
        <ele>190.39999389648</ele>
        <time>2026-06-17T07:36:46.000Z</time>
      </trkpt>
      <trkpt lat="48.58049" lon="1.31635">
        <ele>191.19999694824</ele>
        <time>2026-06-17T07:36:52.000Z</time>
      </trkpt>
      <trkpt lat="48.58049" lon="1.31596">
        <ele>191.60000610352</ele>
        <time>2026-06-17T07:36:58.000Z</time>
      </trkpt>
      <trkpt lat="48.58049" lon="1.31572">
        <ele>192</ele>
        <time>2026-06-17T07:37:02.000Z</time>
      </trkpt>
      <trkpt lat="48.5805" lon="1.31536">
        <ele>192.60000610352</ele>
        <time>2026-06-17T07:37:08.000Z</time>
      </trkpt>
      <trkpt lat="48.58051" lon="1.31506">
        <ele>192.80000305176</ele>
        <time>2026-06-17T07:37:12.000Z</time>
      </trkpt>
      <trkpt lat="48.58052" lon="1.315">
        <ele>193</ele>
        <time>2026-06-17T07:37:13.000Z</time>
      </trkpt>
      <trkpt lat="48.58055" lon="1.31465">
        <ele>193.60000610352</ele>
        <time>2026-06-17T07:37:19.000Z</time>
      </trkpt>
      <trkpt lat="48.58056" lon="1.31439">
        <ele>193.80000305176</ele>
        <time>2026-06-17T07:37:23.000Z</time>
      </trkpt>
      <trkpt lat="48.58053" lon="1.31379">
        <ele>194.39999389648</ele>
        <time>2026-06-17T07:37:32.000Z</time>
      </trkpt>
      <trkpt lat="48.58048" lon="1.31345">
        <ele>194.60000610352</ele>
        <time>2026-06-17T07:37:37.000Z</time>
      </trkpt>
      <trkpt lat="48.58044" lon="1.31316">
        <ele>195</ele>
        <time>2026-06-17T07:37:41.000Z</time>
      </trkpt>
      <trkpt lat="48.58031" lon="1.31235">
        <ele>195</ele>
        <time>2026-06-17T07:37:52.000Z</time>
      </trkpt>
      <trkpt lat="48.58017" lon="1.31153">
        <ele>195</ele>
        <time>2026-06-17T07:38:03.000Z</time>
      </trkpt>
      <trkpt lat="48.58014" lon="1.31132">
        <ele>194.80000305176</ele>
        <time>2026-06-17T07:38:06.000Z</time>
      </trkpt>
      <trkpt lat="48.5801" lon="1.31103">
        <ele>195</ele>
        <time>2026-06-17T07:38:10.000Z</time>
      </trkpt>
      <trkpt lat="48.58005" lon="1.31083">
        <ele>195</ele>
        <time>2026-06-17T07:38:13.000Z</time>
      </trkpt>
      <trkpt lat="48.58003" lon="1.3107">
        <ele>195</ele>
        <time>2026-06-17T07:38:15.000Z</time>
      </trkpt>
      <trkpt lat="48.58002" lon="1.31063">
        <ele>195</ele>
        <time>2026-06-17T07:38:16.000Z</time>
      </trkpt>
      <trkpt lat="48.57985" lon="1.30983">
        <ele>195</ele>
        <time>2026-06-17T07:38:27.000Z</time>
      </trkpt>
      <trkpt lat="48.57982" lon="1.30968">
        <ele>194.80000305176</ele>
        <time>2026-06-17T07:38:29.000Z</time>
      </trkpt>
      <trkpt lat="48.57966" lon="1.30898">
        <ele>194.60000610352</ele>
        <time>2026-06-17T07:38:38.000Z</time>
      </trkpt>
      <trkpt lat="48.57946" lon="1.30822">
        <ele>194.19999694824</ele>
        <time>2026-06-17T07:38:48.000Z</time>
      </trkpt>
      <trkpt lat="48.57942" lon="1.30808">
        <ele>194</ele>
        <time>2026-06-17T07:38:50.000Z</time>
      </trkpt>
      <trkpt lat="48.57924" lon="1.30748">
        <ele>194</ele>
        <time>2026-06-17T07:38:59.000Z</time>
      </trkpt>
      <trkpt lat="48.57912" lon="1.30704">
        <ele>194.39999389648</ele>
        <time>2026-06-17T07:39:06.000Z</time>
      </trkpt>
      <trkpt lat="48.57889" lon="1.30625">
        <ele>194.80000305176</ele>
        <time>2026-06-17T07:39:18.000Z</time>
      </trkpt>
      <trkpt lat="48.57887" lon="1.30618">
        <ele>194.80000305176</ele>
        <time>2026-06-17T07:39:19.000Z</time>
      </trkpt>
      <trkpt lat="48.57874" lon="1.30574">
        <ele>194.80000305176</ele>
        <time>2026-06-17T07:39:26.000Z</time>
      </trkpt>
      <trkpt lat="48.57853" lon="1.30503">
        <ele>194.80000305176</ele>
        <time>2026-06-17T07:39:37.000Z</time>
      </trkpt>
      <trkpt lat="48.57851" lon="1.30496">
        <ele>195</ele>
        <time>2026-06-17T07:39:38.000Z</time>
      </trkpt>
      <trkpt lat="48.57835" lon="1.30441">
        <ele>195</ele>
        <time>2026-06-17T07:39:46.000Z</time>
      </trkpt>
      <trkpt lat="48.57829" lon="1.3042">
        <ele>195</ele>
        <time>2026-06-17T07:39:49.000Z</time>
      </trkpt>
      <trkpt lat="48.5782" lon="1.30392">
        <ele>195</ele>
        <time>2026-06-17T07:39:53.000Z</time>
      </trkpt>
      <trkpt lat="48.57799" lon="1.30321">
        <ele>195.19999694824</ele>
        <time>2026-06-17T07:40:04.000Z</time>
      </trkpt>
      <trkpt lat="48.57791" lon="1.30296">
        <ele>195.60000610352</ele>
        <time>2026-06-17T07:40:08.000Z</time>
      </trkpt>
      <trkpt lat="48.5778" lon="1.30257">
        <ele>196</ele>
        <time>2026-06-17T07:40:14.000Z</time>
      </trkpt>
      <trkpt lat="48.57763" lon="1.302">
        <ele>196.60000610352</ele>
        <time>2026-06-17T07:40:23.000Z</time>
      </trkpt>
      <trkpt lat="48.5776" lon="1.30187">
        <ele>196.60000610352</ele>
        <time>2026-06-17T07:40:25.000Z</time>
      </trkpt>
      <trkpt lat="48.57737" lon="1.30112">
        <ele>197</ele>
        <time>2026-06-17T07:40:36.000Z</time>
      </trkpt>
      <trkpt lat="48.57733" lon="1.30098">
        <ele>197</ele>
        <time>2026-06-17T07:40:38.000Z</time>
      </trkpt>
      <trkpt lat="48.57713" lon="1.3003">
        <ele>197</ele>
        <time>2026-06-17T07:40:47.000Z</time>
      </trkpt>
      <trkpt lat="48.57696" lon="1.29975">
        <ele>196.80000305176</ele>
        <time>2026-06-17T07:40:54.000Z</time>
      </trkpt>
      <trkpt lat="48.57676" lon="1.29905">
        <ele>196.39999389648</ele>
        <time>2026-06-17T07:41:02.000Z</time>
      </trkpt>
      <trkpt lat="48.57661" lon="1.29853">
        <ele>195.39999389648</ele>
        <time>2026-06-17T07:41:07.000Z</time>
      </trkpt>
      <trkpt lat="48.57654" lon="1.29829">
        <ele>195</ele>
        <time>2026-06-17T07:41:09.000Z</time>
      </trkpt>
      <trkpt lat="48.57644" lon="1.29791">
        <ele>194</ele>
        <time>2026-06-17T07:41:12.000Z</time>
      </trkpt>
      <trkpt lat="48.57634" lon="1.2975">
        <ele>192.39999389648</ele>
        <time>2026-06-17T07:41:15.000Z</time>
      </trkpt>
      <trkpt lat="48.57624" lon="1.29708">
        <ele>191</ele>
        <time>2026-06-17T07:41:18.000Z</time>
      </trkpt>
      <trkpt lat="48.57615" lon="1.29668">
        <ele>189.60000610352</ele>
        <time>2026-06-17T07:41:21.000Z</time>
      </trkpt>
      <trkpt lat="48.5761" lon="1.29644">
        <ele>188.80000305176</ele>
        <time>2026-06-17T07:41:23.000Z</time>
      </trkpt>
      <trkpt lat="48.57607" lon="1.29632">
        <ele>188.60000610352</ele>
        <time>2026-06-17T07:41:24.000Z</time>
      </trkpt>
      <trkpt lat="48.57599" lon="1.29592">
        <ele>188.19999694824</ele>
        <time>2026-06-17T07:41:28.000Z</time>
      </trkpt>
      <trkpt lat="48.57583" lon="1.29517">
        <ele>189.19999694824</ele>
        <time>2026-06-17T07:41:36.000Z</time>
      </trkpt>
      <trkpt lat="48.57581" lon="1.29509">
        <ele>189.60000610352</ele>
        <time>2026-06-17T07:41:37.000Z</time>
      </trkpt>
      <trkpt lat="48.57575" lon="1.29474">
        <ele>190.80000305176</ele>
        <time>2026-06-17T07:41:41.000Z</time>
      </trkpt>
      <trkpt lat="48.57572" lon="1.29452">
        <ele>191.80000305176</ele>
        <time>2026-06-17T07:41:44.000Z</time>
      </trkpt>
      <trkpt lat="48.57571" lon="1.29441">
        <ele>191.80000305176</ele>
        <time>2026-06-17T07:41:45.000Z</time>
      </trkpt>
      <trkpt lat="48.57568" lon="1.29417">
        <ele>192.80000305176</ele>
        <time>2026-06-17T07:41:48.000Z</time>
      </trkpt>
      <trkpt lat="48.57565" lon="1.29377">
        <ele>194</ele>
        <time>2026-06-17T07:41:53.000Z</time>
      </trkpt>
      <trkpt lat="48.57564" lon="1.29355">
        <ele>194.80000305176</ele>
        <time>2026-06-17T07:41:56.000Z</time>
      </trkpt>
      <trkpt lat="48.57563" lon="1.29341">
        <ele>195</ele>
        <time>2026-06-17T07:41:58.000Z</time>
      </trkpt>
      <trkpt lat="48.57563" lon="1.29308">
        <ele>196</ele>
        <time>2026-06-17T07:42:03.000Z</time>
      </trkpt>
      <trkpt lat="48.57567" lon="1.2924">
        <ele>196.80000305176</ele>
        <time>2026-06-17T07:42:13.000Z</time>
      </trkpt>
      <trkpt lat="48.5757" lon="1.29211">
        <ele>197</ele>
        <time>2026-06-17T07:42:17.000Z</time>
      </trkpt>
      <trkpt lat="48.57577" lon="1.29165">
        <ele>197.19999694824</ele>
        <time>2026-06-17T07:42:23.000Z</time>
      </trkpt>
      <trkpt lat="48.57588" lon="1.29084">
        <ele>197.19999694824</ele>
        <time>2026-06-17T07:42:33.000Z</time>
      </trkpt>
      <trkpt lat="48.57589" lon="1.29076">
        <ele>197</ele>
        <time>2026-06-17T07:42:34.000Z</time>
      </trkpt>
      <trkpt lat="48.57601" lon="1.28995">
        <ele>196.80000305176</ele>
        <time>2026-06-17T07:42:44.000Z</time>
      </trkpt>
      <trkpt lat="48.57605" lon="1.28961">
        <ele>196.60000610352</ele>
        <time>2026-06-17T07:42:48.000Z</time>
      </trkpt>
      <trkpt lat="48.57611" lon="1.28919">
        <ele>196</ele>
        <time>2026-06-17T07:42:53.000Z</time>
      </trkpt>
      <trkpt lat="48.57619" lon="1.28858">
        <ele>195.80000305176</ele>
        <time>2026-06-17T07:43:00.000Z</time>
      </trkpt>
      <trkpt lat="48.57631" lon="1.28769">
        <ele>196.19999694824</ele>
        <time>2026-06-17T07:43:10.000Z</time>
      </trkpt>
      <trkpt lat="48.57633" lon="1.28761">
        <ele>196.19999694824</ele>
        <time>2026-06-17T07:43:12.000Z</time>
      </trkpt>
      <trkpt lat="48.57637" lon="1.28683">
        <ele>197</ele>
        <time>2026-06-17T07:43:21.000Z</time>
      </trkpt>
      <trkpt lat="48.57636" lon="1.28666">
        <ele>197.19999694824</ele>
        <time>2026-06-17T07:43:23.000Z</time>
      </trkpt>
      <trkpt lat="48.57629" lon="1.28623">
        <ele>197.39999389648</ele>
        <time>2026-06-17T07:43:28.000Z</time>
      </trkpt>
      <trkpt lat="48.57615" lon="1.2854">
        <ele>197.39999389648</ele>
        <time>2026-06-17T07:43:38.000Z</time>
      </trkpt>
      <trkpt lat="48.57613" lon="1.28532">
        <ele>197.39999389648</ele>
        <time>2026-06-17T07:43:39.000Z</time>
      </trkpt>
      <trkpt lat="48.57598" lon="1.28447">
        <ele>197.60000610352</ele>
        <time>2026-06-17T07:43:50.000Z</time>
      </trkpt>
      <trkpt lat="48.57581" lon="1.28364">
        <ele>198</ele>
        <time>2026-06-17T07:44:01.000Z</time>
      </trkpt>
      <trkpt lat="48.57576" lon="1.28342">
        <ele>198.19999694824</ele>
        <time>2026-06-17T07:44:04.000Z</time>
      </trkpt>
      <trkpt lat="48.57561" lon="1.28292">
        <ele>198.39999389648</ele>
        <time>2026-06-17T07:44:11.000Z</time>
      </trkpt>
      <trkpt lat="48.57538" lon="1.28212">
        <ele>199</ele>
        <time>2026-06-17T07:44:22.000Z</time>
      </trkpt>
      <trkpt lat="48.57536" lon="1.28205">
        <ele>199</ele>
        <time>2026-06-17T07:44:23.000Z</time>
      </trkpt>
      <trkpt lat="48.57529" lon="1.28174">
        <ele>199.19999694824</ele>
        <time>2026-06-17T07:44:27.000Z</time>
      </trkpt>
      <trkpt lat="48.57524" lon="1.28144">
        <ele>199.60000610352</ele>
        <time>2026-06-17T07:44:31.000Z</time>
      </trkpt>
      <trkpt lat="48.57514" lon="1.2806">
        <ele>200</ele>
        <time>2026-06-17T07:44:41.000Z</time>
      </trkpt>
      <trkpt lat="48.57508" lon="1.28001">
        <ele>199.80000305176</ele>
        <time>2026-06-17T07:44:48.000Z</time>
      </trkpt>
      <trkpt lat="48.57499" lon="1.2792">
        <ele>199.39999389648</ele>
        <time>2026-06-17T07:44:57.000Z</time>
      </trkpt>
      <trkpt lat="48.57497" lon="1.27902">
        <ele>199.39999389648</ele>
        <time>2026-06-17T07:44:59.000Z</time>
      </trkpt>
      <trkpt lat="48.57488" lon="1.27816">
        <ele>198.39999389648</ele>
        <time>2026-06-17T07:45:08.000Z</time>
      </trkpt>
      <trkpt lat="48.57486" lon="1.27795">
        <ele>198.19999694824</ele>
        <time>2026-06-17T07:45:10.000Z</time>
      </trkpt>
      <trkpt lat="48.57485" lon="1.27784">
        <ele>198</ele>
        <time>2026-06-17T07:45:11.000Z</time>
      </trkpt>
      <trkpt lat="48.57476" lon="1.27696">
        <ele>197</ele>
        <time>2026-06-17T07:45:19.000Z</time>
      </trkpt>
      <trkpt lat="48.5747" lon="1.27641">
        <ele>195.80000305176</ele>
        <time>2026-06-17T07:45:24.000Z</time>
      </trkpt>
      <trkpt lat="48.57466" lon="1.27603">
        <ele>195.19999694824</ele>
        <time>2026-06-17T07:45:28.000Z</time>
      </trkpt>
      <trkpt lat="48.57463" lon="1.27577">
        <ele>194.80000305176</ele>
        <time>2026-06-17T07:45:31.000Z</time>
      </trkpt>
      <trkpt lat="48.57456" lon="1.27536">
        <ele>194.60000610352</ele>
        <time>2026-06-17T07:45:36.000Z</time>
      </trkpt>
      <trkpt lat="48.57441" lon="1.27466">
        <ele>195</ele>
        <time>2026-06-17T07:45:45.000Z</time>
      </trkpt>
      <trkpt lat="48.57425" lon="1.27389">
        <ele>195.60000610352</ele>
        <time>2026-06-17T07:45:55.000Z</time>
      </trkpt>
      <trkpt lat="48.57422" lon="1.27375">
        <ele>195.80000305176</ele>
        <time>2026-06-17T07:45:57.000Z</time>
      </trkpt>
      <trkpt lat="48.57411" lon="1.27317">
        <ele>196.39999389648</ele>
        <time>2026-06-17T07:46:05.000Z</time>
      </trkpt>
      <trkpt lat="48.57402" lon="1.27275">
        <ele>196.80000305176</ele>
        <time>2026-06-17T07:46:11.000Z</time>
      </trkpt>
      <trkpt lat="48.57395" lon="1.27239">
        <ele>197.19999694824</ele>
        <time>2026-06-17T07:46:16.000Z</time>
      </trkpt>
      <trkpt lat="48.57386" lon="1.27196">
        <ele>197.80000305176</ele>
        <time>2026-06-17T07:46:22.000Z</time>
      </trkpt>
      <trkpt lat="48.5738" lon="1.27166">
        <ele>198</ele>
        <time>2026-06-17T07:46:26.000Z</time>
      </trkpt>
      <trkpt lat="48.57365" lon="1.27093">
        <ele>198.39999389648</ele>
        <time>2026-06-17T07:46:36.000Z</time>
      </trkpt>
      <trkpt lat="48.57349" lon="1.27013">
        <ele>198.60000610352</ele>
        <time>2026-06-17T07:46:47.000Z</time>
      </trkpt>
      <trkpt lat="48.57345" lon="1.26991">
        <ele>198.80000305176</ele>
        <time>2026-06-17T07:46:50.000Z</time>
      </trkpt>
      <trkpt lat="48.57333" lon="1.26928">
        <ele>198.80000305176</ele>
        <time>2026-06-17T07:46:59.000Z</time>
      </trkpt>
      <trkpt lat="48.5733" lon="1.26906">
        <ele>199.19999694824</ele>
        <time>2026-06-17T07:47:02.000Z</time>
      </trkpt>
      <trkpt lat="48.57328" lon="1.26857">
        <ele>199.39999389648</ele>
        <time>2026-06-17T07:47:09.000Z</time>
      </trkpt>
      <trkpt lat="48.57331" lon="1.26822">
        <ele>199.80000305176</ele>
        <time>2026-06-17T07:47:14.000Z</time>
      </trkpt>
      <trkpt lat="48.57336" lon="1.26784">
        <ele>200.39999389648</ele>
        <time>2026-06-17T07:47:20.000Z</time>
      </trkpt>
      <trkpt lat="48.57337" lon="1.26772">
        <ele>200.80000305176</ele>
        <time>2026-06-17T07:47:22.000Z</time>
      </trkpt>
      <trkpt lat="48.57342" lon="1.26735">
        <ele>201.60000610352</ele>
        <time>2026-06-17T07:47:28.000Z</time>
      </trkpt>
      <trkpt lat="48.57343" lon="1.26729">
        <ele>202</ele>
        <time>2026-06-17T07:47:29.000Z</time>
      </trkpt>
      <trkpt lat="48.57348" lon="1.26684">
        <ele>203</ele>
        <time>2026-06-17T07:47:36.000Z</time>
      </trkpt>
      <trkpt lat="48.5735" lon="1.26671">
        <ele>203.19999694824</ele>
        <time>2026-06-17T07:47:38.000Z</time>
      </trkpt>
      <trkpt lat="48.57353" lon="1.26636">
        <ele>204.19999694824</ele>
        <time>2026-06-17T07:47:44.000Z</time>
      </trkpt>
      <trkpt lat="48.57356" lon="1.266">
        <ele>204.80000305176</ele>
        <time>2026-06-17T07:47:50.000Z</time>
      </trkpt>
      <trkpt lat="48.57358" lon="1.26577">
        <ele>205.39999389648</ele>
        <time>2026-06-17T07:47:54.000Z</time>
      </trkpt>
      <trkpt lat="48.57363" lon="1.26539">
        <ele>206.39999389648</ele>
        <time>2026-06-17T07:48:00.000Z</time>
      </trkpt>
      <trkpt lat="48.57369" lon="1.26486">
        <ele>206.80000305176</ele>
        <time>2026-06-17T07:48:07.000Z</time>
      </trkpt>
      <trkpt lat="48.57379" lon="1.26402">
        <ele>206.19999694824</ele>
        <time>2026-06-17T07:48:17.000Z</time>
      </trkpt>
      <trkpt lat="48.57388" lon="1.26329">
        <ele>205.60000610352</ele>
        <time>2026-06-17T07:48:25.000Z</time>
      </trkpt>
      <trkpt lat="48.57397" lon="1.26248">
        <ele>205.19999694824</ele>
        <time>2026-06-17T07:48:34.000Z</time>
      </trkpt>
      <trkpt lat="48.574" lon="1.26221">
        <ele>205.19999694824</ele>
        <time>2026-06-17T07:48:37.000Z</time>
      </trkpt>
      <trkpt lat="48.57414" lon="1.26161">
        <ele>204.39999389648</ele>
        <time>2026-06-17T07:48:44.000Z</time>
      </trkpt>
      <trkpt lat="48.57422" lon="1.26138">
        <ele>204</ele>
        <time>2026-06-17T07:48:46.000Z</time>
      </trkpt>
      <trkpt lat="48.5744" lon="1.2609">
        <ele>203</ele>
        <time>2026-06-17T07:48:51.000Z</time>
      </trkpt>
      <trkpt lat="48.5746" lon="1.26039">
        <ele>202</ele>
        <time>2026-06-17T07:48:56.000Z</time>
      </trkpt>
      <trkpt lat="48.57473" lon="1.26006">
        <ele>201.39999389648</ele>
        <time>2026-06-17T07:48:59.000Z</time>
      </trkpt>
      <trkpt lat="48.57483" lon="1.25983">
        <ele>200.80000305176</ele>
        <time>2026-06-17T07:49:01.000Z</time>
      </trkpt>
      <trkpt lat="48.57496" lon="1.25949">
        <ele>199.60000610352</ele>
        <time>2026-06-17T07:49:04.000Z</time>
      </trkpt>
      <trkpt lat="48.57513" lon="1.25908">
        <ele>198.80000305176</ele>
        <time>2026-06-17T07:49:08.000Z</time>
      </trkpt>
      <trkpt lat="48.57533" lon="1.25858">
        <ele>198.60000610352</ele>
        <time>2026-06-17T07:49:14.000Z</time>
      </trkpt>
      <trkpt lat="48.57557" lon="1.25799">
        <ele>199.19999694824</ele>
        <time>2026-06-17T07:49:22.000Z</time>
      </trkpt>
      <trkpt lat="48.57582" lon="1.25737">
        <ele>200.19999694824</ele>
        <time>2026-06-17T07:49:31.000Z</time>
      </trkpt>
      <trkpt lat="48.57589" lon="1.25717">
        <ele>200.60000610352</ele>
        <time>2026-06-17T07:49:34.000Z</time>
      </trkpt>
      <trkpt lat="48.57615" lon="1.25652">
        <ele>201.60000610352</ele>
        <time>2026-06-17T07:49:43.000Z</time>
      </trkpt>
      <trkpt lat="48.57618" lon="1.25645">
        <ele>201.80000305176</ele>
        <time>2026-06-17T07:49:44.000Z</time>
      </trkpt>
      <trkpt lat="48.57647" lon="1.25574">
        <ele>202.39999389648</ele>
        <time>2026-06-17T07:49:55.000Z</time>
      </trkpt>
      <trkpt lat="48.57655" lon="1.25553">
        <ele>202.80000305176</ele>
        <time>2026-06-17T07:49:58.000Z</time>
      </trkpt>
      <trkpt lat="48.57669" lon="1.255">
        <ele>203.39999389648</ele>
        <time>2026-06-17T07:50:05.000Z</time>
      </trkpt>
      <trkpt lat="48.57677" lon="1.25441">
        <ele>203.80000305176</ele>
        <time>2026-06-17T07:50:12.000Z</time>
      </trkpt>
      <trkpt lat="48.57679" lon="1.25424">
        <ele>203.80000305176</ele>
        <time>2026-06-17T07:50:14.000Z</time>
      </trkpt>
      <trkpt lat="48.57685" lon="1.2534">
        <ele>204</ele>
        <time>2026-06-17T07:50:24.000Z</time>
      </trkpt>
      <trkpt lat="48.57685" lon="1.25332">
        <ele>204</ele>
        <time>2026-06-17T07:50:25.000Z</time>
      </trkpt>
      <trkpt lat="48.57692" lon="1.25244">
        <ele>204.60000610352</ele>
        <time>2026-06-17T07:50:36.000Z</time>
      </trkpt>
      <trkpt lat="48.57693" lon="1.25236">
        <ele>204.60000610352</ele>
        <time>2026-06-17T07:50:37.000Z</time>
      </trkpt>
      <trkpt lat="48.577" lon="1.25182">
        <ele>204.80000305176</ele>
        <time>2026-06-17T07:50:43.000Z</time>
      </trkpt>
      <trkpt lat="48.57702" lon="1.2517">
        <ele>204.80000305176</ele>
        <time>2026-06-17T07:50:45.000Z</time>
      </trkpt>
      <trkpt lat="48.57721" lon="1.25116">
        <ele>204.80000305176</ele>
        <time>2026-06-17T07:50:52.000Z</time>
      </trkpt>
      <trkpt lat="48.57743" lon="1.25067">
        <ele>204.39999389648</ele>
        <time>2026-06-17T07:50:58.000Z</time>
      </trkpt>
      <trkpt lat="48.57766" lon="1.25019">
        <ele>203.60000610352</ele>
        <time>2026-06-17T07:51:03.000Z</time>
      </trkpt>
      <trkpt lat="48.57771" lon="1.25008">
        <ele>203.60000610352</ele>
        <time>2026-06-17T07:51:04.000Z</time>
      </trkpt>
      <trkpt lat="48.57786" lon="1.24975">
        <ele>202.19999694824</ele>
        <time>2026-06-17T07:51:07.000Z</time>
      </trkpt>
      <trkpt lat="48.57811" lon="1.2492">
        <ele>201</ele>
        <time>2026-06-17T07:51:12.000Z</time>
      </trkpt>
      <trkpt lat="48.57826" lon="1.24888">
        <ele>199.80000305176</ele>
        <time>2026-06-17T07:51:15.000Z</time>
      </trkpt>
      <trkpt lat="48.57843" lon="1.2485">
        <ele>199.39999389648</ele>
        <time>2026-06-17T07:51:19.000Z</time>
      </trkpt>
      <trkpt lat="48.57868" lon="1.24793">
        <ele>199</ele>
        <time>2026-06-17T07:51:26.000Z</time>
      </trkpt>
      <trkpt lat="48.57879" lon="1.24753">
        <ele>199.39999389648</ele>
        <time>2026-06-17T07:51:31.000Z</time>
      </trkpt>
      <trkpt lat="48.5788" lon="1.24744">
        <ele>199.60000610352</ele>
        <time>2026-06-17T07:51:32.000Z</time>
      </trkpt>
      <trkpt lat="48.57883" lon="1.24685">
        <ele>200.19999694824</ele>
        <time>2026-06-17T07:51:39.000Z</time>
      </trkpt>
      <trkpt lat="48.57883" lon="1.24618">
        <ele>200.80000305176</ele>
        <time>2026-06-17T07:51:47.000Z</time>
      </trkpt>
      <trkpt lat="48.57884" lon="1.24611">
        <ele>201</ele>
        <time>2026-06-17T07:51:48.000Z</time>
      </trkpt>
      <trkpt lat="48.57889" lon="1.24573">
        <ele>201.60000610352</ele>
        <time>2026-06-17T07:51:53.000Z</time>
      </trkpt>
      <trkpt lat="48.57891" lon="1.24566">
        <ele>201.60000610352</ele>
        <time>2026-06-17T07:51:54.000Z</time>
      </trkpt>
      <trkpt lat="48.57896" lon="1.24553">
        <ele>202</ele>
        <time>2026-06-17T07:51:56.000Z</time>
      </trkpt>
      <trkpt lat="48.57902" lon="1.2454">
        <ele>202.19999694824</ele>
        <time>2026-06-17T07:51:58.000Z</time>
      </trkpt>
      <trkpt lat="48.57913" lon="1.24519">
        <ele>202.39999389648</ele>
        <time>2026-06-17T07:52:01.000Z</time>
      </trkpt>
      <trkpt lat="48.57922" lon="1.24498">
        <ele>202.60000610352</ele>
        <time>2026-06-17T07:52:04.000Z</time>
      </trkpt>
      <trkpt lat="48.57941" lon="1.24443">
        <ele>203</ele>
        <time>2026-06-17T07:52:12.000Z</time>
      </trkpt>
      <trkpt lat="48.57953" lon="1.24415">
        <ele>203.19999694824</ele>
        <time>2026-06-17T07:52:18.000Z</time>
      </trkpt>
      <trkpt lat="48.57963" lon="1.24387">
        <ele>203.80000305176</ele>
        <time>2026-06-17T07:52:23.000Z</time>
      </trkpt>
      <trkpt lat="48.57968" lon="1.24378">
        <ele>204</ele>
        <time>2026-06-17T07:52:25.000Z</time>
      </trkpt>
      <trkpt lat="48.57978" lon="1.24359">
        <ele>204.39999389648</ele>
        <time>2026-06-17T07:52:29.000Z</time>
      </trkpt>
      <trkpt lat="48.57987" lon="1.24347">
        <ele>205</ele>
        <time>2026-06-17T07:52:32.000Z</time>
      </trkpt>
      <trkpt lat="48.57989" lon="1.24343">
        <ele>205</ele>
        <time>2026-06-17T07:52:33.000Z</time>
      </trkpt>
      <trkpt lat="48.58002" lon="1.24327">
        <ele>205.60000610352</ele>
        <time>2026-06-17T07:52:37.000Z</time>
      </trkpt>
      <trkpt lat="48.58008" lon="1.24319">
        <ele>205.80000305176</ele>
        <time>2026-06-17T07:52:39.000Z</time>
      </trkpt>
      <trkpt lat="48.58012" lon="1.24315">
        <ele>205.80000305176</ele>
        <time>2026-06-17T07:52:40.000Z</time>
      </trkpt>
      <trkpt lat="48.58015" lon="1.2431">
        <ele>206</ele>
        <time>2026-06-17T07:52:41.000Z</time>
      </trkpt>
      <trkpt lat="48.58024" lon="1.24296">
        <ele>206.39999389648</ele>
        <time>2026-06-17T07:52:44.000Z</time>
      </trkpt>
      <trkpt lat="48.58027" lon="1.24292">
        <ele>206.39999389648</ele>
        <time>2026-06-17T07:52:45.000Z</time>
      </trkpt>
      <trkpt lat="48.58043" lon="1.24262">
        <ele>206.80000305176</ele>
        <time>2026-06-17T07:52:51.000Z</time>
      </trkpt>
      <trkpt lat="48.5805" lon="1.2425">
        <ele>207</ele>
        <time>2026-06-17T07:52:54.000Z</time>
      </trkpt>
      <trkpt lat="48.58058" lon="1.2424">
        <ele>207.19999694824</ele>
        <time>2026-06-17T07:52:57.000Z</time>
      </trkpt>
      <trkpt lat="48.58066" lon="1.24228">
        <ele>207.39999389648</ele>
        <time>2026-06-17T07:53:02.000Z</time>
      </trkpt>
      <trkpt lat="48.58069" lon="1.24224">
        <ele>207.60000610352</ele>
        <time>2026-06-17T07:53:07.000Z</time>
      </trkpt>
      <trkpt lat="48.58071" lon="1.24222">
        <ele>207.60000610352</ele>
        <time>2026-06-17T07:53:16.000Z</time>
      </trkpt>
      <trkpt lat="48.58077" lon="1.24219">
        <ele>207.39999389648</ele>
        <time>2026-06-17T07:53:19.000Z</time>
      </trkpt>
      <trkpt lat="48.58081" lon="1.24215">
        <ele>207.39999389648</ele>
        <time>2026-06-17T07:53:21.000Z</time>
      </trkpt>
      <trkpt lat="48.58094" lon="1.24203">
        <ele>207.39999389648</ele>
        <time>2026-06-17T07:53:25.000Z</time>
      </trkpt>
      <trkpt lat="48.58118" lon="1.24167">
        <ele>207.39999389648</ele>
        <time>2026-06-17T07:53:32.000Z</time>
      </trkpt>
      <trkpt lat="48.58127" lon="1.24148">
        <ele>207.39999389648</ele>
        <time>2026-06-17T07:53:35.000Z</time>
      </trkpt>
      <trkpt lat="48.58132" lon="1.24136">
        <ele>207.60000610352</ele>
        <time>2026-06-17T07:53:37.000Z</time>
      </trkpt>
      <trkpt lat="48.58135" lon="1.24129">
        <ele>207.80000305176</ele>
        <time>2026-06-17T07:53:38.000Z</time>
      </trkpt>
      <trkpt lat="48.58145" lon="1.24111">
        <ele>207.80000305176</ele>
        <time>2026-06-17T07:53:41.000Z</time>
      </trkpt>
      <trkpt lat="48.58157" lon="1.24094">
        <ele>208</ele>
        <time>2026-06-17T07:53:44.000Z</time>
      </trkpt>
      <trkpt lat="48.58182" lon="1.2406">
        <ele>207.80000305176</ele>
        <time>2026-06-17T07:53:50.000Z</time>
      </trkpt>
      <trkpt lat="48.58218" lon="1.2403">
        <ele>207.39999389648</ele>
        <time>2026-06-17T07:53:57.000Z</time>
      </trkpt>
      <trkpt lat="48.5825" lon="1.24004">
        <ele>206.80000305176</ele>
        <time>2026-06-17T07:54:03.000Z</time>
      </trkpt>
      <trkpt lat="48.58261" lon="1.23998">
        <ele>206.60000610352</ele>
        <time>2026-06-17T07:54:05.000Z</time>
      </trkpt>
      <trkpt lat="48.58286" lon="1.23991">
        <ele>206.19999694824</ele>
        <time>2026-06-17T07:54:09.000Z</time>
      </trkpt>
      <trkpt lat="48.58319" lon="1.23983">
        <ele>205.80000305176</ele>
        <time>2026-06-17T07:54:14.000Z</time>
      </trkpt>
      <trkpt lat="48.58353" lon="1.23972">
        <ele>205</ele>
        <time>2026-06-17T07:54:19.000Z</time>
      </trkpt>
      <trkpt lat="48.58359" lon="1.23968">
        <ele>204.80000305176</ele>
        <time>2026-06-17T07:54:20.000Z</time>
      </trkpt>
      <trkpt lat="48.58372" lon="1.23964">
        <ele>204.80000305176</ele>
        <time>2026-06-17T07:54:22.000Z</time>
      </trkpt>
      <trkpt lat="48.58378" lon="1.23962">
        <ele>204.60000610352</ele>
        <time>2026-06-17T07:54:23.000Z</time>
      </trkpt>
      <trkpt lat="48.58429" lon="1.23935">
        <ele>203.80000305176</ele>
        <time>2026-06-17T07:54:31.000Z</time>
      </trkpt>
      <trkpt lat="48.58441" lon="1.2393">
        <ele>203.60000610352</ele>
        <time>2026-06-17T07:54:33.000Z</time>
      </trkpt>
      <trkpt lat="48.58477" lon="1.23912">
        <ele>203.19999694824</ele>
        <time>2026-06-17T07:54:39.000Z</time>
      </trkpt>
      <trkpt lat="48.58483" lon="1.23908">
        <ele>203.19999694824</ele>
        <time>2026-06-17T07:54:40.000Z</time>
      </trkpt>
      <trkpt lat="48.58508" lon="1.23889">
        <ele>203</ele>
        <time>2026-06-17T07:54:45.000Z</time>
      </trkpt>
      <trkpt lat="48.58548" lon="1.2386">
        <ele>202.60000610352</ele>
        <time>2026-06-17T07:54:52.000Z</time>
      </trkpt>
      <trkpt lat="48.58563" lon="1.23845">
        <ele>202.60000610352</ele>
        <time>2026-06-17T07:54:55.000Z</time>
      </trkpt>
      <trkpt lat="48.58584" lon="1.23826">
        <ele>202.60000610352</ele>
        <time>2026-06-17T07:54:59.000Z</time>
      </trkpt>
      <trkpt lat="48.5863" lon="1.23783">
        <ele>202.19999694824</ele>
        <time>2026-06-17T07:55:08.000Z</time>
      </trkpt>
      <trkpt lat="48.58635" lon="1.23778">
        <ele>202.19999694824</ele>
        <time>2026-06-17T07:55:09.000Z</time>
      </trkpt>
      <trkpt lat="48.58676" lon="1.2374">
        <ele>202</ele>
        <time>2026-06-17T07:55:17.000Z</time>
      </trkpt>
      <trkpt lat="48.58708" lon="1.23708">
        <ele>201.60000610352</ele>
        <time>2026-06-17T07:55:23.000Z</time>
      </trkpt>
      <trkpt lat="48.58713" lon="1.23702">
        <ele>201.60000610352</ele>
        <time>2026-06-17T07:55:24.000Z</time>
      </trkpt>
      <trkpt lat="48.58745" lon="1.23667">
        <ele>201.19999694824</ele>
        <time>2026-06-17T07:55:30.000Z</time>
      </trkpt>
      <trkpt lat="48.58785" lon="1.23639">
        <ele>200.39999389648</ele>
        <time>2026-06-17T07:55:37.000Z</time>
      </trkpt>
      <trkpt lat="48.58791" lon="1.23634">
        <ele>200.39999389648</ele>
        <time>2026-06-17T07:55:38.000Z</time>
      </trkpt>
      <trkpt lat="48.58826" lon="1.236">
        <ele>200.19999694824</ele>
        <time>2026-06-17T07:55:45.000Z</time>
      </trkpt>
      <trkpt lat="48.58873" lon="1.23555">
        <ele>200.19999694824</ele>
        <time>2026-06-17T07:55:54.000Z</time>
      </trkpt>
      <trkpt lat="48.5892" lon="1.23508">
        <ele>200.19999694824</ele>
        <time>2026-06-17T07:56:03.000Z</time>
      </trkpt>
      <trkpt lat="48.58926" lon="1.23503">
        <ele>200.19999694824</ele>
        <time>2026-06-17T07:56:04.000Z</time>
      </trkpt>
      <trkpt lat="48.58972" lon="1.23452">
        <ele>199.80000305176</ele>
        <time>2026-06-17T07:56:13.000Z</time>
      </trkpt>
      <trkpt lat="48.58998" lon="1.23423">
        <ele>199.39999389648</ele>
        <time>2026-06-17T07:56:18.000Z</time>
      </trkpt>
      <trkpt lat="48.59003" lon="1.23417">
        <ele>199.39999389648</ele>
        <time>2026-06-17T07:56:19.000Z</time>
      </trkpt>
      <trkpt lat="48.59049" lon="1.23366">
        <ele>198.80000305176</ele>
        <time>2026-06-17T07:56:28.000Z</time>
      </trkpt>
      <trkpt lat="48.59068" lon="1.23343">
        <ele>198.60000610352</ele>
        <time>2026-06-17T07:56:32.000Z</time>
      </trkpt>
      <trkpt lat="48.59117" lon="1.23287">
        <ele>198.39999389648</ele>
        <time>2026-06-17T07:56:41.000Z</time>
      </trkpt>
      <trkpt lat="48.59125" lon="1.23279">
        <ele>198.39999389648</ele>
        <time>2026-06-17T07:56:43.000Z</time>
      </trkpt>
      <trkpt lat="48.59174" lon="1.2323">
        <ele>198.39999389648</ele>
        <time>2026-06-17T07:56:53.000Z</time>
      </trkpt>
      <trkpt lat="48.59195" lon="1.23211">
        <ele>198.39999389648</ele>
        <time>2026-06-17T07:56:57.000Z</time>
      </trkpt>
      <trkpt lat="48.59229" lon="1.23172">
        <ele>198.39999389648</ele>
        <time>2026-06-17T07:57:04.000Z</time>
      </trkpt>
      <trkpt lat="48.5926" lon="1.23122">
        <ele>198.39999389648</ele>
        <time>2026-06-17T07:57:11.000Z</time>
      </trkpt>
      <trkpt lat="48.59287" lon="1.23076">
        <ele>198</ele>
        <time>2026-06-17T07:57:17.000Z</time>
      </trkpt>
      <trkpt lat="48.59292" lon="1.23068">
        <ele>197.80000305176</ele>
        <time>2026-06-17T07:57:18.000Z</time>
      </trkpt>
      <trkpt lat="48.59331" lon="1.23">
        <ele>196.80000305176</ele>
        <time>2026-06-17T07:57:26.000Z</time>
      </trkpt>
      <trkpt lat="48.59364" lon="1.22943">
        <ele>196</ele>
        <time>2026-06-17T07:57:32.000Z</time>
      </trkpt>
      <trkpt lat="48.5937" lon="1.22933">
        <ele>195.60000610352</ele>
        <time>2026-06-17T07:57:33.000Z</time>
      </trkpt>
      <trkpt lat="48.59394" lon="1.22891">
        <ele>194.60000610352</ele>
        <time>2026-06-17T07:57:37.000Z</time>
      </trkpt>
      <trkpt lat="48.594" lon="1.2288">
        <ele>194.19999694824</ele>
        <time>2026-06-17T07:57:38.000Z</time>
      </trkpt>
      <trkpt lat="48.59412" lon="1.22857">
        <ele>193.39999389648</ele>
        <time>2026-06-17T07:57:40.000Z</time>
      </trkpt>
      <trkpt lat="48.59434" lon="1.22816">
        <ele>192.39999389648</ele>
        <time>2026-06-17T07:57:44.000Z</time>
      </trkpt>
      <trkpt lat="48.59439" lon="1.22806">
        <ele>192.19999694824</ele>
        <time>2026-06-17T07:57:45.000Z</time>
      </trkpt>
      <trkpt lat="48.59466" lon="1.22757">
        <ele>192</ele>
        <time>2026-06-17T07:57:51.000Z</time>
      </trkpt>
      <trkpt lat="48.59492" lon="1.22706">
        <ele>192.39999389648</ele>
        <time>2026-06-17T07:57:58.000Z</time>
      </trkpt>
      <trkpt lat="48.59525" lon="1.22645">
        <ele>193.39999389648</ele>
        <time>2026-06-17T07:58:07.000Z</time>
      </trkpt>
      <trkpt lat="48.59531" lon="1.22634">
        <ele>193.39999389648</ele>
        <time>2026-06-17T07:58:08.000Z</time>
      </trkpt>
      <trkpt lat="48.59562" lon="1.22575">
        <ele>193.80000305176</ele>
        <time>2026-06-17T07:58:17.000Z</time>
      </trkpt>
      <trkpt lat="48.59596" lon="1.22511">
        <ele>194.19999694824</ele>
        <time>2026-06-17T07:58:26.000Z</time>
      </trkpt>
      <trkpt lat="48.596" lon="1.22504">
        <ele>194.19999694824</ele>
        <time>2026-06-17T07:58:27.000Z</time>
      </trkpt>
      <trkpt lat="48.59629" lon="1.22448">
        <ele>194.39999389648</ele>
        <time>2026-06-17T07:58:35.000Z</time>
      </trkpt>
      <trkpt lat="48.59664" lon="1.22384">
        <ele>194.60000610352</ele>
        <time>2026-06-17T07:58:44.000Z</time>
      </trkpt>
      <trkpt lat="48.59677" lon="1.22362">
        <ele>194.60000610352</ele>
        <time>2026-06-17T07:58:47.000Z</time>
      </trkpt>
      <trkpt lat="48.59703" lon="1.22303">
        <ele>194.39999389648</ele>
        <time>2026-06-17T07:58:54.000Z</time>
      </trkpt>
      <trkpt lat="48.59733" lon="1.22224">
        <ele>194.19999694824</ele>
        <time>2026-06-17T07:59:03.000Z</time>
      </trkpt>
      <trkpt lat="48.59736" lon="1.22216">
        <ele>194</ele>
        <time>2026-06-17T07:59:04.000Z</time>
      </trkpt>
      <trkpt lat="48.59763" lon="1.22143">
        <ele>193.80000305176</ele>
        <time>2026-06-17T07:59:12.000Z</time>
      </trkpt>
      <trkpt lat="48.5977" lon="1.22123">
        <ele>193.80000305176</ele>
        <time>2026-06-17T07:59:15.000Z</time>
      </trkpt>
      <trkpt lat="48.59796" lon="1.22052">
        <ele>194</ele>
        <time>2026-06-17T07:59:24.000Z</time>
      </trkpt>
      <trkpt lat="48.59799" lon="1.22044">
        <ele>194.19999694824</ele>
        <time>2026-06-17T07:59:25.000Z</time>
      </trkpt>
      <trkpt lat="48.59828" lon="1.21965">
        <ele>194.60000610352</ele>
        <time>2026-06-17T07:59:35.000Z</time>
      </trkpt>
      <trkpt lat="48.59831" lon="1.21958">
        <ele>194.60000610352</ele>
        <time>2026-06-17T07:59:36.000Z</time>
      </trkpt>
      <trkpt lat="48.59858" lon="1.21884">
        <ele>194.80000305176</ele>
        <time>2026-06-17T07:59:45.000Z</time>
      </trkpt>
      <trkpt lat="48.59864" lon="1.21867">
        <ele>194.80000305176</ele>
        <time>2026-06-17T07:59:47.000Z</time>
      </trkpt>
      <trkpt lat="48.59893" lon="1.2179">
        <ele>194.39999389648</ele>
        <time>2026-06-17T07:59:56.000Z</time>
      </trkpt>
      <trkpt lat="48.59925" lon="1.21716">
        <ele>194.19999694824</ele>
        <time>2026-06-17T08:00:05.000Z</time>
      </trkpt>
      <trkpt lat="48.5993" lon="1.21709">
        <ele>194.19999694824</ele>
        <time>2026-06-17T08:00:06.000Z</time>
      </trkpt>
      <trkpt lat="48.59967" lon="1.21645">
        <ele>193.80000305176</ele>
        <time>2026-06-17T08:00:14.000Z</time>
      </trkpt>
      <trkpt lat="48.59977" lon="1.21628">
        <ele>193.39999389648</ele>
        <time>2026-06-17T08:00:17.000Z</time>
      </trkpt>
      <trkpt lat="48.60016" lon="1.21562">
        <ele>193</ele>
        <time>2026-06-17T08:00:26.000Z</time>
      </trkpt>
      <trkpt lat="48.60033" lon="1.21532">
        <ele>192.80000305176</ele>
        <time>2026-06-17T08:00:30.000Z</time>
      </trkpt>
      <trkpt lat="48.60058" lon="1.21487">
        <ele>192.39999389648</ele>
        <time>2026-06-17T08:00:36.000Z</time>
      </trkpt>
      <trkpt lat="48.6008" lon="1.2145">
        <ele>192.39999389648</ele>
        <time>2026-06-17T08:00:41.000Z</time>
      </trkpt>
      <trkpt lat="48.6012" lon="1.21383">
        <ele>191.60000610352</ele>
        <time>2026-06-17T08:00:50.000Z</time>
      </trkpt>
      <trkpt lat="48.60137" lon="1.21353">
        <ele>191.39999389648</ele>
        <time>2026-06-17T08:00:54.000Z</time>
      </trkpt>
      <trkpt lat="48.60177" lon="1.21284">
        <ele>190.80000305176</ele>
        <time>2026-06-17T08:01:03.000Z</time>
      </trkpt>
      <trkpt lat="48.60182" lon="1.21276">
        <ele>190.80000305176</ele>
        <time>2026-06-17T08:01:04.000Z</time>
      </trkpt>
      <trkpt lat="48.60213" lon="1.21222">
        <ele>190.19999694824</ele>
        <time>2026-06-17T08:01:11.000Z</time>
      </trkpt>
      <trkpt lat="48.6023" lon="1.21192">
        <ele>190</ele>
        <time>2026-06-17T08:01:15.000Z</time>
      </trkpt>
      <trkpt lat="48.6027" lon="1.21124">
        <ele>189.39999389648</ele>
        <time>2026-06-17T08:01:24.000Z</time>
      </trkpt>
      <trkpt lat="48.60288" lon="1.21093">
        <ele>189.19999694824</ele>
        <time>2026-06-17T08:01:28.000Z</time>
      </trkpt>
      <trkpt lat="48.60325" lon="1.2103">
        <ele>188.80000305176</ele>
        <time>2026-06-17T08:01:36.000Z</time>
      </trkpt>
      <trkpt lat="48.60342" lon="1.20999">
        <ele>188.19999694824</ele>
        <time>2026-06-17T08:01:40.000Z</time>
      </trkpt>
      <trkpt lat="48.60347" lon="1.20991">
        <ele>188.19999694824</ele>
        <time>2026-06-17T08:01:41.000Z</time>
      </trkpt>
      <trkpt lat="48.60387" lon="1.20922">
        <ele>187.39999389648</ele>
        <time>2026-06-17T08:01:50.000Z</time>
      </trkpt>
      <trkpt lat="48.60396" lon="1.20906">
        <ele>187.39999389648</ele>
        <time>2026-06-17T08:01:52.000Z</time>
      </trkpt>
      <trkpt lat="48.60405" lon="1.20892">
        <ele>187.19999694824</ele>
        <time>2026-06-17T08:01:54.000Z</time>
      </trkpt>
      <trkpt lat="48.60441" lon="1.20828">
        <ele>186.19999694824</ele>
        <time>2026-06-17T08:02:02.000Z</time>
      </trkpt>
      <trkpt lat="48.60445" lon="1.2082">
        <ele>186.19999694824</ele>
        <time>2026-06-17T08:02:03.000Z</time>
      </trkpt>
      <trkpt lat="48.60477" lon="1.20764">
        <ele>185</ele>
        <time>2026-06-17T08:02:10.000Z</time>
      </trkpt>
      <trkpt lat="48.60482" lon="1.20755">
        <ele>185</ele>
        <time>2026-06-17T08:02:11.000Z</time>
      </trkpt>
      <trkpt lat="48.60503" lon="1.20699">
        <ele>184.60000610352</ele>
        <time>2026-06-17T08:02:17.000Z</time>
      </trkpt>
      <trkpt lat="48.60516" lon="1.20641">
        <ele>184</ele>
        <time>2026-06-17T08:02:22.000Z</time>
      </trkpt>
      <trkpt lat="48.60522" lon="1.20609">
        <ele>183.39999389648</ele>
        <time>2026-06-17T08:02:25.000Z</time>
      </trkpt>
      <trkpt lat="48.60529" lon="1.20571">
        <ele>182.80000305176</ele>
        <time>2026-06-17T08:02:28.000Z</time>
      </trkpt>
      <trkpt lat="48.60536" lon="1.20532">
        <ele>181.80000305176</ele>
        <time>2026-06-17T08:02:31.000Z</time>
      </trkpt>
      <trkpt lat="48.60545" lon="1.20483">
        <ele>180.80000305176</ele>
        <time>2026-06-17T08:02:35.000Z</time>
      </trkpt>
      <trkpt lat="48.60549" lon="1.2046">
        <ele>180.19999694824</ele>
        <time>2026-06-17T08:02:37.000Z</time>
      </trkpt>
      <trkpt lat="48.60555" lon="1.20423">
        <ele>179.39999389648</ele>
        <time>2026-06-17T08:02:40.000Z</time>
      </trkpt>
      <trkpt lat="48.60558" lon="1.20398">
        <ele>179.19999694824</ele>
        <time>2026-06-17T08:02:42.000Z</time>
      </trkpt>
      <trkpt lat="48.60571" lon="1.20323">
        <ele>178.39999389648</ele>
        <time>2026-06-17T08:02:48.000Z</time>
      </trkpt>
      <trkpt lat="48.60585" lon="1.2024">
        <ele>177.39999389648</ele>
        <time>2026-06-17T08:02:55.000Z</time>
      </trkpt>
      <trkpt lat="48.60587" lon="1.20228">
        <ele>177.19999694824</ele>
        <time>2026-06-17T08:02:56.000Z</time>
      </trkpt>
      <trkpt lat="48.60589" lon="1.20215">
        <ele>177</ele>
        <time>2026-06-17T08:02:57.000Z</time>
      </trkpt>
      <trkpt lat="48.60597" lon="1.20167">
        <ele>176.19999694824</ele>
        <time>2026-06-17T08:03:01.000Z</time>
      </trkpt>
      <trkpt lat="48.60607" lon="1.20112">
        <ele>175.19999694824</ele>
        <time>2026-06-17T08:03:05.000Z</time>
      </trkpt>
      <trkpt lat="48.60608" lon="1.20098">
        <ele>174.80000305176</ele>
        <time>2026-06-17T08:03:06.000Z</time>
      </trkpt>
      <trkpt lat="48.60612" lon="1.20074">
        <ele>174.19999694824</ele>
        <time>2026-06-17T08:03:08.000Z</time>
      </trkpt>
      <trkpt lat="48.6062" lon="1.20022">
        <ele>173</ele>
        <time>2026-06-17T08:03:12.000Z</time>
      </trkpt>
      <trkpt lat="48.60629" lon="1.19973">
        <ele>172.19999694824</ele>
        <time>2026-06-17T08:03:16.000Z</time>
      </trkpt>
      <trkpt lat="48.60631" lon="1.19961">
        <ele>172</ele>
        <time>2026-06-17T08:03:17.000Z</time>
      </trkpt>
      <trkpt lat="48.60642" lon="1.19891">
        <ele>171.60000610352</ele>
        <time>2026-06-17T08:03:23.000Z</time>
      </trkpt>
      <trkpt lat="48.60656" lon="1.19806">
        <ele>171.80000305176</ele>
        <time>2026-06-17T08:03:31.000Z</time>
      </trkpt>
      <trkpt lat="48.60658" lon="1.19796">
        <ele>171.80000305176</ele>
        <time>2026-06-17T08:03:32.000Z</time>
      </trkpt>
      <trkpt lat="48.60673" lon="1.19711">
        <ele>171.80000305176</ele>
        <time>2026-06-17T08:03:39.000Z</time>
      </trkpt>
      <trkpt lat="48.60677" lon="1.19693">
        <ele>171.80000305176</ele>
        <time>2026-06-17T08:03:41.000Z</time>
      </trkpt>
      <trkpt lat="48.60689" lon="1.19616">
        <ele>170.80000305176</ele>
        <time>2026-06-17T08:03:48.000Z</time>
      </trkpt>
      <trkpt lat="48.60695" lon="1.19581">
        <ele>169.80000305176</ele>
        <time>2026-06-17T08:03:51.000Z</time>
      </trkpt>
      <trkpt lat="48.60701" lon="1.19547">
        <ele>169</ele>
        <time>2026-06-17T08:03:54.000Z</time>
      </trkpt>
      <trkpt lat="48.60706" lon="1.19522">
        <ele>168.60000610352</ele>
        <time>2026-06-17T08:03:56.000Z</time>
      </trkpt>
      <trkpt lat="48.60716" lon="1.19466">
        <ele>168</ele>
        <time>2026-06-17T08:04:01.000Z</time>
      </trkpt>
      <trkpt lat="48.60729" lon="1.19379">
        <ele>167.80000305176</ele>
        <time>2026-06-17T08:04:09.000Z</time>
      </trkpt>
      <trkpt lat="48.6073" lon="1.19369">
        <ele>167.80000305176</ele>
        <time>2026-06-17T08:04:10.000Z</time>
      </trkpt>
      <trkpt lat="48.60745" lon="1.19281">
        <ele>168</ele>
        <time>2026-06-17T08:04:19.000Z</time>
      </trkpt>
      <trkpt lat="48.60746" lon="1.19273">
        <ele>168.19999694824</ele>
        <time>2026-06-17T08:04:20.000Z</time>
      </trkpt>
      <trkpt lat="48.60757" lon="1.19206">
        <ele>169.39999389648</ele>
        <time>2026-06-17T08:04:28.000Z</time>
      </trkpt>
      <trkpt lat="48.60761" lon="1.19181">
        <ele>169.60000610352</ele>
        <time>2026-06-17T08:04:31.000Z</time>
      </trkpt>
      <trkpt lat="48.6077" lon="1.19125">
        <ele>170.80000305176</ele>
        <time>2026-06-17T08:04:38.000Z</time>
      </trkpt>
      <trkpt lat="48.60776" lon="1.19091">
        <ele>171.19999694824</ele>
        <time>2026-06-17T08:04:42.000Z</time>
      </trkpt>
      <trkpt lat="48.60781" lon="1.19059">
        <ele>171.80000305176</ele>
        <time>2026-06-17T08:04:46.000Z</time>
      </trkpt>
      <trkpt lat="48.60793" lon="1.18993">
        <ele>172.60000610352</ele>
        <time>2026-06-17T08:04:54.000Z</time>
      </trkpt>
      <trkpt lat="48.60795" lon="1.18977">
        <ele>172.80000305176</ele>
        <time>2026-06-17T08:04:56.000Z</time>
      </trkpt>
      <trkpt lat="48.60809" lon="1.18895">
        <ele>173.19999694824</ele>
        <time>2026-06-17T08:05:06.000Z</time>
      </trkpt>
      <trkpt lat="48.60812" lon="1.18881">
        <ele>173.39999389648</ele>
        <time>2026-06-17T08:05:08.000Z</time>
      </trkpt>
      <trkpt lat="48.6082" lon="1.18835">
        <ele>173.80000305176</ele>
        <time>2026-06-17T08:05:13.000Z</time>
      </trkpt>
      <trkpt lat="48.60829" lon="1.18779">
        <ele>174.19999694824</ele>
        <time>2026-06-17T08:05:20.000Z</time>
      </trkpt>
      <trkpt lat="48.60843" lon="1.18695">
        <ele>174.60000610352</ele>
        <time>2026-06-17T08:05:30.000Z</time>
      </trkpt>
      <trkpt lat="48.60846" lon="1.18679">
        <ele>174.80000305176</ele>
        <time>2026-06-17T08:05:32.000Z</time>
      </trkpt>
      <trkpt lat="48.60848" lon="1.18661">
        <ele>175</ele>
        <time>2026-06-17T08:05:34.000Z</time>
      </trkpt>
      <trkpt lat="48.60859" lon="1.18597">
        <ele>175.80000305176</ele>
        <time>2026-06-17T08:05:42.000Z</time>
      </trkpt>
      <trkpt lat="48.60865" lon="1.18563">
        <ele>176.19999694824</ele>
        <time>2026-06-17T08:05:46.000Z</time>
      </trkpt>
      <trkpt lat="48.60879" lon="1.18481">
        <ele>176.80000305176</ele>
        <time>2026-06-17T08:05:56.000Z</time>
      </trkpt>
      <trkpt lat="48.6088" lon="1.18473">
        <ele>177</ele>
        <time>2026-06-17T08:05:57.000Z</time>
      </trkpt>
      <trkpt lat="48.60884" lon="1.18447">
        <ele>177</ele>
        <time>2026-06-17T08:05:59.000Z</time>
      </trkpt>
      <trkpt lat="48.60904" lon="1.18363">
        <ele>177.19999694824</ele>
        <time>2026-06-17T08:06:09.000Z</time>
      </trkpt>
      <trkpt lat="48.60926" lon="1.18274">
        <ele>176.80000305176</ele>
        <time>2026-06-17T08:06:19.000Z</time>
      </trkpt>
      <trkpt lat="48.60943" lon="1.18203">
        <ele>176.39999389648</ele>
        <time>2026-06-17T08:06:26.000Z</time>
      </trkpt>
      <trkpt lat="48.60954" lon="1.18163">
        <ele>176</ele>
        <time>2026-06-17T08:06:30.000Z</time>
      </trkpt>
      <trkpt lat="48.60969" lon="1.18101">
        <ele>175.19999694824</ele>
        <time>2026-06-17T08:06:36.000Z</time>
      </trkpt>
      <trkpt lat="48.60979" lon="1.18061">
        <ele>174.80000305176</ele>
        <time>2026-06-17T08:06:40.000Z</time>
      </trkpt>
      <trkpt lat="48.60997" lon="1.17989">
        <ele>173.80000305176</ele>
        <time>2026-06-17T08:06:48.000Z</time>
      </trkpt>
      <trkpt lat="48.61004" lon="1.1796">
        <ele>173.60000610352</ele>
        <time>2026-06-17T08:06:50.000Z</time>
      </trkpt>
      <trkpt lat="48.61025" lon="1.17874">
        <ele>172.80000305176</ele>
        <time>2026-06-17T08:06:59.000Z</time>
      </trkpt>
      <trkpt lat="48.61032" lon="1.17844">
        <ele>172.60000610352</ele>
        <time>2026-06-17T08:07:02.000Z</time>
      </trkpt>
      <trkpt lat="48.61051" lon="1.17767">
        <ele>171.80000305176</ele>
        <time>2026-06-17T08:07:11.000Z</time>
      </trkpt>
      <trkpt lat="48.61071" lon="1.17687">
        <ele>171.19999694824</ele>
        <time>2026-06-17T08:07:18.000Z</time>
      </trkpt>
      <trkpt lat="48.61084" lon="1.17637">
        <ele>170.60000610352</ele>
        <time>2026-06-17T08:07:23.000Z</time>
      </trkpt>
      <trkpt lat="48.61096" lon="1.17586">
        <ele>170.39999389648</ele>
        <time>2026-06-17T08:07:28.000Z</time>
      </trkpt>
      <trkpt lat="48.6111" lon="1.17525">
        <ele>169.60000610352</ele>
        <time>2026-06-17T08:07:34.000Z</time>
      </trkpt>
      <trkpt lat="48.61126" lon="1.17458">
        <ele>169</ele>
        <time>2026-06-17T08:07:41.000Z</time>
      </trkpt>
      <trkpt lat="48.61146" lon="1.17379">
        <ele>169.39999389648</ele>
        <time>2026-06-17T08:07:50.000Z</time>
      </trkpt>
      <trkpt lat="48.61165" lon="1.17301">
        <ele>170</ele>
        <time>2026-06-17T08:07:59.000Z</time>
      </trkpt>
      <trkpt lat="48.61176" lon="1.17256">
        <ele>170.19999694824</ele>
        <time>2026-06-17T08:08:04.000Z</time>
      </trkpt>
      <trkpt lat="48.61195" lon="1.17178">
        <ele>170.19999694824</ele>
        <time>2026-06-17T08:08:13.000Z</time>
      </trkpt>
      <trkpt lat="48.61201" lon="1.17152">
        <ele>170.19999694824</ele>
        <time>2026-06-17T08:08:15.000Z</time>
      </trkpt>
      <trkpt lat="48.61224" lon="1.17063">
        <ele>169.39999389648</ele>
        <time>2026-06-17T08:08:24.000Z</time>
      </trkpt>
      <trkpt lat="48.61229" lon="1.17043">
        <ele>169.19999694824</ele>
        <time>2026-06-17T08:08:26.000Z</time>
      </trkpt>
      <trkpt lat="48.61246" lon="1.16974">
        <ele>168.60000610352</ele>
        <time>2026-06-17T08:08:33.000Z</time>
      </trkpt>
      <trkpt lat="48.61256" lon="1.16932">
        <ele>168.19999694824</ele>
        <time>2026-06-17T08:08:38.000Z</time>
      </trkpt>
      <trkpt lat="48.61271" lon="1.16873">
        <ele>167.60000610352</ele>
        <time>2026-06-17T08:08:44.000Z</time>
      </trkpt>
      <trkpt lat="48.61287" lon="1.16804">
        <ele>166.80000305176</ele>
        <time>2026-06-17T08:08:50.000Z</time>
      </trkpt>
      <trkpt lat="48.61295" lon="1.16773">
        <ele>166.60000610352</ele>
        <time>2026-06-17T08:08:53.000Z</time>
      </trkpt>
      <trkpt lat="48.61313" lon="1.16698">
        <ele>165.39999389648</ele>
        <time>2026-06-17T08:09:00.000Z</time>
      </trkpt>
      <trkpt lat="48.61318" lon="1.16677">
        <ele>165</ele>
        <time>2026-06-17T08:09:02.000Z</time>
      </trkpt>
      <trkpt lat="48.61334" lon="1.16615">
        <ele>164.39999389648</ele>
        <time>2026-06-17T08:09:08.000Z</time>
      </trkpt>
      <trkpt lat="48.61349" lon="1.16554">
        <ele>163.80000305176</ele>
        <time>2026-06-17T08:09:14.000Z</time>
      </trkpt>
      <trkpt lat="48.61364" lon="1.16495">
        <ele>163.19999694824</ele>
        <time>2026-06-17T08:09:20.000Z</time>
      </trkpt>
      <trkpt lat="48.61377" lon="1.16445">
        <ele>162.80000305176</ele>
        <time>2026-06-17T08:09:25.000Z</time>
      </trkpt>
      <trkpt lat="48.61397" lon="1.16387">
        <ele>162</ele>
        <time>2026-06-17T08:09:31.000Z</time>
      </trkpt>
      <trkpt lat="48.61397" lon="1.16387">
        <ele>161.80000305176</ele>
        <time>2026-06-17T08:09:32.000Z</time>
      </trkpt>
      <trkpt lat="48.61429" lon="1.16329">
        <ele>161</ele>
        <time>2026-06-17T08:09:37.000Z</time>
      </trkpt>
      <trkpt lat="48.61463" lon="1.16285">
        <ele>159.80000305176</ele>
        <time>2026-06-17T08:09:42.000Z</time>
      </trkpt>
      <trkpt lat="48.61477" lon="1.16268">
        <ele>158.60000610352</ele>
        <time>2026-06-17T08:09:45.000Z</time>
      </trkpt>
      <trkpt lat="48.61507" lon="1.16233">
        <ele>157.60000610352</ele>
        <time>2026-06-17T08:09:48.000Z</time>
      </trkpt>
      <trkpt lat="48.61521" lon="1.16217">
        <ele>156.80000305176</ele>
        <time>2026-06-17T08:09:50.000Z</time>
      </trkpt>
      <trkpt lat="48.61535" lon="1.16201">
        <ele>156.39999389648</ele>
        <time>2026-06-17T08:09:52.000Z</time>
      </trkpt>
      <trkpt lat="48.61555" lon="1.16177">
        <ele>155.19999694824</ele>
        <time>2026-06-17T08:09:55.000Z</time>
      </trkpt>
      <trkpt lat="48.61568" lon="1.16162">
        <ele>154.80000305176</ele>
        <time>2026-06-17T08:09:57.000Z</time>
      </trkpt>
      <trkpt lat="48.61597" lon="1.16129">
        <ele>154.19999694824</ele>
        <time>2026-06-17T08:10:02.000Z</time>
      </trkpt>
      <trkpt lat="48.61602" lon="1.16122">
        <ele>154.19999694824</ele>
        <time>2026-06-17T08:10:03.000Z</time>
      </trkpt>
      <trkpt lat="48.61648" lon="1.16067">
        <ele>154.60000610352</ele>
        <time>2026-06-17T08:10:12.000Z</time>
      </trkpt>
      <trkpt lat="48.6167" lon="1.16041">
        <ele>155.39999389648</ele>
        <time>2026-06-17T08:10:17.000Z</time>
      </trkpt>
      <trkpt lat="48.61673" lon="1.16037">
        <ele>155.39999389648</ele>
        <time>2026-06-17T08:10:18.000Z</time>
      </trkpt>
      <trkpt lat="48.61693" lon="1.16014">
        <ele>156.39999389648</ele>
        <time>2026-06-17T08:10:23.000Z</time>
      </trkpt>
      <trkpt lat="48.617" lon="1.16005">
        <ele>157.19999694824</ele>
        <time>2026-06-17T08:10:25.000Z</time>
      </trkpt>
      <trkpt lat="48.61709" lon="1.15995">
        <ele>157.60000610352</ele>
        <time>2026-06-17T08:10:27.000Z</time>
      </trkpt>
      <trkpt lat="48.61729" lon="1.15972">
        <ele>158.60000610352</ele>
        <time>2026-06-17T08:10:32.000Z</time>
      </trkpt>
      <trkpt lat="48.61753" lon="1.15944">
        <ele>159.60000610352</ele>
        <time>2026-06-17T08:10:38.000Z</time>
      </trkpt>
      <trkpt lat="48.61757" lon="1.1594">
        <ele>160</ele>
        <time>2026-06-17T08:10:39.000Z</time>
      </trkpt>
      <trkpt lat="48.61776" lon="1.15917">
        <ele>161</ele>
        <time>2026-06-17T08:10:44.000Z</time>
      </trkpt>
      <trkpt lat="48.618" lon="1.15889">
        <ele>162.19999694824</ele>
        <time>2026-06-17T08:10:50.000Z</time>
      </trkpt>
      <trkpt lat="48.61823" lon="1.1586">
        <ele>163.19999694824</ele>
        <time>2026-06-17T08:10:56.000Z</time>
      </trkpt>
      <trkpt lat="48.61852" lon="1.15827">
        <ele>163.80000305176</ele>
        <time>2026-06-17T08:11:03.000Z</time>
      </trkpt>
      <trkpt lat="48.61868" lon="1.15808">
        <ele>164.19999694824</ele>
        <time>2026-06-17T08:11:07.000Z</time>
      </trkpt>
      <trkpt lat="48.61876" lon="1.15798">
        <ele>164.39999389648</ele>
        <time>2026-06-17T08:11:09.000Z</time>
      </trkpt>
      <trkpt lat="48.61895" lon="1.15775">
        <ele>164.80000305176</ele>
        <time>2026-06-17T08:11:14.000Z</time>
      </trkpt>
      <trkpt lat="48.6192" lon="1.15744">
        <ele>165.39999389648</ele>
        <time>2026-06-17T08:11:20.000Z</time>
      </trkpt>
      <trkpt lat="48.6195" lon="1.1571">
        <ele>165.80000305176</ele>
        <time>2026-06-17T08:11:27.000Z</time>
      </trkpt>
      <trkpt lat="48.61976" lon="1.15679">
        <ele>166.39999389648</ele>
        <time>2026-06-17T08:11:33.000Z</time>
      </trkpt>
      <trkpt lat="48.62006" lon="1.15644">
        <ele>166.60000610352</ele>
        <time>2026-06-17T08:11:41.000Z</time>
      </trkpt>
      <trkpt lat="48.62052" lon="1.1559">
        <ele>166.60000610352</ele>
        <time>2026-06-17T08:11:50.000Z</time>
      </trkpt>
      <trkpt lat="48.62067" lon="1.15572">
        <ele>166.39999389648</ele>
        <time>2026-06-17T08:11:53.000Z</time>
      </trkpt>
      <trkpt lat="48.62112" lon="1.15518">
        <ele>165.60000610352</ele>
        <time>2026-06-17T08:12:01.000Z</time>
      </trkpt>
      <trkpt lat="48.62124" lon="1.15504">
        <ele>165.19999694824</ele>
        <time>2026-06-17T08:12:03.000Z</time>
      </trkpt>
      <trkpt lat="48.62165" lon="1.15455">
        <ele>164</ele>
        <time>2026-06-17T08:12:09.000Z</time>
      </trkpt>
      <trkpt lat="48.62172" lon="1.15447">
        <ele>163.80000305176</ele>
        <time>2026-06-17T08:12:10.000Z</time>
      </trkpt>
      <trkpt lat="48.62199" lon="1.15415">
        <ele>162.80000305176</ele>
        <time>2026-06-17T08:12:14.000Z</time>
      </trkpt>
      <trkpt lat="48.62237" lon="1.15369">
        <ele>161.80000305176</ele>
        <time>2026-06-17T08:12:19.000Z</time>
      </trkpt>
      <trkpt lat="48.62259" lon="1.15343">
        <ele>160.60000610352</ele>
        <time>2026-06-17T08:12:22.000Z</time>
      </trkpt>
      <trkpt lat="48.62289" lon="1.15307">
        <ele>159.39999389648</ele>
        <time>2026-06-17T08:12:26.000Z</time>
      </trkpt>
      <trkpt lat="48.62296" lon="1.15299">
        <ele>158.80000305176</ele>
        <time>2026-06-17T08:12:27.000Z</time>
      </trkpt>
      <trkpt lat="48.62309" lon="1.15284">
        <ele>158.39999389648</ele>
        <time>2026-06-17T08:12:29.000Z</time>
      </trkpt>
      <trkpt lat="48.62326" lon="1.15263">
        <ele>158.19999694824</ele>
        <time>2026-06-17T08:12:32.000Z</time>
      </trkpt>
      <trkpt lat="48.62354" lon="1.15231">
        <ele>158.80000305176</ele>
        <time>2026-06-17T08:12:38.000Z</time>
      </trkpt>
      <trkpt lat="48.62366" lon="1.15216">
        <ele>159.39999389648</ele>
        <time>2026-06-17T08:12:41.000Z</time>
      </trkpt>
      <trkpt lat="48.62382" lon="1.15198">
        <ele>160.19999694824</ele>
        <time>2026-06-17T08:12:45.000Z</time>
      </trkpt>
      <trkpt lat="48.62387" lon="1.15192">
        <ele>160.39999389648</ele>
        <time>2026-06-17T08:12:46.000Z</time>
      </trkpt>
      <trkpt lat="48.62407" lon="1.15169">
        <ele>161.39999389648</ele>
        <time>2026-06-17T08:12:51.000Z</time>
      </trkpt>
      <trkpt lat="48.62427" lon="1.15147">
        <ele>162.39999389648</ele>
        <time>2026-06-17T08:12:56.000Z</time>
      </trkpt>
      <trkpt lat="48.62447" lon="1.1513">
        <ele>163.60000610352</ele>
        <time>2026-06-17T08:13:01.000Z</time>
      </trkpt>
      <trkpt lat="48.62465" lon="1.15117">
        <ele>164.39999389648</ele>
        <time>2026-06-17T08:13:05.000Z</time>
      </trkpt>
      <trkpt lat="48.62472" lon="1.15112">
        <ele>164.60000610352</ele>
        <time>2026-06-17T08:13:07.000Z</time>
      </trkpt>
      <trkpt lat="48.62499" lon="1.15096">
        <ele>165.80000305176</ele>
        <time>2026-06-17T08:13:13.000Z</time>
      </trkpt>
      <trkpt lat="48.62519" lon="1.15083">
        <ele>166.60000610352</ele>
        <time>2026-06-17T08:13:17.000Z</time>
      </trkpt>
      <trkpt lat="48.62526" lon="1.15078">
        <ele>166.80000305176</ele>
        <time>2026-06-17T08:13:19.000Z</time>
      </trkpt>
      <trkpt lat="48.6254" lon="1.15068">
        <ele>167.19999694824</ele>
        <time>2026-06-17T08:13:22.000Z</time>
      </trkpt>
      <trkpt lat="48.62553" lon="1.1506">
        <ele>167.60000610352</ele>
        <time>2026-06-17T08:13:25.000Z</time>
      </trkpt>
      <trkpt lat="48.62567" lon="1.1505">
        <ele>167.80000305176</ele>
        <time>2026-06-17T08:13:28.000Z</time>
      </trkpt>
      <trkpt lat="48.62605" lon="1.15025">
        <ele>168.39999389648</ele>
        <time>2026-06-17T08:13:36.000Z</time>
      </trkpt>
      <trkpt lat="48.62643" lon="1.14998">
        <ele>168.60000610352</ele>
        <time>2026-06-17T08:13:43.000Z</time>
      </trkpt>
      <trkpt lat="48.62682" lon="1.14972">
        <ele>168</ele>
        <time>2026-06-17T08:13:49.000Z</time>
      </trkpt>
      <trkpt lat="48.62721" lon="1.14947">
        <ele>166.80000305176</ele>
        <time>2026-06-17T08:13:55.000Z</time>
      </trkpt>
      <trkpt lat="48.62726" lon="1.14942">
        <ele>166.80000305176</ele>
        <time>2026-06-17T08:13:56.000Z</time>
      </trkpt>
      <trkpt lat="48.62742" lon="1.14932">
        <ele>166.39999389648</ele>
        <time>2026-06-17T08:13:58.000Z</time>
      </trkpt>
      <trkpt lat="48.62762" lon="1.14923">
        <ele>165.80000305176</ele>
        <time>2026-06-17T08:14:01.000Z</time>
      </trkpt>
      <trkpt lat="48.62779" lon="1.1492">
        <ele>165.80000305176</ele>
        <time>2026-06-17T08:14:03.000Z</time>
      </trkpt>
      <trkpt lat="48.62803" lon="1.1492">
        <ele>165.39999389648</ele>
        <time>2026-06-17T08:14:06.000Z</time>
      </trkpt>
      <trkpt lat="48.62827" lon="1.14917">
        <ele>164.39999389648</ele>
        <time>2026-06-17T08:14:09.000Z</time>
      </trkpt>
      <trkpt lat="48.62852" lon="1.14913">
        <ele>163.19999694824</ele>
        <time>2026-06-17T08:14:12.000Z</time>
      </trkpt>
      <trkpt lat="48.62868" lon="1.14909">
        <ele>162.80000305176</ele>
        <time>2026-06-17T08:14:14.000Z</time>
      </trkpt>
      <trkpt lat="48.62892" lon="1.14901">
        <ele>162</ele>
        <time>2026-06-17T08:14:17.000Z</time>
      </trkpt>
      <trkpt lat="48.62914" lon="1.14889">
        <ele>161</ele>
        <time>2026-06-17T08:14:20.000Z</time>
      </trkpt>
      <trkpt lat="48.62924" lon="1.14883">
        <ele>160.39999389648</ele>
        <time>2026-06-17T08:14:21.000Z</time>
      </trkpt>
      <trkpt lat="48.62948" lon="1.14867">
        <ele>159</ele>
        <time>2026-06-17T08:14:24.000Z</time>
      </trkpt>
      <trkpt lat="48.62957" lon="1.14862">
        <ele>158.80000305176</ele>
        <time>2026-06-17T08:14:25.000Z</time>
      </trkpt>
      <trkpt lat="48.62966" lon="1.14858">
        <ele>158</ele>
        <time>2026-06-17T08:14:26.000Z</time>
      </trkpt>
      <trkpt lat="48.62976" lon="1.14855">
        <ele>157.80000305176</ele>
        <time>2026-06-17T08:14:27.000Z</time>
      </trkpt>
      <trkpt lat="48.62987" lon="1.14853">
        <ele>157.39999389648</ele>
        <time>2026-06-17T08:14:28.000Z</time>
      </trkpt>
      <trkpt lat="48.63007" lon="1.14849">
        <ele>156.60000610352</ele>
        <time>2026-06-17T08:14:30.000Z</time>
      </trkpt>
      <trkpt lat="48.63027" lon="1.14846">
        <ele>155.39999389648</ele>
        <time>2026-06-17T08:14:32.000Z</time>
      </trkpt>
      <trkpt lat="48.63037" lon="1.14844">
        <ele>154.19999694824</ele>
        <time>2026-06-17T08:14:34.000Z</time>
      </trkpt>
      <trkpt lat="48.63055" lon="1.14842">
        <ele>153.60000610352</ele>
        <time>2026-06-17T08:14:35.000Z</time>
      </trkpt>
      <trkpt lat="48.63063" lon="1.14842">
        <ele>152.80000305176</ele>
        <time>2026-06-17T08:14:36.000Z</time>
      </trkpt>
      <trkpt lat="48.63096" lon="1.14839">
        <ele>151.60000610352</ele>
        <time>2026-06-17T08:14:40.000Z</time>
      </trkpt>
      <trkpt lat="48.63104" lon="1.14838">
        <ele>151.60000610352</ele>
        <time>2026-06-17T08:14:41.000Z</time>
      </trkpt>
      <trkpt lat="48.6314" lon="1.1483">
        <ele>150.80000305176</ele>
        <time>2026-06-17T08:14:46.000Z</time>
      </trkpt>
      <trkpt lat="48.6316" lon="1.14816">
        <ele>150.80000305176</ele>
        <time>2026-06-17T08:14:50.000Z</time>
      </trkpt>
      <trkpt lat="48.63178" lon="1.14796">
        <ele>151.19999694824</ele>
        <time>2026-06-17T08:14:56.000Z</time>
      </trkpt>
      <trkpt lat="48.63197" lon="1.14776">
        <ele>152.60000610352</ele>
        <time>2026-06-17T08:15:01.000Z</time>
      </trkpt>
      <trkpt lat="48.632" lon="1.14773">
        <ele>152.80000305176</ele>
        <time>2026-06-17T08:15:02.000Z</time>
      </trkpt>
      <trkpt lat="48.63212" lon="1.14764">
        <ele>153.80000305176</ele>
        <time>2026-06-17T08:15:06.000Z</time>
      </trkpt>
      <trkpt lat="48.63219" lon="1.14761">
        <ele>154.39999389648</ele>
        <time>2026-06-17T08:15:08.000Z</time>
      </trkpt>
      <trkpt lat="48.63226" lon="1.14757">
        <ele>155</ele>
        <time>2026-06-17T08:15:10.000Z</time>
      </trkpt>
      <trkpt lat="48.63243" lon="1.14747">
        <ele>156</ele>
        <time>2026-06-17T08:15:15.000Z</time>
      </trkpt>
      <trkpt lat="48.63246" lon="1.14745">
        <ele>156.39999389648</ele>
        <time>2026-06-17T08:15:16.000Z</time>
      </trkpt>
      <trkpt lat="48.63258" lon="1.14741">
        <ele>157</ele>
        <time>2026-06-17T08:15:19.000Z</time>
      </trkpt>
      <trkpt lat="48.63268" lon="1.14736">
        <ele>157.60000610352</ele>
        <time>2026-06-17T08:15:22.000Z</time>
      </trkpt>
      <trkpt lat="48.63277" lon="1.1473">
        <ele>158.39999389648</ele>
        <time>2026-06-17T08:15:25.000Z</time>
      </trkpt>
      <trkpt lat="48.63293" lon="1.1472">
        <ele>159.39999389648</ele>
        <time>2026-06-17T08:15:30.000Z</time>
      </trkpt>
      <trkpt lat="48.63297" lon="1.14719">
        <ele>159.60000610352</ele>
        <time>2026-06-17T08:15:31.000Z</time>
      </trkpt>
      <trkpt lat="48.63317" lon="1.14706">
        <ele>160.80000305176</ele>
        <time>2026-06-17T08:15:37.000Z</time>
      </trkpt>
      <trkpt lat="48.63321" lon="1.14704">
        <ele>161</ele>
        <time>2026-06-17T08:15:38.000Z</time>
      </trkpt>
      <trkpt lat="48.63345" lon="1.147">
        <ele>161.80000305176</ele>
        <time>2026-06-17T08:15:44.000Z</time>
      </trkpt>
      <trkpt lat="48.63349" lon="1.14699">
        <ele>162</ele>
        <time>2026-06-17T08:15:45.000Z</time>
      </trkpt>
      <trkpt lat="48.63373" lon="1.14689">
        <ele>162.80000305176</ele>
        <time>2026-06-17T08:15:51.000Z</time>
      </trkpt>
      <trkpt lat="48.6338" lon="1.14687">
        <ele>163</ele>
        <time>2026-06-17T08:15:53.000Z</time>
      </trkpt>
      <trkpt lat="48.63409" lon="1.14676">
        <ele>164</ele>
        <time>2026-06-17T08:16:01.000Z</time>
      </trkpt>
      <trkpt lat="48.63418" lon="1.1467">
        <ele>164.60000610352</ele>
        <time>2026-06-17T08:16:05.000Z</time>
      </trkpt>
      <trkpt lat="48.6342" lon="1.14664">
        <ele>164.80000305176</ele>
        <time>2026-06-17T08:16:07.000Z</time>
      </trkpt>
      <trkpt lat="48.63419" lon="1.14656">
        <ele>165</ele>
        <time>2026-06-17T08:16:09.000Z</time>
      </trkpt>
      <trkpt lat="48.63406" lon="1.14638">
        <ele>165.19999694824</ele>
        <time>2026-06-17T08:16:14.000Z</time>
      </trkpt>
      <trkpt lat="48.63388" lon="1.14613">
        <ele>165</ele>
        <time>2026-06-17T08:16:20.000Z</time>
      </trkpt>
      <trkpt lat="48.63377" lon="1.146">
        <ele>165</ele>
        <time>2026-06-17T08:16:23.000Z</time>
      </trkpt>
      <trkpt lat="48.63373" lon="1.14595">
        <ele>165</ele>
        <time>2026-06-17T08:16:24.000Z</time>
      </trkpt>
      <trkpt lat="48.6337" lon="1.14591">
        <ele>165</ele>
        <time>2026-06-17T08:16:25.000Z</time>
      </trkpt>
      <trkpt lat="48.63358" lon="1.14577">
        <ele>165</ele>
        <time>2026-06-17T08:16:28.000Z</time>
      </trkpt>
      <trkpt lat="48.6335" lon="1.14568">
        <ele>165</ele>
        <time>2026-06-17T08:16:30.000Z</time>
      </trkpt>
      <trkpt lat="48.63346" lon="1.14563">
        <ele>165</ele>
        <time>2026-06-17T08:16:31.000Z</time>
      </trkpt>
      <trkpt lat="48.63329" lon="1.14544">
        <ele>165.19999694824</ele>
        <time>2026-06-17T08:16:35.000Z</time>
      </trkpt>
      <trkpt lat="48.63317" lon="1.14529">
        <ele>165.39999389648</ele>
        <time>2026-06-17T08:16:38.000Z</time>
      </trkpt>
      <trkpt lat="48.63311" lon="1.14519">
        <ele>165.39999389648</ele>
        <time>2026-06-17T08:16:40.000Z</time>
      </trkpt>
      <trkpt lat="48.63287" lon="1.14488">
        <ele>165.60000610352</ele>
        <time>2026-06-17T08:16:46.000Z</time>
      </trkpt>
      <trkpt lat="48.63273" lon="1.14472">
        <ele>165.60000610352</ele>
        <time>2026-06-17T08:16:49.000Z</time>
      </trkpt>
      <trkpt lat="48.63269" lon="1.14467">
        <ele>165.60000610352</ele>
        <time>2026-06-17T08:16:51.000Z</time>
      </trkpt>
      <trkpt lat="48.63231" lon="1.14424">
        <ele>165.19999694824</ele>
        <time>2026-06-17T08:16:58.000Z</time>
      </trkpt>
      <trkpt lat="48.63195" lon="1.14383">
        <ele>164</ele>
        <time>2026-06-17T08:17:04.000Z</time>
      </trkpt>
      <trkpt lat="48.63182" lon="1.14368">
        <ele>163.80000305176</ele>
        <time>2026-06-17T08:17:06.000Z</time>
      </trkpt>
      <trkpt lat="48.63163" lon="1.14342">
        <ele>162.80000305176</ele>
        <time>2026-06-17T08:17:09.000Z</time>
      </trkpt>
      <trkpt lat="48.63157" lon="1.14333">
        <ele>162.60000610352</ele>
        <time>2026-06-17T08:17:10.000Z</time>
      </trkpt>
      <trkpt lat="48.63145" lon="1.14314">
        <ele>162</ele>
        <time>2026-06-17T08:17:12.000Z</time>
      </trkpt>
      <trkpt lat="48.63136" lon="1.14292">
        <ele>161.39999389648</ele>
        <time>2026-06-17T08:17:14.000Z</time>
      </trkpt>
      <trkpt lat="48.63133" lon="1.1428">
        <ele>161</ele>
        <time>2026-06-17T08:17:15.000Z</time>
      </trkpt>
      <trkpt lat="48.63125" lon="1.14244">
        <ele>160.19999694824</ele>
        <time>2026-06-17T08:17:18.000Z</time>
      </trkpt>
      <trkpt lat="48.63114" lon="1.142">
        <ele>159.80000305176</ele>
        <time>2026-06-17T08:17:22.000Z</time>
      </trkpt>
      <trkpt lat="48.631" lon="1.1414">
        <ele>159.39999389648</ele>
        <time>2026-06-17T08:17:28.000Z</time>
      </trkpt>
      <trkpt lat="48.63087" lon="1.14077">
        <ele>159.60000610352</ele>
        <time>2026-06-17T08:17:35.000Z</time>
      </trkpt>
      <trkpt lat="48.63078" lon="1.14017">
        <ele>159.80000305176</ele>
        <time>2026-06-17T08:17:42.000Z</time>
      </trkpt>
      <trkpt lat="48.63077" lon="1.13948">
        <ele>160</ele>
        <time>2026-06-17T08:17:49.000Z</time>
      </trkpt>
      <trkpt lat="48.63076" lon="1.1389">
        <ele>160.60000610352</ele>
        <time>2026-06-17T08:17:56.000Z</time>
      </trkpt>
      <trkpt lat="48.63077" lon="1.13852">
        <ele>161.39999389648</ele>
        <time>2026-06-17T08:18:01.000Z</time>
      </trkpt>
      <trkpt lat="48.63079" lon="1.13785">
        <ele>162</ele>
        <time>2026-06-17T08:18:09.000Z</time>
      </trkpt>
      <trkpt lat="48.63079" lon="1.13752">
        <ele>162.39999389648</ele>
        <time>2026-06-17T08:18:13.000Z</time>
      </trkpt>
      <trkpt lat="48.6308" lon="1.13719">
        <ele>162.60000610352</ele>
        <time>2026-06-17T08:18:17.000Z</time>
      </trkpt>
      <trkpt lat="48.6308" lon="1.13711">
        <ele>162.60000610352</ele>
        <time>2026-06-17T08:18:18.000Z</time>
      </trkpt>
      <trkpt lat="48.63079" lon="1.1366">
        <ele>162.60000610352</ele>
        <time>2026-06-17T08:18:24.000Z</time>
      </trkpt>
      <trkpt lat="48.63079" lon="1.13633">
        <ele>162.60000610352</ele>
        <time>2026-06-17T08:18:27.000Z</time>
      </trkpt>
      <trkpt lat="48.63079" lon="1.13565">
        <ele>162</ele>
        <time>2026-06-17T08:18:34.000Z</time>
      </trkpt>
      <trkpt lat="48.63078" lon="1.13521">
        <ele>161.39999389648</ele>
        <time>2026-06-17T08:18:38.000Z</time>
      </trkpt>
      <trkpt lat="48.63077" lon="1.13486">
        <ele>161</ele>
        <time>2026-06-17T08:18:41.000Z</time>
      </trkpt>
      <trkpt lat="48.63077" lon="1.13449">
        <ele>160.39999389648</ele>
        <time>2026-06-17T08:18:44.000Z</time>
      </trkpt>
      <trkpt lat="48.63076" lon="1.13397">
        <ele>159.19999694824</ele>
        <time>2026-06-17T08:18:48.000Z</time>
      </trkpt>
      <trkpt lat="48.63076" lon="1.13345">
        <ele>158</ele>
        <time>2026-06-17T08:18:52.000Z</time>
      </trkpt>
      <trkpt lat="48.63075" lon="1.13307">
        <ele>157</ele>
        <time>2026-06-17T08:18:55.000Z</time>
      </trkpt>
      <trkpt lat="48.63074" lon="1.13283">
        <ele>156.60000610352</ele>
        <time>2026-06-17T08:18:57.000Z</time>
      </trkpt>
      <trkpt lat="48.63072" lon="1.13209">
        <ele>156.39999389648</ele>
        <time>2026-06-17T08:19:04.000Z</time>
      </trkpt>
      <trkpt lat="48.6307" lon="1.13121">
        <ele>156.80000305176</ele>
        <time>2026-06-17T08:19:13.000Z</time>
      </trkpt>
      <trkpt lat="48.63069" lon="1.13097">
        <ele>157</ele>
        <time>2026-06-17T08:19:15.000Z</time>
      </trkpt>
      <trkpt lat="48.63067" lon="1.13027">
        <ele>158.19999694824</ele>
        <time>2026-06-17T08:19:23.000Z</time>
      </trkpt>
      <trkpt lat="48.63066" lon="1.12972">
        <ele>159.39999389648</ele>
        <time>2026-06-17T08:19:30.000Z</time>
      </trkpt>
      <trkpt lat="48.63065" lon="1.12964">
        <ele>159.39999389648</ele>
        <time>2026-06-17T08:19:31.000Z</time>
      </trkpt>
      <trkpt lat="48.63063" lon="1.12896">
        <ele>160</ele>
        <time>2026-06-17T08:19:39.000Z</time>
      </trkpt>
      <trkpt lat="48.63061" lon="1.12888">
        <ele>160</ele>
        <time>2026-06-17T08:19:40.000Z</time>
      </trkpt>
      <trkpt lat="48.63053" lon="1.12864">
        <ele>160</ele>
        <time>2026-06-17T08:19:43.000Z</time>
      </trkpt>
      <trkpt lat="48.63046" lon="1.1285">
        <ele>160</ele>
        <time>2026-06-17T08:19:45.000Z</time>
      </trkpt>
      <trkpt lat="48.63032" lon="1.12824">
        <ele>159.80000305176</ele>
        <time>2026-06-17T08:19:49.000Z</time>
      </trkpt>
      <trkpt lat="48.63027" lon="1.12817">
        <ele>159.80000305176</ele>
        <time>2026-06-17T08:19:50.000Z</time>
      </trkpt>
      <trkpt lat="48.63014" lon="1.12793">
        <ele>159.19999694824</ele>
        <time>2026-06-17T08:19:54.000Z</time>
      </trkpt>
      <trkpt lat="48.63012" lon="1.1279">
        <ele>159.19999694824</ele>
        <time>2026-06-17T08:19:55.000Z</time>
      </trkpt>
      <trkpt lat="48.63004" lon="1.12776">
        <ele>158.80000305176</ele>
        <time>2026-06-17T08:20:00.000Z</time>
      </trkpt>
      <trkpt lat="48.62994" lon="1.1275">
        <ele>158.80000305176</ele>
        <time>2026-06-17T08:20:05.000Z</time>
      </trkpt>
      <trkpt lat="48.62988" lon="1.12715">
        <ele>158.60000610352</ele>
        <time>2026-06-17T08:20:10.000Z</time>
      </trkpt>
      <trkpt lat="48.62984" lon="1.1266">
        <ele>158.60000610352</ele>
        <time>2026-06-17T08:20:18.000Z</time>
      </trkpt>
      <trkpt lat="48.62981" lon="1.12598">
        <ele>159.60000610352</ele>
        <time>2026-06-17T08:20:27.000Z</time>
      </trkpt>
      <trkpt lat="48.6298" lon="1.12574">
        <ele>159.60000610352</ele>
        <time>2026-06-17T08:20:30.000Z</time>
      </trkpt>
      <trkpt lat="48.6298" lon="1.12549">
        <ele>159.60000610352</ele>
        <time>2026-06-17T08:20:33.000Z</time>
      </trkpt>
      <trkpt lat="48.62981" lon="1.12491">
        <ele>159.60000610352</ele>
        <time>2026-06-17T08:20:40.000Z</time>
      </trkpt>
      <trkpt lat="48.62981" lon="1.12429">
        <ele>159.60000610352</ele>
        <time>2026-06-17T08:20:47.000Z</time>
      </trkpt>
      <trkpt lat="48.6298" lon="1.12365">
        <ele>160.39999389648</ele>
        <time>2026-06-17T08:20:55.000Z</time>
      </trkpt>
      <trkpt lat="48.62979" lon="1.12344">
        <ele>160.60000610352</ele>
        <time>2026-06-17T08:20:58.000Z</time>
      </trkpt>
      <trkpt lat="48.62976" lon="1.12332">
        <ele>160.80000305176</ele>
        <time>2026-06-17T08:21:00.000Z</time>
      </trkpt>
      <trkpt lat="48.62964" lon="1.1232">
        <ele>161</ele>
        <time>2026-06-17T08:21:03.000Z</time>
      </trkpt>
      <trkpt lat="48.62934" lon="1.123">
        <ele>161</ele>
        <time>2026-06-17T08:21:08.000Z</time>
      </trkpt>
      <trkpt lat="48.62887" lon="1.12275">
        <ele>160</ele>
        <time>2026-06-17T08:21:14.000Z</time>
      </trkpt>
      <trkpt lat="48.62867" lon="1.12265">
        <ele>159.60000610352</ele>
        <time>2026-06-17T08:21:17.000Z</time>
      </trkpt>
      <trkpt lat="48.6286" lon="1.12261">
        <ele>159.39999389648</ele>
        <time>2026-06-17T08:21:18.000Z</time>
      </trkpt>
      <trkpt lat="48.62854" lon="1.12257">
        <ele>159.19999694824</ele>
        <time>2026-06-17T08:21:19.000Z</time>
      </trkpt>
      <trkpt lat="48.62822" lon="1.12235">
        <ele>158.60000610352</ele>
        <time>2026-06-17T08:21:24.000Z</time>
      </trkpt>
      <trkpt lat="48.62808" lon="1.12226">
        <ele>158.19999694824</ele>
        <time>2026-06-17T08:21:26.000Z</time>
      </trkpt>
      <trkpt lat="48.62771" lon="1.12198">
        <ele>157.80000305176</ele>
        <time>2026-06-17T08:21:32.000Z</time>
      </trkpt>
      <trkpt lat="48.62766" lon="1.12192">
        <ele>157.80000305176</ele>
        <time>2026-06-17T08:21:33.000Z</time>
      </trkpt>
      <trkpt lat="48.62755" lon="1.12169">
        <ele>158</ele>
        <time>2026-06-17T08:21:36.000Z</time>
      </trkpt>
      <trkpt lat="48.62752" lon="1.12162">
        <ele>158</ele>
        <time>2026-06-17T08:21:37.000Z</time>
      </trkpt>
      <trkpt lat="48.62746" lon="1.12141">
        <ele>158.19999694824</ele>
        <time>2026-06-17T08:21:40.000Z</time>
      </trkpt>
      <trkpt lat="48.62742" lon="1.12114">
        <ele>158.80000305176</ele>
        <time>2026-06-17T08:21:43.000Z</time>
      </trkpt>
      <trkpt lat="48.6274" lon="1.12057">
        <ele>159.19999694824</ele>
        <time>2026-06-17T08:21:50.000Z</time>
      </trkpt>
      <trkpt lat="48.62739" lon="1.12049">
        <ele>159.39999389648</ele>
        <time>2026-06-17T08:21:51.000Z</time>
      </trkpt>
      <trkpt lat="48.62735" lon="1.11985">
        <ele>160.39999389648</ele>
        <time>2026-06-17T08:21:59.000Z</time>
      </trkpt>
      <trkpt lat="48.6273" lon="1.11946">
        <ele>160.80000305176</ele>
        <time>2026-06-17T08:22:04.000Z</time>
      </trkpt>
      <trkpt lat="48.62726" lon="1.11933">
        <ele>161</ele>
        <time>2026-06-17T08:22:06.000Z</time>
      </trkpt>
      <trkpt lat="48.62724" lon="1.11926">
        <ele>161</ele>
        <time>2026-06-17T08:22:07.000Z</time>
      </trkpt>
      <trkpt lat="48.62714" lon="1.11897">
        <ele>161.39999389648</ele>
        <time>2026-06-17T08:22:11.000Z</time>
      </trkpt>
      <trkpt lat="48.62711" lon="1.1189">
        <ele>161.39999389648</ele>
        <time>2026-06-17T08:22:12.000Z</time>
      </trkpt>
      <trkpt lat="48.62689" lon="1.11844">
        <ele>161.80000305176</ele>
        <time>2026-06-17T08:22:19.000Z</time>
      </trkpt>
      <trkpt lat="48.62681" lon="1.11832">
        <ele>161.80000305176</ele>
        <time>2026-06-17T08:22:21.000Z</time>
      </trkpt>
      <trkpt lat="48.62669" lon="1.11813">
        <ele>162</ele>
        <time>2026-06-17T08:22:24.000Z</time>
      </trkpt>
      <trkpt lat="48.62665" lon="1.11807">
        <ele>162</ele>
        <time>2026-06-17T08:22:25.000Z</time>
      </trkpt>
      <trkpt lat="48.62641" lon="1.11779">
        <ele>162</ele>
        <time>2026-06-17T08:22:30.000Z</time>
      </trkpt>
      <trkpt lat="48.62631" lon="1.1177">
        <ele>162</ele>
        <time>2026-06-17T08:22:32.000Z</time>
      </trkpt>
      <trkpt lat="48.6259" lon="1.1175">
        <ele>161.80000305176</ele>
        <time>2026-06-17T08:22:39.000Z</time>
      </trkpt>
      <trkpt lat="48.62542" lon="1.11724">
        <ele>162.19999694824</ele>
        <time>2026-06-17T08:22:48.000Z</time>
      </trkpt>
      <trkpt lat="48.62532" lon="1.11719">
        <ele>162.19999694824</ele>
        <time>2026-06-17T08:22:50.000Z</time>
      </trkpt>
      <trkpt lat="48.62495" lon="1.11699">
        <ele>163</ele>
        <time>2026-06-17T08:22:57.000Z</time>
      </trkpt>
      <trkpt lat="48.62486" lon="1.11694">
        <ele>163.19999694824</ele>
        <time>2026-06-17T08:22:59.000Z</time>
      </trkpt>
      <trkpt lat="48.62462" lon="1.11679">
        <ele>164</ele>
        <time>2026-06-17T08:23:04.000Z</time>
      </trkpt>
      <trkpt lat="48.62457" lon="1.11676">
        <ele>164.39999389648</ele>
        <time>2026-06-17T08:23:05.000Z</time>
      </trkpt>
      <trkpt lat="48.62435" lon="1.11663">
        <ele>164.80000305176</ele>
        <time>2026-06-17T08:23:11.000Z</time>
      </trkpt>
      <trkpt lat="48.62429" lon="1.11658">
        <ele>164.80000305176</ele>
        <time>2026-06-17T08:23:12.000Z</time>
      </trkpt>
      <trkpt lat="48.62421" lon="1.11651">
        <ele>165.39999389648</ele>
        <time>2026-06-17T08:23:14.000Z</time>
      </trkpt>
      <trkpt lat="48.62399" lon="1.11633">
        <ele>166</ele>
        <time>2026-06-17T08:23:19.000Z</time>
      </trkpt>
      <trkpt lat="48.62391" lon="1.11627">
        <ele>166.39999389648</ele>
        <time>2026-06-17T08:23:21.000Z</time>
      </trkpt>
      <trkpt lat="48.62387" lon="1.11623">
        <ele>166.39999389648</ele>
        <time>2026-06-17T08:23:22.000Z</time>
      </trkpt>
      <trkpt lat="48.62367" lon="1.11607">
        <ele>167</ele>
        <time>2026-06-17T08:23:27.000Z</time>
      </trkpt>
      <trkpt lat="48.62345" lon="1.11588">
        <ele>167.39999389648</ele>
        <time>2026-06-17T08:23:32.000Z</time>
      </trkpt>
      <trkpt lat="48.62336" lon="1.11582">
        <ele>167.39999389648</ele>
        <time>2026-06-17T08:23:34.000Z</time>
      </trkpt>
      <trkpt lat="48.62304" lon="1.11556">
        <ele>168</ele>
        <time>2026-06-17T08:23:41.000Z</time>
      </trkpt>
      <trkpt lat="48.62281" lon="1.11538">
        <ele>168.39999389648</ele>
        <time>2026-06-17T08:23:46.000Z</time>
      </trkpt>
      <trkpt lat="48.62271" lon="1.11531">
        <ele>168.39999389648</ele>
        <time>2026-06-17T08:23:48.000Z</time>
      </trkpt>
      <trkpt lat="48.62226" lon="1.11503">
        <ele>169.19999694824</ele>
        <time>2026-06-17T08:23:57.000Z</time>
      </trkpt>
      <trkpt lat="48.62217" lon="1.11499">
        <ele>169.39999389648</ele>
        <time>2026-06-17T08:23:59.000Z</time>
      </trkpt>
      <trkpt lat="48.62186" lon="1.11489">
        <ele>169.60000610352</ele>
        <time>2026-06-17T08:24:05.000Z</time>
      </trkpt>
      <trkpt lat="48.62157" lon="1.1148">
        <ele>170.39999389648</ele>
        <time>2026-06-17T08:24:11.000Z</time>
      </trkpt>
      <trkpt lat="48.62147" lon="1.11476">
        <ele>170.60000610352</ele>
        <time>2026-06-17T08:24:13.000Z</time>
      </trkpt>
      <trkpt lat="48.62123" lon="1.11465">
        <ele>171.19999694824</ele>
        <time>2026-06-17T08:24:18.000Z</time>
      </trkpt>
      <trkpt lat="48.62117" lon="1.11463">
        <ele>171.39999389648</ele>
        <time>2026-06-17T08:24:19.000Z</time>
      </trkpt>
      <trkpt lat="48.62112" lon="1.1146">
        <ele>171.39999389648</ele>
        <time>2026-06-17T08:24:20.000Z</time>
      </trkpt>
      <trkpt lat="48.62107" lon="1.11457">
        <ele>171.60000610352</ele>
        <time>2026-06-17T08:24:21.000Z</time>
      </trkpt>
      <trkpt lat="48.62086" lon="1.11444">
        <ele>172</ele>
        <time>2026-06-17T08:24:25.000Z</time>
      </trkpt>
      <trkpt lat="48.62082" lon="1.11441">
        <ele>172</ele>
        <time>2026-06-17T08:24:26.000Z</time>
      </trkpt>
      <trkpt lat="48.62062" lon="1.11426">
        <ele>172.19999694824</ele>
        <time>2026-06-17T08:24:30.000Z</time>
      </trkpt>
      <trkpt lat="48.62052" lon="1.11417">
        <ele>172.19999694824</ele>
        <time>2026-06-17T08:24:32.000Z</time>
      </trkpt>
      <trkpt lat="48.62048" lon="1.11414">
        <ele>172.19999694824</ele>
        <time>2026-06-17T08:24:33.000Z</time>
      </trkpt>
      <trkpt lat="48.62029" lon="1.11402">
        <ele>172.39999389648</ele>
        <time>2026-06-17T08:24:37.000Z</time>
      </trkpt>
      <trkpt lat="48.62019" lon="1.11393">
        <ele>172.39999389648</ele>
        <time>2026-06-17T08:24:39.000Z</time>
      </trkpt>
      <trkpt lat="48.62" lon="1.11373">
        <ele>172.60000610352</ele>
        <time>2026-06-17T08:24:44.000Z</time>
      </trkpt>
      <trkpt lat="48.61995" lon="1.11369">
        <ele>172.60000610352</ele>
        <time>2026-06-17T08:24:45.000Z</time>
      </trkpt>
      <trkpt lat="48.61992" lon="1.11366">
        <ele>172.60000610352</ele>
        <time>2026-06-17T08:24:46.000Z</time>
      </trkpt>
      <trkpt lat="48.61984" lon="1.11361">
        <ele>172.80000305176</ele>
        <time>2026-06-17T08:24:48.000Z</time>
      </trkpt>
      <trkpt lat="48.6198" lon="1.11358">
        <ele>173</ele>
        <time>2026-06-17T08:24:49.000Z</time>
      </trkpt>
      <trkpt lat="48.61966" lon="1.11347">
        <ele>173.39999389648</ele>
        <time>2026-06-17T08:24:53.000Z</time>
      </trkpt>
      <trkpt lat="48.61953" lon="1.11333">
        <ele>174.19999694824</ele>
        <time>2026-06-17T08:24:57.000Z</time>
      </trkpt>
      <trkpt lat="48.61944" lon="1.11325">
        <ele>174.60000610352</ele>
        <time>2026-06-17T08:24:59.000Z</time>
      </trkpt>
      <trkpt lat="48.61934" lon="1.11315">
        <ele>174.80000305176</ele>
        <time>2026-06-17T08:25:01.000Z</time>
      </trkpt>
      <trkpt lat="48.61906" lon="1.11285">
        <ele>175.19999694824</ele>
        <time>2026-06-17T08:25:07.000Z</time>
      </trkpt>
      <trkpt lat="48.61897" lon="1.11273">
        <ele>175.60000610352</ele>
        <time>2026-06-17T08:25:10.000Z</time>
      </trkpt>
      <trkpt lat="48.61891" lon="1.11263">
        <ele>175.80000305176</ele>
        <time>2026-06-17T08:25:12.000Z</time>
      </trkpt>
      <trkpt lat="48.61865" lon="1.11236">
        <ele>176.39999389648</ele>
        <time>2026-06-17T08:25:18.000Z</time>
      </trkpt>
      <trkpt lat="48.61854" lon="1.11225">
        <ele>176.80000305176</ele>
        <time>2026-06-17T08:25:20.000Z</time>
      </trkpt>
      <trkpt lat="48.61845" lon="1.11217">
        <ele>177</ele>
        <time>2026-06-17T08:25:22.000Z</time>
      </trkpt>
      <trkpt lat="48.61824" lon="1.11196">
        <ele>177.39999389648</ele>
        <time>2026-06-17T08:25:26.000Z</time>
      </trkpt>
      <trkpt lat="48.61805" lon="1.11182">
        <ele>177.60000610352</ele>
        <time>2026-06-17T08:25:29.000Z</time>
      </trkpt>
      <trkpt lat="48.61801" lon="1.11177">
        <ele>177.80000305176</ele>
        <time>2026-06-17T08:25:30.000Z</time>
      </trkpt>
      <trkpt lat="48.61793" lon="1.11165">
        <ele>177.60000610352</ele>
        <time>2026-06-17T08:25:32.000Z</time>
      </trkpt>
      <trkpt lat="48.61783" lon="1.11157">
        <ele>177.80000305176</ele>
        <time>2026-06-17T08:25:34.000Z</time>
      </trkpt>
      <trkpt lat="48.61779" lon="1.11152">
        <ele>177.80000305176</ele>
        <time>2026-06-17T08:25:35.000Z</time>
      </trkpt>
      <trkpt lat="48.6175" lon="1.1112">
        <ele>178.19999694824</ele>
        <time>2026-06-17T08:25:42.000Z</time>
      </trkpt>
      <trkpt lat="48.61745" lon="1.11116">
        <ele>178.19999694824</ele>
        <time>2026-06-17T08:25:43.000Z</time>
      </trkpt>
      <trkpt lat="48.61731" lon="1.11096">
        <ele>178.39999389648</ele>
        <time>2026-06-17T08:25:47.000Z</time>
      </trkpt>
      <trkpt lat="48.61711" lon="1.11072">
        <ele>178.80000305176</ele>
        <time>2026-06-17T08:25:52.000Z</time>
      </trkpt>
      <trkpt lat="48.61704" lon="1.11062">
        <ele>179</ele>
        <time>2026-06-17T08:25:54.000Z</time>
      </trkpt>
      <trkpt lat="48.61694" lon="1.11049">
        <ele>179.19999694824</ele>
        <time>2026-06-17T08:25:57.000Z</time>
      </trkpt>
      <trkpt lat="48.61684" lon="1.11041">
        <ele>179.19999694824</ele>
        <time>2026-06-17T08:25:59.000Z</time>
      </trkpt>
      <trkpt lat="48.6168" lon="1.11037">
        <ele>179.39999389648</ele>
        <time>2026-06-17T08:26:00.000Z</time>
      </trkpt>
      <trkpt lat="48.61667" lon="1.11024">
        <ele>179.80000305176</ele>
        <time>2026-06-17T08:26:03.000Z</time>
      </trkpt>
      <trkpt lat="48.61663" lon="1.11019">
        <ele>179.80000305176</ele>
        <time>2026-06-17T08:26:04.000Z</time>
      </trkpt>
      <trkpt lat="48.61658" lon="1.11014">
        <ele>179.80000305176</ele>
        <time>2026-06-17T08:26:05.000Z</time>
      </trkpt>
      <trkpt lat="48.61636" lon="1.10993">
        <ele>180.19999694824</ele>
        <time>2026-06-17T08:26:10.000Z</time>
      </trkpt>
      <trkpt lat="48.61623" lon="1.10981">
        <ele>180.19999694824</ele>
        <time>2026-06-17T08:26:13.000Z</time>
      </trkpt>
      <trkpt lat="48.61618" lon="1.10977">
        <ele>180.39999389648</ele>
        <time>2026-06-17T08:26:14.000Z</time>
      </trkpt>
      <trkpt lat="48.61595" lon="1.10964">
        <ele>180.39999389648</ele>
        <time>2026-06-17T08:26:18.000Z</time>
      </trkpt>
      <trkpt lat="48.61563" lon="1.10933">
        <ele>180.80000305176</ele>
        <time>2026-06-17T08:26:25.000Z</time>
      </trkpt>
      <trkpt lat="48.6154" lon="1.10913">
        <ele>181.19999694824</ele>
        <time>2026-06-17T08:26:30.000Z</time>
      </trkpt>
      <trkpt lat="48.61531" lon="1.10904">
        <ele>181.19999694824</ele>
        <time>2026-06-17T08:26:32.000Z</time>
      </trkpt>
      <trkpt lat="48.61484" lon="1.10864">
        <ele>181.60000610352</ele>
        <time>2026-06-17T08:26:41.000Z</time>
      </trkpt>
      <trkpt lat="48.61456" lon="1.10837">
        <ele>182</ele>
        <time>2026-06-17T08:26:47.000Z</time>
      </trkpt>
      <trkpt lat="48.61447" lon="1.10827">
        <ele>182</ele>
        <time>2026-06-17T08:26:49.000Z</time>
      </trkpt>
      <trkpt lat="48.61399" lon="1.10778">
        <ele>182.60000610352</ele>
        <time>2026-06-17T08:26:59.000Z</time>
      </trkpt>
      <trkpt lat="48.61394" lon="1.10773">
        <ele>182.80000305176</ele>
        <time>2026-06-17T08:27:00.000Z</time>
      </trkpt>
      <trkpt lat="48.61375" lon="1.10754">
        <ele>183</ele>
        <time>2026-06-17T08:27:04.000Z</time>
      </trkpt>
      <trkpt lat="48.6135" lon="1.10729">
        <ele>183.39999389648</ele>
        <time>2026-06-17T08:27:09.000Z</time>
      </trkpt>
      <trkpt lat="48.61301" lon="1.10681">
        <ele>183.80000305176</ele>
        <time>2026-06-17T08:27:19.000Z</time>
      </trkpt>
      <trkpt lat="48.61261" lon="1.10644">
        <ele>183.60000610352</ele>
        <time>2026-06-17T08:27:27.000Z</time>
      </trkpt>
      <trkpt lat="48.61231" lon="1.10619">
        <ele>183.80000305176</ele>
        <time>2026-06-17T08:27:33.000Z</time>
      </trkpt>
      <trkpt lat="48.61217" lon="1.10605">
        <ele>184</ele>
        <time>2026-06-17T08:27:36.000Z</time>
      </trkpt>
      <trkpt lat="48.6119" lon="1.10583">
        <ele>184.60000610352</ele>
        <time>2026-06-17T08:27:41.000Z</time>
      </trkpt>
      <trkpt lat="48.61162" lon="1.10559">
        <ele>184.39999389648</ele>
        <time>2026-06-17T08:27:47.000Z</time>
      </trkpt>
      <trkpt lat="48.61157" lon="1.10555">
        <ele>184.39999389648</ele>
        <time>2026-06-17T08:27:48.000Z</time>
      </trkpt>
      <trkpt lat="48.61122" lon="1.1054">
        <ele>184.60000610352</ele>
        <time>2026-06-17T08:27:54.000Z</time>
      </trkpt>
      <trkpt lat="48.61081" lon="1.10539">
        <ele>184</ele>
        <time>2026-06-17T08:28:01.000Z</time>
      </trkpt>
      <trkpt lat="48.61023" lon="1.10545">
        <ele>183.19999694824</ele>
        <time>2026-06-17T08:28:10.000Z</time>
      </trkpt>
      <trkpt lat="48.61016" lon="1.10545">
        <ele>183.19999694824</ele>
        <time>2026-06-17T08:28:11.000Z</time>
      </trkpt>
      <trkpt lat="48.60964" lon="1.10542">
        <ele>182.80000305176</ele>
        <time>2026-06-17T08:28:19.000Z</time>
      </trkpt>
      <trkpt lat="48.60957" lon="1.10542">
        <ele>182.60000610352</ele>
        <time>2026-06-17T08:28:20.000Z</time>
      </trkpt>
      <trkpt lat="48.60898" lon="1.10539">
        <ele>182.60000610352</ele>
        <time>2026-06-17T08:28:29.000Z</time>
      </trkpt>
      <trkpt lat="48.60892" lon="1.10539">
        <ele>182.39999389648</ele>
        <time>2026-06-17T08:28:30.000Z</time>
      </trkpt>
      <trkpt lat="48.60879" lon="1.1054">
        <ele>182.39999389648</ele>
        <time>2026-06-17T08:28:32.000Z</time>
      </trkpt>
      <trkpt lat="48.60826" lon="1.10542">
        <ele>182</ele>
        <time>2026-06-17T08:28:40.000Z</time>
      </trkpt>
      <trkpt lat="48.60801" lon="1.10544">
        <ele>181.80000305176</ele>
        <time>2026-06-17T08:28:44.000Z</time>
      </trkpt>
      <trkpt lat="48.60769" lon="1.10547">
        <ele>182</ele>
        <time>2026-06-17T08:28:49.000Z</time>
      </trkpt>
      <trkpt lat="48.60763" lon="1.10547">
        <ele>182</ele>
        <time>2026-06-17T08:28:50.000Z</time>
      </trkpt>
      <trkpt lat="48.60743" lon="1.1055">
        <ele>182</ele>
        <time>2026-06-17T08:28:53.000Z</time>
      </trkpt>
      <trkpt lat="48.60711" lon="1.10556">
        <ele>182.19999694824</ele>
        <time>2026-06-17T08:28:58.000Z</time>
      </trkpt>
      <trkpt lat="48.60704" lon="1.10557">
        <ele>182.39999389648</ele>
        <time>2026-06-17T08:28:59.000Z</time>
      </trkpt>
      <trkpt lat="48.60683" lon="1.10562">
        <ele>182.80000305176</ele>
        <time>2026-06-17T08:29:03.000Z</time>
      </trkpt>
      <trkpt lat="48.60664" lon="1.10565">
        <ele>183</ele>
        <time>2026-06-17T08:29:06.000Z</time>
      </trkpt>
      <trkpt lat="48.60644" lon="1.1057">
        <ele>183.39999389648</ele>
        <time>2026-06-17T08:29:09.000Z</time>
      </trkpt>
      <trkpt lat="48.60616" lon="1.10578">
        <ele>183.60000610352</ele>
        <time>2026-06-17T08:29:13.000Z</time>
      </trkpt>
      <trkpt lat="48.60572" lon="1.1059">
        <ele>183.80000305176</ele>
        <time>2026-06-17T08:29:20.000Z</time>
      </trkpt>
      <trkpt lat="48.60524" lon="1.10604">
        <ele>183.60000610352</ele>
        <time>2026-06-17T08:29:28.000Z</time>
      </trkpt>
      <trkpt lat="48.60481" lon="1.10614">
        <ele>183.80000305176</ele>
        <time>2026-06-17T08:29:35.000Z</time>
      </trkpt>
      <trkpt lat="48.60451" lon="1.10623">
        <ele>184</ele>
        <time>2026-06-17T08:29:40.000Z</time>
      </trkpt>
      <trkpt lat="48.6044" lon="1.10626">
        <ele>184</ele>
        <time>2026-06-17T08:29:42.000Z</time>
      </trkpt>
      <trkpt lat="48.60397" lon="1.10636">
        <ele>183.60000610352</ele>
        <time>2026-06-17T08:29:49.000Z</time>
      </trkpt>
      <trkpt lat="48.60391" lon="1.10635">
        <ele>183.39999389648</ele>
        <time>2026-06-17T08:29:50.000Z</time>
      </trkpt>
      <trkpt lat="48.60371" lon="1.10626">
        <ele>183.19999694824</ele>
        <time>2026-06-17T08:29:53.000Z</time>
      </trkpt>
      <trkpt lat="48.60361" lon="1.1061">
        <ele>183.19999694824</ele>
        <time>2026-06-17T08:29:55.000Z</time>
      </trkpt>
      <trkpt lat="48.60358" lon="1.106">
        <ele>183</ele>
        <time>2026-06-17T08:29:56.000Z</time>
      </trkpt>
      <trkpt lat="48.60353" lon="1.10589">
        <ele>182.80000305176</ele>
        <time>2026-06-17T08:29:57.000Z</time>
      </trkpt>
      <trkpt lat="48.60342" lon="1.1055">
        <ele>182.19999694824</ele>
        <time>2026-06-17T08:30:01.000Z</time>
      </trkpt>
      <trkpt lat="48.60337" lon="1.10533">
        <ele>182</ele>
        <time>2026-06-17T08:30:03.000Z</time>
      </trkpt>
      <trkpt lat="48.60333" lon="1.10515">
        <ele>182</ele>
        <time>2026-06-17T08:30:05.000Z</time>
      </trkpt>
      <trkpt lat="48.60331" lon="1.10505">
        <ele>182</ele>
        <time>2026-06-17T08:30:06.000Z</time>
      </trkpt>
      <trkpt lat="48.60315" lon="1.10449">
        <ele>181.80000305176</ele>
        <time>2026-06-17T08:30:12.000Z</time>
      </trkpt>
      <trkpt lat="48.6029" lon="1.10367">
        <ele>181.60000610352</ele>
        <time>2026-06-17T08:30:22.000Z</time>
      </trkpt>
      <trkpt lat="48.60287" lon="1.10358">
        <ele>181.60000610352</ele>
        <time>2026-06-17T08:30:23.000Z</time>
      </trkpt>
      <trkpt lat="48.60269" lon="1.103">
        <ele>181.80000305176</ele>
        <time>2026-06-17T08:30:30.000Z</time>
      </trkpt>
      <trkpt lat="48.60254" lon="1.1025">
        <ele>182</ele>
        <time>2026-06-17T08:30:36.000Z</time>
      </trkpt>
      <trkpt lat="48.6024" lon="1.10201">
        <ele>182.60000610352</ele>
        <time>2026-06-17T08:30:42.000Z</time>
      </trkpt>
      <trkpt lat="48.60232" lon="1.10176">
        <ele>182.80000305176</ele>
        <time>2026-06-17T08:30:45.000Z</time>
      </trkpt>
      <trkpt lat="48.60222" lon="1.10151">
        <ele>182.80000305176</ele>
        <time>2026-06-17T08:30:48.000Z</time>
      </trkpt>
      <trkpt lat="48.60214" lon="1.10127">
        <ele>182.80000305176</ele>
        <time>2026-06-17T08:30:51.000Z</time>
      </trkpt>
      <trkpt lat="48.60207" lon="1.10102">
        <ele>183</ele>
        <time>2026-06-17T08:30:54.000Z</time>
      </trkpt>
      <trkpt lat="48.60184" lon="1.10029">
        <ele>183.19999694824</ele>
        <time>2026-06-17T08:31:03.000Z</time>
      </trkpt>
      <trkpt lat="48.6017" lon="1.09981">
        <ele>183</ele>
        <time>2026-06-17T08:31:09.000Z</time>
      </trkpt>
      <trkpt lat="48.60153" lon="1.09927">
        <ele>183</ele>
        <time>2026-06-17T08:31:16.000Z</time>
      </trkpt>
      <trkpt lat="48.60132" lon="1.09868">
        <ele>182.80000305176</ele>
        <time>2026-06-17T08:31:24.000Z</time>
      </trkpt>
      <trkpt lat="48.60117" lon="1.09822">
        <ele>183</ele>
        <time>2026-06-17T08:31:30.000Z</time>
      </trkpt>
      <trkpt lat="48.60103" lon="1.09777">
        <ele>183</ele>
        <time>2026-06-17T08:31:36.000Z</time>
      </trkpt>
      <trkpt lat="48.60086" lon="1.09732">
        <ele>183.60000610352</ele>
        <time>2026-06-17T08:31:42.000Z</time>
      </trkpt>
      <trkpt lat="48.60081" lon="1.09716">
        <ele>183.80000305176</ele>
        <time>2026-06-17T08:31:44.000Z</time>
      </trkpt>
      <trkpt lat="48.60054" lon="1.0964">
        <ele>184.19999694824</ele>
        <time>2026-06-17T08:31:54.000Z</time>
      </trkpt>
      <trkpt lat="48.60045" lon="1.09619">
        <ele>184.19999694824</ele>
        <time>2026-06-17T08:31:57.000Z</time>
      </trkpt>
      <trkpt lat="48.60035" lon="1.09598">
        <ele>184.39999389648</ele>
        <time>2026-06-17T08:32:00.000Z</time>
      </trkpt>
      <trkpt lat="48.60016" lon="1.09558">
        <ele>184.60000610352</ele>
        <time>2026-06-17T08:32:06.000Z</time>
      </trkpt>
      <trkpt lat="48.60004" lon="1.09534">
        <ele>185</ele>
        <time>2026-06-17T08:32:10.000Z</time>
      </trkpt>
      <trkpt lat="48.59999" lon="1.09524">
        <ele>185.19999694824</ele>
        <time>2026-06-17T08:32:12.000Z</time>
      </trkpt>
      <trkpt lat="48.59991" lon="1.09509">
        <ele>185.39999389648</ele>
        <time>2026-06-17T08:32:15.000Z</time>
      </trkpt>
      <trkpt lat="48.59987" lon="1.09501">
        <ele>185.39999389648</ele>
        <time>2026-06-17T08:32:17.000Z</time>
      </trkpt>
      <trkpt lat="48.59981" lon="1.09494">
        <ele>185.60000610352</ele>
        <time>2026-06-17T08:32:20.000Z</time>
      </trkpt>
      <trkpt lat="48.59978" lon="1.09494">
        <ele>185.60000610352</ele>
        <time>2026-06-17T08:32:21.000Z</time>
      </trkpt>
      <trkpt lat="48.59972" lon="1.09499">
        <ele>185.80000305176</ele>
        <time>2026-06-17T08:32:23.000Z</time>
      </trkpt>
      <trkpt lat="48.59969" lon="1.09504">
        <ele>185.80000305176</ele>
        <time>2026-06-17T08:32:24.000Z</time>
      </trkpt>
      <trkpt lat="48.59965" lon="1.0951">
        <ele>185.80000305176</ele>
        <time>2026-06-17T08:32:25.000Z</time>
      </trkpt>
      <trkpt lat="48.59953" lon="1.09529">
        <ele>186</ele>
        <time>2026-06-17T08:32:28.000Z</time>
      </trkpt>
      <trkpt lat="48.59914" lon="1.09584">
        <ele>185.80000305176</ele>
        <time>2026-06-17T08:32:37.000Z</time>
      </trkpt>
      <trkpt lat="48.59875" lon="1.0965">
        <ele>185.60000610352</ele>
        <time>2026-06-17T08:32:47.000Z</time>
      </trkpt>
      <trkpt lat="48.59871" lon="1.09656">
        <ele>185.60000610352</ele>
        <time>2026-06-17T08:32:48.000Z</time>
      </trkpt>
      <trkpt lat="48.59831" lon="1.09724">
        <ele>185.80000305176</ele>
        <time>2026-06-17T08:32:58.000Z</time>
      </trkpt>
      <trkpt lat="48.59796" lon="1.09783">
        <ele>186</ele>
        <time>2026-06-17T08:33:07.000Z</time>
      </trkpt>
      <trkpt lat="48.59791" lon="1.09789">
        <ele>186.19999694824</ele>
        <time>2026-06-17T08:33:08.000Z</time>
      </trkpt>
      <trkpt lat="48.59751" lon="1.09835">
        <ele>186.60000610352</ele>
        <time>2026-06-17T08:33:16.000Z</time>
      </trkpt>
      <trkpt lat="48.59702" lon="1.09884">
        <ele>187</ele>
        <time>2026-06-17T08:33:25.000Z</time>
      </trkpt>
      <trkpt lat="48.59692" lon="1.09896">
        <ele>187</ele>
        <time>2026-06-17T08:33:27.000Z</time>
      </trkpt>
      <trkpt lat="48.59687" lon="1.09901">
        <ele>187</ele>
        <time>2026-06-17T08:33:28.000Z</time>
      </trkpt>
      <trkpt lat="48.5965" lon="1.09937">
        <ele>187.39999389648</ele>
        <time>2026-06-17T08:33:35.000Z</time>
      </trkpt>
      <trkpt lat="48.59607" lon="1.09988">
        <ele>187.80000305176</ele>
        <time>2026-06-17T08:33:44.000Z</time>
      </trkpt>
      <trkpt lat="48.59581" lon="1.10025">
        <ele>188</ele>
        <time>2026-06-17T08:33:50.000Z</time>
      </trkpt>
      <trkpt lat="48.5956" lon="1.10058">
        <ele>188.19999694824</ele>
        <time>2026-06-17T08:33:55.000Z</time>
      </trkpt>
      <trkpt lat="48.59525" lon="1.1011">
        <ele>187.80000305176</ele>
        <time>2026-06-17T08:34:03.000Z</time>
      </trkpt>
      <trkpt lat="48.59488" lon="1.10158">
        <ele>187</ele>
        <time>2026-06-17T08:34:11.000Z</time>
      </trkpt>
      <trkpt lat="48.59471" lon="1.10181">
        <ele>186.60000610352</ele>
        <time>2026-06-17T08:34:15.000Z</time>
      </trkpt>
      <trkpt lat="48.59428" lon="1.10236">
        <ele>186</ele>
        <time>2026-06-17T08:34:23.000Z</time>
      </trkpt>
      <trkpt lat="48.59422" lon="1.10242">
        <ele>186</ele>
        <time>2026-06-17T08:34:24.000Z</time>
      </trkpt>
      <trkpt lat="48.59411" lon="1.10257">
        <ele>185.80000305176</ele>
        <time>2026-06-17T08:34:26.000Z</time>
      </trkpt>
      <trkpt lat="48.59363" lon="1.1031">
        <ele>185.19999694824</ele>
        <time>2026-06-17T08:34:35.000Z</time>
      </trkpt>
      <trkpt lat="48.59359" lon="1.10314">
        <ele>185</ele>
        <time>2026-06-17T08:34:36.000Z</time>
      </trkpt>
      <trkpt lat="48.59326" lon="1.10345">
        <ele>185</ele>
        <time>2026-06-17T08:34:42.000Z</time>
      </trkpt>
      <trkpt lat="48.59295" lon="1.10375">
        <ele>185</ele>
        <time>2026-06-17T08:34:48.000Z</time>
      </trkpt>
      <trkpt lat="48.59267" lon="1.104">
        <ele>185.60000610352</ele>
        <time>2026-06-17T08:34:54.000Z</time>
      </trkpt>
      <trkpt lat="48.59244" lon="1.10421">
        <ele>185.80000305176</ele>
        <time>2026-06-17T08:34:59.000Z</time>
      </trkpt>
      <trkpt lat="48.59238" lon="1.10429">
        <ele>185.80000305176</ele>
        <time>2026-06-17T08:35:01.000Z</time>
      </trkpt>
      <trkpt lat="48.59234" lon="1.10434">
        <ele>186</ele>
        <time>2026-06-17T08:35:03.000Z</time>
      </trkpt>
      <trkpt lat="48.59234" lon="1.10434">
        <ele>186</ele>
        <time>2026-06-17T08:35:04.000Z</time>
      </trkpt>
      <trkpt lat="48.59232" lon="1.10435">
        <ele>186</ele>
        <time>2026-06-17T08:35:16.000Z</time>
      </trkpt>
      <trkpt lat="48.59231" lon="1.10436">
        <ele>185.80000305176</ele>
        <time>2026-06-17T08:35:17.000Z</time>
      </trkpt>
      <trkpt lat="48.59216" lon="1.10447">
        <ele>185.80000305176</ele>
        <time>2026-06-17T08:35:23.000Z</time>
      </trkpt>
      <trkpt lat="48.59196" lon="1.10466">
        <ele>185.80000305176</ele>
        <time>2026-06-17T08:35:28.000Z</time>
      </trkpt>
      <trkpt lat="48.59177" lon="1.10485">
        <ele>186</ele>
        <time>2026-06-17T08:35:32.000Z</time>
      </trkpt>
      <trkpt lat="48.59171" lon="1.10491">
        <ele>186</ele>
        <time>2026-06-17T08:35:33.000Z</time>
      </trkpt>
      <trkpt lat="48.59132" lon="1.10536">
        <ele>186.39999389648</ele>
        <time>2026-06-17T08:35:41.000Z</time>
      </trkpt>
      <trkpt lat="48.59099" lon="1.10585">
        <ele>186.60000610352</ele>
        <time>2026-06-17T08:35:48.000Z</time>
      </trkpt>
      <trkpt lat="48.59068" lon="1.10652">
        <ele>186.60000610352</ele>
        <time>2026-06-17T08:35:56.000Z</time>
      </trkpt>
      <trkpt lat="48.59034" lon="1.10722">
        <ele>186.39999389648</ele>
        <time>2026-06-17T08:36:05.000Z</time>
      </trkpt>
      <trkpt lat="48.5903" lon="1.10731">
        <ele>186.39999389648</ele>
        <time>2026-06-17T08:36:06.000Z</time>
      </trkpt>
      <trkpt lat="48.58996" lon="1.10802">
        <ele>186</ele>
        <time>2026-06-17T08:36:14.000Z</time>
      </trkpt>
      <trkpt lat="48.58991" lon="1.10811">
        <ele>185.80000305176</ele>
        <time>2026-06-17T08:36:15.000Z</time>
      </trkpt>
      <trkpt lat="48.58958" lon="1.1088">
        <ele>185</ele>
        <time>2026-06-17T08:36:23.000Z</time>
      </trkpt>
      <trkpt lat="48.58953" lon="1.1089">
        <ele>185</ele>
        <time>2026-06-17T08:36:24.000Z</time>
      </trkpt>
      <trkpt lat="48.58941" lon="1.10916">
        <ele>184.39999389648</ele>
        <time>2026-06-17T08:36:27.000Z</time>
      </trkpt>
      <trkpt lat="48.58921" lon="1.10957">
        <ele>183.80000305176</ele>
        <time>2026-06-17T08:36:32.000Z</time>
      </trkpt>
      <trkpt lat="48.58898" lon="1.1101">
        <ele>183</ele>
        <time>2026-06-17T08:36:38.000Z</time>
      </trkpt>
      <trkpt lat="48.58891" lon="1.11031">
        <ele>182.80000305176</ele>
        <time>2026-06-17T08:36:40.000Z</time>
      </trkpt>
      <trkpt lat="48.58876" lon="1.11086">
        <ele>182</ele>
        <time>2026-06-17T08:36:45.000Z</time>
      </trkpt>
      <trkpt lat="48.5887" lon="1.11108">
        <ele>181.80000305176</ele>
        <time>2026-06-17T08:36:47.000Z</time>
      </trkpt>
      <trkpt lat="48.58854" lon="1.1117">
        <ele>181.19999694824</ele>
        <time>2026-06-17T08:36:53.000Z</time>
      </trkpt>
      <trkpt lat="48.58852" lon="1.11178">
        <ele>181</ele>
        <time>2026-06-17T08:36:54.000Z</time>
      </trkpt>
      <trkpt lat="48.58835" lon="1.11248">
        <ele>180.60000610352</ele>
        <time>2026-06-17T08:37:01.000Z</time>
      </trkpt>
      <trkpt lat="48.58821" lon="1.11301">
        <ele>180.39999389648</ele>
        <time>2026-06-17T08:37:07.000Z</time>
      </trkpt>
      <trkpt lat="48.58808" lon="1.11335">
        <ele>180.60000610352</ele>
        <time>2026-06-17T08:37:12.000Z</time>
      </trkpt>
      <trkpt lat="48.58801" lon="1.1136">
        <ele>181</ele>
        <time>2026-06-17T08:37:16.000Z</time>
      </trkpt>
      <trkpt lat="48.58793" lon="1.11382">
        <ele>181.19999694824</ele>
        <time>2026-06-17T08:37:19.000Z</time>
      </trkpt>
      <trkpt lat="48.58788" lon="1.11394">
        <ele>181</ele>
        <time>2026-06-17T08:37:21.000Z</time>
      </trkpt>
      <trkpt lat="48.58786" lon="1.11402">
        <ele>181.39999389648</ele>
        <time>2026-06-17T08:37:22.000Z</time>
      </trkpt>
      <trkpt lat="48.58782" lon="1.11417">
        <ele>181.39999389648</ele>
        <time>2026-06-17T08:37:24.000Z</time>
      </trkpt>
      <trkpt lat="48.58779" lon="1.11427">
        <ele>181.39999389648</ele>
        <time>2026-06-17T08:37:25.000Z</time>
      </trkpt>
      <trkpt lat="48.58769" lon="1.11455">
        <ele>181.80000305176</ele>
        <time>2026-06-17T08:37:28.000Z</time>
      </trkpt>
      <trkpt lat="48.5876" lon="1.11473">
        <ele>181.80000305176</ele>
        <time>2026-06-17T08:37:30.000Z</time>
      </trkpt>
      <trkpt lat="48.58732" lon="1.11517">
        <ele>182.19999694824</ele>
        <time>2026-06-17T08:37:36.000Z</time>
      </trkpt>
      <trkpt lat="48.58687" lon="1.11565">
        <ele>182.19999694824</ele>
        <time>2026-06-17T08:37:45.000Z</time>
      </trkpt>
      <trkpt lat="48.58674" lon="1.11578">
        <ele>182.19999694824</ele>
        <time>2026-06-17T08:37:47.000Z</time>
      </trkpt>
      <trkpt lat="48.58627" lon="1.11622">
        <ele>182.39999389648</ele>
        <time>2026-06-17T08:37:56.000Z</time>
      </trkpt>
      <trkpt lat="48.58623" lon="1.11626">
        <ele>182.39999389648</ele>
        <time>2026-06-17T08:37:57.000Z</time>
      </trkpt>
      <trkpt lat="48.58574" lon="1.11671">
        <ele>182.19999694824</ele>
        <time>2026-06-17T08:38:06.000Z</time>
      </trkpt>
      <trkpt lat="48.58567" lon="1.11677">
        <ele>182</ele>
        <time>2026-06-17T08:38:07.000Z</time>
      </trkpt>
      <trkpt lat="48.58519" lon="1.11722">
        <ele>182.19999694824</ele>
        <time>2026-06-17T08:38:16.000Z</time>
      </trkpt>
      <trkpt lat="48.58514" lon="1.11727">
        <ele>182.39999389648</ele>
        <time>2026-06-17T08:38:17.000Z</time>
      </trkpt>
      <trkpt lat="48.58477" lon="1.11762">
        <ele>182.80000305176</ele>
        <time>2026-06-17T08:38:24.000Z</time>
      </trkpt>
      <trkpt lat="48.58472" lon="1.11767">
        <ele>183</ele>
        <time>2026-06-17T08:38:25.000Z</time>
      </trkpt>
      <trkpt lat="48.58426" lon="1.11811">
        <ele>183.80000305176</ele>
        <time>2026-06-17T08:38:34.000Z</time>
      </trkpt>
      <trkpt lat="48.58421" lon="1.11816">
        <ele>183.80000305176</ele>
        <time>2026-06-17T08:38:35.000Z</time>
      </trkpt>
      <trkpt lat="48.58372" lon="1.11862">
        <ele>185</ele>
        <time>2026-06-17T08:38:45.000Z</time>
      </trkpt>
      <trkpt lat="48.5836" lon="1.11874">
        <ele>185</ele>
        <time>2026-06-17T08:38:47.000Z</time>
      </trkpt>
      <trkpt lat="48.58313" lon="1.11919">
        <ele>185.60000610352</ele>
        <time>2026-06-17T08:38:56.000Z</time>
      </trkpt>
      <trkpt lat="48.58282" lon="1.11949">
        <ele>185.39999389648</ele>
        <time>2026-06-17T08:39:02.000Z</time>
      </trkpt>
      <trkpt lat="48.58255" lon="1.11973">
        <ele>185.19999694824</ele>
        <time>2026-06-17T08:39:07.000Z</time>
      </trkpt>
      <trkpt lat="48.58211" lon="1.12004">
        <ele>185.39999389648</ele>
        <time>2026-06-17T08:39:15.000Z</time>
      </trkpt>
      <trkpt lat="48.58164" lon="1.1203">
        <ele>185.80000305176</ele>
        <time>2026-06-17T08:39:24.000Z</time>
      </trkpt>
      <trkpt lat="48.58108" lon="1.12062">
        <ele>185.80000305176</ele>
        <time>2026-06-17T08:39:34.000Z</time>
      </trkpt>
      <trkpt lat="48.58101" lon="1.12066">
        <ele>185.80000305176</ele>
        <time>2026-06-17T08:39:35.000Z</time>
      </trkpt>
      <trkpt lat="48.58068" lon="1.12089">
        <ele>186</ele>
        <time>2026-06-17T08:39:42.000Z</time>
      </trkpt>
      <trkpt lat="48.58051" lon="1.12103">
        <ele>186.19999694824</ele>
        <time>2026-06-17T08:39:45.000Z</time>
      </trkpt>
      <trkpt lat="48.58004" lon="1.12145">
        <ele>186.19999694824</ele>
        <time>2026-06-17T08:39:53.000Z</time>
      </trkpt>
      <trkpt lat="48.57998" lon="1.1215">
        <ele>186</ele>
        <time>2026-06-17T08:39:54.000Z</time>
      </trkpt>
      <trkpt lat="48.57959" lon="1.12196">
        <ele>185.39999389648</ele>
        <time>2026-06-17T08:40:02.000Z</time>
      </trkpt>
      <trkpt lat="48.5795" lon="1.12208">
        <ele>185</ele>
        <time>2026-06-17T08:40:04.000Z</time>
      </trkpt>
      <trkpt lat="48.57914" lon="1.12259">
        <ele>184.19999694824</ele>
        <time>2026-06-17T08:40:11.000Z</time>
      </trkpt>
      <trkpt lat="48.57905" lon="1.12272">
        <ele>183.80000305176</ele>
        <time>2026-06-17T08:40:13.000Z</time>
      </trkpt>
      <trkpt lat="48.57877" lon="1.1231">
        <ele>182.80000305176</ele>
        <time>2026-06-17T08:40:18.000Z</time>
      </trkpt>
      <trkpt lat="48.5786" lon="1.12336">
        <ele>182.19999694824</ele>
        <time>2026-06-17T08:40:21.000Z</time>
      </trkpt>
      <trkpt lat="48.57844" lon="1.12361">
        <ele>181.60000610352</ele>
        <time>2026-06-17T08:40:24.000Z</time>
      </trkpt>
      <trkpt lat="48.57826" lon="1.12398">
        <ele>180.60000610352</ele>
        <time>2026-06-17T08:40:28.000Z</time>
      </trkpt>
      <trkpt lat="48.57819" lon="1.12418">
        <ele>180</ele>
        <time>2026-06-17T08:40:31.000Z</time>
      </trkpt>
      <trkpt lat="48.57815" lon="1.12421">
        <ele>179.60000610352</ele>
        <time>2026-06-17T08:40:32.000Z</time>
      </trkpt>
      <trkpt lat="48.57812" lon="1.12423">
        <ele>179.39999389648</ele>
        <time>2026-06-17T08:40:33.000Z</time>
      </trkpt>
      <trkpt lat="48.57808" lon="1.12422">
        <ele>178.80000305176</ele>
        <time>2026-06-17T08:40:34.000Z</time>
      </trkpt>
      <trkpt lat="48.57804" lon="1.12417">
        <ele>178.39999389648</ele>
        <time>2026-06-17T08:40:35.000Z</time>
      </trkpt>
      <trkpt lat="48.57801" lon="1.12403">
        <ele>178</ele>
        <time>2026-06-17T08:40:37.000Z</time>
      </trkpt>
      <trkpt lat="48.578" lon="1.12341">
        <ele>177.80000305176</ele>
        <time>2026-06-17T08:40:44.000Z</time>
      </trkpt>
      <trkpt lat="48.578" lon="1.12333">
        <ele>177.80000305176</ele>
        <time>2026-06-17T08:40:45.000Z</time>
      </trkpt>
      <trkpt lat="48.578" lon="1.12318">
        <ele>178</ele>
        <time>2026-06-17T08:40:47.000Z</time>
      </trkpt>
      <trkpt lat="48.57799" lon="1.12293">
        <ele>178.19999694824</ele>
        <time>2026-06-17T08:40:50.000Z</time>
      </trkpt>
      <trkpt lat="48.578" lon="1.12246">
        <ele>179.80000305176</ele>
        <time>2026-06-17T08:40:56.000Z</time>
      </trkpt>
      <trkpt lat="48.57801" lon="1.12224">
        <ele>180.60000610352</ele>
        <time>2026-06-17T08:40:59.000Z</time>
      </trkpt>
      <trkpt lat="48.57801" lon="1.12215">
        <ele>180.80000305176</ele>
        <time>2026-06-17T08:41:00.000Z</time>
      </trkpt>
      <trkpt lat="48.57802" lon="1.12201">
        <ele>180.80000305176</ele>
        <time>2026-06-17T08:41:02.000Z</time>
      </trkpt>
      <trkpt lat="48.57801" lon="1.1217">
        <ele>181.60000610352</ele>
        <time>2026-06-17T08:41:06.000Z</time>
      </trkpt>
      <trkpt lat="48.57801" lon="1.12154">
        <ele>181.80000305176</ele>
        <time>2026-06-17T08:41:08.000Z</time>
      </trkpt>
      <trkpt lat="48.57797" lon="1.12111">
        <ele>182.39999389648</ele>
        <time>2026-06-17T08:41:13.000Z</time>
      </trkpt>
      <trkpt lat="48.57794" lon="1.12079">
        <ele>182.80000305176</ele>
        <time>2026-06-17T08:41:17.000Z</time>
      </trkpt>
      <trkpt lat="48.57787" lon="1.12031">
        <ele>183.19999694824</ele>
        <time>2026-06-17T08:41:23.000Z</time>
      </trkpt>
      <trkpt lat="48.57776" lon="1.1196">
        <ele>184</ele>
        <time>2026-06-17T08:41:32.000Z</time>
      </trkpt>
      <trkpt lat="48.57772" lon="1.11936">
        <ele>184</ele>
        <time>2026-06-17T08:41:35.000Z</time>
      </trkpt>
      <trkpt lat="48.57762" lon="1.11871">
        <ele>185</ele>
        <time>2026-06-17T08:41:43.000Z</time>
      </trkpt>
      <trkpt lat="48.57761" lon="1.11856">
        <ele>185.39999389648</ele>
        <time>2026-06-17T08:41:45.000Z</time>
      </trkpt>
      <trkpt lat="48.57761" lon="1.11824">
        <ele>185.39999389648</ele>
        <time>2026-06-17T08:41:49.000Z</time>
      </trkpt>
      <trkpt lat="48.57762" lon="1.11816">
        <ele>185.80000305176</ele>
        <time>2026-06-17T08:41:50.000Z</time>
      </trkpt>
      <trkpt lat="48.57761" lon="1.11782">
        <ele>186</ele>
        <time>2026-06-17T08:41:54.000Z</time>
      </trkpt>
      <trkpt lat="48.57761" lon="1.11774">
        <ele>186</ele>
        <time>2026-06-17T08:41:55.000Z</time>
      </trkpt>
      <trkpt lat="48.57755" lon="1.11717">
        <ele>187</ele>
        <time>2026-06-17T08:42:02.000Z</time>
      </trkpt>
      <trkpt lat="48.57752" lon="1.11694">
        <ele>187.60000610352</ele>
        <time>2026-06-17T08:42:05.000Z</time>
      </trkpt>
      <trkpt lat="48.57749" lon="1.11662">
        <ele>188</ele>
        <time>2026-06-17T08:42:09.000Z</time>
      </trkpt>
      <trkpt lat="48.57747" lon="1.11646">
        <ele>188.19999694824</ele>
        <time>2026-06-17T08:42:11.000Z</time>
      </trkpt>
      <trkpt lat="48.57745" lon="1.11629">
        <ele>188.19999694824</ele>
        <time>2026-06-17T08:42:13.000Z</time>
      </trkpt>
      <trkpt lat="48.57743" lon="1.11612">
        <ele>188.19999694824</ele>
        <time>2026-06-17T08:42:15.000Z</time>
      </trkpt>
      <trkpt lat="48.57742" lon="1.11604">
        <ele>188.39999389648</ele>
        <time>2026-06-17T08:42:16.000Z</time>
      </trkpt>
      <trkpt lat="48.57742" lon="1.11596">
        <ele>188.39999389648</ele>
        <time>2026-06-17T08:42:17.000Z</time>
      </trkpt>
      <trkpt lat="48.57738" lon="1.11556">
        <ele>189</ele>
        <time>2026-06-17T08:42:22.000Z</time>
      </trkpt>
      <trkpt lat="48.57738" lon="1.11548">
        <ele>189</ele>
        <time>2026-06-17T08:42:23.000Z</time>
      </trkpt>
      <trkpt lat="48.57738" lon="1.11515">
        <ele>189.39999389648</ele>
        <time>2026-06-17T08:42:27.000Z</time>
      </trkpt>
      <trkpt lat="48.57738" lon="1.11507">
        <ele>189.39999389648</ele>
        <time>2026-06-17T08:42:28.000Z</time>
      </trkpt>
      <trkpt lat="48.57739" lon="1.11491">
        <ele>189.60000610352</ele>
        <time>2026-06-17T08:42:30.000Z</time>
      </trkpt>
      <trkpt lat="48.57743" lon="1.1146">
        <ele>190</ele>
        <time>2026-06-17T08:42:34.000Z</time>
      </trkpt>
      <trkpt lat="48.57753" lon="1.1142">
        <ele>191.19999694824</ele>
        <time>2026-06-17T08:42:40.000Z</time>
      </trkpt>
      <trkpt lat="48.57755" lon="1.11414">
        <ele>191.19999694824</ele>
        <time>2026-06-17T08:42:41.000Z</time>
      </trkpt>
      <trkpt lat="48.57767" lon="1.11372">
        <ele>192.19999694824</ele>
        <time>2026-06-17T08:42:47.000Z</time>
      </trkpt>
      <trkpt lat="48.57771" lon="1.11358">
        <ele>192.39999389648</ele>
        <time>2026-06-17T08:42:49.000Z</time>
      </trkpt>
      <trkpt lat="48.57772" lon="1.1135">
        <ele>192.39999389648</ele>
        <time>2026-06-17T08:42:50.000Z</time>
      </trkpt>
      <trkpt lat="48.57779" lon="1.11321">
        <ele>192.60000610352</ele>
        <time>2026-06-17T08:42:54.000Z</time>
      </trkpt>
      <trkpt lat="48.57791" lon="1.11266">
        <ele>193</ele>
        <time>2026-06-17T08:43:01.000Z</time>
      </trkpt>
      <trkpt lat="48.57795" lon="1.11241">
        <ele>193.19999694824</ele>
        <time>2026-06-17T08:43:04.000Z</time>
      </trkpt>
      <trkpt lat="48.57798" lon="1.11206">
        <ele>193.39999389648</ele>
        <time>2026-06-17T08:43:08.000Z</time>
      </trkpt>
      <trkpt lat="48.57795" lon="1.1115">
        <ele>193.60000610352</ele>
        <time>2026-06-17T08:43:15.000Z</time>
      </trkpt>
      <trkpt lat="48.57785" lon="1.11071">
        <ele>193.60000610352</ele>
        <time>2026-06-17T08:43:24.000Z</time>
      </trkpt>
      <trkpt lat="48.57771" lon="1.10989">
        <ele>193.39999389648</ele>
        <time>2026-06-17T08:43:34.000Z</time>
      </trkpt>
      <trkpt lat="48.57761" lon="1.1094">
        <ele>193.39999389648</ele>
        <time>2026-06-17T08:43:40.000Z</time>
      </trkpt>
      <trkpt lat="48.57749" lon="1.10875">
        <ele>193.80000305176</ele>
        <time>2026-06-17T08:43:48.000Z</time>
      </trkpt>
      <trkpt lat="48.57737" lon="1.1079">
        <ele>194</ele>
        <time>2026-06-17T08:43:58.000Z</time>
      </trkpt>
      <trkpt lat="48.57735" lon="1.10773">
        <ele>194.19999694824</ele>
        <time>2026-06-17T08:44:00.000Z</time>
      </trkpt>
      <trkpt lat="48.57733" lon="1.10756">
        <ele>194.19999694824</ele>
        <time>2026-06-17T08:44:02.000Z</time>
      </trkpt>
      <trkpt lat="48.57726" lon="1.1068">
        <ele>194.80000305176</ele>
        <time>2026-06-17T08:44:11.000Z</time>
      </trkpt>
      <trkpt lat="48.57723" lon="1.10658">
        <ele>194.80000305176</ele>
        <time>2026-06-17T08:44:14.000Z</time>
      </trkpt>
      <trkpt lat="48.57722" lon="1.10639">
        <ele>195</ele>
        <time>2026-06-17T08:44:16.000Z</time>
      </trkpt>
      <trkpt lat="48.57722" lon="1.10631">
        <ele>195</ele>
        <time>2026-06-17T08:44:17.000Z</time>
      </trkpt>
      <trkpt lat="48.57722" lon="1.10623">
        <ele>195</ele>
        <time>2026-06-17T08:44:18.000Z</time>
      </trkpt>
      <trkpt lat="48.57721" lon="1.10608">
        <ele>195</ele>
        <time>2026-06-17T08:44:20.000Z</time>
      </trkpt>
      <trkpt lat="48.57719" lon="1.10592">
        <ele>195</ele>
        <time>2026-06-17T08:44:22.000Z</time>
      </trkpt>
      <trkpt lat="48.57714" lon="1.10569">
        <ele>195.19999694824</ele>
        <time>2026-06-17T08:44:25.000Z</time>
      </trkpt>
      <trkpt lat="48.57709" lon="1.10554">
        <ele>195.19999694824</ele>
        <time>2026-06-17T08:44:27.000Z</time>
      </trkpt>
      <trkpt lat="48.57704" lon="1.10538">
        <ele>195.39999389648</ele>
        <time>2026-06-17T08:44:29.000Z</time>
      </trkpt>
      <trkpt lat="48.57695" lon="1.10515">
        <ele>195.39999389648</ele>
        <time>2026-06-17T08:44:32.000Z</time>
      </trkpt>
      <trkpt lat="48.5767" lon="1.10436">
        <ele>195.39999389648</ele>
        <time>2026-06-17T08:44:41.000Z</time>
      </trkpt>
      <trkpt lat="48.57655" lon="1.10374">
        <ele>195.19999694824</ele>
        <time>2026-06-17T08:44:48.000Z</time>
      </trkpt>
      <trkpt lat="48.57636" lon="1.10294">
        <ele>194.80000305176</ele>
        <time>2026-06-17T08:44:57.000Z</time>
      </trkpt>
      <trkpt lat="48.57635" lon="1.10287">
        <ele>194.80000305176</ele>
        <time>2026-06-17T08:44:58.000Z</time>
      </trkpt>
      <trkpt lat="48.57624" lon="1.10225">
        <ele>194.80000305176</ele>
        <time>2026-06-17T08:45:05.000Z</time>
      </trkpt>
      <trkpt lat="48.57622" lon="1.10216">
        <ele>194.80000305176</ele>
        <time>2026-06-17T08:45:06.000Z</time>
      </trkpt>
      <trkpt lat="48.57613" lon="1.10174">
        <ele>194.60000610352</ele>
        <time>2026-06-17T08:45:11.000Z</time>
      </trkpt>
      <trkpt lat="48.57593" lon="1.10097">
        <ele>195</ele>
        <time>2026-06-17T08:45:20.000Z</time>
      </trkpt>
      <trkpt lat="48.57591" lon="1.10089">
        <ele>195</ele>
        <time>2026-06-17T08:45:21.000Z</time>
      </trkpt>
      <trkpt lat="48.5756" lon="1.10016">
        <ele>196</ele>
        <time>2026-06-17T08:45:31.000Z</time>
      </trkpt>
      <trkpt lat="48.57548" lon="1.09986">
        <ele>196.39999389648</ele>
        <time>2026-06-17T08:45:35.000Z</time>
      </trkpt>
      <trkpt lat="48.57535" lon="1.09948">
        <ele>197</ele>
        <time>2026-06-17T08:45:40.000Z</time>
      </trkpt>
      <trkpt lat="48.57526" lon="1.09916">
        <ele>197.39999389648</ele>
        <time>2026-06-17T08:45:44.000Z</time>
      </trkpt>
      <trkpt lat="48.57517" lon="1.09882">
        <ele>198</ele>
        <time>2026-06-17T08:45:48.000Z</time>
      </trkpt>
      <trkpt lat="48.575" lon="1.098">
        <ele>197.80000305176</ele>
        <time>2026-06-17T08:45:57.000Z</time>
      </trkpt>
      <trkpt lat="48.57484" lon="1.09722">
        <ele>197.60000610352</ele>
        <time>2026-06-17T08:46:06.000Z</time>
      </trkpt>
      <trkpt lat="48.57481" lon="1.09713">
        <ele>197.80000305176</ele>
        <time>2026-06-17T08:46:07.000Z</time>
      </trkpt>
      <trkpt lat="48.5747" lon="1.0969">
        <ele>197.80000305176</ele>
        <time>2026-06-17T08:46:10.000Z</time>
      </trkpt>
      <trkpt lat="48.57457" lon="1.09648">
        <ele>198</ele>
        <time>2026-06-17T08:46:15.000Z</time>
      </trkpt>
      <trkpt lat="48.57455" lon="1.09639">
        <ele>198</ele>
        <time>2026-06-17T08:46:16.000Z</time>
      </trkpt>
      <trkpt lat="48.57441" lon="1.09599">
        <ele>198</ele>
        <time>2026-06-17T08:46:21.000Z</time>
      </trkpt>
      <trkpt lat="48.57429" lon="1.09569">
        <ele>198.19999694824</ele>
        <time>2026-06-17T08:46:25.000Z</time>
      </trkpt>
      <trkpt lat="48.57422" lon="1.09559">
        <ele>198.39999389648</ele>
        <time>2026-06-17T08:46:27.000Z</time>
      </trkpt>
      <trkpt lat="48.57418" lon="1.09553">
        <ele>198.60000610352</ele>
        <time>2026-06-17T08:46:28.000Z</time>
      </trkpt>
      <trkpt lat="48.57403" lon="1.09529">
        <ele>199</ele>
        <time>2026-06-17T08:46:32.000Z</time>
      </trkpt>
      <trkpt lat="48.57397" lon="1.09518">
        <ele>199</ele>
        <time>2026-06-17T08:46:34.000Z</time>
      </trkpt>
      <trkpt lat="48.57394" lon="1.09513">
        <ele>199</ele>
        <time>2026-06-17T08:46:35.000Z</time>
      </trkpt>
      <trkpt lat="48.5739" lon="1.09499">
        <ele>199.19999694824</ele>
        <time>2026-06-17T08:46:37.000Z</time>
      </trkpt>
      <trkpt lat="48.5737" lon="1.09476">
        <ele>199.19999694824</ele>
        <time>2026-06-17T08:46:41.000Z</time>
      </trkpt>
      <trkpt lat="48.57367" lon="1.09469">
        <ele>199.39999389648</ele>
        <time>2026-06-17T08:46:42.000Z</time>
      </trkpt>
      <trkpt lat="48.57364" lon="1.09462">
        <ele>199.39999389648</ele>
        <time>2026-06-17T08:46:43.000Z</time>
      </trkpt>
      <trkpt lat="48.57356" lon="1.09439">
        <ele>199.39999389648</ele>
        <time>2026-06-17T08:46:46.000Z</time>
      </trkpt>
      <trkpt lat="48.57351" lon="1.09432">
        <ele>199.39999389648</ele>
        <time>2026-06-17T08:46:47.000Z</time>
      </trkpt>
      <trkpt lat="48.57341" lon="1.09414">
        <ele>199.39999389648</ele>
        <time>2026-06-17T08:46:49.000Z</time>
      </trkpt>
      <trkpt lat="48.57334" lon="1.09394">
        <ele>199.19999694824</ele>
        <time>2026-06-17T08:46:51.000Z</time>
      </trkpt>
      <trkpt lat="48.57326" lon="1.09375">
        <ele>199.19999694824</ele>
        <time>2026-06-17T08:46:53.000Z</time>
      </trkpt>
      <trkpt lat="48.57327" lon="1.09348">
        <ele>199.19999694824</ele>
        <time>2026-06-17T08:46:55.000Z</time>
      </trkpt>
      <trkpt lat="48.57324" lon="1.09336">
        <ele>199</ele>
        <time>2026-06-17T08:46:56.000Z</time>
      </trkpt>
      <trkpt lat="48.57321" lon="1.09327">
        <ele>199</ele>
        <time>2026-06-17T08:46:57.000Z</time>
      </trkpt>
      <trkpt lat="48.57304" lon="1.09289">
        <ele>199</ele>
        <time>2026-06-17T08:47:01.000Z</time>
      </trkpt>
      <trkpt lat="48.57303" lon="1.09281">
        <ele>199</ele>
        <time>2026-06-17T08:47:02.000Z</time>
      </trkpt>
      <trkpt lat="48.57298" lon="1.09264">
        <ele>198.80000305176</ele>
        <time>2026-06-17T08:47:04.000Z</time>
      </trkpt>
      <trkpt lat="48.57296" lon="1.09255">
        <ele>198.80000305176</ele>
        <time>2026-06-17T08:47:05.000Z</time>
      </trkpt>
      <trkpt lat="48.57292" lon="1.09239">
        <ele>198.80000305176</ele>
        <time>2026-06-17T08:47:07.000Z</time>
      </trkpt>
      <trkpt lat="48.57285" lon="1.09213">
        <ele>198.60000610352</ele>
        <time>2026-06-17T08:47:10.000Z</time>
      </trkpt>
      <trkpt lat="48.57283" lon="1.09206">
        <ele>198.60000610352</ele>
        <time>2026-06-17T08:47:11.000Z</time>
      </trkpt>
      <trkpt lat="48.57277" lon="1.0919">
        <ele>198.39999389648</ele>
        <time>2026-06-17T08:47:13.000Z</time>
      </trkpt>
      <trkpt lat="48.57274" lon="1.09181">
        <ele>198.60000610352</ele>
        <time>2026-06-17T08:47:14.000Z</time>
      </trkpt>
      <trkpt lat="48.57272" lon="1.09173">
        <ele>198.60000610352</ele>
        <time>2026-06-17T08:47:15.000Z</time>
      </trkpt>
      <trkpt lat="48.57263" lon="1.09147">
        <ele>198.39999389648</ele>
        <time>2026-06-17T08:47:18.000Z</time>
      </trkpt>
      <trkpt lat="48.57259" lon="1.09137">
        <ele>198.39999389648</ele>
        <time>2026-06-17T08:47:19.000Z</time>
      </trkpt>
      <trkpt lat="48.57242" lon="1.09091">
        <ele>198</ele>
        <time>2026-06-17T08:47:25.000Z</time>
      </trkpt>
      <trkpt lat="48.57239" lon="1.09081">
        <ele>198</ele>
        <time>2026-06-17T08:47:26.000Z</time>
      </trkpt>
      <trkpt lat="48.57232" lon="1.0906">
        <ele>197.80000305176</ele>
        <time>2026-06-17T08:47:28.000Z</time>
      </trkpt>
      <trkpt lat="48.57231" lon="1.09048">
        <ele>197.60000610352</ele>
        <time>2026-06-17T08:47:29.000Z</time>
      </trkpt>
      <trkpt lat="48.57218" lon="1.09016">
        <ele>197.19999694824</ele>
        <time>2026-06-17T08:47:32.000Z</time>
      </trkpt>
      <trkpt lat="48.57211" lon="1.09001">
        <ele>197</ele>
        <time>2026-06-17T08:47:34.000Z</time>
      </trkpt>
      <trkpt lat="48.57203" lon="1.08981">
        <ele>197</ele>
        <time>2026-06-17T08:47:36.000Z</time>
      </trkpt>
      <trkpt lat="48.57194" lon="1.08944">
        <ele>196.80000305176</ele>
        <time>2026-06-17T08:47:40.000Z</time>
      </trkpt>
      <trkpt lat="48.57192" lon="1.08927">
        <ele>196.80000305176</ele>
        <time>2026-06-17T08:47:42.000Z</time>
      </trkpt>
      <trkpt lat="48.5718" lon="1.08901">
        <ele>196.60000610352</ele>
        <time>2026-06-17T08:47:45.000Z</time>
      </trkpt>
      <trkpt lat="48.57164" lon="1.0886">
        <ele>196.80000305176</ele>
        <time>2026-06-17T08:47:50.000Z</time>
      </trkpt>
      <trkpt lat="48.57163" lon="1.08857">
        <ele>197</ele>
        <time>2026-06-17T08:47:51.000Z</time>
      </trkpt>
      <trkpt lat="48.57158" lon="1.0884">
        <ele>197</ele>
        <time>2026-06-17T08:47:53.000Z</time>
      </trkpt>
      <trkpt lat="48.57149" lon="1.08813">
        <ele>197.19999694824</ele>
        <time>2026-06-17T08:47:56.000Z</time>
      </trkpt>
      <trkpt lat="48.57144" lon="1.08796">
        <ele>197.39999389648</ele>
        <time>2026-06-17T08:47:58.000Z</time>
      </trkpt>
      <trkpt lat="48.5714" lon="1.0878">
        <ele>197.39999389648</ele>
        <time>2026-06-17T08:48:00.000Z</time>
      </trkpt>
      <trkpt lat="48.57137" lon="1.08772">
        <ele>197.39999389648</ele>
        <time>2026-06-17T08:48:01.000Z</time>
      </trkpt>
      <trkpt lat="48.57135" lon="1.08764">
        <ele>197.60000610352</ele>
        <time>2026-06-17T08:48:02.000Z</time>
      </trkpt>
      <trkpt lat="48.57129" lon="1.08747">
        <ele>197.60000610352</ele>
        <time>2026-06-17T08:48:04.000Z</time>
      </trkpt>
      <trkpt lat="48.57126" lon="1.08729">
        <ele>197.80000305176</ele>
        <time>2026-06-17T08:48:06.000Z</time>
      </trkpt>
      <trkpt lat="48.57126" lon="1.0871">
        <ele>197.80000305176</ele>
        <time>2026-06-17T08:48:08.000Z</time>
      </trkpt>
      <trkpt lat="48.57124" lon="1.087">
        <ele>197.80000305176</ele>
        <time>2026-06-17T08:48:09.000Z</time>
      </trkpt>
      <trkpt lat="48.57118" lon="1.08671">
        <ele>198</ele>
        <time>2026-06-17T08:48:12.000Z</time>
      </trkpt>
      <trkpt lat="48.57105" lon="1.08649">
        <ele>198</ele>
        <time>2026-06-17T08:48:15.000Z</time>
      </trkpt>
      <trkpt lat="48.57099" lon="1.08635">
        <ele>198.19999694824</ele>
        <time>2026-06-17T08:48:17.000Z</time>
      </trkpt>
      <trkpt lat="48.57096" lon="1.08621">
        <ele>198.39999389648</ele>
        <time>2026-06-17T08:48:19.000Z</time>
      </trkpt>
      <trkpt lat="48.57092" lon="1.08607">
        <ele>198.39999389648</ele>
        <time>2026-06-17T08:48:21.000Z</time>
      </trkpt>
      <trkpt lat="48.57082" lon="1.08588">
        <ele>198.60000610352</ele>
        <time>2026-06-17T08:48:24.000Z</time>
      </trkpt>
      <trkpt lat="48.57076" lon="1.08572">
        <ele>198.80000305176</ele>
        <time>2026-06-17T08:48:26.000Z</time>
      </trkpt>
      <trkpt lat="48.57066" lon="1.08536">
        <ele>199</ele>
        <time>2026-06-17T08:48:30.000Z</time>
      </trkpt>
      <trkpt lat="48.57068" lon="1.08526">
        <ele>199</ele>
        <time>2026-06-17T08:48:31.000Z</time>
      </trkpt>
      <trkpt lat="48.57065" lon="1.08519">
        <ele>199.19999694824</ele>
        <time>2026-06-17T08:48:32.000Z</time>
      </trkpt>
      <trkpt lat="48.57059" lon="1.08504">
        <ele>199.19999694824</ele>
        <time>2026-06-17T08:48:34.000Z</time>
      </trkpt>
      <trkpt lat="48.57057" lon="1.08496">
        <ele>199.19999694824</ele>
        <time>2026-06-17T08:48:35.000Z</time>
      </trkpt>
      <trkpt lat="48.57055" lon="1.08489">
        <ele>199.19999694824</ele>
        <time>2026-06-17T08:48:36.000Z</time>
      </trkpt>
      <trkpt lat="48.57052" lon="1.08482">
        <ele>199.39999389648</ele>
        <time>2026-06-17T08:48:37.000Z</time>
      </trkpt>
      <trkpt lat="48.57049" lon="1.08474">
        <ele>199.39999389648</ele>
        <time>2026-06-17T08:48:38.000Z</time>
      </trkpt>
      <trkpt lat="48.57046" lon="1.08464">
        <ele>199.39999389648</ele>
        <time>2026-06-17T08:48:39.000Z</time>
      </trkpt>
      <trkpt lat="48.5704" lon="1.08447">
        <ele>199.60000610352</ele>
        <time>2026-06-17T08:48:41.000Z</time>
      </trkpt>
      <trkpt lat="48.5703" lon="1.08423">
        <ele>199.80000305176</ele>
        <time>2026-06-17T08:48:44.000Z</time>
      </trkpt>
      <trkpt lat="48.57022" lon="1.08406">
        <ele>200</ele>
        <time>2026-06-17T08:48:46.000Z</time>
      </trkpt>
      <trkpt lat="48.57017" lon="1.08391">
        <ele>200.19999694824</ele>
        <time>2026-06-17T08:48:48.000Z</time>
      </trkpt>
      <trkpt lat="48.57014" lon="1.08372">
        <ele>200.39999389648</ele>
        <time>2026-06-17T08:48:50.000Z</time>
      </trkpt>
      <trkpt lat="48.57006" lon="1.08347">
        <ele>200.60000610352</ele>
        <time>2026-06-17T08:48:53.000Z</time>
      </trkpt>
      <trkpt lat="48.57003" lon="1.08338">
        <ele>200.80000305176</ele>
        <time>2026-06-17T08:48:54.000Z</time>
      </trkpt>
      <trkpt lat="48.56999" lon="1.08329">
        <ele>200.80000305176</ele>
        <time>2026-06-17T08:48:55.000Z</time>
      </trkpt>
      <trkpt lat="48.56991" lon="1.08306">
        <ele>201</ele>
        <time>2026-06-17T08:48:58.000Z</time>
      </trkpt>
      <trkpt lat="48.56987" lon="1.08293">
        <ele>201</ele>
        <time>2026-06-17T08:49:00.000Z</time>
      </trkpt>
      <trkpt lat="48.5698" lon="1.08272">
        <ele>201.19999694824</ele>
        <time>2026-06-17T08:49:03.000Z</time>
      </trkpt>
      <trkpt lat="48.56975" lon="1.08258">
        <ele>201.60000610352</ele>
        <time>2026-06-17T08:49:05.000Z</time>
      </trkpt>
      <trkpt lat="48.56968" lon="1.08237">
        <ele>201.80000305176</ele>
        <time>2026-06-17T08:49:08.000Z</time>
      </trkpt>
      <trkpt lat="48.56965" lon="1.08231">
        <ele>201.80000305176</ele>
        <time>2026-06-17T08:49:09.000Z</time>
      </trkpt>
      <trkpt lat="48.56959" lon="1.08218">
        <ele>202</ele>
        <time>2026-06-17T08:49:11.000Z</time>
      </trkpt>
      <trkpt lat="48.56957" lon="1.0821">
        <ele>202.19999694824</ele>
        <time>2026-06-17T08:49:12.000Z</time>
      </trkpt>
      <trkpt lat="48.56948" lon="1.08189">
        <ele>202.19999694824</ele>
        <time>2026-06-17T08:49:15.000Z</time>
      </trkpt>
      <trkpt lat="48.56942" lon="1.08166">
        <ele>202.39999389648</ele>
        <time>2026-06-17T08:49:18.000Z</time>
      </trkpt>
      <trkpt lat="48.56941" lon="1.08151">
        <ele>202.60000610352</ele>
        <time>2026-06-17T08:49:20.000Z</time>
      </trkpt>
      <trkpt lat="48.56938" lon="1.08143">
        <ele>202.80000305176</ele>
        <time>2026-06-17T08:49:21.000Z</time>
      </trkpt>
      <trkpt lat="48.56932" lon="1.08126">
        <ele>202.60000610352</ele>
        <time>2026-06-17T08:49:23.000Z</time>
      </trkpt>
      <trkpt lat="48.56925" lon="1.08107">
        <ele>203</ele>
        <time>2026-06-17T08:49:25.000Z</time>
      </trkpt>
      <trkpt lat="48.56922" lon="1.08096">
        <ele>203</ele>
        <time>2026-06-17T08:49:26.000Z</time>
      </trkpt>
      <trkpt lat="48.56916" lon="1.08072">
        <ele>203.19999694824</ele>
        <time>2026-06-17T08:49:29.000Z</time>
      </trkpt>
      <trkpt lat="48.56914" lon="1.08062">
        <ele>203.19999694824</ele>
        <time>2026-06-17T08:49:30.000Z</time>
      </trkpt>
      <trkpt lat="48.56914" lon="1.08043">
        <ele>203.60000610352</ele>
        <time>2026-06-17T08:49:32.000Z</time>
      </trkpt>
      <trkpt lat="48.56916" lon="1.08033">
        <ele>203.60000610352</ele>
        <time>2026-06-17T08:49:33.000Z</time>
      </trkpt>
      <trkpt lat="48.56913" lon="1.08021">
        <ele>203.80000305176</ele>
        <time>2026-06-17T08:49:34.000Z</time>
      </trkpt>
      <trkpt lat="48.56897" lon="1.07997">
        <ele>204.19999694824</ele>
        <time>2026-06-17T08:49:37.000Z</time>
      </trkpt>
      <trkpt lat="48.5689" lon="1.07979">
        <ele>204.39999389648</ele>
        <time>2026-06-17T08:49:39.000Z</time>
      </trkpt>
      <trkpt lat="48.56886" lon="1.07958">
        <ele>204.39999389648</ele>
        <time>2026-06-17T08:49:41.000Z</time>
      </trkpt>
      <trkpt lat="48.5688" lon="1.07932">
        <ele>204.80000305176</ele>
        <time>2026-06-17T08:49:44.000Z</time>
      </trkpt>
      <trkpt lat="48.56873" lon="1.07906">
        <ele>204.80000305176</ele>
        <time>2026-06-17T08:49:47.000Z</time>
      </trkpt>
      <trkpt lat="48.5685" lon="1.07832">
        <ele>205</ele>
        <time>2026-06-17T08:49:56.000Z</time>
      </trkpt>
      <trkpt lat="48.56843" lon="1.07808">
        <ele>205</ele>
        <time>2026-06-17T08:49:59.000Z</time>
      </trkpt>
      <trkpt lat="48.56817" lon="1.07727">
        <ele>205.39999389648</ele>
        <time>2026-06-17T08:50:09.000Z</time>
      </trkpt>
      <trkpt lat="48.56812" lon="1.07711">
        <ele>205.39999389648</ele>
        <time>2026-06-17T08:50:11.000Z</time>
      </trkpt>
      <trkpt lat="48.56797" lon="1.07666">
        <ele>205.80000305176</ele>
        <time>2026-06-17T08:50:17.000Z</time>
      </trkpt>
      <trkpt lat="48.56795" lon="1.07658">
        <ele>205.80000305176</ele>
        <time>2026-06-17T08:50:18.000Z</time>
      </trkpt>
      <trkpt lat="48.56772" lon="1.07584">
        <ele>206.60000610352</ele>
        <time>2026-06-17T08:50:28.000Z</time>
      </trkpt>
      <trkpt lat="48.56767" lon="1.0757">
        <ele>206.80000305176</ele>
        <time>2026-06-17T08:50:30.000Z</time>
      </trkpt>
      <trkpt lat="48.56765" lon="1.07563">
        <ele>207</ele>
        <time>2026-06-17T08:50:31.000Z</time>
      </trkpt>
      <trkpt lat="48.56744" lon="1.07498">
        <ele>207.80000305176</ele>
        <time>2026-06-17T08:50:40.000Z</time>
      </trkpt>
      <trkpt lat="48.56737" lon="1.07477">
        <ele>208</ele>
        <time>2026-06-17T08:50:43.000Z</time>
      </trkpt>
      <trkpt lat="48.56718" lon="1.07417">
        <ele>209</ele>
        <time>2026-06-17T08:50:51.000Z</time>
      </trkpt>
      <trkpt lat="48.56714" lon="1.07402">
        <ele>209.19999694824</ele>
        <time>2026-06-17T08:50:53.000Z</time>
      </trkpt>
      <trkpt lat="48.5669" lon="1.07329">
        <ele>209.80000305176</ele>
        <time>2026-06-17T08:51:03.000Z</time>
      </trkpt>
      <trkpt lat="48.56677" lon="1.07283">
        <ele>210.39999389648</ele>
        <time>2026-06-17T08:51:09.000Z</time>
      </trkpt>
      <trkpt lat="48.5667" lon="1.07262">
        <ele>210.60000610352</ele>
        <time>2026-06-17T08:51:12.000Z</time>
      </trkpt>
      <trkpt lat="48.56659" lon="1.07225">
        <ele>211.39999389648</ele>
        <time>2026-06-17T08:51:17.000Z</time>
      </trkpt>
      <trkpt lat="48.56645" lon="1.07182">
        <ele>211.80000305176</ele>
        <time>2026-06-17T08:51:23.000Z</time>
      </trkpt>
      <trkpt lat="48.56624" lon="1.07115">
        <ele>212.39999389648</ele>
        <time>2026-06-17T08:51:32.000Z</time>
      </trkpt>
      <trkpt lat="48.5661" lon="1.07071">
        <ele>213</ele>
        <time>2026-06-17T08:51:38.000Z</time>
      </trkpt>
      <trkpt lat="48.56599" lon="1.07036">
        <ele>213.60000610352</ele>
        <time>2026-06-17T08:51:43.000Z</time>
      </trkpt>
      <trkpt lat="48.56587" lon="1.06997">
        <ele>213.80000305176</ele>
        <time>2026-06-17T08:51:48.000Z</time>
      </trkpt>
      <trkpt lat="48.56566" lon="1.06932">
        <ele>214.60000610352</ele>
        <time>2026-06-17T08:51:57.000Z</time>
      </trkpt>
      <trkpt lat="48.56559" lon="1.0691">
        <ele>214.80000305176</ele>
        <time>2026-06-17T08:52:00.000Z</time>
      </trkpt>
      <trkpt lat="48.56539" lon="1.06843">
        <ele>215.60000610352</ele>
        <time>2026-06-17T08:52:09.000Z</time>
      </trkpt>
      <trkpt lat="48.56528" lon="1.0678">
        <ele>216.39999389648</ele>
        <time>2026-06-17T08:52:17.000Z</time>
      </trkpt>
      <trkpt lat="48.56525" lon="1.06748">
        <ele>216.60000610352</ele>
        <time>2026-06-17T08:52:21.000Z</time>
      </trkpt>
      <trkpt lat="48.56518" lon="1.06711">
        <ele>216.80000305176</ele>
        <time>2026-06-17T08:52:26.000Z</time>
      </trkpt>
      <trkpt lat="48.56507" lon="1.0666">
        <ele>216.80000305176</ele>
        <time>2026-06-17T08:52:33.000Z</time>
      </trkpt>
      <trkpt lat="48.56491" lon="1.06584">
        <ele>217</ele>
        <time>2026-06-17T08:52:43.000Z</time>
      </trkpt>
      <trkpt lat="48.56473" lon="1.06501">
        <ele>217</ele>
        <time>2026-06-17T08:52:54.000Z</time>
      </trkpt>
      <trkpt lat="48.5647" lon="1.06486">
        <ele>217</ele>
        <time>2026-06-17T08:52:56.000Z</time>
      </trkpt>
      <trkpt lat="48.56454" lon="1.0641">
        <ele>217</ele>
        <time>2026-06-17T08:53:06.000Z</time>
      </trkpt>
      <trkpt lat="48.56436" lon="1.06329">
        <ele>217</ele>
        <time>2026-06-17T08:53:17.000Z</time>
      </trkpt>
      <trkpt lat="48.56422" lon="1.06279">
        <ele>217.60000610352</ele>
        <time>2026-06-17T08:53:24.000Z</time>
      </trkpt>
      <trkpt lat="48.56417" lon="1.06266">
        <ele>217.80000305176</ele>
        <time>2026-06-17T08:53:26.000Z</time>
      </trkpt>
      <trkpt lat="48.56391" lon="1.062">
        <ele>218.60000610352</ele>
        <time>2026-06-17T08:53:36.000Z</time>
      </trkpt>
      <trkpt lat="48.56387" lon="1.06187">
        <ele>218.80000305176</ele>
        <time>2026-06-17T08:53:38.000Z</time>
      </trkpt>
      <trkpt lat="48.56376" lon="1.06156">
        <ele>219.19999694824</ele>
        <time>2026-06-17T08:53:43.000Z</time>
      </trkpt>
      <trkpt lat="48.56369" lon="1.06123">
        <ele>219.19999694824</ele>
        <time>2026-06-17T08:53:47.000Z</time>
      </trkpt>
      <trkpt lat="48.5636" lon="1.06059">
        <ele>219.80000305176</ele>
        <time>2026-06-17T08:53:55.000Z</time>
      </trkpt>
      <trkpt lat="48.56343" lon="1.05998">
        <ele>219.80000305176</ele>
        <time>2026-06-17T08:54:03.000Z</time>
      </trkpt>
      <trkpt lat="48.56313" lon="1.05922">
        <ele>220.60000610352</ele>
        <time>2026-06-17T08:54:14.000Z</time>
      </trkpt>
      <trkpt lat="48.56311" lon="1.05914">
        <ele>220.60000610352</ele>
        <time>2026-06-17T08:54:15.000Z</time>
      </trkpt>
      <trkpt lat="48.56303" lon="1.05892">
        <ele>220.80000305176</ele>
        <time>2026-06-17T08:54:18.000Z</time>
      </trkpt>
      <trkpt lat="48.56282" lon="1.05835">
        <ele>221.19999694824</ele>
        <time>2026-06-17T08:54:26.000Z</time>
      </trkpt>
      <trkpt lat="48.56258" lon="1.05772">
        <ele>221.60000610352</ele>
        <time>2026-06-17T08:54:35.000Z</time>
      </trkpt>
      <trkpt lat="48.5625" lon="1.0575">
        <ele>221.80000305176</ele>
        <time>2026-06-17T08:54:38.000Z</time>
      </trkpt>
      <trkpt lat="48.56237" lon="1.05716">
        <ele>222.19999694824</ele>
        <time>2026-06-17T08:54:43.000Z</time>
      </trkpt>
      <trkpt lat="48.56209" lon="1.05639">
        <ele>222.80000305176</ele>
        <time>2026-06-17T08:54:53.000Z</time>
      </trkpt>
      <trkpt lat="48.56206" lon="1.05632">
        <ele>222.80000305176</ele>
        <time>2026-06-17T08:54:54.000Z</time>
      </trkpt>
      <trkpt lat="48.56204" lon="1.05624">
        <ele>222.80000305176</ele>
        <time>2026-06-17T08:54:55.000Z</time>
      </trkpt>
      <trkpt lat="48.56182" lon="1.05552">
        <ele>223</ele>
        <time>2026-06-17T08:55:04.000Z</time>
      </trkpt>
      <trkpt lat="48.56162" lon="1.05469">
        <ele>223</ele>
        <time>2026-06-17T08:55:14.000Z</time>
      </trkpt>
      <trkpt lat="48.56158" lon="1.05452">
        <ele>223</ele>
        <time>2026-06-17T08:55:16.000Z</time>
      </trkpt>
      <trkpt lat="48.56138" lon="1.05373">
        <ele>222.19999694824</ele>
        <time>2026-06-17T08:55:26.000Z</time>
      </trkpt>
      <trkpt lat="48.56136" lon="1.05366">
        <ele>222</ele>
        <time>2026-06-17T08:55:27.000Z</time>
      </trkpt>
      <trkpt lat="48.56132" lon="1.0535">
        <ele>221.80000305176</ele>
        <time>2026-06-17T08:55:29.000Z</time>
      </trkpt>
      <trkpt lat="48.56111" lon="1.0528">
        <ele>221.39999389648</ele>
        <time>2026-06-17T08:55:38.000Z</time>
      </trkpt>
      <trkpt lat="48.56085" lon="1.05199">
        <ele>221</ele>
        <time>2026-06-17T08:55:48.000Z</time>
      </trkpt>
      <trkpt lat="48.56082" lon="1.05191">
        <ele>221</ele>
        <time>2026-06-17T08:55:49.000Z</time>
      </trkpt>
      <trkpt lat="48.56079" lon="1.05183">
        <ele>221</ele>
        <time>2026-06-17T08:55:50.000Z</time>
      </trkpt>
      <trkpt lat="48.56053" lon="1.05103">
        <ele>220.80000305176</ele>
        <time>2026-06-17T08:56:00.000Z</time>
      </trkpt>
      <trkpt lat="48.5605" lon="1.05095">
        <ele>220.60000610352</ele>
        <time>2026-06-17T08:56:01.000Z</time>
      </trkpt>
      <trkpt lat="48.56024" lon="1.05022">
        <ele>220.19999694824</ele>
        <time>2026-06-17T08:56:10.000Z</time>
      </trkpt>
      <trkpt lat="48.56022" lon="1.05014">
        <ele>220.19999694824</ele>
        <time>2026-06-17T08:56:11.000Z</time>
      </trkpt>
      <trkpt lat="48.55995" lon="1.04938">
        <ele>220</ele>
        <time>2026-06-17T08:56:21.000Z</time>
      </trkpt>
      <trkpt lat="48.5599" lon="1.04923">
        <ele>220</ele>
        <time>2026-06-17T08:56:23.000Z</time>
      </trkpt>
      <trkpt lat="48.55978" lon="1.04884">
        <ele>220.19999694824</ele>
        <time>2026-06-17T08:56:28.000Z</time>
      </trkpt>
      <trkpt lat="48.55964" lon="1.04818">
        <ele>220.19999694824</ele>
        <time>2026-06-17T08:56:36.000Z</time>
      </trkpt>
      <trkpt lat="48.55956" lon="1.04746">
        <ele>220.19999694824</ele>
        <time>2026-06-17T08:56:45.000Z</time>
      </trkpt>
      <trkpt lat="48.55949" lon="1.04689">
        <ele>220.60000610352</ele>
        <time>2026-06-17T08:56:52.000Z</time>
      </trkpt>
      <trkpt lat="48.55947" lon="1.04638">
        <ele>220.19999694824</ele>
        <time>2026-06-17T08:56:58.000Z</time>
      </trkpt>
      <trkpt lat="48.55949" lon="1.04622">
        <ele>220.19999694824</ele>
        <time>2026-06-17T08:57:00.000Z</time>
      </trkpt>
      <trkpt lat="48.55953" lon="1.04599">
        <ele>220.19999694824</ele>
        <time>2026-06-17T08:57:03.000Z</time>
      </trkpt>
      <trkpt lat="48.55959" lon="1.04576">
        <ele>220.19999694824</ele>
        <time>2026-06-17T08:57:06.000Z</time>
      </trkpt>
      <trkpt lat="48.55963" lon="1.04551">
        <ele>220</ele>
        <time>2026-06-17T08:57:09.000Z</time>
      </trkpt>
      <trkpt lat="48.55961" lon="1.04534">
        <ele>220</ele>
        <time>2026-06-17T08:57:11.000Z</time>
      </trkpt>
      <trkpt lat="48.55959" lon="1.04527">
        <ele>220</ele>
        <time>2026-06-17T08:57:12.000Z</time>
      </trkpt>
      <trkpt lat="48.55956" lon="1.04511">
        <ele>219.80000305176</ele>
        <time>2026-06-17T08:57:14.000Z</time>
      </trkpt>
      <trkpt lat="48.55953" lon="1.04488">
        <ele>219.60000610352</ele>
        <time>2026-06-17T08:57:17.000Z</time>
      </trkpt>
      <trkpt lat="48.55936" lon="1.04424">
        <ele>219.19999694824</ele>
        <time>2026-06-17T08:57:25.000Z</time>
      </trkpt>
      <trkpt lat="48.55918" lon="1.04371">
        <ele>219.19999694824</ele>
        <time>2026-06-17T08:57:31.000Z</time>
      </trkpt>
      <trkpt lat="48.5591" lon="1.04346">
        <ele>219</ele>
        <time>2026-06-17T08:57:34.000Z</time>
      </trkpt>
      <trkpt lat="48.55905" lon="1.04329">
        <ele>218.80000305176</ele>
        <time>2026-06-17T08:57:36.000Z</time>
      </trkpt>
      <trkpt lat="48.559" lon="1.04312">
        <ele>218.80000305176</ele>
        <time>2026-06-17T08:57:38.000Z</time>
      </trkpt>
      <trkpt lat="48.55897" lon="1.04303">
        <ele>218.60000610352</ele>
        <time>2026-06-17T08:57:39.000Z</time>
      </trkpt>
      <trkpt lat="48.55878" lon="1.04251">
        <ele>218.19999694824</ele>
        <time>2026-06-17T08:57:46.000Z</time>
      </trkpt>
      <trkpt lat="48.5587" lon="1.04244">
        <ele>218</ele>
        <time>2026-06-17T08:57:48.000Z</time>
      </trkpt>
      <trkpt lat="48.55864" lon="1.04244">
        <ele>217.80000305176</ele>
        <time>2026-06-17T08:57:49.000Z</time>
      </trkpt>
      <trkpt lat="48.5586" lon="1.04246">
        <ele>217.80000305176</ele>
        <time>2026-06-17T08:57:50.000Z</time>
      </trkpt>
      <trkpt lat="48.55857" lon="1.0425">
        <ele>217.80000305176</ele>
        <time>2026-06-17T08:57:51.000Z</time>
      </trkpt>
      <trkpt lat="48.55843" lon="1.04267">
        <ele>217.60000610352</ele>
        <time>2026-06-17T08:57:55.000Z</time>
      </trkpt>
      <trkpt lat="48.55835" lon="1.04271">
        <ele>217.60000610352</ele>
        <time>2026-06-17T08:57:57.000Z</time>
      </trkpt>
      <trkpt lat="48.55828" lon="1.04264">
        <ele>217.80000305176</ele>
        <time>2026-06-17T08:57:59.000Z</time>
      </trkpt>
      <trkpt lat="48.55824" lon="1.04259">
        <ele>217.80000305176</ele>
        <time>2026-06-17T08:58:00.000Z</time>
      </trkpt>
      <trkpt lat="48.5582" lon="1.04255">
        <ele>217.80000305176</ele>
        <time>2026-06-17T08:58:01.000Z</time>
      </trkpt>
      <trkpt lat="48.55809" lon="1.04243">
        <ele>217.80000305176</ele>
        <time>2026-06-17T08:58:04.000Z</time>
      </trkpt>
      <trkpt lat="48.558" lon="1.04238">
        <ele>218</ele>
        <time>2026-06-17T08:58:06.000Z</time>
      </trkpt>
      <trkpt lat="48.55795" lon="1.04236">
        <ele>218</ele>
        <time>2026-06-17T08:58:07.000Z</time>
      </trkpt>
      <trkpt lat="48.55783" lon="1.04238">
        <ele>218</ele>
        <time>2026-06-17T08:58:09.000Z</time>
      </trkpt>
      <trkpt lat="48.55779" lon="1.04242">
        <ele>218</ele>
        <time>2026-06-17T08:58:10.000Z</time>
      </trkpt>
      <trkpt lat="48.55773" lon="1.04256">
        <ele>218</ele>
        <time>2026-06-17T08:58:13.000Z</time>
      </trkpt>
      <trkpt lat="48.55771" lon="1.04269">
        <ele>217.80000305176</ele>
        <time>2026-06-17T08:58:17.000Z</time>
      </trkpt>
      <trkpt lat="48.55772" lon="1.04271">
        <ele>217.60000610352</ele>
        <time>2026-06-17T08:58:22.000Z</time>
      </trkpt>
      <trkpt lat="48.55773" lon="1.04279">
        <ele>217.19999694824</ele>
        <time>2026-06-17T08:58:29.000Z</time>
      </trkpt>
      <trkpt lat="48.55773" lon="1.04279">
        <ele>217.19999694824</ele>
        <time>2026-06-17T08:58:37.000Z</time>
      </trkpt>
      <trkpt lat="48.55773" lon="1.04279">
        <ele>217.39999389648</ele>
        <time>2026-06-17T08:58:44.000Z</time>
      </trkpt>
      <trkpt lat="48.55775" lon="1.04277">
        <ele>217.39999389648</ele>
        <time>2026-06-17T08:58:46.000Z</time>
      </trkpt>
      <trkpt lat="48.55784" lon="1.0426">
        <ele>217.39999389648</ele>
        <time>2026-06-17T08:58:52.000Z</time>
      </trkpt>
      <trkpt lat="48.55795" lon="1.04236">
        <ele>217.39999389648</ele>
        <time>2026-06-17T08:58:57.000Z</time>
      </trkpt>
      <trkpt lat="48.55797" lon="1.04233">
        <ele>217.39999389648</ele>
        <time>2026-06-17T08:58:58.000Z</time>
      </trkpt>
      <trkpt lat="48.55805" lon="1.04237">
        <ele>217.39999389648</ele>
        <time>2026-06-17T08:59:00.000Z</time>
      </trkpt>
      <trkpt lat="48.55809" lon="1.04241">
        <ele>217.39999389648</ele>
        <time>2026-06-17T08:59:01.000Z</time>
      </trkpt>
      <trkpt lat="48.55825" lon="1.04258">
        <ele>217.39999389648</ele>
        <time>2026-06-17T08:59:05.000Z</time>
      </trkpt>
      <trkpt lat="48.55829" lon="1.04263">
        <ele>217.39999389648</ele>
        <time>2026-06-17T08:59:06.000Z</time>
      </trkpt>
      <trkpt lat="48.55839" lon="1.04272">
        <ele>217.60000610352</ele>
        <time>2026-06-17T08:59:09.000Z</time>
      </trkpt>
      <trkpt lat="48.55847" lon="1.04267">
        <ele>217.39999389648</ele>
        <time>2026-06-17T08:59:11.000Z</time>
      </trkpt>
      <trkpt lat="48.55851" lon="1.04263">
        <ele>217.39999389648</ele>
        <time>2026-06-17T08:59:12.000Z</time>
      </trkpt>
      <trkpt lat="48.55854" lon="1.04258">
        <ele>217.39999389648</ele>
        <time>2026-06-17T08:59:13.000Z</time>
      </trkpt>
      <trkpt lat="48.55865" lon="1.04241">
        <ele>217.19999694824</ele>
        <time>2026-06-17T08:59:17.000Z</time>
      </trkpt>
      <trkpt lat="48.55867" lon="1.04231">
        <ele>217.19999694824</ele>
        <time>2026-06-17T08:59:19.000Z</time>
      </trkpt>
      <trkpt lat="48.55865" lon="1.04225">
        <ele>217.19999694824</ele>
        <time>2026-06-17T08:59:20.000Z</time>
      </trkpt>
      <trkpt lat="48.55855" lon="1.04195">
        <ele>217</ele>
        <time>2026-06-17T08:59:24.000Z</time>
      </trkpt>
      <trkpt lat="48.55849" lon="1.04177">
        <ele>216.80000305176</ele>
        <time>2026-06-17T08:59:26.000Z</time>
      </trkpt>
      <trkpt lat="48.55843" lon="1.0416">
        <ele>216.60000610352</ele>
        <time>2026-06-17T08:59:28.000Z</time>
      </trkpt>
      <trkpt lat="48.55832" lon="1.0412">
        <ele>216</ele>
        <time>2026-06-17T08:59:32.000Z</time>
      </trkpt>
      <trkpt lat="48.55829" lon="1.0411">
        <ele>215.80000305176</ele>
        <time>2026-06-17T08:59:33.000Z</time>
      </trkpt>
      <trkpt lat="48.55826" lon="1.041">
        <ele>215.60000610352</ele>
        <time>2026-06-17T08:59:34.000Z</time>
      </trkpt>
      <trkpt lat="48.55817" lon="1.0406">
        <ele>214.80000305176</ele>
        <time>2026-06-17T08:59:38.000Z</time>
      </trkpt>
      <trkpt lat="48.55817" lon="1.04052">
        <ele>214.39999389648</ele>
        <time>2026-06-17T08:59:39.000Z</time>
      </trkpt>
      <trkpt lat="48.55816" lon="1.04045">
        <ele>214</ele>
        <time>2026-06-17T08:59:40.000Z</time>
      </trkpt>
      <trkpt lat="48.55814" lon="1.0404">
        <ele>213.19999694824</ele>
        <time>2026-06-17T08:59:41.000Z</time>
      </trkpt>
      <trkpt lat="48.55811" lon="1.04036">
        <ele>213</ele>
        <time>2026-06-17T08:59:42.000Z</time>
      </trkpt>
      <trkpt lat="48.55794" lon="1.04024">
        <ele>212.39999389648</ele>
        <time>2026-06-17T08:59:46.000Z</time>
      </trkpt>
      <trkpt lat="48.55789" lon="1.0402">
        <ele>212.19999694824</ele>
        <time>2026-06-17T08:59:47.000Z</time>
      </trkpt>
      <trkpt lat="48.5578" lon="1.04013">
        <ele>212</ele>
        <time>2026-06-17T08:59:49.000Z</time>
      </trkpt>
      <trkpt lat="48.5577" lon="1.0401">
        <ele>211.80000305176</ele>
        <time>2026-06-17T08:59:51.000Z</time>
      </trkpt>
      <trkpt lat="48.55759" lon="1.04009">
        <ele>211.80000305176</ele>
        <time>2026-06-17T08:59:53.000Z</time>
      </trkpt>
      <trkpt lat="48.5575" lon="1.04012">
        <ele>211.80000305176</ele>
        <time>2026-06-17T08:59:55.000Z</time>
      </trkpt>
      <trkpt lat="48.55742" lon="1.04019">
        <ele>212</ele>
        <time>2026-06-17T08:59:57.000Z</time>
      </trkpt>
      <trkpt lat="48.55739" lon="1.04024">
        <ele>212</ele>
        <time>2026-06-17T08:59:58.000Z</time>
      </trkpt>
      <trkpt lat="48.55736" lon="1.0403">
        <ele>212.39999389648</ele>
        <time>2026-06-17T08:59:59.000Z</time>
      </trkpt>
      <trkpt lat="48.55727" lon="1.04049">
        <ele>213.19999694824</ele>
        <time>2026-06-17T09:00:02.000Z</time>
      </trkpt>
      <trkpt lat="48.55723" lon="1.04055">
        <ele>213.19999694824</ele>
        <time>2026-06-17T09:00:03.000Z</time>
      </trkpt>
      <trkpt lat="48.55719" lon="1.04061">
        <ele>213.39999389648</ele>
        <time>2026-06-17T09:00:04.000Z</time>
      </trkpt>
      <trkpt lat="48.55708" lon="1.0409">
        <ele>213.80000305176</ele>
        <time>2026-06-17T09:00:08.000Z</time>
      </trkpt>
      <trkpt lat="48.55704" lon="1.04097">
        <ele>213.80000305176</ele>
        <time>2026-06-17T09:00:09.000Z</time>
      </trkpt>
      <trkpt lat="48.55701" lon="1.04103">
        <ele>214</ele>
        <time>2026-06-17T09:00:10.000Z</time>
      </trkpt>
      <trkpt lat="48.55687" lon="1.04132">
        <ele>214.39999389648</ele>
        <time>2026-06-17T09:00:14.000Z</time>
      </trkpt>
      <trkpt lat="48.55676" lon="1.04163">
        <ele>214.60000610352</ele>
        <time>2026-06-17T09:00:19.000Z</time>
      </trkpt>
      <trkpt lat="48.55669" lon="1.04179">
        <ele>214.60000610352</ele>
        <time>2026-06-17T09:00:23.000Z</time>
      </trkpt>
      <trkpt lat="48.5567" lon="1.04178">
        <ele>214.39999389648</ele>
        <time>2026-06-17T09:00:27.000Z</time>
      </trkpt>
      <trkpt lat="48.55672" lon="1.04181">
        <ele>214</ele>
        <time>2026-06-17T09:00:34.000Z</time>
      </trkpt>
      <trkpt lat="48.55672" lon="1.04181">
        <ele>213.80000305176</ele>
        <time>2026-06-17T09:00:42.000Z</time>
      </trkpt>
      <trkpt lat="48.55672" lon="1.04181">
        <ele>213.80000305176</ele>
        <time>2026-06-17T09:00:44.000Z</time>
      </trkpt>
      <trkpt lat="48.55673" lon="1.04182">
        <ele>213.19999694824</ele>
        <time>2026-06-17T09:01:06.000Z</time>
      </trkpt>
      <trkpt lat="48.55673" lon="1.04182">
        <ele>213</ele>
        <time>2026-06-17T09:01:18.000Z</time>
      </trkpt>
      <trkpt lat="48.55668" lon="1.04187">
        <ele>213</ele>
        <time>2026-06-17T09:01:40.000Z</time>
      </trkpt>
      <trkpt lat="48.55662" lon="1.04204">
        <ele>213.19999694824</ele>
        <time>2026-06-17T09:01:45.000Z</time>
      </trkpt>
      <trkpt lat="48.5566" lon="1.04208">
        <ele>213.19999694824</ele>
        <time>2026-06-17T09:01:46.000Z</time>
      </trkpt>
      <trkpt lat="48.55652" lon="1.04233">
        <ele>213.39999389648</ele>
        <time>2026-06-17T09:01:51.000Z</time>
      </trkpt>
      <trkpt lat="48.5564" lon="1.04274">
        <ele>213.80000305176</ele>
        <time>2026-06-17T09:01:58.000Z</time>
      </trkpt>
      <trkpt lat="48.55629" lon="1.04314">
        <ele>214.19999694824</ele>
        <time>2026-06-17T09:02:05.000Z</time>
      </trkpt>
      <trkpt lat="48.55627" lon="1.0432">
        <ele>214.19999694824</ele>
        <time>2026-06-17T09:02:06.000Z</time>
      </trkpt>
      <trkpt lat="48.5562" lon="1.04347">
        <ele>214.60000610352</ele>
        <time>2026-06-17T09:02:10.000Z</time>
      </trkpt>
      <trkpt lat="48.55612" lon="1.04378">
        <ele>214.60000610352</ele>
        <time>2026-06-17T09:02:15.000Z</time>
      </trkpt>
      <trkpt lat="48.55604" lon="1.04404">
        <ele>214.60000610352</ele>
        <time>2026-06-17T09:02:19.000Z</time>
      </trkpt>
      <trkpt lat="48.556" lon="1.04418">
        <ele>214.60000610352</ele>
        <time>2026-06-17T09:02:21.000Z</time>
      </trkpt>
      <trkpt lat="48.55591" lon="1.04446">
        <ele>214.60000610352</ele>
        <time>2026-06-17T09:02:25.000Z</time>
      </trkpt>
      <trkpt lat="48.55567" lon="1.04503">
        <ele>214.19999694824</ele>
        <time>2026-06-17T09:02:34.000Z</time>
      </trkpt>
      <trkpt lat="48.55537" lon="1.04568">
        <ele>213.80000305176</ele>
        <time>2026-06-17T09:02:44.000Z</time>
      </trkpt>
      <trkpt lat="48.55521" lon="1.04604">
        <ele>213.80000305176</ele>
        <time>2026-06-17T09:02:49.000Z</time>
      </trkpt>
      <trkpt lat="48.55512" lon="1.04624">
        <ele>213.80000305176</ele>
        <time>2026-06-17T09:02:52.000Z</time>
      </trkpt>
      <trkpt lat="48.55509" lon="1.04632">
        <ele>214</ele>
        <time>2026-06-17T09:02:53.000Z</time>
      </trkpt>
      <trkpt lat="48.55491" lon="1.04685">
        <ele>214.39999389648</ele>
        <time>2026-06-17T09:03:00.000Z</time>
      </trkpt>
      <trkpt lat="48.55477" lon="1.04738">
        <ele>215</ele>
        <time>2026-06-17T09:03:07.000Z</time>
      </trkpt>
      <trkpt lat="48.55464" lon="1.04793">
        <ele>215.39999389648</ele>
        <time>2026-06-17T09:03:14.000Z</time>
      </trkpt>
      <trkpt lat="48.55456" lon="1.04826">
        <ele>215.39999389648</ele>
        <time>2026-06-17T09:03:18.000Z</time>
      </trkpt>
      <trkpt lat="48.55441" lon="1.04906">
        <ele>216</ele>
        <time>2026-06-17T09:03:27.000Z</time>
      </trkpt>
      <trkpt lat="48.55437" lon="1.04925">
        <ele>216.19999694824</ele>
        <time>2026-06-17T09:03:29.000Z</time>
      </trkpt>
      <trkpt lat="48.55434" lon="1.04945">
        <ele>216.39999389648</ele>
        <time>2026-06-17T09:03:31.000Z</time>
      </trkpt>
      <trkpt lat="48.55423" lon="1.05012">
        <ele>217.39999389648</ele>
        <time>2026-06-17T09:03:38.000Z</time>
      </trkpt>
      <trkpt lat="48.5542" lon="1.05029">
        <ele>217.39999389648</ele>
        <time>2026-06-17T09:03:40.000Z</time>
      </trkpt>
      <trkpt lat="48.55411" lon="1.05071">
        <ele>217.60000610352</ele>
        <time>2026-06-17T09:03:45.000Z</time>
      </trkpt>
      <trkpt lat="48.55407" lon="1.05087">
        <ele>217.60000610352</ele>
        <time>2026-06-17T09:03:47.000Z</time>
      </trkpt>
      <trkpt lat="48.55394" lon="1.05144">
        <ele>217.80000305176</ele>
        <time>2026-06-17T09:03:54.000Z</time>
      </trkpt>
      <trkpt lat="48.55377" lon="1.05213">
        <ele>218.39999389648</ele>
        <time>2026-06-17T09:04:03.000Z</time>
      </trkpt>
      <trkpt lat="48.55368" lon="1.05244">
        <ele>218.80000305176</ele>
        <time>2026-06-17T09:04:07.000Z</time>
      </trkpt>
      <trkpt lat="48.55355" lon="1.05297">
        <ele>219.60000610352</ele>
        <time>2026-06-17T09:04:15.000Z</time>
      </trkpt>
      <trkpt lat="48.55351" lon="1.05312">
        <ele>219.80000305176</ele>
        <time>2026-06-17T09:04:17.000Z</time>
      </trkpt>
      <trkpt lat="48.55341" lon="1.05346">
        <ele>220.80000305176</ele>
        <time>2026-06-17T09:04:23.000Z</time>
      </trkpt>
      <trkpt lat="48.55339" lon="1.05352">
        <ele>220.80000305176</ele>
        <time>2026-06-17T09:04:24.000Z</time>
      </trkpt>
      <trkpt lat="48.55327" lon="1.05393">
        <ele>221.80000305176</ele>
        <time>2026-06-17T09:04:32.000Z</time>
      </trkpt>
      <trkpt lat="48.55315" lon="1.05437">
        <ele>222.80000305176</ele>
        <time>2026-06-17T09:04:40.000Z</time>
      </trkpt>
      <trkpt lat="48.55312" lon="1.05448">
        <ele>222.80000305176</ele>
        <time>2026-06-17T09:04:42.000Z</time>
      </trkpt>
      <trkpt lat="48.55301" lon="1.0549">
        <ele>223.80000305176</ele>
        <time>2026-06-17T09:04:49.000Z</time>
      </trkpt>
      <trkpt lat="48.55297" lon="1.05504">
        <ele>223.80000305176</ele>
        <time>2026-06-17T09:04:51.000Z</time>
      </trkpt>
      <trkpt lat="48.55289" lon="1.05533">
        <ele>224.19999694824</ele>
        <time>2026-06-17T09:04:55.000Z</time>
      </trkpt>
      <trkpt lat="48.55274" lon="1.05595">
        <ele>225</ele>
        <time>2026-06-17T09:05:03.000Z</time>
      </trkpt>
      <trkpt lat="48.55272" lon="1.05603">
        <ele>225</ele>
        <time>2026-06-17T09:05:04.000Z</time>
      </trkpt>
      <trkpt lat="48.5526" lon="1.0566">
        <ele>225.19999694824</ele>
        <time>2026-06-17T09:05:11.000Z</time>
      </trkpt>
      <trkpt lat="48.55256" lon="1.05673">
        <ele>225</ele>
        <time>2026-06-17T09:05:13.000Z</time>
      </trkpt>
      <trkpt lat="48.5525" lon="1.05688">
        <ele>225</ele>
        <time>2026-06-17T09:05:15.000Z</time>
      </trkpt>
      <trkpt lat="48.55244" lon="1.05696">
        <ele>225</ele>
        <time>2026-06-17T09:05:16.000Z</time>
      </trkpt>
      <trkpt lat="48.55239" lon="1.05699">
        <ele>224.80000305176</ele>
        <time>2026-06-17T09:05:17.000Z</time>
      </trkpt>
      <trkpt lat="48.55227" lon="1.05698">
        <ele>224.80000305176</ele>
        <time>2026-06-17T09:05:19.000Z</time>
      </trkpt>
      <trkpt lat="48.55172" lon="1.05672">
        <ele>224.39999389648</ele>
        <time>2026-06-17T09:05:28.000Z</time>
      </trkpt>
      <trkpt lat="48.55154" lon="1.05664">
        <ele>224.19999694824</ele>
        <time>2026-06-17T09:05:31.000Z</time>
      </trkpt>
      <trkpt lat="48.55142" lon="1.05664">
        <ele>224</ele>
        <time>2026-06-17T09:05:33.000Z</time>
      </trkpt>
      <trkpt lat="48.5513" lon="1.0567">
        <ele>223.80000305176</ele>
        <time>2026-06-17T09:05:35.000Z</time>
      </trkpt>
      <trkpt lat="48.55126" lon="1.05675">
        <ele>223.60000610352</ele>
        <time>2026-06-17T09:05:36.000Z</time>
      </trkpt>
      <trkpt lat="48.55122" lon="1.05682">
        <ele>223.39999389648</ele>
        <time>2026-06-17T09:05:37.000Z</time>
      </trkpt>
      <trkpt lat="48.55113" lon="1.05705">
        <ele>223.19999694824</ele>
        <time>2026-06-17T09:05:40.000Z</time>
      </trkpt>
      <trkpt lat="48.55089" lon="1.05773">
        <ele>223.39999389648</ele>
        <time>2026-06-17T09:05:49.000Z</time>
      </trkpt>
      <trkpt lat="48.55073" lon="1.05821">
        <ele>223.39999389648</ele>
        <time>2026-06-17T09:05:56.000Z</time>
      </trkpt>
      <trkpt lat="48.55058" lon="1.05878">
        <ele>223.80000305176</ele>
        <time>2026-06-17T09:06:04.000Z</time>
      </trkpt>
      <trkpt lat="48.5504" lon="1.05954">
        <ele>224.60000610352</ele>
        <time>2026-06-17T09:06:14.000Z</time>
      </trkpt>
      <trkpt lat="48.55028" lon="1.05982">
        <ele>224.80000305176</ele>
        <time>2026-06-17T09:06:18.000Z</time>
      </trkpt>
      <trkpt lat="48.55021" lon="1.05995">
        <ele>225</ele>
        <time>2026-06-17T09:06:20.000Z</time>
      </trkpt>
      <trkpt lat="48.54991" lon="1.06032">
        <ele>225.39999389648</ele>
        <time>2026-06-17T09:06:27.000Z</time>
      </trkpt>
      <trkpt lat="48.54968" lon="1.0607">
        <ele>225.39999389648</ele>
        <time>2026-06-17T09:06:33.000Z</time>
      </trkpt>
      <trkpt lat="48.54937" lon="1.06132">
        <ele>225.60000610352</ele>
        <time>2026-06-17T09:06:42.000Z</time>
      </trkpt>
      <trkpt lat="48.54922" lon="1.06155">
        <ele>225.60000610352</ele>
        <time>2026-06-17T09:06:46.000Z</time>
      </trkpt>
      <trkpt lat="48.54913" lon="1.06165">
        <ele>226</ele>
        <time>2026-06-17T09:06:48.000Z</time>
      </trkpt>
      <trkpt lat="48.54899" lon="1.06179">
        <ele>226</ele>
        <time>2026-06-17T09:06:51.000Z</time>
      </trkpt>
      <trkpt lat="48.5487" lon="1.06206">
        <ele>226.80000305176</ele>
        <time>2026-06-17T09:06:57.000Z</time>
      </trkpt>
      <trkpt lat="48.54834" lon="1.06246">
        <ele>227</ele>
        <time>2026-06-17T09:07:05.000Z</time>
      </trkpt>
      <trkpt lat="48.54829" lon="1.06252">
        <ele>227</ele>
        <time>2026-06-17T09:07:06.000Z</time>
      </trkpt>
      <trkpt lat="48.54795" lon="1.06293">
        <ele>227.60000610352</ele>
        <time>2026-06-17T09:07:13.000Z</time>
      </trkpt>
      <trkpt lat="48.54775" lon="1.06316">
        <ele>228</ele>
        <time>2026-06-17T09:07:18.000Z</time>
      </trkpt>
      <trkpt lat="48.54767" lon="1.06324">
        <ele>228.19999694824</ele>
        <time>2026-06-17T09:07:20.000Z</time>
      </trkpt>
      <trkpt lat="48.54747" lon="1.06344">
        <ele>228.39999389648</ele>
        <time>2026-06-17T09:07:25.000Z</time>
      </trkpt>
      <trkpt lat="48.54702" lon="1.06383">
        <ele>229</ele>
        <time>2026-06-17T09:07:35.000Z</time>
      </trkpt>
      <trkpt lat="48.54688" lon="1.06395">
        <ele>229.19999694824</ele>
        <time>2026-06-17T09:07:38.000Z</time>
      </trkpt>
      <trkpt lat="48.54659" lon="1.06413">
        <ele>229.39999389648</ele>
        <time>2026-06-17T09:07:44.000Z</time>
      </trkpt>
      <trkpt lat="48.54618" lon="1.06434">
        <ele>229.80000305176</ele>
        <time>2026-06-17T09:07:52.000Z</time>
      </trkpt>
      <trkpt lat="48.54583" lon="1.06453">
        <ele>230.39999389648</ele>
        <time>2026-06-17T09:07:59.000Z</time>
      </trkpt>
      <trkpt lat="48.54553" lon="1.0647">
        <ele>230.80000305176</ele>
        <time>2026-06-17T09:08:05.000Z</time>
      </trkpt>
      <trkpt lat="48.54519" lon="1.06498">
        <ele>231.19999694824</ele>
        <time>2026-06-17T09:08:12.000Z</time>
      </trkpt>
      <trkpt lat="48.54517" lon="1.06499">
        <ele>231.39999389648</ele>
        <time>2026-06-17T09:08:13.000Z</time>
      </trkpt>
      <trkpt lat="48.54475" lon="1.06546">
        <ele>231.60000610352</ele>
        <time>2026-06-17T09:08:22.000Z</time>
      </trkpt>
      <trkpt lat="48.5444" lon="1.06596">
        <ele>232</ele>
        <time>2026-06-17T09:08:31.000Z</time>
      </trkpt>
      <trkpt lat="48.5443" lon="1.06613">
        <ele>232</ele>
        <time>2026-06-17T09:08:34.000Z</time>
      </trkpt>
      <trkpt lat="48.54424" lon="1.06622">
        <ele>232.19999694824</ele>
        <time>2026-06-17T09:08:36.000Z</time>
      </trkpt>
      <trkpt lat="48.54403" lon="1.06656">
        <ele>232.39999389648</ele>
        <time>2026-06-17T09:08:42.000Z</time>
      </trkpt>
      <trkpt lat="48.54395" lon="1.06669">
        <ele>232.39999389648</ele>
        <time>2026-06-17T09:08:44.000Z</time>
      </trkpt>
      <trkpt lat="48.54359" lon="1.06733">
        <ele>232.80000305176</ele>
        <time>2026-06-17T09:08:54.000Z</time>
      </trkpt>
      <trkpt lat="48.54329" lon="1.06789">
        <ele>233.19999694824</ele>
        <time>2026-06-17T09:09:03.000Z</time>
      </trkpt>
      <trkpt lat="48.54301" lon="1.0685">
        <ele>233.60000610352</ele>
        <time>2026-06-17T09:09:12.000Z</time>
      </trkpt>
      <trkpt lat="48.54299" lon="1.06857">
        <ele>233.60000610352</ele>
        <time>2026-06-17T09:09:13.000Z</time>
      </trkpt>
      <trkpt lat="48.54284" lon="1.06893">
        <ele>233.60000610352</ele>
        <time>2026-06-17T09:09:18.000Z</time>
      </trkpt>
      <trkpt lat="48.54276" lon="1.06902">
        <ele>233.80000305176</ele>
        <time>2026-06-17T09:09:20.000Z</time>
      </trkpt>
      <trkpt lat="48.54271" lon="1.06905">
        <ele>233.80000305176</ele>
        <time>2026-06-17T09:09:21.000Z</time>
      </trkpt>
      <trkpt lat="48.5426" lon="1.06903">
        <ele>233.80000305176</ele>
        <time>2026-06-17T09:09:23.000Z</time>
      </trkpt>
      <trkpt lat="48.54217" lon="1.06895">
        <ele>234.80000305176</ele>
        <time>2026-06-17T09:09:31.000Z</time>
      </trkpt>
      <trkpt lat="48.5417" lon="1.06887">
        <ele>235.80000305176</ele>
        <time>2026-06-17T09:09:40.000Z</time>
      </trkpt>
      <trkpt lat="48.54145" lon="1.06881">
        <ele>236.39999389648</ele>
        <time>2026-06-17T09:09:45.000Z</time>
      </trkpt>
      <trkpt lat="48.54119" lon="1.06875">
        <ele>237</ele>
        <time>2026-06-17T09:09:50.000Z</time>
      </trkpt>
      <trkpt lat="48.54082" lon="1.06865">
        <ele>237.80000305176</ele>
        <time>2026-06-17T09:09:57.000Z</time>
      </trkpt>
      <trkpt lat="48.54067" lon="1.06861">
        <ele>238</ele>
        <time>2026-06-17T09:10:00.000Z</time>
      </trkpt>
      <trkpt lat="48.54013" lon="1.06843">
        <ele>238.80000305176</ele>
        <time>2026-06-17T09:10:10.000Z</time>
      </trkpt>
      <trkpt lat="48.53995" lon="1.06836">
        <ele>239.19999694824</ele>
        <time>2026-06-17T09:10:14.000Z</time>
      </trkpt>
      <trkpt lat="48.53977" lon="1.06828">
        <ele>239.39999389648</ele>
        <time>2026-06-17T09:10:17.000Z</time>
      </trkpt>
      <trkpt lat="48.53953" lon="1.06816">
        <ele>240.19999694824</ele>
        <time>2026-06-17T09:10:22.000Z</time>
      </trkpt>
      <trkpt lat="48.53946" lon="1.06812">
        <ele>240.39999389648</ele>
        <time>2026-06-17T09:10:24.000Z</time>
      </trkpt>
      <trkpt lat="48.53931" lon="1.06805">
        <ele>241.19999694824</ele>
        <time>2026-06-17T09:10:28.000Z</time>
      </trkpt>
      <trkpt lat="48.53924" lon="1.06802">
        <ele>241.39999389648</ele>
        <time>2026-06-17T09:10:30.000Z</time>
      </trkpt>
      <trkpt lat="48.53911" lon="1.06794">
        <ele>241.80000305176</ele>
        <time>2026-06-17T09:10:33.000Z</time>
      </trkpt>
      <trkpt lat="48.53901" lon="1.06788">
        <ele>241.80000305176</ele>
        <time>2026-06-17T09:10:35.000Z</time>
      </trkpt>
      <trkpt lat="48.53874" lon="1.06774">
        <ele>242</ele>
        <time>2026-06-17T09:10:40.000Z</time>
      </trkpt>
      <trkpt lat="48.53848" lon="1.06755">
        <ele>241.80000305176</ele>
        <time>2026-06-17T09:10:44.000Z</time>
      </trkpt>
      <trkpt lat="48.5382" lon="1.06737">
        <ele>241.60000610352</ele>
        <time>2026-06-17T09:10:49.000Z</time>
      </trkpt>
      <trkpt lat="48.53788" lon="1.06711">
        <ele>241.60000610352</ele>
        <time>2026-06-17T09:10:55.000Z</time>
      </trkpt>
      <trkpt lat="48.5375" lon="1.06693">
        <ele>241.60000610352</ele>
        <time>2026-06-17T09:11:02.000Z</time>
      </trkpt>
      <trkpt lat="48.53723" lon="1.06674">
        <ele>241.80000305176</ele>
        <time>2026-06-17T09:11:07.000Z</time>
      </trkpt>
      <trkpt lat="48.53697" lon="1.06657">
        <ele>242.19999694824</ele>
        <time>2026-06-17T09:11:12.000Z</time>
      </trkpt>
      <trkpt lat="48.53653" lon="1.06625">
        <ele>243</ele>
        <time>2026-06-17T09:11:20.000Z</time>
      </trkpt>
      <trkpt lat="48.53635" lon="1.06614">
        <ele>243.19999694824</ele>
        <time>2026-06-17T09:11:24.000Z</time>
      </trkpt>
      <trkpt lat="48.53603" lon="1.06593">
        <ele>243.80000305176</ele>
        <time>2026-06-17T09:11:28.000Z</time>
      </trkpt>
      <trkpt lat="48.53599" lon="1.06588">
        <ele>244</ele>
        <time>2026-06-17T09:11:29.000Z</time>
      </trkpt>
      <trkpt lat="48.53587" lon="1.06582">
        <ele>244</ele>
        <time>2026-06-17T09:11:32.000Z</time>
      </trkpt>
      <trkpt lat="48.53583" lon="1.06579">
        <ele>244</ele>
        <time>2026-06-17T09:11:33.000Z</time>
      </trkpt>
      <trkpt lat="48.53558" lon="1.06562">
        <ele>244.39999389648</ele>
        <time>2026-06-17T09:11:39.000Z</time>
      </trkpt>
      <trkpt lat="48.53553" lon="1.0656">
        <ele>244.60000610352</ele>
        <time>2026-06-17T09:11:40.000Z</time>
      </trkpt>
      <trkpt lat="48.53549" lon="1.06556">
        <ele>244.60000610352</ele>
        <time>2026-06-17T09:11:41.000Z</time>
      </trkpt>
      <trkpt lat="48.53542" lon="1.06549">
        <ele>244.80000305176</ele>
        <time>2026-06-17T09:11:43.000Z</time>
      </trkpt>
      <trkpt lat="48.53538" lon="1.06545">
        <ele>244.80000305176</ele>
        <time>2026-06-17T09:11:44.000Z</time>
      </trkpt>
      <trkpt lat="48.53514" lon="1.0653">
        <ele>245</ele>
        <time>2026-06-17T09:11:49.000Z</time>
      </trkpt>
      <trkpt lat="48.53509" lon="1.06526">
        <ele>245.19999694824</ele>
        <time>2026-06-17T09:11:50.000Z</time>
      </trkpt>
      <trkpt lat="48.53487" lon="1.0651">
        <ele>245.80000305176</ele>
        <time>2026-06-17T09:11:55.000Z</time>
      </trkpt>
      <trkpt lat="48.53455" lon="1.06492">
        <ele>246</ele>
        <time>2026-06-17T09:12:00.000Z</time>
      </trkpt>
      <trkpt lat="48.53444" lon="1.06485">
        <ele>246.19999694824</ele>
        <time>2026-06-17T09:12:02.000Z</time>
      </trkpt>
      <trkpt lat="48.53422" lon="1.06467">
        <ele>246.39999389648</ele>
        <time>2026-06-17T09:12:06.000Z</time>
      </trkpt>
      <trkpt lat="48.53406" lon="1.06456">
        <ele>246.60000610352</ele>
        <time>2026-06-17T09:12:10.000Z</time>
      </trkpt>
      <trkpt lat="48.534" lon="1.06453">
        <ele>246.60000610352</ele>
        <time>2026-06-17T09:12:11.000Z</time>
      </trkpt>
      <trkpt lat="48.53375" lon="1.0644">
        <ele>247</ele>
        <time>2026-06-17T09:12:16.000Z</time>
      </trkpt>
      <trkpt lat="48.53343" lon="1.06415">
        <ele>247.60000610352</ele>
        <time>2026-06-17T09:12:22.000Z</time>
      </trkpt>
      <trkpt lat="48.53315" lon="1.06397">
        <ele>247.60000610352</ele>
        <time>2026-06-17T09:12:28.000Z</time>
      </trkpt>
      <trkpt lat="48.53284" lon="1.06376">
        <ele>247.60000610352</ele>
        <time>2026-06-17T09:12:33.000Z</time>
      </trkpt>
      <trkpt lat="48.53259" lon="1.06357">
        <ele>247.60000610352</ele>
        <time>2026-06-17T09:12:38.000Z</time>
      </trkpt>
      <trkpt lat="48.5324" lon="1.06344">
        <ele>247.60000610352</ele>
        <time>2026-06-17T09:12:42.000Z</time>
      </trkpt>
      <trkpt lat="48.53231" lon="1.06337">
        <ele>247.80000305176</ele>
        <time>2026-06-17T09:12:44.000Z</time>
      </trkpt>
      <trkpt lat="48.53207" lon="1.06322">
        <ele>248</ele>
        <time>2026-06-17T09:12:48.000Z</time>
      </trkpt>
      <trkpt lat="48.53202" lon="1.06319">
        <ele>248</ele>
        <time>2026-06-17T09:12:49.000Z</time>
      </trkpt>
      <trkpt lat="48.5319" lon="1.06304">
        <ele>248</ele>
        <time>2026-06-17T09:12:52.000Z</time>
      </trkpt>
      <trkpt lat="48.53155" lon="1.06285">
        <ele>248.39999389648</ele>
        <time>2026-06-17T09:12:59.000Z</time>
      </trkpt>
      <trkpt lat="48.53124" lon="1.06261">
        <ele>248.39999389648</ele>
        <time>2026-06-17T09:13:03.000Z</time>
      </trkpt>
      <trkpt lat="48.5311" lon="1.06254">
        <ele>248.39999389648</ele>
        <time>2026-06-17T09:13:06.000Z</time>
      </trkpt>
      <trkpt lat="48.53095" lon="1.06244">
        <ele>248.60000610352</ele>
        <time>2026-06-17T09:13:10.000Z</time>
      </trkpt>
      <trkpt lat="48.53084" lon="1.06236">
        <ele>249</ele>
        <time>2026-06-17T09:13:14.000Z</time>
      </trkpt>
      <trkpt lat="48.53062" lon="1.0622">
        <ele>249.39999389648</ele>
        <time>2026-06-17T09:13:20.000Z</time>
      </trkpt>
      <trkpt lat="48.5306" lon="1.06218">
        <ele>249.60000610352</ele>
        <time>2026-06-17T09:13:21.000Z</time>
      </trkpt>
      <trkpt lat="48.53044" lon="1.0621">
        <ele>249.80000305176</ele>
        <time>2026-06-17T09:13:25.000Z</time>
      </trkpt>
      <trkpt lat="48.53033" lon="1.06201">
        <ele>250</ele>
        <time>2026-06-17T09:13:27.000Z</time>
      </trkpt>
      <trkpt lat="48.53015" lon="1.06188">
        <ele>250.19999694824</ele>
        <time>2026-06-17T09:13:32.000Z</time>
      </trkpt>
      <trkpt lat="48.52987" lon="1.06173">
        <ele>250.60000610352</ele>
        <time>2026-06-17T09:13:37.000Z</time>
      </trkpt>
      <trkpt lat="48.52967" lon="1.0616">
        <ele>250.80000305176</ele>
        <time>2026-06-17T09:13:41.000Z</time>
      </trkpt>
      <trkpt lat="48.52945" lon="1.06143">
        <ele>251</ele>
        <time>2026-06-17T09:13:44.000Z</time>
      </trkpt>
      <trkpt lat="48.52911" lon="1.06118">
        <ele>251.39999389648</ele>
        <time>2026-06-17T09:13:49.000Z</time>
      </trkpt>
      <trkpt lat="48.52871" lon="1.06093">
        <ele>251.80000305176</ele>
        <time>2026-06-17T09:13:57.000Z</time>
      </trkpt>
      <trkpt lat="48.52866" lon="1.0609">
        <ele>252</ele>
        <time>2026-06-17T09:13:58.000Z</time>
      </trkpt>
      <trkpt lat="48.5285" lon="1.06075">
        <ele>252</ele>
        <time>2026-06-17T09:14:01.000Z</time>
      </trkpt>
      <trkpt lat="48.52827" lon="1.0606">
        <ele>252</ele>
        <time>2026-06-17T09:14:06.000Z</time>
      </trkpt>
      <trkpt lat="48.528" lon="1.06039">
        <ele>252.60000610352</ele>
        <time>2026-06-17T09:14:12.000Z</time>
      </trkpt>
      <trkpt lat="48.52781" lon="1.06025">
        <ele>252.80000305176</ele>
        <time>2026-06-17T09:14:16.000Z</time>
      </trkpt>
      <trkpt lat="48.52775" lon="1.0602">
        <ele>252.80000305176</ele>
        <time>2026-06-17T09:14:17.000Z</time>
      </trkpt>
      <trkpt lat="48.52738" lon="1.06001">
        <ele>253.19999694824</ele>
        <time>2026-06-17T09:14:24.000Z</time>
      </trkpt>
      <trkpt lat="48.5272" lon="1.05985">
        <ele>253.39999389648</ele>
        <time>2026-06-17T09:14:29.000Z</time>
      </trkpt>
      <trkpt lat="48.52697" lon="1.05966">
        <ele>253.60000610352</ele>
        <time>2026-06-17T09:14:33.000Z</time>
      </trkpt>
      <trkpt lat="48.52687" lon="1.05958">
        <ele>253.60000610352</ele>
        <time>2026-06-17T09:14:35.000Z</time>
      </trkpt>
      <trkpt lat="48.52677" lon="1.05954">
        <ele>253.80000305176</ele>
        <time>2026-06-17T09:14:37.000Z</time>
      </trkpt>
      <trkpt lat="48.52669" lon="1.05948">
        <ele>253.80000305176</ele>
        <time>2026-06-17T09:14:38.000Z</time>
      </trkpt>
      <trkpt lat="48.52652" lon="1.05935">
        <ele>254</ele>
        <time>2026-06-17T09:14:41.000Z</time>
      </trkpt>
      <trkpt lat="48.52636" lon="1.05926">
        <ele>254</ele>
        <time>2026-06-17T09:14:45.000Z</time>
      </trkpt>
      <trkpt lat="48.52599" lon="1.05896">
        <ele>254</ele>
        <time>2026-06-17T09:14:50.000Z</time>
      </trkpt>
      <trkpt lat="48.52575" lon="1.05882">
        <ele>254</ele>
        <time>2026-06-17T09:14:55.000Z</time>
      </trkpt>
      <trkpt lat="48.52557" lon="1.05868">
        <ele>254</ele>
        <time>2026-06-17T09:14:59.000Z</time>
      </trkpt>
      <trkpt lat="48.52524" lon="1.05847">
        <ele>253.39999389648</ele>
        <time>2026-06-17T09:15:06.000Z</time>
      </trkpt>
      <trkpt lat="48.52499" lon="1.05825">
        <ele>253.39999389648</ele>
        <time>2026-06-17T09:15:11.000Z</time>
      </trkpt>
      <trkpt lat="48.52478" lon="1.05811">
        <ele>253.39999389648</ele>
        <time>2026-06-17T09:15:14.000Z</time>
      </trkpt>
      <trkpt lat="48.52463" lon="1.05797">
        <ele>253.19999694824</ele>
        <time>2026-06-17T09:15:17.000Z</time>
      </trkpt>
      <trkpt lat="48.52428" lon="1.05775">
        <ele>253</ele>
        <time>2026-06-17T09:15:23.000Z</time>
      </trkpt>
      <trkpt lat="48.52398" lon="1.05755">
        <ele>252.60000610352</ele>
        <time>2026-06-17T09:15:28.000Z</time>
      </trkpt>
      <trkpt lat="48.52394" lon="1.05754">
        <ele>252.39999389648</ele>
        <time>2026-06-17T09:15:29.000Z</time>
      </trkpt>
      <trkpt lat="48.52372" lon="1.05735">
        <ele>252.60000610352</ele>
        <time>2026-06-17T09:15:33.000Z</time>
      </trkpt>
      <trkpt lat="48.52351" lon="1.05719">
        <ele>252.60000610352</ele>
        <time>2026-06-17T09:15:36.000Z</time>
      </trkpt>
      <trkpt lat="48.52338" lon="1.05705">
        <ele>252.19999694824</ele>
        <time>2026-06-17T09:15:39.000Z</time>
      </trkpt>
      <trkpt lat="48.52335" lon="1.05707">
        <ele>252.19999694824</ele>
        <time>2026-06-17T09:15:40.000Z</time>
      </trkpt>
      <trkpt lat="48.52305" lon="1.0569">
        <ele>252.19999694824</ele>
        <time>2026-06-17T09:15:45.000Z</time>
      </trkpt>
      <trkpt lat="48.52288" lon="1.05679">
        <ele>252.19999694824</ele>
        <time>2026-06-17T09:15:48.000Z</time>
      </trkpt>
      <trkpt lat="48.52258" lon="1.05659">
        <ele>252.19999694824</ele>
        <time>2026-06-17T09:15:53.000Z</time>
      </trkpt>
      <trkpt lat="48.52221" lon="1.05637">
        <ele>252.19999694824</ele>
        <time>2026-06-17T09:15:57.000Z</time>
      </trkpt>
      <trkpt lat="48.52218" lon="1.05634">
        <ele>252.19999694824</ele>
        <time>2026-06-17T09:15:58.000Z</time>
      </trkpt>
      <trkpt lat="48.52201" lon="1.05628">
        <ele>252</ele>
        <time>2026-06-17T09:16:04.000Z</time>
      </trkpt>
      <trkpt lat="48.52183" lon="1.05612">
        <ele>251.60000610352</ele>
        <time>2026-06-17T09:16:08.000Z</time>
      </trkpt>
      <trkpt lat="48.52177" lon="1.05608">
        <ele>251.60000610352</ele>
        <time>2026-06-17T09:16:09.000Z</time>
      </trkpt>
      <trkpt lat="48.52162" lon="1.05594">
        <ele>251.19999694824</ele>
        <time>2026-06-17T09:16:12.000Z</time>
      </trkpt>
      <trkpt lat="48.52156" lon="1.05587">
        <ele>251</ele>
        <time>2026-06-17T09:16:14.000Z</time>
      </trkpt>
      <trkpt lat="48.52156" lon="1.05587">
        <ele>250</ele>
        <time>2026-06-17T09:16:17.000Z</time>
      </trkpt>
      <trkpt lat="48.52156" lon="1.05587">
        <ele>250.19999694824</ele>
        <time>2026-06-17T09:16:18.000Z</time>
      </trkpt>
      <trkpt lat="48.52154" lon="1.05584">
        <ele>249.19999694824</ele>
        <time>2026-06-17T09:16:27.000Z</time>
      </trkpt>
      <trkpt lat="48.52152" lon="1.05582">
        <ele>249</ele>
        <time>2026-06-17T09:16:28.000Z</time>
      </trkpt>
      <trkpt lat="48.52147" lon="1.05582">
        <ele>249</ele>
        <time>2026-06-17T09:16:30.000Z</time>
      </trkpt>
      <trkpt lat="48.5214" lon="1.05584">
        <ele>248.80000305176</ele>
        <time>2026-06-17T09:16:32.000Z</time>
      </trkpt>
      <trkpt lat="48.52115" lon="1.05595">
        <ele>248</ele>
        <time>2026-06-17T09:16:38.000Z</time>
      </trkpt>
      <trkpt lat="48.5211" lon="1.05597">
        <ele>247.80000305176</ele>
        <time>2026-06-17T09:16:39.000Z</time>
      </trkpt>
      <trkpt lat="48.52075" lon="1.05613">
        <ele>246.80000305176</ele>
        <time>2026-06-17T09:16:45.000Z</time>
      </trkpt>
      <trkpt lat="48.52067" lon="1.05615">
        <ele>246.60000610352</ele>
        <time>2026-06-17T09:16:46.000Z</time>
      </trkpt>
      <trkpt lat="48.5205" lon="1.05623">
        <ele>245.60000610352</ele>
        <time>2026-06-17T09:16:48.000Z</time>
      </trkpt>
      <trkpt lat="48.5203" lon="1.05632">
        <ele>244.80000305176</ele>
        <time>2026-06-17T09:16:50.000Z</time>
      </trkpt>
      <trkpt lat="48.5202" lon="1.05636">
        <ele>244.60000610352</ele>
        <time>2026-06-17T09:16:51.000Z</time>
      </trkpt>
      <trkpt lat="48.51973" lon="1.05649">
        <ele>243.19999694824</ele>
        <time>2026-06-17T09:16:55.000Z</time>
      </trkpt>
      <trkpt lat="48.51938" lon="1.0566">
        <ele>242.19999694824</ele>
        <time>2026-06-17T09:16:58.000Z</time>
      </trkpt>
      <trkpt lat="48.51914" lon="1.05666">
        <ele>241</ele>
        <time>2026-06-17T09:17:00.000Z</time>
      </trkpt>
      <trkpt lat="48.51894" lon="1.05674">
        <ele>239.39999389648</ele>
        <time>2026-06-17T09:17:02.000Z</time>
      </trkpt>
      <trkpt lat="48.51877" lon="1.0568">
        <ele>238.19999694824</ele>
        <time>2026-06-17T09:17:04.000Z</time>
      </trkpt>
      <trkpt lat="48.51865" lon="1.05684">
        <ele>238</ele>
        <time>2026-06-17T09:17:05.000Z</time>
      </trkpt>
      <trkpt lat="48.51838" lon="1.0569">
        <ele>236.80000305176</ele>
        <time>2026-06-17T09:17:07.000Z</time>
      </trkpt>
      <trkpt lat="48.51811" lon="1.05694">
        <ele>236.19999694824</ele>
        <time>2026-06-17T09:17:09.000Z</time>
      </trkpt>
      <trkpt lat="48.51787" lon="1.05695">
        <ele>235.39999389648</ele>
        <time>2026-06-17T09:17:11.000Z</time>
      </trkpt>
      <trkpt lat="48.51769" lon="1.05702">
        <ele>234.19999694824</ele>
        <time>2026-06-17T09:17:14.000Z</time>
      </trkpt>
      <trkpt lat="48.51762" lon="1.05707">
        <ele>234</ele>
        <time>2026-06-17T09:17:15.000Z</time>
      </trkpt>
      <trkpt lat="48.51755" lon="1.05714">
        <ele>233.60000610352</ele>
        <time>2026-06-17T09:17:16.000Z</time>
      </trkpt>
      <trkpt lat="48.51745" lon="1.05719">
        <ele>233.39999389648</ele>
        <time>2026-06-17T09:17:18.000Z</time>
      </trkpt>
      <trkpt lat="48.51739" lon="1.05721">
        <ele>233.19999694824</ele>
        <time>2026-06-17T09:17:19.000Z</time>
      </trkpt>
      <trkpt lat="48.51726" lon="1.05724">
        <ele>233</ele>
        <time>2026-06-17T09:17:21.000Z</time>
      </trkpt>
      <trkpt lat="48.5172" lon="1.05728">
        <ele>233</ele>
        <time>2026-06-17T09:17:22.000Z</time>
      </trkpt>
      <trkpt lat="48.51696" lon="1.0574">
        <ele>232.60000610352</ele>
        <time>2026-06-17T09:17:26.000Z</time>
      </trkpt>
      <trkpt lat="48.51681" lon="1.05749">
        <ele>232.39999389648</ele>
        <time>2026-06-17T09:17:29.000Z</time>
      </trkpt>
      <trkpt lat="48.51666" lon="1.05753">
        <ele>232.39999389648</ele>
        <time>2026-06-17T09:17:31.000Z</time>
      </trkpt>
      <trkpt lat="48.51624" lon="1.05763">
        <ele>232.19999694824</ele>
        <time>2026-06-17T09:17:36.000Z</time>
      </trkpt>
      <trkpt lat="48.51618" lon="1.05765">
        <ele>232.19999694824</ele>
        <time>2026-06-17T09:17:37.000Z</time>
      </trkpt>
      <trkpt lat="48.51577" lon="1.0578">
        <ele>231.80000305176</ele>
        <time>2026-06-17T09:17:44.000Z</time>
      </trkpt>
      <trkpt lat="48.51555" lon="1.05789">
        <ele>232</ele>
        <time>2026-06-17T09:17:48.000Z</time>
      </trkpt>
      <trkpt lat="48.51507" lon="1.05796">
        <ele>232</ele>
        <time>2026-06-17T09:17:54.000Z</time>
      </trkpt>
      <trkpt lat="48.51477" lon="1.05803">
        <ele>231.19999694824</ele>
        <time>2026-06-17T09:17:59.000Z</time>
      </trkpt>
      <trkpt lat="48.51473" lon="1.05803">
        <ele>231</ele>
        <time>2026-06-17T09:18:00.000Z</time>
      </trkpt>
      <trkpt lat="48.51467" lon="1.05803">
        <ele>230.80000305176</ele>
        <time>2026-06-17T09:18:01.000Z</time>
      </trkpt>
      <trkpt lat="48.51448" lon="1.05807">
        <ele>230</ele>
        <time>2026-06-17T09:18:04.000Z</time>
      </trkpt>
      <trkpt lat="48.51418" lon="1.05811">
        <ele>228.80000305176</ele>
        <time>2026-06-17T09:18:07.000Z</time>
      </trkpt>
      <trkpt lat="48.51402" lon="1.05811">
        <ele>228.60000610352</ele>
        <time>2026-06-17T09:18:08.000Z</time>
      </trkpt>
      <trkpt lat="48.51377" lon="1.05809">
        <ele>227.80000305176</ele>
        <time>2026-06-17T09:18:10.000Z</time>
      </trkpt>
      <trkpt lat="48.51365" lon="1.0581">
        <ele>227.39999389648</ele>
        <time>2026-06-17T09:18:11.000Z</time>
      </trkpt>
      <trkpt lat="48.51332" lon="1.05802">
        <ele>226.19999694824</ele>
        <time>2026-06-17T09:18:14.000Z</time>
      </trkpt>
      <trkpt lat="48.51322" lon="1.05802">
        <ele>225.80000305176</ele>
        <time>2026-06-17T09:18:15.000Z</time>
      </trkpt>
      <trkpt lat="48.51304" lon="1.058">
        <ele>225</ele>
        <time>2026-06-17T09:18:17.000Z</time>
      </trkpt>
      <trkpt lat="48.51275" lon="1.05798">
        <ele>223.80000305176</ele>
        <time>2026-06-17T09:18:20.000Z</time>
      </trkpt>
      <trkpt lat="48.51265" lon="1.05798">
        <ele>223.39999389648</ele>
        <time>2026-06-17T09:18:21.000Z</time>
      </trkpt>
      <trkpt lat="48.51246" lon="1.058">
        <ele>222.39999389648</ele>
        <time>2026-06-17T09:18:23.000Z</time>
      </trkpt>
      <trkpt lat="48.51217" lon="1.05801">
        <ele>221</ele>
        <time>2026-06-17T09:18:26.000Z</time>
      </trkpt>
      <trkpt lat="48.51199" lon="1.05801">
        <ele>220.19999694824</ele>
        <time>2026-06-17T09:18:28.000Z</time>
      </trkpt>
      <trkpt lat="48.51191" lon="1.05801">
        <ele>219.60000610352</ele>
        <time>2026-06-17T09:18:29.000Z</time>
      </trkpt>
      <trkpt lat="48.51168" lon="1.05801">
        <ele>218.19999694824</ele>
        <time>2026-06-17T09:18:32.000Z</time>
      </trkpt>
      <trkpt lat="48.51155" lon="1.05801">
        <ele>217.60000610352</ele>
        <time>2026-06-17T09:18:34.000Z</time>
      </trkpt>
      <trkpt lat="48.51149" lon="1.058">
        <ele>217.19999694824</ele>
        <time>2026-06-17T09:18:35.000Z</time>
      </trkpt>
      <trkpt lat="48.51132" lon="1.05801">
        <ele>216.39999389648</ele>
        <time>2026-06-17T09:18:39.000Z</time>
      </trkpt>
      <trkpt lat="48.51126" lon="1.05801">
        <ele>216</ele>
        <time>2026-06-17T09:18:41.000Z</time>
      </trkpt>
      <trkpt lat="48.51124" lon="1.05801">
        <ele>215.60000610352</ele>
        <time>2026-06-17T09:18:43.000Z</time>
      </trkpt>
      <trkpt lat="48.51122" lon="1.058">
        <ele>215</ele>
        <time>2026-06-17T09:18:50.000Z</time>
      </trkpt>
      <trkpt lat="48.51116" lon="1.058">
        <ele>215</ele>
        <time>2026-06-17T09:18:53.000Z</time>
      </trkpt>
      <trkpt lat="48.51101" lon="1.05802">
        <ele>215</ele>
        <time>2026-06-17T09:18:57.000Z</time>
      </trkpt>
      <trkpt lat="48.51055" lon="1.05796">
        <ele>215</ele>
        <time>2026-06-17T09:19:06.000Z</time>
      </trkpt>
      <trkpt lat="48.50999" lon="1.05793">
        <ele>215</ele>
        <time>2026-06-17T09:19:16.000Z</time>
      </trkpt>
      <trkpt lat="48.50964" lon="1.0579">
        <ele>214.80000305176</ele>
        <time>2026-06-17T09:19:22.000Z</time>
      </trkpt>
      <trkpt lat="48.50953" lon="1.05788">
        <ele>214.80000305176</ele>
        <time>2026-06-17T09:19:24.000Z</time>
      </trkpt>
      <trkpt lat="48.50918" lon="1.05787">
        <ele>214.39999389648</ele>
        <time>2026-06-17T09:19:30.000Z</time>
      </trkpt>
      <trkpt lat="48.50881" lon="1.05784">
        <ele>214.19999694824</ele>
        <time>2026-06-17T09:19:36.000Z</time>
      </trkpt>
      <trkpt lat="48.50861" lon="1.05784">
        <ele>214</ele>
        <time>2026-06-17T09:19:39.000Z</time>
      </trkpt>
      <trkpt lat="48.50827" lon="1.0578">
        <ele>213.39999389648</ele>
        <time>2026-06-17T09:19:44.000Z</time>
      </trkpt>
      <trkpt lat="48.50813" lon="1.05779">
        <ele>213</ele>
        <time>2026-06-17T09:19:46.000Z</time>
      </trkpt>
      <trkpt lat="48.50798" lon="1.05779">
        <ele>212.60000610352</ele>
        <time>2026-06-17T09:19:48.000Z</time>
      </trkpt>
      <trkpt lat="48.50765" lon="1.05777">
        <ele>211.80000305176</ele>
        <time>2026-06-17T09:19:52.000Z</time>
      </trkpt>
      <trkpt lat="48.50725" lon="1.05776">
        <ele>210.80000305176</ele>
        <time>2026-06-17T09:19:57.000Z</time>
      </trkpt>
      <trkpt lat="48.5071" lon="1.05775">
        <ele>209.80000305176</ele>
        <time>2026-06-17T09:19:59.000Z</time>
      </trkpt>
      <trkpt lat="48.50703" lon="1.05775">
        <ele>209.60000610352</ele>
        <time>2026-06-17T09:20:00.000Z</time>
      </trkpt>
      <trkpt lat="48.50676" lon="1.05777">
        <ele>208</ele>
        <time>2026-06-17T09:20:04.000Z</time>
      </trkpt>
      <trkpt lat="48.50665" lon="1.05779">
        <ele>207.39999389648</ele>
        <time>2026-06-17T09:20:06.000Z</time>
      </trkpt>
      <trkpt lat="48.50656" lon="1.05781">
        <ele>206.39999389648</ele>
        <time>2026-06-17T09:20:08.000Z</time>
      </trkpt>
      <trkpt lat="48.5065" lon="1.05785">
        <ele>206</ele>
        <time>2026-06-17T09:20:10.000Z</time>
      </trkpt>
      <trkpt lat="48.50647" lon="1.0579">
        <ele>205.60000610352</ele>
        <time>2026-06-17T09:20:11.000Z</time>
      </trkpt>
      <trkpt lat="48.50645" lon="1.05796">
        <ele>205.39999389648</ele>
        <time>2026-06-17T09:20:12.000Z</time>
      </trkpt>
      <trkpt lat="48.50644" lon="1.05803">
        <ele>205.19999694824</ele>
        <time>2026-06-17T09:20:13.000Z</time>
      </trkpt>
      <trkpt lat="48.50642" lon="1.05811">
        <ele>205</ele>
        <time>2026-06-17T09:20:14.000Z</time>
      </trkpt>
      <trkpt lat="48.50637" lon="1.05835">
        <ele>204.39999389648</ele>
        <time>2026-06-17T09:20:17.000Z</time>
      </trkpt>
      <trkpt lat="48.50628" lon="1.05886">
        <ele>203.39999389648</ele>
        <time>2026-06-17T09:20:23.000Z</time>
      </trkpt>
      <trkpt lat="48.50616" lon="1.05936">
        <ele>202.80000305176</ele>
        <time>2026-06-17T09:20:29.000Z</time>
      </trkpt>
      <trkpt lat="48.50613" lon="1.05943">
        <ele>202.60000610352</ele>
        <time>2026-06-17T09:20:30.000Z</time>
      </trkpt>
      <trkpt lat="48.50608" lon="1.05948">
        <ele>202.39999389648</ele>
        <time>2026-06-17T09:20:31.000Z</time>
      </trkpt>
      <trkpt lat="48.50597" lon="1.05954">
        <ele>202.39999389648</ele>
        <time>2026-06-17T09:20:33.000Z</time>
      </trkpt>
      <trkpt lat="48.50591" lon="1.05955">
        <ele>202.19999694824</ele>
        <time>2026-06-17T09:20:34.000Z</time>
      </trkpt>
      <trkpt lat="48.50576" lon="1.05954">
        <ele>201.80000305176</ele>
        <time>2026-06-17T09:20:37.000Z</time>
      </trkpt>
      <trkpt lat="48.50571" lon="1.05956">
        <ele>201.60000610352</ele>
        <time>2026-06-17T09:20:38.000Z</time>
      </trkpt>
      <trkpt lat="48.50566" lon="1.05959">
        <ele>201.39999389648</ele>
        <time>2026-06-17T09:20:39.000Z</time>
      </trkpt>
      <trkpt lat="48.50549" lon="1.05971">
        <ele>201.19999694824</ele>
        <time>2026-06-17T09:20:42.000Z</time>
      </trkpt>
      <trkpt lat="48.50545" lon="1.05975">
        <ele>201.19999694824</ele>
        <time>2026-06-17T09:20:43.000Z</time>
      </trkpt>
      <trkpt lat="48.50541" lon="1.05982">
        <ele>201</ele>
        <time>2026-06-17T09:20:44.000Z</time>
      </trkpt>
      <trkpt lat="48.50533" lon="1.05995">
        <ele>201</ele>
        <time>2026-06-17T09:20:46.000Z</time>
      </trkpt>
      <trkpt lat="48.50525" lon="1.06007">
        <ele>200.80000305176</ele>
        <time>2026-06-17T09:20:48.000Z</time>
      </trkpt>
      <trkpt lat="48.50515" lon="1.06023">
        <ele>200.39999389648</ele>
        <time>2026-06-17T09:20:52.000Z</time>
      </trkpt>
      <trkpt lat="48.5051" lon="1.06026">
        <ele>200.19999694824</ele>
        <time>2026-06-17T09:20:54.000Z</time>
      </trkpt>
      <trkpt lat="48.50502" lon="1.06033">
        <ele>199.80000305176</ele>
        <time>2026-06-17T09:20:57.000Z</time>
      </trkpt>
      <trkpt lat="48.5049" lon="1.06047">
        <ele>199.60000610352</ele>
        <time>2026-06-17T09:21:01.000Z</time>
      </trkpt>
      <trkpt lat="48.50486" lon="1.06053">
        <ele>199.60000610352</ele>
        <time>2026-06-17T09:21:02.000Z</time>
      </trkpt>
      <trkpt lat="48.50464" lon="1.06089">
        <ele>199.60000610352</ele>
        <time>2026-06-17T09:21:08.000Z</time>
      </trkpt>
      <trkpt lat="48.50461" lon="1.06096">
        <ele>199.60000610352</ele>
        <time>2026-06-17T09:21:09.000Z</time>
      </trkpt>
      <trkpt lat="48.50457" lon="1.06103">
        <ele>199.60000610352</ele>
        <time>2026-06-17T09:21:10.000Z</time>
      </trkpt>
      <trkpt lat="48.50442" lon="1.06141">
        <ele>199.39999389648</ele>
        <time>2026-06-17T09:21:15.000Z</time>
      </trkpt>
      <trkpt lat="48.50426" lon="1.06182">
        <ele>199</ele>
        <time>2026-06-17T09:21:20.000Z</time>
      </trkpt>
      <trkpt lat="48.50409" lon="1.06227">
        <ele>198.39999389648</ele>
        <time>2026-06-17T09:21:25.000Z</time>
      </trkpt>
      <trkpt lat="48.50405" lon="1.06237">
        <ele>198</ele>
        <time>2026-06-17T09:21:26.000Z</time>
      </trkpt>
      <trkpt lat="48.50383" lon="1.06294">
        <ele>197.39999389648</ele>
        <time>2026-06-17T09:21:32.000Z</time>
      </trkpt>
      <trkpt lat="48.50373" lon="1.06324">
        <ele>197</ele>
        <time>2026-06-17T09:21:35.000Z</time>
      </trkpt>
      <trkpt lat="48.50356" lon="1.0637">
        <ele>196</ele>
        <time>2026-06-17T09:21:40.000Z</time>
      </trkpt>
      <trkpt lat="48.50353" lon="1.06379">
        <ele>195.80000305176</ele>
        <time>2026-06-17T09:21:41.000Z</time>
      </trkpt>
      <trkpt lat="48.50331" lon="1.06437">
        <ele>195</ele>
        <time>2026-06-17T09:21:48.000Z</time>
      </trkpt>
      <trkpt lat="48.50328" lon="1.06445">
        <ele>195</ele>
        <time>2026-06-17T09:21:49.000Z</time>
      </trkpt>
      <trkpt lat="48.50316" lon="1.06476">
        <ele>195</ele>
        <time>2026-06-17T09:21:53.000Z</time>
      </trkpt>
      <trkpt lat="48.50292" lon="1.06539">
        <ele>195.60000610352</ele>
        <time>2026-06-17T09:22:02.000Z</time>
      </trkpt>
      <trkpt lat="48.50278" lon="1.06577">
        <ele>196.19999694824</ele>
        <time>2026-06-17T09:22:08.000Z</time>
      </trkpt>
      <trkpt lat="48.50273" lon="1.06589">
        <ele>196.60000610352</ele>
        <time>2026-06-17T09:22:10.000Z</time>
      </trkpt>
      <trkpt lat="48.50268" lon="1.06601">
        <ele>196.80000305176</ele>
        <time>2026-06-17T09:22:12.000Z</time>
      </trkpt>
      <trkpt lat="48.50252" lon="1.0664">
        <ele>197.60000610352</ele>
        <time>2026-06-17T09:22:18.000Z</time>
      </trkpt>
      <trkpt lat="48.50232" lon="1.06674">
        <ele>198</ele>
        <time>2026-06-17T09:22:24.000Z</time>
      </trkpt>
      <trkpt lat="48.50229" lon="1.06679">
        <ele>198</ele>
        <time>2026-06-17T09:22:25.000Z</time>
      </trkpt>
      <trkpt lat="48.50198" lon="1.06722">
        <ele>198.19999694824</ele>
        <time>2026-06-17T09:22:32.000Z</time>
      </trkpt>
      <trkpt lat="48.50168" lon="1.06765">
        <ele>198</ele>
        <time>2026-06-17T09:22:38.000Z</time>
      </trkpt>
      <trkpt lat="48.50141" lon="1.06805">
        <ele>197</ele>
        <time>2026-06-17T09:22:43.000Z</time>
      </trkpt>
      <trkpt lat="48.50126" lon="1.0683">
        <ele>196.60000610352</ele>
        <time>2026-06-17T09:22:46.000Z</time>
      </trkpt>
      <trkpt lat="48.50113" lon="1.06856">
        <ele>195.60000610352</ele>
        <time>2026-06-17T09:22:49.000Z</time>
      </trkpt>
      <trkpt lat="48.50103" lon="1.06886">
        <ele>195.39999389648</ele>
        <time>2026-06-17T09:22:52.000Z</time>
      </trkpt>
      <trkpt lat="48.50091" lon="1.06929">
        <ele>195.39999389648</ele>
        <time>2026-06-17T09:22:57.000Z</time>
      </trkpt>
      <trkpt lat="48.50079" lon="1.06988">
        <ele>196.80000305176</ele>
        <time>2026-06-17T09:23:05.000Z</time>
      </trkpt>
      <trkpt lat="48.50072" lon="1.07032">
        <ele>197.80000305176</ele>
        <time>2026-06-17T09:23:11.000Z</time>
      </trkpt>
      <trkpt lat="48.50071" lon="1.07039">
        <ele>198</ele>
        <time>2026-06-17T09:23:12.000Z</time>
      </trkpt>
      <trkpt lat="48.50063" lon="1.07114">
        <ele>198.60000610352</ele>
        <time>2026-06-17T09:23:22.000Z</time>
      </trkpt>
      <trkpt lat="48.5006" lon="1.07192">
        <ele>198.60000610352</ele>
        <time>2026-06-17T09:23:32.000Z</time>
      </trkpt>
      <trkpt lat="48.50058" lon="1.07235">
        <ele>198.80000305176</ele>
        <time>2026-06-17T09:23:37.000Z</time>
      </trkpt>
      <trkpt lat="48.50057" lon="1.07251">
        <ele>198.80000305176</ele>
        <time>2026-06-17T09:23:39.000Z</time>
      </trkpt>
      <trkpt lat="48.50056" lon="1.073">
        <ele>199.19999694824</ele>
        <time>2026-06-17T09:23:45.000Z</time>
      </trkpt>
      <trkpt lat="48.50055" lon="1.07321">
        <ele>199.39999389648</ele>
        <time>2026-06-17T09:23:48.000Z</time>
      </trkpt>
      <trkpt lat="48.50055" lon="1.0733">
        <ele>199.60000610352</ele>
        <time>2026-06-17T09:23:49.000Z</time>
      </trkpt>
      <trkpt lat="48.50053" lon="1.07357">
        <ele>200</ele>
        <time>2026-06-17T09:23:53.000Z</time>
      </trkpt>
      <trkpt lat="48.50051" lon="1.07381">
        <ele>200</ele>
        <time>2026-06-17T09:23:56.000Z</time>
      </trkpt>
      <trkpt lat="48.50049" lon="1.07398">
        <ele>200.19999694824</ele>
        <time>2026-06-17T09:23:58.000Z</time>
      </trkpt>
      <trkpt lat="48.50047" lon="1.07413">
        <ele>200.19999694824</ele>
        <time>2026-06-17T09:24:00.000Z</time>
      </trkpt>
      <trkpt lat="48.50037" lon="1.07485">
        <ele>200.39999389648</ele>
        <time>2026-06-17T09:24:08.000Z</time>
      </trkpt>
      <trkpt lat="48.50033" lon="1.07538">
        <ele>200.19999694824</ele>
        <time>2026-06-17T09:24:14.000Z</time>
      </trkpt>
      <trkpt lat="48.50032" lon="1.07608">
        <ele>200.19999694824</ele>
        <time>2026-06-17T09:24:22.000Z</time>
      </trkpt>
      <trkpt lat="48.50032" lon="1.0764">
        <ele>200.60000610352</ele>
        <time>2026-06-17T09:24:26.000Z</time>
      </trkpt>
      <trkpt lat="48.50029" lon="1.07662">
        <ele>200.60000610352</ele>
        <time>2026-06-17T09:24:29.000Z</time>
      </trkpt>
      <trkpt lat="48.50017" lon="1.07717">
        <ele>201</ele>
        <time>2026-06-17T09:24:36.000Z</time>
      </trkpt>
      <trkpt lat="48.50015" lon="1.07725">
        <ele>201.19999694824</ele>
        <time>2026-06-17T09:24:37.000Z</time>
      </trkpt>
      <trkpt lat="48.50006" lon="1.07769">
        <ele>201.19999694824</ele>
        <time>2026-06-17T09:24:42.000Z</time>
      </trkpt>
      <trkpt lat="48.50005" lon="1.07787">
        <ele>201.19999694824</ele>
        <time>2026-06-17T09:24:44.000Z</time>
      </trkpt>
      <trkpt lat="48.50009" lon="1.07814">
        <ele>201</ele>
        <time>2026-06-17T09:24:47.000Z</time>
      </trkpt>
      <trkpt lat="48.50014" lon="1.07834">
        <ele>200.80000305176</ele>
        <time>2026-06-17T09:24:49.000Z</time>
      </trkpt>
      <trkpt lat="48.50023" lon="1.07863">
        <ele>200.39999389648</ele>
        <time>2026-06-17T09:24:52.000Z</time>
      </trkpt>
      <trkpt lat="48.50025" lon="1.07872">
        <ele>200.39999389648</ele>
        <time>2026-06-17T09:24:53.000Z</time>
      </trkpt>
      <trkpt lat="48.50025" lon="1.07891">
        <ele>200.19999694824</ele>
        <time>2026-06-17T09:24:55.000Z</time>
      </trkpt>
      <trkpt lat="48.50023" lon="1.07912">
        <ele>200</ele>
        <time>2026-06-17T09:24:57.000Z</time>
      </trkpt>
      <trkpt lat="48.50021" lon="1.07932">
        <ele>199.80000305176</ele>
        <time>2026-06-17T09:24:59.000Z</time>
      </trkpt>
      <trkpt lat="48.50024" lon="1.07958">
        <ele>199.80000305176</ele>
        <time>2026-06-17T09:25:03.000Z</time>
      </trkpt>
      <trkpt lat="48.50029" lon="1.07972">
        <ele>200.19999694824</ele>
        <time>2026-06-17T09:25:06.000Z</time>
      </trkpt>
      <trkpt lat="48.50029" lon="1.07975">
        <ele>200.39999389648</ele>
        <time>2026-06-17T09:25:07.000Z</time>
      </trkpt>
      <trkpt lat="48.50033" lon="1.07991">
        <ele>201.60000610352</ele>
        <time>2026-06-17T09:25:11.000Z</time>
      </trkpt>
      <trkpt lat="48.50034" lon="1.07997">
        <ele>202.19999694824</ele>
        <time>2026-06-17T09:25:13.000Z</time>
      </trkpt>
      <trkpt lat="48.50034" lon="1.08">
        <ele>202.60000610352</ele>
        <time>2026-06-17T09:25:14.000Z</time>
      </trkpt>
      <trkpt lat="48.50035" lon="1.08007">
        <ele>203.19999694824</ele>
        <time>2026-06-17T09:25:16.000Z</time>
      </trkpt>
      <trkpt lat="48.50038" lon="1.08015">
        <ele>203.80000305176</ele>
        <time>2026-06-17T09:25:18.000Z</time>
      </trkpt>
      <trkpt lat="48.5004" lon="1.08018">
        <ele>204</ele>
        <time>2026-06-17T09:25:19.000Z</time>
      </trkpt>
      <trkpt lat="48.50047" lon="1.08031">
        <ele>204.80000305176</ele>
        <time>2026-06-17T09:25:23.000Z</time>
      </trkpt>
      <trkpt lat="48.5005" lon="1.08034">
        <ele>205</ele>
        <time>2026-06-17T09:25:24.000Z</time>
      </trkpt>
      <trkpt lat="48.50051" lon="1.0804">
        <ele>205.39999389648</ele>
        <time>2026-06-17T09:25:26.000Z</time>
      </trkpt>
      <trkpt lat="48.5005" lon="1.08047">
        <ele>206</ele>
        <time>2026-06-17T09:25:28.000Z</time>
      </trkpt>
      <trkpt lat="48.50052" lon="1.08053">
        <ele>206.19999694824</ele>
        <time>2026-06-17T09:25:30.000Z</time>
      </trkpt>
      <trkpt lat="48.50055" lon="1.08057">
        <ele>206.60000610352</ele>
        <time>2026-06-17T09:25:32.000Z</time>
      </trkpt>
      <trkpt lat="48.50055" lon="1.08061">
        <ele>206.80000305176</ele>
        <time>2026-06-17T09:25:34.000Z</time>
      </trkpt>
      <trkpt lat="48.50056" lon="1.08063">
        <ele>207</ele>
        <time>2026-06-17T09:25:35.000Z</time>
      </trkpt>
      <trkpt lat="48.5006" lon="1.08072">
        <ele>207.39999389648</ele>
        <time>2026-06-17T09:25:40.000Z</time>
      </trkpt>
      <trkpt lat="48.50061" lon="1.08077">
        <ele>207.60000610352</ele>
        <time>2026-06-17T09:25:42.000Z</time>
      </trkpt>
      <trkpt lat="48.50065" lon="1.08085">
        <ele>208</ele>
        <time>2026-06-17T09:25:44.000Z</time>
      </trkpt>
      <trkpt lat="48.50069" lon="1.08095">
        <ele>208.80000305176</ele>
        <time>2026-06-17T09:25:47.000Z</time>
      </trkpt>
      <trkpt lat="48.50074" lon="1.08107">
        <ele>209.19999694824</ele>
        <time>2026-06-17T09:25:50.000Z</time>
      </trkpt>
      <trkpt lat="48.50078" lon="1.0812">
        <ele>209.80000305176</ele>
        <time>2026-06-17T09:25:53.000Z</time>
      </trkpt>
      <trkpt lat="48.50083" lon="1.0813">
        <ele>210.39999389648</ele>
        <time>2026-06-17T09:25:56.000Z</time>
      </trkpt>
      <trkpt lat="48.50084" lon="1.08133">
        <ele>210.39999389648</ele>
        <time>2026-06-17T09:25:57.000Z</time>
      </trkpt>
      <trkpt lat="48.50094" lon="1.08153">
        <ele>211.39999389648</ele>
        <time>2026-06-17T09:26:02.000Z</time>
      </trkpt>
      <trkpt lat="48.50104" lon="1.08171">
        <ele>212.39999389648</ele>
        <time>2026-06-17T09:26:07.000Z</time>
      </trkpt>
      <trkpt lat="48.50107" lon="1.08176">
        <ele>212.60000610352</ele>
        <time>2026-06-17T09:26:08.000Z</time>
      </trkpt>
      <trkpt lat="48.50118" lon="1.08194">
        <ele>213.60000610352</ele>
        <time>2026-06-17T09:26:13.000Z</time>
      </trkpt>
      <trkpt lat="48.50119" lon="1.08199">
        <ele>213.60000610352</ele>
        <time>2026-06-17T09:26:14.000Z</time>
      </trkpt>
      <trkpt lat="48.50126" lon="1.08214">
        <ele>214.39999389648</ele>
        <time>2026-06-17T09:26:18.000Z</time>
      </trkpt>
      <trkpt lat="48.50129" lon="1.08221">
        <ele>214.80000305176</ele>
        <time>2026-06-17T09:26:20.000Z</time>
      </trkpt>
      <trkpt lat="48.50136" lon="1.0823">
        <ele>215.19999694824</ele>
        <time>2026-06-17T09:26:23.000Z</time>
      </trkpt>
      <trkpt lat="48.50138" lon="1.08238">
        <ele>216</ele>
        <time>2026-06-17T09:26:26.000Z</time>
      </trkpt>
      <trkpt lat="48.50139" lon="1.08246">
        <ele>216.60000610352</ele>
        <time>2026-06-17T09:26:29.000Z</time>
      </trkpt>
      <trkpt lat="48.50141" lon="1.0826">
        <ele>217</ele>
        <time>2026-06-17T09:26:33.000Z</time>
      </trkpt>
      <trkpt lat="48.50145" lon="1.08286">
        <ele>218.19999694824</ele>
        <time>2026-06-17T09:26:39.000Z</time>
      </trkpt>
      <trkpt lat="48.50149" lon="1.08316">
        <ele>218.80000305176</ele>
        <time>2026-06-17T09:26:46.000Z</time>
      </trkpt>
      <trkpt lat="48.50154" lon="1.08332">
        <ele>219.19999694824</ele>
        <time>2026-06-17T09:26:50.000Z</time>
      </trkpt>
      <trkpt lat="48.50159" lon="1.08343">
        <ele>219.80000305176</ele>
        <time>2026-06-17T09:26:53.000Z</time>
      </trkpt>
      <trkpt lat="48.50162" lon="1.0835">
        <ele>220.19999694824</ele>
        <time>2026-06-17T09:26:55.000Z</time>
      </trkpt>
      <trkpt lat="48.50168" lon="1.08369">
        <ele>220.80000305176</ele>
        <time>2026-06-17T09:27:00.000Z</time>
      </trkpt>
      <trkpt lat="48.50171" lon="1.08374">
        <ele>221.19999694824</ele>
        <time>2026-06-17T09:27:02.000Z</time>
      </trkpt>
      <trkpt lat="48.50178" lon="1.08389">
        <ele>222.19999694824</ele>
        <time>2026-06-17T09:27:07.000Z</time>
      </trkpt>
      <trkpt lat="48.5018" lon="1.08391">
        <ele>222.39999389648</ele>
        <time>2026-06-17T09:27:08.000Z</time>
      </trkpt>
      <trkpt lat="48.5019" lon="1.08408">
        <ele>223.39999389648</ele>
        <time>2026-06-17T09:27:14.000Z</time>
      </trkpt>
      <trkpt lat="48.50198" lon="1.08422">
        <ele>224.19999694824</ele>
        <time>2026-06-17T09:27:19.000Z</time>
      </trkpt>
      <trkpt lat="48.50201" lon="1.08425">
        <ele>224.39999389648</ele>
        <time>2026-06-17T09:27:20.000Z</time>
      </trkpt>
      <trkpt lat="48.50214" lon="1.08446">
        <ele>225.39999389648</ele>
        <time>2026-06-17T09:27:25.000Z</time>
      </trkpt>
      <trkpt lat="48.50226" lon="1.08474">
        <ele>226.39999389648</ele>
        <time>2026-06-17T09:27:32.000Z</time>
      </trkpt>
      <trkpt lat="48.50228" lon="1.08512">
        <ele>227.39999389648</ele>
        <time>2026-06-17T09:27:39.000Z</time>
      </trkpt>
      <trkpt lat="48.50228" lon="1.08519">
        <ele>227.60000610352</ele>
        <time>2026-06-17T09:27:41.000Z</time>
      </trkpt>
      <trkpt lat="48.50228" lon="1.08529">
        <ele>228</ele>
        <time>2026-06-17T09:27:43.000Z</time>
      </trkpt>
      <trkpt lat="48.50234" lon="1.08543">
        <ele>228.39999389648</ele>
        <time>2026-06-17T09:27:46.000Z</time>
      </trkpt>
      <trkpt lat="48.50235" lon="1.08546">
        <ele>228.39999389648</ele>
        <time>2026-06-17T09:27:47.000Z</time>
      </trkpt>
      <trkpt lat="48.50236" lon="1.08554">
        <ele>228.60000610352</ele>
        <time>2026-06-17T09:27:48.000Z</time>
      </trkpt>
      <trkpt lat="48.50236" lon="1.08568">
        <ele>228.60000610352</ele>
        <time>2026-06-17T09:27:50.000Z</time>
      </trkpt>
      <trkpt lat="48.50243" lon="1.08589">
        <ele>229</ele>
        <time>2026-06-17T09:27:54.000Z</time>
      </trkpt>
      <trkpt lat="48.50248" lon="1.08618">
        <ele>229.80000305176</ele>
        <time>2026-06-17T09:28:00.000Z</time>
      </trkpt>
      <trkpt lat="48.50254" lon="1.08658">
        <ele>230.39999389648</ele>
        <time>2026-06-17T09:28:06.000Z</time>
      </trkpt>
      <trkpt lat="48.50259" lon="1.08675">
        <ele>230.80000305176</ele>
        <time>2026-06-17T09:28:09.000Z</time>
      </trkpt>
      <trkpt lat="48.50261" lon="1.08691">
        <ele>231</ele>
        <time>2026-06-17T09:28:12.000Z</time>
      </trkpt>
      <trkpt lat="48.50274" lon="1.08723">
        <ele>231.19999694824</ele>
        <time>2026-06-17T09:28:17.000Z</time>
      </trkpt>
      <trkpt lat="48.50278" lon="1.08757">
        <ele>231</ele>
        <time>2026-06-17T09:28:22.000Z</time>
      </trkpt>
      <trkpt lat="48.50279" lon="1.08798">
        <ele>230.60000610352</ele>
        <time>2026-06-17T09:28:28.000Z</time>
      </trkpt>
      <trkpt lat="48.50284" lon="1.08823">
        <ele>230.60000610352</ele>
        <time>2026-06-17T09:28:32.000Z</time>
      </trkpt>
      <trkpt lat="48.50293" lon="1.08861">
        <ele>231.19999694824</ele>
        <time>2026-06-17T09:28:38.000Z</time>
      </trkpt>
      <trkpt lat="48.50299" lon="1.08885">
        <ele>231.60000610352</ele>
        <time>2026-06-17T09:28:41.000Z</time>
      </trkpt>
      <trkpt lat="48.503" lon="1.08894">
        <ele>232</ele>
        <time>2026-06-17T09:28:42.000Z</time>
      </trkpt>
      <trkpt lat="48.50301" lon="1.089">
        <ele>232.19999694824</ele>
        <time>2026-06-17T09:28:43.000Z</time>
      </trkpt>
      <trkpt lat="48.50301" lon="1.08916">
        <ele>232.80000305176</ele>
        <time>2026-06-17T09:28:46.000Z</time>
      </trkpt>
      <trkpt lat="48.50301" lon="1.08923">
        <ele>233</ele>
        <time>2026-06-17T09:28:47.000Z</time>
      </trkpt>
      <trkpt lat="48.50301" lon="1.08941">
        <ele>234</ele>
        <time>2026-06-17T09:28:51.000Z</time>
      </trkpt>
      <trkpt lat="48.50302" lon="1.0896">
        <ele>234.80000305176</ele>
        <time>2026-06-17T09:28:56.000Z</time>
      </trkpt>
      <trkpt lat="48.50302" lon="1.08967">
        <ele>235</ele>
        <time>2026-06-17T09:28:58.000Z</time>
      </trkpt>
      <trkpt lat="48.50302" lon="1.08984">
        <ele>235.80000305176</ele>
        <time>2026-06-17T09:29:02.000Z</time>
      </trkpt>
      <trkpt lat="48.50302" lon="1.08988">
        <ele>236</ele>
        <time>2026-06-17T09:29:03.000Z</time>
      </trkpt>
      <trkpt lat="48.50302" lon="1.08997">
        <ele>236.80000305176</ele>
        <time>2026-06-17T09:29:06.000Z</time>
      </trkpt>
      <trkpt lat="48.50302" lon="1.09001">
        <ele>237.19999694824</ele>
        <time>2026-06-17T09:29:07.000Z</time>
      </trkpt>
      <trkpt lat="48.50302" lon="1.09004">
        <ele>237.60000610352</ele>
        <time>2026-06-17T09:29:08.000Z</time>
      </trkpt>
      <trkpt lat="48.50304" lon="1.09024">
        <ele>238.19999694824</ele>
        <time>2026-06-17T09:29:12.000Z</time>
      </trkpt>
      <trkpt lat="48.50305" lon="1.09039">
        <ele>239</ele>
        <time>2026-06-17T09:29:15.000Z</time>
      </trkpt>
      <trkpt lat="48.50308" lon="1.0905">
        <ele>239.39999389648</ele>
        <time>2026-06-17T09:29:17.000Z</time>
      </trkpt>
      <trkpt lat="48.50313" lon="1.09071">
        <ele>240.39999389648</ele>
        <time>2026-06-17T09:29:21.000Z</time>
      </trkpt>
      <trkpt lat="48.50314" lon="1.09077">
        <ele>240.80000305176</ele>
        <time>2026-06-17T09:29:22.000Z</time>
      </trkpt>
      <trkpt lat="48.50316" lon="1.09094">
        <ele>241.39999389648</ele>
        <time>2026-06-17T09:29:25.000Z</time>
      </trkpt>
      <trkpt lat="48.50322" lon="1.09106">
        <ele>241.80000305176</ele>
        <time>2026-06-17T09:29:27.000Z</time>
      </trkpt>
      <trkpt lat="48.50324" lon="1.09116">
        <ele>242.19999694824</ele>
        <time>2026-06-17T09:29:29.000Z</time>
      </trkpt>
      <trkpt lat="48.50325" lon="1.09121">
        <ele>243</ele>
        <time>2026-06-17T09:29:31.000Z</time>
      </trkpt>
      <trkpt lat="48.50328" lon="1.09138">
        <ele>243.80000305176</ele>
        <time>2026-06-17T09:29:35.000Z</time>
      </trkpt>
      <trkpt lat="48.5033" lon="1.09142">
        <ele>244.19999694824</ele>
        <time>2026-06-17T09:29:36.000Z</time>
      </trkpt>
      <trkpt lat="48.50335" lon="1.09157">
        <ele>245</ele>
        <time>2026-06-17T09:29:39.000Z</time>
      </trkpt>
      <trkpt lat="48.50333" lon="1.09164">
        <ele>245.39999389648</ele>
        <time>2026-06-17T09:29:41.000Z</time>
      </trkpt>
      <trkpt lat="48.50333" lon="1.09175">
        <ele>246.60000610352</ele>
        <time>2026-06-17T09:29:44.000Z</time>
      </trkpt>
      <trkpt lat="48.50333" lon="1.09183">
        <ele>247.39999389648</ele>
        <time>2026-06-17T09:29:46.000Z</time>
      </trkpt>
      <trkpt lat="48.50338" lon="1.09192">
        <ele>248</ele>
        <time>2026-06-17T09:29:48.000Z</time>
      </trkpt>
      <trkpt lat="48.50338" lon="1.09195">
        <ele>248.19999694824</ele>
        <time>2026-06-17T09:29:49.000Z</time>
      </trkpt>
      <trkpt lat="48.50337" lon="1.09206">
        <ele>248.80000305176</ele>
        <time>2026-06-17T09:29:52.000Z</time>
      </trkpt>
      <trkpt lat="48.50337" lon="1.09211">
        <ele>249</ele>
        <time>2026-06-17T09:29:53.000Z</time>
      </trkpt>
      <trkpt lat="48.50336" lon="1.09227">
        <ele>250.19999694824</ele>
        <time>2026-06-17T09:29:57.000Z</time>
      </trkpt>
      <trkpt lat="48.50335" lon="1.09232">
        <ele>250.39999389648</ele>
        <time>2026-06-17T09:29:58.000Z</time>
      </trkpt>
      <trkpt lat="48.50332" lon="1.09243">
        <ele>251.19999694824</ele>
        <time>2026-06-17T09:30:01.000Z</time>
      </trkpt>
      <trkpt lat="48.50332" lon="1.09247">
        <ele>251.60000610352</ele>
        <time>2026-06-17T09:30:02.000Z</time>
      </trkpt>
      <trkpt lat="48.50332" lon="1.09259">
        <ele>252.19999694824</ele>
        <time>2026-06-17T09:30:04.000Z</time>
      </trkpt>
      <trkpt lat="48.5033" lon="1.09274">
        <ele>253</ele>
        <time>2026-06-17T09:30:08.000Z</time>
      </trkpt>
      <trkpt lat="48.50331" lon="1.09285">
        <ele>253.60000610352</ele>
        <time>2026-06-17T09:30:11.000Z</time>
      </trkpt>
      <trkpt lat="48.50328" lon="1.09293">
        <ele>254</ele>
        <time>2026-06-17T09:30:13.000Z</time>
      </trkpt>
      <trkpt lat="48.50329" lon="1.093">
        <ele>254.39999389648</ele>
        <time>2026-06-17T09:30:15.000Z</time>
      </trkpt>
      <trkpt lat="48.50329" lon="1.09304">
        <ele>254.80000305176</ele>
        <time>2026-06-17T09:30:16.000Z</time>
      </trkpt>
      <trkpt lat="48.50334" lon="1.09324">
        <ele>255.19999694824</ele>
        <time>2026-06-17T09:30:19.000Z</time>
      </trkpt>
      <trkpt lat="48.5033" lon="1.0934">
        <ele>255.60000610352</ele>
        <time>2026-06-17T09:30:22.000Z</time>
      </trkpt>
      <trkpt lat="48.50328" lon="1.09352">
        <ele>255.80000305176</ele>
        <time>2026-06-17T09:30:24.000Z</time>
      </trkpt>
      <trkpt lat="48.50325" lon="1.09361">
        <ele>256.20001220703</ele>
        <time>2026-06-17T09:30:26.000Z</time>
      </trkpt>
      <trkpt lat="48.50326" lon="1.09369">
        <ele>256.60000610352</ele>
        <time>2026-06-17T09:30:28.000Z</time>
      </trkpt>
      <trkpt lat="48.50336" lon="1.0939">
        <ele>256.79998779297</ele>
        <time>2026-06-17T09:30:31.000Z</time>
      </trkpt>
      <trkpt lat="48.50335" lon="1.09394">
        <ele>257</ele>
        <time>2026-06-17T09:30:32.000Z</time>
      </trkpt>
      <trkpt lat="48.50331" lon="1.0941">
        <ele>257.20001220703</ele>
        <time>2026-06-17T09:30:36.000Z</time>
      </trkpt>
      <trkpt lat="48.50332" lon="1.09422">
        <ele>257.60000610352</ele>
        <time>2026-06-17T09:30:39.000Z</time>
      </trkpt>
      <trkpt lat="48.50329" lon="1.09442">
        <ele>257.60000610352</ele>
        <time>2026-06-17T09:30:42.000Z</time>
      </trkpt>
      <trkpt lat="48.50328" lon="1.09465">
        <ele>257.79998779297</ele>
        <time>2026-06-17T09:30:47.000Z</time>
      </trkpt>
      <trkpt lat="48.50325" lon="1.09473">
        <ele>257.79998779297</ele>
        <time>2026-06-17T09:30:49.000Z</time>
      </trkpt>
      <trkpt lat="48.50324" lon="1.09477">
        <ele>258</ele>
        <time>2026-06-17T09:30:50.000Z</time>
      </trkpt>
      <trkpt lat="48.50323" lon="1.09487">
        <ele>258</ele>
        <time>2026-06-17T09:30:52.000Z</time>
      </trkpt>
      <trkpt lat="48.50327" lon="1.09495">
        <ele>258.20001220703</ele>
        <time>2026-06-17T09:30:55.000Z</time>
      </trkpt>
      <trkpt lat="48.5033" lon="1.0951">
        <ele>258.20001220703</ele>
        <time>2026-06-17T09:30:58.000Z</time>
      </trkpt>
      <trkpt lat="48.50331" lon="1.09516">
        <ele>258.20001220703</ele>
        <time>2026-06-17T09:31:00.000Z</time>
      </trkpt>
      <trkpt lat="48.50332" lon="1.09516">
        <ele>258.20001220703</ele>
        <time>2026-06-17T09:31:01.000Z</time>
      </trkpt>
      <trkpt lat="48.50334" lon="1.09516">
        <ele>258.39999389648</ele>
        <time>2026-06-17T09:31:03.000Z</time>
      </trkpt>
      <trkpt lat="48.50334" lon="1.09516">
        <ele>258.39999389648</ele>
        <time>2026-06-17T09:31:10.000Z</time>
      </trkpt>
      <trkpt lat="48.50334" lon="1.09516">
        <ele>258.39999389648</ele>
        <time>2026-06-17T09:31:15.000Z</time>
      </trkpt>
      <trkpt lat="48.50334" lon="1.09516">
        <ele>258.60000610352</ele>
        <time>2026-06-17T09:31:31.000Z</time>
      </trkpt>
      <trkpt lat="48.50335" lon="1.09517">
        <ele>258.60000610352</ele>
        <time>2026-06-17T09:32:54.000Z</time>
      </trkpt>
      <trkpt lat="48.50334" lon="1.09517">
        <ele>258.60000610352</ele>
        <time>2026-06-17T09:33:15.000Z</time>
      </trkpt>
      <trkpt lat="48.50334" lon="1.09523">
        <ele>258.79998779297</ele>
        <time>2026-06-17T09:33:46.000Z</time>
      </trkpt>
      <trkpt lat="48.50334" lon="1.09526">
        <ele>258.79998779297</ele>
        <time>2026-06-17T09:33:47.000Z</time>
      </trkpt>
      <trkpt lat="48.50334" lon="1.09555">
        <ele>258.79998779297</ele>
        <time>2026-06-17T09:33:56.000Z</time>
      </trkpt>
      <trkpt lat="48.50335" lon="1.09585">
        <ele>258.79998779297</ele>
        <time>2026-06-17T09:34:02.000Z</time>
      </trkpt>
      <trkpt lat="48.50337" lon="1.09611">
        <ele>259</ele>
        <time>2026-06-17T09:34:07.000Z</time>
      </trkpt>
      <trkpt lat="48.50337" lon="1.09617">
        <ele>259</ele>
        <time>2026-06-17T09:34:08.000Z</time>
      </trkpt>
      <trkpt lat="48.50341" lon="1.09656">
        <ele>259.20001220703</ele>
        <time>2026-06-17T09:34:13.000Z</time>
      </trkpt>
      <trkpt lat="48.50345" lon="1.09692">
        <ele>259.39999389648</ele>
        <time>2026-06-17T09:34:19.000Z</time>
      </trkpt>
      <trkpt lat="48.50343" lon="1.09697">
        <ele>259.39999389648</ele>
        <time>2026-06-17T09:34:20.000Z</time>
      </trkpt>
      <trkpt lat="48.50344" lon="1.09709">
        <ele>259.60000610352</ele>
        <time>2026-06-17T09:34:22.000Z</time>
      </trkpt>
      <trkpt lat="48.50345" lon="1.09722">
        <ele>259.60000610352</ele>
        <time>2026-06-17T09:34:24.000Z</time>
      </trkpt>
      <trkpt lat="48.50343" lon="1.09745">
        <ele>259.79998779297</ele>
        <time>2026-06-17T09:34:27.000Z</time>
      </trkpt>
      <trkpt lat="48.50342" lon="1.09755">
        <ele>260</ele>
        <time>2026-06-17T09:34:29.000Z</time>
      </trkpt>
      <trkpt lat="48.50341" lon="1.09759">
        <ele>260</ele>
        <time>2026-06-17T09:34:30.000Z</time>
      </trkpt>
      <trkpt lat="48.50334" lon="1.0978">
        <ele>260</ele>
        <time>2026-06-17T09:34:33.000Z</time>
      </trkpt>
      <trkpt lat="48.5033" lon="1.09819">
        <ele>260.20001220703</ele>
        <time>2026-06-17T09:34:38.000Z</time>
      </trkpt>
      <trkpt lat="48.50326" lon="1.09861">
        <ele>260.39999389648</ele>
        <time>2026-06-17T09:34:43.000Z</time>
      </trkpt>
      <trkpt lat="48.50325" lon="1.09869">
        <ele>260.39999389648</ele>
        <time>2026-06-17T09:34:44.000Z</time>
      </trkpt>
      <trkpt lat="48.50317" lon="1.09909">
        <ele>260.60000610352</ele>
        <time>2026-06-17T09:34:48.000Z</time>
      </trkpt>
      <trkpt lat="48.5031" lon="1.09939">
        <ele>260.60000610352</ele>
        <time>2026-06-17T09:34:53.000Z</time>
      </trkpt>
      <trkpt lat="48.50295" lon="1.09989">
        <ele>260.39999389648</ele>
        <time>2026-06-17T09:34:58.000Z</time>
      </trkpt>
      <trkpt lat="48.50284" lon="1.10028">
        <ele>260.20001220703</ele>
        <time>2026-06-17T09:35:02.000Z</time>
      </trkpt>
      <trkpt lat="48.50281" lon="1.10037">
        <ele>260.20001220703</ele>
        <time>2026-06-17T09:35:03.000Z</time>
      </trkpt>
      <trkpt lat="48.50263" lon="1.10087">
        <ele>260</ele>
        <time>2026-06-17T09:35:09.000Z</time>
      </trkpt>
      <trkpt lat="48.5026" lon="1.10095">
        <ele>260</ele>
        <time>2026-06-17T09:35:10.000Z</time>
      </trkpt>
      <trkpt lat="48.50247" lon="1.10118">
        <ele>260</ele>
        <time>2026-06-17T09:35:13.000Z</time>
      </trkpt>
      <trkpt lat="48.50235" lon="1.1013">
        <ele>259.79998779297</ele>
        <time>2026-06-17T09:35:15.000Z</time>
      </trkpt>
      <trkpt lat="48.5023" lon="1.10138">
        <ele>259.60000610352</ele>
        <time>2026-06-17T09:35:16.000Z</time>
      </trkpt>
      <trkpt lat="48.50213" lon="1.10166">
        <ele>259.60000610352</ele>
        <time>2026-06-17T09:35:20.000Z</time>
      </trkpt>
      <trkpt lat="48.50206" lon="1.10192">
        <ele>259.39999389648</ele>
        <time>2026-06-17T09:35:23.000Z</time>
      </trkpt>
      <trkpt lat="48.50202" lon="1.102">
        <ele>259.20001220703</ele>
        <time>2026-06-17T09:35:24.000Z</time>
      </trkpt>
      <trkpt lat="48.50188" lon="1.10223">
        <ele>259</ele>
        <time>2026-06-17T09:35:27.000Z</time>
      </trkpt>
      <trkpt lat="48.50184" lon="1.10238">
        <ele>258.79998779297</ele>
        <time>2026-06-17T09:35:29.000Z</time>
      </trkpt>
      <trkpt lat="48.50178" lon="1.10247">
        <ele>258.79998779297</ele>
        <time>2026-06-17T09:35:30.000Z</time>
      </trkpt>
      <trkpt lat="48.50159" lon="1.10267">
        <ele>258.60000610352</ele>
        <time>2026-06-17T09:35:33.000Z</time>
      </trkpt>
      <trkpt lat="48.50151" lon="1.10275">
        <ele>258.39999389648</ele>
        <time>2026-06-17T09:35:34.000Z</time>
      </trkpt>
      <trkpt lat="48.50146" lon="1.10283">
        <ele>258</ele>
        <time>2026-06-17T09:35:35.000Z</time>
      </trkpt>
      <trkpt lat="48.50133" lon="1.1031">
        <ele>257.60000610352</ele>
        <time>2026-06-17T09:35:38.000Z</time>
      </trkpt>
      <trkpt lat="48.50126" lon="1.10326">
        <ele>257.20001220703</ele>
        <time>2026-06-17T09:35:40.000Z</time>
      </trkpt>
      <trkpt lat="48.50115" lon="1.1034">
        <ele>256.79998779297</ele>
        <time>2026-06-17T09:35:42.000Z</time>
      </trkpt>
      <trkpt lat="48.50111" lon="1.10345">
        <ele>256.39999389648</ele>
        <time>2026-06-17T09:35:43.000Z</time>
      </trkpt>
      <trkpt lat="48.50089" lon="1.10369">
        <ele>256.20001220703</ele>
        <time>2026-06-17T09:35:47.000Z</time>
      </trkpt>
      <trkpt lat="48.50075" lon="1.10388">
        <ele>255.60000610352</ele>
        <time>2026-06-17T09:35:50.000Z</time>
      </trkpt>
      <trkpt lat="48.50061" lon="1.10412">
        <ele>255.39999389648</ele>
        <time>2026-06-17T09:35:53.000Z</time>
      </trkpt>
      <trkpt lat="48.5005" lon="1.10424">
        <ele>255.39999389648</ele>
        <time>2026-06-17T09:35:55.000Z</time>
      </trkpt>
      <trkpt lat="48.50036" lon="1.10445">
        <ele>255</ele>
        <time>2026-06-17T09:35:58.000Z</time>
      </trkpt>
      <trkpt lat="48.50031" lon="1.10455">
        <ele>254.80000305176</ele>
        <time>2026-06-17T09:35:59.000Z</time>
      </trkpt>
      <trkpt lat="48.50028" lon="1.10465">
        <ele>254.80000305176</ele>
        <time>2026-06-17T09:36:00.000Z</time>
      </trkpt>
      <trkpt lat="48.50024" lon="1.10483">
        <ele>254.39999389648</ele>
        <time>2026-06-17T09:36:02.000Z</time>
      </trkpt>
      <trkpt lat="48.50023" lon="1.10499">
        <ele>254.19999694824</ele>
        <time>2026-06-17T09:36:04.000Z</time>
      </trkpt>
      <trkpt lat="48.50023" lon="1.10516">
        <ele>254</ele>
        <time>2026-06-17T09:36:06.000Z</time>
      </trkpt>
      <trkpt lat="48.50022" lon="1.10525">
        <ele>254</ele>
        <time>2026-06-17T09:36:07.000Z</time>
      </trkpt>
      <trkpt lat="48.50021" lon="1.10535">
        <ele>253.80000305176</ele>
        <time>2026-06-17T09:36:08.000Z</time>
      </trkpt>
      <trkpt lat="48.50015" lon="1.10577">
        <ele>253.80000305176</ele>
        <time>2026-06-17T09:36:12.000Z</time>
      </trkpt>
      <trkpt lat="48.50015" lon="1.10584">
        <ele>253.80000305176</ele>
        <time>2026-06-17T09:36:13.000Z</time>
      </trkpt>
      <trkpt lat="48.50011" lon="1.10618">
        <ele>253.80000305176</ele>
        <time>2026-06-17T09:36:17.000Z</time>
      </trkpt>
      <trkpt lat="48.50002" lon="1.10674">
        <ele>253.19999694824</ele>
        <time>2026-06-17T09:36:22.000Z</time>
      </trkpt>
      <trkpt lat="48.49993" lon="1.10728">
        <ele>252.80000305176</ele>
        <time>2026-06-17T09:36:27.000Z</time>
      </trkpt>
      <trkpt lat="48.49992" lon="1.10739">
        <ele>252.39999389648</ele>
        <time>2026-06-17T09:36:28.000Z</time>
      </trkpt>
      <trkpt lat="48.49993" lon="1.10762">
        <ele>252.39999389648</ele>
        <time>2026-06-17T09:36:30.000Z</time>
      </trkpt>
      <trkpt lat="48.49996" lon="1.10783">
        <ele>252.19999694824</ele>
        <time>2026-06-17T09:36:32.000Z</time>
      </trkpt>
      <trkpt lat="48.49997" lon="1.10793">
        <ele>252</ele>
        <time>2026-06-17T09:36:33.000Z</time>
      </trkpt>
      <trkpt lat="48.50004" lon="1.10846">
        <ele>251</ele>
        <time>2026-06-17T09:36:38.000Z</time>
      </trkpt>
      <trkpt lat="48.50006" lon="1.10867">
        <ele>250.80000305176</ele>
        <time>2026-06-17T09:36:40.000Z</time>
      </trkpt>
      <trkpt lat="48.50011" lon="1.10925">
        <ele>250</ele>
        <time>2026-06-17T09:36:46.000Z</time>
      </trkpt>
      <trkpt lat="48.50012" lon="1.10952">
        <ele>249.80000305176</ele>
        <time>2026-06-17T09:36:49.000Z</time>
      </trkpt>
      <trkpt lat="48.50011" lon="1.10989">
        <ele>249.80000305176</ele>
        <time>2026-06-17T09:36:53.000Z</time>
      </trkpt>
      <trkpt lat="48.50008" lon="1.11033">
        <ele>250.19999694824</ele>
        <time>2026-06-17T09:36:58.000Z</time>
      </trkpt>
      <trkpt lat="48.50007" lon="1.11051">
        <ele>250.39999389648</ele>
        <time>2026-06-17T09:37:00.000Z</time>
      </trkpt>
      <trkpt lat="48.50007" lon="1.1106">
        <ele>250.60000610352</ele>
        <time>2026-06-17T09:37:01.000Z</time>
      </trkpt>
      <trkpt lat="48.50006" lon="1.11097">
        <ele>250.80000305176</ele>
        <time>2026-06-17T09:37:05.000Z</time>
      </trkpt>
      <trkpt lat="48.50006" lon="1.11107">
        <ele>251</ele>
        <time>2026-06-17T09:37:06.000Z</time>
      </trkpt>
      <trkpt lat="48.50005" lon="1.1115">
        <ele>251.80000305176</ele>
        <time>2026-06-17T09:37:11.000Z</time>
      </trkpt>
      <trkpt lat="48.50005" lon="1.11167">
        <ele>252</ele>
        <time>2026-06-17T09:37:13.000Z</time>
      </trkpt>
      <trkpt lat="48.50004" lon="1.11182">
        <ele>252</ele>
        <time>2026-06-17T09:37:15.000Z</time>
      </trkpt>
      <trkpt lat="48.50002" lon="1.11195">
        <ele>252.19999694824</ele>
        <time>2026-06-17T09:37:17.000Z</time>
      </trkpt>
      <trkpt lat="48.49999" lon="1.11215">
        <ele>252.60000610352</ele>
        <time>2026-06-17T09:37:20.000Z</time>
      </trkpt>
      <trkpt lat="48.49995" lon="1.11228">
        <ele>252.80000305176</ele>
        <time>2026-06-17T09:37:22.000Z</time>
      </trkpt>
      <trkpt lat="48.49991" lon="1.11242">
        <ele>253</ele>
        <time>2026-06-17T09:37:24.000Z</time>
      </trkpt>
      <trkpt lat="48.49989" lon="1.11249">
        <ele>253.19999694824</ele>
        <time>2026-06-17T09:37:25.000Z</time>
      </trkpt>
      <trkpt lat="48.49983" lon="1.11272">
        <ele>253.39999389648</ele>
        <time>2026-06-17T09:37:28.000Z</time>
      </trkpt>
      <trkpt lat="48.4998" lon="1.11278">
        <ele>253.60000610352</ele>
        <time>2026-06-17T09:37:29.000Z</time>
      </trkpt>
      <trkpt lat="48.49975" lon="1.11312">
        <ele>254</ele>
        <time>2026-06-17T09:37:33.000Z</time>
      </trkpt>
      <trkpt lat="48.49973" lon="1.11319">
        <ele>254</ele>
        <time>2026-06-17T09:37:34.000Z</time>
      </trkpt>
      <trkpt lat="48.49971" lon="1.11334">
        <ele>254.39999389648</ele>
        <time>2026-06-17T09:37:36.000Z</time>
      </trkpt>
      <trkpt lat="48.4997" lon="1.11341">
        <ele>254.39999389648</ele>
        <time>2026-06-17T09:37:37.000Z</time>
      </trkpt>
      <trkpt lat="48.49968" lon="1.11348">
        <ele>254.39999389648</ele>
        <time>2026-06-17T09:37:38.000Z</time>
      </trkpt>
      <trkpt lat="48.49962" lon="1.11369">
        <ele>255</ele>
        <time>2026-06-17T09:37:41.000Z</time>
      </trkpt>
      <trkpt lat="48.49959" lon="1.11378">
        <ele>255</ele>
        <time>2026-06-17T09:37:42.000Z</time>
      </trkpt>
      <trkpt lat="48.49956" lon="1.11408">
        <ele>255.39999389648</ele>
        <time>2026-06-17T09:37:46.000Z</time>
      </trkpt>
      <trkpt lat="48.49951" lon="1.11429">
        <ele>255.60000610352</ele>
        <time>2026-06-17T09:37:48.000Z</time>
      </trkpt>
      <trkpt lat="48.49947" lon="1.11456">
        <ele>255.60000610352</ele>
        <time>2026-06-17T09:37:51.000Z</time>
      </trkpt>
      <trkpt lat="48.49947" lon="1.1147">
        <ele>255.80000305176</ele>
        <time>2026-06-17T09:37:53.000Z</time>
      </trkpt>
      <trkpt lat="48.49942" lon="1.11491">
        <ele>256</ele>
        <time>2026-06-17T09:37:56.000Z</time>
      </trkpt>
      <trkpt lat="48.49935" lon="1.1152">
        <ele>256</ele>
        <time>2026-06-17T09:38:00.000Z</time>
      </trkpt>
      <trkpt lat="48.49928" lon="1.11549">
        <ele>256.39999389648</ele>
        <time>2026-06-17T09:38:04.000Z</time>
      </trkpt>
      <trkpt lat="48.49914" lon="1.11605">
        <ele>256.60000610352</ele>
        <time>2026-06-17T09:38:12.000Z</time>
      </trkpt>
      <trkpt lat="48.49899" lon="1.11663">
        <ele>256.79998779297</ele>
        <time>2026-06-17T09:38:20.000Z</time>
      </trkpt>
      <trkpt lat="48.49886" lon="1.11714">
        <ele>256.60000610352</ele>
        <time>2026-06-17T09:38:27.000Z</time>
      </trkpt>
      <trkpt lat="48.49869" lon="1.11784">
        <ele>256.60000610352</ele>
        <time>2026-06-17T09:38:36.000Z</time>
      </trkpt>
      <trkpt lat="48.49858" lon="1.11828">
        <ele>257</ele>
        <time>2026-06-17T09:38:42.000Z</time>
      </trkpt>
      <trkpt lat="48.49854" lon="1.11853">
        <ele>257.20001220703</ele>
        <time>2026-06-17T09:38:45.000Z</time>
      </trkpt>
      <trkpt lat="48.49851" lon="1.1187">
        <ele>257.20001220703</ele>
        <time>2026-06-17T09:38:47.000Z</time>
      </trkpt>
      <trkpt lat="48.49847" lon="1.11884">
        <ele>257.20001220703</ele>
        <time>2026-06-17T09:38:49.000Z</time>
      </trkpt>
      <trkpt lat="48.49844" lon="1.11892">
        <ele>257.39999389648</ele>
        <time>2026-06-17T09:38:50.000Z</time>
      </trkpt>
      <trkpt lat="48.49841" lon="1.119">
        <ele>257.39999389648</ele>
        <time>2026-06-17T09:38:51.000Z</time>
      </trkpt>
      <trkpt lat="48.49833" lon="1.11922">
        <ele>257.60000610352</ele>
        <time>2026-06-17T09:38:54.000Z</time>
      </trkpt>
      <trkpt lat="48.49829" lon="1.11928">
        <ele>257.60000610352</ele>
        <time>2026-06-17T09:38:55.000Z</time>
      </trkpt>
      <trkpt lat="48.49825" lon="1.11936">
        <ele>257.60000610352</ele>
        <time>2026-06-17T09:38:56.000Z</time>
      </trkpt>
      <trkpt lat="48.49819" lon="1.11957">
        <ele>257.60000610352</ele>
        <time>2026-06-17T09:38:59.000Z</time>
      </trkpt>
      <trkpt lat="48.49817" lon="1.11964">
        <ele>257.79998779297</ele>
        <time>2026-06-17T09:39:00.000Z</time>
      </trkpt>
      <trkpt lat="48.49812" lon="1.11995">
        <ele>258</ele>
        <time>2026-06-17T09:39:04.000Z</time>
      </trkpt>
      <trkpt lat="48.49805" lon="1.12022">
        <ele>257.79998779297</ele>
        <time>2026-06-17T09:39:07.000Z</time>
      </trkpt>
      <trkpt lat="48.49801" lon="1.12041">
        <ele>257.79998779297</ele>
        <time>2026-06-17T09:39:09.000Z</time>
      </trkpt>
      <trkpt lat="48.498" lon="1.1205">
        <ele>257.60000610352</ele>
        <time>2026-06-17T09:39:10.000Z</time>
      </trkpt>
      <trkpt lat="48.49793" lon="1.12074">
        <ele>257.39999389648</ele>
        <time>2026-06-17T09:39:13.000Z</time>
      </trkpt>
      <trkpt lat="48.49791" lon="1.1209">
        <ele>257.39999389648</ele>
        <time>2026-06-17T09:39:15.000Z</time>
      </trkpt>
      <trkpt lat="48.49788" lon="1.12098">
        <ele>257.39999389648</ele>
        <time>2026-06-17T09:39:16.000Z</time>
      </trkpt>
      <trkpt lat="48.49783" lon="1.12131">
        <ele>257.20001220703</ele>
        <time>2026-06-17T09:39:20.000Z</time>
      </trkpt>
      <trkpt lat="48.49775" lon="1.12165">
        <ele>257.39999389648</ele>
        <time>2026-06-17T09:39:24.000Z</time>
      </trkpt>
      <trkpt lat="48.49762" lon="1.12218">
        <ele>257.20001220703</ele>
        <time>2026-06-17T09:39:30.000Z</time>
      </trkpt>
      <trkpt lat="48.49749" lon="1.12263">
        <ele>256.60000610352</ele>
        <time>2026-06-17T09:39:35.000Z</time>
      </trkpt>
      <trkpt lat="48.49743" lon="1.12289">
        <ele>256.39999389648</ele>
        <time>2026-06-17T09:39:38.000Z</time>
      </trkpt>
      <trkpt lat="48.49742" lon="1.12298">
        <ele>256.39999389648</ele>
        <time>2026-06-17T09:39:39.000Z</time>
      </trkpt>
      <trkpt lat="48.49738" lon="1.12306">
        <ele>256.39999389648</ele>
        <time>2026-06-17T09:39:40.000Z</time>
      </trkpt>
      <trkpt lat="48.49736" lon="1.12314">
        <ele>256.20001220703</ele>
        <time>2026-06-17T09:39:41.000Z</time>
      </trkpt>
      <trkpt lat="48.49728" lon="1.12344">
        <ele>255.39999389648</ele>
        <time>2026-06-17T09:39:45.000Z</time>
      </trkpt>
      <trkpt lat="48.49723" lon="1.12366">
        <ele>255</ele>
        <time>2026-06-17T09:39:48.000Z</time>
      </trkpt>
      <trkpt lat="48.4972" lon="1.1238">
        <ele>255</ele>
        <time>2026-06-17T09:39:50.000Z</time>
      </trkpt>
      <trkpt lat="48.49715" lon="1.12394">
        <ele>254.60000610352</ele>
        <time>2026-06-17T09:39:52.000Z</time>
      </trkpt>
      <trkpt lat="48.49705" lon="1.12414">
        <ele>254.19999694824</ele>
        <time>2026-06-17T09:39:55.000Z</time>
      </trkpt>
      <trkpt lat="48.49699" lon="1.1243">
        <ele>253.80000305176</ele>
        <time>2026-06-17T09:39:57.000Z</time>
      </trkpt>
      <trkpt lat="48.4969" lon="1.12456">
        <ele>253.39999389648</ele>
        <time>2026-06-17T09:40:00.000Z</time>
      </trkpt>
      <trkpt lat="48.49685" lon="1.12473">
        <ele>253.19999694824</ele>
        <time>2026-06-17T09:40:02.000Z</time>
      </trkpt>
      <trkpt lat="48.49683" lon="1.12483">
        <ele>253</ele>
        <time>2026-06-17T09:40:03.000Z</time>
      </trkpt>
      <trkpt lat="48.49678" lon="1.12502">
        <ele>252.60000610352</ele>
        <time>2026-06-17T09:40:05.000Z</time>
      </trkpt>
      <trkpt lat="48.49675" lon="1.12512">
        <ele>252.60000610352</ele>
        <time>2026-06-17T09:40:06.000Z</time>
      </trkpt>
      <trkpt lat="48.49669" lon="1.12531">
        <ele>252.39999389648</ele>
        <time>2026-06-17T09:40:08.000Z</time>
      </trkpt>
      <trkpt lat="48.49665" lon="1.12555">
        <ele>252.19999694824</ele>
        <time>2026-06-17T09:40:10.000Z</time>
      </trkpt>
      <trkpt lat="48.49651" lon="1.12629">
        <ele>251</ele>
        <time>2026-06-17T09:40:16.000Z</time>
      </trkpt>
      <trkpt lat="48.4964" lon="1.12669">
        <ele>250.19999694824</ele>
        <time>2026-06-17T09:40:19.000Z</time>
      </trkpt>
      <trkpt lat="48.49637" lon="1.12684">
        <ele>250</ele>
        <time>2026-06-17T09:40:20.000Z</time>
      </trkpt>
      <trkpt lat="48.49635" lon="1.12699">
        <ele>249.39999389648</ele>
        <time>2026-06-17T09:40:21.000Z</time>
      </trkpt>
      <trkpt lat="48.49626" lon="1.12744">
        <ele>248.60000610352</ele>
        <time>2026-06-17T09:40:24.000Z</time>
      </trkpt>
      <trkpt lat="48.49617" lon="1.12791">
        <ele>247.19999694824</ele>
        <time>2026-06-17T09:40:27.000Z</time>
      </trkpt>
      <trkpt lat="48.4961" lon="1.12821">
        <ele>245.80000305176</ele>
        <time>2026-06-17T09:40:29.000Z</time>
      </trkpt>
      <trkpt lat="48.49601" lon="1.12849">
        <ele>244.80000305176</ele>
        <time>2026-06-17T09:40:31.000Z</time>
      </trkpt>
      <trkpt lat="48.49596" lon="1.12862">
        <ele>244.39999389648</ele>
        <time>2026-06-17T09:40:32.000Z</time>
      </trkpt>
      <trkpt lat="48.49591" lon="1.12874">
        <ele>243.60000610352</ele>
        <time>2026-06-17T09:40:33.000Z</time>
      </trkpt>
      <trkpt lat="48.49574" lon="1.12909">
        <ele>242.39999389648</ele>
        <time>2026-06-17T09:40:36.000Z</time>
      </trkpt>
      <trkpt lat="48.49569" lon="1.1292">
        <ele>242.39999389648</ele>
        <time>2026-06-17T09:40:37.000Z</time>
      </trkpt>
      <trkpt lat="48.49539" lon="1.1298">
        <ele>241.19999694824</ele>
        <time>2026-06-17T09:40:43.000Z</time>
      </trkpt>
      <trkpt lat="48.49534" lon="1.1299">
        <ele>241.19999694824</ele>
        <time>2026-06-17T09:40:44.000Z</time>
      </trkpt>
      <trkpt lat="48.49499" lon="1.13056">
        <ele>240.19999694824</ele>
        <time>2026-06-17T09:40:51.000Z</time>
      </trkpt>
      <trkpt lat="48.49494" lon="1.13065">
        <ele>240</ele>
        <time>2026-06-17T09:40:52.000Z</time>
      </trkpt>
      <trkpt lat="48.49485" lon="1.13084">
        <ele>239.39999389648</ele>
        <time>2026-06-17T09:40:54.000Z</time>
      </trkpt>
      <trkpt lat="48.49473" lon="1.13114">
        <ele>238.80000305176</ele>
        <time>2026-06-17T09:40:57.000Z</time>
      </trkpt>
      <trkpt lat="48.49457" lon="1.13165">
        <ele>237.80000305176</ele>
        <time>2026-06-17T09:41:02.000Z</time>
      </trkpt>
      <trkpt lat="48.49442" lon="1.13234">
        <ele>237.19999694824</ele>
        <time>2026-06-17T09:41:09.000Z</time>
      </trkpt>
      <trkpt lat="48.49438" lon="1.13265">
        <ele>237</ele>
        <time>2026-06-17T09:41:12.000Z</time>
      </trkpt>
      <trkpt lat="48.49438" lon="1.13288">
        <ele>236.80000305176</ele>
        <time>2026-06-17T09:41:14.000Z</time>
      </trkpt>
      <trkpt lat="48.49438" lon="1.133">
        <ele>236.60000610352</ele>
        <time>2026-06-17T09:41:15.000Z</time>
      </trkpt>
      <trkpt lat="48.49438" lon="1.1336">
        <ele>235.80000305176</ele>
        <time>2026-06-17T09:41:20.000Z</time>
      </trkpt>
      <trkpt lat="48.49437" lon="1.13373">
        <ele>235.39999389648</ele>
        <time>2026-06-17T09:41:21.000Z</time>
      </trkpt>
      <trkpt lat="48.49419" lon="1.1343">
        <ele>234</ele>
        <time>2026-06-17T09:41:26.000Z</time>
      </trkpt>
      <trkpt lat="48.49408" lon="1.13465">
        <ele>233</ele>
        <time>2026-06-17T09:41:29.000Z</time>
      </trkpt>
      <trkpt lat="48.494" lon="1.13503">
        <ele>232.19999694824</ele>
        <time>2026-06-17T09:41:32.000Z</time>
      </trkpt>
      <trkpt lat="48.49399" lon="1.13516">
        <ele>231.80000305176</ele>
        <time>2026-06-17T09:41:33.000Z</time>
      </trkpt>
      <trkpt lat="48.49396" lon="1.13583">
        <ele>230.60000610352</ele>
        <time>2026-06-17T09:41:38.000Z</time>
      </trkpt>
      <trkpt lat="48.49394" lon="1.13636">
        <ele>229.19999694824</ele>
        <time>2026-06-17T09:41:42.000Z</time>
      </trkpt>
      <trkpt lat="48.49392" lon="1.13687">
        <ele>228.60000610352</ele>
        <time>2026-06-17T09:41:46.000Z</time>
      </trkpt>
      <trkpt lat="48.4939" lon="1.13712">
        <ele>228.19999694824</ele>
        <time>2026-06-17T09:41:48.000Z</time>
      </trkpt>
      <trkpt lat="48.49383" lon="1.13759">
        <ele>227.60000610352</ele>
        <time>2026-06-17T09:41:52.000Z</time>
      </trkpt>
      <trkpt lat="48.49376" lon="1.1378">
        <ele>227.60000610352</ele>
        <time>2026-06-17T09:41:54.000Z</time>
      </trkpt>
      <trkpt lat="48.49364" lon="1.13809">
        <ele>227.60000610352</ele>
        <time>2026-06-17T09:41:57.000Z</time>
      </trkpt>
      <trkpt lat="48.49342" lon="1.13852">
        <ele>227.39999389648</ele>
        <time>2026-06-17T09:42:02.000Z</time>
      </trkpt>
      <trkpt lat="48.49338" lon="1.1386">
        <ele>227.60000610352</ele>
        <time>2026-06-17T09:42:03.000Z</time>
      </trkpt>
      <trkpt lat="48.49301" lon="1.13932">
        <ele>227.60000610352</ele>
        <time>2026-06-17T09:42:12.000Z</time>
      </trkpt>
      <trkpt lat="48.4928" lon="1.13973">
        <ele>227.39999389648</ele>
        <time>2026-06-17T09:42:17.000Z</time>
      </trkpt>
      <trkpt lat="48.49275" lon="1.13981">
        <ele>227.19999694824</ele>
        <time>2026-06-17T09:42:18.000Z</time>
      </trkpt>
      <trkpt lat="48.49242" lon="1.14042">
        <ele>226.39999389648</ele>
        <time>2026-06-17T09:42:25.000Z</time>
      </trkpt>
      <trkpt lat="48.49226" lon="1.14077">
        <ele>226.19999694824</ele>
        <time>2026-06-17T09:42:29.000Z</time>
      </trkpt>
      <trkpt lat="48.49206" lon="1.14121">
        <ele>225.80000305176</ele>
        <time>2026-06-17T09:42:34.000Z</time>
      </trkpt>
      <trkpt lat="48.49194" lon="1.14148">
        <ele>225</ele>
        <time>2026-06-17T09:42:37.000Z</time>
      </trkpt>
      <trkpt lat="48.49183" lon="1.14186">
        <ele>224.39999389648</ele>
        <time>2026-06-17T09:42:41.000Z</time>
      </trkpt>
      <trkpt lat="48.49177" lon="1.14217">
        <ele>223.80000305176</ele>
        <time>2026-06-17T09:42:44.000Z</time>
      </trkpt>
      <trkpt lat="48.49173" lon="1.14249">
        <ele>223.60000610352</ele>
        <time>2026-06-17T09:42:47.000Z</time>
      </trkpt>
      <trkpt lat="48.49167" lon="1.14292">
        <ele>222.80000305176</ele>
        <time>2026-06-17T09:42:51.000Z</time>
      </trkpt>
      <trkpt lat="48.4916" lon="1.14337">
        <ele>222</ele>
        <time>2026-06-17T09:42:55.000Z</time>
      </trkpt>
      <trkpt lat="48.49158" lon="1.14348">
        <ele>221.80000305176</ele>
        <time>2026-06-17T09:42:56.000Z</time>
      </trkpt>
      <trkpt lat="48.49148" lon="1.14398">
        <ele>221</ele>
        <time>2026-06-17T09:43:00.000Z</time>
      </trkpt>
      <trkpt lat="48.49139" lon="1.14422">
        <ele>220.80000305176</ele>
        <time>2026-06-17T09:43:02.000Z</time>
      </trkpt>
      <trkpt lat="48.49135" lon="1.14433">
        <ele>220.60000610352</ele>
        <time>2026-06-17T09:43:03.000Z</time>
      </trkpt>
      <trkpt lat="48.49125" lon="1.14455">
        <ele>219</ele>
        <time>2026-06-17T09:43:05.000Z</time>
      </trkpt>
      <trkpt lat="48.4911" lon="1.14487">
        <ele>217.60000610352</ele>
        <time>2026-06-17T09:43:08.000Z</time>
      </trkpt>
      <trkpt lat="48.49089" lon="1.14528">
        <ele>216.19999694824</ele>
        <time>2026-06-17T09:43:12.000Z</time>
      </trkpt>
      <trkpt lat="48.49084" lon="1.14538">
        <ele>216</ele>
        <time>2026-06-17T09:43:13.000Z</time>
      </trkpt>
      <trkpt lat="48.4905" lon="1.14604">
        <ele>215</ele>
        <time>2026-06-17T09:43:19.000Z</time>
      </trkpt>
      <trkpt lat="48.49045" lon="1.14616">
        <ele>214.39999389648</ele>
        <time>2026-06-17T09:43:20.000Z</time>
      </trkpt>
      <trkpt lat="48.4902" lon="1.14669">
        <ele>213.60000610352</ele>
        <time>2026-06-17T09:43:24.000Z</time>
      </trkpt>
      <trkpt lat="48.49015" lon="1.14679">
        <ele>213.39999389648</ele>
        <time>2026-06-17T09:43:25.000Z</time>
      </trkpt>
      <trkpt lat="48.49003" lon="1.14704">
        <ele>212.60000610352</ele>
        <time>2026-06-17T09:43:27.000Z</time>
      </trkpt>
      <trkpt lat="48.4898" lon="1.14755">
        <ele>211.19999694824</ele>
        <time>2026-06-17T09:43:31.000Z</time>
      </trkpt>
      <trkpt lat="48.48963" lon="1.14792">
        <ele>210.19999694824</ele>
        <time>2026-06-17T09:43:34.000Z</time>
      </trkpt>
      <trkpt lat="48.48957" lon="1.14805">
        <ele>209.80000305176</ele>
        <time>2026-06-17T09:43:35.000Z</time>
      </trkpt>
      <trkpt lat="48.4894" lon="1.14843">
        <ele>209.19999694824</ele>
        <time>2026-06-17T09:43:38.000Z</time>
      </trkpt>
      <trkpt lat="48.48923" lon="1.14879">
        <ele>208</ele>
        <time>2026-06-17T09:43:41.000Z</time>
      </trkpt>
      <trkpt lat="48.48918" lon="1.14891">
        <ele>207.80000305176</ele>
        <time>2026-06-17T09:43:42.000Z</time>
      </trkpt>
      <trkpt lat="48.48885" lon="1.14961">
        <ele>207.19999694824</ele>
        <time>2026-06-17T09:43:48.000Z</time>
      </trkpt>
      <trkpt lat="48.48873" lon="1.14986">
        <ele>207</ele>
        <time>2026-06-17T09:43:50.000Z</time>
      </trkpt>
      <trkpt lat="48.48871" lon="1.1499">
        <ele>206.80000305176</ele>
        <time>2026-06-17T09:43:51.000Z</time>
      </trkpt>
      <trkpt lat="48.48838" lon="1.15061">
        <ele>206.19999694824</ele>
        <time>2026-06-17T09:43:57.000Z</time>
      </trkpt>
      <trkpt lat="48.48832" lon="1.15072">
        <ele>206.19999694824</ele>
        <time>2026-06-17T09:43:58.000Z</time>
      </trkpt>
      <trkpt lat="48.48822" lon="1.15094">
        <ele>205.80000305176</ele>
        <time>2026-06-17T09:44:00.000Z</time>
      </trkpt>
      <trkpt lat="48.48802" lon="1.15137">
        <ele>204.60000610352</ele>
        <time>2026-06-17T09:44:04.000Z</time>
      </trkpt>
      <trkpt lat="48.48797" lon="1.15147">
        <ele>204.39999389648</ele>
        <time>2026-06-17T09:44:05.000Z</time>
      </trkpt>
      <trkpt lat="48.48775" lon="1.15191">
        <ele>203.39999389648</ele>
        <time>2026-06-17T09:44:09.000Z</time>
      </trkpt>
      <trkpt lat="48.48743" lon="1.15256">
        <ele>202.19999694824</ele>
        <time>2026-06-17T09:44:15.000Z</time>
      </trkpt>
      <trkpt lat="48.48721" lon="1.153">
        <ele>201</ele>
        <time>2026-06-17T09:44:19.000Z</time>
      </trkpt>
      <trkpt lat="48.48705" lon="1.15333">
        <ele>200.19999694824</ele>
        <time>2026-06-17T09:44:22.000Z</time>
      </trkpt>
      <trkpt lat="48.48699" lon="1.15343">
        <ele>199.80000305176</ele>
        <time>2026-06-17T09:44:23.000Z</time>
      </trkpt>
      <trkpt lat="48.48689" lon="1.15365">
        <ele>198.80000305176</ele>
        <time>2026-06-17T09:44:25.000Z</time>
      </trkpt>
      <trkpt lat="48.48667" lon="1.15407">
        <ele>197.60000610352</ele>
        <time>2026-06-17T09:44:29.000Z</time>
      </trkpt>
      <trkpt lat="48.4865" lon="1.1544">
        <ele>196.39999389648</ele>
        <time>2026-06-17T09:44:32.000Z</time>
      </trkpt>
      <trkpt lat="48.48644" lon="1.15451">
        <ele>196</ele>
        <time>2026-06-17T09:44:33.000Z</time>
      </trkpt>
      <trkpt lat="48.48633" lon="1.15472">
        <ele>195.39999389648</ele>
        <time>2026-06-17T09:44:35.000Z</time>
      </trkpt>
      <trkpt lat="48.48617" lon="1.15504">
        <ele>194</ele>
        <time>2026-06-17T09:44:38.000Z</time>
      </trkpt>
      <trkpt lat="48.48595" lon="1.15548">
        <ele>193</ele>
        <time>2026-06-17T09:44:42.000Z</time>
      </trkpt>
      <trkpt lat="48.48589" lon="1.15559">
        <ele>192.60000610352</ele>
        <time>2026-06-17T09:44:43.000Z</time>
      </trkpt>
      <trkpt lat="48.48572" lon="1.15592">
        <ele>192</ele>
        <time>2026-06-17T09:44:46.000Z</time>
      </trkpt>
      <trkpt lat="48.48549" lon="1.15634">
        <ele>191</ele>
        <time>2026-06-17T09:44:50.000Z</time>
      </trkpt>
      <trkpt lat="48.48528" lon="1.15674">
        <ele>189.80000305176</ele>
        <time>2026-06-17T09:44:54.000Z</time>
      </trkpt>
      <trkpt lat="48.485" lon="1.15719">
        <ele>188.60000610352</ele>
        <time>2026-06-17T09:44:59.000Z</time>
      </trkpt>
      <trkpt lat="48.48488" lon="1.15734">
        <ele>188.19999694824</ele>
        <time>2026-06-17T09:45:01.000Z</time>
      </trkpt>
      <trkpt lat="48.48469" lon="1.15753">
        <ele>187.60000610352</ele>
        <time>2026-06-17T09:45:04.000Z</time>
      </trkpt>
      <trkpt lat="48.48463" lon="1.15759">
        <ele>187.39999389648</ele>
        <time>2026-06-17T09:45:05.000Z</time>
      </trkpt>
      <trkpt lat="48.48433" lon="1.15785">
        <ele>186.60000610352</ele>
        <time>2026-06-17T09:45:10.000Z</time>
      </trkpt>
      <trkpt lat="48.4842" lon="1.15798">
        <ele>186.19999694824</ele>
        <time>2026-06-17T09:45:12.000Z</time>
      </trkpt>
      <trkpt lat="48.48406" lon="1.15812">
        <ele>185.80000305176</ele>
        <time>2026-06-17T09:45:15.000Z</time>
      </trkpt>
      <trkpt lat="48.48396" lon="1.15817">
        <ele>185.60000610352</ele>
        <time>2026-06-17T09:45:16.000Z</time>
      </trkpt>
      <trkpt lat="48.48388" lon="1.15822">
        <ele>185.39999389648</ele>
        <time>2026-06-17T09:45:17.000Z</time>
      </trkpt>
      <trkpt lat="48.48345" lon="1.1584">
        <ele>184.39999389648</ele>
        <time>2026-06-17T09:45:23.000Z</time>
      </trkpt>
      <trkpt lat="48.48325" lon="1.15846">
        <ele>184</ele>
        <time>2026-06-17T09:45:26.000Z</time>
      </trkpt>
      <trkpt lat="48.48299" lon="1.15856">
        <ele>183.39999389648</ele>
        <time>2026-06-17T09:45:30.000Z</time>
      </trkpt>
      <trkpt lat="48.48287" lon="1.15863">
        <ele>183.19999694824</ele>
        <time>2026-06-17T09:45:32.000Z</time>
      </trkpt>
      <trkpt lat="48.48261" lon="1.15887">
        <ele>183</ele>
        <time>2026-06-17T09:45:37.000Z</time>
      </trkpt>
      <trkpt lat="48.4825" lon="1.15896">
        <ele>183</ele>
        <time>2026-06-17T09:45:39.000Z</time>
      </trkpt>
      <trkpt lat="48.48228" lon="1.15918">
        <ele>182.60000610352</ele>
        <time>2026-06-17T09:45:43.000Z</time>
      </trkpt>
      <trkpt lat="48.48213" lon="1.15936">
        <ele>182.39999389648</ele>
        <time>2026-06-17T09:45:46.000Z</time>
      </trkpt>
      <trkpt lat="48.48192" lon="1.15961">
        <ele>182.19999694824</ele>
        <time>2026-06-17T09:45:50.000Z</time>
      </trkpt>
      <trkpt lat="48.48166" lon="1.15993">
        <ele>181.80000305176</ele>
        <time>2026-06-17T09:45:56.000Z</time>
      </trkpt>
      <trkpt lat="48.4815" lon="1.16007">
        <ele>181.60000610352</ele>
        <time>2026-06-17T09:45:59.000Z</time>
      </trkpt>
      <trkpt lat="48.48145" lon="1.1601">
        <ele>181.39999389648</ele>
        <time>2026-06-17T09:46:00.000Z</time>
      </trkpt>
      <trkpt lat="48.4814" lon="1.16014">
        <ele>181.19999694824</ele>
        <time>2026-06-17T09:46:01.000Z</time>
      </trkpt>
      <trkpt lat="48.48128" lon="1.1602">
        <ele>180.60000610352</ele>
        <time>2026-06-17T09:46:03.000Z</time>
      </trkpt>
      <trkpt lat="48.48117" lon="1.16024">
        <ele>180.39999389648</ele>
        <time>2026-06-17T09:46:05.000Z</time>
      </trkpt>
      <trkpt lat="48.48108" lon="1.16029">
        <ele>180.19999694824</ele>
        <time>2026-06-17T09:46:07.000Z</time>
      </trkpt>
      <trkpt lat="48.48083" lon="1.16042">
        <ele>179.60000610352</ele>
        <time>2026-06-17T09:46:12.000Z</time>
      </trkpt>
      <trkpt lat="48.48076" lon="1.16053">
        <ele>179.39999389648</ele>
        <time>2026-06-17T09:46:14.000Z</time>
      </trkpt>
      <trkpt lat="48.48073" lon="1.16061">
        <ele>179.19999694824</ele>
        <time>2026-06-17T09:46:15.000Z</time>
      </trkpt>
      <trkpt lat="48.48071" lon="1.16067">
        <ele>179</ele>
        <time>2026-06-17T09:46:16.000Z</time>
      </trkpt>
      <trkpt lat="48.48066" lon="1.16086">
        <ele>178.60000610352</ele>
        <time>2026-06-17T09:46:19.000Z</time>
      </trkpt>
      <trkpt lat="48.48052" lon="1.16135">
        <ele>178.60000610352</ele>
        <time>2026-06-17T09:46:27.000Z</time>
      </trkpt>
      <trkpt lat="48.48047" lon="1.16151">
        <ele>178.80000305176</ele>
        <time>2026-06-17T09:46:30.000Z</time>
      </trkpt>
      <trkpt lat="48.4804" lon="1.16164">
        <ele>179</ele>
        <time>2026-06-17T09:46:33.000Z</time>
      </trkpt>
      <trkpt lat="48.48038" lon="1.1617">
        <ele>179</ele>
        <time>2026-06-17T09:46:34.000Z</time>
      </trkpt>
      <trkpt lat="48.48035" lon="1.16182">
        <ele>179.19999694824</ele>
        <time>2026-06-17T09:46:36.000Z</time>
      </trkpt>
      <trkpt lat="48.48028" lon="1.16197">
        <ele>179.19999694824</ele>
        <time>2026-06-17T09:46:39.000Z</time>
      </trkpt>
      <trkpt lat="48.48024" lon="1.16207">
        <ele>179.39999389648</ele>
        <time>2026-06-17T09:46:41.000Z</time>
      </trkpt>
      <trkpt lat="48.48018" lon="1.16218">
        <ele>179.39999389648</ele>
        <time>2026-06-17T09:46:43.000Z</time>
      </trkpt>
      <trkpt lat="48.48012" lon="1.16238">
        <ele>179.60000610352</ele>
        <time>2026-06-17T09:46:46.000Z</time>
      </trkpt>
      <trkpt lat="48.4801" lon="1.16245">
        <ele>179.60000610352</ele>
        <time>2026-06-17T09:46:47.000Z</time>
      </trkpt>
      <trkpt lat="48.48009" lon="1.16267">
        <ele>179.60000610352</ele>
        <time>2026-06-17T09:46:50.000Z</time>
      </trkpt>
      <trkpt lat="48.48009" lon="1.16273">
        <ele>179.60000610352</ele>
        <time>2026-06-17T09:46:51.000Z</time>
      </trkpt>
      <trkpt lat="48.48008" lon="1.16302">
        <ele>180</ele>
        <time>2026-06-17T09:46:56.000Z</time>
      </trkpt>
      <trkpt lat="48.48009" lon="1.16324">
        <ele>180.19999694824</ele>
        <time>2026-06-17T09:47:00.000Z</time>
      </trkpt>
      <trkpt lat="48.48009" lon="1.1633">
        <ele>180.39999389648</ele>
        <time>2026-06-17T09:47:01.000Z</time>
      </trkpt>
      <trkpt lat="48.4801" lon="1.16359">
        <ele>181.39999389648</ele>
        <time>2026-06-17T09:47:06.000Z</time>
      </trkpt>
      <trkpt lat="48.48011" lon="1.16375">
        <ele>181.80000305176</ele>
        <time>2026-06-17T09:47:09.000Z</time>
      </trkpt>
      <trkpt lat="48.4801" lon="1.16413">
        <ele>182.39999389648</ele>
        <time>2026-06-17T09:47:15.000Z</time>
      </trkpt>
      <trkpt lat="48.48009" lon="1.16431">
        <ele>182.80000305176</ele>
        <time>2026-06-17T09:47:18.000Z</time>
      </trkpt>
      <trkpt lat="48.48011" lon="1.16471">
        <ele>183.39999389648</ele>
        <time>2026-06-17T09:47:25.000Z</time>
      </trkpt>
      <trkpt lat="48.48012" lon="1.1649">
        <ele>183.80000305176</ele>
        <time>2026-06-17T09:47:28.000Z</time>
      </trkpt>
      <trkpt lat="48.48012" lon="1.16538">
        <ele>184.39999389648</ele>
        <time>2026-06-17T09:47:36.000Z</time>
      </trkpt>
      <trkpt lat="48.48013" lon="1.16548">
        <ele>184.60000610352</ele>
        <time>2026-06-17T09:47:38.000Z</time>
      </trkpt>
      <trkpt lat="48.48013" lon="1.16574">
        <ele>184.80000305176</ele>
        <time>2026-06-17T09:47:42.000Z</time>
      </trkpt>
      <trkpt lat="48.48014" lon="1.16628">
        <ele>185.60000610352</ele>
        <time>2026-06-17T09:47:51.000Z</time>
      </trkpt>
      <trkpt lat="48.48014" lon="1.16697">
        <ele>186.19999694824</ele>
        <time>2026-06-17T09:48:01.000Z</time>
      </trkpt>
      <trkpt lat="48.48015" lon="1.16732">
        <ele>186.60000610352</ele>
        <time>2026-06-17T09:48:06.000Z</time>
      </trkpt>
      <trkpt lat="48.48016" lon="1.16757">
        <ele>187.19999694824</ele>
        <time>2026-06-17T09:48:10.000Z</time>
      </trkpt>
      <trkpt lat="48.48016" lon="1.16779">
        <ele>187.80000305176</ele>
        <time>2026-06-17T09:48:14.000Z</time>
      </trkpt>
      <trkpt lat="48.48017" lon="1.16792">
        <ele>188</ele>
        <time>2026-06-17T09:48:16.000Z</time>
      </trkpt>
      <trkpt lat="48.48018" lon="1.16837">
        <ele>189</ele>
        <time>2026-06-17T09:48:23.000Z</time>
      </trkpt>
      <trkpt lat="48.48017" lon="1.16851">
        <ele>189</ele>
        <time>2026-06-17T09:48:25.000Z</time>
      </trkpt>
      <trkpt lat="48.48018" lon="1.16866">
        <ele>189.19999694824</ele>
        <time>2026-06-17T09:48:27.000Z</time>
      </trkpt>
      <trkpt lat="48.48017" lon="1.16889">
        <ele>189.60000610352</ele>
        <time>2026-06-17T09:48:31.000Z</time>
      </trkpt>
      <trkpt lat="48.48018" lon="1.1693">
        <ele>190</ele>
        <time>2026-06-17T09:48:37.000Z</time>
      </trkpt>
      <trkpt lat="48.4802" lon="1.16978">
        <ele>190.19999694824</ele>
        <time>2026-06-17T09:48:43.000Z</time>
      </trkpt>
      <trkpt lat="48.48023" lon="1.1706">
        <ele>190.19999694824</ele>
        <time>2026-06-17T09:48:53.000Z</time>
      </trkpt>
      <trkpt lat="48.48019" lon="1.17117">
        <ele>190.19999694824</ele>
        <time>2026-06-17T09:49:00.000Z</time>
      </trkpt>
      <trkpt lat="48.48016" lon="1.17135">
        <ele>190.19999694824</ele>
        <time>2026-06-17T09:49:02.000Z</time>
      </trkpt>
      <trkpt lat="48.48009" lon="1.17152">
        <ele>190</ele>
        <time>2026-06-17T09:49:04.000Z</time>
      </trkpt>
      <trkpt lat="48.47988" lon="1.172">
        <ele>189.80000305176</ele>
        <time>2026-06-17T09:49:10.000Z</time>
      </trkpt>
      <trkpt lat="48.47961" lon="1.17257">
        <ele>190</ele>
        <time>2026-06-17T09:49:18.000Z</time>
      </trkpt>
      <trkpt lat="48.47935" lon="1.1731">
        <ele>191</ele>
        <time>2026-06-17T09:49:26.000Z</time>
      </trkpt>
      <trkpt lat="48.47926" lon="1.17331">
        <ele>191.39999389648</ele>
        <time>2026-06-17T09:49:29.000Z</time>
      </trkpt>
      <trkpt lat="48.47893" lon="1.17402">
        <ele>192.39999389648</ele>
        <time>2026-06-17T09:49:39.000Z</time>
      </trkpt>
      <trkpt lat="48.47889" lon="1.1741">
        <ele>192.39999389648</ele>
        <time>2026-06-17T09:49:40.000Z</time>
      </trkpt>
      <trkpt lat="48.47881" lon="1.17427">
        <ele>192.39999389648</ele>
        <time>2026-06-17T09:49:43.000Z</time>
      </trkpt>
      <trkpt lat="48.4785" lon="1.17493">
        <ele>192.39999389648</ele>
        <time>2026-06-17T09:49:52.000Z</time>
      </trkpt>
      <trkpt lat="48.47818" lon="1.1756">
        <ele>192.39999389648</ele>
        <time>2026-06-17T09:50:01.000Z</time>
      </trkpt>
      <trkpt lat="48.47814" lon="1.17568">
        <ele>192.39999389648</ele>
        <time>2026-06-17T09:50:02.000Z</time>
      </trkpt>
      <trkpt lat="48.47782" lon="1.17635">
        <ele>192.60000610352</ele>
        <time>2026-06-17T09:50:11.000Z</time>
      </trkpt>
      <trkpt lat="48.47776" lon="1.17649">
        <ele>192.60000610352</ele>
        <time>2026-06-17T09:50:13.000Z</time>
      </trkpt>
      <trkpt lat="48.47773" lon="1.17655">
        <ele>192.80000305176</ele>
        <time>2026-06-17T09:50:14.000Z</time>
      </trkpt>
      <trkpt lat="48.47756" lon="1.17689">
        <ele>193.39999389648</ele>
        <time>2026-06-17T09:50:19.000Z</time>
      </trkpt>
      <trkpt lat="48.4775" lon="1.17702">
        <ele>193.60000610352</ele>
        <time>2026-06-17T09:50:21.000Z</time>
      </trkpt>
      <trkpt lat="48.47731" lon="1.17742">
        <ele>194.39999389648</ele>
        <time>2026-06-17T09:50:27.000Z</time>
      </trkpt>
      <trkpt lat="48.47721" lon="1.17763">
        <ele>194.60000610352</ele>
        <time>2026-06-17T09:50:30.000Z</time>
      </trkpt>
      <trkpt lat="48.47696" lon="1.17814">
        <ele>194.80000305176</ele>
        <time>2026-06-17T09:50:37.000Z</time>
      </trkpt>
      <trkpt lat="48.47662" lon="1.17887">
        <ele>194.19999694824</ele>
        <time>2026-06-17T09:50:46.000Z</time>
      </trkpt>
      <trkpt lat="48.47629" lon="1.17957">
        <ele>194</ele>
        <time>2026-06-17T09:50:55.000Z</time>
      </trkpt>
      <trkpt lat="48.47626" lon="1.17964">
        <ele>194</ele>
        <time>2026-06-17T09:50:56.000Z</time>
      </trkpt>
      <trkpt lat="48.47594" lon="1.18032">
        <ele>194.39999389648</ele>
        <time>2026-06-17T09:51:05.000Z</time>
      </trkpt>
      <trkpt lat="48.47561" lon="1.18101">
        <ele>194.60000610352</ele>
        <time>2026-06-17T09:51:14.000Z</time>
      </trkpt>
      <trkpt lat="48.47554" lon="1.18116">
        <ele>194.80000305176</ele>
        <time>2026-06-17T09:51:16.000Z</time>
      </trkpt>
      <trkpt lat="48.47522" lon="1.18182">
        <ele>195.19999694824</ele>
        <time>2026-06-17T09:51:25.000Z</time>
      </trkpt>
      <trkpt lat="48.47519" lon="1.18189">
        <ele>195.39999389648</ele>
        <time>2026-06-17T09:51:26.000Z</time>
      </trkpt>
      <trkpt lat="48.47501" lon="1.18225">
        <ele>195.80000305176</ele>
        <time>2026-06-17T09:51:31.000Z</time>
      </trkpt>
      <trkpt lat="48.47491" lon="1.18247">
        <ele>196</ele>
        <time>2026-06-17T09:51:34.000Z</time>
      </trkpt>
      <trkpt lat="48.47466" lon="1.18302">
        <ele>196</ele>
        <time>2026-06-17T09:51:41.000Z</time>
      </trkpt>
      <trkpt lat="48.47438" lon="1.18359">
        <ele>196.19999694824</ele>
        <time>2026-06-17T09:51:49.000Z</time>
      </trkpt>
      <trkpt lat="48.47405" lon="1.18424">
        <ele>196.80000305176</ele>
        <time>2026-06-17T09:51:58.000Z</time>
      </trkpt>
      <trkpt lat="48.47401" lon="1.18432">
        <ele>196.80000305176</ele>
        <time>2026-06-17T09:51:59.000Z</time>
      </trkpt>
      <trkpt lat="48.47378" lon="1.18478">
        <ele>196.80000305176</ele>
        <time>2026-06-17T09:52:05.000Z</time>
      </trkpt>
      <trkpt lat="48.47355" lon="1.18525">
        <ele>196.60000610352</ele>
        <time>2026-06-17T09:52:11.000Z</time>
      </trkpt>
      <trkpt lat="48.47325" lon="1.18585">
        <ele>195.60000610352</ele>
        <time>2026-06-17T09:52:18.000Z</time>
      </trkpt>
      <trkpt lat="48.473" lon="1.18639">
        <ele>194.80000305176</ele>
        <time>2026-06-17T09:52:24.000Z</time>
      </trkpt>
      <trkpt lat="48.47291" lon="1.18657">
        <ele>194</ele>
        <time>2026-06-17T09:52:26.000Z</time>
      </trkpt>
      <trkpt lat="48.47283" lon="1.18674">
        <ele>193.60000610352</ele>
        <time>2026-06-17T09:52:28.000Z</time>
      </trkpt>
      <trkpt lat="48.47253" lon="1.18737">
        <ele>193.80000305176</ele>
        <time>2026-06-17T09:52:36.000Z</time>
      </trkpt>
      <trkpt lat="48.47229" lon="1.18785">
        <ele>194.80000305176</ele>
        <time>2026-06-17T09:52:43.000Z</time>
      </trkpt>
      <trkpt lat="48.47226" lon="1.18792">
        <ele>195</ele>
        <time>2026-06-17T09:52:44.000Z</time>
      </trkpt>
      <trkpt lat="48.47196" lon="1.18855">
        <ele>195.80000305176</ele>
        <time>2026-06-17T09:52:53.000Z</time>
      </trkpt>
      <trkpt lat="48.47186" lon="1.18876">
        <ele>196.19999694824</ele>
        <time>2026-06-17T09:52:56.000Z</time>
      </trkpt>
      <trkpt lat="48.4716" lon="1.18927">
        <ele>196.60000610352</ele>
        <time>2026-06-17T09:53:03.000Z</time>
      </trkpt>
      <trkpt lat="48.47124" lon="1.18999">
        <ele>196.60000610352</ele>
        <time>2026-06-17T09:53:13.000Z</time>
      </trkpt>
      <trkpt lat="48.47091" lon="1.19066">
        <ele>196.60000610352</ele>
        <time>2026-06-17T09:53:22.000Z</time>
      </trkpt>
      <trkpt lat="48.47056" lon="1.19137">
        <ele>196.60000610352</ele>
        <time>2026-06-17T09:53:32.000Z</time>
      </trkpt>
      <trkpt lat="48.47052" lon="1.19144">
        <ele>196.60000610352</ele>
        <time>2026-06-17T09:53:33.000Z</time>
      </trkpt>
      <trkpt lat="48.47018" lon="1.19214">
        <ele>196.60000610352</ele>
        <time>2026-06-17T09:53:42.000Z</time>
      </trkpt>
      <trkpt lat="48.47016" lon="1.19218">
        <ele>196.60000610352</ele>
        <time>2026-06-17T09:53:43.000Z</time>
      </trkpt>
      <trkpt lat="48.46994" lon="1.19266">
        <ele>195.80000305176</ele>
        <time>2026-06-17T09:53:48.000Z</time>
      </trkpt>
      <trkpt lat="48.46973" lon="1.1931">
        <ele>194.80000305176</ele>
        <time>2026-06-17T09:53:53.000Z</time>
      </trkpt>
      <trkpt lat="48.46957" lon="1.19342">
        <ele>194.39999389648</ele>
        <time>2026-06-17T09:53:57.000Z</time>
      </trkpt>
      <trkpt lat="48.46927" lon="1.194">
        <ele>194</ele>
        <time>2026-06-17T09:54:05.000Z</time>
      </trkpt>
      <trkpt lat="48.46892" lon="1.19472">
        <ele>194</ele>
        <time>2026-06-17T09:54:15.000Z</time>
      </trkpt>
      <trkpt lat="48.46861" lon="1.19529">
        <ele>194</ele>
        <time>2026-06-17T09:54:23.000Z</time>
      </trkpt>
      <trkpt lat="48.46846" lon="1.19561">
        <ele>194</ele>
        <time>2026-06-17T09:54:27.000Z</time>
      </trkpt>
      <trkpt lat="48.46827" lon="1.19601">
        <ele>193.60000610352</ele>
        <time>2026-06-17T09:54:32.000Z</time>
      </trkpt>
      <trkpt lat="48.46797" lon="1.19663">
        <ele>193</ele>
        <time>2026-06-17T09:54:40.000Z</time>
      </trkpt>
      <trkpt lat="48.46786" lon="1.19684">
        <ele>192.80000305176</ele>
        <time>2026-06-17T09:54:43.000Z</time>
      </trkpt>
      <trkpt lat="48.46759" lon="1.19738">
        <ele>192</ele>
        <time>2026-06-17T09:54:49.000Z</time>
      </trkpt>
      <trkpt lat="48.46755" lon="1.19746">
        <ele>191.80000305176</ele>
        <time>2026-06-17T09:54:50.000Z</time>
      </trkpt>
      <trkpt lat="48.4673" lon="1.19797">
        <ele>191.39999389648</ele>
        <time>2026-06-17T09:54:57.000Z</time>
      </trkpt>
      <trkpt lat="48.46706" lon="1.19844">
        <ele>191.60000610352</ele>
        <time>2026-06-17T09:55:04.000Z</time>
      </trkpt>
      <trkpt lat="48.46679" lon="1.19898">
        <ele>192</ele>
        <time>2026-06-17T09:55:12.000Z</time>
      </trkpt>
      <trkpt lat="48.46647" lon="1.19966">
        <ele>191.60000610352</ele>
        <time>2026-06-17T09:55:21.000Z</time>
      </trkpt>
      <trkpt lat="48.46627" lon="1.20015">
        <ele>190.80000305176</ele>
        <time>2026-06-17T09:55:27.000Z</time>
      </trkpt>
      <trkpt lat="48.46619" lon="1.20032">
        <ele>190.39999389648</ele>
        <time>2026-06-17T09:55:29.000Z</time>
      </trkpt>
      <trkpt lat="48.46598" lon="1.20079">
        <ele>189.80000305176</ele>
        <time>2026-06-17T09:55:34.000Z</time>
      </trkpt>
      <trkpt lat="48.46593" lon="1.20089">
        <ele>189.80000305176</ele>
        <time>2026-06-17T09:55:35.000Z</time>
      </trkpt>
      <trkpt lat="48.46579" lon="1.20121">
        <ele>188.60000610352</ele>
        <time>2026-06-17T09:55:38.000Z</time>
      </trkpt>
      <trkpt lat="48.4656" lon="1.20162">
        <ele>187.60000610352</ele>
        <time>2026-06-17T09:55:42.000Z</time>
      </trkpt>
      <trkpt lat="48.46547" lon="1.20192">
        <ele>186.39999389648</ele>
        <time>2026-06-17T09:55:45.000Z</time>
      </trkpt>
      <trkpt lat="48.4653" lon="1.20232">
        <ele>185.19999694824</ele>
        <time>2026-06-17T09:55:49.000Z</time>
      </trkpt>
      <trkpt lat="48.46525" lon="1.20242">
        <ele>184.80000305176</ele>
        <time>2026-06-17T09:55:50.000Z</time>
      </trkpt>
      <trkpt lat="48.46512" lon="1.20271">
        <ele>184.19999694824</ele>
        <time>2026-06-17T09:55:53.000Z</time>
      </trkpt>
      <trkpt lat="48.46491" lon="1.20316">
        <ele>183.39999389648</ele>
        <time>2026-06-17T09:55:58.000Z</time>
      </trkpt>
      <trkpt lat="48.46471" lon="1.20362">
        <ele>183.19999694824</ele>
        <time>2026-06-17T09:56:04.000Z</time>
      </trkpt>
      <trkpt lat="48.46468" lon="1.2037">
        <ele>183.19999694824</ele>
        <time>2026-06-17T09:56:05.000Z</time>
      </trkpt>
      <trkpt lat="48.46439" lon="1.20432">
        <ele>183.80000305176</ele>
        <time>2026-06-17T09:56:14.000Z</time>
      </trkpt>
      <trkpt lat="48.46427" lon="1.20457">
        <ele>184.39999389648</ele>
        <time>2026-06-17T09:56:18.000Z</time>
      </trkpt>
      <trkpt lat="48.46415" lon="1.20484">
        <ele>184.80000305176</ele>
        <time>2026-06-17T09:56:22.000Z</time>
      </trkpt>
      <trkpt lat="48.46399" lon="1.20517">
        <ele>185.39999389648</ele>
        <time>2026-06-17T09:56:27.000Z</time>
      </trkpt>
      <trkpt lat="48.46389" lon="1.20542">
        <ele>186.19999694824</ele>
        <time>2026-06-17T09:56:31.000Z</time>
      </trkpt>
      <trkpt lat="48.46386" lon="1.20547">
        <ele>186.39999389648</ele>
        <time>2026-06-17T09:56:32.000Z</time>
      </trkpt>
      <trkpt lat="48.46369" lon="1.20586">
        <ele>187.39999389648</ele>
        <time>2026-06-17T09:56:38.000Z</time>
      </trkpt>
      <trkpt lat="48.4636" lon="1.20605">
        <ele>187.39999389648</ele>
        <time>2026-06-17T09:56:41.000Z</time>
      </trkpt>
      <trkpt lat="48.46338" lon="1.20655">
        <ele>187.60000610352</ele>
        <time>2026-06-17T09:56:48.000Z</time>
      </trkpt>
      <trkpt lat="48.46307" lon="1.20725">
        <ele>187.60000610352</ele>
        <time>2026-06-17T09:56:58.000Z</time>
      </trkpt>
      <trkpt lat="48.46297" lon="1.20745">
        <ele>188</ele>
        <time>2026-06-17T09:57:01.000Z</time>
      </trkpt>
      <trkpt lat="48.46265" lon="1.20816">
        <ele>188</ele>
        <time>2026-06-17T09:57:11.000Z</time>
      </trkpt>
      <trkpt lat="48.46262" lon="1.20825">
        <ele>188</ele>
        <time>2026-06-17T09:57:12.000Z</time>
      </trkpt>
      <trkpt lat="48.4623" lon="1.20893">
        <ele>188.60000610352</ele>
        <time>2026-06-17T09:57:22.000Z</time>
      </trkpt>
      <trkpt lat="48.46218" lon="1.20919">
        <ele>188.80000305176</ele>
        <time>2026-06-17T09:57:26.000Z</time>
      </trkpt>
      <trkpt lat="48.46206" lon="1.20947">
        <ele>188.80000305176</ele>
        <time>2026-06-17T09:57:30.000Z</time>
      </trkpt>
      <trkpt lat="48.46176" lon="1.21014">
        <ele>189.19999694824</ele>
        <time>2026-06-17T09:57:39.000Z</time>
      </trkpt>
      <trkpt lat="48.46143" lon="1.21087">
        <ele>189.19999694824</ele>
        <time>2026-06-17T09:57:49.000Z</time>
      </trkpt>
      <trkpt lat="48.46137" lon="1.21102">
        <ele>189.39999389648</ele>
        <time>2026-06-17T09:57:51.000Z</time>
      </trkpt>
      <trkpt lat="48.4611" lon="1.21161">
        <ele>189.60000610352</ele>
        <time>2026-06-17T09:57:59.000Z</time>
      </trkpt>
      <trkpt lat="48.46093" lon="1.21197">
        <ele>189.80000305176</ele>
        <time>2026-06-17T09:58:04.000Z</time>
      </trkpt>
      <trkpt lat="48.4608" lon="1.21226">
        <ele>189.80000305176</ele>
        <time>2026-06-17T09:58:08.000Z</time>
      </trkpt>
      <trkpt lat="48.46047" lon="1.21297">
        <ele>189.39999389648</ele>
        <time>2026-06-17T09:58:17.000Z</time>
      </trkpt>
      <trkpt lat="48.4603" lon="1.21337">
        <ele>189</ele>
        <time>2026-06-17T09:58:22.000Z</time>
      </trkpt>
      <trkpt lat="48.46023" lon="1.21351">
        <ele>188.80000305176</ele>
        <time>2026-06-17T09:58:24.000Z</time>
      </trkpt>
      <trkpt lat="48.46012" lon="1.21374">
        <ele>188.60000610352</ele>
        <time>2026-06-17T09:58:27.000Z</time>
      </trkpt>
      <trkpt lat="48.46002" lon="1.214">
        <ele>188.60000610352</ele>
        <time>2026-06-17T09:58:30.000Z</time>
      </trkpt>
      <trkpt lat="48.45999" lon="1.21408">
        <ele>188.39999389648</ele>
        <time>2026-06-17T09:58:31.000Z</time>
      </trkpt>
      <trkpt lat="48.45981" lon="1.2145">
        <ele>187.60000610352</ele>
        <time>2026-06-17T09:58:36.000Z</time>
      </trkpt>
      <trkpt lat="48.45966" lon="1.21482">
        <ele>187.19999694824</ele>
        <time>2026-06-17T09:58:40.000Z</time>
      </trkpt>
      <trkpt lat="48.45939" lon="1.21541">
        <ele>186.60000610352</ele>
        <time>2026-06-17T09:58:47.000Z</time>
      </trkpt>
      <trkpt lat="48.45921" lon="1.21583">
        <ele>186.39999389648</ele>
        <time>2026-06-17T09:58:52.000Z</time>
      </trkpt>
      <trkpt lat="48.45889" lon="1.21656">
        <ele>185.60000610352</ele>
        <time>2026-06-17T09:59:01.000Z</time>
      </trkpt>
      <trkpt lat="48.45885" lon="1.21664">
        <ele>185.80000305176</ele>
        <time>2026-06-17T09:59:02.000Z</time>
      </trkpt>
      <trkpt lat="48.45874" lon="1.21689">
        <ele>185.39999389648</ele>
        <time>2026-06-17T09:59:05.000Z</time>
      </trkpt>
      <trkpt lat="48.4584" lon="1.21764">
        <ele>184.80000305176</ele>
        <time>2026-06-17T09:59:14.000Z</time>
      </trkpt>
      <trkpt lat="48.45832" lon="1.21781">
        <ele>184.80000305176</ele>
        <time>2026-06-17T09:59:16.000Z</time>
      </trkpt>
      <trkpt lat="48.45828" lon="1.21789">
        <ele>184.60000610352</ele>
        <time>2026-06-17T09:59:17.000Z</time>
      </trkpt>
      <trkpt lat="48.45794" lon="1.21864">
        <ele>183.60000610352</ele>
        <time>2026-06-17T09:59:26.000Z</time>
      </trkpt>
      <trkpt lat="48.4579" lon="1.21872">
        <ele>183.60000610352</ele>
        <time>2026-06-17T09:59:27.000Z</time>
      </trkpt>
      <trkpt lat="48.45758" lon="1.21947">
        <ele>182.60000610352</ele>
        <time>2026-06-17T09:59:36.000Z</time>
      </trkpt>
      <trkpt lat="48.4575" lon="1.21964">
        <ele>182.60000610352</ele>
        <time>2026-06-17T09:59:38.000Z</time>
      </trkpt>
      <trkpt lat="48.45723" lon="1.22023">
        <ele>181.60000610352</ele>
        <time>2026-06-17T09:59:45.000Z</time>
      </trkpt>
      <trkpt lat="48.45712" lon="1.22048">
        <ele>181.19999694824</ele>
        <time>2026-06-17T09:59:48.000Z</time>
      </trkpt>
      <trkpt lat="48.45688" lon="1.221">
        <ele>180.60000610352</ele>
        <time>2026-06-17T09:59:54.000Z</time>
      </trkpt>
      <trkpt lat="48.45677" lon="1.22125">
        <ele>180.19999694824</ele>
        <time>2026-06-17T09:59:57.000Z</time>
      </trkpt>
      <trkpt lat="48.4565" lon="1.22184">
        <ele>180</ele>
        <time>2026-06-17T10:00:04.000Z</time>
      </trkpt>
      <trkpt lat="48.45634" lon="1.22219">
        <ele>179.60000610352</ele>
        <time>2026-06-17T10:00:08.000Z</time>
      </trkpt>
      <trkpt lat="48.45622" lon="1.22245">
        <ele>179</ele>
        <time>2026-06-17T10:00:11.000Z</time>
      </trkpt>
      <trkpt lat="48.45615" lon="1.22261">
        <ele>178.60000610352</ele>
        <time>2026-06-17T10:00:13.000Z</time>
      </trkpt>
      <trkpt lat="48.45589" lon="1.22319">
        <ele>177.60000610352</ele>
        <time>2026-06-17T10:00:20.000Z</time>
      </trkpt>
      <trkpt lat="48.45585" lon="1.22327">
        <ele>177.60000610352</ele>
        <time>2026-06-17T10:00:21.000Z</time>
      </trkpt>
      <trkpt lat="48.45554" lon="1.22397">
        <ele>177.19999694824</ele>
        <time>2026-06-17T10:00:29.000Z</time>
      </trkpt>
      <trkpt lat="48.4555" lon="1.22406">
        <ele>177</ele>
        <time>2026-06-17T10:00:30.000Z</time>
      </trkpt>
      <trkpt lat="48.45542" lon="1.22422">
        <ele>176.60000610352</ele>
        <time>2026-06-17T10:00:32.000Z</time>
      </trkpt>
      <trkpt lat="48.45519" lon="1.22475">
        <ele>176</ele>
        <time>2026-06-17T10:00:38.000Z</time>
      </trkpt>
      <trkpt lat="48.45499" lon="1.22518">
        <ele>175.60000610352</ele>
        <time>2026-06-17T10:00:43.000Z</time>
      </trkpt>
      <trkpt lat="48.45495" lon="1.22527">
        <ele>175.60000610352</ele>
        <time>2026-06-17T10:00:44.000Z</time>
      </trkpt>
      <trkpt lat="48.45484" lon="1.22552">
        <ele>175.19999694824</ele>
        <time>2026-06-17T10:00:47.000Z</time>
      </trkpt>
      <trkpt lat="48.45454" lon="1.22621">
        <ele>174.39999389648</ele>
        <time>2026-06-17T10:00:55.000Z</time>
      </trkpt>
      <trkpt lat="48.45447" lon="1.22638">
        <ele>174.39999389648</ele>
        <time>2026-06-17T10:00:57.000Z</time>
      </trkpt>
      <trkpt lat="48.45424" lon="1.22691">
        <ele>173.39999389648</ele>
        <time>2026-06-17T10:01:03.000Z</time>
      </trkpt>
      <trkpt lat="48.45406" lon="1.22733">
        <ele>172.60000610352</ele>
        <time>2026-06-17T10:01:08.000Z</time>
      </trkpt>
      <trkpt lat="48.45385" lon="1.2278">
        <ele>172.19999694824</ele>
        <time>2026-06-17T10:01:14.000Z</time>
      </trkpt>
      <trkpt lat="48.45373" lon="1.22808">
        <ele>172.19999694824</ele>
        <time>2026-06-17T10:01:17.000Z</time>
      </trkpt>
      <trkpt lat="48.4534" lon="1.2288">
        <ele>171.60000610352</ele>
        <time>2026-06-17T10:01:26.000Z</time>
      </trkpt>
      <trkpt lat="48.45305" lon="1.22953">
        <ele>171.39999389648</ele>
        <time>2026-06-17T10:01:36.000Z</time>
      </trkpt>
      <trkpt lat="48.45297" lon="1.22969">
        <ele>171.39999389648</ele>
        <time>2026-06-17T10:01:38.000Z</time>
      </trkpt>
      <trkpt lat="48.45266" lon="1.23034">
        <ele>170.60000610352</ele>
        <time>2026-06-17T10:01:46.000Z</time>
      </trkpt>
      <trkpt lat="48.45262" lon="1.23043">
        <ele>170.39999389648</ele>
        <time>2026-06-17T10:01:47.000Z</time>
      </trkpt>
      <trkpt lat="48.45233" lon="1.23092">
        <ele>169.39999389648</ele>
        <time>2026-06-17T10:01:53.000Z</time>
      </trkpt>
      <trkpt lat="48.45226" lon="1.23099">
        <ele>169.19999694824</ele>
        <time>2026-06-17T10:01:54.000Z</time>
      </trkpt>
      <trkpt lat="48.4522" lon="1.23106">
        <ele>169.19999694824</ele>
        <time>2026-06-17T10:01:55.000Z</time>
      </trkpt>
      <trkpt lat="48.45205" lon="1.23117">
        <ele>168.80000305176</ele>
        <time>2026-06-17T10:01:57.000Z</time>
      </trkpt>
      <trkpt lat="48.45181" lon="1.23132">
        <ele>168.19999694824</ele>
        <time>2026-06-17T10:02:00.000Z</time>
      </trkpt>
      <trkpt lat="48.45158" lon="1.23149">
        <ele>167.39999389648</ele>
        <time>2026-06-17T10:02:03.000Z</time>
      </trkpt>
      <trkpt lat="48.45151" lon="1.23154">
        <ele>167</ele>
        <time>2026-06-17T10:02:04.000Z</time>
      </trkpt>
      <trkpt lat="48.45125" lon="1.23173">
        <ele>166.60000610352</ele>
        <time>2026-06-17T10:02:08.000Z</time>
      </trkpt>
      <trkpt lat="48.45119" lon="1.23177">
        <ele>166.60000610352</ele>
        <time>2026-06-17T10:02:09.000Z</time>
      </trkpt>
      <trkpt lat="48.45113" lon="1.23189">
        <ele>166.39999389648</ele>
        <time>2026-06-17T10:02:11.000Z</time>
      </trkpt>
      <trkpt lat="48.45114" lon="1.23204">
        <ele>166.39999389648</ele>
        <time>2026-06-17T10:02:13.000Z</time>
      </trkpt>
      <trkpt lat="48.45113" lon="1.2322">
        <ele>166.39999389648</ele>
        <time>2026-06-17T10:02:15.000Z</time>
      </trkpt>
      <trkpt lat="48.45104" lon="1.23273">
        <ele>166.39999389648</ele>
        <time>2026-06-17T10:02:22.000Z</time>
      </trkpt>
      <trkpt lat="48.45092" lon="1.23342">
        <ele>166.19999694824</ele>
        <time>2026-06-17T10:02:30.000Z</time>
      </trkpt>
      <trkpt lat="48.45082" lon="1.23401">
        <ele>166.80000305176</ele>
        <time>2026-06-17T10:02:38.000Z</time>
      </trkpt>
      <trkpt lat="48.45074" lon="1.23444">
        <ele>168</ele>
        <time>2026-06-17T10:02:44.000Z</time>
      </trkpt>
      <trkpt lat="48.45073" lon="1.23451">
        <ele>168.19999694824</ele>
        <time>2026-06-17T10:02:45.000Z</time>
      </trkpt>
      <trkpt lat="48.4507" lon="1.23456">
        <ele>168.39999389648</ele>
        <time>2026-06-17T10:02:46.000Z</time>
      </trkpt>
      <trkpt lat="48.45057" lon="1.23479">
        <ele>169</ele>
        <time>2026-06-17T10:02:50.000Z</time>
      </trkpt>
      <trkpt lat="48.45053" lon="1.23485">
        <ele>169.19999694824</ele>
        <time>2026-06-17T10:02:51.000Z</time>
      </trkpt>
      <trkpt lat="48.45043" lon="1.235">
        <ele>169.39999389648</ele>
        <time>2026-06-17T10:02:54.000Z</time>
      </trkpt>
      <trkpt lat="48.45035" lon="1.23507">
        <ele>169.60000610352</ele>
        <time>2026-06-17T10:02:56.000Z</time>
      </trkpt>
      <trkpt lat="48.45013" lon="1.23523">
        <ele>170.19999694824</ele>
        <time>2026-06-17T10:03:01.000Z</time>
      </trkpt>
      <trkpt lat="48.44986" lon="1.23541">
        <ele>170.39999389648</ele>
        <time>2026-06-17T10:03:07.000Z</time>
      </trkpt>
      <trkpt lat="48.44963" lon="1.23556">
        <ele>170.60000610352</ele>
        <time>2026-06-17T10:03:12.000Z</time>
      </trkpt>
      <trkpt lat="48.44949" lon="1.23565">
        <ele>170.80000305176</ele>
        <time>2026-06-17T10:03:15.000Z</time>
      </trkpt>
      <trkpt lat="48.44926" lon="1.23579">
        <ele>170.80000305176</ele>
        <time>2026-06-17T10:03:20.000Z</time>
      </trkpt>
      <trkpt lat="48.44922" lon="1.23582">
        <ele>170.80000305176</ele>
        <time>2026-06-17T10:03:21.000Z</time>
      </trkpt>
      <trkpt lat="48.44918" lon="1.23587">
        <ele>170.80000305176</ele>
        <time>2026-06-17T10:03:22.000Z</time>
      </trkpt>
      <trkpt lat="48.44913" lon="1.23598">
        <ele>171</ele>
        <time>2026-06-17T10:03:24.000Z</time>
      </trkpt>
      <trkpt lat="48.44912" lon="1.23605">
        <ele>170.80000305176</ele>
        <time>2026-06-17T10:03:25.000Z</time>
      </trkpt>
      <trkpt lat="48.4491" lon="1.23641">
        <ele>170.80000305176</ele>
        <time>2026-06-17T10:03:30.000Z</time>
      </trkpt>
      <trkpt lat="48.44912" lon="1.23666">
        <ele>170.60000610352</ele>
        <time>2026-06-17T10:03:35.000Z</time>
      </trkpt>
      <trkpt lat="48.44914" lon="1.23702">
        <ele>169.80000305176</ele>
        <time>2026-06-17T10:03:43.000Z</time>
      </trkpt>
      <trkpt lat="48.44917" lon="1.23743">
        <ele>169.39999389648</ele>
        <time>2026-06-17T10:03:52.000Z</time>
      </trkpt>
      <trkpt lat="48.44914" lon="1.23774">
        <ele>169.19999694824</ele>
        <time>2026-06-17T10:04:00.000Z</time>
      </trkpt>
      <trkpt lat="48.44913" lon="1.23776">
        <ele>169</ele>
        <time>2026-06-17T10:04:01.000Z</time>
      </trkpt>
      <trkpt lat="48.44906" lon="1.23784">
        <ele>169</ele>
        <time>2026-06-17T10:04:04.000Z</time>
      </trkpt>
      <trkpt lat="48.44902" lon="1.23787">
        <ele>169</ele>
        <time>2026-06-17T10:04:05.000Z</time>
      </trkpt>
      <trkpt lat="48.44886" lon="1.23805">
        <ele>168.80000305176</ele>
        <time>2026-06-17T10:04:11.000Z</time>
      </trkpt>
      <trkpt lat="48.44891" lon="1.23822">
        <ele>168.80000305176</ele>
        <time>2026-06-17T10:04:14.000Z</time>
      </trkpt>
      <trkpt lat="48.44899" lon="1.23858">
        <ele>168.80000305176</ele>
        <time>2026-06-17T10:04:20.000Z</time>
      </trkpt>
      <trkpt lat="48.44903" lon="1.23886">
        <ele>169.39999389648</ele>
        <time>2026-06-17T10:04:25.000Z</time>
      </trkpt>
      <trkpt lat="48.44906" lon="1.23897">
        <ele>169.60000610352</ele>
        <time>2026-06-17T10:04:27.000Z</time>
      </trkpt>
      <trkpt lat="48.44906" lon="1.23908">
        <ele>169.60000610352</ele>
        <time>2026-06-17T10:04:29.000Z</time>
      </trkpt>
      <trkpt lat="48.4491" lon="1.23929">
        <ele>170</ele>
        <time>2026-06-17T10:04:33.000Z</time>
      </trkpt>
      <trkpt lat="48.44912" lon="1.23951">
        <ele>170.39999389648</ele>
        <time>2026-06-17T10:04:37.000Z</time>
      </trkpt>
      <trkpt lat="48.44914" lon="1.23962">
        <ele>170.39999389648</ele>
        <time>2026-06-17T10:04:39.000Z</time>
      </trkpt>
      <trkpt lat="48.44917" lon="1.23971">
        <ele>170.60000610352</ele>
        <time>2026-06-17T10:04:41.000Z</time>
      </trkpt>
      <trkpt lat="48.44917" lon="1.23988">
        <ele>170.60000610352</ele>
        <time>2026-06-17T10:04:45.000Z</time>
      </trkpt>
      <trkpt lat="48.44916" lon="1.23992">
        <ele>170.60000610352</ele>
        <time>2026-06-17T10:04:47.000Z</time>
      </trkpt>
      <trkpt lat="48.44917" lon="1.23993">
        <ele>170.60000610352</ele>
        <time>2026-06-17T10:04:51.000Z</time>
      </trkpt>
      <trkpt lat="48.44918" lon="1.23992">
        <ele>170.60000610352</ele>
        <time>2026-06-17T10:04:52.000Z</time>
      </trkpt>
      <trkpt lat="48.44918" lon="1.23992">
        <ele>170.39999389648</ele>
        <time>2026-06-17T10:04:53.000Z</time>
      </trkpt>
      <trkpt lat="48.44918" lon="1.23992">
        <ele>170.19999694824</ele>
        <time>2026-06-17T10:04:57.000Z</time>
      </trkpt>
      <trkpt lat="48.44918" lon="1.23992">
        <ele>170</ele>
        <time>2026-06-17T10:05:04.000Z</time>
      </trkpt>
      <trkpt lat="48.44918" lon="1.23992">
        <ele>169</ele>
        <time>2026-06-17T10:05:23.000Z</time>
      </trkpt>
      <trkpt lat="48.44918" lon="1.23992">
        <ele>168.60000610352</ele>
        <time>2026-06-17T10:05:51.000Z</time>
      </trkpt>
      <trkpt lat="48.44918" lon="1.23992">
        <ele>168</ele>
        <time>2026-06-17T10:06:22.000Z</time>
      </trkpt>
      <trkpt lat="48.44918" lon="1.23992">
        <ele>167.60000610352</ele>
        <time>2026-06-17T10:06:43.000Z</time>
      </trkpt>
      <trkpt lat="48.44914" lon="1.23978">
        <ele>170.60000610352</ele>
        <time>2026-06-17T10:41:49.000Z</time>
      </trkpt>
      <trkpt lat="48.44915" lon="1.23977">
        <ele>170.60000610352</ele>
        <time>2026-06-17T10:41:55.000Z</time>
      </trkpt>
      <trkpt lat="48.44915" lon="1.23967">
        <ele>170.80000305176</ele>
        <time>2026-06-17T10:41:59.000Z</time>
      </trkpt>
      <trkpt lat="48.44915" lon="1.23958">
        <ele>170.80000305176</ele>
        <time>2026-06-17T10:42:03.000Z</time>
      </trkpt>
      <trkpt lat="48.44913" lon="1.23953">
        <ele>170.80000305176</ele>
        <time>2026-06-17T10:42:06.000Z</time>
      </trkpt>
      <trkpt lat="48.44912" lon="1.23951">
        <ele>171</ele>
        <time>2026-06-17T10:42:07.000Z</time>
      </trkpt>
      <trkpt lat="48.44912" lon="1.2395">
        <ele>171</ele>
        <time>2026-06-17T10:42:08.000Z</time>
      </trkpt>
      <trkpt lat="48.44914" lon="1.23947">
        <ele>171</ele>
        <time>2026-06-17T10:42:11.000Z</time>
      </trkpt>
      <trkpt lat="48.44915" lon="1.23931">
        <ele>170.80000305176</ele>
        <time>2026-06-17T10:42:17.000Z</time>
      </trkpt>
      <trkpt lat="48.44914" lon="1.23926">
        <ele>170.80000305176</ele>
        <time>2026-06-17T10:42:19.000Z</time>
      </trkpt>
      <trkpt lat="48.44911" lon="1.2391">
        <ele>171</ele>
        <time>2026-06-17T10:42:26.000Z</time>
      </trkpt>
      <trkpt lat="48.44906" lon="1.23904">
        <ele>171</ele>
        <time>2026-06-17T10:42:29.000Z</time>
      </trkpt>
      <trkpt lat="48.44906" lon="1.23899">
        <ele>171.19999694824</ele>
        <time>2026-06-17T10:42:31.000Z</time>
      </trkpt>
      <trkpt lat="48.44907" lon="1.23893">
        <ele>171.19999694824</ele>
        <time>2026-06-17T10:42:33.000Z</time>
      </trkpt>
      <trkpt lat="48.44906" lon="1.23886">
        <ele>171.19999694824</ele>
        <time>2026-06-17T10:42:37.000Z</time>
      </trkpt>
      <trkpt lat="48.44904" lon="1.23879">
        <ele>171.19999694824</ele>
        <time>2026-06-17T10:42:41.000Z</time>
      </trkpt>
      <trkpt lat="48.44903" lon="1.23879">
        <ele>171.19999694824</ele>
        <time>2026-06-17T10:42:43.000Z</time>
      </trkpt>
      <trkpt lat="48.44903" lon="1.2388">
        <ele>171.19999694824</ele>
        <time>2026-06-17T10:42:45.000Z</time>
      </trkpt>
      <trkpt lat="48.44901" lon="1.23875">
        <ele>170.80000305176</ele>
        <time>2026-06-17T10:42:54.000Z</time>
      </trkpt>
      <trkpt lat="48.44901" lon="1.23873">
        <ele>170.80000305176</ele>
        <time>2026-06-17T10:42:55.000Z</time>
      </trkpt>
      <trkpt lat="48.44899" lon="1.23857">
        <ele>170.80000305176</ele>
        <time>2026-06-17T10:43:00.000Z</time>
      </trkpt>
      <trkpt lat="48.44895" lon="1.23828">
        <ele>170.80000305176</ele>
        <time>2026-06-17T10:43:08.000Z</time>
      </trkpt>
      <trkpt lat="48.44893" lon="1.23825">
        <ele>170.60000610352</ele>
        <time>2026-06-17T10:43:09.000Z</time>
      </trkpt>
      <trkpt lat="48.44891" lon="1.23816">
        <ele>170.39999389648</ele>
        <time>2026-06-17T10:43:12.000Z</time>
      </trkpt>
      <trkpt lat="48.44891" lon="1.238">
        <ele>170.19999694824</ele>
        <time>2026-06-17T10:43:17.000Z</time>
      </trkpt>
      <trkpt lat="48.44906" lon="1.23785">
        <ele>170.19999694824</ele>
        <time>2026-06-17T10:43:24.000Z</time>
      </trkpt>
      <trkpt lat="48.4492" lon="1.23769">
        <ele>170.39999389648</ele>
        <time>2026-06-17T10:43:31.000Z</time>
      </trkpt>
      <trkpt lat="48.44921" lon="1.23763">
        <ele>170.39999389648</ele>
        <time>2026-06-17T10:43:33.000Z</time>
      </trkpt>
      <trkpt lat="48.44921" lon="1.23751">
        <ele>170.39999389648</ele>
        <time>2026-06-17T10:43:37.000Z</time>
      </trkpt>
      <trkpt lat="48.4492" lon="1.2372">
        <ele>170.19999694824</ele>
        <time>2026-06-17T10:43:44.000Z</time>
      </trkpt>
      <trkpt lat="48.44919" lon="1.23686">
        <ele>170.19999694824</ele>
        <time>2026-06-17T10:43:51.000Z</time>
      </trkpt>
      <trkpt lat="48.44919" lon="1.23654">
        <ele>170.19999694824</ele>
        <time>2026-06-17T10:43:58.000Z</time>
      </trkpt>
      <trkpt lat="48.44919" lon="1.23617">
        <ele>170</ele>
        <time>2026-06-17T10:44:05.000Z</time>
      </trkpt>
      <trkpt lat="48.44924" lon="1.23592">
        <ele>170.19999694824</ele>
        <time>2026-06-17T10:44:11.000Z</time>
      </trkpt>
      <trkpt lat="48.44928" lon="1.23586">
        <ele>170.39999389648</ele>
        <time>2026-06-17T10:44:13.000Z</time>
      </trkpt>
      <trkpt lat="48.44937" lon="1.2358">
        <ele>170.80000305176</ele>
        <time>2026-06-17T10:44:16.000Z</time>
      </trkpt>
      <trkpt lat="48.4496" lon="1.23562">
        <ele>171.39999389648</ele>
        <time>2026-06-17T10:44:23.000Z</time>
      </trkpt>
      <trkpt lat="48.44974" lon="1.23552">
        <ele>171.80000305176</ele>
        <time>2026-06-17T10:44:27.000Z</time>
      </trkpt>
      <trkpt lat="48.44981" lon="1.23548">
        <ele>171.80000305176</ele>
        <time>2026-06-17T10:44:29.000Z</time>
      </trkpt>
      <trkpt lat="48.45002" lon="1.23535">
        <ele>172</ele>
        <time>2026-06-17T10:44:35.000Z</time>
      </trkpt>
      <trkpt lat="48.45027" lon="1.23519">
        <ele>172</ele>
        <time>2026-06-17T10:44:42.000Z</time>
      </trkpt>
      <trkpt lat="48.45051" lon="1.23502">
        <ele>171.60000610352</ele>
        <time>2026-06-17T10:44:49.000Z</time>
      </trkpt>
      <trkpt lat="48.45066" lon="1.23493">
        <ele>171.39999389648</ele>
        <time>2026-06-17T10:44:54.000Z</time>
      </trkpt>
      <trkpt lat="48.45091" lon="1.23491">
        <ele>171</ele>
        <time>2026-06-17T10:45:02.000Z</time>
      </trkpt>
      <trkpt lat="48.45115" lon="1.2349">
        <ele>171</ele>
        <time>2026-06-17T10:45:10.000Z</time>
      </trkpt>
      <trkpt lat="48.45117" lon="1.23488">
        <ele>171</ele>
        <time>2026-06-17T10:45:11.000Z</time>
      </trkpt>
      <trkpt lat="48.45113" lon="1.23483">
        <ele>171</ele>
        <time>2026-06-17T10:45:14.000Z</time>
      </trkpt>
      <trkpt lat="48.45097" lon="1.23483">
        <ele>170.80000305176</ele>
        <time>2026-06-17T10:45:19.000Z</time>
      </trkpt>
      <trkpt lat="48.45093" lon="1.23481">
        <ele>170.60000610352</ele>
        <time>2026-06-17T10:45:20.000Z</time>
      </trkpt>
      <trkpt lat="48.45077" lon="1.23477">
        <ele>170.19999694824</ele>
        <time>2026-06-17T10:45:25.000Z</time>
      </trkpt>
      <trkpt lat="48.45073" lon="1.23469">
        <ele>170.19999694824</ele>
        <time>2026-06-17T10:45:27.000Z</time>
      </trkpt>
      <trkpt lat="48.45073" lon="1.23465">
        <ele>170.19999694824</ele>
        <time>2026-06-17T10:45:28.000Z</time>
      </trkpt>
      <trkpt lat="48.45081" lon="1.23426">
        <ele>170</ele>
        <time>2026-06-17T10:45:34.000Z</time>
      </trkpt>
      <trkpt lat="48.45084" lon="1.23408">
        <ele>169.60000610352</ele>
        <time>2026-06-17T10:45:36.000Z</time>
      </trkpt>
      <trkpt lat="48.45085" lon="1.23401">
        <ele>169.60000610352</ele>
        <time>2026-06-17T10:45:37.000Z</time>
      </trkpt>
      <trkpt lat="48.4509" lon="1.23377">
        <ele>169.19999694824</ele>
        <time>2026-06-17T10:45:40.000Z</time>
      </trkpt>
      <trkpt lat="48.45098" lon="1.23328">
        <ele>168.39999389648</ele>
        <time>2026-06-17T10:45:45.000Z</time>
      </trkpt>
      <trkpt lat="48.45102" lon="1.23305">
        <ele>168.19999694824</ele>
        <time>2026-06-17T10:45:47.000Z</time>
      </trkpt>
      <trkpt lat="48.45114" lon="1.23245">
        <ele>167.80000305176</ele>
        <time>2026-06-17T10:45:53.000Z</time>
      </trkpt>
      <trkpt lat="48.45118" lon="1.23219">
        <ele>167.39999389648</ele>
        <time>2026-06-17T10:45:56.000Z</time>
      </trkpt>
      <trkpt lat="48.45123" lon="1.23191">
        <ele>167.39999389648</ele>
        <time>2026-06-17T10:45:59.000Z</time>
      </trkpt>
      <trkpt lat="48.45128" lon="1.23178">
        <ele>167.19999694824</ele>
        <time>2026-06-17T10:46:01.000Z</time>
      </trkpt>
      <trkpt lat="48.45147" lon="1.23157">
        <ele>167.39999389648</ele>
        <time>2026-06-17T10:46:05.000Z</time>
      </trkpt>
      <trkpt lat="48.45162" lon="1.23144">
        <ele>167.39999389648</ele>
        <time>2026-06-17T10:46:08.000Z</time>
      </trkpt>
      <trkpt lat="48.45172" lon="1.23136">
        <ele>167.39999389648</ele>
        <time>2026-06-17T10:46:10.000Z</time>
      </trkpt>
      <trkpt lat="48.45181" lon="1.23127">
        <ele>167.39999389648</ele>
        <time>2026-06-17T10:46:12.000Z</time>
      </trkpt>
      <trkpt lat="48.45192" lon="1.23122">
        <ele>167.39999389648</ele>
        <time>2026-06-17T10:46:14.000Z</time>
      </trkpt>
      <trkpt lat="48.45227" lon="1.23106">
        <ele>167.80000305176</ele>
        <time>2026-06-17T10:46:21.000Z</time>
      </trkpt>
      <trkpt lat="48.45235" lon="1.23102">
        <ele>168.19999694824</ele>
        <time>2026-06-17T10:46:23.000Z</time>
      </trkpt>
      <trkpt lat="48.4524" lon="1.23102">
        <ele>168.60000610352</ele>
        <time>2026-06-17T10:46:24.000Z</time>
      </trkpt>
      <trkpt lat="48.45244" lon="1.23102">
        <ele>168.80000305176</ele>
        <time>2026-06-17T10:46:25.000Z</time>
      </trkpt>
      <trkpt lat="48.45249" lon="1.23103">
        <ele>168.80000305176</ele>
        <time>2026-06-17T10:46:26.000Z</time>
      </trkpt>
      <trkpt lat="48.4527" lon="1.23113">
        <ele>169.60000610352</ele>
        <time>2026-06-17T10:46:30.000Z</time>
      </trkpt>
      <trkpt lat="48.45276" lon="1.23115">
        <ele>169.80000305176</ele>
        <time>2026-06-17T10:46:31.000Z</time>
      </trkpt>
      <trkpt lat="48.45306" lon="1.23125">
        <ele>170.19999694824</ele>
        <time>2026-06-17T10:46:37.000Z</time>
      </trkpt>
      <trkpt lat="48.45338" lon="1.23136">
        <ele>170.19999694824</ele>
        <time>2026-06-17T10:46:44.000Z</time>
      </trkpt>
      <trkpt lat="48.45392" lon="1.23156">
        <ele>170.39999389648</ele>
        <time>2026-06-17T10:46:56.000Z</time>
      </trkpt>
      <trkpt lat="48.45413" lon="1.23163">
        <ele>170.80000305176</ele>
        <time>2026-06-17T10:47:01.000Z</time>
      </trkpt>
      <trkpt lat="48.4543" lon="1.23168">
        <ele>171</ele>
        <time>2026-06-17T10:47:05.000Z</time>
      </trkpt>
      <trkpt lat="48.45469" lon="1.23166">
        <ele>171.80000305176</ele>
        <time>2026-06-17T10:47:14.000Z</time>
      </trkpt>
      <trkpt lat="48.45478" lon="1.23164">
        <ele>172</ele>
        <time>2026-06-17T10:47:16.000Z</time>
      </trkpt>
      <trkpt lat="48.45502" lon="1.23155">
        <ele>172.19999694824</ele>
        <time>2026-06-17T10:47:21.000Z</time>
      </trkpt>
      <trkpt lat="48.45507" lon="1.23153">
        <ele>172.39999389648</ele>
        <time>2026-06-17T10:47:22.000Z</time>
      </trkpt>
      <trkpt lat="48.45516" lon="1.23152">
        <ele>172.39999389648</ele>
        <time>2026-06-17T10:47:24.000Z</time>
      </trkpt>
      <trkpt lat="48.45523" lon="1.23156">
        <ele>172.39999389648</ele>
        <time>2026-06-17T10:47:26.000Z</time>
      </trkpt>
      <trkpt lat="48.4553" lon="1.23167">
        <ele>172.60000610352</ele>
        <time>2026-06-17T10:47:28.000Z</time>
      </trkpt>
      <trkpt lat="48.45531" lon="1.23174">
        <ele>172.60000610352</ele>
        <time>2026-06-17T10:47:29.000Z</time>
      </trkpt>
      <trkpt lat="48.45531" lon="1.23181">
        <ele>172.60000610352</ele>
        <time>2026-06-17T10:47:30.000Z</time>
      </trkpt>
      <trkpt lat="48.45527" lon="1.23211">
        <ele>172.60000610352</ele>
        <time>2026-06-17T10:47:34.000Z</time>
      </trkpt>
      <trkpt lat="48.45516" lon="1.23269">
        <ele>173</ele>
        <time>2026-06-17T10:47:42.000Z</time>
      </trkpt>
      <trkpt lat="48.45514" lon="1.23284">
        <ele>173</ele>
        <time>2026-06-17T10:47:44.000Z</time>
      </trkpt>
      <trkpt lat="48.45501" lon="1.23359">
        <ele>173.60000610352</ele>
        <time>2026-06-17T10:47:55.000Z</time>
      </trkpt>
      <trkpt lat="48.45493" lon="1.2341">
        <ele>174</ele>
        <time>2026-06-17T10:48:03.000Z</time>
      </trkpt>
      <trkpt lat="48.4549" lon="1.23428">
        <ele>174.19999694824</ele>
        <time>2026-06-17T10:48:06.000Z</time>
      </trkpt>
      <trkpt lat="48.45483" lon="1.23477">
        <ele>174.60000610352</ele>
        <time>2026-06-17T10:48:14.000Z</time>
      </trkpt>
      <trkpt lat="48.45476" lon="1.23542">
        <ele>174.80000305176</ele>
        <time>2026-06-17T10:48:23.000Z</time>
      </trkpt>
      <trkpt lat="48.4547" lon="1.23609">
        <ele>174.60000610352</ele>
        <time>2026-06-17T10:48:32.000Z</time>
      </trkpt>
      <trkpt lat="48.45464" lon="1.23677">
        <ele>174.19999694824</ele>
        <time>2026-06-17T10:48:41.000Z</time>
      </trkpt>
      <trkpt lat="48.45465" lon="1.23758">
        <ele>174.19999694824</ele>
        <time>2026-06-17T10:48:53.000Z</time>
      </trkpt>
      <trkpt lat="48.45474" lon="1.23821">
        <ele>174.60000610352</ele>
        <time>2026-06-17T10:49:02.000Z</time>
      </trkpt>
      <trkpt lat="48.45489" lon="1.23887">
        <ele>174.80000305176</ele>
        <time>2026-06-17T10:49:11.000Z</time>
      </trkpt>
      <trkpt lat="48.45515" lon="1.2395">
        <ele>174.19999694824</ele>
        <time>2026-06-17T10:49:20.000Z</time>
      </trkpt>
      <trkpt lat="48.45545" lon="1.24003">
        <ele>173.39999389648</ele>
        <time>2026-06-17T10:49:29.000Z</time>
      </trkpt>
      <trkpt lat="48.45548" lon="1.24008">
        <ele>173.39999389648</ele>
        <time>2026-06-17T10:49:30.000Z</time>
      </trkpt>
      <trkpt lat="48.45574" lon="1.24042">
        <ele>173.60000610352</ele>
        <time>2026-06-17T10:49:37.000Z</time>
      </trkpt>
      <trkpt lat="48.45618" lon="1.24096">
        <ele>174</ele>
        <time>2026-06-17T10:49:48.000Z</time>
      </trkpt>
      <trkpt lat="48.45622" lon="1.241">
        <ele>174</ele>
        <time>2026-06-17T10:49:49.000Z</time>
      </trkpt>
      <trkpt lat="48.45666" lon="1.24156">
        <ele>173.60000610352</ele>
        <time>2026-06-17T10:50:00.000Z</time>
      </trkpt>
      <trkpt lat="48.45679" lon="1.24171">
        <ele>173.39999389648</ele>
        <time>2026-06-17T10:50:03.000Z</time>
      </trkpt>
      <trkpt lat="48.45696" lon="1.24191">
        <ele>173.19999694824</ele>
        <time>2026-06-17T10:50:07.000Z</time>
      </trkpt>
      <trkpt lat="48.45739" lon="1.24243">
        <ele>172.80000305176</ele>
        <time>2026-06-17T10:50:17.000Z</time>
      </trkpt>
      <trkpt lat="48.45777" lon="1.24287">
        <ele>173.19999694824</ele>
        <time>2026-06-17T10:50:26.000Z</time>
      </trkpt>
      <trkpt lat="48.45786" lon="1.24295">
        <ele>173.19999694824</ele>
        <time>2026-06-17T10:50:28.000Z</time>
      </trkpt>
      <trkpt lat="48.45792" lon="1.24307">
        <ele>173.39999389648</ele>
        <time>2026-06-17T10:50:30.000Z</time>
      </trkpt>
      <trkpt lat="48.45796" lon="1.24313">
        <ele>173.39999389648</ele>
        <time>2026-06-17T10:50:31.000Z</time>
      </trkpt>
      <trkpt lat="48.45817" lon="1.24338">
        <ele>173.80000305176</ele>
        <time>2026-06-17T10:50:36.000Z</time>
      </trkpt>
      <trkpt lat="48.45854" lon="1.24373">
        <ele>174.39999389648</ele>
        <time>2026-06-17T10:50:44.000Z</time>
      </trkpt>
      <trkpt lat="48.45864" lon="1.24381">
        <ele>174.60000610352</ele>
        <time>2026-06-17T10:50:46.000Z</time>
      </trkpt>
      <trkpt lat="48.45906" lon="1.24416">
        <ele>175</ele>
        <time>2026-06-17T10:50:55.000Z</time>
      </trkpt>
      <trkpt lat="48.45925" lon="1.2443">
        <ele>175.39999389648</ele>
        <time>2026-06-17T10:50:59.000Z</time>
      </trkpt>
      <trkpt lat="48.45955" lon="1.2445">
        <ele>175.39999389648</ele>
        <time>2026-06-17T10:51:06.000Z</time>
      </trkpt>
      <trkpt lat="48.46005" lon="1.24475">
        <ele>175.19999694824</ele>
        <time>2026-06-17T10:51:16.000Z</time>
      </trkpt>
      <trkpt lat="48.46057" lon="1.24507">
        <ele>175.19999694824</ele>
        <time>2026-06-17T10:51:26.000Z</time>
      </trkpt>
      <trkpt lat="48.46105" lon="1.24543">
        <ele>175</ele>
        <time>2026-06-17T10:51:35.000Z</time>
      </trkpt>
      <trkpt lat="48.46117" lon="1.24551">
        <ele>175</ele>
        <time>2026-06-17T10:51:37.000Z</time>
      </trkpt>
      <trkpt lat="48.46165" lon="1.24588">
        <ele>174.80000305176</ele>
        <time>2026-06-17T10:51:46.000Z</time>
      </trkpt>
      <trkpt lat="48.46182" lon="1.24604">
        <ele>174.60000610352</ele>
        <time>2026-06-17T10:51:49.000Z</time>
      </trkpt>
      <trkpt lat="48.46196" lon="1.24619">
        <ele>174.60000610352</ele>
        <time>2026-06-17T10:51:51.000Z</time>
      </trkpt>
      <trkpt lat="48.46225" lon="1.24652">
        <ele>174.39999389648</ele>
        <time>2026-06-17T10:51:57.000Z</time>
      </trkpt>
      <trkpt lat="48.4627" lon="1.24702">
        <ele>174</ele>
        <time>2026-06-17T10:52:06.000Z</time>
      </trkpt>
      <trkpt lat="48.46314" lon="1.24753">
        <ele>174.19999694824</ele>
        <time>2026-06-17T10:52:15.000Z</time>
      </trkpt>
      <trkpt lat="48.46362" lon="1.24806">
        <ele>174.39999389648</ele>
        <time>2026-06-17T10:52:25.000Z</time>
      </trkpt>
      <trkpt lat="48.46376" lon="1.24822">
        <ele>174.60000610352</ele>
        <time>2026-06-17T10:52:28.000Z</time>
      </trkpt>
      <trkpt lat="48.46405" lon="1.24855">
        <ele>175.80000305176</ele>
        <time>2026-06-17T10:52:34.000Z</time>
      </trkpt>
      <trkpt lat="48.4641" lon="1.24861">
        <ele>176</ele>
        <time>2026-06-17T10:52:35.000Z</time>
      </trkpt>
      <trkpt lat="48.4644" lon="1.24894">
        <ele>176.80000305176</ele>
        <time>2026-06-17T10:52:42.000Z</time>
      </trkpt>
      <trkpt lat="48.46448" lon="1.24903">
        <ele>176.80000305176</ele>
        <time>2026-06-17T10:52:44.000Z</time>
      </trkpt>
      <trkpt lat="48.46491" lon="1.24947">
        <ele>177</ele>
        <time>2026-06-17T10:52:54.000Z</time>
      </trkpt>
      <trkpt lat="48.46535" lon="1.24982">
        <ele>177.19999694824</ele>
        <time>2026-06-17T10:53:03.000Z</time>
      </trkpt>
      <trkpt lat="48.46585" lon="1.25025">
        <ele>177.19999694824</ele>
        <time>2026-06-17T10:53:13.000Z</time>
      </trkpt>
      <trkpt lat="48.46589" lon="1.25029">
        <ele>177.19999694824</ele>
        <time>2026-06-17T10:53:14.000Z</time>
      </trkpt>
      <trkpt lat="48.4662" lon="1.25071">
        <ele>177.60000610352</ele>
        <time>2026-06-17T10:53:22.000Z</time>
      </trkpt>
      <trkpt lat="48.46648" lon="1.25122">
        <ele>177.80000305176</ele>
        <time>2026-06-17T10:53:30.000Z</time>
      </trkpt>
      <trkpt lat="48.46655" lon="1.25135">
        <ele>177.80000305176</ele>
        <time>2026-06-17T10:53:32.000Z</time>
      </trkpt>
      <trkpt lat="48.46671" lon="1.25156">
        <ele>178.19999694824</ele>
        <time>2026-06-17T10:53:36.000Z</time>
      </trkpt>
      <trkpt lat="48.46676" lon="1.25161">
        <ele>178.19999694824</ele>
        <time>2026-06-17T10:53:37.000Z</time>
      </trkpt>
      <trkpt lat="48.46686" lon="1.25168">
        <ele>178.39999389648</ele>
        <time>2026-06-17T10:53:39.000Z</time>
      </trkpt>
      <trkpt lat="48.46707" lon="1.25177">
        <ele>178.60000610352</ele>
        <time>2026-06-17T10:53:43.000Z</time>
      </trkpt>
      <trkpt lat="48.46739" lon="1.25184">
        <ele>178.80000305176</ele>
        <time>2026-06-17T10:53:49.000Z</time>
      </trkpt>
      <trkpt lat="48.46744" lon="1.25185">
        <ele>178.80000305176</ele>
        <time>2026-06-17T10:53:50.000Z</time>
      </trkpt>
      <trkpt lat="48.46798" lon="1.25197">
        <ele>178.80000305176</ele>
        <time>2026-06-17T10:54:00.000Z</time>
      </trkpt>
      <trkpt lat="48.46842" lon="1.25211">
        <ele>178.60000610352</ele>
        <time>2026-06-17T10:54:07.000Z</time>
      </trkpt>
      <trkpt lat="48.46887" lon="1.25214">
        <ele>178.39999389648</ele>
        <time>2026-06-17T10:54:13.000Z</time>
      </trkpt>
      <trkpt lat="48.46944" lon="1.25208">
        <ele>178</ele>
        <time>2026-06-17T10:54:22.000Z</time>
      </trkpt>
      <trkpt lat="48.46964" lon="1.25206">
        <ele>177.80000305176</ele>
        <time>2026-06-17T10:54:25.000Z</time>
      </trkpt>
      <trkpt lat="48.4702" lon="1.25198">
        <ele>177.60000610352</ele>
        <time>2026-06-17T10:54:33.000Z</time>
      </trkpt>
      <trkpt lat="48.4705" lon="1.25193">
        <ele>176.80000305176</ele>
        <time>2026-06-17T10:54:37.000Z</time>
      </trkpt>
      <trkpt lat="48.47058" lon="1.25191">
        <ele>176.80000305176</ele>
        <time>2026-06-17T10:54:38.000Z</time>
      </trkpt>
      <trkpt lat="48.47108" lon="1.25182">
        <ele>175.60000610352</ele>
        <time>2026-06-17T10:54:44.000Z</time>
      </trkpt>
      <trkpt lat="48.47158" lon="1.25174">
        <ele>174.80000305176</ele>
        <time>2026-06-17T10:54:50.000Z</time>
      </trkpt>
      <trkpt lat="48.47174" lon="1.25172">
        <ele>174.60000610352</ele>
        <time>2026-06-17T10:54:52.000Z</time>
      </trkpt>
      <trkpt lat="48.47211" lon="1.2517">
        <ele>174</ele>
        <time>2026-06-17T10:54:57.000Z</time>
      </trkpt>
      <trkpt lat="48.47258" lon="1.25172">
        <ele>174</ele>
        <time>2026-06-17T10:55:04.000Z</time>
      </trkpt>
      <trkpt lat="48.47278" lon="1.25174">
        <ele>174</ele>
        <time>2026-06-17T10:55:07.000Z</time>
      </trkpt>
      <trkpt lat="48.47326" lon="1.25176">
        <ele>175</ele>
        <time>2026-06-17T10:55:15.000Z</time>
      </trkpt>
      <trkpt lat="48.47379" lon="1.2518">
        <ele>176</ele>
        <time>2026-06-17T10:55:24.000Z</time>
      </trkpt>
      <trkpt lat="48.47427" lon="1.2518">
        <ele>176.60000610352</ele>
        <time>2026-06-17T10:55:32.000Z</time>
      </trkpt>
      <trkpt lat="48.47444" lon="1.25178">
        <ele>176.80000305176</ele>
        <time>2026-06-17T10:55:35.000Z</time>
      </trkpt>
      <trkpt lat="48.47455" lon="1.2518">
        <ele>177.19999694824</ele>
        <time>2026-06-17T10:55:37.000Z</time>
      </trkpt>
      <trkpt lat="48.47461" lon="1.25183">
        <ele>177.19999694824</ele>
        <time>2026-06-17T10:55:38.000Z</time>
      </trkpt>
      <trkpt lat="48.47486" lon="1.25206">
        <ele>177.39999389648</ele>
        <time>2026-06-17T10:55:43.000Z</time>
      </trkpt>
      <trkpt lat="48.47505" lon="1.25225">
        <ele>177.39999389648</ele>
        <time>2026-06-17T10:55:48.000Z</time>
      </trkpt>
      <trkpt lat="48.47527" lon="1.25245">
        <ele>177.39999389648</ele>
        <time>2026-06-17T10:55:54.000Z</time>
      </trkpt>
      <trkpt lat="48.47552" lon="1.25264">
        <ele>177.19999694824</ele>
        <time>2026-06-17T10:56:00.000Z</time>
      </trkpt>
      <trkpt lat="48.4758" lon="1.25285">
        <ele>177.19999694824</ele>
        <time>2026-06-17T10:56:06.000Z</time>
      </trkpt>
      <trkpt lat="48.47585" lon="1.25288">
        <ele>177.19999694824</ele>
        <time>2026-06-17T10:56:07.000Z</time>
      </trkpt>
      <trkpt lat="48.47589" lon="1.2529">
        <ele>177.19999694824</ele>
        <time>2026-06-17T10:56:08.000Z</time>
      </trkpt>
      <trkpt lat="48.47599" lon="1.25297">
        <ele>177.19999694824</ele>
        <time>2026-06-17T10:56:10.000Z</time>
      </trkpt>
      <trkpt lat="48.47607" lon="1.25305">
        <ele>177.39999389648</ele>
        <time>2026-06-17T10:56:12.000Z</time>
      </trkpt>
      <trkpt lat="48.47625" lon="1.2532">
        <ele>177.60000610352</ele>
        <time>2026-06-17T10:56:16.000Z</time>
      </trkpt>
      <trkpt lat="48.47642" lon="1.25335">
        <ele>177.80000305176</ele>
        <time>2026-06-17T10:56:19.000Z</time>
      </trkpt>
      <trkpt lat="48.47649" lon="1.25338">
        <ele>177.80000305176</ele>
        <time>2026-06-17T10:56:20.000Z</time>
      </trkpt>
      <trkpt lat="48.47659" lon="1.25343">
        <ele>178</ele>
        <time>2026-06-17T10:56:22.000Z</time>
      </trkpt>
      <trkpt lat="48.47677" lon="1.25356">
        <ele>178</ele>
        <time>2026-06-17T10:56:25.000Z</time>
      </trkpt>
      <trkpt lat="48.47683" lon="1.2536">
        <ele>178.19999694824</ele>
        <time>2026-06-17T10:56:26.000Z</time>
      </trkpt>
      <trkpt lat="48.47716" lon="1.25381">
        <ele>178.60000610352</ele>
        <time>2026-06-17T10:56:31.000Z</time>
      </trkpt>
      <trkpt lat="48.47746" lon="1.25405">
        <ele>179</ele>
        <time>2026-06-17T10:56:37.000Z</time>
      </trkpt>
      <trkpt lat="48.47763" lon="1.25416">
        <ele>179.19999694824</ele>
        <time>2026-06-17T10:56:40.000Z</time>
      </trkpt>
      <trkpt lat="48.47799" lon="1.25444">
        <ele>179.19999694824</ele>
        <time>2026-06-17T10:56:48.000Z</time>
      </trkpt>
      <trkpt lat="48.4783" lon="1.25468">
        <ele>179.19999694824</ele>
        <time>2026-06-17T10:56:54.000Z</time>
      </trkpt>
      <trkpt lat="48.47857" lon="1.25483">
        <ele>179</ele>
        <time>2026-06-17T10:56:58.000Z</time>
      </trkpt>
      <trkpt lat="48.47901" lon="1.25509">
        <ele>177.80000305176</ele>
        <time>2026-06-17T10:57:04.000Z</time>
      </trkpt>
      <trkpt lat="48.4792" lon="1.25523">
        <ele>177.19999694824</ele>
        <time>2026-06-17T10:57:07.000Z</time>
      </trkpt>
      <trkpt lat="48.47937" lon="1.25535">
        <ele>176.80000305176</ele>
        <time>2026-06-17T10:57:10.000Z</time>
      </trkpt>
      <trkpt lat="48.47979" lon="1.25568">
        <ele>176.80000305176</ele>
        <time>2026-06-17T10:57:18.000Z</time>
      </trkpt>
      <trkpt lat="48.47984" lon="1.25571">
        <ele>176.80000305176</ele>
        <time>2026-06-17T10:57:19.000Z</time>
      </trkpt>
      <trkpt lat="48.48031" lon="1.25607">
        <ele>177</ele>
        <time>2026-06-17T10:57:28.000Z</time>
      </trkpt>
      <trkpt lat="48.48073" lon="1.25641">
        <ele>177.39999389648</ele>
        <time>2026-06-17T10:57:37.000Z</time>
      </trkpt>
      <trkpt lat="48.48122" lon="1.25687">
        <ele>177.80000305176</ele>
        <time>2026-06-17T10:57:48.000Z</time>
      </trkpt>
      <trkpt lat="48.48169" lon="1.25732">
        <ele>178.39999389648</ele>
        <time>2026-06-17T10:57:58.000Z</time>
      </trkpt>
      <trkpt lat="48.48173" lon="1.25736">
        <ele>178.39999389648</ele>
        <time>2026-06-17T10:57:59.000Z</time>
      </trkpt>
      <trkpt lat="48.48219" lon="1.25781">
        <ele>179</ele>
        <time>2026-06-17T10:58:09.000Z</time>
      </trkpt>
      <trkpt lat="48.48224" lon="1.25786">
        <ele>179</ele>
        <time>2026-06-17T10:58:10.000Z</time>
      </trkpt>
      <trkpt lat="48.48272" lon="1.2583">
        <ele>179</ele>
        <time>2026-06-17T10:58:20.000Z</time>
      </trkpt>
      <trkpt lat="48.48282" lon="1.25839">
        <ele>179</ele>
        <time>2026-06-17T10:58:22.000Z</time>
      </trkpt>
      <trkpt lat="48.48331" lon="1.25885">
        <ele>179</ele>
        <time>2026-06-17T10:58:32.000Z</time>
      </trkpt>
      <trkpt lat="48.48336" lon="1.2589">
        <ele>179</ele>
        <time>2026-06-17T10:58:33.000Z</time>
      </trkpt>
      <trkpt lat="48.48373" lon="1.25925">
        <ele>179.39999389648</ele>
        <time>2026-06-17T10:58:41.000Z</time>
      </trkpt>
      <trkpt lat="48.48389" lon="1.25943">
        <ele>179.39999389648</ele>
        <time>2026-06-17T10:58:44.000Z</time>
      </trkpt>
      <trkpt lat="48.48422" lon="1.25984">
        <ele>179.60000610352</ele>
        <time>2026-06-17T10:58:52.000Z</time>
      </trkpt>
      <trkpt lat="48.48466" lon="1.26035">
        <ele>180.19999694824</ele>
        <time>2026-06-17T10:59:02.000Z</time>
      </trkpt>
      <trkpt lat="48.48475" lon="1.26045">
        <ele>180.39999389648</ele>
        <time>2026-06-17T10:59:04.000Z</time>
      </trkpt>
      <trkpt lat="48.48479" lon="1.26049">
        <ele>180.60000610352</ele>
        <time>2026-06-17T10:59:05.000Z</time>
      </trkpt>
      <trkpt lat="48.48511" lon="1.26069">
        <ele>180.80000305176</ele>
        <time>2026-06-17T10:59:11.000Z</time>
      </trkpt>
      <trkpt lat="48.48553" lon="1.26088">
        <ele>181.19999694824</ele>
        <time>2026-06-17T10:59:19.000Z</time>
      </trkpt>
      <trkpt lat="48.48594" lon="1.26118">
        <ele>181.19999694824</ele>
        <time>2026-06-17T10:59:27.000Z</time>
      </trkpt>
      <trkpt lat="48.4864" lon="1.26156">
        <ele>180.19999694824</ele>
        <time>2026-06-17T10:59:35.000Z</time>
      </trkpt>
      <trkpt lat="48.48665" lon="1.26178">
        <ele>179.60000610352</ele>
        <time>2026-06-17T10:59:39.000Z</time>
      </trkpt>
      <trkpt lat="48.48685" lon="1.26196">
        <ele>179</ele>
        <time>2026-06-17T10:59:42.000Z</time>
      </trkpt>
      <trkpt lat="48.48705" lon="1.26214">
        <ele>178.19999694824</ele>
        <time>2026-06-17T10:59:45.000Z</time>
      </trkpt>
      <trkpt lat="48.48744" lon="1.26254">
        <ele>177.60000610352</ele>
        <time>2026-06-17T10:59:51.000Z</time>
      </trkpt>
      <trkpt lat="48.48763" lon="1.26276">
        <ele>177.39999389648</ele>
        <time>2026-06-17T10:59:54.000Z</time>
      </trkpt>
      <trkpt lat="48.48808" lon="1.26324">
        <ele>176.19999694824</ele>
        <time>2026-06-17T11:00:01.000Z</time>
      </trkpt>
      <trkpt lat="48.48814" lon="1.2633">
        <ele>176.19999694824</ele>
        <time>2026-06-17T11:00:02.000Z</time>
      </trkpt>
      <trkpt lat="48.48843" lon="1.26355">
        <ele>175.80000305176</ele>
        <time>2026-06-17T11:00:07.000Z</time>
      </trkpt>
      <trkpt lat="48.48882" lon="1.26391">
        <ele>176.19999694824</ele>
        <time>2026-06-17T11:00:15.000Z</time>
      </trkpt>
      <trkpt lat="48.4893" lon="1.26434">
        <ele>176.39999389648</ele>
        <time>2026-06-17T11:00:24.000Z</time>
      </trkpt>
      <trkpt lat="48.48966" lon="1.26466">
        <ele>177</ele>
        <time>2026-06-17T11:00:32.000Z</time>
      </trkpt>
      <trkpt lat="48.48974" lon="1.26473">
        <ele>177.39999389648</ele>
        <time>2026-06-17T11:00:34.000Z</time>
      </trkpt>
      <trkpt lat="48.48992" lon="1.26489">
        <ele>178.19999694824</ele>
        <time>2026-06-17T11:00:39.000Z</time>
      </trkpt>
      <trkpt lat="48.48996" lon="1.26492">
        <ele>178.39999389648</ele>
        <time>2026-06-17T11:00:40.000Z</time>
      </trkpt>
      <trkpt lat="48.49007" lon="1.26502">
        <ele>179.19999694824</ele>
        <time>2026-06-17T11:00:43.000Z</time>
      </trkpt>
      <trkpt lat="48.49016" lon="1.26511">
        <ele>179.60000610352</ele>
        <time>2026-06-17T11:00:46.000Z</time>
      </trkpt>
      <trkpt lat="48.49023" lon="1.26516">
        <ele>179.80000305176</ele>
        <time>2026-06-17T11:00:48.000Z</time>
      </trkpt>
      <trkpt lat="48.49059" lon="1.26545">
        <ele>180.60000610352</ele>
        <time>2026-06-17T11:00:59.000Z</time>
      </trkpt>
      <trkpt lat="48.49084" lon="1.26569">
        <ele>181.60000610352</ele>
        <time>2026-06-17T11:01:07.000Z</time>
      </trkpt>
      <trkpt lat="48.4909" lon="1.26574">
        <ele>182</ele>
        <time>2026-06-17T11:01:09.000Z</time>
      </trkpt>
      <trkpt lat="48.49108" lon="1.26592">
        <ele>182.80000305176</ele>
        <time>2026-06-17T11:01:15.000Z</time>
      </trkpt>
      <trkpt lat="48.49111" lon="1.26595">
        <ele>183</ele>
        <time>2026-06-17T11:01:16.000Z</time>
      </trkpt>
      <trkpt lat="48.49125" lon="1.26608">
        <ele>183.80000305176</ele>
        <time>2026-06-17T11:01:20.000Z</time>
      </trkpt>
      <trkpt lat="48.49135" lon="1.2662">
        <ele>184.80000305176</ele>
        <time>2026-06-17T11:01:24.000Z</time>
      </trkpt>
      <trkpt lat="48.49138" lon="1.26622">
        <ele>185</ele>
        <time>2026-06-17T11:01:25.000Z</time>
      </trkpt>
      <trkpt lat="48.49148" lon="1.26634">
        <ele>185.60000610352</ele>
        <time>2026-06-17T11:01:31.000Z</time>
      </trkpt>
      <trkpt lat="48.49163" lon="1.26652">
        <ele>186</ele>
        <time>2026-06-17T11:01:39.000Z</time>
      </trkpt>
      <trkpt lat="48.49167" lon="1.26658">
        <ele>186.19999694824</ele>
        <time>2026-06-17T11:01:41.000Z</time>
      </trkpt>
      <trkpt lat="48.49185" lon="1.26677">
        <ele>186.80000305176</ele>
        <time>2026-06-17T11:01:48.000Z</time>
      </trkpt>
      <trkpt lat="48.49194" lon="1.26682">
        <ele>187.19999694824</ele>
        <time>2026-06-17T11:01:51.000Z</time>
      </trkpt>
      <trkpt lat="48.49221" lon="1.26695">
        <ele>188</ele>
        <time>2026-06-17T11:01:59.000Z</time>
      </trkpt>
      <trkpt lat="48.49224" lon="1.26696">
        <ele>188.19999694824</ele>
        <time>2026-06-17T11:02:00.000Z</time>
      </trkpt>
      <trkpt lat="48.49228" lon="1.26697">
        <ele>188.19999694824</ele>
        <time>2026-06-17T11:02:01.000Z</time>
      </trkpt>
      <trkpt lat="48.49248" lon="1.26707">
        <ele>188.80000305176</ele>
        <time>2026-06-17T11:02:07.000Z</time>
      </trkpt>
      <trkpt lat="48.49254" lon="1.2671">
        <ele>189.19999694824</ele>
        <time>2026-06-17T11:02:09.000Z</time>
      </trkpt>
      <trkpt lat="48.4927" lon="1.26719">
        <ele>190.19999694824</ele>
        <time>2026-06-17T11:02:14.000Z</time>
      </trkpt>
      <trkpt lat="48.49277" lon="1.26722">
        <ele>190.80000305176</ele>
        <time>2026-06-17T11:02:16.000Z</time>
      </trkpt>
      <trkpt lat="48.49287" lon="1.26726">
        <ele>191.39999389648</ele>
        <time>2026-06-17T11:02:19.000Z</time>
      </trkpt>
      <trkpt lat="48.49315" lon="1.26737">
        <ele>192.39999389648</ele>
        <time>2026-06-17T11:02:27.000Z</time>
      </trkpt>
      <trkpt lat="48.49344" lon="1.26744">
        <ele>193.60000610352</ele>
        <time>2026-06-17T11:02:35.000Z</time>
      </trkpt>
      <trkpt lat="48.49348" lon="1.26745">
        <ele>193.60000610352</ele>
        <time>2026-06-17T11:02:36.000Z</time>
      </trkpt>
      <trkpt lat="48.49366" lon="1.2675">
        <ele>194.80000305176</ele>
        <time>2026-06-17T11:02:41.000Z</time>
      </trkpt>
      <trkpt lat="48.4938" lon="1.26756">
        <ele>195.19999694824</ele>
        <time>2026-06-17T11:02:45.000Z</time>
      </trkpt>
      <trkpt lat="48.49394" lon="1.26761">
        <ele>195.80000305176</ele>
        <time>2026-06-17T11:02:49.000Z</time>
      </trkpt>
      <trkpt lat="48.49416" lon="1.26769">
        <ele>196.60000610352</ele>
        <time>2026-06-17T11:02:55.000Z</time>
      </trkpt>
      <trkpt lat="48.49423" lon="1.26771">
        <ele>196.80000305176</ele>
        <time>2026-06-17T11:02:57.000Z</time>
      </trkpt>
      <trkpt lat="48.4943" lon="1.26774">
        <ele>197.19999694824</ele>
        <time>2026-06-17T11:02:59.000Z</time>
      </trkpt>
      <trkpt lat="48.49457" lon="1.26782">
        <ele>198</ele>
        <time>2026-06-17T11:03:06.000Z</time>
      </trkpt>
      <trkpt lat="48.49464" lon="1.26785">
        <ele>198.19999694824</ele>
        <time>2026-06-17T11:03:08.000Z</time>
      </trkpt>
      <trkpt lat="48.49496" lon="1.26803">
        <ele>199</ele>
        <time>2026-06-17T11:03:17.000Z</time>
      </trkpt>
      <trkpt lat="48.49502" lon="1.26807">
        <ele>199.19999694824</ele>
        <time>2026-06-17T11:03:19.000Z</time>
      </trkpt>
      <trkpt lat="48.49524" lon="1.26824">
        <ele>200</ele>
        <time>2026-06-17T11:03:26.000Z</time>
      </trkpt>
      <trkpt lat="48.49529" lon="1.26828">
        <ele>200.60000610352</ele>
        <time>2026-06-17T11:03:28.000Z</time>
      </trkpt>
      <trkpt lat="48.4954" lon="1.26837">
        <ele>201.19999694824</ele>
        <time>2026-06-17T11:03:32.000Z</time>
      </trkpt>
      <trkpt lat="48.49548" lon="1.26843">
        <ele>201.80000305176</ele>
        <time>2026-06-17T11:03:35.000Z</time>
      </trkpt>
      <trkpt lat="48.49557" lon="1.2685">
        <ele>202.39999389648</ele>
        <time>2026-06-17T11:03:38.000Z</time>
      </trkpt>
      <trkpt lat="48.49577" lon="1.26867">
        <ele>203.39999389648</ele>
        <time>2026-06-17T11:03:45.000Z</time>
      </trkpt>
      <trkpt lat="48.496" lon="1.26885">
        <ele>204.60000610352</ele>
        <time>2026-06-17T11:03:53.000Z</time>
      </trkpt>
      <trkpt lat="48.49603" lon="1.26887">
        <ele>204.80000305176</ele>
        <time>2026-06-17T11:03:54.000Z</time>
      </trkpt>
      <trkpt lat="48.49609" lon="1.26892">
        <ele>205.19999694824</ele>
        <time>2026-06-17T11:03:56.000Z</time>
      </trkpt>
      <trkpt lat="48.49622" lon="1.26904">
        <ele>205.60000610352</ele>
        <time>2026-06-17T11:04:01.000Z</time>
      </trkpt>
      <trkpt lat="48.49631" lon="1.26911">
        <ele>206</ele>
        <time>2026-06-17T11:04:04.000Z</time>
      </trkpt>
      <trkpt lat="48.49642" lon="1.2692">
        <ele>206.60000610352</ele>
        <time>2026-06-17T11:04:08.000Z</time>
      </trkpt>
      <trkpt lat="48.49659" lon="1.26933">
        <ele>207.60000610352</ele>
        <time>2026-06-17T11:04:14.000Z</time>
      </trkpt>
      <trkpt lat="48.49662" lon="1.26936">
        <ele>207.80000305176</ele>
        <time>2026-06-17T11:04:15.000Z</time>
      </trkpt>
      <trkpt lat="48.49683" lon="1.2696">
        <ele>208.80000305176</ele>
        <time>2026-06-17T11:04:23.000Z</time>
      </trkpt>
      <trkpt lat="48.49707" lon="1.26986">
        <ele>209.80000305176</ele>
        <time>2026-06-17T11:04:32.000Z</time>
      </trkpt>
      <trkpt lat="48.49723" lon="1.27004">
        <ele>210.80000305176</ele>
        <time>2026-06-17T11:04:38.000Z</time>
      </trkpt>
      <trkpt lat="48.49727" lon="1.27008">
        <ele>210.80000305176</ele>
        <time>2026-06-17T11:04:39.000Z</time>
      </trkpt>
      <trkpt lat="48.49755" lon="1.2704">
        <ele>211.80000305176</ele>
        <time>2026-06-17T11:04:46.000Z</time>
      </trkpt>
      <trkpt lat="48.49759" lon="1.27044">
        <ele>212</ele>
        <time>2026-06-17T11:04:47.000Z</time>
      </trkpt>
      <trkpt lat="48.49781" lon="1.27063">
        <ele>213</ele>
        <time>2026-06-17T11:04:53.000Z</time>
      </trkpt>
      <trkpt lat="48.49785" lon="1.27066">
        <ele>213.19999694824</ele>
        <time>2026-06-17T11:04:54.000Z</time>
      </trkpt>
      <trkpt lat="48.49814" lon="1.27079">
        <ele>214</ele>
        <time>2026-06-17T11:05:01.000Z</time>
      </trkpt>
      <trkpt lat="48.49818" lon="1.2708">
        <ele>214.19999694824</ele>
        <time>2026-06-17T11:05:02.000Z</time>
      </trkpt>
      <trkpt lat="48.49856" lon="1.27086">
        <ele>214.80000305176</ele>
        <time>2026-06-17T11:05:10.000Z</time>
      </trkpt>
      <trkpt lat="48.49861" lon="1.27087">
        <ele>214.80000305176</ele>
        <time>2026-06-17T11:05:11.000Z</time>
      </trkpt>
      <trkpt lat="48.49865" lon="1.27088">
        <ele>215</ele>
        <time>2026-06-17T11:05:12.000Z</time>
      </trkpt>
      <trkpt lat="48.49898" lon="1.27094">
        <ele>215.60000610352</ele>
        <time>2026-06-17T11:05:19.000Z</time>
      </trkpt>
      <trkpt lat="48.49936" lon="1.27099">
        <ele>216.19999694824</ele>
        <time>2026-06-17T11:05:27.000Z</time>
      </trkpt>
      <trkpt lat="48.49946" lon="1.27101">
        <ele>216.39999389648</ele>
        <time>2026-06-17T11:05:29.000Z</time>
      </trkpt>
      <trkpt lat="48.49991" lon="1.27109">
        <ele>216.80000305176</ele>
        <time>2026-06-17T11:05:38.000Z</time>
      </trkpt>
      <trkpt lat="48.50029" lon="1.27126">
        <ele>216.80000305176</ele>
        <time>2026-06-17T11:05:45.000Z</time>
      </trkpt>
      <trkpt lat="48.50067" lon="1.27156">
        <ele>216.60000610352</ele>
        <time>2026-06-17T11:05:52.000Z</time>
      </trkpt>
      <trkpt lat="48.50115" lon="1.27201">
        <ele>216.60000610352</ele>
        <time>2026-06-17T11:06:01.000Z</time>
      </trkpt>
      <trkpt lat="48.50154" lon="1.27237">
        <ele>216.80000305176</ele>
        <time>2026-06-17T11:06:08.000Z</time>
      </trkpt>
      <trkpt lat="48.50181" lon="1.27261">
        <ele>217.19999694824</ele>
        <time>2026-06-17T11:06:14.000Z</time>
      </trkpt>
      <trkpt lat="48.5019" lon="1.27268">
        <ele>217.60000610352</ele>
        <time>2026-06-17T11:06:17.000Z</time>
      </trkpt>
      <trkpt lat="48.50195" lon="1.27272">
        <ele>218</ele>
        <time>2026-06-17T11:06:19.000Z</time>
      </trkpt>
      <trkpt lat="48.50205" lon="1.27281">
        <ele>218.19999694824</ele>
        <time>2026-06-17T11:06:24.000Z</time>
      </trkpt>
      <trkpt lat="48.50205" lon="1.27282">
        <ele>218.19999694824</ele>
        <time>2026-06-17T11:06:31.000Z</time>
      </trkpt>
      <trkpt lat="48.50205" lon="1.27282">
        <ele>218.60000610352</ele>
        <time>2026-06-17T11:06:37.000Z</time>
      </trkpt>
      <trkpt lat="48.50205" lon="1.27282">
        <ele>218.60000610352</ele>
        <time>2026-06-17T11:06:39.000Z</time>
      </trkpt>
      <trkpt lat="48.50205" lon="1.27282">
        <ele>219</ele>
        <time>2026-06-17T11:07:05.000Z</time>
      </trkpt>
      <trkpt lat="48.50208" lon="1.27283">
        <ele>219</ele>
        <time>2026-06-17T11:07:25.000Z</time>
      </trkpt>
      <trkpt lat="48.50209" lon="1.27283">
        <ele>219</ele>
        <time>2026-06-17T11:07:26.000Z</time>
      </trkpt>
      <trkpt lat="48.50219" lon="1.27292">
        <ele>219</ele>
        <time>2026-06-17T11:07:31.000Z</time>
      </trkpt>
      <trkpt lat="48.50243" lon="1.27311">
        <ele>219.19999694824</ele>
        <time>2026-06-17T11:07:38.000Z</time>
      </trkpt>
      <trkpt lat="48.50258" lon="1.2733">
        <ele>219.39999389648</ele>
        <time>2026-06-17T11:07:42.000Z</time>
      </trkpt>
      <trkpt lat="48.50262" lon="1.27334">
        <ele>219.39999389648</ele>
        <time>2026-06-17T11:07:43.000Z</time>
      </trkpt>
      <trkpt lat="48.50273" lon="1.27352">
        <ele>219.80000305176</ele>
        <time>2026-06-17T11:07:47.000Z</time>
      </trkpt>
      <trkpt lat="48.50277" lon="1.27361">
        <ele>220</ele>
        <time>2026-06-17T11:07:49.000Z</time>
      </trkpt>
      <trkpt lat="48.50284" lon="1.27384">
        <ele>220.39999389648</ele>
        <time>2026-06-17T11:07:54.000Z</time>
      </trkpt>
      <trkpt lat="48.50285" lon="1.27388">
        <ele>220.39999389648</ele>
        <time>2026-06-17T11:07:55.000Z</time>
      </trkpt>
      <trkpt lat="48.50293" lon="1.27417">
        <ele>220.80000305176</ele>
        <time>2026-06-17T11:08:02.000Z</time>
      </trkpt>
      <trkpt lat="48.50299" lon="1.27441">
        <ele>221.60000610352</ele>
        <time>2026-06-17T11:08:08.000Z</time>
      </trkpt>
      <trkpt lat="48.503" lon="1.27445">
        <ele>221.60000610352</ele>
        <time>2026-06-17T11:08:09.000Z</time>
      </trkpt>
      <trkpt lat="48.50305" lon="1.27469">
        <ele>222</ele>
        <time>2026-06-17T11:08:14.000Z</time>
      </trkpt>
      <trkpt lat="48.50308" lon="1.27483">
        <ele>222.19999694824</ele>
        <time>2026-06-17T11:08:17.000Z</time>
      </trkpt>
      <trkpt lat="48.50316" lon="1.27516">
        <ele>222.60000610352</ele>
        <time>2026-06-17T11:08:24.000Z</time>
      </trkpt>
      <trkpt lat="48.50316" lon="1.27521">
        <ele>222.80000305176</ele>
        <time>2026-06-17T11:08:25.000Z</time>
      </trkpt>
      <trkpt lat="48.50323" lon="1.27551">
        <ele>223.19999694824</ele>
        <time>2026-06-17T11:08:31.000Z</time>
      </trkpt>
      <trkpt lat="48.50328" lon="1.27582">
        <ele>223.60000610352</ele>
        <time>2026-06-17T11:08:37.000Z</time>
      </trkpt>
      <trkpt lat="48.5033" lon="1.27593">
        <ele>223.80000305176</ele>
        <time>2026-06-17T11:08:39.000Z</time>
      </trkpt>
      <trkpt lat="48.50334" lon="1.27611">
        <ele>224</ele>
        <time>2026-06-17T11:08:42.000Z</time>
      </trkpt>
      <trkpt lat="48.50347" lon="1.27656">
        <ele>223.80000305176</ele>
        <time>2026-06-17T11:08:49.000Z</time>
      </trkpt>
      <trkpt lat="48.50365" lon="1.27707">
        <ele>223</ele>
        <time>2026-06-17T11:08:57.000Z</time>
      </trkpt>
      <trkpt lat="48.50371" lon="1.27726">
        <ele>222.80000305176</ele>
        <time>2026-06-17T11:09:00.000Z</time>
      </trkpt>
      <trkpt lat="48.50394" lon="1.27788">
        <ele>222.19999694824</ele>
        <time>2026-06-17T11:09:10.000Z</time>
      </trkpt>
      <trkpt lat="48.50399" lon="1.27802">
        <ele>222.19999694824</ele>
        <time>2026-06-17T11:09:12.000Z</time>
      </trkpt>
      <trkpt lat="48.50417" lon="1.27851">
        <ele>222.19999694824</ele>
        <time>2026-06-17T11:09:19.000Z</time>
      </trkpt>
      <trkpt lat="48.50441" lon="1.27914">
        <ele>222.19999694824</ele>
        <time>2026-06-17T11:09:28.000Z</time>
      </trkpt>
      <trkpt lat="48.50466" lon="1.27974">
        <ele>222</ele>
        <time>2026-06-17T11:09:37.000Z</time>
      </trkpt>
      <trkpt lat="48.50493" lon="1.28036">
        <ele>222</ele>
        <time>2026-06-17T11:09:47.000Z</time>
      </trkpt>
      <trkpt lat="48.50512" lon="1.28079">
        <ele>222.39999389648</ele>
        <time>2026-06-17T11:09:54.000Z</time>
      </trkpt>
      <trkpt lat="48.5054" lon="1.28141">
        <ele>221.80000305176</ele>
        <time>2026-06-17T11:10:03.000Z</time>
      </trkpt>
      <trkpt lat="48.50543" lon="1.28149">
        <ele>221.80000305176</ele>
        <time>2026-06-17T11:10:04.000Z</time>
      </trkpt>
      <trkpt lat="48.50564" lon="1.28195">
        <ele>221</ele>
        <time>2026-06-17T11:10:10.000Z</time>
      </trkpt>
      <trkpt lat="48.50571" lon="1.28211">
        <ele>220.60000610352</ele>
        <time>2026-06-17T11:10:12.000Z</time>
      </trkpt>
      <trkpt lat="48.50584" lon="1.28246">
        <ele>220.19999694824</ele>
        <time>2026-06-17T11:10:16.000Z</time>
      </trkpt>
      <trkpt lat="48.50592" lon="1.28271">
        <ele>219.39999389648</ele>
        <time>2026-06-17T11:10:19.000Z</time>
      </trkpt>
      <trkpt lat="48.5061" lon="1.28322">
        <ele>219.19999694824</ele>
        <time>2026-06-17T11:10:25.000Z</time>
      </trkpt>
      <trkpt lat="48.50633" lon="1.2838">
        <ele>218.80000305176</ele>
        <time>2026-06-17T11:10:33.000Z</time>
      </trkpt>
      <trkpt lat="48.50665" lon="1.28429">
        <ele>219.80000305176</ele>
        <time>2026-06-17T11:10:42.000Z</time>
      </trkpt>
      <trkpt lat="48.50671" lon="1.28441">
        <ele>220.19999694824</ele>
        <time>2026-06-17T11:10:44.000Z</time>
      </trkpt>
      <trkpt lat="48.50673" lon="1.28448">
        <ele>220.60000610352</ele>
        <time>2026-06-17T11:10:45.000Z</time>
      </trkpt>
      <trkpt lat="48.50676" lon="1.28462">
        <ele>221.19999694824</ele>
        <time>2026-06-17T11:10:47.000Z</time>
      </trkpt>
      <trkpt lat="48.50677" lon="1.28468">
        <ele>221.60000610352</ele>
        <time>2026-06-17T11:10:48.000Z</time>
      </trkpt>
      <trkpt lat="48.50679" lon="1.28481">
        <ele>222</ele>
        <time>2026-06-17T11:10:50.000Z</time>
      </trkpt>
      <trkpt lat="48.50677" lon="1.28498">
        <ele>222.19999694824</ele>
        <time>2026-06-17T11:10:52.000Z</time>
      </trkpt>
      <trkpt lat="48.50675" lon="1.28504">
        <ele>222.39999389648</ele>
        <time>2026-06-17T11:10:54.000Z</time>
      </trkpt>
      <trkpt lat="48.50665" lon="1.28513">
        <ele>222.39999389648</ele>
        <time>2026-06-17T11:10:56.000Z</time>
      </trkpt>
      <trkpt lat="48.50632" lon="1.28523">
        <ele>222.39999389648</ele>
        <time>2026-06-17T11:11:02.000Z</time>
      </trkpt>
      <trkpt lat="48.50596" lon="1.28548">
        <ele>221.80000305176</ele>
        <time>2026-06-17T11:11:09.000Z</time>
      </trkpt>
      <trkpt lat="48.50555" lon="1.28585">
        <ele>220.80000305176</ele>
        <time>2026-06-17T11:11:17.000Z</time>
      </trkpt>
      <trkpt lat="48.50551" lon="1.28592">
        <ele>220.60000610352</ele>
        <time>2026-06-17T11:11:18.000Z</time>
      </trkpt>
      <trkpt lat="48.50547" lon="1.28599">
        <ele>220.39999389648</ele>
        <time>2026-06-17T11:11:19.000Z</time>
      </trkpt>
      <trkpt lat="48.50541" lon="1.28615">
        <ele>220.39999389648</ele>
        <time>2026-06-17T11:11:21.000Z</time>
      </trkpt>
      <trkpt lat="48.50536" lon="1.28633">
        <ele>220.19999694824</ele>
        <time>2026-06-17T11:11:23.000Z</time>
      </trkpt>
      <trkpt lat="48.50531" lon="1.28669">
        <ele>219.80000305176</ele>
        <time>2026-06-17T11:11:27.000Z</time>
      </trkpt>
      <trkpt lat="48.50527" lon="1.28706">
        <ele>219.60000610352</ele>
        <time>2026-06-17T11:11:31.000Z</time>
      </trkpt>
      <trkpt lat="48.50522" lon="1.28752">
        <ele>219.39999389648</ele>
        <time>2026-06-17T11:11:36.000Z</time>
      </trkpt>
      <trkpt lat="48.50511" lon="1.28838">
        <ele>220</ele>
        <time>2026-06-17T11:11:46.000Z</time>
      </trkpt>
      <trkpt lat="48.5051" lon="1.28845">
        <ele>220</ele>
        <time>2026-06-17T11:11:47.000Z</time>
      </trkpt>
      <trkpt lat="48.50508" lon="1.28868">
        <ele>220.60000610352</ele>
        <time>2026-06-17T11:11:50.000Z</time>
      </trkpt>
      <trkpt lat="48.50506" lon="1.28896">
        <ele>221.19999694824</ele>
        <time>2026-06-17T11:11:54.000Z</time>
      </trkpt>
      <trkpt lat="48.50505" lon="1.28918">
        <ele>221.80000305176</ele>
        <time>2026-06-17T11:11:57.000Z</time>
      </trkpt>
      <trkpt lat="48.50504" lon="1.28952">
        <ele>222.19999694824</ele>
        <time>2026-06-17T11:12:02.000Z</time>
      </trkpt>
      <trkpt lat="48.50504" lon="1.28973">
        <ele>222.60000610352</ele>
        <time>2026-06-17T11:12:05.000Z</time>
      </trkpt>
      <trkpt lat="48.50504" lon="1.28987">
        <ele>222.80000305176</ele>
        <time>2026-06-17T11:12:07.000Z</time>
      </trkpt>
      <trkpt lat="48.50503" lon="1.29003">
        <ele>223</ele>
        <time>2026-06-17T11:12:09.000Z</time>
      </trkpt>
      <trkpt lat="48.50502" lon="1.2906">
        <ele>223.39999389648</ele>
        <time>2026-06-17T11:12:17.000Z</time>
      </trkpt>
      <trkpt lat="48.50502" lon="1.2908">
        <ele>223.80000305176</ele>
        <time>2026-06-17T11:12:20.000Z</time>
      </trkpt>
      <trkpt lat="48.50505" lon="1.29133">
        <ele>224.60000610352</ele>
        <time>2026-06-17T11:12:28.000Z</time>
      </trkpt>
      <trkpt lat="48.50507" lon="1.29171">
        <ele>224.80000305176</ele>
        <time>2026-06-17T11:12:34.000Z</time>
      </trkpt>
      <trkpt lat="48.5051" lon="1.29198">
        <ele>225.19999694824</ele>
        <time>2026-06-17T11:12:38.000Z</time>
      </trkpt>
      <trkpt lat="48.50511" lon="1.29237">
        <ele>226</ele>
        <time>2026-06-17T11:12:44.000Z</time>
      </trkpt>
      <trkpt lat="48.50512" lon="1.29249">
        <ele>226</ele>
        <time>2026-06-17T11:12:46.000Z</time>
      </trkpt>
      <trkpt lat="48.50511" lon="1.29301">
        <ele>226.60000610352</ele>
        <time>2026-06-17T11:12:54.000Z</time>
      </trkpt>
      <trkpt lat="48.5051" lon="1.29321">
        <ele>227</ele>
        <time>2026-06-17T11:12:57.000Z</time>
      </trkpt>
      <trkpt lat="48.50509" lon="1.29362">
        <ele>227.80000305176</ele>
        <time>2026-06-17T11:13:03.000Z</time>
      </trkpt>
      <trkpt lat="48.50508" lon="1.2939">
        <ele>228</ele>
        <time>2026-06-17T11:13:07.000Z</time>
      </trkpt>
      <trkpt lat="48.50506" lon="1.29418">
        <ele>228.19999694824</ele>
        <time>2026-06-17T11:13:11.000Z</time>
      </trkpt>
      <trkpt lat="48.50497" lon="1.29489">
        <ele>228.80000305176</ele>
        <time>2026-06-17T11:13:21.000Z</time>
      </trkpt>
      <trkpt lat="48.50487" lon="1.29554">
        <ele>228.80000305176</ele>
        <time>2026-06-17T11:13:30.000Z</time>
      </trkpt>
      <trkpt lat="48.50475" lon="1.2962">
        <ele>228.39999389648</ele>
        <time>2026-06-17T11:13:39.000Z</time>
      </trkpt>
      <trkpt lat="48.50465" lon="1.29682">
        <ele>228.19999694824</ele>
        <time>2026-06-17T11:13:48.000Z</time>
      </trkpt>
      <trkpt lat="48.50452" lon="1.29751">
        <ele>228</ele>
        <time>2026-06-17T11:13:57.000Z</time>
      </trkpt>
      <trkpt lat="48.50445" lon="1.29774">
        <ele>227.80000305176</ele>
        <time>2026-06-17T11:14:00.000Z</time>
      </trkpt>
      <trkpt lat="48.50437" lon="1.29788">
        <ele>227.60000610352</ele>
        <time>2026-06-17T11:14:02.000Z</time>
      </trkpt>
      <trkpt lat="48.50425" lon="1.2981">
        <ele>227</ele>
        <time>2026-06-17T11:14:05.000Z</time>
      </trkpt>
      <trkpt lat="48.50405" lon="1.29844">
        <ele>226.60000610352</ele>
        <time>2026-06-17T11:14:10.000Z</time>
      </trkpt>
      <trkpt lat="48.50381" lon="1.29893">
        <ele>226.19999694824</ele>
        <time>2026-06-17T11:14:17.000Z</time>
      </trkpt>
      <trkpt lat="48.5035" lon="1.29946">
        <ele>226.19999694824</ele>
        <time>2026-06-17T11:14:25.000Z</time>
      </trkpt>
      <trkpt lat="48.50345" lon="1.29953">
        <ele>226.19999694824</ele>
        <time>2026-06-17T11:14:26.000Z</time>
      </trkpt>
      <trkpt lat="48.50333" lon="1.29973">
        <ele>226</ele>
        <time>2026-06-17T11:14:29.000Z</time>
      </trkpt>
      <trkpt lat="48.5033" lon="1.29981">
        <ele>226</ele>
        <time>2026-06-17T11:14:30.000Z</time>
      </trkpt>
      <trkpt lat="48.50327" lon="1.29989">
        <ele>226</ele>
        <time>2026-06-17T11:14:31.000Z</time>
      </trkpt>
      <trkpt lat="48.50319" lon="1.30013">
        <ele>225.80000305176</ele>
        <time>2026-06-17T11:14:34.000Z</time>
      </trkpt>
      <trkpt lat="48.50318" lon="1.30021">
        <ele>225.60000610352</ele>
        <time>2026-06-17T11:14:35.000Z</time>
      </trkpt>
      <trkpt lat="48.50316" lon="1.30047">
        <ele>225.39999389648</ele>
        <time>2026-06-17T11:14:38.000Z</time>
      </trkpt>
      <trkpt lat="48.50317" lon="1.30063">
        <ele>225.39999389648</ele>
        <time>2026-06-17T11:14:40.000Z</time>
      </trkpt>
      <trkpt lat="48.50323" lon="1.30104">
        <ele>225</ele>
        <time>2026-06-17T11:14:45.000Z</time>
      </trkpt>
      <trkpt lat="48.50326" lon="1.30122">
        <ele>225</ele>
        <time>2026-06-17T11:14:47.000Z</time>
      </trkpt>
      <trkpt lat="48.50334" lon="1.30195">
        <ele>224.60000610352</ele>
        <time>2026-06-17T11:14:56.000Z</time>
      </trkpt>
      <trkpt lat="48.50331" lon="1.30264">
        <ele>224.39999389648</ele>
        <time>2026-06-17T11:15:05.000Z</time>
      </trkpt>
      <trkpt lat="48.50322" lon="1.30321">
        <ele>224.60000610352</ele>
        <time>2026-06-17T11:15:12.000Z</time>
      </trkpt>
      <trkpt lat="48.50302" lon="1.30381">
        <ele>224.39999389648</ele>
        <time>2026-06-17T11:15:20.000Z</time>
      </trkpt>
      <trkpt lat="48.50275" lon="1.30434">
        <ele>224.80000305176</ele>
        <time>2026-06-17T11:15:28.000Z</time>
      </trkpt>
      <trkpt lat="48.50238" lon="1.30501">
        <ele>225</ele>
        <time>2026-06-17T11:15:39.000Z</time>
      </trkpt>
      <trkpt lat="48.50206" lon="1.30562">
        <ele>224.80000305176</ele>
        <time>2026-06-17T11:15:49.000Z</time>
      </trkpt>
      <trkpt lat="48.50176" lon="1.30618">
        <ele>224.80000305176</ele>
        <time>2026-06-17T11:15:58.000Z</time>
      </trkpt>
      <trkpt lat="48.50148" lon="1.30672">
        <ele>224.39999389648</ele>
        <time>2026-06-17T11:16:06.000Z</time>
      </trkpt>
      <trkpt lat="48.50122" lon="1.30721">
        <ele>224</ele>
        <time>2026-06-17T11:16:13.000Z</time>
      </trkpt>
      <trkpt lat="48.50112" lon="1.30741">
        <ele>223.39999389648</ele>
        <time>2026-06-17T11:16:16.000Z</time>
      </trkpt>
      <trkpt lat="48.50089" lon="1.30785">
        <ele>222.80000305176</ele>
        <time>2026-06-17T11:16:23.000Z</time>
      </trkpt>
      <trkpt lat="48.50083" lon="1.30797">
        <ele>222.39999389648</ele>
        <time>2026-06-17T11:16:25.000Z</time>
      </trkpt>
      <trkpt lat="48.50054" lon="1.30851">
        <ele>221.80000305176</ele>
        <time>2026-06-17T11:16:34.000Z</time>
      </trkpt>
      <trkpt lat="48.50047" lon="1.30863">
        <ele>221.60000610352</ele>
        <time>2026-06-17T11:16:36.000Z</time>
      </trkpt>
      <trkpt lat="48.50038" lon="1.30883">
        <ele>221.39999389648</ele>
        <time>2026-06-17T11:16:39.000Z</time>
      </trkpt>
      <trkpt lat="48.50029" lon="1.30901">
        <ele>221.19999694824</ele>
        <time>2026-06-17T11:16:42.000Z</time>
      </trkpt>
      <trkpt lat="48.50023" lon="1.3091">
        <ele>221.19999694824</ele>
        <time>2026-06-17T11:16:43.000Z</time>
      </trkpt>
      <trkpt lat="48.50012" lon="1.30922">
        <ele>220.60000610352</ele>
        <time>2026-06-17T11:16:46.000Z</time>
      </trkpt>
      <trkpt lat="48.49982" lon="1.30952">
        <ele>219.80000305176</ele>
        <time>2026-06-17T11:16:52.000Z</time>
      </trkpt>
      <trkpt lat="48.49977" lon="1.30956">
        <ele>219.60000610352</ele>
        <time>2026-06-17T11:16:53.000Z</time>
      </trkpt>
      <trkpt lat="48.49966" lon="1.30965">
        <ele>219.39999389648</ele>
        <time>2026-06-17T11:16:55.000Z</time>
      </trkpt>
      <trkpt lat="48.49923" lon="1.30992">
        <ele>219</ele>
        <time>2026-06-17T11:17:03.000Z</time>
      </trkpt>
      <trkpt lat="48.49894" lon="1.31003">
        <ele>218.80000305176</ele>
        <time>2026-06-17T11:17:09.000Z</time>
      </trkpt>
      <trkpt lat="48.4986" lon="1.31006">
        <ele>218.60000610352</ele>
        <time>2026-06-17T11:17:17.000Z</time>
      </trkpt>
      <trkpt lat="48.49857" lon="1.31006">
        <ele>218.60000610352</ele>
        <time>2026-06-17T11:17:18.000Z</time>
      </trkpt>
      <trkpt lat="48.4985" lon="1.3101">
        <ele>218.60000610352</ele>
        <time>2026-06-17T11:17:20.000Z</time>
      </trkpt>
      <trkpt lat="48.49848" lon="1.31014">
        <ele>218.60000610352</ele>
        <time>2026-06-17T11:17:21.000Z</time>
      </trkpt>
      <trkpt lat="48.49847" lon="1.31019">
        <ele>218.39999389648</ele>
        <time>2026-06-17T11:17:22.000Z</time>
      </trkpt>
      <trkpt lat="48.49847" lon="1.31024">
        <ele>218.39999389648</ele>
        <time>2026-06-17T11:17:23.000Z</time>
      </trkpt>
      <trkpt lat="48.49846" lon="1.31036">
        <ele>218.39999389648</ele>
        <time>2026-06-17T11:17:25.000Z</time>
      </trkpt>
      <trkpt lat="48.49844" lon="1.3104">
        <ele>218.39999389648</ele>
        <time>2026-06-17T11:17:26.000Z</time>
      </trkpt>
      <trkpt lat="48.49837" lon="1.31048">
        <ele>218.39999389648</ele>
        <time>2026-06-17T11:17:28.000Z</time>
      </trkpt>
      <trkpt lat="48.49829" lon="1.31063">
        <ele>218.39999389648</ele>
        <time>2026-06-17T11:17:32.000Z</time>
      </trkpt>
      <trkpt lat="48.49832" lon="1.31085">
        <ele>218.39999389648</ele>
        <time>2026-06-17T11:17:36.000Z</time>
      </trkpt>
      <trkpt lat="48.49845" lon="1.31124">
        <ele>218.60000610352</ele>
        <time>2026-06-17T11:17:42.000Z</time>
      </trkpt>
      <trkpt lat="48.49866" lon="1.312">
        <ele>218.19999694824</ele>
        <time>2026-06-17T11:17:52.000Z</time>
      </trkpt>
      <trkpt lat="48.49868" lon="1.31227">
        <ele>218.19999694824</ele>
        <time>2026-06-17T11:17:55.000Z</time>
      </trkpt>
      <trkpt lat="48.49866" lon="1.31245">
        <ele>218.19999694824</ele>
        <time>2026-06-17T11:17:57.000Z</time>
      </trkpt>
      <trkpt lat="48.49861" lon="1.31311">
        <ele>218</ele>
        <time>2026-06-17T11:18:05.000Z</time>
      </trkpt>
      <trkpt lat="48.49862" lon="1.3132">
        <ele>218</ele>
        <time>2026-06-17T11:18:06.000Z</time>
      </trkpt>
      <trkpt lat="48.49872" lon="1.3136">
        <ele>217.80000305176</ele>
        <time>2026-06-17T11:18:10.000Z</time>
      </trkpt>
      <trkpt lat="48.49887" lon="1.31413">
        <ele>218</ele>
        <time>2026-06-17T11:18:18.000Z</time>
      </trkpt>
      <trkpt lat="48.49904" lon="1.31471">
        <ele>218.80000305176</ele>
        <time>2026-06-17T11:18:25.000Z</time>
      </trkpt>
      <trkpt lat="48.49925" lon="1.31536">
        <ele>219.39999389648</ele>
        <time>2026-06-17T11:18:33.000Z</time>
      </trkpt>
      <trkpt lat="48.49945" lon="1.3162">
        <ele>218.39999389648</ele>
        <time>2026-06-17T11:18:43.000Z</time>
      </trkpt>
      <trkpt lat="48.49948" lon="1.31637">
        <ele>218.19999694824</ele>
        <time>2026-06-17T11:18:45.000Z</time>
      </trkpt>
      <trkpt lat="48.49964" lon="1.31712">
        <ele>217.60000610352</ele>
        <time>2026-06-17T11:18:54.000Z</time>
      </trkpt>
      <trkpt lat="48.49966" lon="1.3172">
        <ele>217.60000610352</ele>
        <time>2026-06-17T11:18:55.000Z</time>
      </trkpt>
      <trkpt lat="48.49968" lon="1.31728">
        <ele>217.39999389648</ele>
        <time>2026-06-17T11:18:56.000Z</time>
      </trkpt>
      <trkpt lat="48.49976" lon="1.31759">
        <ele>217.19999694824</ele>
        <time>2026-06-17T11:19:00.000Z</time>
      </trkpt>
      <trkpt lat="48.49994" lon="1.31808">
        <ele>217.19999694824</ele>
        <time>2026-06-17T11:19:06.000Z</time>
      </trkpt>
      <trkpt lat="48.50019" lon="1.31857">
        <ele>216.60000610352</ele>
        <time>2026-06-17T11:19:12.000Z</time>
      </trkpt>
      <trkpt lat="48.50024" lon="1.31865">
        <ele>216.39999389648</ele>
        <time>2026-06-17T11:19:13.000Z</time>
      </trkpt>
      <trkpt lat="48.50042" lon="1.31912">
        <ele>215.80000305176</ele>
        <time>2026-06-17T11:19:18.000Z</time>
      </trkpt>
      <trkpt lat="48.50051" lon="1.3194">
        <ele>215.39999389648</ele>
        <time>2026-06-17T11:19:21.000Z</time>
      </trkpt>
      <trkpt lat="48.50066" lon="1.31974">
        <ele>214.80000305176</ele>
        <time>2026-06-17T11:19:25.000Z</time>
      </trkpt>
      <trkpt lat="48.50096" lon="1.32019">
        <ele>214.19999694824</ele>
        <time>2026-06-17T11:19:31.000Z</time>
      </trkpt>
      <trkpt lat="48.50106" lon="1.32033">
        <ele>214.19999694824</ele>
        <time>2026-06-17T11:19:33.000Z</time>
      </trkpt>
      <trkpt lat="48.50137" lon="1.32094">
        <ele>214</ele>
        <time>2026-06-17T11:19:40.000Z</time>
      </trkpt>
      <trkpt lat="48.50159" lon="1.32144">
        <ele>213.60000610352</ele>
        <time>2026-06-17T11:19:47.000Z</time>
      </trkpt>
      <trkpt lat="48.50163" lon="1.3216">
        <ele>213.39999389648</ele>
        <time>2026-06-17T11:19:49.000Z</time>
      </trkpt>
      <trkpt lat="48.5017" lon="1.32202">
        <ele>213.19999694824</ele>
        <time>2026-06-17T11:19:54.000Z</time>
      </trkpt>
      <trkpt lat="48.50173" lon="1.3222">
        <ele>213</ele>
        <time>2026-06-17T11:19:56.000Z</time>
      </trkpt>
      <trkpt lat="48.50175" lon="1.32229">
        <ele>213</ele>
        <time>2026-06-17T11:19:57.000Z</time>
      </trkpt>
      <trkpt lat="48.50184" lon="1.32255">
        <ele>213</ele>
        <time>2026-06-17T11:20:00.000Z</time>
      </trkpt>
      <trkpt lat="48.50209" lon="1.32295">
        <ele>212.60000610352</ele>
        <time>2026-06-17T11:20:06.000Z</time>
      </trkpt>
      <trkpt lat="48.50217" lon="1.32308">
        <ele>212.19999694824</ele>
        <time>2026-06-17T11:20:08.000Z</time>
      </trkpt>
      <trkpt lat="48.50236" lon="1.32343">
        <ele>211.80000305176</ele>
        <time>2026-06-17T11:20:13.000Z</time>
      </trkpt>
      <trkpt lat="48.50239" lon="1.32352">
        <ele>211.80000305176</ele>
        <time>2026-06-17T11:20:14.000Z</time>
      </trkpt>
      <trkpt lat="48.50244" lon="1.32378">
        <ele>211.60000610352</ele>
        <time>2026-06-17T11:20:17.000Z</time>
      </trkpt>
      <trkpt lat="48.50249" lon="1.32439">
        <ele>211.80000305176</ele>
        <time>2026-06-17T11:20:24.000Z</time>
      </trkpt>
      <trkpt lat="48.50254" lon="1.3251">
        <ele>212.19999694824</ele>
        <time>2026-06-17T11:20:33.000Z</time>
      </trkpt>
      <trkpt lat="48.50258" lon="1.32568">
        <ele>213</ele>
        <time>2026-06-17T11:20:41.000Z</time>
      </trkpt>
      <trkpt lat="48.5026" lon="1.3259">
        <ele>213.19999694824</ele>
        <time>2026-06-17T11:20:44.000Z</time>
      </trkpt>
      <trkpt lat="48.50264" lon="1.32636">
        <ele>213.60000610352</ele>
        <time>2026-06-17T11:20:50.000Z</time>
      </trkpt>
      <trkpt lat="48.50273" lon="1.32706">
        <ele>213.80000305176</ele>
        <time>2026-06-17T11:20:59.000Z</time>
      </trkpt>
      <trkpt lat="48.50285" lon="1.32783">
        <ele>214.39999389648</ele>
        <time>2026-06-17T11:21:09.000Z</time>
      </trkpt>
      <trkpt lat="48.50297" lon="1.32865">
        <ele>214.80000305176</ele>
        <time>2026-06-17T11:21:20.000Z</time>
      </trkpt>
      <trkpt lat="48.50306" lon="1.32946">
        <ele>215.19999694824</ele>
        <time>2026-06-17T11:21:30.000Z</time>
      </trkpt>
      <trkpt lat="48.5031" lon="1.33033">
        <ele>214.80000305176</ele>
        <time>2026-06-17T11:21:40.000Z</time>
      </trkpt>
      <trkpt lat="48.50317" lon="1.3312">
        <ele>214.19999694824</ele>
        <time>2026-06-17T11:21:50.000Z</time>
      </trkpt>
      <trkpt lat="48.5032" lon="1.33146">
        <ele>214</ele>
        <time>2026-06-17T11:21:53.000Z</time>
      </trkpt>
      <trkpt lat="48.50327" lon="1.33209">
        <ele>213.60000610352</ele>
        <time>2026-06-17T11:22:00.000Z</time>
      </trkpt>
      <trkpt lat="48.50331" lon="1.33245">
        <ele>213.19999694824</ele>
        <time>2026-06-17T11:22:04.000Z</time>
      </trkpt>
      <trkpt lat="48.50339" lon="1.33309">
        <ele>212.39999389648</ele>
        <time>2026-06-17T11:22:11.000Z</time>
      </trkpt>
      <trkpt lat="48.50345" lon="1.33353">
        <ele>212</ele>
        <time>2026-06-17T11:22:16.000Z</time>
      </trkpt>
      <trkpt lat="48.50349" lon="1.33385">
        <ele>211.39999389648</ele>
        <time>2026-06-17T11:22:20.000Z</time>
      </trkpt>
      <trkpt lat="48.50353" lon="1.33425">
        <ele>211.19999694824</ele>
        <time>2026-06-17T11:22:25.000Z</time>
      </trkpt>
      <trkpt lat="48.50357" lon="1.33505">
        <ele>210.39999389648</ele>
        <time>2026-06-17T11:22:35.000Z</time>
      </trkpt>
      <trkpt lat="48.50358" lon="1.33522">
        <ele>210.19999694824</ele>
        <time>2026-06-17T11:22:37.000Z</time>
      </trkpt>
      <trkpt lat="48.50364" lon="1.33577">
        <ele>209.39999389648</ele>
        <time>2026-06-17T11:22:43.000Z</time>
      </trkpt>
      <trkpt lat="48.50366" lon="1.33593">
        <ele>209.19999694824</ele>
        <time>2026-06-17T11:22:45.000Z</time>
      </trkpt>
      <trkpt lat="48.50374" lon="1.33664">
        <ele>208.39999389648</ele>
        <time>2026-06-17T11:22:54.000Z</time>
      </trkpt>
      <trkpt lat="48.50381" lon="1.33727">
        <ele>207.39999389648</ele>
        <time>2026-06-17T11:23:01.000Z</time>
      </trkpt>
      <trkpt lat="48.50387" lon="1.33784">
        <ele>206.80000305176</ele>
        <time>2026-06-17T11:23:07.000Z</time>
      </trkpt>
      <trkpt lat="48.50395" lon="1.33832">
        <ele>206.19999694824</ele>
        <time>2026-06-17T11:23:12.000Z</time>
      </trkpt>
      <trkpt lat="48.50401" lon="1.3386">
        <ele>205.80000305176</ele>
        <time>2026-06-17T11:23:15.000Z</time>
      </trkpt>
      <trkpt lat="48.50416" lon="1.33911">
        <ele>205.39999389648</ele>
        <time>2026-06-17T11:23:21.000Z</time>
      </trkpt>
      <trkpt lat="48.50419" lon="1.3392">
        <ele>205.19999694824</ele>
        <time>2026-06-17T11:23:22.000Z</time>
      </trkpt>
      <trkpt lat="48.5044" lon="1.33961">
        <ele>204.80000305176</ele>
        <time>2026-06-17T11:23:27.000Z</time>
      </trkpt>
      <trkpt lat="48.50455" lon="1.33992">
        <ele>204.19999694824</ele>
        <time>2026-06-17T11:23:31.000Z</time>
      </trkpt>
      <trkpt lat="48.50464" lon="1.34018">
        <ele>204</ele>
        <time>2026-06-17T11:23:34.000Z</time>
      </trkpt>
      <trkpt lat="48.50472" lon="1.34071">
        <ele>203.39999389648</ele>
        <time>2026-06-17T11:23:40.000Z</time>
      </trkpt>
      <trkpt lat="48.50475" lon="1.34099">
        <ele>203.39999389648</ele>
        <time>2026-06-17T11:23:43.000Z</time>
      </trkpt>
      <trkpt lat="48.50485" lon="1.34164">
        <ele>202.80000305176</ele>
        <time>2026-06-17T11:23:50.000Z</time>
      </trkpt>
      <trkpt lat="48.50497" lon="1.34225">
        <ele>202.19999694824</ele>
        <time>2026-06-17T11:23:57.000Z</time>
      </trkpt>
      <trkpt lat="48.50501" lon="1.34242">
        <ele>202</ele>
        <time>2026-06-17T11:23:59.000Z</time>
      </trkpt>
      <trkpt lat="48.5052" lon="1.34309">
        <ele>201.80000305176</ele>
        <time>2026-06-17T11:24:07.000Z</time>
      </trkpt>
      <trkpt lat="48.50548" lon="1.34379">
        <ele>201.80000305176</ele>
        <time>2026-06-17T11:24:17.000Z</time>
      </trkpt>
      <trkpt lat="48.50578" lon="1.34432">
        <ele>201.39999389648</ele>
        <time>2026-06-17T11:24:25.000Z</time>
      </trkpt>
      <trkpt lat="48.50587" lon="1.34443">
        <ele>201.19999694824</ele>
        <time>2026-06-17T11:24:27.000Z</time>
      </trkpt>
      <trkpt lat="48.50597" lon="1.34453">
        <ele>201</ele>
        <time>2026-06-17T11:24:29.000Z</time>
      </trkpt>
      <trkpt lat="48.50607" lon="1.34461">
        <ele>200.80000305176</ele>
        <time>2026-06-17T11:24:31.000Z</time>
      </trkpt>
      <trkpt lat="48.50641" lon="1.34493">
        <ele>200.60000610352</ele>
        <time>2026-06-17T11:24:38.000Z</time>
      </trkpt>
      <trkpt lat="48.50672" lon="1.3454">
        <ele>200.60000610352</ele>
        <time>2026-06-17T11:24:45.000Z</time>
      </trkpt>
      <trkpt lat="48.50681" lon="1.34557">
        <ele>200.19999694824</ele>
        <time>2026-06-17T11:24:47.000Z</time>
      </trkpt>
      <trkpt lat="48.50686" lon="1.34566">
        <ele>200</ele>
        <time>2026-06-17T11:24:48.000Z</time>
      </trkpt>
      <trkpt lat="48.50689" lon="1.34577">
        <ele>199.80000305176</ele>
        <time>2026-06-17T11:24:49.000Z</time>
      </trkpt>
      <trkpt lat="48.50702" lon="1.34624">
        <ele>198.60000610352</ele>
        <time>2026-06-17T11:24:53.000Z</time>
      </trkpt>
      <trkpt lat="48.50705" lon="1.3464">
        <ele>198.39999389648</ele>
        <time>2026-06-17T11:24:54.000Z</time>
      </trkpt>
      <trkpt lat="48.50713" lon="1.34683">
        <ele>197.19999694824</ele>
        <time>2026-06-17T11:24:57.000Z</time>
      </trkpt>
      <trkpt lat="48.50722" lon="1.34725">
        <ele>195.60000610352</ele>
        <time>2026-06-17T11:25:00.000Z</time>
      </trkpt>
      <trkpt lat="48.50724" lon="1.34738">
        <ele>195.19999694824</ele>
        <time>2026-06-17T11:25:01.000Z</time>
      </trkpt>
      <trkpt lat="48.50735" lon="1.34775">
        <ele>194.39999389648</ele>
        <time>2026-06-17T11:25:04.000Z</time>
      </trkpt>
      <trkpt lat="48.50738" lon="1.34784">
        <ele>194.39999389648</ele>
        <time>2026-06-17T11:25:05.000Z</time>
      </trkpt>
      <trkpt lat="48.5074" lon="1.34793">
        <ele>194.19999694824</ele>
        <time>2026-06-17T11:25:06.000Z</time>
      </trkpt>
      <trkpt lat="48.50738" lon="1.34809">
        <ele>194</ele>
        <time>2026-06-17T11:25:08.000Z</time>
      </trkpt>
      <trkpt lat="48.50727" lon="1.34828">
        <ele>194</ele>
        <time>2026-06-17T11:25:11.000Z</time>
      </trkpt>
      <trkpt lat="48.50725" lon="1.34834">
        <ele>194</ele>
        <time>2026-06-17T11:25:12.000Z</time>
      </trkpt>
      <trkpt lat="48.50723" lon="1.34841">
        <ele>194</ele>
        <time>2026-06-17T11:25:13.000Z</time>
      </trkpt>
      <trkpt lat="48.50723" lon="1.34857">
        <ele>194.19999694824</ele>
        <time>2026-06-17T11:25:15.000Z</time>
      </trkpt>
      <trkpt lat="48.50728" lon="1.34869">
        <ele>194.39999389648</ele>
        <time>2026-06-17T11:25:17.000Z</time>
      </trkpt>
      <trkpt lat="48.50735" lon="1.34879">
        <ele>195</ele>
        <time>2026-06-17T11:25:19.000Z</time>
      </trkpt>
      <trkpt lat="48.50743" lon="1.34884">
        <ele>195.39999389648</ele>
        <time>2026-06-17T11:25:21.000Z</time>
      </trkpt>
      <trkpt lat="48.50748" lon="1.34885">
        <ele>195.39999389648</ele>
        <time>2026-06-17T11:25:22.000Z</time>
      </trkpt>
      <trkpt lat="48.50752" lon="1.34885">
        <ele>195.60000610352</ele>
        <time>2026-06-17T11:25:23.000Z</time>
      </trkpt>
      <trkpt lat="48.50762" lon="1.34887">
        <ele>196.19999694824</ele>
        <time>2026-06-17T11:25:25.000Z</time>
      </trkpt>
      <trkpt lat="48.50772" lon="1.34893">
        <ele>196.80000305176</ele>
        <time>2026-06-17T11:25:27.000Z</time>
      </trkpt>
      <trkpt lat="48.50776" lon="1.34905">
        <ele>197.19999694824</ele>
        <time>2026-06-17T11:25:29.000Z</time>
      </trkpt>
      <trkpt lat="48.50775" lon="1.34913">
        <ele>197.39999389648</ele>
        <time>2026-06-17T11:25:30.000Z</time>
      </trkpt>
      <trkpt lat="48.5077" lon="1.34937">
        <ele>197.60000610352</ele>
        <time>2026-06-17T11:25:33.000Z</time>
      </trkpt>
      <trkpt lat="48.50767" lon="1.34954">
        <ele>197.80000305176</ele>
        <time>2026-06-17T11:25:35.000Z</time>
      </trkpt>
      <trkpt lat="48.5076" lon="1.34991">
        <ele>198.19999694824</ele>
        <time>2026-06-17T11:25:39.000Z</time>
      </trkpt>
      <trkpt lat="48.5076" lon="1.34997">
        <ele>198.19999694824</ele>
        <time>2026-06-17T11:25:40.000Z</time>
      </trkpt>
      <trkpt lat="48.50763" lon="1.35009">
        <ele>198.39999389648</ele>
        <time>2026-06-17T11:25:42.000Z</time>
      </trkpt>
      <trkpt lat="48.5077" lon="1.35022">
        <ele>198.39999389648</ele>
        <time>2026-06-17T11:25:44.000Z</time>
      </trkpt>
      <trkpt lat="48.50778" lon="1.35032">
        <ele>198.39999389648</ele>
        <time>2026-06-17T11:25:46.000Z</time>
      </trkpt>
      <trkpt lat="48.50792" lon="1.35043">
        <ele>198.19999694824</ele>
        <time>2026-06-17T11:25:49.000Z</time>
      </trkpt>
      <trkpt lat="48.50838" lon="1.35075">
        <ele>198.39999389648</ele>
        <time>2026-06-17T11:25:59.000Z</time>
      </trkpt>
      <trkpt lat="48.50866" lon="1.35113">
        <ele>198.80000305176</ele>
        <time>2026-06-17T11:26:07.000Z</time>
      </trkpt>
      <trkpt lat="48.50901" lon="1.35164">
        <ele>199.60000610352</ele>
        <time>2026-06-17T11:26:17.000Z</time>
      </trkpt>
      <trkpt lat="48.50931" lon="1.35201">
        <ele>200</ele>
        <time>2026-06-17T11:26:25.000Z</time>
      </trkpt>
      <trkpt lat="48.50934" lon="1.35206">
        <ele>200</ele>
        <time>2026-06-17T11:26:26.000Z</time>
      </trkpt>
      <trkpt lat="48.50952" lon="1.35232">
        <ele>200.39999389648</ele>
        <time>2026-06-17T11:26:31.000Z</time>
      </trkpt>
      <trkpt lat="48.50958" lon="1.35244">
        <ele>200.80000305176</ele>
        <time>2026-06-17T11:26:33.000Z</time>
      </trkpt>
      <trkpt lat="48.50975" lon="1.35272">
        <ele>200.80000305176</ele>
        <time>2026-06-17T11:26:38.000Z</time>
      </trkpt>
      <trkpt lat="48.50977" lon="1.35278">
        <ele>201.19999694824</ele>
        <time>2026-06-17T11:26:39.000Z</time>
      </trkpt>
      <trkpt lat="48.50996" lon="1.35313">
        <ele>201.39999389648</ele>
        <time>2026-06-17T11:26:45.000Z</time>
      </trkpt>
      <trkpt lat="48.50999" lon="1.35317">
        <ele>201.39999389648</ele>
        <time>2026-06-17T11:26:46.000Z</time>
      </trkpt>
      <trkpt lat="48.51004" lon="1.3532">
        <ele>201.39999389648</ele>
        <time>2026-06-17T11:26:47.000Z</time>
      </trkpt>
      <trkpt lat="48.51013" lon="1.35322">
        <ele>201.60000610352</ele>
        <time>2026-06-17T11:26:49.000Z</time>
      </trkpt>
      <trkpt lat="48.51017" lon="1.35321">
        <ele>201.60000610352</ele>
        <time>2026-06-17T11:26:50.000Z</time>
      </trkpt>
      <trkpt lat="48.51022" lon="1.35318">
        <ele>201.60000610352</ele>
        <time>2026-06-17T11:26:51.000Z</time>
      </trkpt>
      <trkpt lat="48.51037" lon="1.35304">
        <ele>202.19999694824</ele>
        <time>2026-06-17T11:26:54.000Z</time>
      </trkpt>
      <trkpt lat="48.51042" lon="1.353">
        <ele>202.19999694824</ele>
        <time>2026-06-17T11:26:55.000Z</time>
      </trkpt>
      <trkpt lat="48.51053" lon="1.35294">
        <ele>202.39999389648</ele>
        <time>2026-06-17T11:26:57.000Z</time>
      </trkpt>
      <trkpt lat="48.51059" lon="1.35293">
        <ele>202.39999389648</ele>
        <time>2026-06-17T11:26:58.000Z</time>
      </trkpt>
      <trkpt lat="48.51065" lon="1.35294">
        <ele>202.60000610352</ele>
        <time>2026-06-17T11:26:59.000Z</time>
      </trkpt>
      <trkpt lat="48.51075" lon="1.35299">
        <ele>202.80000305176</ele>
        <time>2026-06-17T11:27:01.000Z</time>
      </trkpt>
      <trkpt lat="48.51079" lon="1.35302">
        <ele>202.80000305176</ele>
        <time>2026-06-17T11:27:02.000Z</time>
      </trkpt>
      <trkpt lat="48.51102" lon="1.35317">
        <ele>203.19999694824</ele>
        <time>2026-06-17T11:27:07.000Z</time>
      </trkpt>
      <trkpt lat="48.51107" lon="1.35321">
        <ele>203.19999694824</ele>
        <time>2026-06-17T11:27:08.000Z</time>
      </trkpt>
      <trkpt lat="48.51146" lon="1.3535">
        <ele>203.80000305176</ele>
        <time>2026-06-17T11:27:16.000Z</time>
      </trkpt>
      <trkpt lat="48.5116" lon="1.3536">
        <ele>204.19999694824</ele>
        <time>2026-06-17T11:27:19.000Z</time>
      </trkpt>
      <trkpt lat="48.51195" lon="1.35385">
        <ele>204.80000305176</ele>
        <time>2026-06-17T11:27:26.000Z</time>
      </trkpt>
      <trkpt lat="48.51244" lon="1.35419">
        <ele>205.19999694824</ele>
        <time>2026-06-17T11:27:36.000Z</time>
      </trkpt>
      <trkpt lat="48.5125" lon="1.35424">
        <ele>205.19999694824</ele>
        <time>2026-06-17T11:27:37.000Z</time>
      </trkpt>
      <trkpt lat="48.51259" lon="1.35431">
        <ele>205.19999694824</ele>
        <time>2026-06-17T11:27:39.000Z</time>
      </trkpt>
      <trkpt lat="48.51299" lon="1.35467">
        <ele>205.60000610352</ele>
        <time>2026-06-17T11:27:47.000Z</time>
      </trkpt>
      <trkpt lat="48.51323" lon="1.35499">
        <ele>205.39999389648</ele>
        <time>2026-06-17T11:27:52.000Z</time>
      </trkpt>
      <trkpt lat="48.51355" lon="1.35556">
        <ele>204.60000610352</ele>
        <time>2026-06-17T11:27:59.000Z</time>
      </trkpt>
      <trkpt lat="48.51372" lon="1.35587">
        <ele>204</ele>
        <time>2026-06-17T11:28:03.000Z</time>
      </trkpt>
      <trkpt lat="48.51399" lon="1.35625">
        <ele>203</ele>
        <time>2026-06-17T11:28:08.000Z</time>
      </trkpt>
      <trkpt lat="48.51404" lon="1.35632">
        <ele>202.80000305176</ele>
        <time>2026-06-17T11:28:09.000Z</time>
      </trkpt>
      <trkpt lat="48.51435" lon="1.35671">
        <ele>201.80000305176</ele>
        <time>2026-06-17T11:28:15.000Z</time>
      </trkpt>
      <trkpt lat="48.51453" lon="1.35695">
        <ele>201.80000305176</ele>
        <time>2026-06-17T11:28:18.000Z</time>
      </trkpt>
      <trkpt lat="48.5149" lon="1.35748">
        <ele>201.19999694824</ele>
        <time>2026-06-17T11:28:26.000Z</time>
      </trkpt>
      <trkpt lat="48.51514" lon="1.35795">
        <ele>200.80000305176</ele>
        <time>2026-06-17T11:28:32.000Z</time>
      </trkpt>
      <trkpt lat="48.51517" lon="1.35804">
        <ele>200.80000305176</ele>
        <time>2026-06-17T11:28:33.000Z</time>
      </trkpt>
      <trkpt lat="48.51527" lon="1.35843">
        <ele>200.39999389648</ele>
        <time>2026-06-17T11:28:37.000Z</time>
      </trkpt>
      <trkpt lat="48.5154" lon="1.35915">
        <ele>200</ele>
        <time>2026-06-17T11:28:44.000Z</time>
      </trkpt>
      <trkpt lat="48.51543" lon="1.35925">
        <ele>199.80000305176</ele>
        <time>2026-06-17T11:28:45.000Z</time>
      </trkpt>
      <trkpt lat="48.51561" lon="1.35974">
        <ele>199</ele>
        <time>2026-06-17T11:28:50.000Z</time>
      </trkpt>
      <trkpt lat="48.51586" lon="1.3602">
        <ele>198.60000610352</ele>
        <time>2026-06-17T11:28:56.000Z</time>
      </trkpt>
      <trkpt lat="48.51591" lon="1.36027">
        <ele>198.60000610352</ele>
        <time>2026-06-17T11:28:57.000Z</time>
      </trkpt>
      <trkpt lat="48.51634" lon="1.36091">
        <ele>198.39999389648</ele>
        <time>2026-06-17T11:29:06.000Z</time>
      </trkpt>
      <trkpt lat="48.51658" lon="1.36127">
        <ele>198</ele>
        <time>2026-06-17T11:29:11.000Z</time>
      </trkpt>
      <trkpt lat="48.51687" lon="1.36173">
        <ele>197.60000610352</ele>
        <time>2026-06-17T11:29:17.000Z</time>
      </trkpt>
      <trkpt lat="48.51702" lon="1.36198">
        <ele>197.39999389648</ele>
        <time>2026-06-17T11:29:20.000Z</time>
      </trkpt>
      <trkpt lat="48.51734" lon="1.36266">
        <ele>196.80000305176</ele>
        <time>2026-06-17T11:29:28.000Z</time>
      </trkpt>
      <trkpt lat="48.51737" lon="1.36273">
        <ele>196.60000610352</ele>
        <time>2026-06-17T11:29:29.000Z</time>
      </trkpt>
      <trkpt lat="48.51744" lon="1.36291">
        <ele>196.39999389648</ele>
        <time>2026-06-17T11:29:31.000Z</time>
      </trkpt>
      <trkpt lat="48.51766" lon="1.36332">
        <ele>195.80000305176</ele>
        <time>2026-06-17T11:29:36.000Z</time>
      </trkpt>
      <trkpt lat="48.51777" lon="1.36347">
        <ele>195.39999389648</ele>
        <time>2026-06-17T11:29:38.000Z</time>
      </trkpt>
      <trkpt lat="48.51801" lon="1.36372">
        <ele>194.60000610352</ele>
        <time>2026-06-17T11:29:42.000Z</time>
      </trkpt>
      <trkpt lat="48.5182" lon="1.3639">
        <ele>194.19999694824</ele>
        <time>2026-06-17T11:29:45.000Z</time>
      </trkpt>
      <trkpt lat="48.51863" lon="1.3643">
        <ele>193.19999694824</ele>
        <time>2026-06-17T11:29:51.000Z</time>
      </trkpt>
      <trkpt lat="48.5187" lon="1.36437">
        <ele>193</ele>
        <time>2026-06-17T11:29:52.000Z</time>
      </trkpt>
      <trkpt lat="48.51893" lon="1.36473">
        <ele>192.19999694824</ele>
        <time>2026-06-17T11:29:56.000Z</time>
      </trkpt>
      <trkpt lat="48.51898" lon="1.36482">
        <ele>192</ele>
        <time>2026-06-17T11:29:57.000Z</time>
      </trkpt>
      <trkpt lat="48.51939" lon="1.36551">
        <ele>191.19999694824</ele>
        <time>2026-06-17T11:30:05.000Z</time>
      </trkpt>
      <trkpt lat="48.51972" lon="1.36586">
        <ele>191.19999694824</ele>
        <time>2026-06-17T11:30:11.000Z</time>
      </trkpt>
      <trkpt lat="48.52015" lon="1.36632">
        <ele>192</ele>
        <time>2026-06-17T11:30:19.000Z</time>
      </trkpt>
      <trkpt lat="48.52057" lon="1.36685">
        <ele>191.60000610352</ele>
        <time>2026-06-17T11:30:27.000Z</time>
      </trkpt>
      <trkpt lat="48.52062" lon="1.36691">
        <ele>191.60000610352</ele>
        <time>2026-06-17T11:30:28.000Z</time>
      </trkpt>
      <trkpt lat="48.52107" lon="1.36751">
        <ele>190.80000305176</ele>
        <time>2026-06-17T11:30:36.000Z</time>
      </trkpt>
      <trkpt lat="48.52111" lon="1.36757">
        <ele>190.80000305176</ele>
        <time>2026-06-17T11:30:37.000Z</time>
      </trkpt>
      <trkpt lat="48.52152" lon="1.36827">
        <ele>190</ele>
        <time>2026-06-17T11:30:46.000Z</time>
      </trkpt>
      <trkpt lat="48.5218" lon="1.36874">
        <ele>190</ele>
        <time>2026-06-17T11:30:53.000Z</time>
      </trkpt>
      <trkpt lat="48.52219" lon="1.36932">
        <ele>190.60000610352</ele>
        <time>2026-06-17T11:31:02.000Z</time>
      </trkpt>
      <trkpt lat="48.52228" lon="1.36944">
        <ele>190.60000610352</ele>
        <time>2026-06-17T11:31:04.000Z</time>
      </trkpt>
      <trkpt lat="48.52269" lon="1.37004">
        <ele>191</ele>
        <time>2026-06-17T11:31:13.000Z</time>
      </trkpt>
      <trkpt lat="48.52273" lon="1.37012">
        <ele>191</ele>
        <time>2026-06-17T11:31:14.000Z</time>
      </trkpt>
      <trkpt lat="48.52314" lon="1.37073">
        <ele>191.80000305176</ele>
        <time>2026-06-17T11:31:23.000Z</time>
      </trkpt>
      <trkpt lat="48.5232" lon="1.3708">
        <ele>191.80000305176</ele>
        <time>2026-06-17T11:31:24.000Z</time>
      </trkpt>
      <trkpt lat="48.52359" lon="1.37139">
        <ele>191.80000305176</ele>
        <time>2026-06-17T11:31:32.000Z</time>
      </trkpt>
      <trkpt lat="48.52369" lon="1.37155">
        <ele>191.60000610352</ele>
        <time>2026-06-17T11:31:34.000Z</time>
      </trkpt>
      <trkpt lat="48.52412" lon="1.37221">
        <ele>190</ele>
        <time>2026-06-17T11:31:42.000Z</time>
      </trkpt>
      <trkpt lat="48.52417" lon="1.37229">
        <ele>190</ele>
        <time>2026-06-17T11:31:43.000Z</time>
      </trkpt>
      <trkpt lat="48.52459" lon="1.37293">
        <ele>189</ele>
        <time>2026-06-17T11:31:51.000Z</time>
      </trkpt>
      <trkpt lat="48.52474" lon="1.37316">
        <ele>188.80000305176</ele>
        <time>2026-06-17T11:31:54.000Z</time>
      </trkpt>
      <trkpt lat="48.52499" lon="1.37358">
        <ele>188.80000305176</ele>
        <time>2026-06-17T11:32:00.000Z</time>
      </trkpt>
      <trkpt lat="48.52536" lon="1.37424">
        <ele>189.19999694824</ele>
        <time>2026-06-17T11:32:08.000Z</time>
      </trkpt>
      <trkpt lat="48.52573" lon="1.37492">
        <ele>189.60000610352</ele>
        <time>2026-06-17T11:32:17.000Z</time>
      </trkpt>
      <trkpt lat="48.52581" lon="1.37504">
        <ele>189.60000610352</ele>
        <time>2026-06-17T11:32:19.000Z</time>
      </trkpt>
      <trkpt lat="48.52615" lon="1.37562">
        <ele>188.80000305176</ele>
        <time>2026-06-17T11:32:26.000Z</time>
      </trkpt>
      <trkpt lat="48.52634" lon="1.37601">
        <ele>187.80000305176</ele>
        <time>2026-06-17T11:32:30.000Z</time>
      </trkpt>
      <trkpt lat="48.52643" lon="1.37625">
        <ele>187</ele>
        <time>2026-06-17T11:32:32.000Z</time>
      </trkpt>
      <trkpt lat="48.52647" lon="1.37636">
        <ele>186.60000610352</ele>
        <time>2026-06-17T11:32:33.000Z</time>
      </trkpt>
      <trkpt lat="48.52658" lon="1.3767">
        <ele>185.60000610352</ele>
        <time>2026-06-17T11:32:36.000Z</time>
      </trkpt>
      <trkpt lat="48.52666" lon="1.37704">
        <ele>185</ele>
        <time>2026-06-17T11:32:39.000Z</time>
      </trkpt>
      <trkpt lat="48.52674" lon="1.3775">
        <ele>184.39999389648</ele>
        <time>2026-06-17T11:32:43.000Z</time>
      </trkpt>
      <trkpt lat="48.52678" lon="1.37782">
        <ele>183.80000305176</ele>
        <time>2026-06-17T11:32:46.000Z</time>
      </trkpt>
      <trkpt lat="48.52682" lon="1.37852">
        <ele>183.39999389648</ele>
        <time>2026-06-17T11:32:52.000Z</time>
      </trkpt>
      <trkpt lat="48.52685" lon="1.37886">
        <ele>183.19999694824</ele>
        <time>2026-06-17T11:32:55.000Z</time>
      </trkpt>
      <trkpt lat="48.52697" lon="1.37973">
        <ele>183</ele>
        <time>2026-06-17T11:33:03.000Z</time>
      </trkpt>
      <trkpt lat="48.52701" lon="1.37994">
        <ele>182.80000305176</ele>
        <time>2026-06-17T11:33:05.000Z</time>
      </trkpt>
      <trkpt lat="48.52719" lon="1.38077">
        <ele>182.60000610352</ele>
        <time>2026-06-17T11:33:13.000Z</time>
      </trkpt>
      <trkpt lat="48.52719" lon="1.38077">
        <ele>182.60000610352</ele>
        <time>2026-06-17T11:33:14.000Z</time>
      </trkpt>
      <trkpt lat="48.52722" lon="1.38098">
        <ele>182.60000610352</ele>
        <time>2026-06-17T11:33:15.000Z</time>
      </trkpt>
      <trkpt lat="48.52724" lon="1.38129">
        <ele>182.60000610352</ele>
        <time>2026-06-17T11:33:18.000Z</time>
      </trkpt>
      <trkpt lat="48.52724" lon="1.38139">
        <ele>182.60000610352</ele>
        <time>2026-06-17T11:33:19.000Z</time>
      </trkpt>
      <trkpt lat="48.52721" lon="1.38224">
        <ele>182.80000305176</ele>
        <time>2026-06-17T11:33:27.000Z</time>
      </trkpt>
      <trkpt lat="48.52721" lon="1.38265">
        <ele>182.60000610352</ele>
        <time>2026-06-17T11:33:31.000Z</time>
      </trkpt>
      <trkpt lat="48.52721" lon="1.38295">
        <ele>182.39999389648</ele>
        <time>2026-06-17T11:33:34.000Z</time>
      </trkpt>
      <trkpt lat="48.52723" lon="1.38345">
        <ele>182</ele>
        <time>2026-06-17T11:33:40.000Z</time>
      </trkpt>
      <trkpt lat="48.52729" lon="1.38404">
        <ele>181.60000610352</ele>
        <time>2026-06-17T11:33:45.000Z</time>
      </trkpt>
      <trkpt lat="48.52733" lon="1.38422">
        <ele>181.39999389648</ele>
        <time>2026-06-17T11:33:47.000Z</time>
      </trkpt>
      <trkpt lat="48.52738" lon="1.38443">
        <ele>181.39999389648</ele>
        <time>2026-06-17T11:33:49.000Z</time>
      </trkpt>
      <trkpt lat="48.52753" lon="1.38494">
        <ele>180.60000610352</ele>
        <time>2026-06-17T11:33:54.000Z</time>
      </trkpt>
      <trkpt lat="48.52759" lon="1.38513">
        <ele>180.19999694824</ele>
        <time>2026-06-17T11:33:56.000Z</time>
      </trkpt>
      <trkpt lat="48.52772" lon="1.38549">
        <ele>180</ele>
        <time>2026-06-17T11:34:00.000Z</time>
      </trkpt>
      <trkpt lat="48.52779" lon="1.38569">
        <ele>179.80000305176</ele>
        <time>2026-06-17T11:34:02.000Z</time>
      </trkpt>
      <trkpt lat="48.52783" lon="1.38585">
        <ele>179.80000305176</ele>
        <time>2026-06-17T11:34:04.000Z</time>
      </trkpt>
      <trkpt lat="48.52786" lon="1.38596">
        <ele>179.39999389648</ele>
        <time>2026-06-17T11:34:05.000Z</time>
      </trkpt>
      <trkpt lat="48.52794" lon="1.3862">
        <ele>179</ele>
        <time>2026-06-17T11:34:08.000Z</time>
      </trkpt>
      <trkpt lat="48.52808" lon="1.38662">
        <ele>178.60000610352</ele>
        <time>2026-06-17T11:34:13.000Z</time>
      </trkpt>
      <trkpt lat="48.52824" lon="1.38701">
        <ele>178.19999694824</ele>
        <time>2026-06-17T11:34:18.000Z</time>
      </trkpt>
      <trkpt lat="48.52826" lon="1.38708">
        <ele>177.80000305176</ele>
        <time>2026-06-17T11:34:19.000Z</time>
      </trkpt>
      <trkpt lat="48.52826" lon="1.38717">
        <ele>177.80000305176</ele>
        <time>2026-06-17T11:34:20.000Z</time>
      </trkpt>
      <trkpt lat="48.52824" lon="1.38724">
        <ele>178</ele>
        <time>2026-06-17T11:34:21.000Z</time>
      </trkpt>
      <trkpt lat="48.52817" lon="1.38734">
        <ele>177.80000305176</ele>
        <time>2026-06-17T11:34:23.000Z</time>
      </trkpt>
      <trkpt lat="48.52795" lon="1.38759">
        <ele>177.39999389648</ele>
        <time>2026-06-17T11:34:28.000Z</time>
      </trkpt>
      <trkpt lat="48.52791" lon="1.38765">
        <ele>177.39999389648</ele>
        <time>2026-06-17T11:34:29.000Z</time>
      </trkpt>
      <trkpt lat="48.52773" lon="1.38793">
        <ele>177.39999389648</ele>
        <time>2026-06-17T11:34:34.000Z</time>
      </trkpt>
      <trkpt lat="48.52771" lon="1.38797">
        <ele>177.60000610352</ele>
        <time>2026-06-17T11:34:35.000Z</time>
      </trkpt>
      <trkpt lat="48.52748" lon="1.38831">
        <ele>177.39999389648</ele>
        <time>2026-06-17T11:34:41.000Z</time>
      </trkpt>
      <trkpt lat="48.52739" lon="1.38843">
        <ele>177.19999694824</ele>
        <time>2026-06-17T11:34:43.000Z</time>
      </trkpt>
      <trkpt lat="48.52711" lon="1.3888">
        <ele>176.39999389648</ele>
        <time>2026-06-17T11:34:50.000Z</time>
      </trkpt>
      <trkpt lat="48.52697" lon="1.38895">
        <ele>176</ele>
        <time>2026-06-17T11:34:52.000Z</time>
      </trkpt>
      <trkpt lat="48.52669" lon="1.38924">
        <ele>175.19999694824</ele>
        <time>2026-06-17T11:34:57.000Z</time>
      </trkpt>
      <trkpt lat="48.52666" lon="1.38929">
        <ele>175.19999694824</ele>
        <time>2026-06-17T11:34:58.000Z</time>
      </trkpt>
      <trkpt lat="48.52656" lon="1.38939">
        <ele>175</ele>
        <time>2026-06-17T11:35:00.000Z</time>
      </trkpt>
      <trkpt lat="48.5264" lon="1.38955">
        <ele>174.80000305176</ele>
        <time>2026-06-17T11:35:04.000Z</time>
      </trkpt>
      <trkpt lat="48.52635" lon="1.3896">
        <ele>174.80000305176</ele>
        <time>2026-06-17T11:35:05.000Z</time>
      </trkpt>
      <trkpt lat="48.52619" lon="1.38979">
        <ele>175</ele>
        <time>2026-06-17T11:35:10.000Z</time>
      </trkpt>
      <trkpt lat="48.52602" lon="1.38998">
        <ele>175.39999389648</ele>
        <time>2026-06-17T11:35:16.000Z</time>
      </trkpt>
      <trkpt lat="48.5259" lon="1.39011">
        <ele>176</ele>
        <time>2026-06-17T11:35:21.000Z</time>
      </trkpt>
      <trkpt lat="48.52587" lon="1.39014">
        <ele>176.19999694824</ele>
        <time>2026-06-17T11:35:22.000Z</time>
      </trkpt>
      <trkpt lat="48.52576" lon="1.39029">
        <ele>177</ele>
        <time>2026-06-17T11:35:27.000Z</time>
      </trkpt>
      <trkpt lat="48.52566" lon="1.39041">
        <ele>177.39999389648</ele>
        <time>2026-06-17T11:35:29.000Z</time>
      </trkpt>
      <trkpt lat="48.52539" lon="1.39077">
        <ele>177.80000305176</ele>
        <time>2026-06-17T11:35:38.000Z</time>
      </trkpt>
      <trkpt lat="48.52533" lon="1.391">
        <ele>178.19999694824</ele>
        <time>2026-06-17T11:35:42.000Z</time>
      </trkpt>
      <trkpt lat="48.52532" lon="1.39105">
        <ele>178.19999694824</ele>
        <time>2026-06-17T11:35:43.000Z</time>
      </trkpt>
      <trkpt lat="48.52531" lon="1.39111">
        <ele>178.19999694824</ele>
        <time>2026-06-17T11:35:44.000Z</time>
      </trkpt>
      <trkpt lat="48.52533" lon="1.39139">
        <ele>178.39999389648</ele>
        <time>2026-06-17T11:35:48.000Z</time>
      </trkpt>
      <trkpt lat="48.52534" lon="1.39153">
        <ele>178.60000610352</ele>
        <time>2026-06-17T11:35:50.000Z</time>
      </trkpt>
      <trkpt lat="48.52534" lon="1.39153">
        <ele>178.60000610352</ele>
        <time>2026-06-17T11:35:51.000Z</time>
      </trkpt>
      <trkpt lat="48.52536" lon="1.39209">
        <ele>178.80000305176</ele>
        <time>2026-06-17T11:35:58.000Z</time>
      </trkpt>
      <trkpt lat="48.52536" lon="1.39262">
        <ele>179.39999389648</ele>
        <time>2026-06-17T11:36:05.000Z</time>
      </trkpt>
      <trkpt lat="48.52536" lon="1.39276">
        <ele>179.39999389648</ele>
        <time>2026-06-17T11:36:07.000Z</time>
      </trkpt>
      <trkpt lat="48.52529" lon="1.39319">
        <ele>179.39999389648</ele>
        <time>2026-06-17T11:36:13.000Z</time>
      </trkpt>
      <trkpt lat="48.52528" lon="1.39326">
        <ele>179.39999389648</ele>
        <time>2026-06-17T11:36:14.000Z</time>
      </trkpt>
      <trkpt lat="48.52524" lon="1.39335">
        <ele>179.39999389648</ele>
        <time>2026-06-17T11:36:15.000Z</time>
      </trkpt>
      <trkpt lat="48.5251" lon="1.39369">
        <ele>179.39999389648</ele>
        <time>2026-06-17T11:36:21.000Z</time>
      </trkpt>
      <trkpt lat="48.52499" lon="1.39398">
        <ele>179.60000610352</ele>
        <time>2026-06-17T11:36:24.000Z</time>
      </trkpt>
      <trkpt lat="48.52496" lon="1.39415">
        <ele>179.60000610352</ele>
        <time>2026-06-17T11:36:26.000Z</time>
      </trkpt>
      <trkpt lat="48.52496" lon="1.39434">
        <ele>179.60000610352</ele>
        <time>2026-06-17T11:36:28.000Z</time>
      </trkpt>
      <trkpt lat="48.525" lon="1.3945">
        <ele>179.80000305176</ele>
        <time>2026-06-17T11:36:30.000Z</time>
      </trkpt>
      <trkpt lat="48.5252" lon="1.39511">
        <ele>179.60000610352</ele>
        <time>2026-06-17T11:36:37.000Z</time>
      </trkpt>
      <trkpt lat="48.52543" lon="1.39588">
        <ele>178.80000305176</ele>
        <time>2026-06-17T11:36:46.000Z</time>
      </trkpt>
      <trkpt lat="48.52546" lon="1.39596">
        <ele>178.60000610352</ele>
        <time>2026-06-17T11:36:48.000Z</time>
      </trkpt>
      <trkpt lat="48.52555" lon="1.39641">
        <ele>178.39999389648</ele>
        <time>2026-06-17T11:36:52.000Z</time>
      </trkpt>
      <trkpt lat="48.52561" lon="1.3967">
        <ele>178</ele>
        <time>2026-06-17T11:36:55.000Z</time>
      </trkpt>
      <trkpt lat="48.52562" lon="1.39681">
        <ele>178</ele>
        <time>2026-06-17T11:36:56.000Z</time>
      </trkpt>
      <trkpt lat="48.52561" lon="1.39692">
        <ele>177.80000305176</ele>
        <time>2026-06-17T11:36:57.000Z</time>
      </trkpt>
      <trkpt lat="48.52556" lon="1.39717">
        <ele>177.60000610352</ele>
        <time>2026-06-17T11:36:59.000Z</time>
      </trkpt>
      <trkpt lat="48.52552" lon="1.39727">
        <ele>177.39999389648</ele>
        <time>2026-06-17T11:37:00.000Z</time>
      </trkpt>
      <trkpt lat="48.52548" lon="1.39734">
        <ele>177.19999694824</ele>
        <time>2026-06-17T11:37:01.000Z</time>
      </trkpt>
      <trkpt lat="48.52542" lon="1.39742">
        <ele>176.60000610352</ele>
        <time>2026-06-17T11:37:02.000Z</time>
      </trkpt>
      <trkpt lat="48.52523" lon="1.39762">
        <ele>176</ele>
        <time>2026-06-17T11:37:05.000Z</time>
      </trkpt>
      <trkpt lat="48.52501" lon="1.39781">
        <ele>174.80000305176</ele>
        <time>2026-06-17T11:37:08.000Z</time>
      </trkpt>
      <trkpt lat="48.52469" lon="1.39809">
        <ele>173.80000305176</ele>
        <time>2026-06-17T11:37:13.000Z</time>
      </trkpt>
      <trkpt lat="48.52441" lon="1.39833">
        <ele>172.60000610352</ele>
        <time>2026-06-17T11:37:17.000Z</time>
      </trkpt>
      <trkpt lat="48.52427" lon="1.39846">
        <ele>172.19999694824</ele>
        <time>2026-06-17T11:37:19.000Z</time>
      </trkpt>
      <trkpt lat="48.52412" lon="1.39858">
        <ele>171.39999389648</ele>
        <time>2026-06-17T11:37:21.000Z</time>
      </trkpt>
      <trkpt lat="48.52369" lon="1.39896">
        <ele>171</ele>
        <time>2026-06-17T11:37:28.000Z</time>
      </trkpt>
      <trkpt lat="48.52319" lon="1.39941">
        <ele>171.39999389648</ele>
        <time>2026-06-17T11:37:37.000Z</time>
      </trkpt>
      <trkpt lat="48.52314" lon="1.39946">
        <ele>171.39999389648</ele>
        <time>2026-06-17T11:37:38.000Z</time>
      </trkpt>
      <trkpt lat="48.52275" lon="1.39988">
        <ele>172.39999389648</ele>
        <time>2026-06-17T11:37:46.000Z</time>
      </trkpt>
      <trkpt lat="48.52252" lon="1.40019">
        <ele>173.19999694824</ele>
        <time>2026-06-17T11:37:51.000Z</time>
      </trkpt>
      <trkpt lat="48.52244" lon="1.40033">
        <ele>173.60000610352</ele>
        <time>2026-06-17T11:37:53.000Z</time>
      </trkpt>
      <trkpt lat="48.52241" lon="1.40041">
        <ele>173.60000610352</ele>
        <time>2026-06-17T11:37:54.000Z</time>
      </trkpt>
      <trkpt lat="48.5222" lon="1.40102">
        <ele>174.39999389648</ele>
        <time>2026-06-17T11:38:01.000Z</time>
      </trkpt>
      <trkpt lat="48.52205" lon="1.40185">
        <ele>174.39999389648</ele>
        <time>2026-06-17T11:38:10.000Z</time>
      </trkpt>
      <trkpt lat="48.52189" lon="1.40271">
        <ele>174.19999694824</ele>
        <time>2026-06-17T11:38:19.000Z</time>
      </trkpt>
      <trkpt lat="48.52187" lon="1.4028">
        <ele>174.19999694824</ele>
        <time>2026-06-17T11:38:20.000Z</time>
      </trkpt>
      <trkpt lat="48.52166" lon="1.40352">
        <ele>174.60000610352</ele>
        <time>2026-06-17T11:38:28.000Z</time>
      </trkpt>
      <trkpt lat="48.52148" lon="1.40409">
        <ele>174.60000610352</ele>
        <time>2026-06-17T11:38:34.000Z</time>
      </trkpt>
      <trkpt lat="48.52122" lon="1.40471">
        <ele>174.19999694824</ele>
        <time>2026-06-17T11:38:41.000Z</time>
      </trkpt>
      <trkpt lat="48.52105" lon="1.40507">
        <ele>174</ele>
        <time>2026-06-17T11:38:45.000Z</time>
      </trkpt>
      <trkpt lat="48.521" lon="1.40515">
        <ele>173.60000610352</ele>
        <time>2026-06-17T11:38:46.000Z</time>
      </trkpt>
      <trkpt lat="48.52086" lon="1.40548">
        <ele>172.80000305176</ele>
        <time>2026-06-17T11:38:50.000Z</time>
      </trkpt>
      <trkpt lat="48.52078" lon="1.40566">
        <ele>172.60000610352</ele>
        <time>2026-06-17T11:38:52.000Z</time>
      </trkpt>
      <trkpt lat="48.52063" lon="1.40606">
        <ele>171.60000610352</ele>
        <time>2026-06-17T11:38:56.000Z</time>
      </trkpt>
      <trkpt lat="48.52036" lon="1.4067">
        <ele>170.39999389648</ele>
        <time>2026-06-17T11:39:03.000Z</time>
      </trkpt>
      <trkpt lat="48.52003" lon="1.40713">
        <ele>169.19999694824</ele>
        <time>2026-06-17T11:39:09.000Z</time>
      </trkpt>
      <trkpt lat="48.5196" lon="1.40764">
        <ele>168.60000610352</ele>
        <time>2026-06-17T11:39:16.000Z</time>
      </trkpt>
      <trkpt lat="48.51954" lon="1.40772">
        <ele>168.39999389648</ele>
        <time>2026-06-17T11:39:17.000Z</time>
      </trkpt>
      <trkpt lat="48.51937" lon="1.40792">
        <ele>168.19999694824</ele>
        <time>2026-06-17T11:39:20.000Z</time>
      </trkpt>
      <trkpt lat="48.51924" lon="1.40809">
        <ele>168.19999694824</ele>
        <time>2026-06-17T11:39:22.000Z</time>
      </trkpt>
      <trkpt lat="48.51898" lon="1.40846">
        <ele>168</ele>
        <time>2026-06-17T11:39:27.000Z</time>
      </trkpt>
      <trkpt lat="48.5186" lon="1.40905">
        <ele>167.80000305176</ele>
        <time>2026-06-17T11:39:35.000Z</time>
      </trkpt>
      <trkpt lat="48.51822" lon="1.40966">
        <ele>167.39999389648</ele>
        <time>2026-06-17T11:39:43.000Z</time>
      </trkpt>
      <trkpt lat="48.51818" lon="1.40973">
        <ele>167.19999694824</ele>
        <time>2026-06-17T11:39:44.000Z</time>
      </trkpt>
      <trkpt lat="48.51813" lon="1.40981">
        <ele>167.19999694824</ele>
        <time>2026-06-17T11:39:45.000Z</time>
      </trkpt>
      <trkpt lat="48.51777" lon="1.41042">
        <ele>166.39999389648</ele>
        <time>2026-06-17T11:39:53.000Z</time>
      </trkpt>
      <trkpt lat="48.51745" lon="1.41103">
        <ele>166.39999389648</ele>
        <time>2026-06-17T11:40:01.000Z</time>
      </trkpt>
      <trkpt lat="48.51741" lon="1.41111">
        <ele>166.39999389648</ele>
        <time>2026-06-17T11:40:02.000Z</time>
      </trkpt>
      <trkpt lat="48.51706" lon="1.4118">
        <ele>165.60000610352</ele>
        <time>2026-06-17T11:40:11.000Z</time>
      </trkpt>
      <trkpt lat="48.51699" lon="1.41195">
        <ele>165.60000610352</ele>
        <time>2026-06-17T11:40:13.000Z</time>
      </trkpt>
      <trkpt lat="48.51692" lon="1.41211">
        <ele>165.39999389648</ele>
        <time>2026-06-17T11:40:15.000Z</time>
      </trkpt>
      <trkpt lat="48.51668" lon="1.41259">
        <ele>164.80000305176</ele>
        <time>2026-06-17T11:40:21.000Z</time>
      </trkpt>
      <trkpt lat="48.51646" lon="1.4132">
        <ele>164.39999389648</ele>
        <time>2026-06-17T11:40:28.000Z</time>
      </trkpt>
      <trkpt lat="48.51639" lon="1.41348">
        <ele>164.19999694824</ele>
        <time>2026-06-17T11:40:31.000Z</time>
      </trkpt>
      <trkpt lat="48.51629" lon="1.41387">
        <ele>163.80000305176</ele>
        <time>2026-06-17T11:40:35.000Z</time>
      </trkpt>
      <trkpt lat="48.51619" lon="1.41436">
        <ele>163.19999694824</ele>
        <time>2026-06-17T11:40:40.000Z</time>
      </trkpt>
      <trkpt lat="48.51611" lon="1.41471">
        <ele>162.60000610352</ele>
        <time>2026-06-17T11:40:44.000Z</time>
      </trkpt>
      <trkpt lat="48.51608" lon="1.4148">
        <ele>162.60000610352</ele>
        <time>2026-06-17T11:40:45.000Z</time>
      </trkpt>
      <trkpt lat="48.51597" lon="1.41509">
        <ele>162.19999694824</ele>
        <time>2026-06-17T11:40:48.000Z</time>
      </trkpt>
      <trkpt lat="48.51593" lon="1.41517">
        <ele>162</ele>
        <time>2026-06-17T11:40:49.000Z</time>
      </trkpt>
      <trkpt lat="48.51565" lon="1.41559">
        <ele>161.19999694824</ele>
        <time>2026-06-17T11:40:55.000Z</time>
      </trkpt>
      <trkpt lat="48.51555" lon="1.41573">
        <ele>161</ele>
        <time>2026-06-17T11:40:57.000Z</time>
      </trkpt>
      <trkpt lat="48.51536" lon="1.41598">
        <ele>160.19999694824</ele>
        <time>2026-06-17T11:41:01.000Z</time>
      </trkpt>
      <trkpt lat="48.51502" lon="1.41643">
        <ele>160</ele>
        <time>2026-06-17T11:41:08.000Z</time>
      </trkpt>
      <trkpt lat="48.51497" lon="1.4165">
        <ele>160</ele>
        <time>2026-06-17T11:41:09.000Z</time>
      </trkpt>
      <trkpt lat="48.51488" lon="1.41667">
        <ele>159.80000305176</ele>
        <time>2026-06-17T11:41:11.000Z</time>
      </trkpt>
      <trkpt lat="48.51481" lon="1.41683">
        <ele>159.60000610352</ele>
        <time>2026-06-17T11:41:13.000Z</time>
      </trkpt>
      <trkpt lat="48.51475" lon="1.417">
        <ele>159.60000610352</ele>
        <time>2026-06-17T11:41:15.000Z</time>
      </trkpt>
      <trkpt lat="48.51463" lon="1.41753">
        <ele>159.19999694824</ele>
        <time>2026-06-17T11:41:21.000Z</time>
      </trkpt>
      <trkpt lat="48.51463" lon="1.41762">
        <ele>159.19999694824</ele>
        <time>2026-06-17T11:41:22.000Z</time>
      </trkpt>
      <trkpt lat="48.51464" lon="1.41771">
        <ele>159.19999694824</ele>
        <time>2026-06-17T11:41:23.000Z</time>
      </trkpt>
      <trkpt lat="48.51469" lon="1.41804">
        <ele>159</ele>
        <time>2026-06-17T11:41:27.000Z</time>
      </trkpt>
      <trkpt lat="48.5148" lon="1.41834">
        <ele>159</ele>
        <time>2026-06-17T11:41:31.000Z</time>
      </trkpt>
      <trkpt lat="48.51489" lon="1.41847">
        <ele>159</ele>
        <time>2026-06-17T11:41:33.000Z</time>
      </trkpt>
      <trkpt lat="48.51497" lon="1.41859">
        <ele>159.19999694824</ele>
        <time>2026-06-17T11:41:35.000Z</time>
      </trkpt>
      <trkpt lat="48.51506" lon="1.41871">
        <ele>159.19999694824</ele>
        <time>2026-06-17T11:41:37.000Z</time>
      </trkpt>
      <trkpt lat="48.51537" lon="1.41904">
        <ele>159.19999694824</ele>
        <time>2026-06-17T11:41:44.000Z</time>
      </trkpt>
      <trkpt lat="48.51542" lon="1.41911">
        <ele>159.19999694824</ele>
        <time>2026-06-17T11:41:45.000Z</time>
      </trkpt>
      <trkpt lat="48.51558" lon="1.41934">
        <ele>159</ele>
        <time>2026-06-17T11:41:49.000Z</time>
      </trkpt>
      <trkpt lat="48.51579" lon="1.41966">
        <ele>159.39999389648</ele>
        <time>2026-06-17T11:41:55.000Z</time>
      </trkpt>
      <trkpt lat="48.51581" lon="1.41969">
        <ele>159.39999389648</ele>
        <time>2026-06-17T11:41:56.000Z</time>
      </trkpt>
      <trkpt lat="48.51585" lon="1.41981">
        <ele>159.60000610352</ele>
        <time>2026-06-17T11:41:58.000Z</time>
      </trkpt>
      <trkpt lat="48.51597" lon="1.42002">
        <ele>159.80000305176</ele>
        <time>2026-06-17T11:42:02.000Z</time>
      </trkpt>
      <trkpt lat="48.51635" lon="1.42069">
        <ele>159.60000610352</ele>
        <time>2026-06-17T11:42:14.000Z</time>
      </trkpt>
      <trkpt lat="48.5166" lon="1.42116">
        <ele>159.39999389648</ele>
        <time>2026-06-17T11:42:22.000Z</time>
      </trkpt>
      <trkpt lat="48.51685" lon="1.42163">
        <ele>159</ele>
        <time>2026-06-17T11:42:30.000Z</time>
      </trkpt>
      <trkpt lat="48.51717" lon="1.42217">
        <ele>159.19999694824</ele>
        <time>2026-06-17T11:42:39.000Z</time>
      </trkpt>
      <trkpt lat="48.51754" lon="1.42273">
        <ele>159.19999694824</ele>
        <time>2026-06-17T11:42:48.000Z</time>
      </trkpt>
      <trkpt lat="48.51776" lon="1.42304">
        <ele>159</ele>
        <time>2026-06-17T11:42:53.000Z</time>
      </trkpt>
      <trkpt lat="48.51798" lon="1.42334">
        <ele>158.80000305176</ele>
        <time>2026-06-17T11:42:58.000Z</time>
      </trkpt>
      <trkpt lat="48.51827" lon="1.42378">
        <ele>158.39999389648</ele>
        <time>2026-06-17T11:43:05.000Z</time>
      </trkpt>
      <trkpt lat="48.51867" lon="1.42435">
        <ele>158.60000610352</ele>
        <time>2026-06-17T11:43:14.000Z</time>
      </trkpt>
      <trkpt lat="48.5191" lon="1.42491">
        <ele>158.19999694824</ele>
        <time>2026-06-17T11:43:23.000Z</time>
      </trkpt>
      <trkpt lat="48.51924" lon="1.42508">
        <ele>158.19999694824</ele>
        <time>2026-06-17T11:43:26.000Z</time>
      </trkpt>
      <trkpt lat="48.51968" lon="1.42566">
        <ele>158.39999389648</ele>
        <time>2026-06-17T11:43:35.000Z</time>
      </trkpt>
      <trkpt lat="48.51992" lon="1.42606">
        <ele>158</ele>
        <time>2026-06-17T11:43:41.000Z</time>
      </trkpt>
      <trkpt lat="48.52" lon="1.42623">
        <ele>157.80000305176</ele>
        <time>2026-06-17T11:43:42.000Z</time>
      </trkpt>
      <trkpt lat="48.52024" lon="1.42682">
        <ele>157.19999694824</ele>
        <time>2026-06-17T11:43:49.000Z</time>
      </trkpt>
      <trkpt lat="48.52039" lon="1.42716">
        <ele>157</ele>
        <time>2026-06-17T11:43:53.000Z</time>
      </trkpt>
      <trkpt lat="48.52063" lon="1.42766">
        <ele>156.60000610352</ele>
        <time>2026-06-17T11:43:59.000Z</time>
      </trkpt>
      <trkpt lat="48.52093" lon="1.42805">
        <ele>156.60000610352</ele>
        <time>2026-06-17T11:44:05.000Z</time>
      </trkpt>
      <trkpt lat="48.52141" lon="1.42857">
        <ele>157.19999694824</ele>
        <time>2026-06-17T11:44:14.000Z</time>
      </trkpt>
      <trkpt lat="48.52187" lon="1.42907">
        <ele>157.60000610352</ele>
        <time>2026-06-17T11:44:23.000Z</time>
      </trkpt>
      <trkpt lat="48.52192" lon="1.42913">
        <ele>157.60000610352</ele>
        <time>2026-06-17T11:44:24.000Z</time>
      </trkpt>
      <trkpt lat="48.52234" lon="1.42971">
        <ele>158.19999694824</ele>
        <time>2026-06-17T11:44:33.000Z</time>
      </trkpt>
      <trkpt lat="48.52265" lon="1.4303">
        <ele>158.19999694824</ele>
        <time>2026-06-17T11:44:40.000Z</time>
      </trkpt>
      <trkpt lat="48.52295" lon="1.43108">
        <ele>157.60000610352</ele>
        <time>2026-06-17T11:44:49.000Z</time>
      </trkpt>
      <trkpt lat="48.52302" lon="1.43125">
        <ele>157.39999389648</ele>
        <time>2026-06-17T11:44:51.000Z</time>
      </trkpt>
      <trkpt lat="48.52332" lon="1.43203">
        <ele>156.60000610352</ele>
        <time>2026-06-17T11:45:01.000Z</time>
      </trkpt>
      <trkpt lat="48.5236" lon="1.43249">
        <ele>156.39999389648</ele>
        <time>2026-06-17T11:45:08.000Z</time>
      </trkpt>
      <trkpt lat="48.52376" lon="1.43275">
        <ele>156.39999389648</ele>
        <time>2026-06-17T11:45:12.000Z</time>
      </trkpt>
      <trkpt lat="48.52385" lon="1.4329">
        <ele>156.60000610352</ele>
        <time>2026-06-17T11:45:14.000Z</time>
      </trkpt>
      <trkpt lat="48.52417" lon="1.43346">
        <ele>157</ele>
        <time>2026-06-17T11:45:22.000Z</time>
      </trkpt>
      <trkpt lat="48.52454" lon="1.43399">
        <ele>157</ele>
        <time>2026-06-17T11:45:31.000Z</time>
      </trkpt>
      <trkpt lat="48.52487" lon="1.43439">
        <ele>157.19999694824</ele>
        <time>2026-06-17T11:45:39.000Z</time>
      </trkpt>
      <trkpt lat="48.52524" lon="1.43493">
        <ele>157.80000305176</ele>
        <time>2026-06-17T11:45:49.000Z</time>
      </trkpt>
      <trkpt lat="48.52537" lon="1.43516">
        <ele>158.19999694824</ele>
        <time>2026-06-17T11:45:53.000Z</time>
      </trkpt>
      <trkpt lat="48.52561" lon="1.43556">
        <ele>158.80000305176</ele>
        <time>2026-06-17T11:46:00.000Z</time>
      </trkpt>
      <trkpt lat="48.52572" lon="1.43573">
        <ele>159.19999694824</ele>
        <time>2026-06-17T11:46:03.000Z</time>
      </trkpt>
      <trkpt lat="48.52594" lon="1.43617">
        <ele>160</ele>
        <time>2026-06-17T11:46:10.000Z</time>
      </trkpt>
      <trkpt lat="48.52603" lon="1.43635">
        <ele>160.39999389648</ele>
        <time>2026-06-17T11:46:13.000Z</time>
      </trkpt>
      <trkpt lat="48.5263" lon="1.43693">
        <ele>161</ele>
        <time>2026-06-17T11:46:21.000Z</time>
      </trkpt>
      <trkpt lat="48.52652" lon="1.43741">
        <ele>161.19999694824</ele>
        <time>2026-06-17T11:46:27.000Z</time>
      </trkpt>
      <trkpt lat="48.52685" lon="1.43805">
        <ele>161</ele>
        <time>2026-06-17T11:46:35.000Z</time>
      </trkpt>
      <trkpt lat="48.52715" lon="1.43843">
        <ele>160.39999389648</ele>
        <time>2026-06-17T11:46:41.000Z</time>
      </trkpt>
      <trkpt lat="48.52741" lon="1.43865">
        <ele>160.80000305176</ele>
        <time>2026-06-17T11:46:47.000Z</time>
      </trkpt>
      <trkpt lat="48.52749" lon="1.43869">
        <ele>161.39999389648</ele>
        <time>2026-06-17T11:46:49.000Z</time>
      </trkpt>
      <trkpt lat="48.52757" lon="1.43873">
        <ele>161.80000305176</ele>
        <time>2026-06-17T11:46:51.000Z</time>
      </trkpt>
      <trkpt lat="48.5276" lon="1.43875">
        <ele>162.39999389648</ele>
        <time>2026-06-17T11:46:52.000Z</time>
      </trkpt>
      <trkpt lat="48.52763" lon="1.43877">
        <ele>162.80000305176</ele>
        <time>2026-06-17T11:46:53.000Z</time>
      </trkpt>
      <trkpt lat="48.52767" lon="1.4388">
        <ele>163.60000610352</ele>
        <time>2026-06-17T11:46:56.000Z</time>
      </trkpt>
      <trkpt lat="48.52767" lon="1.4388">
        <ele>164</ele>
        <time>2026-06-17T11:46:57.000Z</time>
      </trkpt>
      <trkpt lat="48.52767" lon="1.4388">
        <ele>164.80000305176</ele>
        <time>2026-06-17T11:47:01.000Z</time>
      </trkpt>
      <trkpt lat="48.52767" lon="1.4388">
        <ele>165</ele>
        <time>2026-06-17T11:47:02.000Z</time>
      </trkpt>
      <trkpt lat="48.52767" lon="1.4388">
        <ele>165.19999694824</ele>
        <time>2026-06-17T11:47:08.000Z</time>
      </trkpt>
      <trkpt lat="48.52767" lon="1.4388">
        <ele>165.39999389648</ele>
        <time>2026-06-17T11:48:41.000Z</time>
      </trkpt>
      <trkpt lat="48.5277" lon="1.43883">
        <ele>165.39999389648</ele>
        <time>2026-06-17T11:49:15.000Z</time>
      </trkpt>
      <trkpt lat="48.52772" lon="1.43884">
        <ele>165.39999389648</ele>
        <time>2026-06-17T11:49:17.000Z</time>
      </trkpt>
      <trkpt lat="48.52774" lon="1.43885">
        <ele>165.39999389648</ele>
        <time>2026-06-17T11:49:18.000Z</time>
      </trkpt>
      <trkpt lat="48.52776" lon="1.43888">
        <ele>165.39999389648</ele>
        <time>2026-06-17T11:49:20.000Z</time>
      </trkpt>
      <trkpt lat="48.52779" lon="1.43889">
        <ele>165.39999389648</ele>
        <time>2026-06-17T11:49:22.000Z</time>
      </trkpt>
      <trkpt lat="48.52789" lon="1.43898">
        <ele>165.60000610352</ele>
        <time>2026-06-17T11:49:27.000Z</time>
      </trkpt>
      <trkpt lat="48.52797" lon="1.43907">
        <ele>166</ele>
        <time>2026-06-17T11:49:30.000Z</time>
      </trkpt>
      <trkpt lat="48.52805" lon="1.43915">
        <ele>166.39999389648</ele>
        <time>2026-06-17T11:49:33.000Z</time>
      </trkpt>
      <trkpt lat="48.52825" lon="1.43935">
        <ele>167</ele>
        <time>2026-06-17T11:49:39.000Z</time>
      </trkpt>
      <trkpt lat="48.52829" lon="1.43938">
        <ele>167.39999389648</ele>
        <time>2026-06-17T11:49:40.000Z</time>
      </trkpt>
      <trkpt lat="48.52836" lon="1.43946">
        <ele>167.60000610352</ele>
        <time>2026-06-17T11:49:42.000Z</time>
      </trkpt>
      <trkpt lat="48.52848" lon="1.43958">
        <ele>168</ele>
        <time>2026-06-17T11:49:46.000Z</time>
      </trkpt>
      <trkpt lat="48.52855" lon="1.43965">
        <ele>168.19999694824</ele>
        <time>2026-06-17T11:49:48.000Z</time>
      </trkpt>
      <trkpt lat="48.52889" lon="1.44002">
        <ele>168.80000305176</ele>
        <time>2026-06-17T11:49:58.000Z</time>
      </trkpt>
      <trkpt lat="48.52902" lon="1.44017">
        <ele>169</ele>
        <time>2026-06-17T11:50:02.000Z</time>
      </trkpt>
      <trkpt lat="48.52929" lon="1.44046">
        <ele>169.60000610352</ele>
        <time>2026-06-17T11:50:10.000Z</time>
      </trkpt>
      <trkpt lat="48.52947" lon="1.44068">
        <ele>170.39999389648</ele>
        <time>2026-06-17T11:50:15.000Z</time>
      </trkpt>
      <trkpt lat="48.52967" lon="1.44092">
        <ele>170.80000305176</ele>
        <time>2026-06-17T11:50:21.000Z</time>
      </trkpt>
      <trkpt lat="48.52994" lon="1.44127">
        <ele>171.60000610352</ele>
        <time>2026-06-17T11:50:29.000Z</time>
      </trkpt>
      <trkpt lat="48.53" lon="1.44135">
        <ele>171.80000305176</ele>
        <time>2026-06-17T11:50:31.000Z</time>
      </trkpt>
      <trkpt lat="48.53035" lon="1.4418">
        <ele>172.60000610352</ele>
        <time>2026-06-17T11:50:41.000Z</time>
      </trkpt>
      <trkpt lat="48.53062" lon="1.4422">
        <ele>173.39999389648</ele>
        <time>2026-06-17T11:50:49.000Z</time>
      </trkpt>
      <trkpt lat="48.53077" lon="1.44252">
        <ele>173.60000610352</ele>
        <time>2026-06-17T11:50:54.000Z</time>
      </trkpt>
      <trkpt lat="48.53086" lon="1.44274">
        <ele>173.80000305176</ele>
        <time>2026-06-17T11:50:57.000Z</time>
      </trkpt>
      <trkpt lat="48.53108" lon="1.44334">
        <ele>174</ele>
        <time>2026-06-17T11:51:05.000Z</time>
      </trkpt>
      <trkpt lat="48.53128" lon="1.444">
        <ele>173.60000610352</ele>
        <time>2026-06-17T11:51:13.000Z</time>
      </trkpt>
      <trkpt lat="48.53147" lon="1.44461">
        <ele>172.80000305176</ele>
        <time>2026-06-17T11:51:20.000Z</time>
      </trkpt>
      <trkpt lat="48.5316" lon="1.44498">
        <ele>172.60000610352</ele>
        <time>2026-06-17T11:51:25.000Z</time>
      </trkpt>
      <trkpt lat="48.53168" lon="1.44522">
        <ele>172.39999389648</ele>
        <time>2026-06-17T11:51:28.000Z</time>
      </trkpt>
      <trkpt lat="48.53194" lon="1.44584">
        <ele>171.80000305176</ele>
        <time>2026-06-17T11:51:36.000Z</time>
      </trkpt>
      <trkpt lat="48.53217" lon="1.44631">
        <ele>172</ele>
        <time>2026-06-17T11:51:43.000Z</time>
      </trkpt>
      <trkpt lat="48.53221" lon="1.44647">
        <ele>172.39999389648</ele>
        <time>2026-06-17T11:51:45.000Z</time>
      </trkpt>
      <trkpt lat="48.5322" lon="1.44653">
        <ele>172.60000610352</ele>
        <time>2026-06-17T11:51:46.000Z</time>
      </trkpt>
      <trkpt lat="48.53217" lon="1.44659">
        <ele>172.60000610352</ele>
        <time>2026-06-17T11:51:47.000Z</time>
      </trkpt>
      <trkpt lat="48.53207" lon="1.44678">
        <ele>173.19999694824</ele>
        <time>2026-06-17T11:51:50.000Z</time>
      </trkpt>
      <trkpt lat="48.532" lon="1.44693">
        <ele>173.60000610352</ele>
        <time>2026-06-17T11:51:52.000Z</time>
      </trkpt>
      <trkpt lat="48.53199" lon="1.44702">
        <ele>173.80000305176</ele>
        <time>2026-06-17T11:51:53.000Z</time>
      </trkpt>
      <trkpt lat="48.532" lon="1.44711">
        <ele>174</ele>
        <time>2026-06-17T11:51:54.000Z</time>
      </trkpt>
      <trkpt lat="48.53204" lon="1.44727">
        <ele>174.19999694824</ele>
        <time>2026-06-17T11:51:56.000Z</time>
      </trkpt>
      <trkpt lat="48.53214" lon="1.44749">
        <ele>174.19999694824</ele>
        <time>2026-06-17T11:51:59.000Z</time>
      </trkpt>
      <trkpt lat="48.53218" lon="1.44765">
        <ele>174.19999694824</ele>
        <time>2026-06-17T11:52:01.000Z</time>
      </trkpt>
      <trkpt lat="48.53221" lon="1.44782">
        <ele>174.39999389648</ele>
        <time>2026-06-17T11:52:03.000Z</time>
      </trkpt>
      <trkpt lat="48.53222" lon="1.44798">
        <ele>174.60000610352</ele>
        <time>2026-06-17T11:52:05.000Z</time>
      </trkpt>
      <trkpt lat="48.53221" lon="1.44815">
        <ele>174.80000305176</ele>
        <time>2026-06-17T11:52:07.000Z</time>
      </trkpt>
      <trkpt lat="48.53221" lon="1.44824">
        <ele>174.80000305176</ele>
        <time>2026-06-17T11:52:08.000Z</time>
      </trkpt>
      <trkpt lat="48.5322" lon="1.44877">
        <ele>176</ele>
        <time>2026-06-17T11:52:14.000Z</time>
      </trkpt>
      <trkpt lat="48.5322" lon="1.44886">
        <ele>176.19999694824</ele>
        <time>2026-06-17T11:52:15.000Z</time>
      </trkpt>
      <trkpt lat="48.53225" lon="1.44944">
        <ele>176.39999389648</ele>
        <time>2026-06-17T11:52:21.000Z</time>
      </trkpt>
      <trkpt lat="48.53237" lon="1.45021">
        <ele>176</ele>
        <time>2026-06-17T11:52:30.000Z</time>
      </trkpt>
      <trkpt lat="48.53248" lon="1.45097">
        <ele>175.80000305176</ele>
        <time>2026-06-17T11:52:39.000Z</time>
      </trkpt>
      <trkpt lat="48.53259" lon="1.45181">
        <ele>175.80000305176</ele>
        <time>2026-06-17T11:52:49.000Z</time>
      </trkpt>
      <trkpt lat="48.53261" lon="1.45196">
        <ele>175.80000305176</ele>
        <time>2026-06-17T11:52:51.000Z</time>
      </trkpt>
      <trkpt lat="48.5326" lon="1.45215">
        <ele>176</ele>
        <time>2026-06-17T11:52:53.000Z</time>
      </trkpt>
      <trkpt lat="48.53258" lon="1.45261">
        <ele>175.80000305176</ele>
        <time>2026-06-17T11:52:58.000Z</time>
      </trkpt>
      <trkpt lat="48.53257" lon="1.45267">
        <ele>175.80000305176</ele>
        <time>2026-06-17T11:52:59.000Z</time>
      </trkpt>
      <trkpt lat="48.53257" lon="1.45274">
        <ele>175.60000610352</ele>
        <time>2026-06-17T11:53:00.000Z</time>
      </trkpt>
      <trkpt lat="48.53256" lon="1.45295">
        <ele>175.39999389648</ele>
        <time>2026-06-17T11:53:03.000Z</time>
      </trkpt>
      <trkpt lat="48.53257" lon="1.45303">
        <ele>175.39999389648</ele>
        <time>2026-06-17T11:53:04.000Z</time>
      </trkpt>
      <trkpt lat="48.53258" lon="1.45326">
        <ele>175</ele>
        <time>2026-06-17T11:53:07.000Z</time>
      </trkpt>
      <trkpt lat="48.53261" lon="1.4536">
        <ele>174.60000610352</ele>
        <time>2026-06-17T11:53:12.000Z</time>
      </trkpt>
      <trkpt lat="48.53267" lon="1.45419">
        <ele>174</ele>
        <time>2026-06-17T11:53:19.000Z</time>
      </trkpt>
      <trkpt lat="48.53269" lon="1.45435">
        <ele>173.80000305176</ele>
        <time>2026-06-17T11:53:21.000Z</time>
      </trkpt>
      <trkpt lat="48.53275" lon="1.45489">
        <ele>173.60000610352</ele>
        <time>2026-06-17T11:53:28.000Z</time>
      </trkpt>
      <trkpt lat="48.53283" lon="1.45565">
        <ele>173.80000305176</ele>
        <time>2026-06-17T11:53:37.000Z</time>
      </trkpt>
      <trkpt lat="48.53284" lon="1.45575">
        <ele>173.80000305176</ele>
        <time>2026-06-17T11:53:38.000Z</time>
      </trkpt>
      <trkpt lat="48.53285" lon="1.45615">
        <ele>174.19999694824</ele>
        <time>2026-06-17T11:53:43.000Z</time>
      </trkpt>
      <trkpt lat="48.53294" lon="1.45658">
        <ele>174.60000610352</ele>
        <time>2026-06-17T11:53:48.000Z</time>
      </trkpt>
      <trkpt lat="48.53307" lon="1.45725">
        <ele>175</ele>
        <time>2026-06-17T11:53:56.000Z</time>
      </trkpt>
      <trkpt lat="48.5331" lon="1.45742">
        <ele>175.19999694824</ele>
        <time>2026-06-17T11:53:58.000Z</time>
      </trkpt>
      <trkpt lat="48.53322" lon="1.45798">
        <ele>175.39999389648</ele>
        <time>2026-06-17T11:54:05.000Z</time>
      </trkpt>
      <trkpt lat="48.53332" lon="1.45834">
        <ele>175.80000305176</ele>
        <time>2026-06-17T11:54:11.000Z</time>
      </trkpt>
      <trkpt lat="48.5336" lon="1.45912">
        <ele>176</ele>
        <time>2026-06-17T11:54:20.000Z</time>
      </trkpt>
      <trkpt lat="48.53381" lon="1.4597">
        <ele>175.80000305176</ele>
        <time>2026-06-17T11:54:27.000Z</time>
      </trkpt>
      <trkpt lat="48.53391" lon="1.45996">
        <ele>175.60000610352</ele>
        <time>2026-06-17T11:54:30.000Z</time>
      </trkpt>
      <trkpt lat="48.53418" lon="1.46072">
        <ele>174.80000305176</ele>
        <time>2026-06-17T11:54:38.000Z</time>
      </trkpt>
      <trkpt lat="48.53422" lon="1.46082">
        <ele>174.60000610352</ele>
        <time>2026-06-17T11:54:39.000Z</time>
      </trkpt>
      <trkpt lat="48.53431" lon="1.46111">
        <ele>174</ele>
        <time>2026-06-17T11:54:42.000Z</time>
      </trkpt>
      <trkpt lat="48.53457" lon="1.46189">
        <ele>173.39999389648</ele>
        <time>2026-06-17T11:54:50.000Z</time>
      </trkpt>
      <trkpt lat="48.53465" lon="1.46223">
        <ele>173</ele>
        <time>2026-06-17T11:54:53.000Z</time>
      </trkpt>
      <trkpt lat="48.5347" lon="1.46253">
        <ele>172.60000610352</ele>
        <time>2026-06-17T11:54:56.000Z</time>
      </trkpt>
      <trkpt lat="48.53473" lon="1.46325">
        <ele>172.39999389648</ele>
        <time>2026-06-17T11:55:03.000Z</time>
      </trkpt>
      <trkpt lat="48.53478" lon="1.4641">
        <ele>173</ele>
        <time>2026-06-17T11:55:11.000Z</time>
      </trkpt>
      <trkpt lat="48.53479" lon="1.46425">
        <ele>173.39999389648</ele>
        <time>2026-06-17T11:55:13.000Z</time>
      </trkpt>
      <trkpt lat="48.53482" lon="1.46495">
        <ele>174.19999694824</ele>
        <time>2026-06-17T11:55:19.000Z</time>
      </trkpt>
      <trkpt lat="48.53485" lon="1.46544">
        <ele>174.39999389648</ele>
        <time>2026-06-17T11:55:24.000Z</time>
      </trkpt>
      <trkpt lat="48.53489" lon="1.46597">
        <ele>174.60000610352</ele>
        <time>2026-06-17T11:55:30.000Z</time>
      </trkpt>
      <trkpt lat="48.53501" lon="1.46659">
        <ele>174.80000305176</ele>
        <time>2026-06-17T11:55:37.000Z</time>
      </trkpt>
      <trkpt lat="48.53516" lon="1.46719">
        <ele>174.80000305176</ele>
        <time>2026-06-17T11:55:44.000Z</time>
      </trkpt>
      <trkpt lat="48.53535" lon="1.46771">
        <ele>174.39999389648</ele>
        <time>2026-06-17T11:55:50.000Z</time>
      </trkpt>
      <trkpt lat="48.53564" lon="1.46841">
        <ele>174</ele>
        <time>2026-06-17T11:55:58.000Z</time>
      </trkpt>
      <trkpt lat="48.53568" lon="1.4685">
        <ele>173.80000305176</ele>
        <time>2026-06-17T11:55:59.000Z</time>
      </trkpt>
      <trkpt lat="48.53597" lon="1.46903">
        <ele>173.19999694824</ele>
        <time>2026-06-17T11:56:05.000Z</time>
      </trkpt>
      <trkpt lat="48.53612" lon="1.46931">
        <ele>172.80000305176</ele>
        <time>2026-06-17T11:56:08.000Z</time>
      </trkpt>
      <trkpt lat="48.53627" lon="1.4696">
        <ele>172.19999694824</ele>
        <time>2026-06-17T11:56:11.000Z</time>
      </trkpt>
      <trkpt lat="48.53655" lon="1.47019">
        <ele>171.39999389648</ele>
        <time>2026-06-17T11:56:17.000Z</time>
      </trkpt>
      <trkpt lat="48.53664" lon="1.47039">
        <ele>171</ele>
        <time>2026-06-17T11:56:19.000Z</time>
      </trkpt>
      <trkpt lat="48.53695" lon="1.47112">
        <ele>170</ele>
        <time>2026-06-17T11:56:26.000Z</time>
      </trkpt>
      <trkpt lat="48.53707" lon="1.47144">
        <ele>169.60000610352</ele>
        <time>2026-06-17T11:56:29.000Z</time>
      </trkpt>
      <trkpt lat="48.53722" lon="1.47199">
        <ele>169</ele>
        <time>2026-06-17T11:56:34.000Z</time>
      </trkpt>
      <trkpt lat="48.53723" lon="1.47211">
        <ele>168.80000305176</ele>
        <time>2026-06-17T11:56:35.000Z</time>
      </trkpt>
      <trkpt lat="48.53724" lon="1.47222">
        <ele>168.80000305176</ele>
        <time>2026-06-17T11:56:36.000Z</time>
      </trkpt>
      <trkpt lat="48.53724" lon="1.47244">
        <ele>168.60000610352</ele>
        <time>2026-06-17T11:56:38.000Z</time>
      </trkpt>
      <trkpt lat="48.53722" lon="1.47289">
        <ele>168.39999389648</ele>
        <time>2026-06-17T11:56:43.000Z</time>
      </trkpt>
      <trkpt lat="48.5372" lon="1.4733">
        <ele>168.60000610352</ele>
        <time>2026-06-17T11:56:48.000Z</time>
      </trkpt>
      <trkpt lat="48.5372" lon="1.47363">
        <ele>168.80000305176</ele>
        <time>2026-06-17T11:56:52.000Z</time>
      </trkpt>
      <trkpt lat="48.53721" lon="1.4738">
        <ele>169</ele>
        <time>2026-06-17T11:56:54.000Z</time>
      </trkpt>
      <trkpt lat="48.53723" lon="1.47388">
        <ele>169</ele>
        <time>2026-06-17T11:56:55.000Z</time>
      </trkpt>
      <trkpt lat="48.53729" lon="1.47405">
        <ele>169</ele>
        <time>2026-06-17T11:56:58.000Z</time>
      </trkpt>
      <trkpt lat="48.53744" lon="1.47436">
        <ele>169.60000610352</ele>
        <time>2026-06-17T11:57:05.000Z</time>
      </trkpt>
      <trkpt lat="48.53763" lon="1.47473">
        <ele>169.80000305176</ele>
        <time>2026-06-17T11:57:13.000Z</time>
      </trkpt>
      <trkpt lat="48.53773" lon="1.47501">
        <ele>170.19999694824</ele>
        <time>2026-06-17T11:57:18.000Z</time>
      </trkpt>
      <trkpt lat="48.53774" lon="1.47508">
        <ele>170.19999694824</ele>
        <time>2026-06-17T11:57:19.000Z</time>
      </trkpt>
      <trkpt lat="48.53781" lon="1.47545">
        <ele>170.60000610352</ele>
        <time>2026-06-17T11:57:24.000Z</time>
      </trkpt>
      <trkpt lat="48.53787" lon="1.47576">
        <ele>171</ele>
        <time>2026-06-17T11:57:28.000Z</time>
      </trkpt>
      <trkpt lat="48.53792" lon="1.47605">
        <ele>171</ele>
        <time>2026-06-17T11:57:32.000Z</time>
      </trkpt>
      <trkpt lat="48.53806" lon="1.47674">
        <ele>171.19999694824</ele>
        <time>2026-06-17T11:57:42.000Z</time>
      </trkpt>
      <trkpt lat="48.53809" lon="1.47688">
        <ele>171.19999694824</ele>
        <time>2026-06-17T11:57:44.000Z</time>
      </trkpt>
      <trkpt lat="48.53812" lon="1.47704">
        <ele>171.19999694824</ele>
        <time>2026-06-17T11:57:46.000Z</time>
      </trkpt>
      <trkpt lat="48.53814" lon="1.47718">
        <ele>171</ele>
        <time>2026-06-17T11:57:48.000Z</time>
      </trkpt>
      <trkpt lat="48.53812" lon="1.47726">
        <ele>171</ele>
        <time>2026-06-17T11:57:49.000Z</time>
      </trkpt>
      <trkpt lat="48.5381" lon="1.47733">
        <ele>171</ele>
        <time>2026-06-17T11:57:50.000Z</time>
      </trkpt>
      <trkpt lat="48.538" lon="1.47748">
        <ele>171</ele>
        <time>2026-06-17T11:57:52.000Z</time>
      </trkpt>
      <trkpt lat="48.53795" lon="1.47755">
        <ele>170.80000305176</ele>
        <time>2026-06-17T11:57:53.000Z</time>
      </trkpt>
      <trkpt lat="48.53778" lon="1.47784">
        <ele>170.39999389648</ele>
        <time>2026-06-17T11:57:57.000Z</time>
      </trkpt>
      <trkpt lat="48.53769" lon="1.47799">
        <ele>169.80000305176</ele>
        <time>2026-06-17T11:57:59.000Z</time>
      </trkpt>
      <trkpt lat="48.53746" lon="1.47836">
        <ele>169.39999389648</ele>
        <time>2026-06-17T11:58:04.000Z</time>
      </trkpt>
      <trkpt lat="48.53718" lon="1.47881">
        <ele>169</ele>
        <time>2026-06-17T11:58:10.000Z</time>
      </trkpt>
      <trkpt lat="48.53713" lon="1.47888">
        <ele>168.80000305176</ele>
        <time>2026-06-17T11:58:11.000Z</time>
      </trkpt>
      <trkpt lat="48.53708" lon="1.47893">
        <ele>168.60000610352</ele>
        <time>2026-06-17T11:58:12.000Z</time>
      </trkpt>
      <trkpt lat="48.53702" lon="1.47906">
        <ele>168.60000610352</ele>
        <time>2026-06-17T11:58:14.000Z</time>
      </trkpt>
      <trkpt lat="48.537" lon="1.47921">
        <ele>168.39999389648</ele>
        <time>2026-06-17T11:58:16.000Z</time>
      </trkpt>
      <trkpt lat="48.53707" lon="1.47934">
        <ele>168.19999694824</ele>
        <time>2026-06-17T11:58:18.000Z</time>
      </trkpt>
      <trkpt lat="48.53728" lon="1.47958">
        <ele>167.60000610352</ele>
        <time>2026-06-17T11:58:22.000Z</time>
      </trkpt>
      <trkpt lat="48.53733" lon="1.47966">
        <ele>167.60000610352</ele>
        <time>2026-06-17T11:58:23.000Z</time>
      </trkpt>
      <trkpt lat="48.53759" lon="1.48015">
        <ele>166.80000305176</ele>
        <time>2026-06-17T11:58:29.000Z</time>
      </trkpt>
      <trkpt lat="48.53764" lon="1.48032">
        <ele>166.80000305176</ele>
        <time>2026-06-17T11:58:31.000Z</time>
      </trkpt>
      <trkpt lat="48.53785" lon="1.48094">
        <ele>166</ele>
        <time>2026-06-17T11:58:38.000Z</time>
      </trkpt>
      <trkpt lat="48.53804" lon="1.48145">
        <ele>166.19999694824</ele>
        <time>2026-06-17T11:58:44.000Z</time>
      </trkpt>
      <trkpt lat="48.53807" lon="1.48153">
        <ele>166.19999694824</ele>
        <time>2026-06-17T11:58:45.000Z</time>
      </trkpt>
      <trkpt lat="48.53829" lon="1.48212">
        <ele>165.80000305176</ele>
        <time>2026-06-17T11:58:52.000Z</time>
      </trkpt>
      <trkpt lat="48.53835" lon="1.48228">
        <ele>165.60000610352</ele>
        <time>2026-06-17T11:58:54.000Z</time>
      </trkpt>
      <trkpt lat="48.53861" lon="1.48295">
        <ele>165</ele>
        <time>2026-06-17T11:59:02.000Z</time>
      </trkpt>
      <trkpt lat="48.53864" lon="1.48304">
        <ele>164.80000305176</ele>
        <time>2026-06-17T11:59:03.000Z</time>
      </trkpt>
      <trkpt lat="48.53883" lon="1.48356">
        <ele>163.80000305176</ele>
        <time>2026-06-17T11:59:08.000Z</time>
      </trkpt>
      <trkpt lat="48.53887" lon="1.48367">
        <ele>163.80000305176</ele>
        <time>2026-06-17T11:59:09.000Z</time>
      </trkpt>
      <trkpt lat="48.53904" lon="1.48411">
        <ele>162.39999389648</ele>
        <time>2026-06-17T11:59:13.000Z</time>
      </trkpt>
      <trkpt lat="48.53913" lon="1.48434">
        <ele>162</ele>
        <time>2026-06-17T11:59:15.000Z</time>
      </trkpt>
      <trkpt lat="48.53923" lon="1.48456">
        <ele>161.39999389648</ele>
        <time>2026-06-17T11:59:17.000Z</time>
      </trkpt>
      <trkpt lat="48.53946" lon="1.48498">
        <ele>160.19999694824</ele>
        <time>2026-06-17T11:59:21.000Z</time>
      </trkpt>
      <trkpt lat="48.53963" lon="1.4853">
        <ele>159</ele>
        <time>2026-06-17T11:59:24.000Z</time>
      </trkpt>
      <trkpt lat="48.53996" lon="1.486">
        <ele>158</ele>
        <time>2026-06-17T11:59:30.000Z</time>
      </trkpt>
      <trkpt lat="48.54019" lon="1.48661">
        <ele>156.80000305176</ele>
        <time>2026-06-17T11:59:35.000Z</time>
      </trkpt>
      <trkpt lat="48.54027" lon="1.48686">
        <ele>156.39999389648</ele>
        <time>2026-06-17T11:59:37.000Z</time>
      </trkpt>
      <trkpt lat="48.54031" lon="1.48699">
        <ele>155.80000305176</ele>
        <time>2026-06-17T11:59:38.000Z</time>
      </trkpt>
      <trkpt lat="48.54048" lon="1.48763">
        <ele>154.80000305176</ele>
        <time>2026-06-17T11:59:43.000Z</time>
      </trkpt>
      <trkpt lat="48.5405" lon="1.48773">
        <ele>154.60000610352</ele>
        <time>2026-06-17T11:59:44.000Z</time>
      </trkpt>
      <trkpt lat="48.54055" lon="1.48838">
        <ele>153.60000610352</ele>
        <time>2026-06-17T11:59:49.000Z</time>
      </trkpt>
      <trkpt lat="48.54059" lon="1.48893">
        <ele>153</ele>
        <time>2026-06-17T11:59:54.000Z</time>
      </trkpt>
      <trkpt lat="48.54075" lon="1.48963">
        <ele>152.60000610352</ele>
        <time>2026-06-17T12:00:01.000Z</time>
      </trkpt>
      <trkpt lat="48.54079" lon="1.48985">
        <ele>152.60000610352</ele>
        <time>2026-06-17T12:00:03.000Z</time>
      </trkpt>
      <trkpt lat="48.54098" lon="1.49053">
        <ele>151.80000305176</ele>
        <time>2026-06-17T12:00:09.000Z</time>
      </trkpt>
      <trkpt lat="48.54101" lon="1.49066">
        <ele>151.39999389648</ele>
        <time>2026-06-17T12:00:10.000Z</time>
      </trkpt>
      <trkpt lat="48.5412" lon="1.49131">
        <ele>150</ele>
        <time>2026-06-17T12:00:15.000Z</time>
      </trkpt>
      <trkpt lat="48.54136" lon="1.49188">
        <ele>149.39999389648</ele>
        <time>2026-06-17T12:00:19.000Z</time>
      </trkpt>
      <trkpt lat="48.54139" lon="1.492">
        <ele>149</ele>
        <time>2026-06-17T12:00:20.000Z</time>
      </trkpt>
      <trkpt lat="48.54149" lon="1.49247">
        <ele>148</ele>
        <time>2026-06-17T12:00:23.000Z</time>
      </trkpt>
      <trkpt lat="48.54161" lon="1.49288">
        <ele>146.60000610352</ele>
        <time>2026-06-17T12:00:26.000Z</time>
      </trkpt>
      <trkpt lat="48.54174" lon="1.49337">
        <ele>145.60000610352</ele>
        <time>2026-06-17T12:00:30.000Z</time>
      </trkpt>
      <trkpt lat="48.54175" lon="1.49349">
        <ele>145.39999389648</ele>
        <time>2026-06-17T12:00:31.000Z</time>
      </trkpt>
      <trkpt lat="48.54174" lon="1.49396">
        <ele>145.39999389648</ele>
        <time>2026-06-17T12:00:35.000Z</time>
      </trkpt>
      <trkpt lat="48.54172" lon="1.49433">
        <ele>145.39999389648</ele>
        <time>2026-06-17T12:00:38.000Z</time>
      </trkpt>
      <trkpt lat="48.54174" lon="1.49447">
        <ele>145.39999389648</ele>
        <time>2026-06-17T12:00:39.000Z</time>
      </trkpt>
      <trkpt lat="48.54176" lon="1.49454">
        <ele>145.39999389648</ele>
        <time>2026-06-17T12:00:40.000Z</time>
      </trkpt>
      <trkpt lat="48.5418" lon="1.49467">
        <ele>145.60000610352</ele>
        <time>2026-06-17T12:00:42.000Z</time>
      </trkpt>
      <trkpt lat="48.54188" lon="1.49473">
        <ele>145.80000305176</ele>
        <time>2026-06-17T12:00:44.000Z</time>
      </trkpt>
      <trkpt lat="48.54195" lon="1.49474">
        <ele>146</ele>
        <time>2026-06-17T12:00:45.000Z</time>
      </trkpt>
      <trkpt lat="48.54215" lon="1.49476">
        <ele>146.80000305176</ele>
        <time>2026-06-17T12:00:48.000Z</time>
      </trkpt>
      <trkpt lat="48.54225" lon="1.49478">
        <ele>147.80000305176</ele>
        <time>2026-06-17T12:00:50.000Z</time>
      </trkpt>
      <trkpt lat="48.5423" lon="1.4948">
        <ele>148.19999694824</ele>
        <time>2026-06-17T12:00:51.000Z</time>
      </trkpt>
      <trkpt lat="48.54235" lon="1.49481">
        <ele>148.60000610352</ele>
        <time>2026-06-17T12:00:52.000Z</time>
      </trkpt>
      <trkpt lat="48.54246" lon="1.49483">
        <ele>149.19999694824</ele>
        <time>2026-06-17T12:00:54.000Z</time>
      </trkpt>
      <trkpt lat="48.54263" lon="1.49489">
        <ele>150.39999389648</ele>
        <time>2026-06-17T12:00:57.000Z</time>
      </trkpt>
      <trkpt lat="48.54268" lon="1.49491">
        <ele>150.60000610352</ele>
        <time>2026-06-17T12:00:58.000Z</time>
      </trkpt>
      <trkpt lat="48.54284" lon="1.49497">
        <ele>151.60000610352</ele>
        <time>2026-06-17T12:01:01.000Z</time>
      </trkpt>
      <trkpt lat="48.54288" lon="1.49499">
        <ele>151.60000610352</ele>
        <time>2026-06-17T12:01:02.000Z</time>
      </trkpt>
      <trkpt lat="48.54299" lon="1.49508">
        <ele>152.19999694824</ele>
        <time>2026-06-17T12:01:04.000Z</time>
      </trkpt>
      <trkpt lat="48.54308" lon="1.4952">
        <ele>152.80000305176</ele>
        <time>2026-06-17T12:01:06.000Z</time>
      </trkpt>
      <trkpt lat="48.5432" lon="1.49546">
        <ele>153.39999389648</ele>
        <time>2026-06-17T12:01:10.000Z</time>
      </trkpt>
      <trkpt lat="48.54328" lon="1.49562">
        <ele>153.39999389648</ele>
        <time>2026-06-17T12:01:12.000Z</time>
      </trkpt>
      <trkpt lat="48.54338" lon="1.49581">
        <ele>153.60000610352</ele>
        <time>2026-06-17T12:01:15.000Z</time>
      </trkpt>
      <trkpt lat="48.54344" lon="1.49593">
        <ele>153.60000610352</ele>
        <time>2026-06-17T12:01:17.000Z</time>
      </trkpt>
      <trkpt lat="48.54358" lon="1.49618">
        <ele>154</ele>
        <time>2026-06-17T12:01:20.000Z</time>
      </trkpt>
      <trkpt lat="48.54363" lon="1.49625">
        <ele>154</ele>
        <time>2026-06-17T12:01:21.000Z</time>
      </trkpt>
      <trkpt lat="48.54381" lon="1.49651">
        <ele>154.80000305176</ele>
        <time>2026-06-17T12:01:25.000Z</time>
      </trkpt>
      <trkpt lat="48.5439" lon="1.49662">
        <ele>155.39999389648</ele>
        <time>2026-06-17T12:01:27.000Z</time>
      </trkpt>
      <trkpt lat="48.544" lon="1.49672">
        <ele>155.60000610352</ele>
        <time>2026-06-17T12:01:29.000Z</time>
      </trkpt>
      <trkpt lat="48.54432" lon="1.4969">
        <ele>156.80000305176</ele>
        <time>2026-06-17T12:01:34.000Z</time>
      </trkpt>
      <trkpt lat="48.54439" lon="1.49693">
        <ele>156.80000305176</ele>
        <time>2026-06-17T12:01:35.000Z</time>
      </trkpt>
      <trkpt lat="48.54453" lon="1.49701">
        <ele>157.80000305176</ele>
        <time>2026-06-17T12:01:38.000Z</time>
      </trkpt>
      <trkpt lat="48.54459" lon="1.49703">
        <ele>158</ele>
        <time>2026-06-17T12:01:39.000Z</time>
      </trkpt>
      <trkpt lat="48.54481" lon="1.49711">
        <ele>158.80000305176</ele>
        <time>2026-06-17T12:01:42.000Z</time>
      </trkpt>
      <trkpt lat="48.54487" lon="1.49712">
        <ele>159</ele>
        <time>2026-06-17T12:01:43.000Z</time>
      </trkpt>
      <trkpt lat="48.54498" lon="1.49713">
        <ele>159.39999389648</ele>
        <time>2026-06-17T12:01:45.000Z</time>
      </trkpt>
      <trkpt lat="48.54504" lon="1.49713">
        <ele>159.39999389648</ele>
        <time>2026-06-17T12:01:46.000Z</time>
      </trkpt>
      <trkpt lat="48.54519" lon="1.49717">
        <ele>159.60000610352</ele>
        <time>2026-06-17T12:01:48.000Z</time>
      </trkpt>
      <trkpt lat="48.5453" lon="1.49718">
        <ele>159.80000305176</ele>
        <time>2026-06-17T12:01:50.000Z</time>
      </trkpt>
      <trkpt lat="48.54547" lon="1.49722">
        <ele>160</ele>
        <time>2026-06-17T12:01:53.000Z</time>
      </trkpt>
      <trkpt lat="48.54567" lon="1.49725">
        <ele>161</ele>
        <time>2026-06-17T12:01:57.000Z</time>
      </trkpt>
      <trkpt lat="48.5458" lon="1.4973">
        <ele>161.19999694824</ele>
        <time>2026-06-17T12:01:59.000Z</time>
      </trkpt>
      <trkpt lat="48.54605" lon="1.49737">
        <ele>162.19999694824</ele>
        <time>2026-06-17T12:02:04.000Z</time>
      </trkpt>
      <trkpt lat="48.54646" lon="1.49753">
        <ele>163.19999694824</ele>
        <time>2026-06-17T12:02:10.000Z</time>
      </trkpt>
      <trkpt lat="48.5466" lon="1.49761">
        <ele>163.39999389648</ele>
        <time>2026-06-17T12:02:12.000Z</time>
      </trkpt>
      <trkpt lat="48.54691" lon="1.49775">
        <ele>164.19999694824</ele>
        <time>2026-06-17T12:02:17.000Z</time>
      </trkpt>
      <trkpt lat="48.54696" lon="1.49776">
        <ele>164.39999389648</ele>
        <time>2026-06-17T12:02:18.000Z</time>
      </trkpt>
      <trkpt lat="48.54723" lon="1.49779">
        <ele>165</ele>
        <time>2026-06-17T12:02:22.000Z</time>
      </trkpt>
      <trkpt lat="48.54749" lon="1.49782">
        <ele>165.39999389648</ele>
        <time>2026-06-17T12:02:26.000Z</time>
      </trkpt>
      <trkpt lat="48.54761" lon="1.49783">
        <ele>165.60000610352</ele>
        <time>2026-06-17T12:02:28.000Z</time>
      </trkpt>
      <trkpt lat="48.54788" lon="1.49791">
        <ele>165.80000305176</ele>
        <time>2026-06-17T12:02:32.000Z</time>
      </trkpt>
      <trkpt lat="48.54795" lon="1.49794">
        <ele>165.80000305176</ele>
        <time>2026-06-17T12:02:33.000Z</time>
      </trkpt>
      <trkpt lat="48.54803" lon="1.49799">
        <ele>165.80000305176</ele>
        <time>2026-06-17T12:02:34.000Z</time>
      </trkpt>
      <trkpt lat="48.54817" lon="1.49812">
        <ele>165.80000305176</ele>
        <time>2026-06-17T12:02:36.000Z</time>
      </trkpt>
      <trkpt lat="48.54833" lon="1.49835">
        <ele>165.39999389648</ele>
        <time>2026-06-17T12:02:39.000Z</time>
      </trkpt>
      <trkpt lat="48.54843" lon="1.49854">
        <ele>165.39999389648</ele>
        <time>2026-06-17T12:02:41.000Z</time>
      </trkpt>
      <trkpt lat="48.54851" lon="1.49867">
        <ele>165.19999694824</ele>
        <time>2026-06-17T12:02:43.000Z</time>
      </trkpt>
      <trkpt lat="48.54858" lon="1.49873">
        <ele>165.19999694824</ele>
        <time>2026-06-17T12:02:44.000Z</time>
      </trkpt>
      <trkpt lat="48.54869" lon="1.4989">
        <ele>165.19999694824</ele>
        <time>2026-06-17T12:02:46.000Z</time>
      </trkpt>
      <trkpt lat="48.5487" lon="1.49907">
        <ele>164.80000305176</ele>
        <time>2026-06-17T12:02:48.000Z</time>
      </trkpt>
      <trkpt lat="48.54873" lon="1.49916">
        <ele>164.60000610352</ele>
        <time>2026-06-17T12:02:49.000Z</time>
      </trkpt>
      <trkpt lat="48.54879" lon="1.49927">
        <ele>164.19999694824</ele>
        <time>2026-06-17T12:02:50.000Z</time>
      </trkpt>
      <trkpt lat="48.54895" lon="1.49953">
        <ele>164.19999694824</ele>
        <time>2026-06-17T12:02:53.000Z</time>
      </trkpt>
      <trkpt lat="48.54898" lon="1.4996">
        <ele>164</ele>
        <time>2026-06-17T12:02:54.000Z</time>
      </trkpt>
      <trkpt lat="48.54923" lon="1.49995">
        <ele>163.60000610352</ele>
        <time>2026-06-17T12:02:59.000Z</time>
      </trkpt>
      <trkpt lat="48.5493" lon="1.50009">
        <ele>163.60000610352</ele>
        <time>2026-06-17T12:03:01.000Z</time>
      </trkpt>
      <trkpt lat="48.54934" lon="1.50027">
        <ele>163.39999389648</ele>
        <time>2026-06-17T12:03:03.000Z</time>
      </trkpt>
      <trkpt lat="48.54939" lon="1.50035">
        <ele>163.19999694824</ele>
        <time>2026-06-17T12:03:04.000Z</time>
      </trkpt>
      <trkpt lat="48.54946" lon="1.50042">
        <ele>163</ele>
        <time>2026-06-17T12:03:05.000Z</time>
      </trkpt>
      <trkpt lat="48.54952" lon="1.50056">
        <ele>162.80000305176</ele>
        <time>2026-06-17T12:03:07.000Z</time>
      </trkpt>
      <trkpt lat="48.54956" lon="1.50064">
        <ele>162.80000305176</ele>
        <time>2026-06-17T12:03:08.000Z</time>
      </trkpt>
      <trkpt lat="48.54967" lon="1.50085">
        <ele>162.60000610352</ele>
        <time>2026-06-17T12:03:11.000Z</time>
      </trkpt>
      <trkpt lat="48.54977" lon="1.50102">
        <ele>162.60000610352</ele>
        <time>2026-06-17T12:03:14.000Z</time>
      </trkpt>
      <trkpt lat="48.54992" lon="1.50121">
        <ele>162.80000305176</ele>
        <time>2026-06-17T12:03:17.000Z</time>
      </trkpt>
      <trkpt lat="48.55002" lon="1.50142">
        <ele>163</ele>
        <time>2026-06-17T12:03:20.000Z</time>
      </trkpt>
      <trkpt lat="48.55008" lon="1.50163">
        <ele>163</ele>
        <time>2026-06-17T12:03:23.000Z</time>
      </trkpt>
      <trkpt lat="48.55014" lon="1.50184">
        <ele>163</ele>
        <time>2026-06-17T12:03:26.000Z</time>
      </trkpt>
      <trkpt lat="48.55036" lon="1.50222">
        <ele>162.80000305176</ele>
        <time>2026-06-17T12:03:31.000Z</time>
      </trkpt>
      <trkpt lat="48.55042" lon="1.50239">
        <ele>162.19999694824</ele>
        <time>2026-06-17T12:03:34.000Z</time>
      </trkpt>
      <trkpt lat="48.55046" lon="1.50249">
        <ele>162.19999694824</ele>
        <time>2026-06-17T12:03:36.000Z</time>
      </trkpt>
      <trkpt lat="48.5508" lon="1.50284">
        <ele>161.60000610352</ele>
        <time>2026-06-17T12:03:40.000Z</time>
      </trkpt>
      <trkpt lat="48.55092" lon="1.50293">
        <ele>161.19999694824</ele>
        <time>2026-06-17T12:03:41.000Z</time>
      </trkpt>
      <trkpt lat="48.5511" lon="1.50313">
        <ele>160.60000610352</ele>
        <time>2026-06-17T12:03:43.000Z</time>
      </trkpt>
      <trkpt lat="48.55132" lon="1.50338">
        <ele>159.60000610352</ele>
        <time>2026-06-17T12:03:46.000Z</time>
      </trkpt>
      <trkpt lat="48.55139" lon="1.50346">
        <ele>159.19999694824</ele>
        <time>2026-06-17T12:03:47.000Z</time>
      </trkpt>
      <trkpt lat="48.55154" lon="1.50361">
        <ele>158</ele>
        <time>2026-06-17T12:03:49.000Z</time>
      </trkpt>
      <trkpt lat="48.5516" lon="1.50366">
        <ele>157.80000305176</ele>
        <time>2026-06-17T12:03:50.000Z</time>
      </trkpt>
      <trkpt lat="48.5518" lon="1.50386">
        <ele>157</ele>
        <time>2026-06-17T12:03:52.000Z</time>
      </trkpt>
      <trkpt lat="48.55204" lon="1.50408">
        <ele>155.60000610352</ele>
        <time>2026-06-17T12:03:55.000Z</time>
      </trkpt>
      <trkpt lat="48.5522" lon="1.50424">
        <ele>154.60000610352</ele>
        <time>2026-06-17T12:03:57.000Z</time>
      </trkpt>
      <trkpt lat="48.55247" lon="1.50451">
        <ele>153.60000610352</ele>
        <time>2026-06-17T12:04:01.000Z</time>
      </trkpt>
      <trkpt lat="48.55254" lon="1.50456">
        <ele>153</ele>
        <time>2026-06-17T12:04:02.000Z</time>
      </trkpt>
      <trkpt lat="48.55271" lon="1.50473">
        <ele>152.60000610352</ele>
        <time>2026-06-17T12:04:05.000Z</time>
      </trkpt>
      <trkpt lat="48.55295" lon="1.50495">
        <ele>152.19999694824</ele>
        <time>2026-06-17T12:04:09.000Z</time>
      </trkpt>
      <trkpt lat="48.55346" lon="1.50543">
        <ele>152</ele>
        <time>2026-06-17T12:04:17.000Z</time>
      </trkpt>
      <trkpt lat="48.55388" lon="1.50578">
        <ele>151.60000610352</ele>
        <time>2026-06-17T12:04:23.000Z</time>
      </trkpt>
      <trkpt lat="48.55396" lon="1.50585">
        <ele>151.39999389648</ele>
        <time>2026-06-17T12:04:24.000Z</time>
      </trkpt>
      <trkpt lat="48.55405" lon="1.50592">
        <ele>151.39999389648</ele>
        <time>2026-06-17T12:04:25.000Z</time>
      </trkpt>
      <trkpt lat="48.55422" lon="1.5061">
        <ele>151</ele>
        <time>2026-06-17T12:04:27.000Z</time>
      </trkpt>
      <trkpt lat="48.5543" lon="1.5062">
        <ele>150.39999389648</ele>
        <time>2026-06-17T12:04:28.000Z</time>
      </trkpt>
      <trkpt lat="48.55453" lon="1.50655">
        <ele>149.19999694824</ele>
        <time>2026-06-17T12:04:31.000Z</time>
      </trkpt>
      <trkpt lat="48.55474" lon="1.50694">
        <ele>148.19999694824</ele>
        <time>2026-06-17T12:04:34.000Z</time>
      </trkpt>
      <trkpt lat="48.555" lon="1.50744">
        <ele>147</ele>
        <time>2026-06-17T12:04:38.000Z</time>
      </trkpt>
      <trkpt lat="48.55506" lon="1.50756">
        <ele>147</ele>
        <time>2026-06-17T12:04:39.000Z</time>
      </trkpt>
      <trkpt lat="48.55518" lon="1.5078">
        <ele>146</ele>
        <time>2026-06-17T12:04:41.000Z</time>
      </trkpt>
      <trkpt lat="48.55531" lon="1.50802">
        <ele>144.80000305176</ele>
        <time>2026-06-17T12:04:43.000Z</time>
      </trkpt>
      <trkpt lat="48.55539" lon="1.50812">
        <ele>144.39999389648</ele>
        <time>2026-06-17T12:04:44.000Z</time>
      </trkpt>
      <trkpt lat="48.55575" lon="1.50843">
        <ele>143.80000305176</ele>
        <time>2026-06-17T12:04:48.000Z</time>
      </trkpt>
      <trkpt lat="48.55585" lon="1.50849">
        <ele>143.80000305176</ele>
        <time>2026-06-17T12:04:49.000Z</time>
      </trkpt>
      <trkpt lat="48.55614" lon="1.50871">
        <ele>142.60000610352</ele>
        <time>2026-06-17T12:04:52.000Z</time>
      </trkpt>
      <trkpt lat="48.55631" lon="1.50887">
        <ele>142</ele>
        <time>2026-06-17T12:04:54.000Z</time>
      </trkpt>
      <trkpt lat="48.55646" lon="1.50905">
        <ele>141.19999694824</ele>
        <time>2026-06-17T12:04:56.000Z</time>
      </trkpt>
      <trkpt lat="48.55665" lon="1.50932">
        <ele>140.19999694824</ele>
        <time>2026-06-17T12:04:59.000Z</time>
      </trkpt>
      <trkpt lat="48.55677" lon="1.50948">
        <ele>140</ele>
        <time>2026-06-17T12:05:01.000Z</time>
      </trkpt>
      <trkpt lat="48.55695" lon="1.50972">
        <ele>140</ele>
        <time>2026-06-17T12:05:04.000Z</time>
      </trkpt>
      <trkpt lat="48.55701" lon="1.50978">
        <ele>140</ele>
        <time>2026-06-17T12:05:05.000Z</time>
      </trkpt>
      <trkpt lat="48.55729" lon="1.50992">
        <ele>141</ele>
        <time>2026-06-17T12:05:09.000Z</time>
      </trkpt>
      <trkpt lat="48.55735" lon="1.50994">
        <ele>141.39999389648</ele>
        <time>2026-06-17T12:05:10.000Z</time>
      </trkpt>
      <trkpt lat="48.55742" lon="1.50994">
        <ele>141.80000305176</ele>
        <time>2026-06-17T12:05:11.000Z</time>
      </trkpt>
      <trkpt lat="48.55749" lon="1.50994">
        <ele>142.19999694824</ele>
        <time>2026-06-17T12:05:12.000Z</time>
      </trkpt>
      <trkpt lat="48.55765" lon="1.50994">
        <ele>142.80000305176</ele>
        <time>2026-06-17T12:05:14.000Z</time>
      </trkpt>
      <trkpt lat="48.55772" lon="1.50995">
        <ele>143.60000610352</ele>
        <time>2026-06-17T12:05:15.000Z</time>
      </trkpt>
      <trkpt lat="48.55796" lon="1.50995">
        <ele>144.39999389648</ele>
        <time>2026-06-17T12:05:18.000Z</time>
      </trkpt>
      <trkpt lat="48.55803" lon="1.50994">
        <ele>144.60000610352</ele>
        <time>2026-06-17T12:05:19.000Z</time>
      </trkpt>
      <trkpt lat="48.55857" lon="1.50993">
        <ele>145.39999389648</ele>
        <time>2026-06-17T12:05:26.000Z</time>
      </trkpt>
      <trkpt lat="48.55908" lon="1.50996">
        <ele>145</ele>
        <time>2026-06-17T12:05:32.000Z</time>
      </trkpt>
      <trkpt lat="48.55954" lon="1.50999">
        <ele>143.39999389648</ele>
        <time>2026-06-17T12:05:37.000Z</time>
      </trkpt>
      <trkpt lat="48.55972" lon="1.51">
        <ele>142.39999389648</ele>
        <time>2026-06-17T12:05:40.000Z</time>
      </trkpt>
      <trkpt lat="48.55988" lon="1.50999">
        <ele>142</ele>
        <time>2026-06-17T12:05:41.000Z</time>
      </trkpt>
      <trkpt lat="48.56027" lon="1.50995">
        <ele>140.60000610352</ele>
        <time>2026-06-17T12:05:45.000Z</time>
      </trkpt>
      <trkpt lat="48.56045" lon="1.50992">
        <ele>139.80000305176</ele>
        <time>2026-06-17T12:05:47.000Z</time>
      </trkpt>
      <trkpt lat="48.56054" lon="1.5099">
        <ele>139</ele>
        <time>2026-06-17T12:05:48.000Z</time>
      </trkpt>
      <trkpt lat="48.56071" lon="1.50987">
        <ele>137.80000305176</ele>
        <time>2026-06-17T12:05:50.000Z</time>
      </trkpt>
      <trkpt lat="48.56096" lon="1.50982">
        <ele>137.19999694824</ele>
        <time>2026-06-17T12:05:53.000Z</time>
      </trkpt>
      <trkpt lat="48.56111" lon="1.5098">
        <ele>136.60000610352</ele>
        <time>2026-06-17T12:05:55.000Z</time>
      </trkpt>
      <trkpt lat="48.56124" lon="1.50986">
        <ele>136.39999389648</ele>
        <time>2026-06-17T12:05:57.000Z</time>
      </trkpt>
      <trkpt lat="48.56134" lon="1.50999">
        <ele>136.39999389648</ele>
        <time>2026-06-17T12:05:59.000Z</time>
      </trkpt>
      <trkpt lat="48.56137" lon="1.51007">
        <ele>136.19999694824</ele>
        <time>2026-06-17T12:06:00.000Z</time>
      </trkpt>
      <trkpt lat="48.56138" lon="1.51015">
        <ele>136.19999694824</ele>
        <time>2026-06-17T12:06:01.000Z</time>
      </trkpt>
      <trkpt lat="48.56135" lon="1.51023">
        <ele>136</ele>
        <time>2026-06-17T12:06:02.000Z</time>
      </trkpt>
      <trkpt lat="48.56131" lon="1.51029">
        <ele>136</ele>
        <time>2026-06-17T12:06:03.000Z</time>
      </trkpt>
      <trkpt lat="48.56122" lon="1.5104">
        <ele>136</ele>
        <time>2026-06-17T12:06:05.000Z</time>
      </trkpt>
      <trkpt lat="48.56105" lon="1.51061">
        <ele>135.60000610352</ele>
        <time>2026-06-17T12:06:09.000Z</time>
      </trkpt>
      <trkpt lat="48.56098" lon="1.51072">
        <ele>135.39999389648</ele>
        <time>2026-06-17T12:06:11.000Z</time>
      </trkpt>
      <trkpt lat="48.56095" lon="1.51086">
        <ele>135.19999694824</ele>
        <time>2026-06-17T12:06:13.000Z</time>
      </trkpt>
      <trkpt lat="48.56094" lon="1.51093">
        <ele>135.19999694824</ele>
        <time>2026-06-17T12:06:14.000Z</time>
      </trkpt>
      <trkpt lat="48.56096" lon="1.51099">
        <ele>135.19999694824</ele>
        <time>2026-06-17T12:06:15.000Z</time>
      </trkpt>
      <trkpt lat="48.561" lon="1.5111">
        <ele>135</ele>
        <time>2026-06-17T12:06:17.000Z</time>
      </trkpt>
      <trkpt lat="48.56113" lon="1.5113">
        <ele>134.80000305176</ele>
        <time>2026-06-17T12:06:22.000Z</time>
      </trkpt>
      <trkpt lat="48.56127" lon="1.51158">
        <ele>135.39999389648</ele>
        <time>2026-06-17T12:06:30.000Z</time>
      </trkpt>
      <trkpt lat="48.56139" lon="1.51183">
        <ele>137</ele>
        <time>2026-06-17T12:06:37.000Z</time>
      </trkpt>
      <trkpt lat="48.56146" lon="1.512">
        <ele>138</ele>
        <time>2026-06-17T12:06:41.000Z</time>
      </trkpt>
      <trkpt lat="48.5615" lon="1.51209">
        <ele>138.19999694824</ele>
        <time>2026-06-17T12:06:43.000Z</time>
      </trkpt>
      <trkpt lat="48.56161" lon="1.51228">
        <ele>139</ele>
        <time>2026-06-17T12:06:48.000Z</time>
      </trkpt>
      <trkpt lat="48.56167" lon="1.51236">
        <ele>139.60000610352</ele>
        <time>2026-06-17T12:06:50.000Z</time>
      </trkpt>
      <trkpt lat="48.56174" lon="1.51246">
        <ele>140.19999694824</ele>
        <time>2026-06-17T12:06:53.000Z</time>
      </trkpt>
      <trkpt lat="48.56181" lon="1.51256">
        <ele>140.80000305176</ele>
        <time>2026-06-17T12:06:56.000Z</time>
      </trkpt>
      <trkpt lat="48.56198" lon="1.51275">
        <ele>141.39999389648</ele>
        <time>2026-06-17T12:07:02.000Z</time>
      </trkpt>
      <trkpt lat="48.56204" lon="1.5128">
        <ele>141.60000610352</ele>
        <time>2026-06-17T12:07:04.000Z</time>
      </trkpt>
      <trkpt lat="48.56221" lon="1.51297">
        <ele>142.39999389648</ele>
        <time>2026-06-17T12:07:10.000Z</time>
      </trkpt>
      <trkpt lat="48.56226" lon="1.51302">
        <ele>142.60000610352</ele>
        <time>2026-06-17T12:07:12.000Z</time>
      </trkpt>
      <trkpt lat="48.56242" lon="1.51316">
        <ele>143.19999694824</ele>
        <time>2026-06-17T12:07:18.000Z</time>
      </trkpt>
      <trkpt lat="48.56244" lon="1.51318">
        <ele>143.39999389648</ele>
        <time>2026-06-17T12:07:19.000Z</time>
      </trkpt>
      <trkpt lat="48.56257" lon="1.51331">
        <ele>144.39999389648</ele>
        <time>2026-06-17T12:07:24.000Z</time>
      </trkpt>
      <trkpt lat="48.56262" lon="1.51334">
        <ele>144.80000305176</ele>
        <time>2026-06-17T12:07:26.000Z</time>
      </trkpt>
      <trkpt lat="48.56281" lon="1.51348">
        <ele>145.60000610352</ele>
        <time>2026-06-17T12:07:33.000Z</time>
      </trkpt>
      <trkpt lat="48.56292" lon="1.51356">
        <ele>146.19999694824</ele>
        <time>2026-06-17T12:07:37.000Z</time>
      </trkpt>
      <trkpt lat="48.563" lon="1.51361">
        <ele>146.80000305176</ele>
        <time>2026-06-17T12:07:40.000Z</time>
      </trkpt>
      <trkpt lat="48.56318" lon="1.51376">
        <ele>147.60000610352</ele>
        <time>2026-06-17T12:07:47.000Z</time>
      </trkpt>
      <trkpt lat="48.5632" lon="1.51377">
        <ele>147.80000305176</ele>
        <time>2026-06-17T12:07:48.000Z</time>
      </trkpt>
      <trkpt lat="48.5633" lon="1.51378">
        <ele>148.39999389648</ele>
        <time>2026-06-17T12:07:52.000Z</time>
      </trkpt>
      <trkpt lat="48.56333" lon="1.51373">
        <ele>148.60000610352</ele>
        <time>2026-06-17T12:07:53.000Z</time>
      </trkpt>
      <trkpt lat="48.56334" lon="1.51369">
        <ele>148.80000305176</ele>
        <time>2026-06-17T12:07:54.000Z</time>
      </trkpt>
      <trkpt lat="48.56339" lon="1.51355">
        <ele>149</ele>
        <time>2026-06-17T12:07:57.000Z</time>
      </trkpt>
      <trkpt lat="48.56344" lon="1.51349">
        <ele>149.19999694824</ele>
        <time>2026-06-17T12:07:59.000Z</time>
      </trkpt>
      <trkpt lat="48.56348" lon="1.51349">
        <ele>149.19999694824</ele>
        <time>2026-06-17T12:08:00.000Z</time>
      </trkpt>
      <trkpt lat="48.5635" lon="1.51352">
        <ele>149.19999694824</ele>
        <time>2026-06-17T12:08:01.000Z</time>
      </trkpt>
      <trkpt lat="48.56354" lon="1.51361">
        <ele>149.19999694824</ele>
        <time>2026-06-17T12:08:03.000Z</time>
      </trkpt>
      <trkpt lat="48.56364" lon="1.51402">
        <ele>150</ele>
        <time>2026-06-17T12:08:11.000Z</time>
      </trkpt>
      <trkpt lat="48.56367" lon="1.51413">
        <ele>150.19999694824</ele>
        <time>2026-06-17T12:08:13.000Z</time>
      </trkpt>
      <trkpt lat="48.56375" lon="1.51443">
        <ele>150.80000305176</ele>
        <time>2026-06-17T12:08:19.000Z</time>
      </trkpt>
      <trkpt lat="48.56377" lon="1.51449">
        <ele>151</ele>
        <time>2026-06-17T12:08:20.000Z</time>
      </trkpt>
      <trkpt lat="48.56382" lon="1.51484">
        <ele>151.19999694824</ele>
        <time>2026-06-17T12:08:26.000Z</time>
      </trkpt>
      <trkpt lat="48.56385" lon="1.51523">
        <ele>151.60000610352</ele>
        <time>2026-06-17T12:08:33.000Z</time>
      </trkpt>
      <trkpt lat="48.5639" lon="1.51576">
        <ele>151.80000305176</ele>
        <time>2026-06-17T12:08:42.000Z</time>
      </trkpt>
      <trkpt lat="48.56392" lon="1.51595">
        <ele>152</ele>
        <time>2026-06-17T12:08:45.000Z</time>
      </trkpt>
      <trkpt lat="48.56397" lon="1.51621">
        <ele>152.19999694824</ele>
        <time>2026-06-17T12:08:49.000Z</time>
      </trkpt>
      <trkpt lat="48.564" lon="1.51646">
        <ele>152.39999389648</ele>
        <time>2026-06-17T12:08:53.000Z</time>
      </trkpt>
      <trkpt lat="48.56402" lon="1.51656">
        <ele>152.39999389648</ele>
        <time>2026-06-17T12:08:55.000Z</time>
      </trkpt>
      <trkpt lat="48.56403" lon="1.51659">
        <ele>152.60000610352</ele>
        <time>2026-06-17T12:08:59.000Z</time>
      </trkpt>
      <trkpt lat="48.56403" lon="1.51659">
        <ele>153</ele>
        <time>2026-06-17T12:09:10.000Z</time>
      </trkpt>
      <trkpt lat="48.56403" lon="1.51659">
        <ele>153</ele>
        <time>2026-06-17T12:09:12.000Z</time>
      </trkpt>
      <trkpt lat="48.56403" lon="1.51659">
        <ele>153</ele>
        <time>2026-06-17T12:09:14.000Z</time>
      </trkpt>
      <trkpt lat="48.56405" lon="1.51666">
        <ele>153.80000305176</ele>
        <time>2026-06-17T12:10:28.000Z</time>
      </trkpt>
      <trkpt lat="48.56409" lon="1.5169">
        <ele>153.80000305176</ele>
        <time>2026-06-17T12:10:33.000Z</time>
      </trkpt>
      <trkpt lat="48.56419" lon="1.5173">
        <ele>153.39999389648</ele>
        <time>2026-06-17T12:10:40.000Z</time>
      </trkpt>
      <trkpt lat="48.56432" lon="1.51785">
        <ele>153</ele>
        <time>2026-06-17T12:10:48.000Z</time>
      </trkpt>
      <trkpt lat="48.5645" lon="1.5186">
        <ele>152.80000305176</ele>
        <time>2026-06-17T12:10:58.000Z</time>
      </trkpt>
      <trkpt lat="48.56464" lon="1.51931">
        <ele>152.60000610352</ele>
        <time>2026-06-17T12:11:07.000Z</time>
      </trkpt>
      <trkpt lat="48.56468" lon="1.51956">
        <ele>152.19999694824</ele>
        <time>2026-06-17T12:11:10.000Z</time>
      </trkpt>
      <trkpt lat="48.56477" lon="1.52027">
        <ele>151.60000610352</ele>
        <time>2026-06-17T12:11:18.000Z</time>
      </trkpt>
      <trkpt lat="48.56481" lon="1.52066">
        <ele>151.39999389648</ele>
        <time>2026-06-17T12:11:22.000Z</time>
      </trkpt>
      <trkpt lat="48.56485" lon="1.52104">
        <ele>151</ele>
        <time>2026-06-17T12:11:26.000Z</time>
      </trkpt>
      <trkpt lat="48.56491" lon="1.5216">
        <ele>150.39999389648</ele>
        <time>2026-06-17T12:11:32.000Z</time>
      </trkpt>
      <trkpt lat="48.56496" lon="1.52196">
        <ele>150.19999694824</ele>
        <time>2026-06-17T12:11:36.000Z</time>
      </trkpt>
      <trkpt lat="48.5651" lon="1.52279">
        <ele>150</ele>
        <time>2026-06-17T12:11:45.000Z</time>
      </trkpt>
      <trkpt lat="48.56515" lon="1.52306">
        <ele>150.19999694824</ele>
        <time>2026-06-17T12:11:48.000Z</time>
      </trkpt>
      <trkpt lat="48.5653" lon="1.52387">
        <ele>150.39999389648</ele>
        <time>2026-06-17T12:11:57.000Z</time>
      </trkpt>
      <trkpt lat="48.56534" lon="1.52405">
        <ele>150.60000610352</ele>
        <time>2026-06-17T12:11:59.000Z</time>
      </trkpt>
      <trkpt lat="48.56551" lon="1.52473">
        <ele>150.60000610352</ele>
        <time>2026-06-17T12:12:07.000Z</time>
      </trkpt>
      <trkpt lat="48.56578" lon="1.52546">
        <ele>150.80000305176</ele>
        <time>2026-06-17T12:12:16.000Z</time>
      </trkpt>
      <trkpt lat="48.56583" lon="1.52561">
        <ele>150.80000305176</ele>
        <time>2026-06-17T12:12:18.000Z</time>
      </trkpt>
      <trkpt lat="48.56606" lon="1.52629">
        <ele>151</ele>
        <time>2026-06-17T12:12:26.000Z</time>
      </trkpt>
      <trkpt lat="48.56612" lon="1.52653">
        <ele>151.39999389648</ele>
        <time>2026-06-17T12:12:29.000Z</time>
      </trkpt>
      <trkpt lat="48.56623" lon="1.52706">
        <ele>151.80000305176</ele>
        <time>2026-06-17T12:12:35.000Z</time>
      </trkpt>
      <trkpt lat="48.56632" lon="1.52759">
        <ele>152.39999389648</ele>
        <time>2026-06-17T12:12:42.000Z</time>
      </trkpt>
      <trkpt lat="48.56637" lon="1.52793">
        <ele>152.80000305176</ele>
        <time>2026-06-17T12:12:45.000Z</time>
      </trkpt>
      <trkpt lat="48.56641" lon="1.52816">
        <ele>153</ele>
        <time>2026-06-17T12:12:48.000Z</time>
      </trkpt>
      <trkpt lat="48.56646" lon="1.52858">
        <ele>153.19999694824</ele>
        <time>2026-06-17T12:12:53.000Z</time>
      </trkpt>
      <trkpt lat="48.56656" lon="1.52933">
        <ele>153.60000610352</ele>
        <time>2026-06-17T12:13:02.000Z</time>
      </trkpt>
      <trkpt lat="48.56657" lon="1.52939">
        <ele>153.80000305176</ele>
        <time>2026-06-17T12:13:03.000Z</time>
      </trkpt>
      <trkpt lat="48.56664" lon="1.52989">
        <ele>154.60000610352</ele>
        <time>2026-06-17T12:13:09.000Z</time>
      </trkpt>
      <trkpt lat="48.56668" lon="1.53033">
        <ele>154.80000305176</ele>
        <time>2026-06-17T12:13:14.000Z</time>
      </trkpt>
      <trkpt lat="48.56675" lon="1.5312">
        <ele>155</ele>
        <time>2026-06-17T12:13:24.000Z</time>
      </trkpt>
      <trkpt lat="48.56675" lon="1.53128">
        <ele>155</ele>
        <time>2026-06-17T12:13:25.000Z</time>
      </trkpt>
      <trkpt lat="48.56677" lon="1.53214">
        <ele>155.80000305176</ele>
        <time>2026-06-17T12:13:34.000Z</time>
      </trkpt>
      <trkpt lat="48.56677" lon="1.53232">
        <ele>156</ele>
        <time>2026-06-17T12:13:36.000Z</time>
      </trkpt>
      <trkpt lat="48.56678" lon="1.53297">
        <ele>156.19999694824</ele>
        <time>2026-06-17T12:13:43.000Z</time>
      </trkpt>
      <trkpt lat="48.56682" lon="1.53391">
        <ele>156.60000610352</ele>
        <time>2026-06-17T12:13:53.000Z</time>
      </trkpt>
      <trkpt lat="48.56683" lon="1.53409">
        <ele>156.80000305176</ele>
        <time>2026-06-17T12:13:55.000Z</time>
      </trkpt>
      <trkpt lat="48.56688" lon="1.53494">
        <ele>157</ele>
        <time>2026-06-17T12:14:04.000Z</time>
      </trkpt>
      <trkpt lat="48.56689" lon="1.5351">
        <ele>157</ele>
        <time>2026-06-17T12:14:06.000Z</time>
      </trkpt>
      <trkpt lat="48.56694" lon="1.53593">
        <ele>157</ele>
        <time>2026-06-17T12:14:15.000Z</time>
      </trkpt>
      <trkpt lat="48.56696" lon="1.53612">
        <ele>157</ele>
        <time>2026-06-17T12:14:17.000Z</time>
      </trkpt>
      <trkpt lat="48.567" lon="1.53693">
        <ele>157.60000610352</ele>
        <time>2026-06-17T12:14:26.000Z</time>
      </trkpt>
      <trkpt lat="48.56701" lon="1.53766">
        <ele>158</ele>
        <time>2026-06-17T12:14:34.000Z</time>
      </trkpt>
      <trkpt lat="48.56701" lon="1.53775">
        <ele>158</ele>
        <time>2026-06-17T12:14:35.000Z</time>
      </trkpt>
      <trkpt lat="48.56695" lon="1.53837">
        <ele>158.60000610352</ele>
        <time>2026-06-17T12:14:42.000Z</time>
      </trkpt>
      <trkpt lat="48.56694" lon="1.53845">
        <ele>158.60000610352</ele>
        <time>2026-06-17T12:14:43.000Z</time>
      </trkpt>
      <trkpt lat="48.56686" lon="1.53905">
        <ele>159.19999694824</ele>
        <time>2026-06-17T12:14:50.000Z</time>
      </trkpt>
      <trkpt lat="48.56684" lon="1.5392">
        <ele>159.60000610352</ele>
        <time>2026-06-17T12:14:52.000Z</time>
      </trkpt>
      <trkpt lat="48.56679" lon="1.53964">
        <ele>160.39999389648</ele>
        <time>2026-06-17T12:14:57.000Z</time>
      </trkpt>
      <trkpt lat="48.56678" lon="1.54">
        <ele>160.60000610352</ele>
        <time>2026-06-17T12:15:01.000Z</time>
      </trkpt>
      <trkpt lat="48.56681" lon="1.54058">
        <ele>161.39999389648</ele>
        <time>2026-06-17T12:15:07.000Z</time>
      </trkpt>
      <trkpt lat="48.56684" lon="1.54085">
        <ele>161.39999389648</ele>
        <time>2026-06-17T12:15:10.000Z</time>
      </trkpt>
      <trkpt lat="48.56699" lon="1.54161">
        <ele>161.80000305176</ele>
        <time>2026-06-17T12:15:18.000Z</time>
      </trkpt>
      <trkpt lat="48.56723" lon="1.54235">
        <ele>161.80000305176</ele>
        <time>2026-06-17T12:15:26.000Z</time>
      </trkpt>
      <trkpt lat="48.56726" lon="1.54245">
        <ele>161.80000305176</ele>
        <time>2026-06-17T12:15:27.000Z</time>
      </trkpt>
      <trkpt lat="48.56752" lon="1.54317">
        <ele>160.39999389648</ele>
        <time>2026-06-17T12:15:34.000Z</time>
      </trkpt>
      <trkpt lat="48.56756" lon="1.54328">
        <ele>160.39999389648</ele>
        <time>2026-06-17T12:15:35.000Z</time>
      </trkpt>
      <trkpt lat="48.56782" lon="1.54401">
        <ele>159.39999389648</ele>
        <time>2026-06-17T12:15:42.000Z</time>
      </trkpt>
      <trkpt lat="48.56786" lon="1.54411">
        <ele>159.19999694824</ele>
        <time>2026-06-17T12:15:43.000Z</time>
      </trkpt>
      <trkpt lat="48.56794" lon="1.54433">
        <ele>159</ele>
        <time>2026-06-17T12:15:45.000Z</time>
      </trkpt>
      <trkpt lat="48.56806" lon="1.54465">
        <ele>158.19999694824</ele>
        <time>2026-06-17T12:15:48.000Z</time>
      </trkpt>
      <trkpt lat="48.56835" lon="1.54542">
        <ele>157</ele>
        <time>2026-06-17T12:15:55.000Z</time>
      </trkpt>
      <trkpt lat="48.56844" lon="1.54564">
        <ele>156.80000305176</ele>
        <time>2026-06-17T12:15:57.000Z</time>
      </trkpt>
      <trkpt lat="48.5688" lon="1.54623">
        <ele>156.19999694824</ele>
        <time>2026-06-17T12:16:03.000Z</time>
      </trkpt>
      <trkpt lat="48.56894" lon="1.54644">
        <ele>155.80000305176</ele>
        <time>2026-06-17T12:16:05.000Z</time>
      </trkpt>
      <trkpt lat="48.5693" lon="1.54705">
        <ele>154.80000305176</ele>
        <time>2026-06-17T12:16:11.000Z</time>
      </trkpt>
      <trkpt lat="48.56934" lon="1.54714">
        <ele>154.80000305176</ele>
        <time>2026-06-17T12:16:12.000Z</time>
      </trkpt>
      <trkpt lat="48.56966" lon="1.54782">
        <ele>153.60000610352</ele>
        <time>2026-06-17T12:16:18.000Z</time>
      </trkpt>
      <trkpt lat="48.56993" lon="1.54841">
        <ele>152.60000610352</ele>
        <time>2026-06-17T12:16:23.000Z</time>
      </trkpt>
      <trkpt lat="48.56998" lon="1.54852">
        <ele>152.60000610352</ele>
        <time>2026-06-17T12:16:24.000Z</time>
      </trkpt>
      <trkpt lat="48.57024" lon="1.54906">
        <ele>151.39999389648</ele>
        <time>2026-06-17T12:16:29.000Z</time>
      </trkpt>
      <trkpt lat="48.57046" lon="1.54947">
        <ele>151</ele>
        <time>2026-06-17T12:16:33.000Z</time>
      </trkpt>
      <trkpt lat="48.57083" lon="1.55015">
        <ele>150.39999389648</ele>
        <time>2026-06-17T12:16:40.000Z</time>
      </trkpt>
      <trkpt lat="48.57088" lon="1.55024">
        <ele>150.39999389648</ele>
        <time>2026-06-17T12:16:41.000Z</time>
      </trkpt>
      <trkpt lat="48.57088" lon="1.55024">
        <ele>150.39999389648</ele>
        <time>2026-06-17T12:16:42.000Z</time>
      </trkpt>
      <trkpt lat="48.57129" lon="1.55087">
        <ele>149.19999694824</ele>
        <time>2026-06-17T12:16:48.000Z</time>
      </trkpt>
      <trkpt lat="48.57142" lon="1.55106">
        <ele>149.19999694824</ele>
        <time>2026-06-17T12:16:50.000Z</time>
      </trkpt>
      <trkpt lat="48.57185" lon="1.55168">
        <ele>148.80000305176</ele>
        <time>2026-06-17T12:16:57.000Z</time>
      </trkpt>
      <trkpt lat="48.5721" lon="1.55204">
        <ele>148.39999389648</ele>
        <time>2026-06-17T12:17:01.000Z</time>
      </trkpt>
      <trkpt lat="48.57216" lon="1.55213">
        <ele>148</ele>
        <time>2026-06-17T12:17:02.000Z</time>
      </trkpt>
      <trkpt lat="48.57256" lon="1.55276">
        <ele>147.19999694824</ele>
        <time>2026-06-17T12:17:09.000Z</time>
      </trkpt>
      <trkpt lat="48.57262" lon="1.55284">
        <ele>147.19999694824</ele>
        <time>2026-06-17T12:17:10.000Z</time>
      </trkpt>
      <trkpt lat="48.57267" lon="1.55293">
        <ele>147</ele>
        <time>2026-06-17T12:17:11.000Z</time>
      </trkpt>
      <trkpt lat="48.57306" lon="1.55354">
        <ele>146.19999694824</ele>
        <time>2026-06-17T12:17:18.000Z</time>
      </trkpt>
      <trkpt lat="48.57318" lon="1.55372">
        <ele>146</ele>
        <time>2026-06-17T12:17:20.000Z</time>
      </trkpt>
      <trkpt lat="48.57326" lon="1.55382">
        <ele>146.19999694824</ele>
        <time>2026-06-17T12:17:21.000Z</time>
      </trkpt>
      <trkpt lat="48.57364" lon="1.55427">
        <ele>146</ele>
        <time>2026-06-17T12:17:27.000Z</time>
      </trkpt>
      <trkpt lat="48.57409" lon="1.5547">
        <ele>145.80000305176</ele>
        <time>2026-06-17T12:17:34.000Z</time>
      </trkpt>
      <trkpt lat="48.57443" lon="1.55516">
        <ele>145.39999389648</ele>
        <time>2026-06-17T12:17:40.000Z</time>
      </trkpt>
      <trkpt lat="48.57462" lon="1.55556">
        <ele>145.19999694824</ele>
        <time>2026-06-17T12:17:44.000Z</time>
      </trkpt>
      <trkpt lat="48.57469" lon="1.55576">
        <ele>145</ele>
        <time>2026-06-17T12:17:46.000Z</time>
      </trkpt>
      <trkpt lat="48.57481" lon="1.55634">
        <ele>144.60000610352</ele>
        <time>2026-06-17T12:17:51.000Z</time>
      </trkpt>
      <trkpt lat="48.57487" lon="1.55694">
        <ele>144</ele>
        <time>2026-06-17T12:17:56.000Z</time>
      </trkpt>
      <trkpt lat="48.57495" lon="1.5575">
        <ele>143.60000610352</ele>
        <time>2026-06-17T12:18:01.000Z</time>
      </trkpt>
      <trkpt lat="48.57514" lon="1.55832">
        <ele>143</ele>
        <time>2026-06-17T12:18:08.000Z</time>
      </trkpt>
      <trkpt lat="48.57526" lon="1.55869">
        <ele>143</ele>
        <time>2026-06-17T12:18:12.000Z</time>
      </trkpt>
      <trkpt lat="48.57554" lon="1.55949">
        <ele>142.39999389648</ele>
        <time>2026-06-17T12:18:19.000Z</time>
      </trkpt>
      <trkpt lat="48.57585" lon="1.56021">
        <ele>141.80000305176</ele>
        <time>2026-06-17T12:18:26.000Z</time>
      </trkpt>
      <trkpt lat="48.5759" lon="1.56031">
        <ele>141.60000610352</ele>
        <time>2026-06-17T12:18:27.000Z</time>
      </trkpt>
      <trkpt lat="48.57627" lon="1.56082">
        <ele>141.19999694824</ele>
        <time>2026-06-17T12:18:33.000Z</time>
      </trkpt>
      <trkpt lat="48.57669" lon="1.56127">
        <ele>141</ele>
        <time>2026-06-17T12:18:39.000Z</time>
      </trkpt>
      <trkpt lat="48.57695" lon="1.56157">
        <ele>140.39999389648</ele>
        <time>2026-06-17T12:18:43.000Z</time>
      </trkpt>
      <trkpt lat="48.57731" lon="1.5621">
        <ele>140.19999694824</ele>
        <time>2026-06-17T12:18:49.000Z</time>
      </trkpt>
      <trkpt lat="48.57767" lon="1.56282">
        <ele>140</ele>
        <time>2026-06-17T12:18:57.000Z</time>
      </trkpt>
      <trkpt lat="48.57776" lon="1.563">
        <ele>139.80000305176</ele>
        <time>2026-06-17T12:18:59.000Z</time>
      </trkpt>
      <trkpt lat="48.57797" lon="1.56343">
        <ele>139.80000305176</ele>
        <time>2026-06-17T12:19:04.000Z</time>
      </trkpt>
      <trkpt lat="48.57833" lon="1.56418">
        <ele>140</ele>
        <time>2026-06-17T12:19:13.000Z</time>
      </trkpt>
      <trkpt lat="48.57863" lon="1.56486">
        <ele>140.80000305176</ele>
        <time>2026-06-17T12:19:21.000Z</time>
      </trkpt>
      <trkpt lat="48.57867" lon="1.56494">
        <ele>140.80000305176</ele>
        <time>2026-06-17T12:19:22.000Z</time>
      </trkpt>
      <trkpt lat="48.57871" lon="1.56503">
        <ele>141</ele>
        <time>2026-06-17T12:19:23.000Z</time>
      </trkpt>
      <trkpt lat="48.57894" lon="1.56562">
        <ele>141.39999389648</ele>
        <time>2026-06-17T12:19:30.000Z</time>
      </trkpt>
      <trkpt lat="48.57916" lon="1.56622">
        <ele>142</ele>
        <time>2026-06-17T12:19:37.000Z</time>
      </trkpt>
      <trkpt lat="48.57923" lon="1.56639">
        <ele>142.19999694824</ele>
        <time>2026-06-17T12:19:39.000Z</time>
      </trkpt>
      <trkpt lat="48.57938" lon="1.56674">
        <ele>142</ele>
        <time>2026-06-17T12:19:43.000Z</time>
      </trkpt>
      <trkpt lat="48.57947" lon="1.56691">
        <ele>141.80000305176</ele>
        <time>2026-06-17T12:19:45.000Z</time>
      </trkpt>
      <trkpt lat="48.57982" lon="1.56742">
        <ele>141.39999389648</ele>
        <time>2026-06-17T12:19:52.000Z</time>
      </trkpt>
      <trkpt lat="48.58005" lon="1.56778">
        <ele>141</ele>
        <time>2026-06-17T12:19:57.000Z</time>
      </trkpt>
      <trkpt lat="48.58009" lon="1.56783">
        <ele>140.80000305176</ele>
        <time>2026-06-17T12:19:58.000Z</time>
      </trkpt>
      <trkpt lat="48.58046" lon="1.56842">
        <ele>139.80000305176</ele>
        <time>2026-06-17T12:20:06.000Z</time>
      </trkpt>
      <trkpt lat="48.58055" lon="1.56858">
        <ele>139.39999389648</ele>
        <time>2026-06-17T12:20:08.000Z</time>
      </trkpt>
      <trkpt lat="48.58077" lon="1.56901">
        <ele>138.60000610352</ele>
        <time>2026-06-17T12:20:13.000Z</time>
      </trkpt>
      <trkpt lat="48.58087" lon="1.56923">
        <ele>137.80000305176</ele>
        <time>2026-06-17T12:20:16.000Z</time>
      </trkpt>
      <trkpt lat="48.58087" lon="1.56939">
        <ele>137.39999389648</ele>
        <time>2026-06-17T12:20:18.000Z</time>
      </trkpt>
      <trkpt lat="48.58085" lon="1.56946">
        <ele>137.19999694824</ele>
        <time>2026-06-17T12:20:19.000Z</time>
      </trkpt>
      <trkpt lat="48.58083" lon="1.56952">
        <ele>137</ele>
        <time>2026-06-17T12:20:20.000Z</time>
      </trkpt>
      <trkpt lat="48.58077" lon="1.56964">
        <ele>136.60000610352</ele>
        <time>2026-06-17T12:20:22.000Z</time>
      </trkpt>
      <trkpt lat="48.58072" lon="1.56969">
        <ele>136.19999694824</ele>
        <time>2026-06-17T12:20:23.000Z</time>
      </trkpt>
      <trkpt lat="48.58047" lon="1.56996">
        <ele>135.19999694824</ele>
        <time>2026-06-17T12:20:28.000Z</time>
      </trkpt>
      <trkpt lat="48.58043" lon="1.57001">
        <ele>135.19999694824</ele>
        <time>2026-06-17T12:20:29.000Z</time>
      </trkpt>
      <trkpt lat="48.58028" lon="1.57018">
        <ele>134.19999694824</ele>
        <time>2026-06-17T12:20:32.000Z</time>
      </trkpt>
      <trkpt lat="48.58014" lon="1.57041">
        <ele>133.19999694824</ele>
        <time>2026-06-17T12:20:36.000Z</time>
      </trkpt>
      <trkpt lat="48.58011" lon="1.57046">
        <ele>133</ele>
        <time>2026-06-17T12:20:37.000Z</time>
      </trkpt>
      <trkpt lat="48.58004" lon="1.57056">
        <ele>132</ele>
        <time>2026-06-17T12:20:40.000Z</time>
      </trkpt>
      <trkpt lat="48.58002" lon="1.57058">
        <ele>131.80000305176</ele>
        <time>2026-06-17T12:20:41.000Z</time>
      </trkpt>
      <trkpt lat="48.58" lon="1.57064">
        <ele>131</ele>
        <time>2026-06-17T12:20:44.000Z</time>
      </trkpt>
      <trkpt lat="48.58" lon="1.57067">
        <ele>130.80000305176</ele>
        <time>2026-06-17T12:20:45.000Z</time>
      </trkpt>
      <trkpt lat="48.58002" lon="1.57071">
        <ele>130.60000610352</ele>
        <time>2026-06-17T12:20:46.000Z</time>
      </trkpt>
      <trkpt lat="48.58009" lon="1.57084">
        <ele>130.39999389648</ele>
        <time>2026-06-17T12:20:49.000Z</time>
      </trkpt>
      <trkpt lat="48.58034" lon="1.57114">
        <ele>130.39999389648</ele>
        <time>2026-06-17T12:20:55.000Z</time>
      </trkpt>
      <trkpt lat="48.58056" lon="1.57141">
        <ele>129.60000610352</ele>
        <time>2026-06-17T12:20:59.000Z</time>
      </trkpt>
      <trkpt lat="48.58062" lon="1.57149">
        <ele>129.39999389648</ele>
        <time>2026-06-17T12:21:00.000Z</time>
      </trkpt>
      <trkpt lat="48.58083" lon="1.57173">
        <ele>128.39999389648</ele>
        <time>2026-06-17T12:21:03.000Z</time>
      </trkpt>
      <trkpt lat="48.58094" lon="1.57192">
        <ele>127.80000305176</ele>
        <time>2026-06-17T12:21:05.000Z</time>
      </trkpt>
      <trkpt lat="48.58105" lon="1.57211">
        <ele>127.19999694824</ele>
        <time>2026-06-17T12:21:07.000Z</time>
      </trkpt>
      <trkpt lat="48.58122" lon="1.57242">
        <ele>126.19999694824</ele>
        <time>2026-06-17T12:21:10.000Z</time>
      </trkpt>
      <trkpt lat="48.58139" lon="1.57273">
        <ele>125.40000152588</ele>
        <time>2026-06-17T12:21:13.000Z</time>
      </trkpt>
      <trkpt lat="48.58145" lon="1.57283">
        <ele>125</ele>
        <time>2026-06-17T12:21:14.000Z</time>
      </trkpt>
      <trkpt lat="48.58167" lon="1.57323">
        <ele>123.80000305176</ele>
        <time>2026-06-17T12:21:18.000Z</time>
      </trkpt>
      <trkpt lat="48.58179" lon="1.57342">
        <ele>123.59999847412</ele>
        <time>2026-06-17T12:21:20.000Z</time>
      </trkpt>
      <trkpt lat="48.58185" lon="1.57351">
        <ele>123.40000152588</ele>
        <time>2026-06-17T12:21:21.000Z</time>
      </trkpt>
      <trkpt lat="48.5821" lon="1.57385">
        <ele>122.59999847412</ele>
        <time>2026-06-17T12:21:25.000Z</time>
      </trkpt>
      <trkpt lat="48.58252" lon="1.57438">
        <ele>121.59999847412</ele>
        <time>2026-06-17T12:21:32.000Z</time>
      </trkpt>
      <trkpt lat="48.58292" lon="1.57477">
        <ele>121</ele>
        <time>2026-06-17T12:21:38.000Z</time>
      </trkpt>
      <trkpt lat="48.58314" lon="1.57491">
        <ele>120.40000152588</ele>
        <time>2026-06-17T12:21:41.000Z</time>
      </trkpt>
      <trkpt lat="48.58321" lon="1.57494">
        <ele>120.19999694824</ele>
        <time>2026-06-17T12:21:42.000Z</time>
      </trkpt>
      <trkpt lat="48.58353" lon="1.57505">
        <ele>119</ele>
        <time>2026-06-17T12:21:46.000Z</time>
      </trkpt>
      <trkpt lat="48.58361" lon="1.57509">
        <ele>118.80000305176</ele>
        <time>2026-06-17T12:21:47.000Z</time>
      </trkpt>
      <trkpt lat="48.58382" lon="1.57528">
        <ele>118</ele>
        <time>2026-06-17T12:21:50.000Z</time>
      </trkpt>
      <trkpt lat="48.58388" lon="1.57533">
        <ele>117.59999847412</ele>
        <time>2026-06-17T12:21:51.000Z</time>
      </trkpt>
      <trkpt lat="48.58408" lon="1.57552">
        <ele>116.59999847412</ele>
        <time>2026-06-17T12:21:54.000Z</time>
      </trkpt>
      <trkpt lat="48.58427" lon="1.5757">
        <ele>115.59999847412</ele>
        <time>2026-06-17T12:21:57.000Z</time>
      </trkpt>
      <trkpt lat="48.58444" lon="1.57587">
        <ele>114.80000305176</ele>
        <time>2026-06-17T12:22:00.000Z</time>
      </trkpt>
      <trkpt lat="48.58451" lon="1.57594">
        <ele>114.59999847412</ele>
        <time>2026-06-17T12:22:01.000Z</time>
      </trkpt>
      <trkpt lat="48.58458" lon="1.57601">
        <ele>114.40000152588</ele>
        <time>2026-06-17T12:22:02.000Z</time>
      </trkpt>
      <trkpt lat="48.58481" lon="1.57623">
        <ele>113.40000152588</ele>
        <time>2026-06-17T12:22:06.000Z</time>
      </trkpt>
      <trkpt lat="48.58487" lon="1.57628">
        <ele>113</ele>
        <time>2026-06-17T12:22:07.000Z</time>
      </trkpt>
      <trkpt lat="48.58499" lon="1.57639">
        <ele>112.40000152588</ele>
        <time>2026-06-17T12:22:09.000Z</time>
      </trkpt>
      <trkpt lat="48.58522" lon="1.5766">
        <ele>111.80000305176</ele>
        <time>2026-06-17T12:22:13.000Z</time>
      </trkpt>
      <trkpt lat="48.58527" lon="1.57666">
        <ele>111.59999847412</ele>
        <time>2026-06-17T12:22:14.000Z</time>
      </trkpt>
      <trkpt lat="48.58531" lon="1.57672">
        <ele>111.40000152588</ele>
        <time>2026-06-17T12:22:15.000Z</time>
      </trkpt>
      <trkpt lat="48.58549" lon="1.57694">
        <ele>110.19999694824</ele>
        <time>2026-06-17T12:22:19.000Z</time>
      </trkpt>
      <trkpt lat="48.58569" lon="1.57724">
        <ele>109</ele>
        <time>2026-06-17T12:22:24.000Z</time>
      </trkpt>
      <trkpt lat="48.5858" lon="1.57738">
        <ele>108.59999847412</ele>
        <time>2026-06-17T12:22:27.000Z</time>
      </trkpt>
      <trkpt lat="48.58589" lon="1.57744">
        <ele>108.59999847412</ele>
        <time>2026-06-17T12:22:29.000Z</time>
      </trkpt>
      <trkpt lat="48.58598" lon="1.57749">
        <ele>108.59999847412</ele>
        <time>2026-06-17T12:22:31.000Z</time>
      </trkpt>
      <trkpt lat="48.58621" lon="1.57761">
        <ele>108.80000305176</ele>
        <time>2026-06-17T12:22:37.000Z</time>
      </trkpt>
      <trkpt lat="48.58624" lon="1.57763">
        <ele>108.80000305176</ele>
        <time>2026-06-17T12:22:38.000Z</time>
      </trkpt>
      <trkpt lat="48.58626" lon="1.57767">
        <ele>109</ele>
        <time>2026-06-17T12:22:39.000Z</time>
      </trkpt>
      <trkpt lat="48.58626" lon="1.57767">
        <ele>108.80000305176</ele>
        <time>2026-06-17T12:22:40.000Z</time>
      </trkpt>
      <trkpt lat="48.58629" lon="1.57792">
        <ele>108.40000152588</ele>
        <time>2026-06-17T12:22:45.000Z</time>
      </trkpt>
      <trkpt lat="48.58629" lon="1.57793">
        <ele>108.40000152588</ele>
        <time>2026-06-17T12:22:46.000Z</time>
      </trkpt>
      <trkpt lat="48.5863" lon="1.57794">
        <ele>108.19999694824</ele>
        <time>2026-06-17T12:22:48.000Z</time>
      </trkpt>
      <trkpt lat="48.5863" lon="1.57794">
        <ele>108</ele>
        <time>2026-06-17T12:22:51.000Z</time>
      </trkpt>
      <trkpt lat="48.5863" lon="1.57794">
        <ele>108</ele>
        <time>2026-06-17T12:22:55.000Z</time>
      </trkpt>
      <trkpt lat="48.58631" lon="1.57795">
        <ele>108</ele>
        <time>2026-06-17T12:23:01.000Z</time>
      </trkpt>
      <trkpt lat="48.58631" lon="1.57795">
        <ele>107.80000305176</ele>
        <time>2026-06-17T12:23:20.000Z</time>
      </trkpt>
      <trkpt lat="48.58631" lon="1.57795">
        <ele>108</ele>
        <time>2026-06-17T12:24:55.000Z</time>
      </trkpt>
      <trkpt lat="48.58631" lon="1.57795">
        <ele>108</ele>
        <time>2026-06-17T12:25:35.000Z</time>
      </trkpt>
      <trkpt lat="48.588" lon="1.57796">
        <ele>107</ele>
        <time>2026-06-17T13:01:12.000Z</time>
      </trkpt>
      <trkpt lat="48.588" lon="1.57796">
        <ele>106.80000305176</ele>
        <time>2026-06-17T13:01:21.000Z</time>
      </trkpt>
      <trkpt lat="48.58803" lon="1.57796">
        <ele>107.59999847412</ele>
        <time>2026-06-17T13:01:40.000Z</time>
      </trkpt>
      <trkpt lat="48.58803" lon="1.57795">
        <ele>107</ele>
        <time>2026-06-17T13:01:46.000Z</time>
      </trkpt>
      <trkpt lat="48.58803" lon="1.57795">
        <ele>106.80000305176</ele>
        <time>2026-06-17T13:01:48.000Z</time>
      </trkpt>
      <trkpt lat="48.58808" lon="1.57793">
        <ele>106.80000305176</ele>
        <time>2026-06-17T13:01:51.000Z</time>
      </trkpt>
      <trkpt lat="48.58823" lon="1.57791">
        <ele>107.19999694824</ele>
        <time>2026-06-17T13:01:58.000Z</time>
      </trkpt>
      <trkpt lat="48.58835" lon="1.57787">
        <ele>107.59999847412</ele>
        <time>2026-06-17T13:02:03.000Z</time>
      </trkpt>
      <trkpt lat="48.58853" lon="1.57783">
        <ele>108</ele>
        <time>2026-06-17T13:02:09.000Z</time>
      </trkpt>
      <trkpt lat="48.58857" lon="1.57783">
        <ele>108</ele>
        <time>2026-06-17T13:02:10.000Z</time>
      </trkpt>
      <trkpt lat="48.58875" lon="1.57786">
        <ele>108.59999847412</ele>
        <time>2026-06-17T13:02:16.000Z</time>
      </trkpt>
      <trkpt lat="48.58889" lon="1.57795">
        <ele>109</ele>
        <time>2026-06-17T13:02:20.000Z</time>
      </trkpt>
      <trkpt lat="48.58899" lon="1.57803">
        <ele>109.40000152588</ele>
        <time>2026-06-17T13:02:23.000Z</time>
      </trkpt>
      <trkpt lat="48.58919" lon="1.5783">
        <ele>109.80000305176</ele>
        <time>2026-06-17T13:02:30.000Z</time>
      </trkpt>
      <trkpt lat="48.58921" lon="1.57834">
        <ele>110.19999694824</ele>
        <time>2026-06-17T13:02:31.000Z</time>
      </trkpt>
      <trkpt lat="48.58929" lon="1.57863">
        <ele>110.40000152588</ele>
        <time>2026-06-17T13:02:39.000Z</time>
      </trkpt>
      <trkpt lat="48.58928" lon="1.57865">
        <ele>110.40000152588</ele>
        <time>2026-06-17T13:02:43.000Z</time>
      </trkpt>
      <trkpt lat="48.58931" lon="1.57873">
        <ele>110.19999694824</ele>
        <time>2026-06-17T13:03:08.000Z</time>
      </trkpt>
      <trkpt lat="48.58938" lon="1.57897">
        <ele>110.40000152588</ele>
        <time>2026-06-17T13:03:13.000Z</time>
      </trkpt>
      <trkpt lat="48.58941" lon="1.57909">
        <ele>110.19999694824</ele>
        <time>2026-06-17T13:03:15.000Z</time>
      </trkpt>
      <trkpt lat="48.58945" lon="1.57922">
        <ele>110.19999694824</ele>
        <time>2026-06-17T13:03:17.000Z</time>
      </trkpt>
      <trkpt lat="48.58947" lon="1.57929">
        <ele>110.19999694824</ele>
        <time>2026-06-17T13:03:18.000Z</time>
      </trkpt>
      <trkpt lat="48.58955" lon="1.57965">
        <ele>109.80000305176</ele>
        <time>2026-06-17T13:03:23.000Z</time>
      </trkpt>
      <trkpt lat="48.5896" lon="1.57979">
        <ele>109.59999847412</ele>
        <time>2026-06-17T13:03:25.000Z</time>
      </trkpt>
      <trkpt lat="48.58962" lon="1.57985">
        <ele>109.59999847412</ele>
        <time>2026-06-17T13:03:26.000Z</time>
      </trkpt>
      <trkpt lat="48.58966" lon="1.58001">
        <ele>109.40000152588</ele>
        <time>2026-06-17T13:03:29.000Z</time>
      </trkpt>
      <trkpt lat="48.58966" lon="1.58006">
        <ele>109.40000152588</ele>
        <time>2026-06-17T13:03:30.000Z</time>
      </trkpt>
      <trkpt lat="48.58969" lon="1.58025">
        <ele>109.40000152588</ele>
        <time>2026-06-17T13:03:35.000Z</time>
      </trkpt>
      <trkpt lat="48.58971" lon="1.58045">
        <ele>109.59999847412</ele>
        <time>2026-06-17T13:03:40.000Z</time>
      </trkpt>
      <trkpt lat="48.58976" lon="1.58078">
        <ele>110.19999694824</ele>
        <time>2026-06-17T13:03:47.000Z</time>
      </trkpt>
      <trkpt lat="48.58978" lon="1.58088">
        <ele>110.40000152588</ele>
        <time>2026-06-17T13:03:49.000Z</time>
      </trkpt>
      <trkpt lat="48.58981" lon="1.58103">
        <ele>110.59999847412</ele>
        <time>2026-06-17T13:03:52.000Z</time>
      </trkpt>
      <trkpt lat="48.58986" lon="1.58134">
        <ele>111.40000152588</ele>
        <time>2026-06-17T13:03:58.000Z</time>
      </trkpt>
      <trkpt lat="48.58987" lon="1.58139">
        <ele>111.59999847412</ele>
        <time>2026-06-17T13:03:59.000Z</time>
      </trkpt>
      <trkpt lat="48.58992" lon="1.5817">
        <ele>112.59999847412</ele>
        <time>2026-06-17T13:04:05.000Z</time>
      </trkpt>
      <trkpt lat="48.58993" lon="1.58174">
        <ele>112.80000305176</ele>
        <time>2026-06-17T13:04:06.000Z</time>
      </trkpt>
      <trkpt lat="48.58997" lon="1.58195">
        <ele>113</ele>
        <time>2026-06-17T13:04:11.000Z</time>
      </trkpt>
      <trkpt lat="48.59002" lon="1.58222">
        <ele>113.80000305176</ele>
        <time>2026-06-17T13:04:19.000Z</time>
      </trkpt>
      <trkpt lat="48.59004" lon="1.58234">
        <ele>113.80000305176</ele>
        <time>2026-06-17T13:04:22.000Z</time>
      </trkpt>
      <trkpt lat="48.59008" lon="1.58252">
        <ele>114.40000152588</ele>
        <time>2026-06-17T13:04:26.000Z</time>
      </trkpt>
      <trkpt lat="48.5901" lon="1.58265">
        <ele>115</ele>
        <time>2026-06-17T13:04:29.000Z</time>
      </trkpt>
      <trkpt lat="48.59016" lon="1.58299">
        <ele>116</ele>
        <time>2026-06-17T13:04:35.000Z</time>
      </trkpt>
      <trkpt lat="48.59017" lon="1.58305">
        <ele>116</ele>
        <time>2026-06-17T13:04:36.000Z</time>
      </trkpt>
      <trkpt lat="48.59023" lon="1.58332">
        <ele>116.80000305176</ele>
        <time>2026-06-17T13:04:42.000Z</time>
      </trkpt>
      <trkpt lat="48.59025" lon="1.58339">
        <ele>117.19999694824</ele>
        <time>2026-06-17T13:04:44.000Z</time>
      </trkpt>
      <trkpt lat="48.59031" lon="1.58352">
        <ele>117.80000305176</ele>
        <time>2026-06-17T13:04:48.000Z</time>
      </trkpt>
      <trkpt lat="48.59036" lon="1.58356">
        <ele>118.19999694824</ele>
        <time>2026-06-17T13:04:50.000Z</time>
      </trkpt>
      <trkpt lat="48.59044" lon="1.58354">
        <ele>118.80000305176</ele>
        <time>2026-06-17T13:04:53.000Z</time>
      </trkpt>
      <trkpt lat="48.59058" lon="1.58343">
        <ele>118.80000305176</ele>
        <time>2026-06-17T13:04:58.000Z</time>
      </trkpt>
      <trkpt lat="48.59085" lon="1.58326">
        <ele>118.59999847412</ele>
        <time>2026-06-17T13:05:06.000Z</time>
      </trkpt>
      <trkpt lat="48.59111" lon="1.58307">
        <ele>118.19999694824</ele>
        <time>2026-06-17T13:05:14.000Z</time>
      </trkpt>
      <trkpt lat="48.59134" lon="1.58289">
        <ele>118</ele>
        <time>2026-06-17T13:05:19.000Z</time>
      </trkpt>
      <trkpt lat="48.59139" lon="1.58283">
        <ele>118</ele>
        <time>2026-06-17T13:05:20.000Z</time>
      </trkpt>
      <trkpt lat="48.59151" lon="1.58264">
        <ele>117.59999847412</ele>
        <time>2026-06-17T13:05:23.000Z</time>
      </trkpt>
      <trkpt lat="48.59157" lon="1.58251">
        <ele>117</ele>
        <time>2026-06-17T13:05:25.000Z</time>
      </trkpt>
      <trkpt lat="48.59161" lon="1.58244">
        <ele>116.80000305176</ele>
        <time>2026-06-17T13:05:26.000Z</time>
      </trkpt>
      <trkpt lat="48.59171" lon="1.58227">
        <ele>116.19999694824</ele>
        <time>2026-06-17T13:05:29.000Z</time>
      </trkpt>
      <trkpt lat="48.59177" lon="1.58216">
        <ele>116</ele>
        <time>2026-06-17T13:05:31.000Z</time>
      </trkpt>
      <trkpt lat="48.59182" lon="1.58206">
        <ele>115.80000305176</ele>
        <time>2026-06-17T13:05:33.000Z</time>
      </trkpt>
      <trkpt lat="48.59185" lon="1.58201">
        <ele>115.80000305176</ele>
        <time>2026-06-17T13:05:34.000Z</time>
      </trkpt>
      <trkpt lat="48.59207" lon="1.58164">
        <ele>115.80000305176</ele>
        <time>2026-06-17T13:05:41.000Z</time>
      </trkpt>
      <trkpt lat="48.59226" lon="1.58135">
        <ele>116</ele>
        <time>2026-06-17T13:05:47.000Z</time>
      </trkpt>
      <trkpt lat="48.59235" lon="1.58121">
        <ele>116.19999694824</ele>
        <time>2026-06-17T13:05:50.000Z</time>
      </trkpt>
      <trkpt lat="48.59247" lon="1.58107">
        <ele>116</ele>
        <time>2026-06-17T13:05:53.000Z</time>
      </trkpt>
      <trkpt lat="48.59281" lon="1.58063">
        <ele>115.19999694824</ele>
        <time>2026-06-17T13:06:02.000Z</time>
      </trkpt>
      <trkpt lat="48.59308" lon="1.58029">
        <ele>115</ele>
        <time>2026-06-17T13:06:09.000Z</time>
      </trkpt>
      <trkpt lat="48.59344" lon="1.57988">
        <ele>114</ele>
        <time>2026-06-17T13:06:17.000Z</time>
      </trkpt>
      <trkpt lat="48.59348" lon="1.57983">
        <ele>114</ele>
        <time>2026-06-17T13:06:18.000Z</time>
      </trkpt>
      <trkpt lat="48.59352" lon="1.57978">
        <ele>113.80000305176</ele>
        <time>2026-06-17T13:06:19.000Z</time>
      </trkpt>
      <trkpt lat="48.59385" lon="1.57943">
        <ele>113.19999694824</ele>
        <time>2026-06-17T13:06:26.000Z</time>
      </trkpt>
      <trkpt lat="48.5941" lon="1.57915">
        <ele>112.80000305176</ele>
        <time>2026-06-17T13:06:31.000Z</time>
      </trkpt>
      <trkpt lat="48.59423" lon="1.57897">
        <ele>112.59999847412</ele>
        <time>2026-06-17T13:06:34.000Z</time>
      </trkpt>
      <trkpt lat="48.59442" lon="1.57875">
        <ele>112.40000152588</ele>
        <time>2026-06-17T13:06:38.000Z</time>
      </trkpt>
      <trkpt lat="48.5945" lon="1.57868">
        <ele>112.40000152588</ele>
        <time>2026-06-17T13:06:40.000Z</time>
      </trkpt>
      <trkpt lat="48.59453" lon="1.57864">
        <ele>112.19999694824</ele>
        <time>2026-06-17T13:06:41.000Z</time>
      </trkpt>
      <trkpt lat="48.59468" lon="1.57852">
        <ele>112.19999694824</ele>
        <time>2026-06-17T13:06:45.000Z</time>
      </trkpt>
      <trkpt lat="48.59495" lon="1.57829">
        <ele>112.19999694824</ele>
        <time>2026-06-17T13:06:52.000Z</time>
      </trkpt>
      <trkpt lat="48.59516" lon="1.57806">
        <ele>112.40000152588</ele>
        <time>2026-06-17T13:06:57.000Z</time>
      </trkpt>
      <trkpt lat="48.5953" lon="1.57788">
        <ele>112.40000152588</ele>
        <time>2026-06-17T13:07:01.000Z</time>
      </trkpt>
      <trkpt lat="48.59535" lon="1.57779">
        <ele>112.40000152588</ele>
        <time>2026-06-17T13:07:03.000Z</time>
      </trkpt>
      <trkpt lat="48.59552" lon="1.57753">
        <ele>112.40000152588</ele>
        <time>2026-06-17T13:07:08.000Z</time>
      </trkpt>
      <trkpt lat="48.59582" lon="1.57709">
        <ele>112.59999847412</ele>
        <time>2026-06-17T13:07:17.000Z</time>
      </trkpt>
      <trkpt lat="48.59601" lon="1.57681">
        <ele>112.59999847412</ele>
        <time>2026-06-17T13:07:22.000Z</time>
      </trkpt>
      <trkpt lat="48.5961" lon="1.57669">
        <ele>112.40000152588</ele>
        <time>2026-06-17T13:07:24.000Z</time>
      </trkpt>
      <trkpt lat="48.59631" lon="1.57638">
        <ele>111.80000305176</ele>
        <time>2026-06-17T13:07:29.000Z</time>
      </trkpt>
      <trkpt lat="48.59636" lon="1.57632">
        <ele>111.59999847412</ele>
        <time>2026-06-17T13:07:30.000Z</time>
      </trkpt>
      <trkpt lat="48.59641" lon="1.57626">
        <ele>111.40000152588</ele>
        <time>2026-06-17T13:07:31.000Z</time>
      </trkpt>
      <trkpt lat="48.59674" lon="1.57582">
        <ele>110.80000305176</ele>
        <time>2026-06-17T13:07:38.000Z</time>
      </trkpt>
      <trkpt lat="48.59679" lon="1.57575">
        <ele>110.59999847412</ele>
        <time>2026-06-17T13:07:39.000Z</time>
      </trkpt>
      <trkpt lat="48.59691" lon="1.57557">
        <ele>110.40000152588</ele>
        <time>2026-06-17T13:07:42.000Z</time>
      </trkpt>
      <trkpt lat="48.59715" lon="1.57526">
        <ele>110.19999694824</ele>
        <time>2026-06-17T13:07:48.000Z</time>
      </trkpt>
      <trkpt lat="48.59719" lon="1.5752">
        <ele>110.19999694824</ele>
        <time>2026-06-17T13:07:49.000Z</time>
      </trkpt>
      <trkpt lat="48.59734" lon="1.57496">
        <ele>110.19999694824</ele>
        <time>2026-06-17T13:07:53.000Z</time>
      </trkpt>
      <trkpt lat="48.59748" lon="1.57474">
        <ele>110.40000152588</ele>
        <time>2026-06-17T13:07:57.000Z</time>
      </trkpt>
      <trkpt lat="48.59754" lon="1.57462">
        <ele>110.40000152588</ele>
        <time>2026-06-17T13:07:59.000Z</time>
      </trkpt>
      <trkpt lat="48.59777" lon="1.57411">
        <ele>110.59999847412</ele>
        <time>2026-06-17T13:08:07.000Z</time>
      </trkpt>
      <trkpt lat="48.59796" lon="1.57364">
        <ele>110.19999694824</ele>
        <time>2026-06-17T13:08:13.000Z</time>
      </trkpt>
      <trkpt lat="48.59801" lon="1.57351">
        <ele>109.80000305176</ele>
        <time>2026-06-17T13:08:15.000Z</time>
      </trkpt>
      <trkpt lat="48.59821" lon="1.57306">
        <ele>108.80000305176</ele>
        <time>2026-06-17T13:08:21.000Z</time>
      </trkpt>
      <trkpt lat="48.59825" lon="1.57299">
        <ele>108.80000305176</ele>
        <time>2026-06-17T13:08:22.000Z</time>
      </trkpt>
      <trkpt lat="48.59843" lon="1.57265">
        <ele>108.59999847412</ele>
        <time>2026-06-17T13:08:27.000Z</time>
      </trkpt>
      <trkpt lat="48.59868" lon="1.57221">
        <ele>108.40000152588</ele>
        <time>2026-06-17T13:08:34.000Z</time>
      </trkpt>
      <trkpt lat="48.59894" lon="1.57182">
        <ele>108.40000152588</ele>
        <time>2026-06-17T13:08:41.000Z</time>
      </trkpt>
      <trkpt lat="48.59897" lon="1.57176">
        <ele>108.40000152588</ele>
        <time>2026-06-17T13:08:42.000Z</time>
      </trkpt>
      <trkpt lat="48.59904" lon="1.57168">
        <ele>108.40000152588</ele>
        <time>2026-06-17T13:08:44.000Z</time>
      </trkpt>
      <trkpt lat="48.59908" lon="1.57165">
        <ele>108.40000152588</ele>
        <time>2026-06-17T13:08:45.000Z</time>
      </trkpt>
      <trkpt lat="48.59919" lon="1.57154">
        <ele>108.40000152588</ele>
        <time>2026-06-17T13:08:48.000Z</time>
      </trkpt>
      <trkpt lat="48.59935" lon="1.57139">
        <ele>108.80000305176</ele>
        <time>2026-06-17T13:08:52.000Z</time>
      </trkpt>
      <trkpt lat="48.59963" lon="1.57118">
        <ele>109.59999847412</ele>
        <time>2026-06-17T13:08:59.000Z</time>
      </trkpt>
      <trkpt lat="48.59972" lon="1.57112">
        <ele>109.80000305176</ele>
        <time>2026-06-17T13:09:01.000Z</time>
      </trkpt>
      <trkpt lat="48.60005" lon="1.57093">
        <ele>110.40000152588</ele>
        <time>2026-06-17T13:09:08.000Z</time>
      </trkpt>
      <trkpt lat="48.60022" lon="1.5708">
        <ele>110.59999847412</ele>
        <time>2026-06-17T13:09:12.000Z</time>
      </trkpt>
      <trkpt lat="48.60029" lon="1.57075">
        <ele>110.59999847412</ele>
        <time>2026-06-17T13:09:14.000Z</time>
      </trkpt>
      <trkpt lat="48.60039" lon="1.57068">
        <ele>110.80000305176</ele>
        <time>2026-06-17T13:09:17.000Z</time>
      </trkpt>
      <trkpt lat="48.60049" lon="1.57061">
        <ele>111</ele>
        <time>2026-06-17T13:09:20.000Z</time>
      </trkpt>
      <trkpt lat="48.60057" lon="1.57058">
        <ele>111</ele>
        <time>2026-06-17T13:09:22.000Z</time>
      </trkpt>
      <trkpt lat="48.60071" lon="1.57057">
        <ele>111.19999694824</ele>
        <time>2026-06-17T13:09:25.000Z</time>
      </trkpt>
      <trkpt lat="48.60075" lon="1.57057">
        <ele>111.19999694824</ele>
        <time>2026-06-17T13:09:26.000Z</time>
      </trkpt>
      <trkpt lat="48.60099" lon="1.5705">
        <ele>111.19999694824</ele>
        <time>2026-06-17T13:09:31.000Z</time>
      </trkpt>
      <trkpt lat="48.60137" lon="1.57036">
        <ele>111.40000152588</ele>
        <time>2026-06-17T13:09:39.000Z</time>
      </trkpt>
      <trkpt lat="48.60168" lon="1.57022">
        <ele>111.40000152588</ele>
        <time>2026-06-17T13:09:46.000Z</time>
      </trkpt>
      <trkpt lat="48.60206" lon="1.5701">
        <ele>111.59999847412</ele>
        <time>2026-06-17T13:09:54.000Z</time>
      </trkpt>
      <trkpt lat="48.60212" lon="1.57008">
        <ele>111.59999847412</ele>
        <time>2026-06-17T13:09:55.000Z</time>
      </trkpt>
      <trkpt lat="48.60255" lon="1.56999">
        <ele>111.80000305176</ele>
        <time>2026-06-17T13:10:03.000Z</time>
      </trkpt>
      <trkpt lat="48.6027" lon="1.56997">
        <ele>111.80000305176</ele>
        <time>2026-06-17T13:10:06.000Z</time>
      </trkpt>
      <trkpt lat="48.60279" lon="1.56995">
        <ele>112</ele>
        <time>2026-06-17T13:10:08.000Z</time>
      </trkpt>
      <trkpt lat="48.60289" lon="1.56994">
        <ele>112.19999694824</ele>
        <time>2026-06-17T13:10:10.000Z</time>
      </trkpt>
      <trkpt lat="48.60319" lon="1.56991">
        <ele>113</ele>
        <time>2026-06-17T13:10:16.000Z</time>
      </trkpt>
      <trkpt lat="48.60322" lon="1.5699">
        <ele>113</ele>
        <time>2026-06-17T13:10:17.000Z</time>
      </trkpt>
      <trkpt lat="48.60355" lon="1.56984">
        <ele>113.80000305176</ele>
        <time>2026-06-17T13:10:25.000Z</time>
      </trkpt>
      <trkpt lat="48.60363" lon="1.56981">
        <ele>114.19999694824</ele>
        <time>2026-06-17T13:10:27.000Z</time>
      </trkpt>
      <trkpt lat="48.6038" lon="1.56975">
        <ele>115.40000152588</ele>
        <time>2026-06-17T13:10:31.000Z</time>
      </trkpt>
      <trkpt lat="48.60401" lon="1.5697">
        <ele>116.40000152588</ele>
        <time>2026-06-17T13:10:36.000Z</time>
      </trkpt>
      <trkpt lat="48.6041" lon="1.56966">
        <ele>116.80000305176</ele>
        <time>2026-06-17T13:10:38.000Z</time>
      </trkpt>
      <trkpt lat="48.60426" lon="1.56959">
        <ele>117.59999847412</ele>
        <time>2026-06-17T13:10:42.000Z</time>
      </trkpt>
      <trkpt lat="48.6044" lon="1.56954">
        <ele>118.19999694824</ele>
        <time>2026-06-17T13:10:45.000Z</time>
      </trkpt>
      <trkpt lat="48.60486" lon="1.56932">
        <ele>117.80000305176</ele>
        <time>2026-06-17T13:10:55.000Z</time>
      </trkpt>
      <trkpt lat="48.60524" lon="1.56913">
        <ele>117.19999694824</ele>
        <time>2026-06-17T13:11:03.000Z</time>
      </trkpt>
      <trkpt lat="48.60563" lon="1.56895">
        <ele>116.59999847412</ele>
        <time>2026-06-17T13:11:10.000Z</time>
      </trkpt>
      <trkpt lat="48.60568" lon="1.56892">
        <ele>116.40000152588</ele>
        <time>2026-06-17T13:11:11.000Z</time>
      </trkpt>
      <trkpt lat="48.60624" lon="1.56869">
        <ele>115.80000305176</ele>
        <time>2026-06-17T13:11:20.000Z</time>
      </trkpt>
      <trkpt lat="48.60635" lon="1.56864">
        <ele>115.59999847412</ele>
        <time>2026-06-17T13:11:22.000Z</time>
      </trkpt>
      <trkpt lat="48.60661" lon="1.56855">
        <ele>115</ele>
        <time>2026-06-17T13:11:27.000Z</time>
      </trkpt>
      <trkpt lat="48.60697" lon="1.56838">
        <ele>114.80000305176</ele>
        <time>2026-06-17T13:11:35.000Z</time>
      </trkpt>
      <trkpt lat="48.60715" lon="1.56827">
        <ele>114.40000152588</ele>
        <time>2026-06-17T13:11:39.000Z</time>
      </trkpt>
      <trkpt lat="48.60731" lon="1.56819">
        <ele>114</ele>
        <time>2026-06-17T13:11:42.000Z</time>
      </trkpt>
      <trkpt lat="48.60761" lon="1.56796">
        <ele>113.59999847412</ele>
        <time>2026-06-17T13:11:48.000Z</time>
      </trkpt>
      <trkpt lat="48.60788" lon="1.56771">
        <ele>112.40000152588</ele>
        <time>2026-06-17T13:11:53.000Z</time>
      </trkpt>
      <trkpt lat="48.60795" lon="1.56765">
        <ele>112.19999694824</ele>
        <time>2026-06-17T13:11:54.000Z</time>
      </trkpt>
      <trkpt lat="48.60813" lon="1.56746">
        <ele>111.40000152588</ele>
        <time>2026-06-17T13:11:57.000Z</time>
      </trkpt>
      <trkpt lat="48.6083" lon="1.56722">
        <ele>110.40000152588</ele>
        <time>2026-06-17T13:12:00.000Z</time>
      </trkpt>
      <trkpt lat="48.60836" lon="1.56714">
        <ele>110.19999694824</ele>
        <time>2026-06-17T13:12:01.000Z</time>
      </trkpt>
      <trkpt lat="48.6086" lon="1.56682">
        <ele>109</ele>
        <time>2026-06-17T13:12:05.000Z</time>
      </trkpt>
      <trkpt lat="48.60873" lon="1.56668">
        <ele>108.40000152588</ele>
        <time>2026-06-17T13:12:07.000Z</time>
      </trkpt>
      <trkpt lat="48.60898" lon="1.56648">
        <ele>108</ele>
        <time>2026-06-17T13:12:11.000Z</time>
      </trkpt>
      <trkpt lat="48.60905" lon="1.56646">
        <ele>107.80000305176</ele>
        <time>2026-06-17T13:12:12.000Z</time>
      </trkpt>
      <trkpt lat="48.60951" lon="1.5664">
        <ele>107.19999694824</ele>
        <time>2026-06-17T13:12:19.000Z</time>
      </trkpt>
      <trkpt lat="48.60993" lon="1.56631">
        <ele>107.40000152588</ele>
        <time>2026-06-17T13:12:26.000Z</time>
      </trkpt>
      <trkpt lat="48.61046" lon="1.56613">
        <ele>107.80000305176</ele>
        <time>2026-06-17T13:12:35.000Z</time>
      </trkpt>
      <trkpt lat="48.61052" lon="1.56611">
        <ele>107.80000305176</ele>
        <time>2026-06-17T13:12:36.000Z</time>
      </trkpt>
      <trkpt lat="48.61091" lon="1.56596">
        <ele>108</ele>
        <time>2026-06-17T13:12:44.000Z</time>
      </trkpt>
      <trkpt lat="48.61144" lon="1.56574">
        <ele>108</ele>
        <time>2026-06-17T13:12:53.000Z</time>
      </trkpt>
      <trkpt lat="48.61155" lon="1.5657">
        <ele>108</ele>
        <time>2026-06-17T13:12:55.000Z</time>
      </trkpt>
      <trkpt lat="48.61208" lon="1.56549">
        <ele>107.59999847412</ele>
        <time>2026-06-17T13:13:04.000Z</time>
      </trkpt>
      <trkpt lat="48.61225" lon="1.56543">
        <ele>107.59999847412</ele>
        <time>2026-06-17T13:13:07.000Z</time>
      </trkpt>
      <trkpt lat="48.61275" lon="1.56523">
        <ele>107.40000152588</ele>
        <time>2026-06-17T13:13:16.000Z</time>
      </trkpt>
      <trkpt lat="48.61332" lon="1.56503">
        <ele>107.40000152588</ele>
        <time>2026-06-17T13:13:26.000Z</time>
      </trkpt>
      <trkpt lat="48.61343" lon="1.56499">
        <ele>107.40000152588</ele>
        <time>2026-06-17T13:13:28.000Z</time>
      </trkpt>
      <trkpt lat="48.61395" lon="1.56476">
        <ele>107.19999694824</ele>
        <time>2026-06-17T13:13:37.000Z</time>
      </trkpt>
      <trkpt lat="48.61407" lon="1.56473">
        <ele>107</ele>
        <time>2026-06-17T13:13:39.000Z</time>
      </trkpt>
      <trkpt lat="48.61434" lon="1.5647">
        <ele>106.80000305176</ele>
        <time>2026-06-17T13:13:44.000Z</time>
      </trkpt>
      <trkpt lat="48.61475" lon="1.56466">
        <ele>106.59999847412</ele>
        <time>2026-06-17T13:13:51.000Z</time>
      </trkpt>
      <trkpt lat="48.61511" lon="1.56469">
        <ele>107</ele>
        <time>2026-06-17T13:13:59.000Z</time>
      </trkpt>
      <trkpt lat="48.61559" lon="1.56479">
        <ele>107.59999847412</ele>
        <time>2026-06-17T13:14:08.000Z</time>
      </trkpt>
      <trkpt lat="48.61583" lon="1.56481">
        <ele>108.19999694824</ele>
        <time>2026-06-17T13:14:13.000Z</time>
      </trkpt>
      <trkpt lat="48.61597" lon="1.56481">
        <ele>108.80000305176</ele>
        <time>2026-06-17T13:14:16.000Z</time>
      </trkpt>
      <trkpt lat="48.61609" lon="1.56481">
        <ele>109.19999694824</ele>
        <time>2026-06-17T13:14:19.000Z</time>
      </trkpt>
      <trkpt lat="48.61616" lon="1.56482">
        <ele>109.80000305176</ele>
        <time>2026-06-17T13:14:21.000Z</time>
      </trkpt>
      <trkpt lat="48.61635" lon="1.56487">
        <ele>110.40000152588</ele>
        <time>2026-06-17T13:14:26.000Z</time>
      </trkpt>
      <trkpt lat="48.61642" lon="1.56489">
        <ele>110.80000305176</ele>
        <time>2026-06-17T13:14:28.000Z</time>
      </trkpt>
      <trkpt lat="48.61655" lon="1.5649">
        <ele>111.19999694824</ele>
        <time>2026-06-17T13:14:31.000Z</time>
      </trkpt>
      <trkpt lat="48.61668" lon="1.56486">
        <ele>111.40000152588</ele>
        <time>2026-06-17T13:14:34.000Z</time>
      </trkpt>
      <trkpt lat="48.61682" lon="1.5648">
        <ele>112</ele>
        <time>2026-06-17T13:14:38.000Z</time>
      </trkpt>
      <trkpt lat="48.61694" lon="1.56474">
        <ele>112.19999694824</ele>
        <time>2026-06-17T13:14:41.000Z</time>
      </trkpt>
      <trkpt lat="48.61711" lon="1.56469">
        <ele>112.59999847412</ele>
        <time>2026-06-17T13:14:45.000Z</time>
      </trkpt>
      <trkpt lat="48.61739" lon="1.56463">
        <ele>113.19999694824</ele>
        <time>2026-06-17T13:14:52.000Z</time>
      </trkpt>
      <trkpt lat="48.61761" lon="1.56458">
        <ele>113.80000305176</ele>
        <time>2026-06-17T13:14:58.000Z</time>
      </trkpt>
      <trkpt lat="48.61788" lon="1.56452">
        <ele>114.80000305176</ele>
        <time>2026-06-17T13:15:05.000Z</time>
      </trkpt>
      <trkpt lat="48.61796" lon="1.56451">
        <ele>115</ele>
        <time>2026-06-17T13:15:07.000Z</time>
      </trkpt>
      <trkpt lat="48.61834" lon="1.56445">
        <ele>115.80000305176</ele>
        <time>2026-06-17T13:15:16.000Z</time>
      </trkpt>
      <trkpt lat="48.61856" lon="1.5644">
        <ele>116.19999694824</ele>
        <time>2026-06-17T13:15:21.000Z</time>
      </trkpt>
      <trkpt lat="48.61865" lon="1.56438">
        <ele>116.19999694824</ele>
        <time>2026-06-17T13:15:23.000Z</time>
      </trkpt>
      <trkpt lat="48.6187" lon="1.56437">
        <ele>116.19999694824</ele>
        <time>2026-06-17T13:15:24.000Z</time>
      </trkpt>
      <trkpt lat="48.61914" lon="1.56429">
        <ele>116.19999694824</ele>
        <time>2026-06-17T13:15:33.000Z</time>
      </trkpt>
      <trkpt lat="48.61919" lon="1.56429">
        <ele>116.19999694824</ele>
        <time>2026-06-17T13:15:34.000Z</time>
      </trkpt>
      <trkpt lat="48.61949" lon="1.56429">
        <ele>115.80000305176</ele>
        <time>2026-06-17T13:15:39.000Z</time>
      </trkpt>
      <trkpt lat="48.61977" lon="1.56426">
        <ele>115.40000152588</ele>
        <time>2026-06-17T13:15:44.000Z</time>
      </trkpt>
      <trkpt lat="48.61982" lon="1.56424">
        <ele>115.19999694824</ele>
        <time>2026-06-17T13:15:45.000Z</time>
      </trkpt>
      <trkpt lat="48.61986" lon="1.56421">
        <ele>115</ele>
        <time>2026-06-17T13:15:46.000Z</time>
      </trkpt>
      <trkpt lat="48.61995" lon="1.56414">
        <ele>114.80000305176</ele>
        <time>2026-06-17T13:15:48.000Z</time>
      </trkpt>
      <trkpt lat="48.61999" lon="1.56411">
        <ele>114.59999847412</ele>
        <time>2026-06-17T13:15:49.000Z</time>
      </trkpt>
      <trkpt lat="48.62012" lon="1.56401">
        <ele>113.80000305176</ele>
        <time>2026-06-17T13:15:52.000Z</time>
      </trkpt>
      <trkpt lat="48.6202" lon="1.56389">
        <ele>113.19999694824</ele>
        <time>2026-06-17T13:15:54.000Z</time>
      </trkpt>
      <trkpt lat="48.62028" lon="1.56374">
        <ele>112.59999847412</ele>
        <time>2026-06-17T13:15:56.000Z</time>
      </trkpt>
      <trkpt lat="48.62041" lon="1.56351">
        <ele>111.59999847412</ele>
        <time>2026-06-17T13:15:59.000Z</time>
      </trkpt>
      <trkpt lat="48.62058" lon="1.56321">
        <ele>110.59999847412</ele>
        <time>2026-06-17T13:16:03.000Z</time>
      </trkpt>
      <trkpt lat="48.62067" lon="1.56305">
        <ele>110.19999694824</ele>
        <time>2026-06-17T13:16:05.000Z</time>
      </trkpt>
      <trkpt lat="48.62083" lon="1.5627">
        <ele>109.40000152588</ele>
        <time>2026-06-17T13:16:09.000Z</time>
      </trkpt>
      <trkpt lat="48.62092" lon="1.56251">
        <ele>109.19999694824</ele>
        <time>2026-06-17T13:16:11.000Z</time>
      </trkpt>
      <trkpt lat="48.62097" lon="1.56239">
        <ele>109</ele>
        <time>2026-06-17T13:16:12.000Z</time>
      </trkpt>
      <trkpt lat="48.62112" lon="1.56194">
        <ele>108.59999847412</ele>
        <time>2026-06-17T13:16:17.000Z</time>
      </trkpt>
      <trkpt lat="48.62116" lon="1.56185">
        <ele>108.40000152588</ele>
        <time>2026-06-17T13:16:18.000Z</time>
      </trkpt>
      <trkpt lat="48.62131" lon="1.5615">
        <ele>107.80000305176</ele>
        <time>2026-06-17T13:16:22.000Z</time>
      </trkpt>
      <trkpt lat="48.62147" lon="1.56118">
        <ele>107.80000305176</ele>
        <time>2026-06-17T13:16:26.000Z</time>
      </trkpt>
      <trkpt lat="48.62156" lon="1.56106">
        <ele>107.59999847412</ele>
        <time>2026-06-17T13:16:28.000Z</time>
      </trkpt>
      <trkpt lat="48.62172" lon="1.56087">
        <ele>107.40000152588</ele>
        <time>2026-06-17T13:16:31.000Z</time>
      </trkpt>
      <trkpt lat="48.62177" lon="1.56082">
        <ele>107.40000152588</ele>
        <time>2026-06-17T13:16:32.000Z</time>
      </trkpt>
      <trkpt lat="48.62187" lon="1.56073">
        <ele>107.19999694824</ele>
        <time>2026-06-17T13:16:34.000Z</time>
      </trkpt>
      <trkpt lat="48.62212" lon="1.56064">
        <ele>107</ele>
        <time>2026-06-17T13:16:38.000Z</time>
      </trkpt>
      <trkpt lat="48.62219" lon="1.56064">
        <ele>106.80000305176</ele>
        <time>2026-06-17T13:16:39.000Z</time>
      </trkpt>
      <trkpt lat="48.62225" lon="1.56066">
        <ele>106.80000305176</ele>
        <time>2026-06-17T13:16:40.000Z</time>
      </trkpt>
      <trkpt lat="48.62254" lon="1.56082">
        <ele>106.59999847412</ele>
        <time>2026-06-17T13:16:45.000Z</time>
      </trkpt>
      <trkpt lat="48.62299" lon="1.56112">
        <ele>107</ele>
        <time>2026-06-17T13:16:53.000Z</time>
      </trkpt>
      <trkpt lat="48.62338" lon="1.5613">
        <ele>107.40000152588</ele>
        <time>2026-06-17T13:17:00.000Z</time>
      </trkpt>
      <trkpt lat="48.6235" lon="1.56135">
        <ele>107.40000152588</ele>
        <time>2026-06-17T13:17:02.000Z</time>
      </trkpt>
      <trkpt lat="48.62368" lon="1.56144">
        <ele>107.59999847412</ele>
        <time>2026-06-17T13:17:05.000Z</time>
      </trkpt>
      <trkpt lat="48.62412" lon="1.56163">
        <ele>107.59999847412</ele>
        <time>2026-06-17T13:17:13.000Z</time>
      </trkpt>
      <trkpt lat="48.62423" lon="1.56166">
        <ele>107.40000152588</ele>
        <time>2026-06-17T13:17:15.000Z</time>
      </trkpt>
      <trkpt lat="48.62433" lon="1.56164">
        <ele>107.40000152588</ele>
        <time>2026-06-17T13:17:17.000Z</time>
      </trkpt>
      <trkpt lat="48.62438" lon="1.56161">
        <ele>107.19999694824</ele>
        <time>2026-06-17T13:17:18.000Z</time>
      </trkpt>
      <trkpt lat="48.62443" lon="1.56157">
        <ele>107.19999694824</ele>
        <time>2026-06-17T13:17:19.000Z</time>
      </trkpt>
      <trkpt lat="48.62457" lon="1.56141">
        <ele>107</ele>
        <time>2026-06-17T13:17:22.000Z</time>
      </trkpt>
      <trkpt lat="48.62475" lon="1.56105">
        <ele>107.19999694824</ele>
        <time>2026-06-17T13:17:27.000Z</time>
      </trkpt>
      <trkpt lat="48.62498" lon="1.56057">
        <ele>107.19999694824</ele>
        <time>2026-06-17T13:17:34.000Z</time>
      </trkpt>
      <trkpt lat="48.62502" lon="1.56051">
        <ele>107.19999694824</ele>
        <time>2026-06-17T13:17:35.000Z</time>
      </trkpt>
      <trkpt lat="48.6252" lon="1.56028">
        <ele>107</ele>
        <time>2026-06-17T13:17:39.000Z</time>
      </trkpt>
      <trkpt lat="48.62531" lon="1.56017">
        <ele>106.59999847412</ele>
        <time>2026-06-17T13:17:41.000Z</time>
      </trkpt>
      <trkpt lat="48.62552" lon="1.56003">
        <ele>106.40000152588</ele>
        <time>2026-06-17T13:17:45.000Z</time>
      </trkpt>
      <trkpt lat="48.62587" lon="1.55981">
        <ele>106.40000152588</ele>
        <time>2026-06-17T13:17:52.000Z</time>
      </trkpt>
      <trkpt lat="48.62635" lon="1.55953">
        <ele>106</ele>
        <time>2026-06-17T13:18:01.000Z</time>
      </trkpt>
      <trkpt lat="48.62677" lon="1.55935">
        <ele>106.59999847412</ele>
        <time>2026-06-17T13:18:09.000Z</time>
      </trkpt>
      <trkpt lat="48.62722" lon="1.55919">
        <ele>107.59999847412</ele>
        <time>2026-06-17T13:18:18.000Z</time>
      </trkpt>
      <trkpt lat="48.62765" lon="1.55907">
        <ele>107.80000305176</ele>
        <time>2026-06-17T13:18:26.000Z</time>
      </trkpt>
      <trkpt lat="48.62821" lon="1.55895">
        <ele>107.59999847412</ele>
        <time>2026-06-17T13:18:36.000Z</time>
      </trkpt>
      <trkpt lat="48.62862" lon="1.55887">
        <ele>107.19999694824</ele>
        <time>2026-06-17T13:18:43.000Z</time>
      </trkpt>
      <trkpt lat="48.62899" lon="1.55888">
        <ele>107.40000152588</ele>
        <time>2026-06-17T13:18:49.000Z</time>
      </trkpt>
      <trkpt lat="48.62923" lon="1.55875">
        <ele>107.19999694824</ele>
        <time>2026-06-17T13:18:53.000Z</time>
      </trkpt>
      <trkpt lat="48.62958" lon="1.55854">
        <ele>106.80000305176</ele>
        <time>2026-06-17T13:18:59.000Z</time>
      </trkpt>
      <trkpt lat="48.62977" lon="1.55846">
        <ele>106.59999847412</ele>
        <time>2026-06-17T13:19:02.000Z</time>
      </trkpt>
      <trkpt lat="48.63006" lon="1.55837">
        <ele>106.40000152588</ele>
        <time>2026-06-17T13:19:07.000Z</time>
      </trkpt>
      <trkpt lat="48.6305" lon="1.55824">
        <ele>106.19999694824</ele>
        <time>2026-06-17T13:19:14.000Z</time>
      </trkpt>
      <trkpt lat="48.63103" lon="1.55805">
        <ele>106</ele>
        <time>2026-06-17T13:19:23.000Z</time>
      </trkpt>
      <trkpt lat="48.63117" lon="1.55802">
        <ele>105.80000305176</ele>
        <time>2026-06-17T13:19:25.000Z</time>
      </trkpt>
      <trkpt lat="48.63168" lon="1.55787">
        <ele>105.59999847412</ele>
        <time>2026-06-17T13:19:33.000Z</time>
      </trkpt>
      <trkpt lat="48.63201" lon="1.55778">
        <ele>105.59999847412</ele>
        <time>2026-06-17T13:19:38.000Z</time>
      </trkpt>
      <trkpt lat="48.6322" lon="1.55774">
        <ele>105.59999847412</ele>
        <time>2026-06-17T13:19:41.000Z</time>
      </trkpt>
      <trkpt lat="48.63274" lon="1.55765">
        <ele>105.40000152588</ele>
        <time>2026-06-17T13:19:49.000Z</time>
      </trkpt>
      <trkpt lat="48.63287" lon="1.55765">
        <ele>105.19999694824</ele>
        <time>2026-06-17T13:19:51.000Z</time>
      </trkpt>
      <trkpt lat="48.63337" lon="1.55764">
        <ele>105</ele>
        <time>2026-06-17T13:19:59.000Z</time>
      </trkpt>
      <trkpt lat="48.63388" lon="1.55759">
        <ele>104.80000305176</ele>
        <time>2026-06-17T13:20:07.000Z</time>
      </trkpt>
      <trkpt lat="48.63432" lon="1.55752">
        <ele>104.40000152588</ele>
        <time>2026-06-17T13:20:13.000Z</time>
      </trkpt>
      <trkpt lat="48.63469" lon="1.55745">
        <ele>104.40000152588</ele>
        <time>2026-06-17T13:20:19.000Z</time>
      </trkpt>
      <trkpt lat="48.63513" lon="1.55734">
        <ele>104.19999694824</ele>
        <time>2026-06-17T13:20:26.000Z</time>
      </trkpt>
      <trkpt lat="48.63541" lon="1.55727">
        <ele>104.19999694824</ele>
        <time>2026-06-17T13:20:31.000Z</time>
      </trkpt>
      <trkpt lat="48.63581" lon="1.5571">
        <ele>104.40000152588</ele>
        <time>2026-06-17T13:20:38.000Z</time>
      </trkpt>
      <trkpt lat="48.63627" lon="1.55679">
        <ele>104.40000152588</ele>
        <time>2026-06-17T13:20:46.000Z</time>
      </trkpt>
      <trkpt lat="48.63661" lon="1.55656">
        <ele>104.40000152588</ele>
        <time>2026-06-17T13:20:52.000Z</time>
      </trkpt>
      <trkpt lat="48.63666" lon="1.55652">
        <ele>104.40000152588</ele>
        <time>2026-06-17T13:20:53.000Z</time>
      </trkpt>
      <trkpt lat="48.63704" lon="1.55631">
        <ele>104.40000152588</ele>
        <time>2026-06-17T13:20:59.000Z</time>
      </trkpt>
      <trkpt lat="48.63711" lon="1.55627">
        <ele>104.19999694824</ele>
        <time>2026-06-17T13:21:00.000Z</time>
      </trkpt>
      <trkpt lat="48.63734" lon="1.55615">
        <ele>104.19999694824</ele>
        <time>2026-06-17T13:21:04.000Z</time>
      </trkpt>
      <trkpt lat="48.63776" lon="1.55578">
        <ele>104.19999694824</ele>
        <time>2026-06-17T13:21:12.000Z</time>
      </trkpt>
      <trkpt lat="48.63822" lon="1.55548">
        <ele>104</ele>
        <time>2026-06-17T13:21:20.000Z</time>
      </trkpt>
      <trkpt lat="48.6386" lon="1.55518">
        <ele>104.19999694824</ele>
        <time>2026-06-17T13:21:27.000Z</time>
      </trkpt>
      <trkpt lat="48.63897" lon="1.55488">
        <ele>104</ele>
        <time>2026-06-17T13:21:34.000Z</time>
      </trkpt>
      <trkpt lat="48.63932" lon="1.5546">
        <ele>104.19999694824</ele>
        <time>2026-06-17T13:21:41.000Z</time>
      </trkpt>
      <trkpt lat="48.63981" lon="1.55421">
        <ele>104.19999694824</ele>
        <time>2026-06-17T13:21:51.000Z</time>
      </trkpt>
      <trkpt lat="48.64028" lon="1.55389">
        <ele>104</ele>
        <time>2026-06-17T13:22:00.000Z</time>
      </trkpt>
      <trkpt lat="48.64077" lon="1.55353">
        <ele>104.19999694824</ele>
        <time>2026-06-17T13:22:09.000Z</time>
      </trkpt>
      <trkpt lat="48.64082" lon="1.55348">
        <ele>104.19999694824</ele>
        <time>2026-06-17T13:22:10.000Z</time>
      </trkpt>
      <trkpt lat="48.64117" lon="1.55314">
        <ele>104.19999694824</ele>
        <time>2026-06-17T13:22:17.000Z</time>
      </trkpt>
      <trkpt lat="48.64154" lon="1.55279">
        <ele>104</ele>
        <time>2026-06-17T13:22:24.000Z</time>
      </trkpt>
      <trkpt lat="48.64185" lon="1.55252">
        <ele>104</ele>
        <time>2026-06-17T13:22:30.000Z</time>
      </trkpt>
      <trkpt lat="48.6419" lon="1.55247">
        <ele>103.59999847412</ele>
        <time>2026-06-17T13:22:31.000Z</time>
      </trkpt>
      <trkpt lat="48.64195" lon="1.55242">
        <ele>103.59999847412</ele>
        <time>2026-06-17T13:22:32.000Z</time>
      </trkpt>
      <trkpt lat="48.64221" lon="1.55215">
        <ele>103.40000152588</ele>
        <time>2026-06-17T13:22:37.000Z</time>
      </trkpt>
      <trkpt lat="48.64269" lon="1.55169">
        <ele>103.40000152588</ele>
        <time>2026-06-17T13:22:46.000Z</time>
      </trkpt>
      <trkpt lat="48.64295" lon="1.55145">
        <ele>103.19999694824</ele>
        <time>2026-06-17T13:22:51.000Z</time>
      </trkpt>
      <trkpt lat="48.64305" lon="1.55136">
        <ele>103.19999694824</ele>
        <time>2026-06-17T13:22:53.000Z</time>
      </trkpt>
      <trkpt lat="48.64345" lon="1.55092">
        <ele>103.19999694824</ele>
        <time>2026-06-17T13:23:01.000Z</time>
      </trkpt>
      <trkpt lat="48.64368" lon="1.55065">
        <ele>103.19999694824</ele>
        <time>2026-06-17T13:23:06.000Z</time>
      </trkpt>
      <trkpt lat="48.64375" lon="1.55053">
        <ele>103.19999694824</ele>
        <time>2026-06-17T13:23:08.000Z</time>
      </trkpt>
      <trkpt lat="48.64377" lon="1.55029">
        <ele>103.19999694824</ele>
        <time>2026-06-17T13:23:11.000Z</time>
      </trkpt>
      <trkpt lat="48.64376" lon="1.55022">
        <ele>103.19999694824</ele>
        <time>2026-06-17T13:23:12.000Z</time>
      </trkpt>
      <trkpt lat="48.64375" lon="1.55014">
        <ele>103.19999694824</ele>
        <time>2026-06-17T13:23:13.000Z</time>
      </trkpt>
      <trkpt lat="48.64369" lon="1.55001">
        <ele>103.19999694824</ele>
        <time>2026-06-17T13:23:15.000Z</time>
      </trkpt>
      <trkpt lat="48.64366" lon="1.54996">
        <ele>103.19999694824</ele>
        <time>2026-06-17T13:23:16.000Z</time>
      </trkpt>
      <trkpt lat="48.64361" lon="1.54991">
        <ele>103.19999694824</ele>
        <time>2026-06-17T13:23:17.000Z</time>
      </trkpt>
      <trkpt lat="48.64342" lon="1.54976">
        <ele>103.19999694824</ele>
        <time>2026-06-17T13:23:21.000Z</time>
      </trkpt>
      <trkpt lat="48.64328" lon="1.54965">
        <ele>103</ele>
        <time>2026-06-17T13:23:24.000Z</time>
      </trkpt>
      <trkpt lat="48.64318" lon="1.54952">
        <ele>103</ele>
        <time>2026-06-17T13:23:26.000Z</time>
      </trkpt>
      <trkpt lat="48.64291" lon="1.54894">
        <ele>103</ele>
        <time>2026-06-17T13:23:34.000Z</time>
      </trkpt>
      <trkpt lat="48.64268" lon="1.54844">
        <ele>103</ele>
        <time>2026-06-17T13:23:41.000Z</time>
      </trkpt>
      <trkpt lat="48.64263" lon="1.54832">
        <ele>102.80000305176</ele>
        <time>2026-06-17T13:23:43.000Z</time>
      </trkpt>
      <trkpt lat="48.64242" lon="1.54787">
        <ele>102.80000305176</ele>
        <time>2026-06-17T13:23:50.000Z</time>
      </trkpt>
      <trkpt lat="48.64238" lon="1.54773">
        <ele>103</ele>
        <time>2026-06-17T13:23:52.000Z</time>
      </trkpt>
      <trkpt lat="48.64236" lon="1.54759">
        <ele>103</ele>
        <time>2026-06-17T13:23:54.000Z</time>
      </trkpt>
      <trkpt lat="48.64237" lon="1.54749">
        <ele>103</ele>
        <time>2026-06-17T13:23:55.000Z</time>
      </trkpt>
      <trkpt lat="48.64238" lon="1.54743">
        <ele>103</ele>
        <time>2026-06-17T13:23:56.000Z</time>
      </trkpt>
      <trkpt lat="48.64246" lon="1.5472">
        <ele>103</ele>
        <time>2026-06-17T13:23:59.000Z</time>
      </trkpt>
      <trkpt lat="48.64271" lon="1.54681">
        <ele>103</ele>
        <time>2026-06-17T13:24:06.000Z</time>
      </trkpt>
      <trkpt lat="48.64302" lon="1.54646">
        <ele>103</ele>
        <time>2026-06-17T13:24:13.000Z</time>
      </trkpt>
      <trkpt lat="48.64345" lon="1.54595">
        <ele>102.80000305176</ele>
        <time>2026-06-17T13:24:22.000Z</time>
      </trkpt>
      <trkpt lat="48.64381" lon="1.54536">
        <ele>102.80000305176</ele>
        <time>2026-06-17T13:24:32.000Z</time>
      </trkpt>
      <trkpt lat="48.64414" lon="1.54475">
        <ele>103</ele>
        <time>2026-06-17T13:24:41.000Z</time>
      </trkpt>
      <trkpt lat="48.64446" lon="1.54437">
        <ele>102.80000305176</ele>
        <time>2026-06-17T13:24:48.000Z</time>
      </trkpt>
      <trkpt lat="48.64495" lon="1.54387">
        <ele>102.80000305176</ele>
        <time>2026-06-17T13:24:58.000Z</time>
      </trkpt>
      <trkpt lat="48.64546" lon="1.54344">
        <ele>102.80000305176</ele>
        <time>2026-06-17T13:25:08.000Z</time>
      </trkpt>
      <trkpt lat="48.64552" lon="1.54341">
        <ele>102.80000305176</ele>
        <time>2026-06-17T13:25:09.000Z</time>
      </trkpt>
      <trkpt lat="48.64569" lon="1.5433">
        <ele>102.80000305176</ele>
        <time>2026-06-17T13:25:12.000Z</time>
      </trkpt>
      <trkpt lat="48.64578" lon="1.54318">
        <ele>102.80000305176</ele>
        <time>2026-06-17T13:25:14.000Z</time>
      </trkpt>
      <trkpt lat="48.64583" lon="1.54303">
        <ele>102.80000305176</ele>
        <time>2026-06-17T13:25:16.000Z</time>
      </trkpt>
      <trkpt lat="48.64584" lon="1.54296">
        <ele>103</ele>
        <time>2026-06-17T13:25:17.000Z</time>
      </trkpt>
      <trkpt lat="48.64584" lon="1.54289">
        <ele>103</ele>
        <time>2026-06-17T13:25:18.000Z</time>
      </trkpt>
      <trkpt lat="48.64584" lon="1.5427">
        <ele>103.40000152588</ele>
        <time>2026-06-17T13:25:21.000Z</time>
      </trkpt>
      <trkpt lat="48.64584" lon="1.54256">
        <ele>103.80000305176</ele>
        <time>2026-06-17T13:25:24.000Z</time>
      </trkpt>
      <trkpt lat="48.64584" lon="1.54247">
        <ele>104</ele>
        <time>2026-06-17T13:25:26.000Z</time>
      </trkpt>
      <trkpt lat="48.64583" lon="1.54237">
        <ele>104.19999694824</ele>
        <time>2026-06-17T13:25:28.000Z</time>
      </trkpt>
      <trkpt lat="48.64586" lon="1.54214">
        <ele>104</ele>
        <time>2026-06-17T13:25:32.000Z</time>
      </trkpt>
      <trkpt lat="48.64593" lon="1.54167">
        <ele>103.59999847412</ele>
        <time>2026-06-17T13:25:39.000Z</time>
      </trkpt>
      <trkpt lat="48.64606" lon="1.54125">
        <ele>103.59999847412</ele>
        <time>2026-06-17T13:25:45.000Z</time>
      </trkpt>
      <trkpt lat="48.64619" lon="1.54104">
        <ele>103.59999847412</ele>
        <time>2026-06-17T13:25:49.000Z</time>
      </trkpt>
      <trkpt lat="48.64621" lon="1.54098">
        <ele>103.59999847412</ele>
        <time>2026-06-17T13:25:50.000Z</time>
      </trkpt>
      <trkpt lat="48.6462" lon="1.54092">
        <ele>103.59999847412</ele>
        <time>2026-06-17T13:25:51.000Z</time>
      </trkpt>
      <trkpt lat="48.64618" lon="1.5408">
        <ele>103.40000152588</ele>
        <time>2026-06-17T13:25:53.000Z</time>
      </trkpt>
      <trkpt lat="48.64619" lon="1.54068">
        <ele>103.40000152588</ele>
        <time>2026-06-17T13:25:55.000Z</time>
      </trkpt>
      <trkpt lat="48.64626" lon="1.54048">
        <ele>103.40000152588</ele>
        <time>2026-06-17T13:25:58.000Z</time>
      </trkpt>
      <trkpt lat="48.64632" lon="1.54035">
        <ele>103.19999694824</ele>
        <time>2026-06-17T13:26:00.000Z</time>
      </trkpt>
      <trkpt lat="48.6465" lon="1.54">
        <ele>103</ele>
        <time>2026-06-17T13:26:06.000Z</time>
      </trkpt>
      <trkpt lat="48.64672" lon="1.53958">
        <ele>102.80000305176</ele>
        <time>2026-06-17T13:26:14.000Z</time>
      </trkpt>
      <trkpt lat="48.64678" lon="1.53948">
        <ele>102.59999847412</ele>
        <time>2026-06-17T13:26:16.000Z</time>
      </trkpt>
      <trkpt lat="48.6469" lon="1.53924">
        <ele>102.40000152588</ele>
        <time>2026-06-17T13:26:20.000Z</time>
      </trkpt>
      <trkpt lat="48.64696" lon="1.53904">
        <ele>102.40000152588</ele>
        <time>2026-06-17T13:26:25.000Z</time>
      </trkpt>
      <trkpt lat="48.64693" lon="1.53892">
        <ele>102.19999694824</ele>
        <time>2026-06-17T13:26:28.000Z</time>
      </trkpt>
      <trkpt lat="48.64693" lon="1.53888">
        <ele>102.19999694824</ele>
        <time>2026-06-17T13:26:29.000Z</time>
      </trkpt>
      <trkpt lat="48.647" lon="1.53873">
        <ele>102</ele>
        <time>2026-06-17T13:26:33.000Z</time>
      </trkpt>
      <trkpt lat="48.64719" lon="1.53846">
        <ele>102</ele>
        <time>2026-06-17T13:26:39.000Z</time>
      </trkpt>
      <trkpt lat="48.64725" lon="1.53834">
        <ele>102</ele>
        <time>2026-06-17T13:26:41.000Z</time>
      </trkpt>
      <trkpt lat="48.64731" lon="1.53821">
        <ele>102</ele>
        <time>2026-06-17T13:26:43.000Z</time>
      </trkpt>
      <trkpt lat="48.64735" lon="1.53814">
        <ele>102</ele>
        <time>2026-06-17T13:26:44.000Z</time>
      </trkpt>
      <trkpt lat="48.64748" lon="1.53788">
        <ele>102.19999694824</ele>
        <time>2026-06-17T13:26:48.000Z</time>
      </trkpt>
      <trkpt lat="48.64754" lon="1.53775">
        <ele>102.19999694824</ele>
        <time>2026-06-17T13:26:50.000Z</time>
      </trkpt>
      <trkpt lat="48.64781" lon="1.53723">
        <ele>102.40000152588</ele>
        <time>2026-06-17T13:26:58.000Z</time>
      </trkpt>
      <trkpt lat="48.64789" lon="1.53706">
        <ele>102.40000152588</ele>
        <time>2026-06-17T13:27:01.000Z</time>
      </trkpt>
      <trkpt lat="48.64793" lon="1.53698">
        <ele>102.40000152588</ele>
        <time>2026-06-17T13:27:03.000Z</time>
      </trkpt>
      <trkpt lat="48.64802" lon="1.53679">
        <ele>102.19999694824</ele>
        <time>2026-06-17T13:27:09.000Z</time>
      </trkpt>
      <trkpt lat="48.64805" lon="1.53667">
        <ele>101.80000305176</ele>
        <time>2026-06-17T13:27:14.000Z</time>
      </trkpt>
      <trkpt lat="48.64805" lon="1.53664">
        <ele>101.80000305176</ele>
        <time>2026-06-17T13:27:15.000Z</time>
      </trkpt>
      <trkpt lat="48.64801" lon="1.53654">
        <ele>101.80000305176</ele>
        <time>2026-06-17T13:27:18.000Z</time>
      </trkpt>
      <trkpt lat="48.64799" lon="1.53642">
        <ele>101.80000305176</ele>
        <time>2026-06-17T13:27:21.000Z</time>
      </trkpt>
      <trkpt lat="48.648" lon="1.53639">
        <ele>101.80000305176</ele>
        <time>2026-06-17T13:27:22.000Z</time>
      </trkpt>
      <trkpt lat="48.64803" lon="1.53616">
        <ele>102</ele>
        <time>2026-06-17T13:27:26.000Z</time>
      </trkpt>
      <trkpt lat="48.64805" lon="1.53601">
        <ele>101.80000305176</ele>
        <time>2026-06-17T13:27:28.000Z</time>
      </trkpt>
      <trkpt lat="48.64806" lon="1.53579">
        <ele>101.80000305176</ele>
        <time>2026-06-17T13:27:31.000Z</time>
      </trkpt>
      <trkpt lat="48.64807" lon="1.53572">
        <ele>101.80000305176</ele>
        <time>2026-06-17T13:27:32.000Z</time>
      </trkpt>
      <trkpt lat="48.64809" lon="1.53553">
        <ele>101.80000305176</ele>
        <time>2026-06-17T13:27:35.000Z</time>
      </trkpt>
      <trkpt lat="48.64808" lon="1.53535">
        <ele>101.80000305176</ele>
        <time>2026-06-17T13:27:37.000Z</time>
      </trkpt>
      <trkpt lat="48.64808" lon="1.53528">
        <ele>101.80000305176</ele>
        <time>2026-06-17T13:27:38.000Z</time>
      </trkpt>
      <trkpt lat="48.6481" lon="1.53498">
        <ele>102</ele>
        <time>2026-06-17T13:27:42.000Z</time>
      </trkpt>
      <trkpt lat="48.64809" lon="1.5349">
        <ele>102</ele>
        <time>2026-06-17T13:27:43.000Z</time>
      </trkpt>
      <trkpt lat="48.6481" lon="1.53475">
        <ele>102.19999694824</ele>
        <time>2026-06-17T13:27:45.000Z</time>
      </trkpt>
      <trkpt lat="48.64811" lon="1.53461">
        <ele>102.19999694824</ele>
        <time>2026-06-17T13:27:47.000Z</time>
      </trkpt>
      <trkpt lat="48.64812" lon="1.53453">
        <ele>102.19999694824</ele>
        <time>2026-06-17T13:27:48.000Z</time>
      </trkpt>
      <trkpt lat="48.64817" lon="1.53417">
        <ele>102.40000152588</ele>
        <time>2026-06-17T13:27:54.000Z</time>
      </trkpt>
      <trkpt lat="48.64822" lon="1.53387">
        <ele>102.80000305176</ele>
        <time>2026-06-17T13:28:00.000Z</time>
      </trkpt>
      <trkpt lat="48.64827" lon="1.53332">
        <ele>103.19999694824</ele>
        <time>2026-06-17T13:28:09.000Z</time>
      </trkpt>
      <trkpt lat="48.64825" lon="1.53321">
        <ele>103.19999694824</ele>
        <time>2026-06-17T13:28:11.000Z</time>
      </trkpt>
      <trkpt lat="48.64822" lon="1.53314">
        <ele>103.40000152588</ele>
        <time>2026-06-17T13:28:12.000Z</time>
      </trkpt>
      <trkpt lat="48.6482" lon="1.5331">
        <ele>103.40000152588</ele>
        <time>2026-06-17T13:28:13.000Z</time>
      </trkpt>
      <trkpt lat="48.64813" lon="1.53304">
        <ele>103.40000152588</ele>
        <time>2026-06-17T13:28:15.000Z</time>
      </trkpt>
      <trkpt lat="48.64809" lon="1.53302">
        <ele>103.40000152588</ele>
        <time>2026-06-17T13:28:16.000Z</time>
      </trkpt>
      <trkpt lat="48.64803" lon="1.53295">
        <ele>103.40000152588</ele>
        <time>2026-06-17T13:28:18.000Z</time>
      </trkpt>
      <trkpt lat="48.64802" lon="1.53289">
        <ele>103.40000152588</ele>
        <time>2026-06-17T13:28:19.000Z</time>
      </trkpt>
      <trkpt lat="48.64804" lon="1.53275">
        <ele>103.40000152588</ele>
        <time>2026-06-17T13:28:21.000Z</time>
      </trkpt>
      <trkpt lat="48.64807" lon="1.53265">
        <ele>103.40000152588</ele>
        <time>2026-06-17T13:28:23.000Z</time>
      </trkpt>
      <trkpt lat="48.64812" lon="1.53249">
        <ele>103</ele>
        <time>2026-06-17T13:28:28.000Z</time>
      </trkpt>
      <trkpt lat="48.64812" lon="1.53246">
        <ele>103</ele>
        <time>2026-06-17T13:28:33.000Z</time>
      </trkpt>
      <trkpt lat="48.64812" lon="1.53246">
        <ele>103.40000152588</ele>
        <time>2026-06-17T13:28:36.000Z</time>
      </trkpt>
      <trkpt lat="48.64812" lon="1.53246">
        <ele>103.40000152588</ele>
        <time>2026-06-17T13:28:39.000Z</time>
      </trkpt>
      <trkpt lat="48.64812" lon="1.53246">
        <ele>103.59999847412</ele>
        <time>2026-06-17T13:28:42.000Z</time>
      </trkpt>
      <trkpt lat="48.64813" lon="1.53245">
        <ele>103.80000305176</ele>
        <time>2026-06-17T13:28:55.000Z</time>
      </trkpt>
      <trkpt lat="48.64813" lon="1.53245">
        <ele>104.19999694824</ele>
        <time>2026-06-17T13:29:08.000Z</time>
      </trkpt>
      <trkpt lat="48.64814" lon="1.5324">
        <ele>104.19999694824</ele>
        <time>2026-06-17T13:29:14.000Z</time>
      </trkpt>
      <trkpt lat="48.64819" lon="1.53224">
        <ele>104</ele>
        <time>2026-06-17T13:29:17.000Z</time>
      </trkpt>
      <trkpt lat="48.64827" lon="1.53203">
        <ele>104</ele>
        <time>2026-06-17T13:29:20.000Z</time>
      </trkpt>
      <trkpt lat="48.64828" lon="1.53195">
        <ele>103.80000305176</ele>
        <time>2026-06-17T13:29:21.000Z</time>
      </trkpt>
      <trkpt lat="48.64832" lon="1.53178">
        <ele>103.80000305176</ele>
        <time>2026-06-17T13:29:23.000Z</time>
      </trkpt>
      <trkpt lat="48.64838" lon="1.53154">
        <ele>103.80000305176</ele>
        <time>2026-06-17T13:29:26.000Z</time>
      </trkpt>
      <trkpt lat="48.64839" lon="1.53146">
        <ele>103.80000305176</ele>
        <time>2026-06-17T13:29:27.000Z</time>
      </trkpt>
      <trkpt lat="48.6484" lon="1.5313">
        <ele>103.59999847412</ele>
        <time>2026-06-17T13:29:29.000Z</time>
      </trkpt>
      <trkpt lat="48.64844" lon="1.53114">
        <ele>103.40000152588</ele>
        <time>2026-06-17T13:29:31.000Z</time>
      </trkpt>
      <trkpt lat="48.64848" lon="1.53091">
        <ele>103.19999694824</ele>
        <time>2026-06-17T13:29:34.000Z</time>
      </trkpt>
      <trkpt lat="48.64855" lon="1.53081">
        <ele>103</ele>
        <time>2026-06-17T13:29:36.000Z</time>
      </trkpt>
      <trkpt lat="48.64859" lon="1.53075">
        <ele>103</ele>
        <time>2026-06-17T13:29:37.000Z</time>
      </trkpt>
      <trkpt lat="48.64878" lon="1.53042">
        <ele>102.80000305176</ele>
        <time>2026-06-17T13:29:42.000Z</time>
      </trkpt>
      <trkpt lat="48.64889" lon="1.53014">
        <ele>102.59999847412</ele>
        <time>2026-06-17T13:29:46.000Z</time>
      </trkpt>
      <trkpt lat="48.64891" lon="1.53007">
        <ele>102.40000152588</ele>
        <time>2026-06-17T13:29:47.000Z</time>
      </trkpt>
      <trkpt lat="48.64893" lon="1.52999">
        <ele>102.40000152588</ele>
        <time>2026-06-17T13:29:48.000Z</time>
      </trkpt>
      <trkpt lat="48.64897" lon="1.52984">
        <ele>102.40000152588</ele>
        <time>2026-06-17T13:29:50.000Z</time>
      </trkpt>
      <trkpt lat="48.64901" lon="1.5297">
        <ele>102.19999694824</ele>
        <time>2026-06-17T13:29:52.000Z</time>
      </trkpt>
      <trkpt lat="48.64918" lon="1.52912">
        <ele>102.19999694824</ele>
        <time>2026-06-17T13:30:00.000Z</time>
      </trkpt>
      <trkpt lat="48.6492" lon="1.52904">
        <ele>102.19999694824</ele>
        <time>2026-06-17T13:30:01.000Z</time>
      </trkpt>
      <trkpt lat="48.64922" lon="1.52887">
        <ele>102.19999694824</ele>
        <time>2026-06-17T13:30:03.000Z</time>
      </trkpt>
      <trkpt lat="48.64924" lon="1.52861">
        <ele>102.19999694824</ele>
        <time>2026-06-17T13:30:06.000Z</time>
      </trkpt>
      <trkpt lat="48.64924" lon="1.52853">
        <ele>102.19999694824</ele>
        <time>2026-06-17T13:30:07.000Z</time>
      </trkpt>
      <trkpt lat="48.64924" lon="1.52846">
        <ele>102</ele>
        <time>2026-06-17T13:30:08.000Z</time>
      </trkpt>
      <trkpt lat="48.64919" lon="1.52832">
        <ele>102</ele>
        <time>2026-06-17T13:30:10.000Z</time>
      </trkpt>
      <trkpt lat="48.64916" lon="1.52825">
        <ele>102</ele>
        <time>2026-06-17T13:30:11.000Z</time>
      </trkpt>
      <trkpt lat="48.64907" lon="1.52801">
        <ele>102</ele>
        <time>2026-06-17T13:30:16.000Z</time>
      </trkpt>
      <trkpt lat="48.64904" lon="1.52791">
        <ele>102</ele>
        <time>2026-06-17T13:30:18.000Z</time>
      </trkpt>
      <trkpt lat="48.64908" lon="1.5278">
        <ele>102</ele>
        <time>2026-06-17T13:30:20.000Z</time>
      </trkpt>
      <trkpt lat="48.64921" lon="1.52768">
        <ele>102</ele>
        <time>2026-06-17T13:30:23.000Z</time>
      </trkpt>
      <trkpt lat="48.64949" lon="1.52739">
        <ele>101.59999847412</ele>
        <time>2026-06-17T13:30:29.000Z</time>
      </trkpt>
      <trkpt lat="48.64956" lon="1.52726">
        <ele>101.40000152588</ele>
        <time>2026-06-17T13:30:31.000Z</time>
      </trkpt>
      <trkpt lat="48.64974" lon="1.52691">
        <ele>101.19999694824</ele>
        <time>2026-06-17T13:30:36.000Z</time>
      </trkpt>
      <trkpt lat="48.65012" lon="1.52629">
        <ele>100.80000305176</ele>
        <time>2026-06-17T13:30:46.000Z</time>
      </trkpt>
      <trkpt lat="48.65015" lon="1.52623">
        <ele>100.80000305176</ele>
        <time>2026-06-17T13:30:47.000Z</time>
      </trkpt>
      <trkpt lat="48.65041" lon="1.52581">
        <ele>100.80000305176</ele>
        <time>2026-06-17T13:30:54.000Z</time>
      </trkpt>
      <trkpt lat="48.65069" lon="1.5254">
        <ele>101.19999694824</ele>
        <time>2026-06-17T13:31:02.000Z</time>
      </trkpt>
      <trkpt lat="48.6511" lon="1.52503">
        <ele>101</ele>
        <time>2026-06-17T13:31:11.000Z</time>
      </trkpt>
      <trkpt lat="48.65142" lon="1.52474">
        <ele>100.59999847412</ele>
        <time>2026-06-17T13:31:19.000Z</time>
      </trkpt>
      <trkpt lat="48.65177" lon="1.52441">
        <ele>100.40000152588</ele>
        <time>2026-06-17T13:31:27.000Z</time>
      </trkpt>
      <trkpt lat="48.65197" lon="1.52412">
        <ele>100.59999847412</ele>
        <time>2026-06-17T13:31:32.000Z</time>
      </trkpt>
      <trkpt lat="48.652" lon="1.52405">
        <ele>100.59999847412</ele>
        <time>2026-06-17T13:31:33.000Z</time>
      </trkpt>
      <trkpt lat="48.65203" lon="1.52397">
        <ele>100.80000305176</ele>
        <time>2026-06-17T13:31:34.000Z</time>
      </trkpt>
      <trkpt lat="48.65214" lon="1.52357">
        <ele>100.80000305176</ele>
        <time>2026-06-17T13:31:39.000Z</time>
      </trkpt>
      <trkpt lat="48.6523" lon="1.52317">
        <ele>100.59999847412</ele>
        <time>2026-06-17T13:31:45.000Z</time>
      </trkpt>
      <trkpt lat="48.65232" lon="1.5231">
        <ele>100.59999847412</ele>
        <time>2026-06-17T13:31:46.000Z</time>
      </trkpt>
      <trkpt lat="48.65244" lon="1.52273">
        <ele>100.40000152588</ele>
        <time>2026-06-17T13:31:51.000Z</time>
      </trkpt>
      <trkpt lat="48.6525" lon="1.52258">
        <ele>100.40000152588</ele>
        <time>2026-06-17T13:31:54.000Z</time>
      </trkpt>
      <trkpt lat="48.65253" lon="1.52253">
        <ele>100.40000152588</ele>
        <time>2026-06-17T13:31:55.000Z</time>
      </trkpt>
      <trkpt lat="48.65266" lon="1.52239">
        <ele>100.59999847412</ele>
        <time>2026-06-17T13:31:58.000Z</time>
      </trkpt>
      <trkpt lat="48.6527" lon="1.52235">
        <ele>100.59999847412</ele>
        <time>2026-06-17T13:31:59.000Z</time>
      </trkpt>
      <trkpt lat="48.65278" lon="1.52224">
        <ele>100.59999847412</ele>
        <time>2026-06-17T13:32:01.000Z</time>
      </trkpt>
      <trkpt lat="48.65285" lon="1.52213">
        <ele>100.59999847412</ele>
        <time>2026-06-17T13:32:03.000Z</time>
      </trkpt>
      <trkpt lat="48.65292" lon="1.52202">
        <ele>100.59999847412</ele>
        <time>2026-06-17T13:32:05.000Z</time>
      </trkpt>
      <trkpt lat="48.65302" lon="1.52182">
        <ele>100.80000305176</ele>
        <time>2026-06-17T13:32:08.000Z</time>
      </trkpt>
      <trkpt lat="48.65319" lon="1.52135">
        <ele>101.59999847412</ele>
        <time>2026-06-17T13:32:15.000Z</time>
      </trkpt>
      <trkpt lat="48.65325" lon="1.52122">
        <ele>101.59999847412</ele>
        <time>2026-06-17T13:32:17.000Z</time>
      </trkpt>
      <trkpt lat="48.65341" lon="1.521">
        <ele>102.19999694824</ele>
        <time>2026-06-17T13:32:21.000Z</time>
      </trkpt>
      <trkpt lat="48.65348" lon="1.52089">
        <ele>102.19999694824</ele>
        <time>2026-06-17T13:32:23.000Z</time>
      </trkpt>
      <trkpt lat="48.65354" lon="1.52075">
        <ele>102.40000152588</ele>
        <time>2026-06-17T13:32:25.000Z</time>
      </trkpt>
      <trkpt lat="48.65356" lon="1.52068">
        <ele>102.40000152588</ele>
        <time>2026-06-17T13:32:26.000Z</time>
      </trkpt>
      <trkpt lat="48.6537" lon="1.52017">
        <ele>102.19999694824</ele>
        <time>2026-06-17T13:32:31.000Z</time>
      </trkpt>
      <trkpt lat="48.65373" lon="1.52009">
        <ele>102.19999694824</ele>
        <time>2026-06-17T13:32:33.000Z</time>
      </trkpt>
      <trkpt lat="48.65399" lon="1.51954">
        <ele>101.19999694824</ele>
        <time>2026-06-17T13:32:40.000Z</time>
      </trkpt>
      <trkpt lat="48.65429" lon="1.51898">
        <ele>100.80000305176</ele>
        <time>2026-06-17T13:32:48.000Z</time>
      </trkpt>
      <trkpt lat="48.65446" lon="1.51874">
        <ele>100.59999847412</ele>
        <time>2026-06-17T13:32:52.000Z</time>
      </trkpt>
      <trkpt lat="48.65464" lon="1.51851">
        <ele>100.59999847412</ele>
        <time>2026-06-17T13:32:56.000Z</time>
      </trkpt>
      <trkpt lat="48.65495" lon="1.51794">
        <ele>100.80000305176</ele>
        <time>2026-06-17T13:33:03.000Z</time>
      </trkpt>
      <trkpt lat="48.65529" lon="1.51724">
        <ele>101</ele>
        <time>2026-06-17T13:33:12.000Z</time>
      </trkpt>
      <trkpt lat="48.65532" lon="1.51717">
        <ele>101</ele>
        <time>2026-06-17T13:33:13.000Z</time>
      </trkpt>
      <trkpt lat="48.65553" lon="1.51676">
        <ele>100.80000305176</ele>
        <time>2026-06-17T13:33:19.000Z</time>
      </trkpt>
      <trkpt lat="48.65573" lon="1.51636">
        <ele>100.59999847412</ele>
        <time>2026-06-17T13:33:25.000Z</time>
      </trkpt>
      <trkpt lat="48.65607" lon="1.51565">
        <ele>100.40000152588</ele>
        <time>2026-06-17T13:33:35.000Z</time>
      </trkpt>
      <trkpt lat="48.65641" lon="1.51492">
        <ele>100.40000152588</ele>
        <time>2026-06-17T13:33:45.000Z</time>
      </trkpt>
      <trkpt lat="48.65666" lon="1.51428">
        <ele>100.19999694824</ele>
        <time>2026-06-17T13:33:54.000Z</time>
      </trkpt>
      <trkpt lat="48.65685" lon="1.51384">
        <ele>100.19999694824</ele>
        <time>2026-06-17T13:34:01.000Z</time>
      </trkpt>
      <trkpt lat="48.65708" lon="1.51328">
        <ele>100.40000152588</ele>
        <time>2026-06-17T13:34:10.000Z</time>
      </trkpt>
      <trkpt lat="48.65731" lon="1.51264">
        <ele>100.40000152588</ele>
        <time>2026-06-17T13:34:17.000Z</time>
      </trkpt>
      <trkpt lat="48.65757" lon="1.51192">
        <ele>100</ele>
        <time>2026-06-17T13:34:26.000Z</time>
      </trkpt>
      <trkpt lat="48.65774" lon="1.51156">
        <ele>99.800003051758</ele>
        <time>2026-06-17T13:34:31.000Z</time>
      </trkpt>
      <trkpt lat="48.65782" lon="1.51141">
        <ele>99.599998474121</ele>
        <time>2026-06-17T13:34:33.000Z</time>
      </trkpt>
      <trkpt lat="48.65815" lon="1.51088">
        <ele>99.599998474121</ele>
        <time>2026-06-17T13:34:41.000Z</time>
      </trkpt>
      <trkpt lat="48.65851" lon="1.51055">
        <ele>99.400001525879</ele>
        <time>2026-06-17T13:34:48.000Z</time>
      </trkpt>
      <trkpt lat="48.65888" lon="1.51023">
        <ele>99.400001525879</ele>
        <time>2026-06-17T13:34:55.000Z</time>
      </trkpt>
      <trkpt lat="48.65929" lon="1.50978">
        <ele>99.599998474121</ele>
        <time>2026-06-17T13:35:03.000Z</time>
      </trkpt>
      <trkpt lat="48.65962" lon="1.50941">
        <ele>99.599998474121</ele>
        <time>2026-06-17T13:35:10.000Z</time>
      </trkpt>
      <trkpt lat="48.65991" lon="1.50913">
        <ele>99.599998474121</ele>
        <time>2026-06-17T13:35:16.000Z</time>
      </trkpt>
      <trkpt lat="48.65997" lon="1.50907">
        <ele>99.599998474121</ele>
        <time>2026-06-17T13:35:17.000Z</time>
      </trkpt>
      <trkpt lat="48.6602" lon="1.50878">
        <ele>99.800003051758</ele>
        <time>2026-06-17T13:35:21.000Z</time>
      </trkpt>
      <trkpt lat="48.6603" lon="1.50863">
        <ele>100</ele>
        <time>2026-06-17T13:35:23.000Z</time>
      </trkpt>
      <trkpt lat="48.66046" lon="1.50834">
        <ele>100.19999694824</ele>
        <time>2026-06-17T13:35:27.000Z</time>
      </trkpt>
      <trkpt lat="48.66077" lon="1.50759">
        <ele>100.59999847412</ele>
        <time>2026-06-17T13:35:36.000Z</time>
      </trkpt>
      <trkpt lat="48.6608" lon="1.50751">
        <ele>100.59999847412</ele>
        <time>2026-06-17T13:35:37.000Z</time>
      </trkpt>
      <trkpt lat="48.66105" lon="1.50688">
        <ele>100.59999847412</ele>
        <time>2026-06-17T13:35:46.000Z</time>
      </trkpt>
      <trkpt lat="48.66111" lon="1.5067">
        <ele>100.59999847412</ele>
        <time>2026-06-17T13:35:47.000Z</time>
      </trkpt>
      <trkpt lat="48.66121" lon="1.50634">
        <ele>100.40000152588</ele>
        <time>2026-06-17T13:35:52.000Z</time>
      </trkpt>
      <trkpt lat="48.6614" lon="1.50556">
        <ele>100.19999694824</ele>
        <time>2026-06-17T13:36:00.000Z</time>
      </trkpt>
      <trkpt lat="48.6616" lon="1.50481">
        <ele>100.40000152588</ele>
        <time>2026-06-17T13:36:09.000Z</time>
      </trkpt>
      <trkpt lat="48.66165" lon="1.50464">
        <ele>100.40000152588</ele>
        <time>2026-06-17T13:36:11.000Z</time>
      </trkpt>
      <trkpt lat="48.66173" lon="1.50431">
        <ele>100.59999847412</ele>
        <time>2026-06-17T13:36:15.000Z</time>
      </trkpt>
      <trkpt lat="48.66189" lon="1.50363">
        <ele>100.59999847412</ele>
        <time>2026-06-17T13:36:23.000Z</time>
      </trkpt>
      <trkpt lat="48.66201" lon="1.503">
        <ele>100.40000152588</ele>
        <time>2026-06-17T13:36:30.000Z</time>
      </trkpt>
      <trkpt lat="48.66215" lon="1.50227">
        <ele>100</ele>
        <time>2026-06-17T13:36:38.000Z</time>
      </trkpt>
      <trkpt lat="48.66236" lon="1.50174">
        <ele>100.19999694824</ele>
        <time>2026-06-17T13:36:45.000Z</time>
      </trkpt>
      <trkpt lat="48.66264" lon="1.50111">
        <ele>100.19999694824</ele>
        <time>2026-06-17T13:36:53.000Z</time>
      </trkpt>
      <trkpt lat="48.66288" lon="1.5005">
        <ele>100</ele>
        <time>2026-06-17T13:37:01.000Z</time>
      </trkpt>
      <trkpt lat="48.66305" lon="1.49994">
        <ele>99.800003051758</ele>
        <time>2026-06-17T13:37:08.000Z</time>
      </trkpt>
      <trkpt lat="48.66312" lon="1.49966">
        <ele>99.599998474121</ele>
        <time>2026-06-17T13:37:12.000Z</time>
      </trkpt>
      <trkpt lat="48.66318" lon="1.49955">
        <ele>99.599998474121</ele>
        <time>2026-06-17T13:37:14.000Z</time>
      </trkpt>
      <trkpt lat="48.66328" lon="1.49948">
        <ele>99.599998474121</ele>
        <time>2026-06-17T13:37:16.000Z</time>
      </trkpt>
      <trkpt lat="48.66332" lon="1.49948">
        <ele>99.599998474121</ele>
        <time>2026-06-17T13:37:17.000Z</time>
      </trkpt>
      <trkpt lat="48.66352" lon="1.49947">
        <ele>99.800003051758</ele>
        <time>2026-06-17T13:37:21.000Z</time>
      </trkpt>
      <trkpt lat="48.66357" lon="1.49947">
        <ele>99.800003051758</ele>
        <time>2026-06-17T13:37:22.000Z</time>
      </trkpt>
      <trkpt lat="48.66393" lon="1.49947">
        <ele>100</ele>
        <time>2026-06-17T13:37:29.000Z</time>
      </trkpt>
      <trkpt lat="48.66398" lon="1.49945">
        <ele>100</ele>
        <time>2026-06-17T13:37:30.000Z</time>
      </trkpt>
      <trkpt lat="48.66407" lon="1.4994">
        <ele>100</ele>
        <time>2026-06-17T13:37:32.000Z</time>
      </trkpt>
      <trkpt lat="48.66426" lon="1.49923">
        <ele>100</ele>
        <time>2026-06-17T13:37:36.000Z</time>
      </trkpt>
      <trkpt lat="48.66448" lon="1.49894">
        <ele>100</ele>
        <time>2026-06-17T13:37:41.000Z</time>
      </trkpt>
      <trkpt lat="48.66453" lon="1.49882">
        <ele>100</ele>
        <time>2026-06-17T13:37:43.000Z</time>
      </trkpt>
      <trkpt lat="48.66459" lon="1.49864">
        <ele>100</ele>
        <time>2026-06-17T13:37:45.000Z</time>
      </trkpt>
      <trkpt lat="48.66466" lon="1.49831">
        <ele>100.19999694824</ele>
        <time>2026-06-17T13:37:49.000Z</time>
      </trkpt>
      <trkpt lat="48.66478" lon="1.49783">
        <ele>100.40000152588</ele>
        <time>2026-06-17T13:37:55.000Z</time>
      </trkpt>
      <trkpt lat="48.6648" lon="1.49777">
        <ele>100.40000152588</ele>
        <time>2026-06-17T13:37:56.000Z</time>
      </trkpt>
      <trkpt lat="48.66487" lon="1.49763">
        <ele>100.40000152588</ele>
        <time>2026-06-17T13:37:58.000Z</time>
      </trkpt>
      <trkpt lat="48.66494" lon="1.49752">
        <ele>100.40000152588</ele>
        <time>2026-06-17T13:38:00.000Z</time>
      </trkpt>
      <trkpt lat="48.66514" lon="1.49727">
        <ele>100.40000152588</ele>
        <time>2026-06-17T13:38:05.000Z</time>
      </trkpt>
      <trkpt lat="48.66521" lon="1.4972">
        <ele>100.19999694824</ele>
        <time>2026-06-17T13:38:07.000Z</time>
      </trkpt>
      <trkpt lat="48.66558" lon="1.49683">
        <ele>100.19999694824</ele>
        <time>2026-06-17T13:38:15.000Z</time>
      </trkpt>
      <trkpt lat="48.66605" lon="1.49642">
        <ele>100</ele>
        <time>2026-06-17T13:38:24.000Z</time>
      </trkpt>
      <trkpt lat="48.66629" lon="1.49631">
        <ele>99.800003051758</ele>
        <time>2026-06-17T13:38:28.000Z</time>
      </trkpt>
      <trkpt lat="48.66641" lon="1.49628">
        <ele>99.800003051758</ele>
        <time>2026-06-17T13:38:30.000Z</time>
      </trkpt>
      <trkpt lat="48.66684" lon="1.49631">
        <ele>100.40000152588</ele>
        <time>2026-06-17T13:38:37.000Z</time>
      </trkpt>
      <trkpt lat="48.66708" lon="1.49639">
        <ele>101.19999694824</ele>
        <time>2026-06-17T13:38:41.000Z</time>
      </trkpt>
      <trkpt lat="48.66724" lon="1.49646">
        <ele>101.59999847412</ele>
        <time>2026-06-17T13:38:44.000Z</time>
      </trkpt>
      <trkpt lat="48.6675" lon="1.49662">
        <ele>102.19999694824</ele>
        <time>2026-06-17T13:38:49.000Z</time>
      </trkpt>
      <trkpt lat="48.66759" lon="1.49671">
        <ele>102.40000152588</ele>
        <time>2026-06-17T13:38:51.000Z</time>
      </trkpt>
      <trkpt lat="48.66793" lon="1.49714">
        <ele>102.59999847412</ele>
        <time>2026-06-17T13:38:59.000Z</time>
      </trkpt>
      <trkpt lat="48.66833" lon="1.49765">
        <ele>103.19999694824</ele>
        <time>2026-06-17T13:39:08.000Z</time>
      </trkpt>
      <trkpt lat="48.66873" lon="1.49818">
        <ele>102.80000305176</ele>
        <time>2026-06-17T13:39:17.000Z</time>
      </trkpt>
      <trkpt lat="48.66906" lon="1.49857">
        <ele>102.80000305176</ele>
        <time>2026-06-17T13:39:25.000Z</time>
      </trkpt>
      <trkpt lat="48.6691" lon="1.49862">
        <ele>102.80000305176</ele>
        <time>2026-06-17T13:39:26.000Z</time>
      </trkpt>
      <trkpt lat="48.66923" lon="1.49878">
        <ele>102.80000305176</ele>
        <time>2026-06-17T13:39:31.000Z</time>
      </trkpt>
      <trkpt lat="48.66923" lon="1.49878">
        <ele>103</ele>
        <time>2026-06-17T13:39:34.000Z</time>
      </trkpt>
      <trkpt lat="48.66923" lon="1.49878">
        <ele>102</ele>
        <time>2026-06-17T13:39:47.000Z</time>
      </trkpt>
      <trkpt lat="48.66928" lon="1.49882">
        <ele>101.40000152588</ele>
        <time>2026-06-17T13:39:55.000Z</time>
      </trkpt>
      <trkpt lat="48.6694" lon="1.49875">
        <ele>101.59999847412</ele>
        <time>2026-06-17T13:39:59.000Z</time>
      </trkpt>
      <trkpt lat="48.66945" lon="1.49869">
        <ele>101.59999847412</ele>
        <time>2026-06-17T13:40:00.000Z</time>
      </trkpt>
      <trkpt lat="48.66956" lon="1.49852">
        <ele>101.80000305176</ele>
        <time>2026-06-17T13:40:03.000Z</time>
      </trkpt>
      <trkpt lat="48.66985" lon="1.49801">
        <ele>101.80000305176</ele>
        <time>2026-06-17T13:40:10.000Z</time>
      </trkpt>
      <trkpt lat="48.66992" lon="1.4979">
        <ele>101.40000152588</ele>
        <time>2026-06-17T13:40:12.000Z</time>
      </trkpt>
      <trkpt lat="48.66995" lon="1.49782">
        <ele>101.19999694824</ele>
        <time>2026-06-17T13:40:13.000Z</time>
      </trkpt>
      <trkpt lat="48.67002" lon="1.49764">
        <ele>101</ele>
        <time>2026-06-17T13:40:16.000Z</time>
      </trkpt>
      <trkpt lat="48.67009" lon="1.49748">
        <ele>100.80000305176</ele>
        <time>2026-06-17T13:40:18.000Z</time>
      </trkpt>
      <trkpt lat="48.6702" lon="1.49716">
        <ele>100.59999847412</ele>
        <time>2026-06-17T13:40:22.000Z</time>
      </trkpt>
      <trkpt lat="48.67023" lon="1.49708">
        <ele>100.59999847412</ele>
        <time>2026-06-17T13:40:23.000Z</time>
      </trkpt>
      <trkpt lat="48.67035" lon="1.49666">
        <ele>100.40000152588</ele>
        <time>2026-06-17T13:40:28.000Z</time>
      </trkpt>
      <trkpt lat="48.6704" lon="1.49649">
        <ele>100.40000152588</ele>
        <time>2026-06-17T13:40:30.000Z</time>
      </trkpt>
      <trkpt lat="48.67059" lon="1.49576">
        <ele>99.800003051758</ele>
        <time>2026-06-17T13:40:38.000Z</time>
      </trkpt>
      <trkpt lat="48.67073" lon="1.49525">
        <ele>99.599998474121</ele>
        <time>2026-06-17T13:40:44.000Z</time>
      </trkpt>
      <trkpt lat="48.6709" lon="1.49463">
        <ele>99.800003051758</ele>
        <time>2026-06-17T13:40:51.000Z</time>
      </trkpt>
      <trkpt lat="48.67106" lon="1.49402">
        <ele>100.19999694824</ele>
        <time>2026-06-17T13:40:58.000Z</time>
      </trkpt>
      <trkpt lat="48.67122" lon="1.49347">
        <ele>100.40000152588</ele>
        <time>2026-06-17T13:41:04.000Z</time>
      </trkpt>
      <trkpt lat="48.67147" lon="1.49285">
        <ele>100.19999694824</ele>
        <time>2026-06-17T13:41:12.000Z</time>
      </trkpt>
      <trkpt lat="48.67183" lon="1.49221">
        <ele>100.19999694824</ele>
        <time>2026-06-17T13:41:20.000Z</time>
      </trkpt>
      <trkpt lat="48.67187" lon="1.49214">
        <ele>100.40000152588</ele>
        <time>2026-06-17T13:41:22.000Z</time>
      </trkpt>
      <trkpt lat="48.67227" lon="1.49153">
        <ele>100.40000152588</ele>
        <time>2026-06-17T13:41:30.000Z</time>
      </trkpt>
      <trkpt lat="48.67262" lon="1.49091">
        <ele>100.19999694824</ele>
        <time>2026-06-17T13:41:39.000Z</time>
      </trkpt>
      <trkpt lat="48.67297" lon="1.49028">
        <ele>100</ele>
        <time>2026-06-17T13:41:48.000Z</time>
      </trkpt>
      <trkpt lat="48.67304" lon="1.49014">
        <ele>100</ele>
        <time>2026-06-17T13:41:50.000Z</time>
      </trkpt>
      <trkpt lat="48.67339" lon="1.48941">
        <ele>100.59999847412</ele>
        <time>2026-06-17T13:42:00.000Z</time>
      </trkpt>
      <trkpt lat="48.6735" lon="1.48918">
        <ele>100.59999847412</ele>
        <time>2026-06-17T13:42:03.000Z</time>
      </trkpt>
      <trkpt lat="48.67382" lon="1.48848">
        <ele>100.40000152588</ele>
        <time>2026-06-17T13:42:12.000Z</time>
      </trkpt>
      <trkpt lat="48.67412" lon="1.48778">
        <ele>100.40000152588</ele>
        <time>2026-06-17T13:42:20.000Z</time>
      </trkpt>
      <trkpt lat="48.67416" lon="1.48767">
        <ele>100.40000152588</ele>
        <time>2026-06-17T13:42:21.000Z</time>
      </trkpt>
      <trkpt lat="48.67435" lon="1.48694">
        <ele>100.40000152588</ele>
        <time>2026-06-17T13:42:29.000Z</time>
      </trkpt>
      <trkpt lat="48.6745" lon="1.48639">
        <ele>100.80000305176</ele>
        <time>2026-06-17T13:42:35.000Z</time>
      </trkpt>
      <trkpt lat="48.67472" lon="1.48556">
        <ele>100.19999694824</ele>
        <time>2026-06-17T13:42:44.000Z</time>
      </trkpt>
      <trkpt lat="48.67491" lon="1.4849">
        <ele>100.19999694824</ele>
        <time>2026-06-17T13:42:51.000Z</time>
      </trkpt>
      <trkpt lat="48.67519" lon="1.48414">
        <ele>100.59999847412</ele>
        <time>2026-06-17T13:43:00.000Z</time>
      </trkpt>
      <trkpt lat="48.67544" lon="1.48349">
        <ele>100.40000152588</ele>
        <time>2026-06-17T13:43:08.000Z</time>
      </trkpt>
      <trkpt lat="48.6757" lon="1.48272">
        <ele>100</ele>
        <time>2026-06-17T13:43:18.000Z</time>
      </trkpt>
      <trkpt lat="48.6758" lon="1.48249">
        <ele>100.19999694824</ele>
        <time>2026-06-17T13:43:21.000Z</time>
      </trkpt>
      <trkpt lat="48.6759" lon="1.48235">
        <ele>100.40000152588</ele>
        <time>2026-06-17T13:43:23.000Z</time>
      </trkpt>
      <trkpt lat="48.67594" lon="1.48232">
        <ele>100.40000152588</ele>
        <time>2026-06-17T13:43:24.000Z</time>
      </trkpt>
      <trkpt lat="48.67611" lon="1.48223">
        <ele>100.80000305176</ele>
        <time>2026-06-17T13:43:27.000Z</time>
      </trkpt>
      <trkpt lat="48.67626" lon="1.48218">
        <ele>101.19999694824</ele>
        <time>2026-06-17T13:43:30.000Z</time>
      </trkpt>
      <trkpt lat="48.67637" lon="1.48209">
        <ele>101.19999694824</ele>
        <time>2026-06-17T13:43:32.000Z</time>
      </trkpt>
      <trkpt lat="48.67643" lon="1.48195">
        <ele>101.40000152588</ele>
        <time>2026-06-17T13:43:34.000Z</time>
      </trkpt>
      <trkpt lat="48.67651" lon="1.48171">
        <ele>101.40000152588</ele>
        <time>2026-06-17T13:43:37.000Z</time>
      </trkpt>
      <trkpt lat="48.67656" lon="1.48155">
        <ele>101.59999847412</ele>
        <time>2026-06-17T13:43:39.000Z</time>
      </trkpt>
      <trkpt lat="48.67662" lon="1.48135">
        <ele>101.59999847412</ele>
        <time>2026-06-17T13:43:41.000Z</time>
      </trkpt>
      <trkpt lat="48.67664" lon="1.48127">
        <ele>101.59999847412</ele>
        <time>2026-06-17T13:43:42.000Z</time>
      </trkpt>
      <trkpt lat="48.6768" lon="1.48065">
        <ele>101.40000152588</ele>
        <time>2026-06-17T13:43:49.000Z</time>
      </trkpt>
      <trkpt lat="48.677" lon="1.47985">
        <ele>101.19999694824</ele>
        <time>2026-06-17T13:43:58.000Z</time>
      </trkpt>
      <trkpt lat="48.67718" lon="1.47913">
        <ele>101</ele>
        <time>2026-06-17T13:44:06.000Z</time>
      </trkpt>
      <trkpt lat="48.67738" lon="1.47839">
        <ele>100.80000305176</ele>
        <time>2026-06-17T13:44:14.000Z</time>
      </trkpt>
      <trkpt lat="48.67748" lon="1.47804">
        <ele>100.40000152588</ele>
        <time>2026-06-17T13:44:18.000Z</time>
      </trkpt>
      <trkpt lat="48.67757" lon="1.47769">
        <ele>100.19999694824</ele>
        <time>2026-06-17T13:44:22.000Z</time>
      </trkpt>
      <trkpt lat="48.67761" lon="1.47753">
        <ele>100.19999694824</ele>
        <time>2026-06-17T13:44:24.000Z</time>
      </trkpt>
      <trkpt lat="48.67771" lon="1.47722">
        <ele>100</ele>
        <time>2026-06-17T13:44:28.000Z</time>
      </trkpt>
      <trkpt lat="48.6778" lon="1.47697">
        <ele>100</ele>
        <time>2026-06-17T13:44:31.000Z</time>
      </trkpt>
      <trkpt lat="48.67783" lon="1.47681">
        <ele>100</ele>
        <time>2026-06-17T13:44:33.000Z</time>
      </trkpt>
      <trkpt lat="48.67793" lon="1.47642">
        <ele>100.40000152588</ele>
        <time>2026-06-17T13:44:38.000Z</time>
      </trkpt>
      <trkpt lat="48.67795" lon="1.47634">
        <ele>100.40000152588</ele>
        <time>2026-06-17T13:44:39.000Z</time>
      </trkpt>
      <trkpt lat="48.67803" lon="1.47612">
        <ele>100.40000152588</ele>
        <time>2026-06-17T13:44:42.000Z</time>
      </trkpt>
      <trkpt lat="48.67811" lon="1.47601">
        <ele>100.40000152588</ele>
        <time>2026-06-17T13:44:44.000Z</time>
      </trkpt>
      <trkpt lat="48.67821" lon="1.47592">
        <ele>100.19999694824</ele>
        <time>2026-06-17T13:44:46.000Z</time>
      </trkpt>
      <trkpt lat="48.67834" lon="1.47575">
        <ele>100.19999694824</ele>
        <time>2026-06-17T13:44:49.000Z</time>
      </trkpt>
      <trkpt lat="48.67838" lon="1.47568">
        <ele>100.19999694824</ele>
        <time>2026-06-17T13:44:50.000Z</time>
      </trkpt>
      <trkpt lat="48.67848" lon="1.47541">
        <ele>100.19999694824</ele>
        <time>2026-06-17T13:44:54.000Z</time>
      </trkpt>
      <trkpt lat="48.67866" lon="1.47499">
        <ele>100.80000305176</ele>
        <time>2026-06-17T13:45:01.000Z</time>
      </trkpt>
      <trkpt lat="48.67879" lon="1.4746">
        <ele>101</ele>
        <time>2026-06-17T13:45:06.000Z</time>
      </trkpt>
      <trkpt lat="48.67902" lon="1.47387">
        <ele>101</ele>
        <time>2026-06-17T13:45:15.000Z</time>
      </trkpt>
      <trkpt lat="48.6791" lon="1.47361">
        <ele>101</ele>
        <time>2026-06-17T13:45:18.000Z</time>
      </trkpt>
      <trkpt lat="48.67917" lon="1.47343">
        <ele>101</ele>
        <time>2026-06-17T13:45:20.000Z</time>
      </trkpt>
      <trkpt lat="48.67937" lon="1.47278">
        <ele>100.80000305176</ele>
        <time>2026-06-17T13:45:27.000Z</time>
      </trkpt>
      <trkpt lat="48.67962" lon="1.47199">
        <ele>100.19999694824</ele>
        <time>2026-06-17T13:45:36.000Z</time>
      </trkpt>
      <trkpt lat="48.67968" lon="1.47181">
        <ele>100.19999694824</ele>
        <time>2026-06-17T13:45:38.000Z</time>
      </trkpt>
      <trkpt lat="48.67992" lon="1.47121">
        <ele>99.800003051758</ele>
        <time>2026-06-17T13:45:45.000Z</time>
      </trkpt>
      <trkpt lat="48.68022" lon="1.47069">
        <ele>100</ele>
        <time>2026-06-17T13:45:52.000Z</time>
      </trkpt>
      <trkpt lat="48.68053" lon="1.4702">
        <ele>99.599998474121</ele>
        <time>2026-06-17T13:45:59.000Z</time>
      </trkpt>
      <trkpt lat="48.68057" lon="1.47014">
        <ele>99.400001525879</ele>
        <time>2026-06-17T13:46:00.000Z</time>
      </trkpt>
      <trkpt lat="48.68085" lon="1.46966">
        <ele>99.199996948242</ele>
        <time>2026-06-17T13:46:07.000Z</time>
      </trkpt>
      <trkpt lat="48.68117" lon="1.46916">
        <ele>99.199996948242</ele>
        <time>2026-06-17T13:46:15.000Z</time>
      </trkpt>
      <trkpt lat="48.68142" lon="1.4687">
        <ele>99.599998474121</ele>
        <time>2026-06-17T13:46:22.000Z</time>
      </trkpt>
      <trkpt lat="48.68157" lon="1.46845">
        <ele>99.800003051758</ele>
        <time>2026-06-17T13:46:26.000Z</time>
      </trkpt>
      <trkpt lat="48.68168" lon="1.46822">
        <ele>100</ele>
        <time>2026-06-17T13:46:29.000Z</time>
      </trkpt>
      <trkpt lat="48.68192" lon="1.46777">
        <ele>99.800003051758</ele>
        <time>2026-06-17T13:46:35.000Z</time>
      </trkpt>
      <trkpt lat="48.68221" lon="1.46713">
        <ele>99.400001525879</ele>
        <time>2026-06-17T13:46:44.000Z</time>
      </trkpt>
      <trkpt lat="48.68245" lon="1.46656">
        <ele>98.400001525879</ele>
        <time>2026-06-17T13:46:50.000Z</time>
      </trkpt>
      <trkpt lat="48.6826" lon="1.4662">
        <ele>98</ele>
        <time>2026-06-17T13:46:54.000Z</time>
      </trkpt>
      <trkpt lat="48.68288" lon="1.46561">
        <ele>97.400001525879</ele>
        <time>2026-06-17T13:47:01.000Z</time>
      </trkpt>
      <trkpt lat="48.68297" lon="1.46545">
        <ele>97.400001525879</ele>
        <time>2026-06-17T13:47:03.000Z</time>
      </trkpt>
      <trkpt lat="48.68335" lon="1.4649">
        <ele>96.800003051758</ele>
        <time>2026-06-17T13:47:11.000Z</time>
      </trkpt>
      <trkpt lat="48.6837" lon="1.46449">
        <ele>96.800003051758</ele>
        <time>2026-06-17T13:47:18.000Z</time>
      </trkpt>
      <trkpt lat="48.68412" lon="1.46401">
        <ele>96.800003051758</ele>
        <time>2026-06-17T13:47:27.000Z</time>
      </trkpt>
      <trkpt lat="48.68454" lon="1.4634">
        <ele>96.800003051758</ele>
        <time>2026-06-17T13:47:37.000Z</time>
      </trkpt>
      <trkpt lat="48.68458" lon="1.46334">
        <ele>97</ele>
        <time>2026-06-17T13:47:38.000Z</time>
      </trkpt>
      <trkpt lat="48.68487" lon="1.46285">
        <ele>97.400001525879</ele>
        <time>2026-06-17T13:47:45.000Z</time>
      </trkpt>
      <trkpt lat="48.68494" lon="1.46269">
        <ele>97.400001525879</ele>
        <time>2026-06-17T13:47:47.000Z</time>
      </trkpt>
      <trkpt lat="48.68529" lon="1.46201">
        <ele>97.199996948242</ele>
        <time>2026-06-17T13:47:56.000Z</time>
      </trkpt>
      <trkpt lat="48.68546" lon="1.4614">
        <ele>97.199996948242</ele>
        <time>2026-06-17T13:48:03.000Z</time>
      </trkpt>
      <trkpt lat="48.68564" lon="1.46067">
        <ele>96.800003051758</ele>
        <time>2026-06-17T13:48:12.000Z</time>
      </trkpt>
      <trkpt lat="48.68587" lon="1.46007">
        <ele>96.599998474121</ele>
        <time>2026-06-17T13:48:18.000Z</time>
      </trkpt>
      <trkpt lat="48.68618" lon="1.45941">
        <ele>96.599998474121</ele>
        <time>2026-06-17T13:48:27.000Z</time>
      </trkpt>
      <trkpt lat="48.68622" lon="1.45934">
        <ele>96.599998474121</ele>
        <time>2026-06-17T13:48:28.000Z</time>
      </trkpt>
      <trkpt lat="48.68659" lon="1.45872">
        <ele>97.199996948242</ele>
        <time>2026-06-17T13:48:37.000Z</time>
      </trkpt>
      <trkpt lat="48.68698" lon="1.45814">
        <ele>97.199996948242</ele>
        <time>2026-06-17T13:48:46.000Z</time>
      </trkpt>
      <trkpt lat="48.68703" lon="1.45807">
        <ele>97.199996948242</ele>
        <time>2026-06-17T13:48:47.000Z</time>
      </trkpt>
      <trkpt lat="48.68747" lon="1.45753">
        <ele>96.800003051758</ele>
        <time>2026-06-17T13:48:56.000Z</time>
      </trkpt>
      <trkpt lat="48.68788" lon="1.4571">
        <ele>97</ele>
        <time>2026-06-17T13:49:04.000Z</time>
      </trkpt>
      <trkpt lat="48.68823" lon="1.45675">
        <ele>97</ele>
        <time>2026-06-17T13:49:11.000Z</time>
      </trkpt>
      <trkpt lat="48.68868" lon="1.45628">
        <ele>97.199996948242</ele>
        <time>2026-06-17T13:49:20.000Z</time>
      </trkpt>
      <trkpt lat="48.68873" lon="1.45622">
        <ele>97.199996948242</ele>
        <time>2026-06-17T13:49:21.000Z</time>
      </trkpt>
      <trkpt lat="48.68906" lon="1.45583">
        <ele>97.800003051758</ele>
        <time>2026-06-17T13:49:29.000Z</time>
      </trkpt>
      <trkpt lat="48.6893" lon="1.45551">
        <ele>98.400001525879</ele>
        <time>2026-06-17T13:49:36.000Z</time>
      </trkpt>
      <trkpt lat="48.68946" lon="1.45533">
        <ele>98.199996948242</ele>
        <time>2026-06-17T13:49:41.000Z</time>
      </trkpt>
      <trkpt lat="48.68951" lon="1.45529">
        <ele>98.199996948242</ele>
        <time>2026-06-17T13:49:42.000Z</time>
      </trkpt>
      <trkpt lat="48.68982" lon="1.45506">
        <ele>98</ele>
        <time>2026-06-17T13:49:49.000Z</time>
      </trkpt>
      <trkpt lat="48.69018" lon="1.45472">
        <ele>98</ele>
        <time>2026-06-17T13:49:57.000Z</time>
      </trkpt>
      <trkpt lat="48.69055" lon="1.45431">
        <ele>98</ele>
        <time>2026-06-17T13:50:05.000Z</time>
      </trkpt>
      <trkpt lat="48.69094" lon="1.45382">
        <ele>97.800003051758</ele>
        <time>2026-06-17T13:50:14.000Z</time>
      </trkpt>
      <trkpt lat="48.69134" lon="1.4533">
        <ele>97.599998474121</ele>
        <time>2026-06-17T13:50:23.000Z</time>
      </trkpt>
      <trkpt lat="48.69174" lon="1.45289">
        <ele>97.800003051758</ele>
        <time>2026-06-17T13:50:31.000Z</time>
      </trkpt>
      <trkpt lat="48.69221" lon="1.45238">
        <ele>97.599998474121</ele>
        <time>2026-06-17T13:50:40.000Z</time>
      </trkpt>
      <trkpt lat="48.69268" lon="1.45192">
        <ele>97.599998474121</ele>
        <time>2026-06-17T13:50:49.000Z</time>
      </trkpt>
      <trkpt lat="48.69273" lon="1.45187">
        <ele>97.599998474121</ele>
        <time>2026-06-17T13:50:50.000Z</time>
      </trkpt>
      <trkpt lat="48.69316" lon="1.45156">
        <ele>97.199996948242</ele>
        <time>2026-06-17T13:50:58.000Z</time>
      </trkpt>
      <trkpt lat="48.69368" lon="1.45125">
        <ele>97.400001525879</ele>
        <time>2026-06-17T13:51:07.000Z</time>
      </trkpt>
      <trkpt lat="48.6938" lon="1.45117">
        <ele>97.400001525879</ele>
        <time>2026-06-17T13:51:09.000Z</time>
      </trkpt>
      <trkpt lat="48.69391" lon="1.45108">
        <ele>97.400001525879</ele>
        <time>2026-06-17T13:51:11.000Z</time>
      </trkpt>
      <trkpt lat="48.6943" lon="1.45073">
        <ele>97</ele>
        <time>2026-06-17T13:51:18.000Z</time>
      </trkpt>
      <trkpt lat="48.69455" lon="1.4505">
        <ele>96.800003051758</ele>
        <time>2026-06-17T13:51:23.000Z</time>
      </trkpt>
      <trkpt lat="48.69474" lon="1.45032">
        <ele>96.400001525879</ele>
        <time>2026-06-17T13:51:26.000Z</time>
      </trkpt>
      <trkpt lat="48.69517" lon="1.44992">
        <ele>95.599998474121</ele>
        <time>2026-06-17T13:51:34.000Z</time>
      </trkpt>
      <trkpt lat="48.69548" lon="1.44952">
        <ele>96</ele>
        <time>2026-06-17T13:51:41.000Z</time>
      </trkpt>
      <trkpt lat="48.69574" lon="1.44921">
        <ele>96.199996948242</ele>
        <time>2026-06-17T13:51:47.000Z</time>
      </trkpt>
      <trkpt lat="48.69584" lon="1.44914">
        <ele>96.199996948242</ele>
        <time>2026-06-17T13:51:49.000Z</time>
      </trkpt>
      <trkpt lat="48.69632" lon="1.44878">
        <ele>96.800003051758</ele>
        <time>2026-06-17T13:51:58.000Z</time>
      </trkpt>
      <trkpt lat="48.69647" lon="1.44867">
        <ele>97.199996948242</ele>
        <time>2026-06-17T13:52:01.000Z</time>
      </trkpt>
      <trkpt lat="48.69691" lon="1.44829">
        <ele>97.599998474121</ele>
        <time>2026-06-17T13:52:09.000Z</time>
      </trkpt>
      <trkpt lat="48.69735" lon="1.44787">
        <ele>97.800003051758</ele>
        <time>2026-06-17T13:52:17.000Z</time>
      </trkpt>
      <trkpt lat="48.69773" lon="1.44752">
        <ele>97.400001525879</ele>
        <time>2026-06-17T13:52:24.000Z</time>
      </trkpt>
      <trkpt lat="48.69809" lon="1.44721">
        <ele>96.800003051758</ele>
        <time>2026-06-17T13:52:31.000Z</time>
      </trkpt>
      <trkpt lat="48.69857" lon="1.44683">
        <ele>96.400001525879</ele>
        <time>2026-06-17T13:52:40.000Z</time>
      </trkpt>
      <trkpt lat="48.69861" lon="1.44679">
        <ele>96.400001525879</ele>
        <time>2026-06-17T13:52:41.000Z</time>
      </trkpt>
      <trkpt lat="48.69909" lon="1.44646">
        <ele>95.800003051758</ele>
        <time>2026-06-17T13:52:49.000Z</time>
      </trkpt>
      <trkpt lat="48.69914" lon="1.44643">
        <ele>95.800003051758</ele>
        <time>2026-06-17T13:52:50.000Z</time>
      </trkpt>
      <trkpt lat="48.69962" lon="1.44603">
        <ele>95.800003051758</ele>
        <time>2026-06-17T13:52:58.000Z</time>
      </trkpt>
      <trkpt lat="48.69967" lon="1.44598">
        <ele>95.800003051758</ele>
        <time>2026-06-17T13:52:59.000Z</time>
      </trkpt>
      <trkpt lat="48.70017" lon="1.4455">
        <ele>95.400001525879</ele>
        <time>2026-06-17T13:53:08.000Z</time>
      </trkpt>
      <trkpt lat="48.70024" lon="1.44545">
        <ele>95.400001525879</ele>
        <time>2026-06-17T13:53:09.000Z</time>
      </trkpt>
      <trkpt lat="48.70065" lon="1.44511">
        <ele>95.199996948242</ele>
        <time>2026-06-17T13:53:17.000Z</time>
      </trkpt>
      <trkpt lat="48.7011" lon="1.44476">
        <ele>95.599998474121</ele>
        <time>2026-06-17T13:53:26.000Z</time>
      </trkpt>
      <trkpt lat="48.7014" lon="1.44449">
        <ele>95.800003051758</ele>
        <time>2026-06-17T13:53:32.000Z</time>
      </trkpt>
      <trkpt lat="48.70178" lon="1.44415">
        <ele>95.400001525879</ele>
        <time>2026-06-17T13:53:39.000Z</time>
      </trkpt>
      <trkpt lat="48.70219" lon="1.44373">
        <ele>95.199996948242</ele>
        <time>2026-06-17T13:53:47.000Z</time>
      </trkpt>
      <trkpt lat="48.70236" lon="1.44354">
        <ele>95</ele>
        <time>2026-06-17T13:53:51.000Z</time>
      </trkpt>
      <trkpt lat="48.70239" lon="1.44349">
        <ele>95</ele>
        <time>2026-06-17T13:53:52.000Z</time>
      </trkpt>
      <trkpt lat="48.70257" lon="1.44321">
        <ele>94.800003051758</ele>
        <time>2026-06-17T13:53:58.000Z</time>
      </trkpt>
      <trkpt lat="48.70283" lon="1.44291">
        <ele>94.400001525879</ele>
        <time>2026-06-17T13:54:04.000Z</time>
      </trkpt>
      <trkpt lat="48.70319" lon="1.44262">
        <ele>94.199996948242</ele>
        <time>2026-06-17T13:54:11.000Z</time>
      </trkpt>
      <trkpt lat="48.70356" lon="1.44241">
        <ele>94.599998474121</ele>
        <time>2026-06-17T13:54:18.000Z</time>
      </trkpt>
      <trkpt lat="48.70389" lon="1.44227">
        <ele>94.599998474121</ele>
        <time>2026-06-17T13:54:24.000Z</time>
      </trkpt>
      <trkpt lat="48.70405" lon="1.4422">
        <ele>94.400001525879</ele>
        <time>2026-06-17T13:54:27.000Z</time>
      </trkpt>
      <trkpt lat="48.70449" lon="1.44202">
        <ele>94.199996948242</ele>
        <time>2026-06-17T13:54:35.000Z</time>
      </trkpt>
      <trkpt lat="48.70486" lon="1.4418">
        <ele>94.199996948242</ele>
        <time>2026-06-17T13:54:42.000Z</time>
      </trkpt>
      <trkpt lat="48.70501" lon="1.4417">
        <ele>94</ele>
        <time>2026-06-17T13:54:45.000Z</time>
      </trkpt>
      <trkpt lat="48.7051" lon="1.4416">
        <ele>94</ele>
        <time>2026-06-17T13:54:47.000Z</time>
      </trkpt>
      <trkpt lat="48.7052" lon="1.44141">
        <ele>94</ele>
        <time>2026-06-17T13:54:50.000Z</time>
      </trkpt>
      <trkpt lat="48.70542" lon="1.44091">
        <ele>94.400001525879</ele>
        <time>2026-06-17T13:54:57.000Z</time>
      </trkpt>
      <trkpt lat="48.70554" lon="1.44048">
        <ele>94.599998474121</ele>
        <time>2026-06-17T13:55:02.000Z</time>
      </trkpt>
      <trkpt lat="48.70558" lon="1.4403">
        <ele>94.599998474121</ele>
        <time>2026-06-17T13:55:04.000Z</time>
      </trkpt>
      <trkpt lat="48.70571" lon="1.43952">
        <ele>95</ele>
        <time>2026-06-17T13:55:13.000Z</time>
      </trkpt>
      <trkpt lat="48.70576" lon="1.43926">
        <ele>95.199996948242</ele>
        <time>2026-06-17T13:55:16.000Z</time>
      </trkpt>
      <trkpt lat="48.70588" lon="1.43865">
        <ele>95.400001525879</ele>
        <time>2026-06-17T13:55:23.000Z</time>
      </trkpt>
      <trkpt lat="48.70605" lon="1.43807">
        <ele>95</ele>
        <time>2026-06-17T13:55:30.000Z</time>
      </trkpt>
      <trkpt lat="48.70617" lon="1.43773">
        <ele>94.800003051758</ele>
        <time>2026-06-17T13:55:34.000Z</time>
      </trkpt>
      <trkpt lat="48.70624" lon="1.43758">
        <ele>94.800003051758</ele>
        <time>2026-06-17T13:55:36.000Z</time>
      </trkpt>
      <trkpt lat="48.7063" lon="1.4374">
        <ele>94.800003051758</ele>
        <time>2026-06-17T13:55:38.000Z</time>
      </trkpt>
      <trkpt lat="48.70643" lon="1.43692">
        <ele>94.800003051758</ele>
        <time>2026-06-17T13:55:44.000Z</time>
      </trkpt>
      <trkpt lat="48.70657" lon="1.43622">
        <ele>94.599998474121</ele>
        <time>2026-06-17T13:55:52.000Z</time>
      </trkpt>
      <trkpt lat="48.70659" lon="1.43613">
        <ele>94.599998474121</ele>
        <time>2026-06-17T13:55:53.000Z</time>
      </trkpt>
      <trkpt lat="48.70674" lon="1.43558">
        <ele>94.199996948242</ele>
        <time>2026-06-17T13:55:59.000Z</time>
      </trkpt>
      <trkpt lat="48.70677" lon="1.43549">
        <ele>94</ele>
        <time>2026-06-17T13:56:00.000Z</time>
      </trkpt>
      <trkpt lat="48.707" lon="1.43494">
        <ele>93.400001525879</ele>
        <time>2026-06-17T13:56:07.000Z</time>
      </trkpt>
      <trkpt lat="48.70732" lon="1.43448">
        <ele>93.400001525879</ele>
        <time>2026-06-17T13:56:14.000Z</time>
      </trkpt>
      <trkpt lat="48.70775" lon="1.4339">
        <ele>93.800003051758</ele>
        <time>2026-06-17T13:56:23.000Z</time>
      </trkpt>
      <trkpt lat="48.70793" lon="1.43364">
        <ele>93.800003051758</ele>
        <time>2026-06-17T13:56:27.000Z</time>
      </trkpt>
      <trkpt lat="48.708" lon="1.43351">
        <ele>93.800003051758</ele>
        <time>2026-06-17T13:56:29.000Z</time>
      </trkpt>
      <trkpt lat="48.70819" lon="1.43304">
        <ele>94.199996948242</ele>
        <time>2026-06-17T13:56:35.000Z</time>
      </trkpt>
      <trkpt lat="48.70821" lon="1.43296">
        <ele>94.199996948242</ele>
        <time>2026-06-17T13:56:36.000Z</time>
      </trkpt>
      <trkpt lat="48.70828" lon="1.43265">
        <ele>94.199996948242</ele>
        <time>2026-06-17T13:56:40.000Z</time>
      </trkpt>
      <trkpt lat="48.7084" lon="1.43193">
        <ele>93.800003051758</ele>
        <time>2026-06-17T13:56:49.000Z</time>
      </trkpt>
      <trkpt lat="48.70851" lon="1.4313">
        <ele>93.599998474121</ele>
        <time>2026-06-17T13:56:57.000Z</time>
      </trkpt>
      <trkpt lat="48.70861" lon="1.43073">
        <ele>93.800003051758</ele>
        <time>2026-06-17T13:57:05.000Z</time>
      </trkpt>
      <trkpt lat="48.70866" lon="1.43048">
        <ele>93.599998474121</ele>
        <time>2026-06-17T13:57:10.000Z</time>
      </trkpt>
      <trkpt lat="48.70867" lon="1.43038">
        <ele>93.400001525879</ele>
        <time>2026-06-17T13:57:13.000Z</time>
      </trkpt>
      <trkpt lat="48.70866" lon="1.43037">
        <ele>93.400001525879</ele>
        <time>2026-06-17T13:57:14.000Z</time>
      </trkpt>
      <trkpt lat="48.70866" lon="1.43042">
        <ele>93.400001525879</ele>
        <time>2026-06-17T13:57:17.000Z</time>
      </trkpt>
      <trkpt lat="48.70865" lon="1.43041">
        <ele>93.400001525879</ele>
        <time>2026-06-17T13:57:20.000Z</time>
      </trkpt>
      <trkpt lat="48.70864" lon="1.43043">
        <ele>93.599998474121</ele>
        <time>2026-06-17T13:57:21.000Z</time>
      </trkpt>
      <trkpt lat="48.70864" lon="1.43047">
        <ele>93.800003051758</ele>
        <time>2026-06-17T13:57:23.000Z</time>
      </trkpt>
      <trkpt lat="48.70861" lon="1.43057">
        <ele>93.800003051758</ele>
        <time>2026-06-17T13:57:26.000Z</time>
      </trkpt>
      <trkpt lat="48.70856" lon="1.43089">
        <ele>94</ele>
        <time>2026-06-17T13:57:32.000Z</time>
      </trkpt>
      <trkpt lat="48.70849" lon="1.4313">
        <ele>94</ele>
        <time>2026-06-17T13:57:38.000Z</time>
      </trkpt>
      <trkpt lat="48.70839" lon="1.43183">
        <ele>94</ele>
        <time>2026-06-17T13:57:45.000Z</time>
      </trkpt>
      <trkpt lat="48.70826" lon="1.43257">
        <ele>93.800003051758</ele>
        <time>2026-06-17T13:57:54.000Z</time>
      </trkpt>
      <trkpt lat="48.70815" lon="1.43314">
        <ele>94.800003051758</ele>
        <time>2026-06-17T13:58:02.000Z</time>
      </trkpt>
      <trkpt lat="48.70817" lon="1.43326">
        <ele>95</ele>
        <time>2026-06-17T13:58:04.000Z</time>
      </trkpt>
      <trkpt lat="48.70822" lon="1.43337">
        <ele>95</ele>
        <time>2026-06-17T13:58:06.000Z</time>
      </trkpt>
      <trkpt lat="48.70829" lon="1.43349">
        <ele>95</ele>
        <time>2026-06-17T13:58:10.000Z</time>
      </trkpt>
      <trkpt lat="48.7083" lon="1.43351">
        <ele>94.800003051758</ele>
        <time>2026-06-17T13:58:14.000Z</time>
      </trkpt>
      <trkpt lat="48.7083" lon="1.43352">
        <ele>94.800003051758</ele>
        <time>2026-06-17T13:58:15.000Z</time>
      </trkpt>
      <trkpt lat="48.70831" lon="1.43357">
        <ele>94.599998474121</ele>
        <time>2026-06-17T13:58:18.000Z</time>
      </trkpt>
      <trkpt lat="48.70832" lon="1.43357">
        <ele>94.599998474121</ele>
        <time>2026-06-17T13:58:19.000Z</time>
      </trkpt>
      <trkpt lat="48.70834" lon="1.43356">
        <ele>94.400001525879</ele>
        <time>2026-06-17T13:58:21.000Z</time>
      </trkpt>
      <trkpt lat="48.70835" lon="1.43353">
        <ele>94.400001525879</ele>
        <time>2026-06-17T13:58:25.000Z</time>
      </trkpt>
      <trkpt lat="48.70837" lon="1.43351">
        <ele>94.199996948242</ele>
        <time>2026-06-17T13:58:31.000Z</time>
      </trkpt>
      <trkpt lat="48.70848" lon="1.43357">
        <ele>94.199996948242</ele>
        <time>2026-06-17T13:58:37.000Z</time>
      </trkpt>
      <trkpt lat="48.7087" lon="1.43365">
        <ele>94.199996948242</ele>
        <time>2026-06-17T13:58:44.000Z</time>
      </trkpt>
      <trkpt lat="48.70899" lon="1.43369">
        <ele>94.800003051758</ele>
        <time>2026-06-17T13:58:52.000Z</time>
      </trkpt>
      <trkpt lat="48.70929" lon="1.43367">
        <ele>95.199996948242</ele>
        <time>2026-06-17T13:58:59.000Z</time>
      </trkpt>
      <trkpt lat="48.70935" lon="1.43364">
        <ele>95.400001525879</ele>
        <time>2026-06-17T13:59:00.000Z</time>
      </trkpt>
      <trkpt lat="48.70956" lon="1.4336">
        <ele>95.599998474121</ele>
        <time>2026-06-17T13:59:04.000Z</time>
      </trkpt>
      <trkpt lat="48.70988" lon="1.43354">
        <ele>95.800003051758</ele>
        <time>2026-06-17T13:59:10.000Z</time>
      </trkpt>
      <trkpt lat="48.71031" lon="1.43341">
        <ele>96.199996948242</ele>
        <time>2026-06-17T13:59:18.000Z</time>
      </trkpt>
      <trkpt lat="48.71036" lon="1.43337">
        <ele>96</ele>
        <time>2026-06-17T13:59:19.000Z</time>
      </trkpt>
      <trkpt lat="48.71051" lon="1.43324">
        <ele>96</ele>
        <time>2026-06-17T13:59:22.000Z</time>
      </trkpt>
      <trkpt lat="48.71056" lon="1.4332">
        <ele>96</ele>
        <time>2026-06-17T13:59:23.000Z</time>
      </trkpt>
      <trkpt lat="48.71067" lon="1.43316">
        <ele>96</ele>
        <time>2026-06-17T13:59:25.000Z</time>
      </trkpt>
      <trkpt lat="48.71077" lon="1.43313">
        <ele>95.800003051758</ele>
        <time>2026-06-17T13:59:27.000Z</time>
      </trkpt>
      <trkpt lat="48.71108" lon="1.43298">
        <ele>94.599998474121</ele>
        <time>2026-06-17T13:59:33.000Z</time>
      </trkpt>
      <trkpt lat="48.71117" lon="1.43291">
        <ele>94.599998474121</ele>
        <time>2026-06-17T13:59:35.000Z</time>
      </trkpt>
      <trkpt lat="48.71124" lon="1.4328">
        <ele>94.400001525879</ele>
        <time>2026-06-17T13:59:37.000Z</time>
      </trkpt>
      <trkpt lat="48.71134" lon="1.43262">
        <ele>94.400001525879</ele>
        <time>2026-06-17T13:59:40.000Z</time>
      </trkpt>
      <trkpt lat="48.71144" lon="1.43246">
        <ele>94</ele>
        <time>2026-06-17T13:59:43.000Z</time>
      </trkpt>
      <trkpt lat="48.71147" lon="1.43241">
        <ele>93.800003051758</ele>
        <time>2026-06-17T13:59:44.000Z</time>
      </trkpt>
      <trkpt lat="48.71167" lon="1.43218">
        <ele>93.599998474121</ele>
        <time>2026-06-17T13:59:49.000Z</time>
      </trkpt>
      <trkpt lat="48.71171" lon="1.43214">
        <ele>93.599998474121</ele>
        <time>2026-06-17T13:59:50.000Z</time>
      </trkpt>
      <trkpt lat="48.71192" lon="1.43198">
        <ele>93.199996948242</ele>
        <time>2026-06-17T13:59:54.000Z</time>
      </trkpt>
      <trkpt lat="48.71197" lon="1.43194">
        <ele>93.199996948242</ele>
        <time>2026-06-17T13:59:55.000Z</time>
      </trkpt>
      <trkpt lat="48.71211" lon="1.43186">
        <ele>93.199996948242</ele>
        <time>2026-06-17T13:59:58.000Z</time>
      </trkpt>
      <trkpt lat="48.71221" lon="1.43181">
        <ele>93</ele>
        <time>2026-06-17T14:00:00.000Z</time>
      </trkpt>
      <trkpt lat="48.71263" lon="1.43167">
        <ele>93</ele>
        <time>2026-06-17T14:00:08.000Z</time>
      </trkpt>
      <trkpt lat="48.71298" lon="1.43147">
        <ele>92.800003051758</ele>
        <time>2026-06-17T14:00:15.000Z</time>
      </trkpt>
      <trkpt lat="48.71303" lon="1.43145">
        <ele>92.800003051758</ele>
        <time>2026-06-17T14:00:16.000Z</time>
      </trkpt>
      <trkpt lat="48.71323" lon="1.43135">
        <ele>92.800003051758</ele>
        <time>2026-06-17T14:00:20.000Z</time>
      </trkpt>
      <trkpt lat="48.7133" lon="1.43134">
        <ele>92.800003051758</ele>
        <time>2026-06-17T14:00:22.000Z</time>
      </trkpt>
      <trkpt lat="48.71348" lon="1.43132">
        <ele>93</ele>
        <time>2026-06-17T14:00:27.000Z</time>
      </trkpt>
      <trkpt lat="48.71367" lon="1.4312">
        <ele>93</ele>
        <time>2026-06-17T14:00:31.000Z</time>
      </trkpt>
      <trkpt lat="48.71376" lon="1.43119">
        <ele>93</ele>
        <time>2026-06-17T14:00:33.000Z</time>
      </trkpt>
      <trkpt lat="48.71391" lon="1.43118">
        <ele>93.199996948242</ele>
        <time>2026-06-17T14:00:37.000Z</time>
      </trkpt>
      <trkpt lat="48.71403" lon="1.4313">
        <ele>93.199996948242</ele>
        <time>2026-06-17T14:00:41.000Z</time>
      </trkpt>
      <trkpt lat="48.71413" lon="1.43144">
        <ele>93.199996948242</ele>
        <time>2026-06-17T14:00:44.000Z</time>
      </trkpt>
      <trkpt lat="48.7142" lon="1.43156">
        <ele>93.199996948242</ele>
        <time>2026-06-17T14:00:46.000Z</time>
      </trkpt>
      <trkpt lat="48.71438" lon="1.43188">
        <ele>93.400001525879</ele>
        <time>2026-06-17T14:00:52.000Z</time>
      </trkpt>
      <trkpt lat="48.71441" lon="1.43193">
        <ele>93.599998474121</ele>
        <time>2026-06-17T14:00:53.000Z</time>
      </trkpt>
      <trkpt lat="48.71462" lon="1.43223">
        <ele>93.599998474121</ele>
        <time>2026-06-17T14:00:58.000Z</time>
      </trkpt>
      <trkpt lat="48.71482" lon="1.43261">
        <ele>93.599998474121</ele>
        <time>2026-06-17T14:01:04.000Z</time>
      </trkpt>
      <trkpt lat="48.71494" lon="1.43285">
        <ele>93.800003051758</ele>
        <time>2026-06-17T14:01:09.000Z</time>
      </trkpt>
      <trkpt lat="48.715" lon="1.433">
        <ele>94.199996948242</ele>
        <time>2026-06-17T14:01:12.000Z</time>
      </trkpt>
      <trkpt lat="48.71507" lon="1.43321">
        <ele>94.400001525879</ele>
        <time>2026-06-17T14:01:15.000Z</time>
      </trkpt>
      <trkpt lat="48.71512" lon="1.43345">
        <ele>94.400001525879</ele>
        <time>2026-06-17T14:01:18.000Z</time>
      </trkpt>
      <trkpt lat="48.71515" lon="1.43368">
        <ele>94.199996948242</ele>
        <time>2026-06-17T14:01:21.000Z</time>
      </trkpt>
      <trkpt lat="48.71518" lon="1.4339">
        <ele>94</ele>
        <time>2026-06-17T14:01:24.000Z</time>
      </trkpt>
      <trkpt lat="48.71524" lon="1.43402">
        <ele>94</ele>
        <time>2026-06-17T14:01:26.000Z</time>
      </trkpt>
      <trkpt lat="48.71533" lon="1.43407">
        <ele>93.800003051758</ele>
        <time>2026-06-17T14:01:28.000Z</time>
      </trkpt>
      <trkpt lat="48.71537" lon="1.43406">
        <ele>93.800003051758</ele>
        <time>2026-06-17T14:01:29.000Z</time>
      </trkpt>
      <trkpt lat="48.71542" lon="1.43404">
        <ele>93.800003051758</ele>
        <time>2026-06-17T14:01:30.000Z</time>
      </trkpt>
      <trkpt lat="48.71546" lon="1.434">
        <ele>93.800003051758</ele>
        <time>2026-06-17T14:01:31.000Z</time>
      </trkpt>
      <trkpt lat="48.71555" lon="1.43392">
        <ele>93.800003051758</ele>
        <time>2026-06-17T14:01:33.000Z</time>
      </trkpt>
      <trkpt lat="48.71585" lon="1.43357">
        <ele>92.800003051758</ele>
        <time>2026-06-17T14:01:41.000Z</time>
      </trkpt>
      <trkpt lat="48.71588" lon="1.43351">
        <ele>92.599998474121</ele>
        <time>2026-06-17T14:01:42.000Z</time>
      </trkpt>
      <trkpt lat="48.71614" lon="1.43295">
        <ele>92.599998474121</ele>
        <time>2026-06-17T14:01:50.000Z</time>
      </trkpt>
      <trkpt lat="48.71635" lon="1.4324">
        <ele>92.599998474121</ele>
        <time>2026-06-17T14:01:58.000Z</time>
      </trkpt>
      <trkpt lat="48.71653" lon="1.43173">
        <ele>92.800003051758</ele>
        <time>2026-06-17T14:02:07.000Z</time>
      </trkpt>
      <trkpt lat="48.71671" lon="1.43139">
        <ele>93.199996948242</ele>
        <time>2026-06-17T14:02:13.000Z</time>
      </trkpt>
      <trkpt lat="48.71679" lon="1.4313">
        <ele>93.199996948242</ele>
        <time>2026-06-17T14:02:15.000Z</time>
      </trkpt>
      <trkpt lat="48.71693" lon="1.4312">
        <ele>93.199996948242</ele>
        <time>2026-06-17T14:02:18.000Z</time>
      </trkpt>
      <trkpt lat="48.71733" lon="1.43104">
        <ele>93.199996948242</ele>
        <time>2026-06-17T14:02:26.000Z</time>
      </trkpt>
      <trkpt lat="48.71777" lon="1.43084">
        <ele>93</ele>
        <time>2026-06-17T14:02:35.000Z</time>
      </trkpt>
      <trkpt lat="48.71826" lon="1.4306">
        <ele>92.800003051758</ele>
        <time>2026-06-17T14:02:45.000Z</time>
      </trkpt>
      <trkpt lat="48.71851" lon="1.43042">
        <ele>93</ele>
        <time>2026-06-17T14:02:51.000Z</time>
      </trkpt>
      <trkpt lat="48.71882" lon="1.4301">
        <ele>93.800003051758</ele>
        <time>2026-06-17T14:02:59.000Z</time>
      </trkpt>
      <trkpt lat="48.71906" lon="1.42984">
        <ele>93.400001525879</ele>
        <time>2026-06-17T14:03:05.000Z</time>
      </trkpt>
      <trkpt lat="48.71935" lon="1.4295">
        <ele>93.599998474121</ele>
        <time>2026-06-17T14:03:12.000Z</time>
      </trkpt>
      <trkpt lat="48.71963" lon="1.42916">
        <ele>93.599998474121</ele>
        <time>2026-06-17T14:03:19.000Z</time>
      </trkpt>
      <trkpt lat="48.71967" lon="1.42911">
        <ele>93.599998474121</ele>
        <time>2026-06-17T14:03:20.000Z</time>
      </trkpt>
      <trkpt lat="48.71978" lon="1.42888">
        <ele>93.599998474121</ele>
        <time>2026-06-17T14:03:25.000Z</time>
      </trkpt>
      <trkpt lat="48.71988" lon="1.42863">
        <ele>93.400001525879</ele>
        <time>2026-06-17T14:03:30.000Z</time>
      </trkpt>
      <trkpt lat="48.71991" lon="1.42858">
        <ele>93.400001525879</ele>
        <time>2026-06-17T14:03:31.000Z</time>
      </trkpt>
      <trkpt lat="48.72003" lon="1.42843">
        <ele>93.199996948242</ele>
        <time>2026-06-17T14:03:34.000Z</time>
      </trkpt>
      <trkpt lat="48.72038" lon="1.428">
        <ele>92.800003051758</ele>
        <time>2026-06-17T14:03:43.000Z</time>
      </trkpt>
      <trkpt lat="48.72074" lon="1.42757">
        <ele>92</ele>
        <time>2026-06-17T14:03:53.000Z</time>
      </trkpt>
      <trkpt lat="48.72088" lon="1.4274">
        <ele>92</ele>
        <time>2026-06-17T14:03:58.000Z</time>
      </trkpt>
      <trkpt lat="48.72102" lon="1.42728">
        <ele>92</ele>
        <time>2026-06-17T14:04:04.000Z</time>
      </trkpt>
      <trkpt lat="48.72102" lon="1.42727">
        <ele>92</ele>
        <time>2026-06-17T14:04:05.000Z</time>
      </trkpt>
      <trkpt lat="48.72103" lon="1.42726">
        <ele>92</ele>
        <time>2026-06-17T14:04:08.000Z</time>
      </trkpt>
      <trkpt lat="48.72103" lon="1.42726">
        <ele>92</ele>
        <time>2026-06-17T14:04:11.000Z</time>
      </trkpt>
      <trkpt lat="48.72102" lon="1.42736">
        <ele>91.800003051758</ele>
        <time>2026-06-17T14:25:34.000Z</time>
      </trkpt>
      <trkpt lat="48.72101" lon="1.42733">
        <ele>91.800003051758</ele>
        <time>2026-06-17T14:25:37.000Z</time>
      </trkpt>
      <trkpt lat="48.72102" lon="1.42732">
        <ele>91.800003051758</ele>
        <time>2026-06-17T14:25:38.000Z</time>
      </trkpt>
      <trkpt lat="48.72105" lon="1.4273">
        <ele>92.199996948242</ele>
        <time>2026-06-17T14:25:43.000Z</time>
      </trkpt>
      <trkpt lat="48.72104" lon="1.42731">
        <ele>92.400001525879</ele>
        <time>2026-06-17T14:25:50.000Z</time>
      </trkpt>
      <trkpt lat="48.7211" lon="1.42727">
        <ele>92</ele>
        <time>2026-06-17T14:26:12.000Z</time>
      </trkpt>
      <trkpt lat="48.72122" lon="1.42717">
        <ele>92.400001525879</ele>
        <time>2026-06-17T14:26:19.000Z</time>
      </trkpt>
      <trkpt lat="48.72126" lon="1.42714">
        <ele>92.400001525879</ele>
        <time>2026-06-17T14:26:21.000Z</time>
      </trkpt>
      <trkpt lat="48.72133" lon="1.42715">
        <ele>92.400001525879</ele>
        <time>2026-06-17T14:26:24.000Z</time>
      </trkpt>
      <trkpt lat="48.72136" lon="1.42718">
        <ele>92.599998474121</ele>
        <time>2026-06-17T14:26:26.000Z</time>
      </trkpt>
      <trkpt lat="48.72137" lon="1.42724">
        <ele>92.800003051758</ele>
        <time>2026-06-17T14:26:28.000Z</time>
      </trkpt>
      <trkpt lat="48.72136" lon="1.42727">
        <ele>92.800003051758</ele>
        <time>2026-06-17T14:26:29.000Z</time>
      </trkpt>
      <trkpt lat="48.72131" lon="1.42732">
        <ele>93</ele>
        <time>2026-06-17T14:26:31.000Z</time>
      </trkpt>
      <trkpt lat="48.72129" lon="1.42735">
        <ele>93</ele>
        <time>2026-06-17T14:26:32.000Z</time>
      </trkpt>
      <trkpt lat="48.72109" lon="1.4276">
        <ele>93.599998474121</ele>
        <time>2026-06-17T14:26:42.000Z</time>
      </trkpt>
      <trkpt lat="48.72095" lon="1.42776">
        <ele>93.800003051758</ele>
        <time>2026-06-17T14:26:50.000Z</time>
      </trkpt>
      <trkpt lat="48.72079" lon="1.42795">
        <ele>93.800003051758</ele>
        <time>2026-06-17T14:26:56.000Z</time>
      </trkpt>
      <trkpt lat="48.72054" lon="1.42828">
        <ele>93.800003051758</ele>
        <time>2026-06-17T14:27:05.000Z</time>
      </trkpt>
      <trkpt lat="48.72051" lon="1.42832">
        <ele>94</ele>
        <time>2026-06-17T14:27:06.000Z</time>
      </trkpt>
      <trkpt lat="48.72024" lon="1.42866">
        <ele>94.400001525879</ele>
        <time>2026-06-17T14:27:14.000Z</time>
      </trkpt>
      <trkpt lat="48.71989" lon="1.42908">
        <ele>94.800003051758</ele>
        <time>2026-06-17T14:27:24.000Z</time>
      </trkpt>
      <trkpt lat="48.71957" lon="1.42944">
        <ele>95</ele>
        <time>2026-06-17T14:27:32.000Z</time>
      </trkpt>
      <trkpt lat="48.71915" lon="1.42991">
        <ele>94.599998474121</ele>
        <time>2026-06-17T14:27:44.000Z</time>
      </trkpt>
      <trkpt lat="48.71888" lon="1.43019">
        <ele>94.199996948242</ele>
        <time>2026-06-17T14:27:50.000Z</time>
      </trkpt>
      <trkpt lat="48.71884" lon="1.43023">
        <ele>94.199996948242</ele>
        <time>2026-06-17T14:27:51.000Z</time>
      </trkpt>
      <trkpt lat="48.71872" lon="1.43037">
        <ele>94</ele>
        <time>2026-06-17T14:27:54.000Z</time>
      </trkpt>
      <trkpt lat="48.71842" lon="1.43077">
        <ele>94</ele>
        <time>2026-06-17T14:28:02.000Z</time>
      </trkpt>
      <trkpt lat="48.71815" lon="1.43119">
        <ele>94.400001525879</ele>
        <time>2026-06-17T14:28:10.000Z</time>
      </trkpt>
      <trkpt lat="48.71784" lon="1.43171">
        <ele>95</ele>
        <time>2026-06-17T14:28:20.000Z</time>
      </trkpt>
      <trkpt lat="48.71777" lon="1.43182">
        <ele>95</ele>
        <time>2026-06-17T14:28:22.000Z</time>
      </trkpt>
      <trkpt lat="48.71746" lon="1.43231">
        <ele>95.800003051758</ele>
        <time>2026-06-17T14:28:31.000Z</time>
      </trkpt>
      <trkpt lat="48.71711" lon="1.4328">
        <ele>95.800003051758</ele>
        <time>2026-06-17T14:28:40.000Z</time>
      </trkpt>
      <trkpt lat="48.71665" lon="1.43327">
        <ele>95.599998474121</ele>
        <time>2026-06-17T14:28:49.000Z</time>
      </trkpt>
      <trkpt lat="48.71659" lon="1.43331">
        <ele>95.599998474121</ele>
        <time>2026-06-17T14:28:50.000Z</time>
      </trkpt>
      <trkpt lat="48.71627" lon="1.43349">
        <ele>95</ele>
        <time>2026-06-17T14:28:55.000Z</time>
      </trkpt>
      <trkpt lat="48.71597" lon="1.43374">
        <ele>94.599998474121</ele>
        <time>2026-06-17T14:29:00.000Z</time>
      </trkpt>
      <trkpt lat="48.71559" lon="1.43421">
        <ele>94.199996948242</ele>
        <time>2026-06-17T14:29:08.000Z</time>
      </trkpt>
      <trkpt lat="48.71543" lon="1.43441">
        <ele>94</ele>
        <time>2026-06-17T14:29:12.000Z</time>
      </trkpt>
      <trkpt lat="48.71528" lon="1.43457">
        <ele>93.800003051758</ele>
        <time>2026-06-17T14:29:15.000Z</time>
      </trkpt>
      <trkpt lat="48.71524" lon="1.43461">
        <ele>93.800003051758</ele>
        <time>2026-06-17T14:29:16.000Z</time>
      </trkpt>
      <trkpt lat="48.71496" lon="1.4348">
        <ele>93.800003051758</ele>
        <time>2026-06-17T14:29:21.000Z</time>
      </trkpt>
      <trkpt lat="48.71445" lon="1.43505">
        <ele>93.800003051758</ele>
        <time>2026-06-17T14:29:30.000Z</time>
      </trkpt>
      <trkpt lat="48.71409" lon="1.43521">
        <ele>94</ele>
        <time>2026-06-17T14:29:37.000Z</time>
      </trkpt>
      <trkpt lat="48.71366" lon="1.43544">
        <ele>94</ele>
        <time>2026-06-17T14:29:46.000Z</time>
      </trkpt>
      <trkpt lat="48.7133" lon="1.43569">
        <ele>94.400001525879</ele>
        <time>2026-06-17T14:29:53.000Z</time>
      </trkpt>
      <trkpt lat="48.71304" lon="1.43589">
        <ele>94.400001525879</ele>
        <time>2026-06-17T14:29:58.000Z</time>
      </trkpt>
      <trkpt lat="48.71299" lon="1.43593">
        <ele>94.400001525879</ele>
        <time>2026-06-17T14:29:59.000Z</time>
      </trkpt>
      <trkpt lat="48.71255" lon="1.43633">
        <ele>94.800003051758</ele>
        <time>2026-06-17T14:30:08.000Z</time>
      </trkpt>
      <trkpt lat="48.71216" lon="1.43671">
        <ele>94.800003051758</ele>
        <time>2026-06-17T14:30:16.000Z</time>
      </trkpt>
      <trkpt lat="48.71178" lon="1.43708">
        <ele>94.800003051758</ele>
        <time>2026-06-17T14:30:24.000Z</time>
      </trkpt>
      <trkpt lat="48.71163" lon="1.43722">
        <ele>94.800003051758</ele>
        <time>2026-06-17T14:30:27.000Z</time>
      </trkpt>
      <trkpt lat="48.71154" lon="1.43731">
        <ele>94.800003051758</ele>
        <time>2026-06-17T14:30:29.000Z</time>
      </trkpt>
      <trkpt lat="48.71143" lon="1.43738">
        <ele>95</ele>
        <time>2026-06-17T14:30:31.000Z</time>
      </trkpt>
      <trkpt lat="48.71102" lon="1.43763">
        <ele>95.400001525879</ele>
        <time>2026-06-17T14:30:39.000Z</time>
      </trkpt>
      <trkpt lat="48.71048" lon="1.43794">
        <ele>95.599998474121</ele>
        <time>2026-06-17T14:30:49.000Z</time>
      </trkpt>
      <trkpt lat="48.71042" lon="1.43798">
        <ele>95.599998474121</ele>
        <time>2026-06-17T14:30:50.000Z</time>
      </trkpt>
      <trkpt lat="48.70991" lon="1.43836">
        <ele>95</ele>
        <time>2026-06-17T14:30:59.000Z</time>
      </trkpt>
      <trkpt lat="48.70987" lon="1.4384">
        <ele>95.199996948242</ele>
        <time>2026-06-17T14:31:00.000Z</time>
      </trkpt>
      <trkpt lat="48.70946" lon="1.43876">
        <ele>94.800003051758</ele>
        <time>2026-06-17T14:31:08.000Z</time>
      </trkpt>
      <trkpt lat="48.70904" lon="1.43914">
        <ele>94.400001525879</ele>
        <time>2026-06-17T14:31:16.000Z</time>
      </trkpt>
      <trkpt lat="48.70866" lon="1.43947">
        <ele>94</ele>
        <time>2026-06-17T14:31:23.000Z</time>
      </trkpt>
      <trkpt lat="48.70851" lon="1.4396">
        <ele>94</ele>
        <time>2026-06-17T14:31:26.000Z</time>
      </trkpt>
      <trkpt lat="48.70806" lon="1.44001">
        <ele>93.800003051758</ele>
        <time>2026-06-17T14:31:35.000Z</time>
      </trkpt>
      <trkpt lat="48.70752" lon="1.44047">
        <ele>93.800003051758</ele>
        <time>2026-06-17T14:31:45.000Z</time>
      </trkpt>
      <trkpt lat="48.70703" lon="1.44082">
        <ele>93.199996948242</ele>
        <time>2026-06-17T14:31:54.000Z</time>
      </trkpt>
      <trkpt lat="48.70663" lon="1.44101">
        <ele>93.199996948242</ele>
        <time>2026-06-17T14:32:01.000Z</time>
      </trkpt>
      <trkpt lat="48.70607" lon="1.44122">
        <ele>93.599998474121</ele>
        <time>2026-06-17T14:32:11.000Z</time>
      </trkpt>
      <trkpt lat="48.70596" lon="1.44127">
        <ele>93.800003051758</ele>
        <time>2026-06-17T14:32:13.000Z</time>
      </trkpt>
      <trkpt lat="48.70546" lon="1.44154">
        <ele>94.199996948242</ele>
        <time>2026-06-17T14:32:22.000Z</time>
      </trkpt>
      <trkpt lat="48.70529" lon="1.44161">
        <ele>94.199996948242</ele>
        <time>2026-06-17T14:32:25.000Z</time>
      </trkpt>
      <trkpt lat="48.70517" lon="1.4416">
        <ele>94.199996948242</ele>
        <time>2026-06-17T14:32:27.000Z</time>
      </trkpt>
      <trkpt lat="48.70515" lon="1.44148">
        <ele>94.199996948242</ele>
        <time>2026-06-17T14:32:29.000Z</time>
      </trkpt>
      <trkpt lat="48.70518" lon="1.44142">
        <ele>94.199996948242</ele>
        <time>2026-06-17T14:32:30.000Z</time>
      </trkpt>
      <trkpt lat="48.70525" lon="1.44129">
        <ele>94.199996948242</ele>
        <time>2026-06-17T14:32:32.000Z</time>
      </trkpt>
      <trkpt lat="48.7054" lon="1.44087">
        <ele>94.199996948242</ele>
        <time>2026-06-17T14:32:37.000Z</time>
      </trkpt>
      <trkpt lat="48.70543" lon="1.44077">
        <ele>94.400001525879</ele>
        <time>2026-06-17T14:32:38.000Z</time>
      </trkpt>
      <trkpt lat="48.70551" lon="1.44043">
        <ele>94.400001525879</ele>
        <time>2026-06-17T14:32:42.000Z</time>
      </trkpt>
      <trkpt lat="48.70554" lon="1.44031">
        <ele>94.400001525879</ele>
        <time>2026-06-17T14:32:43.000Z</time>
      </trkpt>
      <trkpt lat="48.70569" lon="1.43948">
        <ele>94.599998474121</ele>
        <time>2026-06-17T14:32:52.000Z</time>
      </trkpt>
      <trkpt lat="48.70587" lon="1.43865">
        <ele>94.599998474121</ele>
        <time>2026-06-17T14:33:01.000Z</time>
      </trkpt>
      <trkpt lat="48.70612" lon="1.43784">
        <ele>94.400001525879</ele>
        <time>2026-06-17T14:33:10.000Z</time>
      </trkpt>
      <trkpt lat="48.70616" lon="1.43771">
        <ele>94.400001525879</ele>
        <time>2026-06-17T14:33:11.000Z</time>
      </trkpt>
      <trkpt lat="48.70627" lon="1.43737">
        <ele>94.199996948242</ele>
        <time>2026-06-17T14:33:16.000Z</time>
      </trkpt>
      <trkpt lat="48.70645" lon="1.43673">
        <ele>94.599998474121</ele>
        <time>2026-06-17T14:33:23.000Z</time>
      </trkpt>
      <trkpt lat="48.70663" lon="1.43589">
        <ele>94.599998474121</ele>
        <time>2026-06-17T14:33:32.000Z</time>
      </trkpt>
      <trkpt lat="48.70683" lon="1.43527">
        <ele>94.199996948242</ele>
        <time>2026-06-17T14:33:39.000Z</time>
      </trkpt>
      <trkpt lat="48.70698" lon="1.43498">
        <ele>94</ele>
        <time>2026-06-17T14:33:43.000Z</time>
      </trkpt>
      <trkpt lat="48.70707" lon="1.43484">
        <ele>93.800003051758</ele>
        <time>2026-06-17T14:33:45.000Z</time>
      </trkpt>
      <trkpt lat="48.70751" lon="1.43426">
        <ele>93.800003051758</ele>
        <time>2026-06-17T14:33:54.000Z</time>
      </trkpt>
      <trkpt lat="48.7076" lon="1.43413">
        <ele>93.800003051758</ele>
        <time>2026-06-17T14:33:56.000Z</time>
      </trkpt>
      <trkpt lat="48.70793" lon="1.4337">
        <ele>94</ele>
        <time>2026-06-17T14:34:03.000Z</time>
      </trkpt>
      <trkpt lat="48.70797" lon="1.43364">
        <ele>94</ele>
        <time>2026-06-17T14:34:04.000Z</time>
      </trkpt>
      <trkpt lat="48.70817" lon="1.43317">
        <ele>94</ele>
        <time>2026-06-17T14:34:10.000Z</time>
      </trkpt>
      <trkpt lat="48.70831" lon="1.43264">
        <ele>94.199996948242</ele>
        <time>2026-06-17T14:34:16.000Z</time>
      </trkpt>
      <trkpt lat="48.70844" lon="1.43183">
        <ele>94.400001525879</ele>
        <time>2026-06-17T14:34:25.000Z</time>
      </trkpt>
      <trkpt lat="48.70847" lon="1.43165">
        <ele>94.599998474121</ele>
        <time>2026-06-17T14:34:27.000Z</time>
      </trkpt>
      <trkpt lat="48.70848" lon="1.43156">
        <ele>94.599998474121</ele>
        <time>2026-06-17T14:34:28.000Z</time>
      </trkpt>
      <trkpt lat="48.70862" lon="1.43074">
        <ele>94.599998474121</ele>
        <time>2026-06-17T14:34:37.000Z</time>
      </trkpt>
      <trkpt lat="48.70865" lon="1.43057">
        <ele>94.599998474121</ele>
        <time>2026-06-17T14:34:39.000Z</time>
      </trkpt>
      <trkpt lat="48.70877" lon="1.42983">
        <ele>94.599998474121</ele>
        <time>2026-06-17T14:34:48.000Z</time>
      </trkpt>
      <trkpt lat="48.70881" lon="1.42951">
        <ele>94.400001525879</ele>
        <time>2026-06-17T14:34:52.000Z</time>
      </trkpt>
      <trkpt lat="48.70884" lon="1.42919">
        <ele>94.400001525879</ele>
        <time>2026-06-17T14:34:56.000Z</time>
      </trkpt>
      <trkpt lat="48.70891" lon="1.42837">
        <ele>94.400001525879</ele>
        <time>2026-06-17T14:35:06.000Z</time>
      </trkpt>
      <trkpt lat="48.70897" lon="1.42749">
        <ele>94.400001525879</ele>
        <time>2026-06-17T14:35:16.000Z</time>
      </trkpt>
      <trkpt lat="48.70904" lon="1.42665">
        <ele>94.400001525879</ele>
        <time>2026-06-17T14:35:26.000Z</time>
      </trkpt>
      <trkpt lat="48.70905" lon="1.42648">
        <ele>94.400001525879</ele>
        <time>2026-06-17T14:35:28.000Z</time>
      </trkpt>
      <trkpt lat="48.70905" lon="1.42639">
        <ele>94.199996948242</ele>
        <time>2026-06-17T14:35:29.000Z</time>
      </trkpt>
      <trkpt lat="48.70905" lon="1.42623">
        <ele>94.199996948242</ele>
        <time>2026-06-17T14:35:31.000Z</time>
      </trkpt>
      <trkpt lat="48.70903" lon="1.42589">
        <ele>94.199996948242</ele>
        <time>2026-06-17T14:35:35.000Z</time>
      </trkpt>
      <trkpt lat="48.70898" lon="1.42563">
        <ele>94</ele>
        <time>2026-06-17T14:35:38.000Z</time>
      </trkpt>
      <trkpt lat="48.70893" lon="1.42551">
        <ele>93.800003051758</ele>
        <time>2026-06-17T14:35:40.000Z</time>
      </trkpt>
      <trkpt lat="48.70876" lon="1.42524">
        <ele>93.800003051758</ele>
        <time>2026-06-17T14:35:45.000Z</time>
      </trkpt>
      <trkpt lat="48.70852" lon="1.4249">
        <ele>93.400001525879</ele>
        <time>2026-06-17T14:35:53.000Z</time>
      </trkpt>
      <trkpt lat="48.70845" lon="1.42472">
        <ele>93.400001525879</ele>
        <time>2026-06-17T14:35:58.000Z</time>
      </trkpt>
      <trkpt lat="48.70843" lon="1.42461">
        <ele>93.400001525879</ele>
        <time>2026-06-17T14:36:02.000Z</time>
      </trkpt>
      <trkpt lat="48.70843" lon="1.42461">
        <ele>93.400001525879</ele>
        <time>2026-06-17T14:36:03.000Z</time>
      </trkpt>
      <trkpt lat="48.70843" lon="1.42461">
        <ele>93.199996948242</ele>
        <time>2026-06-17T14:36:05.000Z</time>
      </trkpt>
      <trkpt lat="48.70843" lon="1.42461">
        <ele>93.199996948242</ele>
        <time>2026-06-17T14:36:06.000Z</time>
      </trkpt>
    </trkseg>
  </trk>
</gpx>